<?xml version="1.0" encoding="UTF-8" standalone="no" ?>
<gpx xmlns="http://www.topografix.com/GPX/1/1" xmlns:xsi="http://www.w3.org/2001/XMLSchema-instance" xsi:schemaLocation="http://www.topografix.com/GPX/1/1 http://www.topografix.com/GPX/1/1/gpx.xsd" version="1.1" creator="VisuGPX - https://www.visugpx.com">
  <metadata>
    <name>O-E-Rouans Chéméré St Pazanne St Lumine Chevrolière St Aignan</name>
    <desc><![CDATA[O-E-Rouans Chéméré St Pazanne St Lumine Chevrolière St Aignan]]></desc>
  </metadata>
  <trk>
    <name><![CDATA[2020-06-03 16:50]]></name>
    <desc><![CDATA[<p>Heure de départ: 06/03/2020 16:50<br/>Heure d'arrivée: 06/03/2020 19:55<br/>Distance: 78,4 km (03:05)<br/>Temps déplacement: 03:04<br/>Vitesse moyenne: 25,36 km/h<br/>Vitesse moyenne mouv.: 25,53 km/h<br/>Vitesse Max.: 37,27 km/h<br/>Altitude minimale: -9 m<br/>Altitude maximale: 52 m<br/>Vitesse de montée: 738,6 m/h<br/>Vitesse de descente: -741,3 m/h<br/>Gain d'altitude: 988 m<br/>Perte d'altitude: -986 m<br/>Temps de montée: 01:20<br/>Temps de descente: 01:19<br/></p><hr align="center" width="480" style="height: 2px; width: 517px"/>]]></desc>
    <trkseg>
      <trkpt lat="47.16781" lon="-1.62643">
        <ele>19.49</ele>
        <time>2020-06-03T14:50:23Z</time>
      </trkpt>
      <trkpt lat="47.16777" lon="-1.62658">
        <ele>14.3</ele>
        <time>2020-06-03T14:50:31Z</time>
      </trkpt>
      <trkpt lat="47.16772" lon="-1.62677">
        <ele>21.63</ele>
        <time>2020-06-03T14:50:42Z</time>
      </trkpt>
      <trkpt lat="47.16758" lon="-1.62675">
        <ele>21.79</ele>
        <time>2020-06-03T14:50:45Z</time>
      </trkpt>
      <trkpt lat="47.16745" lon="-1.6267">
        <ele>21.96</ele>
        <time>2020-06-03T14:50:47Z</time>
      </trkpt>
      <trkpt lat="47.16733" lon="-1.62675">
        <ele>23.69</ele>
        <time>2020-06-03T14:50:49Z</time>
      </trkpt>
      <trkpt lat="47.16724" lon="-1.62685">
        <ele>22.49</ele>
        <time>2020-06-03T14:50:51Z</time>
      </trkpt>
      <trkpt lat="47.16714" lon="-1.62696">
        <ele>21.46</ele>
        <time>2020-06-03T14:50:53Z</time>
      </trkpt>
      <trkpt lat="47.16714" lon="-1.62711">
        <ele>22.28</ele>
        <time>2020-06-03T14:50:55Z</time>
      </trkpt>
      <trkpt lat="47.16721" lon="-1.62726">
        <ele>22.87</ele>
        <time>2020-06-03T14:50:57Z</time>
      </trkpt>
      <trkpt lat="47.16729" lon="-1.62742">
        <ele>23</ele>
        <time>2020-06-03T14:50:59Z</time>
      </trkpt>
      <trkpt lat="47.16738" lon="-1.62754">
        <ele>21.52</ele>
        <time>2020-06-03T14:51:01Z</time>
      </trkpt>
      <trkpt lat="47.16749" lon="-1.62767">
        <ele>19.24</ele>
        <time>2020-06-03T14:51:03Z</time>
      </trkpt>
      <trkpt lat="47.1676" lon="-1.62778">
        <ele>17.18</ele>
        <time>2020-06-03T14:51:05Z</time>
      </trkpt>
      <trkpt lat="47.16773" lon="-1.6279">
        <ele>14.88</ele>
        <time>2020-06-03T14:51:07Z</time>
      </trkpt>
      <trkpt lat="47.16785" lon="-1.628">
        <ele>12.35</ele>
        <time>2020-06-03T14:51:09Z</time>
      </trkpt>
      <trkpt lat="47.16798" lon="-1.62811">
        <ele>10.04</ele>
        <time>2020-06-03T14:51:11Z</time>
      </trkpt>
      <trkpt lat="47.16808" lon="-1.62819">
        <ele>9.54</ele>
        <time>2020-06-03T14:51:13Z</time>
      </trkpt>
      <trkpt lat="47.16819" lon="-1.62828">
        <ele>10.22</ele>
        <time>2020-06-03T14:51:15Z</time>
      </trkpt>
      <trkpt lat="47.16829" lon="-1.62837">
        <ele>10.19</ele>
        <time>2020-06-03T14:51:17Z</time>
      </trkpt>
      <trkpt lat="47.16842" lon="-1.62849">
        <ele>9.26</ele>
        <time>2020-06-03T14:51:19Z</time>
      </trkpt>
      <trkpt lat="47.16854" lon="-1.62857">
        <ele>8.43</ele>
        <time>2020-06-03T14:51:21Z</time>
      </trkpt>
      <trkpt lat="47.16864" lon="-1.62865">
        <ele>7.14</ele>
        <time>2020-06-03T14:51:23Z</time>
      </trkpt>
      <trkpt lat="47.16874" lon="-1.62874">
        <ele>4.94</ele>
        <time>2020-06-03T14:51:25Z</time>
      </trkpt>
      <trkpt lat="47.16884" lon="-1.62886">
        <ele>2.06</ele>
        <time>2020-06-03T14:51:27Z</time>
      </trkpt>
      <trkpt lat="47.16892" lon="-1.62899">
        <ele>-0.48</ele>
        <time>2020-06-03T14:51:29Z</time>
      </trkpt>
      <trkpt lat="47.16898" lon="-1.62915">
        <ele>-1.56</ele>
        <time>2020-06-03T14:51:31Z</time>
      </trkpt>
      <trkpt lat="47.16901" lon="-1.62932">
        <ele>-2.78</ele>
        <time>2020-06-03T14:51:33Z</time>
      </trkpt>
      <trkpt lat="47.16902" lon="-1.62948">
        <ele>-3.67</ele>
        <time>2020-06-03T14:51:35Z</time>
      </trkpt>
      <trkpt lat="47.16902" lon="-1.62967">
        <ele>-4.06</ele>
        <time>2020-06-03T14:51:37Z</time>
      </trkpt>
      <trkpt lat="47.16901" lon="-1.62986">
        <ele>-3.38</ele>
        <time>2020-06-03T14:51:39Z</time>
      </trkpt>
      <trkpt lat="47.16899" lon="-1.63006">
        <ele>-3.3</ele>
        <time>2020-06-03T14:51:41Z</time>
      </trkpt>
      <trkpt lat="47.16897" lon="-1.63023">
        <ele>-2.69</ele>
        <time>2020-06-03T14:51:43Z</time>
      </trkpt>
      <trkpt lat="47.16895" lon="-1.63043">
        <ele>-1.69</ele>
        <time>2020-06-03T14:51:45Z</time>
      </trkpt>
      <trkpt lat="47.16895" lon="-1.63062">
        <ele>-1.06</ele>
        <time>2020-06-03T14:51:47Z</time>
      </trkpt>
      <trkpt lat="47.16896" lon="-1.63083">
        <ele>0.55</ele>
        <time>2020-06-03T14:51:49Z</time>
      </trkpt>
      <trkpt lat="47.16898" lon="-1.63101">
        <ele>2.75</ele>
        <time>2020-06-03T14:51:51Z</time>
      </trkpt>
      <trkpt lat="47.16901" lon="-1.63119">
        <ele>4.14</ele>
        <time>2020-06-03T14:51:53Z</time>
      </trkpt>
      <trkpt lat="47.16906" lon="-1.63138">
        <ele>5.04</ele>
        <time>2020-06-03T14:51:55Z</time>
      </trkpt>
      <trkpt lat="47.16909" lon="-1.63151">
        <ele>8.17</ele>
        <time>2020-06-03T14:51:57Z</time>
      </trkpt>
      <trkpt lat="47.16915" lon="-1.63166">
        <ele>11.07</ele>
        <time>2020-06-03T14:51:59Z</time>
      </trkpt>
      <trkpt lat="47.16921" lon="-1.63183">
        <ele>14.22</ele>
        <time>2020-06-03T14:52:01Z</time>
      </trkpt>
      <trkpt lat="47.16927" lon="-1.63197">
        <ele>18.27</ele>
        <time>2020-06-03T14:52:03Z</time>
      </trkpt>
      <trkpt lat="47.16935" lon="-1.63211">
        <ele>20.42</ele>
        <time>2020-06-03T14:52:05Z</time>
      </trkpt>
      <trkpt lat="47.16941" lon="-1.63223">
        <ele>22.87</ele>
        <time>2020-06-03T14:52:07Z</time>
      </trkpt>
      <trkpt lat="47.16949" lon="-1.63234">
        <ele>23.99</ele>
        <time>2020-06-03T14:52:09Z</time>
      </trkpt>
      <trkpt lat="47.16956" lon="-1.63244">
        <ele>24.57</ele>
        <time>2020-06-03T14:52:11Z</time>
      </trkpt>
      <trkpt lat="47.16965" lon="-1.63254">
        <ele>23.63</ele>
        <time>2020-06-03T14:52:14Z</time>
      </trkpt>
      <trkpt lat="47.16961" lon="-1.63271">
        <ele>23.9</ele>
        <time>2020-06-03T14:52:18Z</time>
      </trkpt>
      <trkpt lat="47.16954" lon="-1.63284">
        <ele>23.29</ele>
        <time>2020-06-03T14:52:20Z</time>
      </trkpt>
      <trkpt lat="47.16944" lon="-1.63299">
        <ele>23.41</ele>
        <time>2020-06-03T14:52:22Z</time>
      </trkpt>
      <trkpt lat="47.16935" lon="-1.63314">
        <ele>24.04</ele>
        <time>2020-06-03T14:52:24Z</time>
      </trkpt>
      <trkpt lat="47.16927" lon="-1.63325">
        <ele>25.74</ele>
        <time>2020-06-03T14:52:26Z</time>
      </trkpt>
      <trkpt lat="47.16919" lon="-1.63336">
        <ele>27.62</ele>
        <time>2020-06-03T14:52:28Z</time>
      </trkpt>
      <trkpt lat="47.16911" lon="-1.63346">
        <ele>27.76</ele>
        <time>2020-06-03T14:52:30Z</time>
      </trkpt>
      <trkpt lat="47.16902" lon="-1.63358">
        <ele>28.29</ele>
        <time>2020-06-03T14:52:32Z</time>
      </trkpt>
      <trkpt lat="47.16894" lon="-1.63371">
        <ele>28.07</ele>
        <time>2020-06-03T14:52:34Z</time>
      </trkpt>
      <trkpt lat="47.16887" lon="-1.63384">
        <ele>27.43</ele>
        <time>2020-06-03T14:52:36Z</time>
      </trkpt>
      <trkpt lat="47.16879" lon="-1.63396">
        <ele>27.95</ele>
        <time>2020-06-03T14:52:38Z</time>
      </trkpt>
      <trkpt lat="47.16872" lon="-1.6341">
        <ele>28.23</ele>
        <time>2020-06-03T14:52:40Z</time>
      </trkpt>
      <trkpt lat="47.16864" lon="-1.63424">
        <ele>28.14</ele>
        <time>2020-06-03T14:52:42Z</time>
      </trkpt>
      <trkpt lat="47.16857" lon="-1.63438">
        <ele>28.35</ele>
        <time>2020-06-03T14:52:44Z</time>
      </trkpt>
      <trkpt lat="47.16849" lon="-1.63451">
        <ele>28.38</ele>
        <time>2020-06-03T14:52:46Z</time>
      </trkpt>
      <trkpt lat="47.16839" lon="-1.63467">
        <ele>29.62</ele>
        <time>2020-06-03T14:52:49Z</time>
      </trkpt>
      <trkpt lat="47.1683" lon="-1.63481">
        <ele>29.71</ele>
        <time>2020-06-03T14:52:51Z</time>
      </trkpt>
      <trkpt lat="47.16822" lon="-1.63494">
        <ele>30.89</ele>
        <time>2020-06-03T14:52:53Z</time>
      </trkpt>
      <trkpt lat="47.16814" lon="-1.63506">
        <ele>31.61</ele>
        <time>2020-06-03T14:52:55Z</time>
      </trkpt>
      <trkpt lat="47.16806" lon="-1.6352">
        <ele>31.29</ele>
        <time>2020-06-03T14:52:57Z</time>
      </trkpt>
      <trkpt lat="47.16799" lon="-1.63533">
        <ele>30.17</ele>
        <time>2020-06-03T14:52:59Z</time>
      </trkpt>
      <trkpt lat="47.16791" lon="-1.63547">
        <ele>28.9</ele>
        <time>2020-06-03T14:53:01Z</time>
      </trkpt>
      <trkpt lat="47.16783" lon="-1.6356">
        <ele>28.78</ele>
        <time>2020-06-03T14:53:03Z</time>
      </trkpt>
      <trkpt lat="47.16775" lon="-1.63574">
        <ele>27.16</ele>
        <time>2020-06-03T14:53:05Z</time>
      </trkpt>
      <trkpt lat="47.16768" lon="-1.63584">
        <ele>26.86</ele>
        <time>2020-06-03T14:53:07Z</time>
      </trkpt>
      <trkpt lat="47.16761" lon="-1.63597">
        <ele>26.12</ele>
        <time>2020-06-03T14:53:09Z</time>
      </trkpt>
      <trkpt lat="47.16754" lon="-1.6361">
        <ele>25.93</ele>
        <time>2020-06-03T14:53:11Z</time>
      </trkpt>
      <trkpt lat="47.16746" lon="-1.63624">
        <ele>25.97</ele>
        <time>2020-06-03T14:53:13Z</time>
      </trkpt>
      <trkpt lat="47.16741" lon="-1.63637">
        <ele>25.65</ele>
        <time>2020-06-03T14:53:15Z</time>
      </trkpt>
      <trkpt lat="47.16749" lon="-1.63648">
        <ele>24.92</ele>
        <time>2020-06-03T14:53:17Z</time>
      </trkpt>
      <trkpt lat="47.16762" lon="-1.63652">
        <ele>25.9</ele>
        <time>2020-06-03T14:53:19Z</time>
      </trkpt>
      <trkpt lat="47.16775" lon="-1.63656">
        <ele>27.21</ele>
        <time>2020-06-03T14:53:21Z</time>
      </trkpt>
      <trkpt lat="47.16787" lon="-1.63659">
        <ele>29.28</ele>
        <time>2020-06-03T14:53:23Z</time>
      </trkpt>
      <trkpt lat="47.16799" lon="-1.63662">
        <ele>30.03</ele>
        <time>2020-06-03T14:53:25Z</time>
      </trkpt>
      <trkpt lat="47.16813" lon="-1.63666">
        <ele>30.97</ele>
        <time>2020-06-03T14:53:27Z</time>
      </trkpt>
      <trkpt lat="47.16824" lon="-1.6367">
        <ele>30.94</ele>
        <time>2020-06-03T14:53:29Z</time>
      </trkpt>
      <trkpt lat="47.16836" lon="-1.63674">
        <ele>30.15</ele>
        <time>2020-06-03T14:53:31Z</time>
      </trkpt>
      <trkpt lat="47.1685" lon="-1.63679">
        <ele>29.97</ele>
        <time>2020-06-03T14:53:33Z</time>
      </trkpt>
      <trkpt lat="47.16861" lon="-1.63683">
        <ele>29.41</ele>
        <time>2020-06-03T14:53:35Z</time>
      </trkpt>
      <trkpt lat="47.16874" lon="-1.63688">
        <ele>28.54</ele>
        <time>2020-06-03T14:53:37Z</time>
      </trkpt>
      <trkpt lat="47.16886" lon="-1.63692">
        <ele>28.19</ele>
        <time>2020-06-03T14:53:39Z</time>
      </trkpt>
      <trkpt lat="47.16897" lon="-1.63696">
        <ele>27.87</ele>
        <time>2020-06-03T14:53:41Z</time>
      </trkpt>
      <trkpt lat="47.16909" lon="-1.637">
        <ele>27.05</ele>
        <time>2020-06-03T14:53:43Z</time>
      </trkpt>
      <trkpt lat="47.16921" lon="-1.63705">
        <ele>26.77</ele>
        <time>2020-06-03T14:53:45Z</time>
      </trkpt>
      <trkpt lat="47.16936" lon="-1.63712">
        <ele>26.38</ele>
        <time>2020-06-03T14:53:47Z</time>
      </trkpt>
      <trkpt lat="47.16948" lon="-1.63717">
        <ele>25.75</ele>
        <time>2020-06-03T14:53:49Z</time>
      </trkpt>
      <trkpt lat="47.1696" lon="-1.63721">
        <ele>25.3</ele>
        <time>2020-06-03T14:53:51Z</time>
      </trkpt>
      <trkpt lat="47.16972" lon="-1.63725">
        <ele>24.58</ele>
        <time>2020-06-03T14:53:53Z</time>
      </trkpt>
      <trkpt lat="47.16985" lon="-1.6373">
        <ele>25.03</ele>
        <time>2020-06-03T14:53:55Z</time>
      </trkpt>
      <trkpt lat="47.16995" lon="-1.63734">
        <ele>24.17</ele>
        <time>2020-06-03T14:53:57Z</time>
      </trkpt>
      <trkpt lat="47.17006" lon="-1.63739">
        <ele>23.82</ele>
        <time>2020-06-03T14:54:00Z</time>
      </trkpt>
      <trkpt lat="47.17019" lon="-1.63742">
        <ele>23.64</ele>
        <time>2020-06-03T14:54:01Z</time>
      </trkpt>
      <trkpt lat="47.17031" lon="-1.63747">
        <ele>23.19</ele>
        <time>2020-06-03T14:54:04Z</time>
      </trkpt>
      <trkpt lat="47.17044" lon="-1.63752">
        <ele>24.2</ele>
        <time>2020-06-03T14:54:06Z</time>
      </trkpt>
      <trkpt lat="47.17055" lon="-1.63762">
        <ele>24.37</ele>
        <time>2020-06-03T14:54:08Z</time>
      </trkpt>
      <trkpt lat="47.17066" lon="-1.63775">
        <ele>24.5</ele>
        <time>2020-06-03T14:54:10Z</time>
      </trkpt>
      <trkpt lat="47.17072" lon="-1.63791">
        <ele>24.59</ele>
        <time>2020-06-03T14:54:12Z</time>
      </trkpt>
      <trkpt lat="47.17079" lon="-1.63809">
        <ele>23.74</ele>
        <time>2020-06-03T14:54:14Z</time>
      </trkpt>
      <trkpt lat="47.17083" lon="-1.63825">
        <ele>24.33</ele>
        <time>2020-06-03T14:54:16Z</time>
      </trkpt>
      <trkpt lat="47.17087" lon="-1.6384">
        <ele>25.17</ele>
        <time>2020-06-03T14:54:18Z</time>
      </trkpt>
      <trkpt lat="47.17092" lon="-1.63858">
        <ele>25.55</ele>
        <time>2020-06-03T14:54:20Z</time>
      </trkpt>
      <trkpt lat="47.17097" lon="-1.63876">
        <ele>26.49</ele>
        <time>2020-06-03T14:54:22Z</time>
      </trkpt>
      <trkpt lat="47.17103" lon="-1.63892">
        <ele>26.87</ele>
        <time>2020-06-03T14:54:24Z</time>
      </trkpt>
      <trkpt lat="47.17108" lon="-1.63908">
        <ele>26.69</ele>
        <time>2020-06-03T14:54:26Z</time>
      </trkpt>
      <trkpt lat="47.17114" lon="-1.63925">
        <ele>26.35</ele>
        <time>2020-06-03T14:54:28Z</time>
      </trkpt>
      <trkpt lat="47.1712" lon="-1.63938">
        <ele>26.26</ele>
        <time>2020-06-03T14:54:30Z</time>
      </trkpt>
      <trkpt lat="47.17129" lon="-1.63948">
        <ele>25.8</ele>
        <time>2020-06-03T14:54:32Z</time>
      </trkpt>
      <trkpt lat="47.17137" lon="-1.63963">
        <ele>26.68</ele>
        <time>2020-06-03T14:54:36Z</time>
      </trkpt>
      <trkpt lat="47.17137" lon="-1.6398">
        <ele>26.09</ele>
        <time>2020-06-03T14:54:38Z</time>
      </trkpt>
      <trkpt lat="47.17138" lon="-1.63999">
        <ele>26.06</ele>
        <time>2020-06-03T14:54:40Z</time>
      </trkpt>
      <trkpt lat="47.17137" lon="-1.64018">
        <ele>25.88</ele>
        <time>2020-06-03T14:54:42Z</time>
      </trkpt>
      <trkpt lat="47.17136" lon="-1.64038">
        <ele>25.01</ele>
        <time>2020-06-03T14:54:44Z</time>
      </trkpt>
      <trkpt lat="47.17134" lon="-1.64056">
        <ele>24.45</ele>
        <time>2020-06-03T14:54:46Z</time>
      </trkpt>
      <trkpt lat="47.17132" lon="-1.64074">
        <ele>23.55</ele>
        <time>2020-06-03T14:54:48Z</time>
      </trkpt>
      <trkpt lat="47.17129" lon="-1.64093">
        <ele>23.37</ele>
        <time>2020-06-03T14:54:50Z</time>
      </trkpt>
      <trkpt lat="47.17127" lon="-1.64112">
        <ele>23.62</ele>
        <time>2020-06-03T14:54:52Z</time>
      </trkpt>
      <trkpt lat="47.17125" lon="-1.64129">
        <ele>23.04</ele>
        <time>2020-06-03T14:54:54Z</time>
      </trkpt>
      <trkpt lat="47.17123" lon="-1.64147">
        <ele>22.73</ele>
        <time>2020-06-03T14:54:56Z</time>
      </trkpt>
      <trkpt lat="47.17121" lon="-1.64164">
        <ele>23.09</ele>
        <time>2020-06-03T14:54:58Z</time>
      </trkpt>
      <trkpt lat="47.17119" lon="-1.64183">
        <ele>24.19</ele>
        <time>2020-06-03T14:55:00Z</time>
      </trkpt>
      <trkpt lat="47.17117" lon="-1.64203">
        <ele>24.68</ele>
        <time>2020-06-03T14:55:02Z</time>
      </trkpt>
      <trkpt lat="47.17114" lon="-1.64221">
        <ele>25.24</ele>
        <time>2020-06-03T14:55:04Z</time>
      </trkpt>
      <trkpt lat="47.17111" lon="-1.64239">
        <ele>25.81</ele>
        <time>2020-06-03T14:55:06Z</time>
      </trkpt>
      <trkpt lat="47.17109" lon="-1.64258">
        <ele>25.69</ele>
        <time>2020-06-03T14:55:08Z</time>
      </trkpt>
      <trkpt lat="47.17108" lon="-1.64277">
        <ele>25.53</ele>
        <time>2020-06-03T14:55:10Z</time>
      </trkpt>
      <trkpt lat="47.17106" lon="-1.64295">
        <ele>25.96</ele>
        <time>2020-06-03T14:55:12Z</time>
      </trkpt>
      <trkpt lat="47.17104" lon="-1.64317">
        <ele>25.81</ele>
        <time>2020-06-03T14:55:14Z</time>
      </trkpt>
      <trkpt lat="47.17102" lon="-1.64332">
        <ele>25.76</ele>
        <time>2020-06-03T14:55:16Z</time>
      </trkpt>
      <trkpt lat="47.171" lon="-1.64349">
        <ele>25.84</ele>
        <time>2020-06-03T14:55:18Z</time>
      </trkpt>
      <trkpt lat="47.17099" lon="-1.64368">
        <ele>24.83</ele>
        <time>2020-06-03T14:55:20Z</time>
      </trkpt>
      <trkpt lat="47.17097" lon="-1.64385">
        <ele>23.82</ele>
        <time>2020-06-03T14:55:22Z</time>
      </trkpt>
      <trkpt lat="47.17096" lon="-1.64405">
        <ele>23.14</ele>
        <time>2020-06-03T14:55:24Z</time>
      </trkpt>
      <trkpt lat="47.17094" lon="-1.64426">
        <ele>23.18</ele>
        <time>2020-06-03T14:55:26Z</time>
      </trkpt>
      <trkpt lat="47.17093" lon="-1.64443">
        <ele>23.01</ele>
        <time>2020-06-03T14:55:28Z</time>
      </trkpt>
      <trkpt lat="47.17092" lon="-1.64462">
        <ele>23.18</ele>
        <time>2020-06-03T14:55:30Z</time>
      </trkpt>
      <trkpt lat="47.17091" lon="-1.64481">
        <ele>24.11</ele>
        <time>2020-06-03T14:55:32Z</time>
      </trkpt>
      <trkpt lat="47.1709" lon="-1.64496">
        <ele>25.08</ele>
        <time>2020-06-03T14:55:34Z</time>
      </trkpt>
      <trkpt lat="47.17089" lon="-1.64518">
        <ele>25.02</ele>
        <time>2020-06-03T14:55:36Z</time>
      </trkpt>
      <trkpt lat="47.17088" lon="-1.64536">
        <ele>24.37</ele>
        <time>2020-06-03T14:55:38Z</time>
      </trkpt>
      <trkpt lat="47.17087" lon="-1.64553">
        <ele>24.27</ele>
        <time>2020-06-03T14:55:40Z</time>
      </trkpt>
      <trkpt lat="47.17087" lon="-1.64573">
        <ele>24.37</ele>
        <time>2020-06-03T14:55:42Z</time>
      </trkpt>
      <trkpt lat="47.17086" lon="-1.64592">
        <ele>24.89</ele>
        <time>2020-06-03T14:55:44Z</time>
      </trkpt>
      <trkpt lat="47.17086" lon="-1.64609">
        <ele>25.05</ele>
        <time>2020-06-03T14:55:46Z</time>
      </trkpt>
      <trkpt lat="47.17086" lon="-1.64628">
        <ele>24.51</ele>
        <time>2020-06-03T14:55:48Z</time>
      </trkpt>
      <trkpt lat="47.17086" lon="-1.64642">
        <ele>23.88</ele>
        <time>2020-06-03T14:55:50Z</time>
      </trkpt>
      <trkpt lat="47.17087" lon="-1.64661">
        <ele>23.7</ele>
        <time>2020-06-03T14:55:52Z</time>
      </trkpt>
      <trkpt lat="47.17087" lon="-1.64678">
        <ele>24.17</ele>
        <time>2020-06-03T14:55:54Z</time>
      </trkpt>
      <trkpt lat="47.17087" lon="-1.64698">
        <ele>25.06</ele>
        <time>2020-06-03T14:55:56Z</time>
      </trkpt>
      <trkpt lat="47.17087" lon="-1.64716">
        <ele>26.5</ele>
        <time>2020-06-03T14:55:58Z</time>
      </trkpt>
      <trkpt lat="47.17086" lon="-1.64734">
        <ele>27.93</ele>
        <time>2020-06-03T14:56:00Z</time>
      </trkpt>
      <trkpt lat="47.17087" lon="-1.64751">
        <ele>28.06</ele>
        <time>2020-06-03T14:56:02Z</time>
      </trkpt>
      <trkpt lat="47.17088" lon="-1.6477">
        <ele>28.68</ele>
        <time>2020-06-03T14:56:04Z</time>
      </trkpt>
      <trkpt lat="47.17088" lon="-1.64789">
        <ele>29.01</ele>
        <time>2020-06-03T14:56:06Z</time>
      </trkpt>
      <trkpt lat="47.17089" lon="-1.64807">
        <ele>28.95</ele>
        <time>2020-06-03T14:56:08Z</time>
      </trkpt>
      <trkpt lat="47.17089" lon="-1.64825">
        <ele>27.84</ele>
        <time>2020-06-03T14:56:10Z</time>
      </trkpt>
      <trkpt lat="47.1709" lon="-1.64842">
        <ele>27.6</ele>
        <time>2020-06-03T14:56:12Z</time>
      </trkpt>
      <trkpt lat="47.17092" lon="-1.64858">
        <ele>27.35</ele>
        <time>2020-06-03T14:56:14Z</time>
      </trkpt>
      <trkpt lat="47.17093" lon="-1.64875">
        <ele>26.53</ele>
        <time>2020-06-03T14:56:16Z</time>
      </trkpt>
      <trkpt lat="47.17096" lon="-1.64897">
        <ele>26.55</ele>
        <time>2020-06-03T14:56:18Z</time>
      </trkpt>
      <trkpt lat="47.17099" lon="-1.64916">
        <ele>27.22</ele>
        <time>2020-06-03T14:56:20Z</time>
      </trkpt>
      <trkpt lat="47.171" lon="-1.64932">
        <ele>26.98</ele>
        <time>2020-06-03T14:56:22Z</time>
      </trkpt>
      <trkpt lat="47.17103" lon="-1.6495">
        <ele>26.65</ele>
        <time>2020-06-03T14:56:24Z</time>
      </trkpt>
      <trkpt lat="47.17104" lon="-1.64969">
        <ele>26.46</ele>
        <time>2020-06-03T14:56:26Z</time>
      </trkpt>
      <trkpt lat="47.17106" lon="-1.64987">
        <ele>26.5</ele>
        <time>2020-06-03T14:56:28Z</time>
      </trkpt>
      <trkpt lat="47.17107" lon="-1.65006">
        <ele>25.35</ele>
        <time>2020-06-03T14:56:30Z</time>
      </trkpt>
      <trkpt lat="47.17108" lon="-1.65022">
        <ele>24.73</ele>
        <time>2020-06-03T14:56:32Z</time>
      </trkpt>
      <trkpt lat="47.17109" lon="-1.65037">
        <ele>24.41</ele>
        <time>2020-06-03T14:56:34Z</time>
      </trkpt>
      <trkpt lat="47.1711" lon="-1.65054">
        <ele>24.84</ele>
        <time>2020-06-03T14:56:36Z</time>
      </trkpt>
      <trkpt lat="47.17111" lon="-1.65073">
        <ele>25.57</ele>
        <time>2020-06-03T14:56:38Z</time>
      </trkpt>
      <trkpt lat="47.17113" lon="-1.65093">
        <ele>25.69</ele>
        <time>2020-06-03T14:56:40Z</time>
      </trkpt>
      <trkpt lat="47.17114" lon="-1.6511">
        <ele>25.54</ele>
        <time>2020-06-03T14:56:42Z</time>
      </trkpt>
      <trkpt lat="47.17115" lon="-1.65127">
        <ele>26.8</ele>
        <time>2020-06-03T14:56:44Z</time>
      </trkpt>
      <trkpt lat="47.17116" lon="-1.65146">
        <ele>27.36</ele>
        <time>2020-06-03T14:56:46Z</time>
      </trkpt>
      <trkpt lat="47.17118" lon="-1.65163">
        <ele>26.97</ele>
        <time>2020-06-03T14:56:48Z</time>
      </trkpt>
      <trkpt lat="47.17119" lon="-1.65182">
        <ele>25.9</ele>
        <time>2020-06-03T14:56:50Z</time>
      </trkpt>
      <trkpt lat="47.1712" lon="-1.65197">
        <ele>25.23</ele>
        <time>2020-06-03T14:56:52Z</time>
      </trkpt>
      <trkpt lat="47.17122" lon="-1.65215">
        <ele>25.07</ele>
        <time>2020-06-03T14:56:54Z</time>
      </trkpt>
      <trkpt lat="47.17123" lon="-1.6523">
        <ele>25.49</ele>
        <time>2020-06-03T14:56:56Z</time>
      </trkpt>
      <trkpt lat="47.17124" lon="-1.65243">
        <ele>25.22</ele>
        <time>2020-06-03T14:56:58Z</time>
      </trkpt>
      <trkpt lat="47.17125" lon="-1.65258">
        <ele>24.31</ele>
        <time>2020-06-03T14:57:00Z</time>
      </trkpt>
      <trkpt lat="47.17129" lon="-1.65272">
        <ele>24.71</ele>
        <time>2020-06-03T14:57:02Z</time>
      </trkpt>
      <trkpt lat="47.17138" lon="-1.65289">
        <ele>24.83</ele>
        <time>2020-06-03T14:57:04Z</time>
      </trkpt>
      <trkpt lat="47.17142" lon="-1.65305">
        <ele>24.32</ele>
        <time>2020-06-03T14:57:06Z</time>
      </trkpt>
      <trkpt lat="47.17142" lon="-1.65323">
        <ele>23.57</ele>
        <time>2020-06-03T14:57:08Z</time>
      </trkpt>
      <trkpt lat="47.17133" lon="-1.65336">
        <ele>23.74</ele>
        <time>2020-06-03T14:57:10Z</time>
      </trkpt>
      <trkpt lat="47.17124" lon="-1.65346">
        <ele>23.95</ele>
        <time>2020-06-03T14:57:12Z</time>
      </trkpt>
      <trkpt lat="47.17119" lon="-1.65358">
        <ele>24.11</ele>
        <time>2020-06-03T14:57:14Z</time>
      </trkpt>
      <trkpt lat="47.1712" lon="-1.65374">
        <ele>24.63</ele>
        <time>2020-06-03T14:57:16Z</time>
      </trkpt>
      <trkpt lat="47.1712" lon="-1.65391">
        <ele>25.08</ele>
        <time>2020-06-03T14:57:18Z</time>
      </trkpt>
      <trkpt lat="47.17119" lon="-1.65404">
        <ele>26.05</ele>
        <time>2020-06-03T14:57:20Z</time>
      </trkpt>
      <trkpt lat="47.1712" lon="-1.65419">
        <ele>27.81</ele>
        <time>2020-06-03T14:57:22Z</time>
      </trkpt>
      <trkpt lat="47.1712" lon="-1.65436">
        <ele>27.97</ele>
        <time>2020-06-03T14:57:24Z</time>
      </trkpt>
      <trkpt lat="47.17119" lon="-1.65451">
        <ele>28.31</ele>
        <time>2020-06-03T14:57:26Z</time>
      </trkpt>
      <trkpt lat="47.17118" lon="-1.65467">
        <ele>29.35</ele>
        <time>2020-06-03T14:57:28Z</time>
      </trkpt>
      <trkpt lat="47.17116" lon="-1.65484">
        <ele>29.81</ele>
        <time>2020-06-03T14:57:30Z</time>
      </trkpt>
      <trkpt lat="47.17114" lon="-1.655">
        <ele>30.67</ele>
        <time>2020-06-03T14:57:32Z</time>
      </trkpt>
      <trkpt lat="47.17111" lon="-1.65515">
        <ele>32.58</ele>
        <time>2020-06-03T14:57:34Z</time>
      </trkpt>
      <trkpt lat="47.17106" lon="-1.6553">
        <ele>33.11</ele>
        <time>2020-06-03T14:57:37Z</time>
      </trkpt>
      <trkpt lat="47.17101" lon="-1.65541">
        <ele>33.23</ele>
        <time>2020-06-03T14:57:39Z</time>
      </trkpt>
      <trkpt lat="47.17095" lon="-1.65552">
        <ele>33.55</ele>
        <time>2020-06-03T14:57:41Z</time>
      </trkpt>
      <trkpt lat="47.17088" lon="-1.65563">
        <ele>32.9</ele>
        <time>2020-06-03T14:57:43Z</time>
      </trkpt>
      <trkpt lat="47.17081" lon="-1.65576">
        <ele>32.81</ele>
        <time>2020-06-03T14:57:45Z</time>
      </trkpt>
      <trkpt lat="47.17075" lon="-1.65587">
        <ele>31.81</ele>
        <time>2020-06-03T14:57:47Z</time>
      </trkpt>
      <trkpt lat="47.17068" lon="-1.65599">
        <ele>31.1</ele>
        <time>2020-06-03T14:57:49Z</time>
      </trkpt>
      <trkpt lat="47.17061" lon="-1.65611">
        <ele>31.03</ele>
        <time>2020-06-03T14:57:51Z</time>
      </trkpt>
      <trkpt lat="47.17054" lon="-1.65623">
        <ele>31.49</ele>
        <time>2020-06-03T14:57:53Z</time>
      </trkpt>
      <trkpt lat="47.17047" lon="-1.65635">
        <ele>31.08</ele>
        <time>2020-06-03T14:57:55Z</time>
      </trkpt>
      <trkpt lat="47.17039" lon="-1.65649">
        <ele>30.36</ele>
        <time>2020-06-03T14:57:57Z</time>
      </trkpt>
      <trkpt lat="47.17031" lon="-1.65663">
        <ele>29.39</ele>
        <time>2020-06-03T14:57:59Z</time>
      </trkpt>
      <trkpt lat="47.17023" lon="-1.65679">
        <ele>28.68</ele>
        <time>2020-06-03T14:58:01Z</time>
      </trkpt>
      <trkpt lat="47.17015" lon="-1.65696">
        <ele>27.77</ele>
        <time>2020-06-03T14:58:03Z</time>
      </trkpt>
      <trkpt lat="47.17009" lon="-1.6571">
        <ele>26.52</ele>
        <time>2020-06-03T14:58:05Z</time>
      </trkpt>
      <trkpt lat="47.17004" lon="-1.65724">
        <ele>25.46</ele>
        <time>2020-06-03T14:58:07Z</time>
      </trkpt>
      <trkpt lat="47.17002" lon="-1.65741">
        <ele>25.2</ele>
        <time>2020-06-03T14:58:09Z</time>
      </trkpt>
      <trkpt lat="47.17" lon="-1.65756">
        <ele>26.18</ele>
        <time>2020-06-03T14:58:11Z</time>
      </trkpt>
      <trkpt lat="47.16993" lon="-1.65768">
        <ele>26.78</ele>
        <time>2020-06-03T14:58:13Z</time>
      </trkpt>
      <trkpt lat="47.16981" lon="-1.65776">
        <ele>27.16</ele>
        <time>2020-06-03T14:58:15Z</time>
      </trkpt>
      <trkpt lat="47.16969" lon="-1.65781">
        <ele>27.94</ele>
        <time>2020-06-03T14:58:17Z</time>
      </trkpt>
      <trkpt lat="47.16959" lon="-1.65791">
        <ele>27.99</ele>
        <time>2020-06-03T14:58:19Z</time>
      </trkpt>
      <trkpt lat="47.16949" lon="-1.65805">
        <ele>27.81</ele>
        <time>2020-06-03T14:58:21Z</time>
      </trkpt>
      <trkpt lat="47.16941" lon="-1.6582">
        <ele>27.49</ele>
        <time>2020-06-03T14:58:23Z</time>
      </trkpt>
      <trkpt lat="47.16935" lon="-1.65836">
        <ele>27.51</ele>
        <time>2020-06-03T14:58:25Z</time>
      </trkpt>
      <trkpt lat="47.16928" lon="-1.65852">
        <ele>28.24</ele>
        <time>2020-06-03T14:58:27Z</time>
      </trkpt>
      <trkpt lat="47.16921" lon="-1.65869">
        <ele>27.15</ele>
        <time>2020-06-03T14:58:29Z</time>
      </trkpt>
      <trkpt lat="47.16914" lon="-1.65884">
        <ele>25.76</ele>
        <time>2020-06-03T14:58:31Z</time>
      </trkpt>
      <trkpt lat="47.16907" lon="-1.659">
        <ele>25.77</ele>
        <time>2020-06-03T14:58:33Z</time>
      </trkpt>
      <trkpt lat="47.169" lon="-1.65916">
        <ele>26.2</ele>
        <time>2020-06-03T14:58:35Z</time>
      </trkpt>
      <trkpt lat="47.16893" lon="-1.65932">
        <ele>26.38</ele>
        <time>2020-06-03T14:58:37Z</time>
      </trkpt>
      <trkpt lat="47.16886" lon="-1.65945">
        <ele>26.06</ele>
        <time>2020-06-03T14:58:39Z</time>
      </trkpt>
      <trkpt lat="47.16878" lon="-1.65961">
        <ele>25.62</ele>
        <time>2020-06-03T14:58:41Z</time>
      </trkpt>
      <trkpt lat="47.16871" lon="-1.65979">
        <ele>25.25</ele>
        <time>2020-06-03T14:58:43Z</time>
      </trkpt>
      <trkpt lat="47.16865" lon="-1.65996">
        <ele>24.29</ele>
        <time>2020-06-03T14:58:45Z</time>
      </trkpt>
      <trkpt lat="47.16861" lon="-1.66012">
        <ele>24.52</ele>
        <time>2020-06-03T14:58:47Z</time>
      </trkpt>
      <trkpt lat="47.16856" lon="-1.6603">
        <ele>25.25</ele>
        <time>2020-06-03T14:58:49Z</time>
      </trkpt>
      <trkpt lat="47.16852" lon="-1.66047">
        <ele>26.03</ele>
        <time>2020-06-03T14:58:51Z</time>
      </trkpt>
      <trkpt lat="47.16849" lon="-1.66064">
        <ele>26.47</ele>
        <time>2020-06-03T14:58:53Z</time>
      </trkpt>
      <trkpt lat="47.16846" lon="-1.66081">
        <ele>26.91</ele>
        <time>2020-06-03T14:58:55Z</time>
      </trkpt>
      <trkpt lat="47.16843" lon="-1.66102">
        <ele>27.39</ele>
        <time>2020-06-03T14:58:57Z</time>
      </trkpt>
      <trkpt lat="47.16842" lon="-1.66119">
        <ele>27.3</ele>
        <time>2020-06-03T14:58:59Z</time>
      </trkpt>
      <trkpt lat="47.16841" lon="-1.66137">
        <ele>27.98</ele>
        <time>2020-06-03T14:59:01Z</time>
      </trkpt>
      <trkpt lat="47.16841" lon="-1.66154">
        <ele>27.96</ele>
        <time>2020-06-03T14:59:03Z</time>
      </trkpt>
      <trkpt lat="47.16842" lon="-1.66173">
        <ele>28.56</ele>
        <time>2020-06-03T14:59:05Z</time>
      </trkpt>
      <trkpt lat="47.16843" lon="-1.6619">
        <ele>29.92</ele>
        <time>2020-06-03T14:59:07Z</time>
      </trkpt>
      <trkpt lat="47.16845" lon="-1.6621">
        <ele>31.46</ele>
        <time>2020-06-03T14:59:09Z</time>
      </trkpt>
      <trkpt lat="47.16847" lon="-1.66227">
        <ele>31.82</ele>
        <time>2020-06-03T14:59:11Z</time>
      </trkpt>
      <trkpt lat="47.16848" lon="-1.66244">
        <ele>32.56</ele>
        <time>2020-06-03T14:59:13Z</time>
      </trkpt>
      <trkpt lat="47.16849" lon="-1.6626">
        <ele>32.54</ele>
        <time>2020-06-03T14:59:15Z</time>
      </trkpt>
      <trkpt lat="47.1685" lon="-1.66278">
        <ele>32.68</ele>
        <time>2020-06-03T14:59:17Z</time>
      </trkpt>
      <trkpt lat="47.16852" lon="-1.66294">
        <ele>32.7</ele>
        <time>2020-06-03T14:59:19Z</time>
      </trkpt>
      <trkpt lat="47.16853" lon="-1.66311">
        <ele>33.07</ele>
        <time>2020-06-03T14:59:21Z</time>
      </trkpt>
      <trkpt lat="47.16855" lon="-1.6633">
        <ele>32.34</ele>
        <time>2020-06-03T14:59:23Z</time>
      </trkpt>
      <trkpt lat="47.16857" lon="-1.66348">
        <ele>31.23</ele>
        <time>2020-06-03T14:59:25Z</time>
      </trkpt>
      <trkpt lat="47.16858" lon="-1.66365">
        <ele>30.34</ele>
        <time>2020-06-03T14:59:27Z</time>
      </trkpt>
      <trkpt lat="47.1686" lon="-1.66383">
        <ele>29.69</ele>
        <time>2020-06-03T14:59:29Z</time>
      </trkpt>
      <trkpt lat="47.16862" lon="-1.66399">
        <ele>29.46</ele>
        <time>2020-06-03T14:59:31Z</time>
      </trkpt>
      <trkpt lat="47.16864" lon="-1.66417">
        <ele>28.72</ele>
        <time>2020-06-03T14:59:33Z</time>
      </trkpt>
      <trkpt lat="47.16867" lon="-1.66436">
        <ele>27.77</ele>
        <time>2020-06-03T14:59:35Z</time>
      </trkpt>
      <trkpt lat="47.1687" lon="-1.66453">
        <ele>27.11</ele>
        <time>2020-06-03T14:59:37Z</time>
      </trkpt>
      <trkpt lat="47.16872" lon="-1.6647">
        <ele>26.86</ele>
        <time>2020-06-03T14:59:39Z</time>
      </trkpt>
      <trkpt lat="47.16874" lon="-1.66486">
        <ele>26.41</ele>
        <time>2020-06-03T14:59:41Z</time>
      </trkpt>
      <trkpt lat="47.16876" lon="-1.66505">
        <ele>25.43</ele>
        <time>2020-06-03T14:59:43Z</time>
      </trkpt>
      <trkpt lat="47.16879" lon="-1.66524">
        <ele>25.94</ele>
        <time>2020-06-03T14:59:45Z</time>
      </trkpt>
      <trkpt lat="47.16881" lon="-1.66542">
        <ele>25.97</ele>
        <time>2020-06-03T14:59:47Z</time>
      </trkpt>
      <trkpt lat="47.16883" lon="-1.66556">
        <ele>26.31</ele>
        <time>2020-06-03T14:59:49Z</time>
      </trkpt>
      <trkpt lat="47.16885" lon="-1.66575">
        <ele>26.78</ele>
        <time>2020-06-03T14:59:51Z</time>
      </trkpt>
      <trkpt lat="47.16887" lon="-1.66591">
        <ele>27.09</ele>
        <time>2020-06-03T14:59:53Z</time>
      </trkpt>
      <trkpt lat="47.16889" lon="-1.66609">
        <ele>27.59</ele>
        <time>2020-06-03T14:59:55Z</time>
      </trkpt>
      <trkpt lat="47.1689" lon="-1.66628">
        <ele>27.6</ele>
        <time>2020-06-03T14:59:57Z</time>
      </trkpt>
      <trkpt lat="47.16892" lon="-1.66645">
        <ele>27.82</ele>
        <time>2020-06-03T14:59:59Z</time>
      </trkpt>
      <trkpt lat="47.16893" lon="-1.66662">
        <ele>27.01</ele>
        <time>2020-06-03T15:00:01Z</time>
      </trkpt>
      <trkpt lat="47.16893" lon="-1.66682">
        <ele>26.64</ele>
        <time>2020-06-03T15:00:03Z</time>
      </trkpt>
      <trkpt lat="47.16891" lon="-1.66698">
        <ele>26.46</ele>
        <time>2020-06-03T15:00:05Z</time>
      </trkpt>
      <trkpt lat="47.16888" lon="-1.66716">
        <ele>26.47</ele>
        <time>2020-06-03T15:00:07Z</time>
      </trkpt>
      <trkpt lat="47.16883" lon="-1.66734">
        <ele>25.22</ele>
        <time>2020-06-03T15:00:09Z</time>
      </trkpt>
      <trkpt lat="47.16876" lon="-1.66751">
        <ele>25.01</ele>
        <time>2020-06-03T15:00:11Z</time>
      </trkpt>
      <trkpt lat="47.16869" lon="-1.66766">
        <ele>25.19</ele>
        <time>2020-06-03T15:00:13Z</time>
      </trkpt>
      <trkpt lat="47.16861" lon="-1.66782">
        <ele>26.05</ele>
        <time>2020-06-03T15:00:15Z</time>
      </trkpt>
      <trkpt lat="47.16853" lon="-1.66797">
        <ele>25.93</ele>
        <time>2020-06-03T15:00:17Z</time>
      </trkpt>
      <trkpt lat="47.16844" lon="-1.66811">
        <ele>25.34</ele>
        <time>2020-06-03T15:00:19Z</time>
      </trkpt>
      <trkpt lat="47.16836" lon="-1.66823">
        <ele>24.92</ele>
        <time>2020-06-03T15:00:21Z</time>
      </trkpt>
      <trkpt lat="47.16829" lon="-1.66836">
        <ele>24.48</ele>
        <time>2020-06-03T15:00:23Z</time>
      </trkpt>
      <trkpt lat="47.16821" lon="-1.66851">
        <ele>24.65</ele>
        <time>2020-06-03T15:00:25Z</time>
      </trkpt>
      <trkpt lat="47.16812" lon="-1.66866">
        <ele>24.85</ele>
        <time>2020-06-03T15:00:27Z</time>
      </trkpt>
      <trkpt lat="47.16802" lon="-1.66882">
        <ele>25.73</ele>
        <time>2020-06-03T15:00:29Z</time>
      </trkpt>
      <trkpt lat="47.16794" lon="-1.66893">
        <ele>26.26</ele>
        <time>2020-06-03T15:00:31Z</time>
      </trkpt>
      <trkpt lat="47.16785" lon="-1.66904">
        <ele>26.54</ele>
        <time>2020-06-03T15:00:33Z</time>
      </trkpt>
      <trkpt lat="47.16774" lon="-1.66912">
        <ele>26.07</ele>
        <time>2020-06-03T15:00:35Z</time>
      </trkpt>
      <trkpt lat="47.16762" lon="-1.66917">
        <ele>26.78</ele>
        <time>2020-06-03T15:00:37Z</time>
      </trkpt>
      <trkpt lat="47.16751" lon="-1.66921">
        <ele>26.8</ele>
        <time>2020-06-03T15:00:39Z</time>
      </trkpt>
      <trkpt lat="47.16737" lon="-1.66925">
        <ele>26.44</ele>
        <time>2020-06-03T15:00:41Z</time>
      </trkpt>
      <trkpt lat="47.16728" lon="-1.66928">
        <ele>26.6</ele>
        <time>2020-06-03T15:00:43Z</time>
      </trkpt>
      <trkpt lat="47.16714" lon="-1.66932">
        <ele>27.27</ele>
        <time>2020-06-03T15:00:45Z</time>
      </trkpt>
      <trkpt lat="47.16699" lon="-1.66936">
        <ele>27.53</ele>
        <time>2020-06-03T15:00:47Z</time>
      </trkpt>
      <trkpt lat="47.16687" lon="-1.66943">
        <ele>27.35</ele>
        <time>2020-06-03T15:00:49Z</time>
      </trkpt>
      <trkpt lat="47.16676" lon="-1.66956">
        <ele>26.65</ele>
        <time>2020-06-03T15:00:51Z</time>
      </trkpt>
      <trkpt lat="47.16668" lon="-1.6697">
        <ele>26.19</ele>
        <time>2020-06-03T15:00:53Z</time>
      </trkpt>
      <trkpt lat="47.16661" lon="-1.66986">
        <ele>25.44</ele>
        <time>2020-06-03T15:00:55Z</time>
      </trkpt>
      <trkpt lat="47.16656" lon="-1.67007">
        <ele>25.56</ele>
        <time>2020-06-03T15:00:57Z</time>
      </trkpt>
      <trkpt lat="47.16653" lon="-1.67022">
        <ele>26.26</ele>
        <time>2020-06-03T15:00:59Z</time>
      </trkpt>
      <trkpt lat="47.16649" lon="-1.67043">
        <ele>26.73</ele>
        <time>2020-06-03T15:01:01Z</time>
      </trkpt>
      <trkpt lat="47.16645" lon="-1.67061">
        <ele>26.72</ele>
        <time>2020-06-03T15:01:03Z</time>
      </trkpt>
      <trkpt lat="47.16642" lon="-1.67078">
        <ele>27.55</ele>
        <time>2020-06-03T15:01:05Z</time>
      </trkpt>
      <trkpt lat="47.16638" lon="-1.67097">
        <ele>27.75</ele>
        <time>2020-06-03T15:01:07Z</time>
      </trkpt>
      <trkpt lat="47.16635" lon="-1.67116">
        <ele>28.47</ele>
        <time>2020-06-03T15:01:09Z</time>
      </trkpt>
      <trkpt lat="47.16631" lon="-1.67134">
        <ele>28.47</ele>
        <time>2020-06-03T15:01:11Z</time>
      </trkpt>
      <trkpt lat="47.16628" lon="-1.67152">
        <ele>28.51</ele>
        <time>2020-06-03T15:01:13Z</time>
      </trkpt>
      <trkpt lat="47.16625" lon="-1.67167">
        <ele>28.09</ele>
        <time>2020-06-03T15:01:15Z</time>
      </trkpt>
      <trkpt lat="47.16622" lon="-1.67184">
        <ele>26.92</ele>
        <time>2020-06-03T15:01:17Z</time>
      </trkpt>
      <trkpt lat="47.16619" lon="-1.67202">
        <ele>26.26</ele>
        <time>2020-06-03T15:01:19Z</time>
      </trkpt>
      <trkpt lat="47.16617" lon="-1.67216">
        <ele>25.76</ele>
        <time>2020-06-03T15:01:21Z</time>
      </trkpt>
      <trkpt lat="47.16614" lon="-1.67231">
        <ele>24.92</ele>
        <time>2020-06-03T15:01:23Z</time>
      </trkpt>
      <trkpt lat="47.16611" lon="-1.67248">
        <ele>25.26</ele>
        <time>2020-06-03T15:01:25Z</time>
      </trkpt>
      <trkpt lat="47.1661" lon="-1.67263">
        <ele>25.54</ele>
        <time>2020-06-03T15:01:27Z</time>
      </trkpt>
      <trkpt lat="47.16619" lon="-1.67269">
        <ele>25.94</ele>
        <time>2020-06-03T15:01:29Z</time>
      </trkpt>
      <trkpt lat="47.16632" lon="-1.6727">
        <ele>26.3</ele>
        <time>2020-06-03T15:01:31Z</time>
      </trkpt>
      <trkpt lat="47.16644" lon="-1.67273">
        <ele>26.34</ele>
        <time>2020-06-03T15:01:33Z</time>
      </trkpt>
      <trkpt lat="47.16657" lon="-1.67277">
        <ele>26.53</ele>
        <time>2020-06-03T15:01:35Z</time>
      </trkpt>
      <trkpt lat="47.16669" lon="-1.6728">
        <ele>27.01</ele>
        <time>2020-06-03T15:01:37Z</time>
      </trkpt>
      <trkpt lat="47.16682" lon="-1.67284">
        <ele>27.25</ele>
        <time>2020-06-03T15:01:39Z</time>
      </trkpt>
      <trkpt lat="47.16694" lon="-1.67289">
        <ele>27.77</ele>
        <time>2020-06-03T15:01:41Z</time>
      </trkpt>
      <trkpt lat="47.16707" lon="-1.67295">
        <ele>28.5</ele>
        <time>2020-06-03T15:01:43Z</time>
      </trkpt>
      <trkpt lat="47.16719" lon="-1.67303">
        <ele>29.54</ele>
        <time>2020-06-03T15:01:45Z</time>
      </trkpt>
      <trkpt lat="47.1673" lon="-1.6731">
        <ele>30.06</ele>
        <time>2020-06-03T15:01:47Z</time>
      </trkpt>
      <trkpt lat="47.16742" lon="-1.67317">
        <ele>29.75</ele>
        <time>2020-06-03T15:01:49Z</time>
      </trkpt>
      <trkpt lat="47.16754" lon="-1.67326">
        <ele>29.3</ele>
        <time>2020-06-03T15:01:51Z</time>
      </trkpt>
      <trkpt lat="47.16764" lon="-1.67335">
        <ele>29.62</ele>
        <time>2020-06-03T15:01:53Z</time>
      </trkpt>
      <trkpt lat="47.16775" lon="-1.67345">
        <ele>30.05</ele>
        <time>2020-06-03T15:01:55Z</time>
      </trkpt>
      <trkpt lat="47.16785" lon="-1.67355">
        <ele>30.43</ele>
        <time>2020-06-03T15:01:57Z</time>
      </trkpt>
      <trkpt lat="47.16793" lon="-1.67364">
        <ele>30.16</ele>
        <time>2020-06-03T15:01:59Z</time>
      </trkpt>
      <trkpt lat="47.16802" lon="-1.67375">
        <ele>30.2</ele>
        <time>2020-06-03T15:02:01Z</time>
      </trkpt>
      <trkpt lat="47.16811" lon="-1.67386">
        <ele>30.64</ele>
        <time>2020-06-03T15:02:03Z</time>
      </trkpt>
      <trkpt lat="47.1682" lon="-1.67398">
        <ele>31.83</ele>
        <time>2020-06-03T15:02:05Z</time>
      </trkpt>
      <trkpt lat="47.16829" lon="-1.6741">
        <ele>31.68</ele>
        <time>2020-06-03T15:02:07Z</time>
      </trkpt>
      <trkpt lat="47.16838" lon="-1.67423">
        <ele>31.32</ele>
        <time>2020-06-03T15:02:09Z</time>
      </trkpt>
      <trkpt lat="47.16849" lon="-1.67435">
        <ele>32.23</ele>
        <time>2020-06-03T15:02:11Z</time>
      </trkpt>
      <trkpt lat="47.16859" lon="-1.67447">
        <ele>32.01</ele>
        <time>2020-06-03T15:02:13Z</time>
      </trkpt>
      <trkpt lat="47.16868" lon="-1.67459">
        <ele>31.01</ele>
        <time>2020-06-03T15:02:15Z</time>
      </trkpt>
      <trkpt lat="47.16879" lon="-1.67472">
        <ele>30.93</ele>
        <time>2020-06-03T15:02:17Z</time>
      </trkpt>
      <trkpt lat="47.16887" lon="-1.67482">
        <ele>30.23</ele>
        <time>2020-06-03T15:02:19Z</time>
      </trkpt>
      <trkpt lat="47.16896" lon="-1.67494">
        <ele>30.13</ele>
        <time>2020-06-03T15:02:21Z</time>
      </trkpt>
      <trkpt lat="47.16906" lon="-1.67506">
        <ele>30.42</ele>
        <time>2020-06-03T15:02:23Z</time>
      </trkpt>
      <trkpt lat="47.16915" lon="-1.67516">
        <ele>30.61</ele>
        <time>2020-06-03T15:02:25Z</time>
      </trkpt>
      <trkpt lat="47.16926" lon="-1.67528">
        <ele>31.26</ele>
        <time>2020-06-03T15:02:27Z</time>
      </trkpt>
      <trkpt lat="47.16937" lon="-1.6754">
        <ele>31.25</ele>
        <time>2020-06-03T15:02:29Z</time>
      </trkpt>
      <trkpt lat="47.16945" lon="-1.6755">
        <ele>31.26</ele>
        <time>2020-06-03T15:02:31Z</time>
      </trkpt>
      <trkpt lat="47.16955" lon="-1.67561">
        <ele>31.4</ele>
        <time>2020-06-03T15:02:33Z</time>
      </trkpt>
      <trkpt lat="47.16964" lon="-1.67573">
        <ele>31.63</ele>
        <time>2020-06-03T15:02:35Z</time>
      </trkpt>
      <trkpt lat="47.16974" lon="-1.67584">
        <ele>31.93</ele>
        <time>2020-06-03T15:02:37Z</time>
      </trkpt>
      <trkpt lat="47.16984" lon="-1.67595">
        <ele>31.89</ele>
        <time>2020-06-03T15:02:39Z</time>
      </trkpt>
      <trkpt lat="47.16994" lon="-1.67607">
        <ele>31.34</ele>
        <time>2020-06-03T15:02:41Z</time>
      </trkpt>
      <trkpt lat="47.17004" lon="-1.67618">
        <ele>30.58</ele>
        <time>2020-06-03T15:02:43Z</time>
      </trkpt>
      <trkpt lat="47.17015" lon="-1.67628">
        <ele>28.69</ele>
        <time>2020-06-03T15:02:45Z</time>
      </trkpt>
      <trkpt lat="47.17026" lon="-1.67637">
        <ele>26.99</ele>
        <time>2020-06-03T15:02:47Z</time>
      </trkpt>
      <trkpt lat="47.17037" lon="-1.67648">
        <ele>26.45</ele>
        <time>2020-06-03T15:02:49Z</time>
      </trkpt>
      <trkpt lat="47.17046" lon="-1.6766">
        <ele>27.39</ele>
        <time>2020-06-03T15:02:51Z</time>
      </trkpt>
      <trkpt lat="47.17056" lon="-1.67673">
        <ele>28.13</ele>
        <time>2020-06-03T15:02:53Z</time>
      </trkpt>
      <trkpt lat="47.17065" lon="-1.67686">
        <ele>27.69</ele>
        <time>2020-06-03T15:02:55Z</time>
      </trkpt>
      <trkpt lat="47.17074" lon="-1.67696">
        <ele>28.43</ele>
        <time>2020-06-03T15:02:57Z</time>
      </trkpt>
      <trkpt lat="47.17083" lon="-1.67707">
        <ele>28.65</ele>
        <time>2020-06-03T15:02:59Z</time>
      </trkpt>
      <trkpt lat="47.17093" lon="-1.67719">
        <ele>28.86</ele>
        <time>2020-06-03T15:03:01Z</time>
      </trkpt>
      <trkpt lat="47.17103" lon="-1.67731">
        <ele>28.96</ele>
        <time>2020-06-03T15:03:03Z</time>
      </trkpt>
      <trkpt lat="47.17113" lon="-1.67742">
        <ele>28.41</ele>
        <time>2020-06-03T15:03:05Z</time>
      </trkpt>
      <trkpt lat="47.17123" lon="-1.67754">
        <ele>27.76</ele>
        <time>2020-06-03T15:03:07Z</time>
      </trkpt>
      <trkpt lat="47.17132" lon="-1.67765">
        <ele>27.8</ele>
        <time>2020-06-03T15:03:09Z</time>
      </trkpt>
      <trkpt lat="47.17142" lon="-1.67777">
        <ele>28.18</ele>
        <time>2020-06-03T15:03:11Z</time>
      </trkpt>
      <trkpt lat="47.17152" lon="-1.67789">
        <ele>28.55</ele>
        <time>2020-06-03T15:03:13Z</time>
      </trkpt>
      <trkpt lat="47.17162" lon="-1.67801">
        <ele>29.62</ele>
        <time>2020-06-03T15:03:15Z</time>
      </trkpt>
      <trkpt lat="47.17172" lon="-1.67813">
        <ele>29.73</ele>
        <time>2020-06-03T15:03:17Z</time>
      </trkpt>
      <trkpt lat="47.17182" lon="-1.67826">
        <ele>30.01</ele>
        <time>2020-06-03T15:03:19Z</time>
      </trkpt>
      <trkpt lat="47.17192" lon="-1.67838">
        <ele>30.46</ele>
        <time>2020-06-03T15:03:21Z</time>
      </trkpt>
      <trkpt lat="47.17201" lon="-1.67849">
        <ele>30.85</ele>
        <time>2020-06-03T15:03:23Z</time>
      </trkpt>
      <trkpt lat="47.17211" lon="-1.67861">
        <ele>31.93</ele>
        <time>2020-06-03T15:03:25Z</time>
      </trkpt>
      <trkpt lat="47.17221" lon="-1.67873">
        <ele>33.01</ele>
        <time>2020-06-03T15:03:27Z</time>
      </trkpt>
      <trkpt lat="47.17231" lon="-1.67886">
        <ele>33.1</ele>
        <time>2020-06-03T15:03:29Z</time>
      </trkpt>
      <trkpt lat="47.17242" lon="-1.67898">
        <ele>32.75</ele>
        <time>2020-06-03T15:03:31Z</time>
      </trkpt>
      <trkpt lat="47.17251" lon="-1.67909">
        <ele>32.95</ele>
        <time>2020-06-03T15:03:33Z</time>
      </trkpt>
      <trkpt lat="47.17261" lon="-1.6792">
        <ele>32.81</ele>
        <time>2020-06-03T15:03:35Z</time>
      </trkpt>
      <trkpt lat="47.17271" lon="-1.67932">
        <ele>32.52</ele>
        <time>2020-06-03T15:03:37Z</time>
      </trkpt>
      <trkpt lat="47.17282" lon="-1.67943">
        <ele>31.92</ele>
        <time>2020-06-03T15:03:39Z</time>
      </trkpt>
      <trkpt lat="47.17292" lon="-1.67955">
        <ele>31.21</ele>
        <time>2020-06-03T15:03:41Z</time>
      </trkpt>
      <trkpt lat="47.17301" lon="-1.67967">
        <ele>31.04</ele>
        <time>2020-06-03T15:03:43Z</time>
      </trkpt>
      <trkpt lat="47.17311" lon="-1.67979">
        <ele>31.31</ele>
        <time>2020-06-03T15:03:45Z</time>
      </trkpt>
      <trkpt lat="47.1732" lon="-1.67993">
        <ele>31.72</ele>
        <time>2020-06-03T15:03:47Z</time>
      </trkpt>
      <trkpt lat="47.17328" lon="-1.68005">
        <ele>32.42</ele>
        <time>2020-06-03T15:03:49Z</time>
      </trkpt>
      <trkpt lat="47.17334" lon="-1.68023">
        <ele>32.08</ele>
        <time>2020-06-03T15:03:51Z</time>
      </trkpt>
      <trkpt lat="47.1734" lon="-1.68041">
        <ele>31.67</ele>
        <time>2020-06-03T15:03:53Z</time>
      </trkpt>
      <trkpt lat="47.17344" lon="-1.68058">
        <ele>31.27</ele>
        <time>2020-06-03T15:03:55Z</time>
      </trkpt>
      <trkpt lat="47.17348" lon="-1.68076">
        <ele>31.11</ele>
        <time>2020-06-03T15:03:57Z</time>
      </trkpt>
      <trkpt lat="47.17351" lon="-1.68093">
        <ele>30.6</ele>
        <time>2020-06-03T15:03:59Z</time>
      </trkpt>
      <trkpt lat="47.17355" lon="-1.68111">
        <ele>29.6</ele>
        <time>2020-06-03T15:04:01Z</time>
      </trkpt>
      <trkpt lat="47.17358" lon="-1.68131">
        <ele>29.25</ele>
        <time>2020-06-03T15:04:02Z</time>
      </trkpt>
      <trkpt lat="47.17361" lon="-1.6815">
        <ele>28.52</ele>
        <time>2020-06-03T15:04:04Z</time>
      </trkpt>
      <trkpt lat="47.17363" lon="-1.68168">
        <ele>27.75</ele>
        <time>2020-06-03T15:04:06Z</time>
      </trkpt>
      <trkpt lat="47.17361" lon="-1.68188">
        <ele>26.56</ele>
        <time>2020-06-03T15:04:08Z</time>
      </trkpt>
      <trkpt lat="47.17359" lon="-1.68206">
        <ele>26.03</ele>
        <time>2020-06-03T15:04:10Z</time>
      </trkpt>
      <trkpt lat="47.17356" lon="-1.68225">
        <ele>25.14</ele>
        <time>2020-06-03T15:04:12Z</time>
      </trkpt>
      <trkpt lat="47.17352" lon="-1.68242">
        <ele>24.34</ele>
        <time>2020-06-03T15:04:14Z</time>
      </trkpt>
      <trkpt lat="47.17349" lon="-1.68257">
        <ele>25.08</ele>
        <time>2020-06-03T15:04:16Z</time>
      </trkpt>
      <trkpt lat="47.17344" lon="-1.68276">
        <ele>25.95</ele>
        <time>2020-06-03T15:04:18Z</time>
      </trkpt>
      <trkpt lat="47.17341" lon="-1.68294">
        <ele>26.73</ele>
        <time>2020-06-03T15:04:20Z</time>
      </trkpt>
      <trkpt lat="47.17338" lon="-1.68307">
        <ele>27.12</ele>
        <time>2020-06-03T15:04:22Z</time>
      </trkpt>
      <trkpt lat="47.17334" lon="-1.6832">
        <ele>27.59</ele>
        <time>2020-06-03T15:04:24Z</time>
      </trkpt>
      <trkpt lat="47.1733" lon="-1.68336">
        <ele>28.67</ele>
        <time>2020-06-03T15:04:26Z</time>
      </trkpt>
      <trkpt lat="47.17326" lon="-1.68351">
        <ele>30.75</ele>
        <time>2020-06-03T15:04:28Z</time>
      </trkpt>
      <trkpt lat="47.17326" lon="-1.68367">
        <ele>32.52</ele>
        <time>2020-06-03T15:04:30Z</time>
      </trkpt>
      <trkpt lat="47.17334" lon="-1.68378">
        <ele>34.43</ele>
        <time>2020-06-03T15:04:32Z</time>
      </trkpt>
      <trkpt lat="47.17346" lon="-1.68379">
        <ele>35.13</ele>
        <time>2020-06-03T15:04:34Z</time>
      </trkpt>
      <trkpt lat="47.17357" lon="-1.68378">
        <ele>34.97</ele>
        <time>2020-06-03T15:04:36Z</time>
      </trkpt>
      <trkpt lat="47.17368" lon="-1.68379">
        <ele>33.54</ele>
        <time>2020-06-03T15:04:38Z</time>
      </trkpt>
      <trkpt lat="47.17375" lon="-1.68392">
        <ele>32.62</ele>
        <time>2020-06-03T15:04:40Z</time>
      </trkpt>
      <trkpt lat="47.17372" lon="-1.68412">
        <ele>31.92</ele>
        <time>2020-06-03T15:04:42Z</time>
      </trkpt>
      <trkpt lat="47.17364" lon="-1.68424">
        <ele>31.88</ele>
        <time>2020-06-03T15:04:44Z</time>
      </trkpt>
      <trkpt lat="47.17357" lon="-1.68437">
        <ele>32.98</ele>
        <time>2020-06-03T15:04:46Z</time>
      </trkpt>
      <trkpt lat="47.17357" lon="-1.68454">
        <ele>33.43</ele>
        <time>2020-06-03T15:04:48Z</time>
      </trkpt>
      <trkpt lat="47.17366" lon="-1.6847">
        <ele>33.99</ele>
        <time>2020-06-03T15:04:50Z</time>
      </trkpt>
      <trkpt lat="47.17375" lon="-1.68486">
        <ele>34.65</ele>
        <time>2020-06-03T15:04:52Z</time>
      </trkpt>
      <trkpt lat="47.17385" lon="-1.685">
        <ele>34.48</ele>
        <time>2020-06-03T15:04:54Z</time>
      </trkpt>
      <trkpt lat="47.17396" lon="-1.68515">
        <ele>33.97</ele>
        <time>2020-06-03T15:04:56Z</time>
      </trkpt>
      <trkpt lat="47.17406" lon="-1.6853">
        <ele>33.75</ele>
        <time>2020-06-03T15:04:58Z</time>
      </trkpt>
      <trkpt lat="47.17417" lon="-1.68546">
        <ele>32.92</ele>
        <time>2020-06-03T15:05:00Z</time>
      </trkpt>
      <trkpt lat="47.17427" lon="-1.68563">
        <ele>32.2</ele>
        <time>2020-06-03T15:05:02Z</time>
      </trkpt>
      <trkpt lat="47.17436" lon="-1.6858">
        <ele>32.58</ele>
        <time>2020-06-03T15:05:04Z</time>
      </trkpt>
      <trkpt lat="47.17444" lon="-1.68599">
        <ele>32.77</ele>
        <time>2020-06-03T15:05:06Z</time>
      </trkpt>
      <trkpt lat="47.17452" lon="-1.68618">
        <ele>32.25</ele>
        <time>2020-06-03T15:05:08Z</time>
      </trkpt>
      <trkpt lat="47.17459" lon="-1.68637">
        <ele>31.87</ele>
        <time>2020-06-03T15:05:10Z</time>
      </trkpt>
      <trkpt lat="47.17465" lon="-1.68658">
        <ele>32.65</ele>
        <time>2020-06-03T15:05:12Z</time>
      </trkpt>
      <trkpt lat="47.17471" lon="-1.68676">
        <ele>32.8</ele>
        <time>2020-06-03T15:05:14Z</time>
      </trkpt>
      <trkpt lat="47.17476" lon="-1.68698">
        <ele>31.87</ele>
        <time>2020-06-03T15:05:16Z</time>
      </trkpt>
      <trkpt lat="47.17481" lon="-1.68717">
        <ele>30.77</ele>
        <time>2020-06-03T15:05:18Z</time>
      </trkpt>
      <trkpt lat="47.17486" lon="-1.68737">
        <ele>30.25</ele>
        <time>2020-06-03T15:05:20Z</time>
      </trkpt>
      <trkpt lat="47.17491" lon="-1.68756">
        <ele>29.3</ele>
        <time>2020-06-03T15:05:22Z</time>
      </trkpt>
      <trkpt lat="47.17496" lon="-1.68778">
        <ele>28.79</ele>
        <time>2020-06-03T15:05:24Z</time>
      </trkpt>
      <trkpt lat="47.17499" lon="-1.68796">
        <ele>28.28</ele>
        <time>2020-06-03T15:05:26Z</time>
      </trkpt>
      <trkpt lat="47.17502" lon="-1.68815">
        <ele>27.8</ele>
        <time>2020-06-03T15:05:28Z</time>
      </trkpt>
      <trkpt lat="47.17505" lon="-1.68835">
        <ele>28.17</ele>
        <time>2020-06-03T15:05:30Z</time>
      </trkpt>
      <trkpt lat="47.17508" lon="-1.68856">
        <ele>28.08</ele>
        <time>2020-06-03T15:05:32Z</time>
      </trkpt>
      <trkpt lat="47.1751" lon="-1.68878">
        <ele>28.52</ele>
        <time>2020-06-03T15:05:34Z</time>
      </trkpt>
      <trkpt lat="47.1751" lon="-1.68899">
        <ele>28.39</ele>
        <time>2020-06-03T15:05:36Z</time>
      </trkpt>
      <trkpt lat="47.17508" lon="-1.68918">
        <ele>27.57</ele>
        <time>2020-06-03T15:05:38Z</time>
      </trkpt>
      <trkpt lat="47.17505" lon="-1.68936">
        <ele>25.91</ele>
        <time>2020-06-03T15:05:40Z</time>
      </trkpt>
      <trkpt lat="47.17504" lon="-1.68955">
        <ele>24.84</ele>
        <time>2020-06-03T15:05:42Z</time>
      </trkpt>
      <trkpt lat="47.17503" lon="-1.68974">
        <ele>23.52</ele>
        <time>2020-06-03T15:05:44Z</time>
      </trkpt>
      <trkpt lat="47.17504" lon="-1.68995">
        <ele>22.77</ele>
        <time>2020-06-03T15:05:46Z</time>
      </trkpt>
      <trkpt lat="47.17504" lon="-1.69014">
        <ele>22.33</ele>
        <time>2020-06-03T15:05:48Z</time>
      </trkpt>
      <trkpt lat="47.17505" lon="-1.69035">
        <ele>23.08</ele>
        <time>2020-06-03T15:05:50Z</time>
      </trkpt>
      <trkpt lat="47.17506" lon="-1.69053">
        <ele>24.03</ele>
        <time>2020-06-03T15:05:52Z</time>
      </trkpt>
      <trkpt lat="47.17507" lon="-1.69071">
        <ele>24.61</ele>
        <time>2020-06-03T15:05:54Z</time>
      </trkpt>
      <trkpt lat="47.17507" lon="-1.69091">
        <ele>25.14</ele>
        <time>2020-06-03T15:05:56Z</time>
      </trkpt>
      <trkpt lat="47.17507" lon="-1.69111">
        <ele>25.66</ele>
        <time>2020-06-03T15:05:58Z</time>
      </trkpt>
      <trkpt lat="47.17506" lon="-1.69128">
        <ele>25.48</ele>
        <time>2020-06-03T15:06:00Z</time>
      </trkpt>
      <trkpt lat="47.17506" lon="-1.69147">
        <ele>24.7</ele>
        <time>2020-06-03T15:06:02Z</time>
      </trkpt>
      <trkpt lat="47.17504" lon="-1.69169">
        <ele>24.79</ele>
        <time>2020-06-03T15:06:04Z</time>
      </trkpt>
      <trkpt lat="47.17503" lon="-1.69188">
        <ele>24.9</ele>
        <time>2020-06-03T15:06:06Z</time>
      </trkpt>
      <trkpt lat="47.17503" lon="-1.69208">
        <ele>24.35</ele>
        <time>2020-06-03T15:06:08Z</time>
      </trkpt>
      <trkpt lat="47.17501" lon="-1.69229">
        <ele>23.81</ele>
        <time>2020-06-03T15:06:10Z</time>
      </trkpt>
      <trkpt lat="47.175" lon="-1.69249">
        <ele>23.56</ele>
        <time>2020-06-03T15:06:12Z</time>
      </trkpt>
      <trkpt lat="47.17499" lon="-1.69268">
        <ele>24.15</ele>
        <time>2020-06-03T15:06:14Z</time>
      </trkpt>
      <trkpt lat="47.17499" lon="-1.69287">
        <ele>24.16</ele>
        <time>2020-06-03T15:06:16Z</time>
      </trkpt>
      <trkpt lat="47.17498" lon="-1.69306">
        <ele>23.92</ele>
        <time>2020-06-03T15:06:18Z</time>
      </trkpt>
      <trkpt lat="47.17498" lon="-1.69325">
        <ele>23.61</ele>
        <time>2020-06-03T15:06:20Z</time>
      </trkpt>
      <trkpt lat="47.17497" lon="-1.69344">
        <ele>23.81</ele>
        <time>2020-06-03T15:06:22Z</time>
      </trkpt>
      <trkpt lat="47.17497" lon="-1.69365">
        <ele>25.12</ele>
        <time>2020-06-03T15:06:24Z</time>
      </trkpt>
      <trkpt lat="47.17497" lon="-1.69384">
        <ele>25.71</ele>
        <time>2020-06-03T15:06:26Z</time>
      </trkpt>
      <trkpt lat="47.17496" lon="-1.69401">
        <ele>25.78</ele>
        <time>2020-06-03T15:06:28Z</time>
      </trkpt>
      <trkpt lat="47.17496" lon="-1.6942">
        <ele>26.14</ele>
        <time>2020-06-03T15:06:30Z</time>
      </trkpt>
      <trkpt lat="47.17497" lon="-1.69438">
        <ele>26.44</ele>
        <time>2020-06-03T15:06:32Z</time>
      </trkpt>
      <trkpt lat="47.17497" lon="-1.69457">
        <ele>26.58</ele>
        <time>2020-06-03T15:06:34Z</time>
      </trkpt>
      <trkpt lat="47.17497" lon="-1.69477">
        <ele>26.33</ele>
        <time>2020-06-03T15:06:36Z</time>
      </trkpt>
      <trkpt lat="47.17497" lon="-1.69496">
        <ele>25.58</ele>
        <time>2020-06-03T15:06:38Z</time>
      </trkpt>
      <trkpt lat="47.17498" lon="-1.69516">
        <ele>25.47</ele>
        <time>2020-06-03T15:06:40Z</time>
      </trkpt>
      <trkpt lat="47.17499" lon="-1.69533">
        <ele>25.21</ele>
        <time>2020-06-03T15:06:42Z</time>
      </trkpt>
      <trkpt lat="47.175" lon="-1.69551">
        <ele>24.31</ele>
        <time>2020-06-03T15:06:44Z</time>
      </trkpt>
      <trkpt lat="47.17501" lon="-1.69571">
        <ele>23.65</ele>
        <time>2020-06-03T15:06:46Z</time>
      </trkpt>
      <trkpt lat="47.17503" lon="-1.69592">
        <ele>23.82</ele>
        <time>2020-06-03T15:06:48Z</time>
      </trkpt>
      <trkpt lat="47.17505" lon="-1.69611">
        <ele>24.27</ele>
        <time>2020-06-03T15:06:50Z</time>
      </trkpt>
      <trkpt lat="47.17507" lon="-1.69631">
        <ele>24.12</ele>
        <time>2020-06-03T15:06:52Z</time>
      </trkpt>
      <trkpt lat="47.17509" lon="-1.69649">
        <ele>23.21</ele>
        <time>2020-06-03T15:06:54Z</time>
      </trkpt>
      <trkpt lat="47.1751" lon="-1.69669">
        <ele>22.96</ele>
        <time>2020-06-03T15:06:56Z</time>
      </trkpt>
      <trkpt lat="47.17512" lon="-1.69688">
        <ele>22.92</ele>
        <time>2020-06-03T15:06:58Z</time>
      </trkpt>
      <trkpt lat="47.17513" lon="-1.69704">
        <ele>22.72</ele>
        <time>2020-06-03T15:07:00Z</time>
      </trkpt>
      <trkpt lat="47.17515" lon="-1.69728">
        <ele>23.42</ele>
        <time>2020-06-03T15:07:02Z</time>
      </trkpt>
      <trkpt lat="47.17516" lon="-1.69746">
        <ele>23.39</ele>
        <time>2020-06-03T15:07:04Z</time>
      </trkpt>
      <trkpt lat="47.17517" lon="-1.69764">
        <ele>24.46</ele>
        <time>2020-06-03T15:07:06Z</time>
      </trkpt>
      <trkpt lat="47.17519" lon="-1.69782">
        <ele>24.72</ele>
        <time>2020-06-03T15:07:08Z</time>
      </trkpt>
      <trkpt lat="47.17521" lon="-1.69801">
        <ele>24.47</ele>
        <time>2020-06-03T15:07:10Z</time>
      </trkpt>
      <trkpt lat="47.17523" lon="-1.69818">
        <ele>24.87</ele>
        <time>2020-06-03T15:07:12Z</time>
      </trkpt>
      <trkpt lat="47.17525" lon="-1.69837">
        <ele>24.55</ele>
        <time>2020-06-03T15:07:14Z</time>
      </trkpt>
      <trkpt lat="47.17527" lon="-1.69854">
        <ele>24.13</ele>
        <time>2020-06-03T15:07:16Z</time>
      </trkpt>
      <trkpt lat="47.1753" lon="-1.69872">
        <ele>23.49</ele>
        <time>2020-06-03T15:07:18Z</time>
      </trkpt>
      <trkpt lat="47.17533" lon="-1.69891">
        <ele>23.04</ele>
        <time>2020-06-03T15:07:20Z</time>
      </trkpt>
      <trkpt lat="47.17535" lon="-1.69907">
        <ele>22.7</ele>
        <time>2020-06-03T15:07:22Z</time>
      </trkpt>
      <trkpt lat="47.17538" lon="-1.69923">
        <ele>22.79</ele>
        <time>2020-06-03T15:07:24Z</time>
      </trkpt>
      <trkpt lat="47.17542" lon="-1.69943">
        <ele>23.41</ele>
        <time>2020-06-03T15:07:26Z</time>
      </trkpt>
      <trkpt lat="47.17545" lon="-1.69959">
        <ele>23.62</ele>
        <time>2020-06-03T15:07:28Z</time>
      </trkpt>
      <trkpt lat="47.17548" lon="-1.69976">
        <ele>23.55</ele>
        <time>2020-06-03T15:07:30Z</time>
      </trkpt>
      <trkpt lat="47.17552" lon="-1.69996">
        <ele>23.51</ele>
        <time>2020-06-03T15:07:32Z</time>
      </trkpt>
      <trkpt lat="47.17557" lon="-1.70014">
        <ele>22.95</ele>
        <time>2020-06-03T15:07:34Z</time>
      </trkpt>
      <trkpt lat="47.1756" lon="-1.7003">
        <ele>23.24</ele>
        <time>2020-06-03T15:07:36Z</time>
      </trkpt>
      <trkpt lat="47.17564" lon="-1.70047">
        <ele>23</ele>
        <time>2020-06-03T15:07:38Z</time>
      </trkpt>
      <trkpt lat="47.17567" lon="-1.70064">
        <ele>22.98</ele>
        <time>2020-06-03T15:07:40Z</time>
      </trkpt>
      <trkpt lat="47.17571" lon="-1.70084">
        <ele>22.32</ele>
        <time>2020-06-03T15:07:42Z</time>
      </trkpt>
      <trkpt lat="47.17575" lon="-1.701">
        <ele>21.32</ele>
        <time>2020-06-03T15:07:44Z</time>
      </trkpt>
      <trkpt lat="47.17579" lon="-1.70117">
        <ele>21</ele>
        <time>2020-06-03T15:07:46Z</time>
      </trkpt>
      <trkpt lat="47.17582" lon="-1.70135">
        <ele>21.06</ele>
        <time>2020-06-03T15:07:48Z</time>
      </trkpt>
      <trkpt lat="47.17586" lon="-1.70154">
        <ele>21.16</ele>
        <time>2020-06-03T15:07:50Z</time>
      </trkpt>
      <trkpt lat="47.17589" lon="-1.70168">
        <ele>21.2</ele>
        <time>2020-06-03T15:07:52Z</time>
      </trkpt>
      <trkpt lat="47.17593" lon="-1.70185">
        <ele>20.87</ele>
        <time>2020-06-03T15:07:54Z</time>
      </trkpt>
      <trkpt lat="47.17596" lon="-1.70202">
        <ele>19.79</ele>
        <time>2020-06-03T15:07:56Z</time>
      </trkpt>
      <trkpt lat="47.17598" lon="-1.70221">
        <ele>19.63</ele>
        <time>2020-06-03T15:07:58Z</time>
      </trkpt>
      <trkpt lat="47.176" lon="-1.70239">
        <ele>20.22</ele>
        <time>2020-06-03T15:08:00Z</time>
      </trkpt>
      <trkpt lat="47.176" lon="-1.70258">
        <ele>20.07</ele>
        <time>2020-06-03T15:08:02Z</time>
      </trkpt>
      <trkpt lat="47.17598" lon="-1.70276">
        <ele>20.66</ele>
        <time>2020-06-03T15:08:04Z</time>
      </trkpt>
      <trkpt lat="47.17595" lon="-1.70292">
        <ele>20.38</ele>
        <time>2020-06-03T15:08:06Z</time>
      </trkpt>
      <trkpt lat="47.17591" lon="-1.70309">
        <ele>19.86</ele>
        <time>2020-06-03T15:08:08Z</time>
      </trkpt>
      <trkpt lat="47.17586" lon="-1.70326">
        <ele>19.88</ele>
        <time>2020-06-03T15:08:10Z</time>
      </trkpt>
      <trkpt lat="47.1758" lon="-1.70341">
        <ele>20.49</ele>
        <time>2020-06-03T15:08:12Z</time>
      </trkpt>
      <trkpt lat="47.17574" lon="-1.70355">
        <ele>21.04</ele>
        <time>2020-06-03T15:08:14Z</time>
      </trkpt>
      <trkpt lat="47.17571" lon="-1.7037">
        <ele>21.74</ele>
        <time>2020-06-03T15:08:16Z</time>
      </trkpt>
      <trkpt lat="47.17578" lon="-1.70383">
        <ele>22.76</ele>
        <time>2020-06-03T15:08:18Z</time>
      </trkpt>
      <trkpt lat="47.17587" lon="-1.70386">
        <ele>24.11</ele>
        <time>2020-06-03T15:08:20Z</time>
      </trkpt>
      <trkpt lat="47.17598" lon="-1.70387">
        <ele>25.42</ele>
        <time>2020-06-03T15:08:22Z</time>
      </trkpt>
      <trkpt lat="47.17611" lon="-1.7039">
        <ele>26.99</ele>
        <time>2020-06-03T15:08:24Z</time>
      </trkpt>
      <trkpt lat="47.17618" lon="-1.70401">
        <ele>27.6</ele>
        <time>2020-06-03T15:08:26Z</time>
      </trkpt>
      <trkpt lat="47.17619" lon="-1.7042">
        <ele>27.73</ele>
        <time>2020-06-03T15:08:28Z</time>
      </trkpt>
      <trkpt lat="47.17615" lon="-1.70439">
        <ele>28.09</ele>
        <time>2020-06-03T15:08:30Z</time>
      </trkpt>
      <trkpt lat="47.17611" lon="-1.70456">
        <ele>29.38</ele>
        <time>2020-06-03T15:08:32Z</time>
      </trkpt>
      <trkpt lat="47.17614" lon="-1.70473">
        <ele>29.9</ele>
        <time>2020-06-03T15:08:34Z</time>
      </trkpt>
      <trkpt lat="47.17621" lon="-1.70488">
        <ele>30.1</ele>
        <time>2020-06-03T15:08:36Z</time>
      </trkpt>
      <trkpt lat="47.1763" lon="-1.70504">
        <ele>29.1</ele>
        <time>2020-06-03T15:08:38Z</time>
      </trkpt>
      <trkpt lat="47.17642" lon="-1.70517">
        <ele>27.87</ele>
        <time>2020-06-03T15:08:40Z</time>
      </trkpt>
      <trkpt lat="47.17655" lon="-1.7053">
        <ele>26.89</ele>
        <time>2020-06-03T15:08:42Z</time>
      </trkpt>
      <trkpt lat="47.17668" lon="-1.70542">
        <ele>26.47</ele>
        <time>2020-06-03T15:08:44Z</time>
      </trkpt>
      <trkpt lat="47.17681" lon="-1.70553">
        <ele>26.53</ele>
        <time>2020-06-03T15:08:46Z</time>
      </trkpt>
      <trkpt lat="47.17693" lon="-1.70564">
        <ele>26.67</ele>
        <time>2020-06-03T15:08:48Z</time>
      </trkpt>
      <trkpt lat="47.17705" lon="-1.70575">
        <ele>26.8</ele>
        <time>2020-06-03T15:08:50Z</time>
      </trkpt>
      <trkpt lat="47.17717" lon="-1.70587">
        <ele>27.12</ele>
        <time>2020-06-03T15:08:52Z</time>
      </trkpt>
      <trkpt lat="47.17726" lon="-1.70601">
        <ele>26.96</ele>
        <time>2020-06-03T15:08:54Z</time>
      </trkpt>
      <trkpt lat="47.17733" lon="-1.70616">
        <ele>26.78</ele>
        <time>2020-06-03T15:08:56Z</time>
      </trkpt>
      <trkpt lat="47.17742" lon="-1.70635">
        <ele>27.46</ele>
        <time>2020-06-03T15:08:58Z</time>
      </trkpt>
      <trkpt lat="47.17748" lon="-1.70652">
        <ele>27.42</ele>
        <time>2020-06-03T15:09:00Z</time>
      </trkpt>
      <trkpt lat="47.17754" lon="-1.7067">
        <ele>27.28</ele>
        <time>2020-06-03T15:09:02Z</time>
      </trkpt>
      <trkpt lat="47.1776" lon="-1.70688">
        <ele>26.65</ele>
        <time>2020-06-03T15:09:04Z</time>
      </trkpt>
      <trkpt lat="47.17766" lon="-1.70708">
        <ele>25.51</ele>
        <time>2020-06-03T15:09:06Z</time>
      </trkpt>
      <trkpt lat="47.17771" lon="-1.70724">
        <ele>25.12</ele>
        <time>2020-06-03T15:09:08Z</time>
      </trkpt>
      <trkpt lat="47.17776" lon="-1.70741">
        <ele>24.52</ele>
        <time>2020-06-03T15:09:10Z</time>
      </trkpt>
      <trkpt lat="47.17782" lon="-1.70761">
        <ele>24.04</ele>
        <time>2020-06-03T15:09:12Z</time>
      </trkpt>
      <trkpt lat="47.17787" lon="-1.70776">
        <ele>24.08</ele>
        <time>2020-06-03T15:09:14Z</time>
      </trkpt>
      <trkpt lat="47.17793" lon="-1.70795">
        <ele>23.89</ele>
        <time>2020-06-03T15:09:16Z</time>
      </trkpt>
      <trkpt lat="47.17798" lon="-1.70811">
        <ele>24.8</ele>
        <time>2020-06-03T15:09:18Z</time>
      </trkpt>
      <trkpt lat="47.17803" lon="-1.70829">
        <ele>25.25</ele>
        <time>2020-06-03T15:09:20Z</time>
      </trkpt>
      <trkpt lat="47.17809" lon="-1.70845">
        <ele>25.25</ele>
        <time>2020-06-03T15:09:22Z</time>
      </trkpt>
      <trkpt lat="47.17814" lon="-1.70861">
        <ele>25.44</ele>
        <time>2020-06-03T15:09:24Z</time>
      </trkpt>
      <trkpt lat="47.1782" lon="-1.70877">
        <ele>25.77</ele>
        <time>2020-06-03T15:09:26Z</time>
      </trkpt>
      <trkpt lat="47.17826" lon="-1.70895">
        <ele>26.02</ele>
        <time>2020-06-03T15:09:28Z</time>
      </trkpt>
      <trkpt lat="47.17831" lon="-1.70911">
        <ele>25.8</ele>
        <time>2020-06-03T15:09:30Z</time>
      </trkpt>
      <trkpt lat="47.17838" lon="-1.70929">
        <ele>25.61</ele>
        <time>2020-06-03T15:09:32Z</time>
      </trkpt>
      <trkpt lat="47.17844" lon="-1.70946">
        <ele>25.51</ele>
        <time>2020-06-03T15:09:34Z</time>
      </trkpt>
      <trkpt lat="47.17849" lon="-1.70962">
        <ele>25.27</ele>
        <time>2020-06-03T15:09:36Z</time>
      </trkpt>
      <trkpt lat="47.17856" lon="-1.70978">
        <ele>25.17</ele>
        <time>2020-06-03T15:09:38Z</time>
      </trkpt>
      <trkpt lat="47.17864" lon="-1.70993">
        <ele>24.33</ele>
        <time>2020-06-03T15:09:40Z</time>
      </trkpt>
      <trkpt lat="47.17872" lon="-1.71007">
        <ele>24.11</ele>
        <time>2020-06-03T15:09:42Z</time>
      </trkpt>
      <trkpt lat="47.17879" lon="-1.7102">
        <ele>24.27</ele>
        <time>2020-06-03T15:09:44Z</time>
      </trkpt>
      <trkpt lat="47.17886" lon="-1.71037">
        <ele>24.5</ele>
        <time>2020-06-03T15:09:46Z</time>
      </trkpt>
      <trkpt lat="47.17891" lon="-1.71053">
        <ele>25.13</ele>
        <time>2020-06-03T15:09:48Z</time>
      </trkpt>
      <trkpt lat="47.17896" lon="-1.71067">
        <ele>26.18</ele>
        <time>2020-06-03T15:09:50Z</time>
      </trkpt>
      <trkpt lat="47.17901" lon="-1.71083">
        <ele>27.38</ele>
        <time>2020-06-03T15:09:52Z</time>
      </trkpt>
      <trkpt lat="47.17906" lon="-1.71101">
        <ele>27.95</ele>
        <time>2020-06-03T15:09:54Z</time>
      </trkpt>
      <trkpt lat="47.17911" lon="-1.71116">
        <ele>28.25</ele>
        <time>2020-06-03T15:09:56Z</time>
      </trkpt>
      <trkpt lat="47.17915" lon="-1.71132">
        <ele>28.33</ele>
        <time>2020-06-03T15:09:58Z</time>
      </trkpt>
      <trkpt lat="47.1792" lon="-1.71152">
        <ele>27.91</ele>
        <time>2020-06-03T15:10:00Z</time>
      </trkpt>
      <trkpt lat="47.17923" lon="-1.71168">
        <ele>27.94</ele>
        <time>2020-06-03T15:10:02Z</time>
      </trkpt>
      <trkpt lat="47.17925" lon="-1.71185">
        <ele>28</ele>
        <time>2020-06-03T15:10:04Z</time>
      </trkpt>
      <trkpt lat="47.17928" lon="-1.71203">
        <ele>27.74</ele>
        <time>2020-06-03T15:10:06Z</time>
      </trkpt>
      <trkpt lat="47.17931" lon="-1.71221">
        <ele>27.44</ele>
        <time>2020-06-03T15:10:08Z</time>
      </trkpt>
      <trkpt lat="47.17936" lon="-1.71239">
        <ele>27.41</ele>
        <time>2020-06-03T15:10:10Z</time>
      </trkpt>
      <trkpt lat="47.17941" lon="-1.71256">
        <ele>28.04</ele>
        <time>2020-06-03T15:10:12Z</time>
      </trkpt>
      <trkpt lat="47.17947" lon="-1.71273">
        <ele>27.91</ele>
        <time>2020-06-03T15:10:14Z</time>
      </trkpt>
      <trkpt lat="47.17952" lon="-1.71289">
        <ele>27.64</ele>
        <time>2020-06-03T15:10:16Z</time>
      </trkpt>
      <trkpt lat="47.17958" lon="-1.71307">
        <ele>26.76</ele>
        <time>2020-06-03T15:10:18Z</time>
      </trkpt>
      <trkpt lat="47.17963" lon="-1.71324">
        <ele>26.32</ele>
        <time>2020-06-03T15:10:20Z</time>
      </trkpt>
      <trkpt lat="47.17969" lon="-1.71341">
        <ele>26.35</ele>
        <time>2020-06-03T15:10:22Z</time>
      </trkpt>
      <trkpt lat="47.17975" lon="-1.71357">
        <ele>25.69</ele>
        <time>2020-06-03T15:10:24Z</time>
      </trkpt>
      <trkpt lat="47.1798" lon="-1.71374">
        <ele>25.61</ele>
        <time>2020-06-03T15:10:26Z</time>
      </trkpt>
      <trkpt lat="47.17986" lon="-1.71392">
        <ele>26.76</ele>
        <time>2020-06-03T15:10:28Z</time>
      </trkpt>
      <trkpt lat="47.17991" lon="-1.71409">
        <ele>27.74</ele>
        <time>2020-06-03T15:10:30Z</time>
      </trkpt>
      <trkpt lat="47.17997" lon="-1.71426">
        <ele>28.09</ele>
        <time>2020-06-03T15:10:32Z</time>
      </trkpt>
      <trkpt lat="47.18002" lon="-1.71442">
        <ele>28.29</ele>
        <time>2020-06-03T15:10:34Z</time>
      </trkpt>
      <trkpt lat="47.18007" lon="-1.71458">
        <ele>28.44</ele>
        <time>2020-06-03T15:10:36Z</time>
      </trkpt>
      <trkpt lat="47.18013" lon="-1.71474">
        <ele>27.96</ele>
        <time>2020-06-03T15:10:38Z</time>
      </trkpt>
      <trkpt lat="47.18019" lon="-1.71494">
        <ele>26.76</ele>
        <time>2020-06-03T15:10:40Z</time>
      </trkpt>
      <trkpt lat="47.18024" lon="-1.71509">
        <ele>26.55</ele>
        <time>2020-06-03T15:10:42Z</time>
      </trkpt>
      <trkpt lat="47.18029" lon="-1.71527">
        <ele>27.09</ele>
        <time>2020-06-03T15:10:44Z</time>
      </trkpt>
      <trkpt lat="47.18035" lon="-1.71545">
        <ele>27.13</ele>
        <time>2020-06-03T15:10:46Z</time>
      </trkpt>
      <trkpt lat="47.18041" lon="-1.71561">
        <ele>26.69</ele>
        <time>2020-06-03T15:10:48Z</time>
      </trkpt>
      <trkpt lat="47.18047" lon="-1.71579">
        <ele>26.49</ele>
        <time>2020-06-03T15:10:50Z</time>
      </trkpt>
      <trkpt lat="47.18052" lon="-1.71593">
        <ele>26.28</ele>
        <time>2020-06-03T15:10:52Z</time>
      </trkpt>
      <trkpt lat="47.18057" lon="-1.7161">
        <ele>26.44</ele>
        <time>2020-06-03T15:10:54Z</time>
      </trkpt>
      <trkpt lat="47.18063" lon="-1.71627">
        <ele>26.91</ele>
        <time>2020-06-03T15:10:56Z</time>
      </trkpt>
      <trkpt lat="47.18069" lon="-1.71644">
        <ele>26.99</ele>
        <time>2020-06-03T15:10:58Z</time>
      </trkpt>
      <trkpt lat="47.18075" lon="-1.71661">
        <ele>26.52</ele>
        <time>2020-06-03T15:11:00Z</time>
      </trkpt>
      <trkpt lat="47.1808" lon="-1.71678">
        <ele>26.87</ele>
        <time>2020-06-03T15:11:02Z</time>
      </trkpt>
      <trkpt lat="47.18087" lon="-1.71696">
        <ele>28.07</ele>
        <time>2020-06-03T15:11:04Z</time>
      </trkpt>
      <trkpt lat="47.18093" lon="-1.71714">
        <ele>27.28</ele>
        <time>2020-06-03T15:11:06Z</time>
      </trkpt>
      <trkpt lat="47.18098" lon="-1.7173">
        <ele>27.07</ele>
        <time>2020-06-03T15:11:08Z</time>
      </trkpt>
      <trkpt lat="47.18104" lon="-1.71745">
        <ele>26.13</ele>
        <time>2020-06-03T15:11:10Z</time>
      </trkpt>
      <trkpt lat="47.1811" lon="-1.71761">
        <ele>24.98</ele>
        <time>2020-06-03T15:11:12Z</time>
      </trkpt>
      <trkpt lat="47.18116" lon="-1.71778">
        <ele>23.11</ele>
        <time>2020-06-03T15:11:14Z</time>
      </trkpt>
      <trkpt lat="47.18123" lon="-1.71796">
        <ele>22.52</ele>
        <time>2020-06-03T15:11:16Z</time>
      </trkpt>
      <trkpt lat="47.18129" lon="-1.71812">
        <ele>21.73</ele>
        <time>2020-06-03T15:11:18Z</time>
      </trkpt>
      <trkpt lat="47.18133" lon="-1.71825">
        <ele>21.69</ele>
        <time>2020-06-03T15:11:20Z</time>
      </trkpt>
      <trkpt lat="47.1814" lon="-1.71842">
        <ele>21.47</ele>
        <time>2020-06-03T15:11:22Z</time>
      </trkpt>
      <trkpt lat="47.18145" lon="-1.71859">
        <ele>22.25</ele>
        <time>2020-06-03T15:11:24Z</time>
      </trkpt>
      <trkpt lat="47.18151" lon="-1.71876">
        <ele>22.73</ele>
        <time>2020-06-03T15:11:26Z</time>
      </trkpt>
      <trkpt lat="47.18156" lon="-1.71892">
        <ele>23.74</ele>
        <time>2020-06-03T15:11:28Z</time>
      </trkpt>
      <trkpt lat="47.18162" lon="-1.7191">
        <ele>24.52</ele>
        <time>2020-06-03T15:11:30Z</time>
      </trkpt>
      <trkpt lat="47.18167" lon="-1.71928">
        <ele>24.36</ele>
        <time>2020-06-03T15:11:32Z</time>
      </trkpt>
      <trkpt lat="47.18173" lon="-1.71944">
        <ele>23.6</ele>
        <time>2020-06-03T15:11:34Z</time>
      </trkpt>
      <trkpt lat="47.18179" lon="-1.71961">
        <ele>23.28</ele>
        <time>2020-06-03T15:11:36Z</time>
      </trkpt>
      <trkpt lat="47.18184" lon="-1.71979">
        <ele>23.21</ele>
        <time>2020-06-03T15:11:38Z</time>
      </trkpt>
      <trkpt lat="47.18188" lon="-1.71994">
        <ele>23.68</ele>
        <time>2020-06-03T15:11:40Z</time>
      </trkpt>
      <trkpt lat="47.18193" lon="-1.72009">
        <ele>24.28</ele>
        <time>2020-06-03T15:11:42Z</time>
      </trkpt>
      <trkpt lat="47.18199" lon="-1.72026">
        <ele>24.9</ele>
        <time>2020-06-03T15:11:44Z</time>
      </trkpt>
      <trkpt lat="47.18204" lon="-1.72042">
        <ele>25.11</ele>
        <time>2020-06-03T15:11:46Z</time>
      </trkpt>
      <trkpt lat="47.18209" lon="-1.72059">
        <ele>25.74</ele>
        <time>2020-06-03T15:11:48Z</time>
      </trkpt>
      <trkpt lat="47.18214" lon="-1.72075">
        <ele>26.26</ele>
        <time>2020-06-03T15:11:50Z</time>
      </trkpt>
      <trkpt lat="47.18219" lon="-1.72092">
        <ele>25.48</ele>
        <time>2020-06-03T15:11:52Z</time>
      </trkpt>
      <trkpt lat="47.18224" lon="-1.7211">
        <ele>25.52</ele>
        <time>2020-06-03T15:11:54Z</time>
      </trkpt>
      <trkpt lat="47.1823" lon="-1.72127">
        <ele>25.47</ele>
        <time>2020-06-03T15:11:56Z</time>
      </trkpt>
      <trkpt lat="47.18234" lon="-1.72141">
        <ele>26.34</ele>
        <time>2020-06-03T15:11:58Z</time>
      </trkpt>
      <trkpt lat="47.18239" lon="-1.72157">
        <ele>27.23</ele>
        <time>2020-06-03T15:12:00Z</time>
      </trkpt>
      <trkpt lat="47.18243" lon="-1.72171">
        <ele>26.33</ele>
        <time>2020-06-03T15:12:02Z</time>
      </trkpt>
      <trkpt lat="47.18249" lon="-1.72186">
        <ele>25.29</ele>
        <time>2020-06-03T15:12:04Z</time>
      </trkpt>
      <trkpt lat="47.18254" lon="-1.72203">
        <ele>24.72</ele>
        <time>2020-06-03T15:12:06Z</time>
      </trkpt>
      <trkpt lat="47.18257" lon="-1.72218">
        <ele>24.45</ele>
        <time>2020-06-03T15:12:08Z</time>
      </trkpt>
      <trkpt lat="47.1826" lon="-1.72237">
        <ele>24.95</ele>
        <time>2020-06-03T15:12:10Z</time>
      </trkpt>
      <trkpt lat="47.18263" lon="-1.72253">
        <ele>24.22</ele>
        <time>2020-06-03T15:12:12Z</time>
      </trkpt>
      <trkpt lat="47.18265" lon="-1.7227">
        <ele>23.66</ele>
        <time>2020-06-03T15:12:14Z</time>
      </trkpt>
      <trkpt lat="47.18266" lon="-1.72289">
        <ele>23.38</ele>
        <time>2020-06-03T15:12:16Z</time>
      </trkpt>
      <trkpt lat="47.18268" lon="-1.72306">
        <ele>22.78</ele>
        <time>2020-06-03T15:12:18Z</time>
      </trkpt>
      <trkpt lat="47.18269" lon="-1.72323">
        <ele>21.86</ele>
        <time>2020-06-03T15:12:20Z</time>
      </trkpt>
      <trkpt lat="47.18271" lon="-1.72342">
        <ele>21.51</ele>
        <time>2020-06-03T15:12:22Z</time>
      </trkpt>
      <trkpt lat="47.18273" lon="-1.7236">
        <ele>21.53</ele>
        <time>2020-06-03T15:12:24Z</time>
      </trkpt>
      <trkpt lat="47.18274" lon="-1.72379">
        <ele>21.18</ele>
        <time>2020-06-03T15:12:26Z</time>
      </trkpt>
      <trkpt lat="47.18275" lon="-1.72399">
        <ele>22.19</ele>
        <time>2020-06-03T15:12:28Z</time>
      </trkpt>
      <trkpt lat="47.18275" lon="-1.72418">
        <ele>23.59</ele>
        <time>2020-06-03T15:12:30Z</time>
      </trkpt>
      <trkpt lat="47.18274" lon="-1.72436">
        <ele>24.59</ele>
        <time>2020-06-03T15:12:32Z</time>
      </trkpt>
      <trkpt lat="47.18273" lon="-1.72452">
        <ele>25.55</ele>
        <time>2020-06-03T15:12:34Z</time>
      </trkpt>
      <trkpt lat="47.18271" lon="-1.72467">
        <ele>26.6</ele>
        <time>2020-06-03T15:12:36Z</time>
      </trkpt>
      <trkpt lat="47.18268" lon="-1.72485">
        <ele>27.38</ele>
        <time>2020-06-03T15:12:38Z</time>
      </trkpt>
      <trkpt lat="47.18264" lon="-1.725">
        <ele>28.1</ele>
        <time>2020-06-03T15:12:40Z</time>
      </trkpt>
      <trkpt lat="47.18262" lon="-1.72517">
        <ele>28.93</ele>
        <time>2020-06-03T15:12:42Z</time>
      </trkpt>
      <trkpt lat="47.18262" lon="-1.72533">
        <ele>29.23</ele>
        <time>2020-06-03T15:12:44Z</time>
      </trkpt>
      <trkpt lat="47.1827" lon="-1.72551">
        <ele>30.48</ele>
        <time>2020-06-03T15:12:47Z</time>
      </trkpt>
      <trkpt lat="47.18282" lon="-1.7255">
        <ele>31.01</ele>
        <time>2020-06-03T15:12:49Z</time>
      </trkpt>
      <trkpt lat="47.18295" lon="-1.72545">
        <ele>30.96</ele>
        <time>2020-06-03T15:12:51Z</time>
      </trkpt>
      <trkpt lat="47.18308" lon="-1.72547">
        <ele>30.42</ele>
        <time>2020-06-03T15:12:53Z</time>
      </trkpt>
      <trkpt lat="47.18317" lon="-1.72558">
        <ele>30.04</ele>
        <time>2020-06-03T15:12:55Z</time>
      </trkpt>
      <trkpt lat="47.18321" lon="-1.72576">
        <ele>29.52</ele>
        <time>2020-06-03T15:12:57Z</time>
      </trkpt>
      <trkpt lat="47.18318" lon="-1.72595">
        <ele>28.63</ele>
        <time>2020-06-03T15:12:59Z</time>
      </trkpt>
      <trkpt lat="47.18314" lon="-1.72614">
        <ele>27.66</ele>
        <time>2020-06-03T15:13:01Z</time>
      </trkpt>
      <trkpt lat="47.18316" lon="-1.72632">
        <ele>28</ele>
        <time>2020-06-03T15:13:03Z</time>
      </trkpt>
      <trkpt lat="47.1832" lon="-1.7265">
        <ele>28.69</ele>
        <time>2020-06-03T15:13:05Z</time>
      </trkpt>
      <trkpt lat="47.18326" lon="-1.72668">
        <ele>28.2</ele>
        <time>2020-06-03T15:13:07Z</time>
      </trkpt>
      <trkpt lat="47.18332" lon="-1.72689">
        <ele>27.01</ele>
        <time>2020-06-03T15:13:09Z</time>
      </trkpt>
      <trkpt lat="47.18338" lon="-1.7271">
        <ele>25.75</ele>
        <time>2020-06-03T15:13:11Z</time>
      </trkpt>
      <trkpt lat="47.18345" lon="-1.7273">
        <ele>25.31</ele>
        <time>2020-06-03T15:13:13Z</time>
      </trkpt>
      <trkpt lat="47.18352" lon="-1.72749">
        <ele>24.47</ele>
        <time>2020-06-03T15:13:15Z</time>
      </trkpt>
      <trkpt lat="47.18359" lon="-1.72767">
        <ele>24.01</ele>
        <time>2020-06-03T15:13:17Z</time>
      </trkpt>
      <trkpt lat="47.18366" lon="-1.72785">
        <ele>23.92</ele>
        <time>2020-06-03T15:13:19Z</time>
      </trkpt>
      <trkpt lat="47.18372" lon="-1.72804">
        <ele>24.13</ele>
        <time>2020-06-03T15:13:21Z</time>
      </trkpt>
      <trkpt lat="47.18378" lon="-1.72821">
        <ele>24.68</ele>
        <time>2020-06-03T15:13:23Z</time>
      </trkpt>
      <trkpt lat="47.18384" lon="-1.72839">
        <ele>25.11</ele>
        <time>2020-06-03T15:13:25Z</time>
      </trkpt>
      <trkpt lat="47.18391" lon="-1.72858">
        <ele>25.5</ele>
        <time>2020-06-03T15:13:27Z</time>
      </trkpt>
      <trkpt lat="47.18396" lon="-1.72874">
        <ele>25.47</ele>
        <time>2020-06-03T15:13:29Z</time>
      </trkpt>
      <trkpt lat="47.18401" lon="-1.72887">
        <ele>25.16</ele>
        <time>2020-06-03T15:13:31Z</time>
      </trkpt>
      <trkpt lat="47.18406" lon="-1.72904">
        <ele>25.12</ele>
        <time>2020-06-03T15:13:33Z</time>
      </trkpt>
      <trkpt lat="47.18411" lon="-1.72921">
        <ele>25.35</ele>
        <time>2020-06-03T15:13:35Z</time>
      </trkpt>
      <trkpt lat="47.18414" lon="-1.72934">
        <ele>25.46</ele>
        <time>2020-06-03T15:13:37Z</time>
      </trkpt>
      <trkpt lat="47.18418" lon="-1.72952">
        <ele>25.38</ele>
        <time>2020-06-03T15:13:39Z</time>
      </trkpt>
      <trkpt lat="47.18422" lon="-1.7297">
        <ele>25.31</ele>
        <time>2020-06-03T15:13:41Z</time>
      </trkpt>
      <trkpt lat="47.18424" lon="-1.72987">
        <ele>26.17</ele>
        <time>2020-06-03T15:13:43Z</time>
      </trkpt>
      <trkpt lat="47.18426" lon="-1.73002">
        <ele>26.56</ele>
        <time>2020-06-03T15:13:45Z</time>
      </trkpt>
      <trkpt lat="47.18428" lon="-1.73021">
        <ele>26.63</ele>
        <time>2020-06-03T15:13:48Z</time>
      </trkpt>
      <trkpt lat="47.1843" lon="-1.73038">
        <ele>26.34</ele>
        <time>2020-06-03T15:13:49Z</time>
      </trkpt>
      <trkpt lat="47.18431" lon="-1.73054">
        <ele>26.79</ele>
        <time>2020-06-03T15:13:52Z</time>
      </trkpt>
      <trkpt lat="47.18432" lon="-1.73069">
        <ele>25.55</ele>
        <time>2020-06-03T15:13:54Z</time>
      </trkpt>
      <trkpt lat="47.18435" lon="-1.73087">
        <ele>24.66</ele>
        <time>2020-06-03T15:13:56Z</time>
      </trkpt>
      <trkpt lat="47.18437" lon="-1.73107">
        <ele>24.59</ele>
        <time>2020-06-03T15:13:58Z</time>
      </trkpt>
      <trkpt lat="47.18439" lon="-1.73126">
        <ele>24.49</ele>
        <time>2020-06-03T15:14:00Z</time>
      </trkpt>
      <trkpt lat="47.18441" lon="-1.73144">
        <ele>24.18</ele>
        <time>2020-06-03T15:14:02Z</time>
      </trkpt>
      <trkpt lat="47.18443" lon="-1.73161">
        <ele>23.68</ele>
        <time>2020-06-03T15:14:04Z</time>
      </trkpt>
      <trkpt lat="47.18446" lon="-1.73179">
        <ele>22.92</ele>
        <time>2020-06-03T15:14:06Z</time>
      </trkpt>
      <trkpt lat="47.18449" lon="-1.73196">
        <ele>23.69</ele>
        <time>2020-06-03T15:14:08Z</time>
      </trkpt>
      <trkpt lat="47.18451" lon="-1.73214">
        <ele>24.02</ele>
        <time>2020-06-03T15:14:10Z</time>
      </trkpt>
      <trkpt lat="47.18453" lon="-1.73232">
        <ele>23.94</ele>
        <time>2020-06-03T15:14:12Z</time>
      </trkpt>
      <trkpt lat="47.18456" lon="-1.73251">
        <ele>23.49</ele>
        <time>2020-06-03T15:14:14Z</time>
      </trkpt>
      <trkpt lat="47.18458" lon="-1.73269">
        <ele>23.41</ele>
        <time>2020-06-03T15:14:16Z</time>
      </trkpt>
      <trkpt lat="47.18461" lon="-1.73287">
        <ele>23.25</ele>
        <time>2020-06-03T15:14:18Z</time>
      </trkpt>
      <trkpt lat="47.18463" lon="-1.73306">
        <ele>23.03</ele>
        <time>2020-06-03T15:14:20Z</time>
      </trkpt>
      <trkpt lat="47.18465" lon="-1.73324">
        <ele>22.65</ele>
        <time>2020-06-03T15:14:22Z</time>
      </trkpt>
      <trkpt lat="47.18467" lon="-1.73343">
        <ele>22.56</ele>
        <time>2020-06-03T15:14:24Z</time>
      </trkpt>
      <trkpt lat="47.18469" lon="-1.73361">
        <ele>23.59</ele>
        <time>2020-06-03T15:14:26Z</time>
      </trkpt>
      <trkpt lat="47.1847" lon="-1.73378">
        <ele>24.61</ele>
        <time>2020-06-03T15:14:28Z</time>
      </trkpt>
      <trkpt lat="47.18472" lon="-1.73396">
        <ele>25.59</ele>
        <time>2020-06-03T15:14:30Z</time>
      </trkpt>
      <trkpt lat="47.18473" lon="-1.73415">
        <ele>25.63</ele>
        <time>2020-06-03T15:14:32Z</time>
      </trkpt>
      <trkpt lat="47.18475" lon="-1.73434">
        <ele>25.25</ele>
        <time>2020-06-03T15:14:34Z</time>
      </trkpt>
      <trkpt lat="47.18476" lon="-1.73452">
        <ele>24.85</ele>
        <time>2020-06-03T15:14:36Z</time>
      </trkpt>
      <trkpt lat="47.18478" lon="-1.7347">
        <ele>24.41</ele>
        <time>2020-06-03T15:14:38Z</time>
      </trkpt>
      <trkpt lat="47.1848" lon="-1.73488">
        <ele>24.31</ele>
        <time>2020-06-03T15:14:40Z</time>
      </trkpt>
      <trkpt lat="47.18481" lon="-1.73506">
        <ele>24.45</ele>
        <time>2020-06-03T15:14:42Z</time>
      </trkpt>
      <trkpt lat="47.18483" lon="-1.73524">
        <ele>24.45</ele>
        <time>2020-06-03T15:14:44Z</time>
      </trkpt>
      <trkpt lat="47.18485" lon="-1.73543">
        <ele>24.39</ele>
        <time>2020-06-03T15:14:46Z</time>
      </trkpt>
      <trkpt lat="47.18486" lon="-1.73561">
        <ele>24.38</ele>
        <time>2020-06-03T15:14:48Z</time>
      </trkpt>
      <trkpt lat="47.18488" lon="-1.73579">
        <ele>24.3</ele>
        <time>2020-06-03T15:14:50Z</time>
      </trkpt>
      <trkpt lat="47.1849" lon="-1.73597">
        <ele>24.13</ele>
        <time>2020-06-03T15:14:52Z</time>
      </trkpt>
      <trkpt lat="47.18492" lon="-1.73615">
        <ele>24.06</ele>
        <time>2020-06-03T15:14:54Z</time>
      </trkpt>
      <trkpt lat="47.18493" lon="-1.73633">
        <ele>24.01</ele>
        <time>2020-06-03T15:14:56Z</time>
      </trkpt>
      <trkpt lat="47.18495" lon="-1.73652">
        <ele>24.25</ele>
        <time>2020-06-03T15:14:58Z</time>
      </trkpt>
      <trkpt lat="47.18497" lon="-1.73668">
        <ele>24.55</ele>
        <time>2020-06-03T15:15:00Z</time>
      </trkpt>
      <trkpt lat="47.18499" lon="-1.73683">
        <ele>24.39</ele>
        <time>2020-06-03T15:15:02Z</time>
      </trkpt>
      <trkpt lat="47.185" lon="-1.73702">
        <ele>24.22</ele>
        <time>2020-06-03T15:15:04Z</time>
      </trkpt>
      <trkpt lat="47.18502" lon="-1.73719">
        <ele>23.51</ele>
        <time>2020-06-03T15:15:06Z</time>
      </trkpt>
      <trkpt lat="47.18505" lon="-1.73737">
        <ele>24.21</ele>
        <time>2020-06-03T15:15:08Z</time>
      </trkpt>
      <trkpt lat="47.18507" lon="-1.73752">
        <ele>24.94</ele>
        <time>2020-06-03T15:15:10Z</time>
      </trkpt>
      <trkpt lat="47.18508" lon="-1.73767">
        <ele>24.41</ele>
        <time>2020-06-03T15:15:12Z</time>
      </trkpt>
      <trkpt lat="47.1851" lon="-1.73784">
        <ele>23.63</ele>
        <time>2020-06-03T15:15:14Z</time>
      </trkpt>
      <trkpt lat="47.18511" lon="-1.73801">
        <ele>23.61</ele>
        <time>2020-06-03T15:15:16Z</time>
      </trkpt>
      <trkpt lat="47.18512" lon="-1.73819">
        <ele>23.2</ele>
        <time>2020-06-03T15:15:18Z</time>
      </trkpt>
      <trkpt lat="47.18513" lon="-1.73834">
        <ele>23.13</ele>
        <time>2020-06-03T15:15:20Z</time>
      </trkpt>
      <trkpt lat="47.18515" lon="-1.73853">
        <ele>23.35</ele>
        <time>2020-06-03T15:15:22Z</time>
      </trkpt>
      <trkpt lat="47.18517" lon="-1.7387">
        <ele>24.39</ele>
        <time>2020-06-03T15:15:24Z</time>
      </trkpt>
      <trkpt lat="47.18518" lon="-1.73886">
        <ele>25.03</ele>
        <time>2020-06-03T15:15:26Z</time>
      </trkpt>
      <trkpt lat="47.18519" lon="-1.739">
        <ele>25.22</ele>
        <time>2020-06-03T15:15:28Z</time>
      </trkpt>
      <trkpt lat="47.1852" lon="-1.73915">
        <ele>24.98</ele>
        <time>2020-06-03T15:15:30Z</time>
      </trkpt>
      <trkpt lat="47.18522" lon="-1.7393">
        <ele>25.15</ele>
        <time>2020-06-03T15:15:32Z</time>
      </trkpt>
      <trkpt lat="47.18523" lon="-1.73947">
        <ele>24.89</ele>
        <time>2020-06-03T15:15:34Z</time>
      </trkpt>
      <trkpt lat="47.18523" lon="-1.73966">
        <ele>23.87</ele>
        <time>2020-06-03T15:15:36Z</time>
      </trkpt>
      <trkpt lat="47.18523" lon="-1.73982">
        <ele>23.9</ele>
        <time>2020-06-03T15:15:38Z</time>
      </trkpt>
      <trkpt lat="47.18522" lon="-1.74">
        <ele>23.77</ele>
        <time>2020-06-03T15:15:40Z</time>
      </trkpt>
      <trkpt lat="47.18521" lon="-1.74017">
        <ele>24.36</ele>
        <time>2020-06-03T15:15:42Z</time>
      </trkpt>
      <trkpt lat="47.1852" lon="-1.74036">
        <ele>25.01</ele>
        <time>2020-06-03T15:15:44Z</time>
      </trkpt>
      <trkpt lat="47.18519" lon="-1.7405">
        <ele>25.11</ele>
        <time>2020-06-03T15:15:46Z</time>
      </trkpt>
      <trkpt lat="47.18518" lon="-1.74069">
        <ele>24.06</ele>
        <time>2020-06-03T15:15:48Z</time>
      </trkpt>
      <trkpt lat="47.18516" lon="-1.74085">
        <ele>23.23</ele>
        <time>2020-06-03T15:15:50Z</time>
      </trkpt>
      <trkpt lat="47.18515" lon="-1.74103">
        <ele>21.95</ele>
        <time>2020-06-03T15:15:52Z</time>
      </trkpt>
      <trkpt lat="47.18517" lon="-1.74119">
        <ele>22.78</ele>
        <time>2020-06-03T15:15:54Z</time>
      </trkpt>
      <trkpt lat="47.18521" lon="-1.74135">
        <ele>23.89</ele>
        <time>2020-06-03T15:15:56Z</time>
      </trkpt>
      <trkpt lat="47.18521" lon="-1.74149">
        <ele>23.39</ele>
        <time>2020-06-03T15:15:58Z</time>
      </trkpt>
      <trkpt lat="47.18517" lon="-1.74164">
        <ele>22.33</ele>
        <time>2020-06-03T15:16:00Z</time>
      </trkpt>
      <trkpt lat="47.18516" lon="-1.74181">
        <ele>22.04</ele>
        <time>2020-06-03T15:16:02Z</time>
      </trkpt>
      <trkpt lat="47.18516" lon="-1.74198">
        <ele>22.69</ele>
        <time>2020-06-03T15:16:04Z</time>
      </trkpt>
      <trkpt lat="47.18516" lon="-1.74216">
        <ele>24.26</ele>
        <time>2020-06-03T15:16:07Z</time>
      </trkpt>
      <trkpt lat="47.18517" lon="-1.74232">
        <ele>25.45</ele>
        <time>2020-06-03T15:16:09Z</time>
      </trkpt>
      <trkpt lat="47.18517" lon="-1.74248">
        <ele>25.98</ele>
        <time>2020-06-03T15:16:11Z</time>
      </trkpt>
      <trkpt lat="47.18518" lon="-1.74266">
        <ele>26.52</ele>
        <time>2020-06-03T15:16:14Z</time>
      </trkpt>
      <trkpt lat="47.1852" lon="-1.74283">
        <ele>26.54</ele>
        <time>2020-06-03T15:16:16Z</time>
      </trkpt>
      <trkpt lat="47.18521" lon="-1.74299">
        <ele>26.25</ele>
        <time>2020-06-03T15:16:18Z</time>
      </trkpt>
      <trkpt lat="47.18522" lon="-1.74313">
        <ele>26.7</ele>
        <time>2020-06-03T15:16:20Z</time>
      </trkpt>
      <trkpt lat="47.18523" lon="-1.74333">
        <ele>25.57</ele>
        <time>2020-06-03T15:16:23Z</time>
      </trkpt>
      <trkpt lat="47.18524" lon="-1.74347">
        <ele>25.21</ele>
        <time>2020-06-03T15:16:25Z</time>
      </trkpt>
      <trkpt lat="47.18525" lon="-1.74363">
        <ele>24.05</ele>
        <time>2020-06-03T15:16:27Z</time>
      </trkpt>
      <trkpt lat="47.18526" lon="-1.7438">
        <ele>24.36</ele>
        <time>2020-06-03T15:16:29Z</time>
      </trkpt>
      <trkpt lat="47.18525" lon="-1.74394">
        <ele>24.09</ele>
        <time>2020-06-03T15:16:31Z</time>
      </trkpt>
      <trkpt lat="47.18526" lon="-1.74408">
        <ele>24.34</ele>
        <time>2020-06-03T15:16:33Z</time>
      </trkpt>
      <trkpt lat="47.18526" lon="-1.74423">
        <ele>23.86</ele>
        <time>2020-06-03T15:16:35Z</time>
      </trkpt>
      <trkpt lat="47.18525" lon="-1.74438">
        <ele>23.46</ele>
        <time>2020-06-03T15:16:37Z</time>
      </trkpt>
      <trkpt lat="47.18525" lon="-1.74453">
        <ele>24.45</ele>
        <time>2020-06-03T15:16:39Z</time>
      </trkpt>
      <trkpt lat="47.18525" lon="-1.74469">
        <ele>25.51</ele>
        <time>2020-06-03T15:16:41Z</time>
      </trkpt>
      <trkpt lat="47.18524" lon="-1.74483">
        <ele>25.39</ele>
        <time>2020-06-03T15:16:43Z</time>
      </trkpt>
      <trkpt lat="47.18523" lon="-1.74499">
        <ele>25.1</ele>
        <time>2020-06-03T15:16:45Z</time>
      </trkpt>
      <trkpt lat="47.18522" lon="-1.74517">
        <ele>24.64</ele>
        <time>2020-06-03T15:16:47Z</time>
      </trkpt>
      <trkpt lat="47.18521" lon="-1.74534">
        <ele>24.21</ele>
        <time>2020-06-03T15:16:49Z</time>
      </trkpt>
      <trkpt lat="47.18519" lon="-1.74548">
        <ele>23.39</ele>
        <time>2020-06-03T15:16:51Z</time>
      </trkpt>
      <trkpt lat="47.18518" lon="-1.74562">
        <ele>23.14</ele>
        <time>2020-06-03T15:16:53Z</time>
      </trkpt>
      <trkpt lat="47.18516" lon="-1.74576">
        <ele>24.07</ele>
        <time>2020-06-03T15:16:55Z</time>
      </trkpt>
      <trkpt lat="47.18514" lon="-1.74591">
        <ele>24.58</ele>
        <time>2020-06-03T15:16:57Z</time>
      </trkpt>
      <trkpt lat="47.18512" lon="-1.74608">
        <ele>24.58</ele>
        <time>2020-06-03T15:16:59Z</time>
      </trkpt>
      <trkpt lat="47.18509" lon="-1.74623">
        <ele>24.66</ele>
        <time>2020-06-03T15:17:01Z</time>
      </trkpt>
      <trkpt lat="47.18508" lon="-1.74639">
        <ele>24.67</ele>
        <time>2020-06-03T15:17:03Z</time>
      </trkpt>
      <trkpt lat="47.18506" lon="-1.74658">
        <ele>24.17</ele>
        <time>2020-06-03T15:17:05Z</time>
      </trkpt>
      <trkpt lat="47.18505" lon="-1.74672">
        <ele>23.4</ele>
        <time>2020-06-03T15:17:07Z</time>
      </trkpt>
      <trkpt lat="47.18503" lon="-1.74685">
        <ele>21.72</ele>
        <time>2020-06-03T15:17:09Z</time>
      </trkpt>
      <trkpt lat="47.18501" lon="-1.74703">
        <ele>20.32</ele>
        <time>2020-06-03T15:17:11Z</time>
      </trkpt>
      <trkpt lat="47.185" lon="-1.74719">
        <ele>19.54</ele>
        <time>2020-06-03T15:17:13Z</time>
      </trkpt>
      <trkpt lat="47.18498" lon="-1.74738">
        <ele>19.58</ele>
        <time>2020-06-03T15:17:15Z</time>
      </trkpt>
      <trkpt lat="47.18496" lon="-1.74753">
        <ele>20.79</ele>
        <time>2020-06-03T15:17:17Z</time>
      </trkpt>
      <trkpt lat="47.18494" lon="-1.74768">
        <ele>21.41</ele>
        <time>2020-06-03T15:17:19Z</time>
      </trkpt>
      <trkpt lat="47.18492" lon="-1.74782">
        <ele>19.98</ele>
        <time>2020-06-03T15:17:21Z</time>
      </trkpt>
      <trkpt lat="47.1849" lon="-1.74798">
        <ele>20.45</ele>
        <time>2020-06-03T15:17:23Z</time>
      </trkpt>
      <trkpt lat="47.18488" lon="-1.74815">
        <ele>21.13</ele>
        <time>2020-06-03T15:17:25Z</time>
      </trkpt>
      <trkpt lat="47.18486" lon="-1.74831">
        <ele>21.85</ele>
        <time>2020-06-03T15:17:27Z</time>
      </trkpt>
      <trkpt lat="47.18482" lon="-1.74848">
        <ele>21.54</ele>
        <time>2020-06-03T15:17:29Z</time>
      </trkpt>
      <trkpt lat="47.18479" lon="-1.74864">
        <ele>20.93</ele>
        <time>2020-06-03T15:17:31Z</time>
      </trkpt>
      <trkpt lat="47.18475" lon="-1.74881">
        <ele>20.16</ele>
        <time>2020-06-03T15:17:33Z</time>
      </trkpt>
      <trkpt lat="47.1847" lon="-1.74899">
        <ele>20.88</ele>
        <time>2020-06-03T15:17:35Z</time>
      </trkpt>
      <trkpt lat="47.18466" lon="-1.74914">
        <ele>21.48</ele>
        <time>2020-06-03T15:17:37Z</time>
      </trkpt>
      <trkpt lat="47.18463" lon="-1.74931">
        <ele>22.62</ele>
        <time>2020-06-03T15:17:39Z</time>
      </trkpt>
      <trkpt lat="47.18459" lon="-1.74948">
        <ele>23.04</ele>
        <time>2020-06-03T15:17:41Z</time>
      </trkpt>
      <trkpt lat="47.18454" lon="-1.74967">
        <ele>23.56</ele>
        <time>2020-06-03T15:17:43Z</time>
      </trkpt>
      <trkpt lat="47.18451" lon="-1.74983">
        <ele>24.65</ele>
        <time>2020-06-03T15:17:45Z</time>
      </trkpt>
      <trkpt lat="47.18448" lon="-1.75002">
        <ele>24.43</ele>
        <time>2020-06-03T15:17:47Z</time>
      </trkpt>
      <trkpt lat="47.18445" lon="-1.75021">
        <ele>23.69</ele>
        <time>2020-06-03T15:17:49Z</time>
      </trkpt>
      <trkpt lat="47.18441" lon="-1.75037">
        <ele>23.38</ele>
        <time>2020-06-03T15:17:51Z</time>
      </trkpt>
      <trkpt lat="47.18438" lon="-1.75054">
        <ele>22.93</ele>
        <time>2020-06-03T15:17:53Z</time>
      </trkpt>
      <trkpt lat="47.18435" lon="-1.75071">
        <ele>22.03</ele>
        <time>2020-06-03T15:17:55Z</time>
      </trkpt>
      <trkpt lat="47.18432" lon="-1.75091">
        <ele>20.17</ele>
        <time>2020-06-03T15:17:57Z</time>
      </trkpt>
      <trkpt lat="47.18429" lon="-1.75107">
        <ele>18.44</ele>
        <time>2020-06-03T15:17:59Z</time>
      </trkpt>
      <trkpt lat="47.18426" lon="-1.75125">
        <ele>17.32</ele>
        <time>2020-06-03T15:18:01Z</time>
      </trkpt>
      <trkpt lat="47.18423" lon="-1.75144">
        <ele>17.24</ele>
        <time>2020-06-03T15:18:03Z</time>
      </trkpt>
      <trkpt lat="47.18419" lon="-1.75163">
        <ele>18.28</ele>
        <time>2020-06-03T15:18:05Z</time>
      </trkpt>
      <trkpt lat="47.18416" lon="-1.7518">
        <ele>18.63</ele>
        <time>2020-06-03T15:18:07Z</time>
      </trkpt>
      <trkpt lat="47.18413" lon="-1.75196">
        <ele>18.57</ele>
        <time>2020-06-03T15:18:09Z</time>
      </trkpt>
      <trkpt lat="47.1841" lon="-1.75213">
        <ele>17.53</ele>
        <time>2020-06-03T15:18:11Z</time>
      </trkpt>
      <trkpt lat="47.18406" lon="-1.75231">
        <ele>16.87</ele>
        <time>2020-06-03T15:18:13Z</time>
      </trkpt>
      <trkpt lat="47.18405" lon="-1.75247">
        <ele>17.26</ele>
        <time>2020-06-03T15:18:15Z</time>
      </trkpt>
      <trkpt lat="47.18403" lon="-1.75262">
        <ele>17.48</ele>
        <time>2020-06-03T15:18:17Z</time>
      </trkpt>
      <trkpt lat="47.18401" lon="-1.75276">
        <ele>17.38</ele>
        <time>2020-06-03T15:18:19Z</time>
      </trkpt>
      <trkpt lat="47.18399" lon="-1.75292">
        <ele>17.23</ele>
        <time>2020-06-03T15:18:21Z</time>
      </trkpt>
      <trkpt lat="47.18398" lon="-1.75308">
        <ele>16.81</ele>
        <time>2020-06-03T15:18:23Z</time>
      </trkpt>
      <trkpt lat="47.18397" lon="-1.75324">
        <ele>15.84</ele>
        <time>2020-06-03T15:18:25Z</time>
      </trkpt>
      <trkpt lat="47.18396" lon="-1.75342">
        <ele>15.4</ele>
        <time>2020-06-03T15:18:27Z</time>
      </trkpt>
      <trkpt lat="47.18395" lon="-1.75358">
        <ele>14.67</ele>
        <time>2020-06-03T15:18:29Z</time>
      </trkpt>
      <trkpt lat="47.18395" lon="-1.75372">
        <ele>14.09</ele>
        <time>2020-06-03T15:18:31Z</time>
      </trkpt>
      <trkpt lat="47.18395" lon="-1.7539">
        <ele>14.63</ele>
        <time>2020-06-03T15:18:33Z</time>
      </trkpt>
      <trkpt lat="47.18398" lon="-1.75406">
        <ele>14.2</ele>
        <time>2020-06-03T15:18:35Z</time>
      </trkpt>
      <trkpt lat="47.18401" lon="-1.75423">
        <ele>14.83</ele>
        <time>2020-06-03T15:18:37Z</time>
      </trkpt>
      <trkpt lat="47.184" lon="-1.75441">
        <ele>15.08</ele>
        <time>2020-06-03T15:18:39Z</time>
      </trkpt>
      <trkpt lat="47.18399" lon="-1.75456">
        <ele>14.69</ele>
        <time>2020-06-03T15:18:41Z</time>
      </trkpt>
      <trkpt lat="47.18397" lon="-1.75472">
        <ele>14.27</ele>
        <time>2020-06-03T15:18:43Z</time>
      </trkpt>
      <trkpt lat="47.18398" lon="-1.75488">
        <ele>15.57</ele>
        <time>2020-06-03T15:18:45Z</time>
      </trkpt>
      <trkpt lat="47.18398" lon="-1.75503">
        <ele>16.8</ele>
        <time>2020-06-03T15:18:47Z</time>
      </trkpt>
      <trkpt lat="47.18399" lon="-1.75519">
        <ele>17.16</ele>
        <time>2020-06-03T15:18:49Z</time>
      </trkpt>
      <trkpt lat="47.184" lon="-1.7554">
        <ele>18.86</ele>
        <time>2020-06-03T15:18:52Z</time>
      </trkpt>
      <trkpt lat="47.18402" lon="-1.75558">
        <ele>19.43</ele>
        <time>2020-06-03T15:18:54Z</time>
      </trkpt>
      <trkpt lat="47.18403" lon="-1.75575">
        <ele>20.45</ele>
        <time>2020-06-03T15:18:56Z</time>
      </trkpt>
      <trkpt lat="47.18403" lon="-1.75594">
        <ele>21.32</ele>
        <time>2020-06-03T15:18:59Z</time>
      </trkpt>
      <trkpt lat="47.18405" lon="-1.75611">
        <ele>21.16</ele>
        <time>2020-06-03T15:19:01Z</time>
      </trkpt>
      <trkpt lat="47.18406" lon="-1.75628">
        <ele>20.93</ele>
        <time>2020-06-03T15:19:03Z</time>
      </trkpt>
      <trkpt lat="47.18406" lon="-1.75642">
        <ele>21.61</ele>
        <time>2020-06-03T15:19:05Z</time>
      </trkpt>
      <trkpt lat="47.18407" lon="-1.75662">
        <ele>21.59</ele>
        <time>2020-06-03T15:19:08Z</time>
      </trkpt>
      <trkpt lat="47.18408" lon="-1.75675">
        <ele>21.67</ele>
        <time>2020-06-03T15:19:10Z</time>
      </trkpt>
      <trkpt lat="47.18408" lon="-1.75691">
        <ele>21.08</ele>
        <time>2020-06-03T15:19:12Z</time>
      </trkpt>
      <trkpt lat="47.18408" lon="-1.75707">
        <ele>20.45</ele>
        <time>2020-06-03T15:19:14Z</time>
      </trkpt>
      <trkpt lat="47.18408" lon="-1.75723">
        <ele>20.59</ele>
        <time>2020-06-03T15:19:16Z</time>
      </trkpt>
      <trkpt lat="47.18408" lon="-1.75737">
        <ele>19.98</ele>
        <time>2020-06-03T15:19:18Z</time>
      </trkpt>
      <trkpt lat="47.18406" lon="-1.75759">
        <ele>18.74</ele>
        <time>2020-06-03T15:19:21Z</time>
      </trkpt>
      <trkpt lat="47.18405" lon="-1.75773">
        <ele>18.41</ele>
        <time>2020-06-03T15:19:23Z</time>
      </trkpt>
      <trkpt lat="47.18403" lon="-1.75788">
        <ele>17.82</ele>
        <time>2020-06-03T15:19:25Z</time>
      </trkpt>
      <trkpt lat="47.18402" lon="-1.75803">
        <ele>17.17</ele>
        <time>2020-06-03T15:19:27Z</time>
      </trkpt>
      <trkpt lat="47.184" lon="-1.7582">
        <ele>16.68</ele>
        <time>2020-06-03T15:19:29Z</time>
      </trkpt>
      <trkpt lat="47.18399" lon="-1.75839">
        <ele>15.84</ele>
        <time>2020-06-03T15:19:31Z</time>
      </trkpt>
      <trkpt lat="47.18397" lon="-1.75854">
        <ele>15.69</ele>
        <time>2020-06-03T15:19:33Z</time>
      </trkpt>
      <trkpt lat="47.18395" lon="-1.75872">
        <ele>16.49</ele>
        <time>2020-06-03T15:19:35Z</time>
      </trkpt>
      <trkpt lat="47.18393" lon="-1.75888">
        <ele>17.45</ele>
        <time>2020-06-03T15:19:37Z</time>
      </trkpt>
      <trkpt lat="47.18391" lon="-1.75904">
        <ele>16.28</ele>
        <time>2020-06-03T15:19:39Z</time>
      </trkpt>
      <trkpt lat="47.1839" lon="-1.7592">
        <ele>15.45</ele>
        <time>2020-06-03T15:19:41Z</time>
      </trkpt>
      <trkpt lat="47.18388" lon="-1.75936">
        <ele>13.99</ele>
        <time>2020-06-03T15:19:43Z</time>
      </trkpt>
      <trkpt lat="47.18385" lon="-1.75954">
        <ele>13.94</ele>
        <time>2020-06-03T15:19:45Z</time>
      </trkpt>
      <trkpt lat="47.18383" lon="-1.75969">
        <ele>13.57</ele>
        <time>2020-06-03T15:19:47Z</time>
      </trkpt>
      <trkpt lat="47.1838" lon="-1.75989">
        <ele>13.51</ele>
        <time>2020-06-03T15:19:49Z</time>
      </trkpt>
      <trkpt lat="47.18378" lon="-1.76008">
        <ele>13.36</ele>
        <time>2020-06-03T15:19:51Z</time>
      </trkpt>
      <trkpt lat="47.18376" lon="-1.76028">
        <ele>13.27</ele>
        <time>2020-06-03T15:19:53Z</time>
      </trkpt>
      <trkpt lat="47.18373" lon="-1.76047">
        <ele>12.77</ele>
        <time>2020-06-03T15:19:55Z</time>
      </trkpt>
      <trkpt lat="47.1837" lon="-1.76066">
        <ele>13.37</ele>
        <time>2020-06-03T15:19:57Z</time>
      </trkpt>
      <trkpt lat="47.18368" lon="-1.76086">
        <ele>14.04</ele>
        <time>2020-06-03T15:19:59Z</time>
      </trkpt>
      <trkpt lat="47.18366" lon="-1.76103">
        <ele>13.78</ele>
        <time>2020-06-03T15:20:01Z</time>
      </trkpt>
      <trkpt lat="47.18364" lon="-1.76122">
        <ele>12.7</ele>
        <time>2020-06-03T15:20:03Z</time>
      </trkpt>
      <trkpt lat="47.18362" lon="-1.76141">
        <ele>12.62</ele>
        <time>2020-06-03T15:20:05Z</time>
      </trkpt>
      <trkpt lat="47.1836" lon="-1.7616">
        <ele>12.81</ele>
        <time>2020-06-03T15:20:07Z</time>
      </trkpt>
      <trkpt lat="47.18358" lon="-1.7618">
        <ele>12.46</ele>
        <time>2020-06-03T15:20:09Z</time>
      </trkpt>
      <trkpt lat="47.18356" lon="-1.76199">
        <ele>12.42</ele>
        <time>2020-06-03T15:20:11Z</time>
      </trkpt>
      <trkpt lat="47.18353" lon="-1.7622">
        <ele>12.53</ele>
        <time>2020-06-03T15:20:13Z</time>
      </trkpt>
      <trkpt lat="47.18351" lon="-1.76241">
        <ele>12.51</ele>
        <time>2020-06-03T15:20:15Z</time>
      </trkpt>
      <trkpt lat="47.18348" lon="-1.7626">
        <ele>12.62</ele>
        <time>2020-06-03T15:20:17Z</time>
      </trkpt>
      <trkpt lat="47.18346" lon="-1.7628">
        <ele>12.55</ele>
        <time>2020-06-03T15:20:19Z</time>
      </trkpt>
      <trkpt lat="47.18344" lon="-1.763">
        <ele>12.37</ele>
        <time>2020-06-03T15:20:21Z</time>
      </trkpt>
      <trkpt lat="47.18343" lon="-1.76318">
        <ele>12.46</ele>
        <time>2020-06-03T15:20:23Z</time>
      </trkpt>
      <trkpt lat="47.18342" lon="-1.76335">
        <ele>11.89</ele>
        <time>2020-06-03T15:20:25Z</time>
      </trkpt>
      <trkpt lat="47.18341" lon="-1.76353">
        <ele>11.54</ele>
        <time>2020-06-03T15:20:27Z</time>
      </trkpt>
      <trkpt lat="47.1834" lon="-1.76367">
        <ele>11.28</ele>
        <time>2020-06-03T15:20:29Z</time>
      </trkpt>
      <trkpt lat="47.1834" lon="-1.76385">
        <ele>11.88</ele>
        <time>2020-06-03T15:20:31Z</time>
      </trkpt>
      <trkpt lat="47.18339" lon="-1.76404">
        <ele>12.35</ele>
        <time>2020-06-03T15:20:33Z</time>
      </trkpt>
      <trkpt lat="47.18338" lon="-1.7642">
        <ele>12.74</ele>
        <time>2020-06-03T15:20:35Z</time>
      </trkpt>
      <trkpt lat="47.18336" lon="-1.76435">
        <ele>12.26</ele>
        <time>2020-06-03T15:20:37Z</time>
      </trkpt>
      <trkpt lat="47.18335" lon="-1.76453">
        <ele>12.2</ele>
        <time>2020-06-03T15:20:39Z</time>
      </trkpt>
      <trkpt lat="47.18335" lon="-1.7647">
        <ele>12.93</ele>
        <time>2020-06-03T15:20:41Z</time>
      </trkpt>
      <trkpt lat="47.18334" lon="-1.76489">
        <ele>13.35</ele>
        <time>2020-06-03T15:20:44Z</time>
      </trkpt>
      <trkpt lat="47.18334" lon="-1.76504">
        <ele>12.62</ele>
        <time>2020-06-03T15:20:46Z</time>
      </trkpt>
      <trkpt lat="47.18333" lon="-1.76524">
        <ele>12.64</ele>
        <time>2020-06-03T15:20:48Z</time>
      </trkpt>
      <trkpt lat="47.18333" lon="-1.76537">
        <ele>12.28</ele>
        <time>2020-06-03T15:20:50Z</time>
      </trkpt>
      <trkpt lat="47.18333" lon="-1.76554">
        <ele>10.6</ele>
        <time>2020-06-03T15:20:52Z</time>
      </trkpt>
      <trkpt lat="47.18333" lon="-1.76567">
        <ele>10</ele>
        <time>2020-06-03T15:20:54Z</time>
      </trkpt>
      <trkpt lat="47.18333" lon="-1.76589">
        <ele>9.9</ele>
        <time>2020-06-03T15:20:57Z</time>
      </trkpt>
      <trkpt lat="47.18334" lon="-1.76606">
        <ele>9.9</ele>
        <time>2020-06-03T15:20:59Z</time>
      </trkpt>
      <trkpt lat="47.18336" lon="-1.76622">
        <ele>10.83</ele>
        <time>2020-06-03T15:21:01Z</time>
      </trkpt>
      <trkpt lat="47.18337" lon="-1.76639">
        <ele>11.23</ele>
        <time>2020-06-03T15:21:03Z</time>
      </trkpt>
      <trkpt lat="47.18339" lon="-1.76653">
        <ele>11.24</ele>
        <time>2020-06-03T15:21:05Z</time>
      </trkpt>
      <trkpt lat="47.18342" lon="-1.76672">
        <ele>11.4</ele>
        <time>2020-06-03T15:21:08Z</time>
      </trkpt>
      <trkpt lat="47.18344" lon="-1.76689">
        <ele>11.03</ele>
        <time>2020-06-03T15:21:11Z</time>
      </trkpt>
      <trkpt lat="47.18346" lon="-1.76706">
        <ele>12.23</ele>
        <time>2020-06-03T15:21:13Z</time>
      </trkpt>
      <trkpt lat="47.18348" lon="-1.76721">
        <ele>12.98</ele>
        <time>2020-06-03T15:21:15Z</time>
      </trkpt>
      <trkpt lat="47.18348" lon="-1.76737">
        <ele>14.11</ele>
        <time>2020-06-03T15:21:17Z</time>
      </trkpt>
      <trkpt lat="47.1835" lon="-1.76752">
        <ele>15.99</ele>
        <time>2020-06-03T15:21:19Z</time>
      </trkpt>
      <trkpt lat="47.18352" lon="-1.76766">
        <ele>16.64</ele>
        <time>2020-06-03T15:21:21Z</time>
      </trkpt>
      <trkpt lat="47.18354" lon="-1.7678">
        <ele>16.56</ele>
        <time>2020-06-03T15:21:23Z</time>
      </trkpt>
      <trkpt lat="47.18357" lon="-1.76796">
        <ele>15.68</ele>
        <time>2020-06-03T15:21:25Z</time>
      </trkpt>
      <trkpt lat="47.18359" lon="-1.76814">
        <ele>16.17</ele>
        <time>2020-06-03T15:21:28Z</time>
      </trkpt>
      <trkpt lat="47.1836" lon="-1.76827">
        <ele>16.37</ele>
        <time>2020-06-03T15:21:30Z</time>
      </trkpt>
      <trkpt lat="47.18362" lon="-1.76841">
        <ele>16.58</ele>
        <time>2020-06-03T15:21:32Z</time>
      </trkpt>
      <trkpt lat="47.18364" lon="-1.76854">
        <ele>16.85</ele>
        <time>2020-06-03T15:21:34Z</time>
      </trkpt>
      <trkpt lat="47.18365" lon="-1.76869">
        <ele>17.07</ele>
        <time>2020-06-03T15:21:36Z</time>
      </trkpt>
      <trkpt lat="47.18367" lon="-1.76889">
        <ele>17.6</ele>
        <time>2020-06-03T15:21:39Z</time>
      </trkpt>
      <trkpt lat="47.18368" lon="-1.76905">
        <ele>17.78</ele>
        <time>2020-06-03T15:21:41Z</time>
      </trkpt>
      <trkpt lat="47.1837" lon="-1.76925">
        <ele>15.97</ele>
        <time>2020-06-03T15:21:44Z</time>
      </trkpt>
      <trkpt lat="47.18372" lon="-1.76939">
        <ele>14.58</ele>
        <time>2020-06-03T15:21:46Z</time>
      </trkpt>
      <trkpt lat="47.18373" lon="-1.76953">
        <ele>12.95</ele>
        <time>2020-06-03T15:21:48Z</time>
      </trkpt>
      <trkpt lat="47.18376" lon="-1.76967">
        <ele>12.72</ele>
        <time>2020-06-03T15:21:50Z</time>
      </trkpt>
      <trkpt lat="47.18377" lon="-1.7699">
        <ele>13.59</ele>
        <time>2020-06-03T15:21:53Z</time>
      </trkpt>
      <trkpt lat="47.18378" lon="-1.77009">
        <ele>14.5</ele>
        <time>2020-06-03T15:21:56Z</time>
      </trkpt>
      <trkpt lat="47.18378" lon="-1.77024">
        <ele>13.61</ele>
        <time>2020-06-03T15:21:58Z</time>
      </trkpt>
      <trkpt lat="47.18378" lon="-1.7704">
        <ele>15.07</ele>
        <time>2020-06-03T15:22:00Z</time>
      </trkpt>
      <trkpt lat="47.18378" lon="-1.77054">
        <ele>16.34</ele>
        <time>2020-06-03T15:22:02Z</time>
      </trkpt>
      <trkpt lat="47.18377" lon="-1.77068">
        <ele>18.48</ele>
        <time>2020-06-03T15:22:04Z</time>
      </trkpt>
      <trkpt lat="47.18376" lon="-1.77082">
        <ele>19.49</ele>
        <time>2020-06-03T15:22:06Z</time>
      </trkpt>
      <trkpt lat="47.18375" lon="-1.77096">
        <ele>20.47</ele>
        <time>2020-06-03T15:22:08Z</time>
      </trkpt>
      <trkpt lat="47.18373" lon="-1.7711">
        <ele>21.81</ele>
        <time>2020-06-03T15:22:10Z</time>
      </trkpt>
      <trkpt lat="47.18371" lon="-1.77124">
        <ele>23.2</ele>
        <time>2020-06-03T15:22:12Z</time>
      </trkpt>
      <trkpt lat="47.18369" lon="-1.7714">
        <ele>24.68</ele>
        <time>2020-06-03T15:22:14Z</time>
      </trkpt>
      <trkpt lat="47.18367" lon="-1.77153">
        <ele>24.73</ele>
        <time>2020-06-03T15:22:16Z</time>
      </trkpt>
      <trkpt lat="47.18365" lon="-1.77169">
        <ele>26.21</ele>
        <time>2020-06-03T15:22:18Z</time>
      </trkpt>
      <trkpt lat="47.18363" lon="-1.77184">
        <ele>27.17</ele>
        <time>2020-06-03T15:22:20Z</time>
      </trkpt>
      <trkpt lat="47.18361" lon="-1.77197">
        <ele>26.09</ele>
        <time>2020-06-03T15:22:22Z</time>
      </trkpt>
      <trkpt lat="47.1836" lon="-1.77216">
        <ele>25.19</ele>
        <time>2020-06-03T15:22:24Z</time>
      </trkpt>
      <trkpt lat="47.18359" lon="-1.77232">
        <ele>24.98</ele>
        <time>2020-06-03T15:22:26Z</time>
      </trkpt>
      <trkpt lat="47.18359" lon="-1.77248">
        <ele>25.17</ele>
        <time>2020-06-03T15:22:28Z</time>
      </trkpt>
      <trkpt lat="47.18359" lon="-1.77264">
        <ele>24.59</ele>
        <time>2020-06-03T15:22:30Z</time>
      </trkpt>
      <trkpt lat="47.1836" lon="-1.77277">
        <ele>24.4</ele>
        <time>2020-06-03T15:22:32Z</time>
      </trkpt>
      <trkpt lat="47.18361" lon="-1.77293">
        <ele>24.53</ele>
        <time>2020-06-03T15:22:34Z</time>
      </trkpt>
      <trkpt lat="47.18362" lon="-1.7731">
        <ele>23.86</ele>
        <time>2020-06-03T15:22:36Z</time>
      </trkpt>
      <trkpt lat="47.18363" lon="-1.77324">
        <ele>22.73</ele>
        <time>2020-06-03T15:22:38Z</time>
      </trkpt>
      <trkpt lat="47.18365" lon="-1.77339">
        <ele>22.32</ele>
        <time>2020-06-03T15:22:40Z</time>
      </trkpt>
      <trkpt lat="47.18366" lon="-1.77355">
        <ele>22.45</ele>
        <time>2020-06-03T15:22:42Z</time>
      </trkpt>
      <trkpt lat="47.18367" lon="-1.77376">
        <ele>22.78</ele>
        <time>2020-06-03T15:22:45Z</time>
      </trkpt>
      <trkpt lat="47.18367" lon="-1.7739">
        <ele>21.96</ele>
        <time>2020-06-03T15:22:47Z</time>
      </trkpt>
      <trkpt lat="47.18368" lon="-1.77407">
        <ele>21.35</ele>
        <time>2020-06-03T15:22:49Z</time>
      </trkpt>
      <trkpt lat="47.18369" lon="-1.77425">
        <ele>20.98</ele>
        <time>2020-06-03T15:22:51Z</time>
      </trkpt>
      <trkpt lat="47.18369" lon="-1.77444">
        <ele>20</ele>
        <time>2020-06-03T15:22:53Z</time>
      </trkpt>
      <trkpt lat="47.1837" lon="-1.77459">
        <ele>20.23</ele>
        <time>2020-06-03T15:22:55Z</time>
      </trkpt>
      <trkpt lat="47.18371" lon="-1.77473">
        <ele>22.1</ele>
        <time>2020-06-03T15:22:57Z</time>
      </trkpt>
      <trkpt lat="47.18372" lon="-1.77489">
        <ele>22.32</ele>
        <time>2020-06-03T15:22:59Z</time>
      </trkpt>
      <trkpt lat="47.18372" lon="-1.77508">
        <ele>21.49</ele>
        <time>2020-06-03T15:23:02Z</time>
      </trkpt>
      <trkpt lat="47.18371" lon="-1.77523">
        <ele>21.96</ele>
        <time>2020-06-03T15:23:04Z</time>
      </trkpt>
      <trkpt lat="47.1837" lon="-1.77539">
        <ele>23.09</ele>
        <time>2020-06-03T15:23:06Z</time>
      </trkpt>
      <trkpt lat="47.18367" lon="-1.77557">
        <ele>22.12</ele>
        <time>2020-06-03T15:23:09Z</time>
      </trkpt>
      <trkpt lat="47.18364" lon="-1.77572">
        <ele>22.29</ele>
        <time>2020-06-03T15:23:11Z</time>
      </trkpt>
      <trkpt lat="47.18361" lon="-1.77587">
        <ele>22.84</ele>
        <time>2020-06-03T15:23:13Z</time>
      </trkpt>
      <trkpt lat="47.18357" lon="-1.77599">
        <ele>22.61</ele>
        <time>2020-06-03T15:23:15Z</time>
      </trkpt>
      <trkpt lat="47.18352" lon="-1.77617">
        <ele>22.92</ele>
        <time>2020-06-03T15:23:17Z</time>
      </trkpt>
      <trkpt lat="47.18348" lon="-1.77632">
        <ele>22.56</ele>
        <time>2020-06-03T15:23:19Z</time>
      </trkpt>
      <trkpt lat="47.18343" lon="-1.77645">
        <ele>22.14</ele>
        <time>2020-06-03T15:23:21Z</time>
      </trkpt>
      <trkpt lat="47.18338" lon="-1.7766">
        <ele>21.65</ele>
        <time>2020-06-03T15:23:23Z</time>
      </trkpt>
      <trkpt lat="47.18333" lon="-1.77672">
        <ele>20.78</ele>
        <time>2020-06-03T15:23:25Z</time>
      </trkpt>
      <trkpt lat="47.18328" lon="-1.77687">
        <ele>20.43</ele>
        <time>2020-06-03T15:23:27Z</time>
      </trkpt>
      <trkpt lat="47.18324" lon="-1.777">
        <ele>19.99</ele>
        <time>2020-06-03T15:23:28Z</time>
      </trkpt>
      <trkpt lat="47.18319" lon="-1.77716">
        <ele>20.46</ele>
        <time>2020-06-03T15:23:30Z</time>
      </trkpt>
      <trkpt lat="47.18314" lon="-1.7773">
        <ele>19.53</ele>
        <time>2020-06-03T15:23:32Z</time>
      </trkpt>
      <trkpt lat="47.18309" lon="-1.77743">
        <ele>20.28</ele>
        <time>2020-06-03T15:23:34Z</time>
      </trkpt>
      <trkpt lat="47.18305" lon="-1.77756">
        <ele>20.75</ele>
        <time>2020-06-03T15:23:36Z</time>
      </trkpt>
      <trkpt lat="47.18299" lon="-1.77772">
        <ele>21.27</ele>
        <time>2020-06-03T15:23:38Z</time>
      </trkpt>
      <trkpt lat="47.18294" lon="-1.77787">
        <ele>22.1</ele>
        <time>2020-06-03T15:23:40Z</time>
      </trkpt>
      <trkpt lat="47.1829" lon="-1.77802">
        <ele>22.61</ele>
        <time>2020-06-03T15:23:42Z</time>
      </trkpt>
      <trkpt lat="47.18286" lon="-1.77815">
        <ele>22.88</ele>
        <time>2020-06-03T15:23:44Z</time>
      </trkpt>
      <trkpt lat="47.18282" lon="-1.7783">
        <ele>22.9</ele>
        <time>2020-06-03T15:23:46Z</time>
      </trkpt>
      <trkpt lat="47.18278" lon="-1.77842">
        <ele>22.8</ele>
        <time>2020-06-03T15:23:48Z</time>
      </trkpt>
      <trkpt lat="47.18274" lon="-1.77856">
        <ele>22.65</ele>
        <time>2020-06-03T15:23:50Z</time>
      </trkpt>
      <trkpt lat="47.18273" lon="-1.77869">
        <ele>22.45</ele>
        <time>2020-06-03T15:23:52Z</time>
      </trkpt>
      <trkpt lat="47.18279" lon="-1.77879">
        <ele>23.29</ele>
        <time>2020-06-03T15:23:54Z</time>
      </trkpt>
      <trkpt lat="47.18289" lon="-1.77887">
        <ele>24.25</ele>
        <time>2020-06-03T15:23:56Z</time>
      </trkpt>
      <trkpt lat="47.18298" lon="-1.77895">
        <ele>25.12</ele>
        <time>2020-06-03T15:23:58Z</time>
      </trkpt>
      <trkpt lat="47.18308" lon="-1.77902">
        <ele>25.4</ele>
        <time>2020-06-03T15:24:00Z</time>
      </trkpt>
      <trkpt lat="47.18319" lon="-1.77906">
        <ele>24.21</ele>
        <time>2020-06-03T15:24:02Z</time>
      </trkpt>
      <trkpt lat="47.18329" lon="-1.77905">
        <ele>24.69</ele>
        <time>2020-06-03T15:24:04Z</time>
      </trkpt>
      <trkpt lat="47.1834" lon="-1.77906">
        <ele>25.63</ele>
        <time>2020-06-03T15:24:06Z</time>
      </trkpt>
      <trkpt lat="47.18352" lon="-1.77905">
        <ele>24.91</ele>
        <time>2020-06-03T15:24:08Z</time>
      </trkpt>
      <trkpt lat="47.18362" lon="-1.77904">
        <ele>25.61</ele>
        <time>2020-06-03T15:24:10Z</time>
      </trkpt>
      <trkpt lat="47.18372" lon="-1.77903">
        <ele>25.81</ele>
        <time>2020-06-03T15:24:12Z</time>
      </trkpt>
      <trkpt lat="47.18384" lon="-1.77904">
        <ele>25.91</ele>
        <time>2020-06-03T15:24:14Z</time>
      </trkpt>
      <trkpt lat="47.18394" lon="-1.77903">
        <ele>26.41</ele>
        <time>2020-06-03T15:24:16Z</time>
      </trkpt>
      <trkpt lat="47.18403" lon="-1.77901">
        <ele>26.94</ele>
        <time>2020-06-03T15:24:18Z</time>
      </trkpt>
      <trkpt lat="47.18412" lon="-1.77901">
        <ele>28.04</ele>
        <time>2020-06-03T15:24:20Z</time>
      </trkpt>
      <trkpt lat="47.18427" lon="-1.779">
        <ele>30.57</ele>
        <time>2020-06-03T15:24:23Z</time>
      </trkpt>
      <trkpt lat="47.18437" lon="-1.77899">
        <ele>31.74</ele>
        <time>2020-06-03T15:24:25Z</time>
      </trkpt>
      <trkpt lat="47.18447" lon="-1.77898">
        <ele>31.9</ele>
        <time>2020-06-03T15:24:27Z</time>
      </trkpt>
      <trkpt lat="47.18456" lon="-1.77899">
        <ele>31.12</ele>
        <time>2020-06-03T15:24:29Z</time>
      </trkpt>
      <trkpt lat="47.18468" lon="-1.77899">
        <ele>30.71</ele>
        <time>2020-06-03T15:24:31Z</time>
      </trkpt>
      <trkpt lat="47.1848" lon="-1.77898">
        <ele>30.93</ele>
        <time>2020-06-03T15:24:33Z</time>
      </trkpt>
      <trkpt lat="47.18491" lon="-1.77896">
        <ele>30.7</ele>
        <time>2020-06-03T15:24:35Z</time>
      </trkpt>
      <trkpt lat="47.18503" lon="-1.77894">
        <ele>29.7</ele>
        <time>2020-06-03T15:24:37Z</time>
      </trkpt>
      <trkpt lat="47.18514" lon="-1.77887">
        <ele>29.55</ele>
        <time>2020-06-03T15:24:39Z</time>
      </trkpt>
      <trkpt lat="47.18526" lon="-1.7788">
        <ele>29.25</ele>
        <time>2020-06-03T15:24:41Z</time>
      </trkpt>
      <trkpt lat="47.18538" lon="-1.77882">
        <ele>28.56</ele>
        <time>2020-06-03T15:24:43Z</time>
      </trkpt>
      <trkpt lat="47.18545" lon="-1.77895">
        <ele>29.13</ele>
        <time>2020-06-03T15:24:45Z</time>
      </trkpt>
      <trkpt lat="47.18549" lon="-1.77913">
        <ele>29.32</ele>
        <time>2020-06-03T15:24:47Z</time>
      </trkpt>
      <trkpt lat="47.18554" lon="-1.77926">
        <ele>29.15</ele>
        <time>2020-06-03T15:24:49Z</time>
      </trkpt>
      <trkpt lat="47.18561" lon="-1.7794">
        <ele>28.89</ele>
        <time>2020-06-03T15:24:51Z</time>
      </trkpt>
      <trkpt lat="47.18563" lon="-1.77958">
        <ele>28.26</ele>
        <time>2020-06-03T15:24:53Z</time>
      </trkpt>
      <trkpt lat="47.18558" lon="-1.77975">
        <ele>27.73</ele>
        <time>2020-06-03T15:24:55Z</time>
      </trkpt>
      <trkpt lat="47.1855" lon="-1.7799">
        <ele>26.75</ele>
        <time>2020-06-03T15:24:57Z</time>
      </trkpt>
      <trkpt lat="47.18542" lon="-1.78003">
        <ele>25.78</ele>
        <time>2020-06-03T15:24:59Z</time>
      </trkpt>
      <trkpt lat="47.18534" lon="-1.78017">
        <ele>25.53</ele>
        <time>2020-06-03T15:25:01Z</time>
      </trkpt>
      <trkpt lat="47.1853" lon="-1.78035">
        <ele>24.79</ele>
        <time>2020-06-03T15:25:03Z</time>
      </trkpt>
      <trkpt lat="47.18527" lon="-1.78054">
        <ele>24.69</ele>
        <time>2020-06-03T15:25:05Z</time>
      </trkpt>
      <trkpt lat="47.18523" lon="-1.78075">
        <ele>24.82</ele>
        <time>2020-06-03T15:25:07Z</time>
      </trkpt>
      <trkpt lat="47.1852" lon="-1.78093">
        <ele>24.67</ele>
        <time>2020-06-03T15:25:09Z</time>
      </trkpt>
      <trkpt lat="47.18518" lon="-1.78111">
        <ele>24.03</ele>
        <time>2020-06-03T15:25:11Z</time>
      </trkpt>
      <trkpt lat="47.18516" lon="-1.7813">
        <ele>24.45</ele>
        <time>2020-06-03T15:25:13Z</time>
      </trkpt>
      <trkpt lat="47.18514" lon="-1.78147">
        <ele>25.23</ele>
        <time>2020-06-03T15:25:15Z</time>
      </trkpt>
      <trkpt lat="47.18512" lon="-1.78165">
        <ele>25.33</ele>
        <time>2020-06-03T15:25:17Z</time>
      </trkpt>
      <trkpt lat="47.18511" lon="-1.78185">
        <ele>25.16</ele>
        <time>2020-06-03T15:25:19Z</time>
      </trkpt>
      <trkpt lat="47.18511" lon="-1.78204">
        <ele>25.73</ele>
        <time>2020-06-03T15:25:21Z</time>
      </trkpt>
      <trkpt lat="47.18512" lon="-1.78223">
        <ele>25.22</ele>
        <time>2020-06-03T15:25:23Z</time>
      </trkpt>
      <trkpt lat="47.18513" lon="-1.78242">
        <ele>25.77</ele>
        <time>2020-06-03T15:25:25Z</time>
      </trkpt>
      <trkpt lat="47.18514" lon="-1.78261">
        <ele>25.19</ele>
        <time>2020-06-03T15:25:27Z</time>
      </trkpt>
      <trkpt lat="47.18516" lon="-1.78278">
        <ele>24.88</ele>
        <time>2020-06-03T15:25:29Z</time>
      </trkpt>
      <trkpt lat="47.18518" lon="-1.78297">
        <ele>24.54</ele>
        <time>2020-06-03T15:25:31Z</time>
      </trkpt>
      <trkpt lat="47.1852" lon="-1.78317">
        <ele>24.4</ele>
        <time>2020-06-03T15:25:33Z</time>
      </trkpt>
      <trkpt lat="47.18523" lon="-1.78338">
        <ele>24.23</ele>
        <time>2020-06-03T15:25:35Z</time>
      </trkpt>
      <trkpt lat="47.18525" lon="-1.78355">
        <ele>24.75</ele>
        <time>2020-06-03T15:25:37Z</time>
      </trkpt>
      <trkpt lat="47.18527" lon="-1.78372">
        <ele>24.71</ele>
        <time>2020-06-03T15:25:39Z</time>
      </trkpt>
      <trkpt lat="47.1853" lon="-1.78391">
        <ele>23.75</ele>
        <time>2020-06-03T15:25:41Z</time>
      </trkpt>
      <trkpt lat="47.18533" lon="-1.78411">
        <ele>22.32</ele>
        <time>2020-06-03T15:25:43Z</time>
      </trkpt>
      <trkpt lat="47.18535" lon="-1.78429">
        <ele>20.71</ele>
        <time>2020-06-03T15:25:45Z</time>
      </trkpt>
      <trkpt lat="47.18537" lon="-1.78448">
        <ele>19.75</ele>
        <time>2020-06-03T15:25:47Z</time>
      </trkpt>
      <trkpt lat="47.18539" lon="-1.78467">
        <ele>20.04</ele>
        <time>2020-06-03T15:25:49Z</time>
      </trkpt>
      <trkpt lat="47.18541" lon="-1.78486">
        <ele>19.78</ele>
        <time>2020-06-03T15:25:51Z</time>
      </trkpt>
      <trkpt lat="47.18543" lon="-1.78504">
        <ele>20.3</ele>
        <time>2020-06-03T15:25:53Z</time>
      </trkpt>
      <trkpt lat="47.18545" lon="-1.78522">
        <ele>21.09</ele>
        <time>2020-06-03T15:25:55Z</time>
      </trkpt>
      <trkpt lat="47.18548" lon="-1.78538">
        <ele>21.27</ele>
        <time>2020-06-03T15:25:57Z</time>
      </trkpt>
      <trkpt lat="47.18552" lon="-1.78553">
        <ele>20.24</ele>
        <time>2020-06-03T15:25:59Z</time>
      </trkpt>
      <trkpt lat="47.18557" lon="-1.7857">
        <ele>19.78</ele>
        <time>2020-06-03T15:26:01Z</time>
      </trkpt>
      <trkpt lat="47.18563" lon="-1.78586">
        <ele>19.28</ele>
        <time>2020-06-03T15:26:03Z</time>
      </trkpt>
      <trkpt lat="47.18569" lon="-1.78603">
        <ele>18.66</ele>
        <time>2020-06-03T15:26:05Z</time>
      </trkpt>
      <trkpt lat="47.18577" lon="-1.78621">
        <ele>17.96</ele>
        <time>2020-06-03T15:26:08Z</time>
      </trkpt>
      <trkpt lat="47.18583" lon="-1.78635">
        <ele>17.85</ele>
        <time>2020-06-03T15:26:10Z</time>
      </trkpt>
      <trkpt lat="47.18589" lon="-1.78649">
        <ele>18.17</ele>
        <time>2020-06-03T15:26:12Z</time>
      </trkpt>
      <trkpt lat="47.18594" lon="-1.78664">
        <ele>17.9</ele>
        <time>2020-06-03T15:26:14Z</time>
      </trkpt>
      <trkpt lat="47.18599" lon="-1.78677">
        <ele>17.21</ele>
        <time>2020-06-03T15:26:16Z</time>
      </trkpt>
      <trkpt lat="47.18604" lon="-1.78696">
        <ele>19.39</ele>
        <time>2020-06-03T15:26:19Z</time>
      </trkpt>
      <trkpt lat="47.18608" lon="-1.78711">
        <ele>20.63</ele>
        <time>2020-06-03T15:26:21Z</time>
      </trkpt>
      <trkpt lat="47.18612" lon="-1.78726">
        <ele>21.24</ele>
        <time>2020-06-03T15:26:23Z</time>
      </trkpt>
      <trkpt lat="47.18615" lon="-1.78738">
        <ele>20.68</ele>
        <time>2020-06-03T15:26:25Z</time>
      </trkpt>
      <trkpt lat="47.18618" lon="-1.78753">
        <ele>20.43</ele>
        <time>2020-06-03T15:26:27Z</time>
      </trkpt>
      <trkpt lat="47.18622" lon="-1.78772">
        <ele>20.32</ele>
        <time>2020-06-03T15:26:30Z</time>
      </trkpt>
      <trkpt lat="47.18624" lon="-1.78787">
        <ele>20.21</ele>
        <time>2020-06-03T15:26:32Z</time>
      </trkpt>
      <trkpt lat="47.18628" lon="-1.78802">
        <ele>20.11</ele>
        <time>2020-06-03T15:26:34Z</time>
      </trkpt>
      <trkpt lat="47.18633" lon="-1.7882">
        <ele>21.05</ele>
        <time>2020-06-03T15:26:37Z</time>
      </trkpt>
      <trkpt lat="47.18638" lon="-1.78832">
        <ele>21.31</ele>
        <time>2020-06-03T15:26:39Z</time>
      </trkpt>
      <trkpt lat="47.18646" lon="-1.78848">
        <ele>21.81</ele>
        <time>2020-06-03T15:26:41Z</time>
      </trkpt>
      <trkpt lat="47.18653" lon="-1.78856">
        <ele>22.11</ele>
        <time>2020-06-03T15:26:43Z</time>
      </trkpt>
      <trkpt lat="47.18662" lon="-1.78864">
        <ele>22.48</ele>
        <time>2020-06-03T15:26:45Z</time>
      </trkpt>
      <trkpt lat="47.18671" lon="-1.7887">
        <ele>22.71</ele>
        <time>2020-06-03T15:26:47Z</time>
      </trkpt>
      <trkpt lat="47.18682" lon="-1.78878">
        <ele>23.25</ele>
        <time>2020-06-03T15:26:49Z</time>
      </trkpt>
      <trkpt lat="47.18692" lon="-1.78884">
        <ele>23.31</ele>
        <time>2020-06-03T15:26:51Z</time>
      </trkpt>
      <trkpt lat="47.18701" lon="-1.78889">
        <ele>23.77</ele>
        <time>2020-06-03T15:26:53Z</time>
      </trkpt>
      <trkpt lat="47.1871" lon="-1.78892">
        <ele>24.22</ele>
        <time>2020-06-03T15:26:55Z</time>
      </trkpt>
      <trkpt lat="47.1872" lon="-1.78881">
        <ele>24.58</ele>
        <time>2020-06-03T15:26:57Z</time>
      </trkpt>
      <trkpt lat="47.18726" lon="-1.78864">
        <ele>23.76</ele>
        <time>2020-06-03T15:26:59Z</time>
      </trkpt>
      <trkpt lat="47.18731" lon="-1.7885">
        <ele>22.97</ele>
        <time>2020-06-03T15:27:01Z</time>
      </trkpt>
      <trkpt lat="47.18737" lon="-1.7883">
        <ele>22.32</ele>
        <time>2020-06-03T15:27:03Z</time>
      </trkpt>
      <trkpt lat="47.18743" lon="-1.78814">
        <ele>22.32</ele>
        <time>2020-06-03T15:27:05Z</time>
      </trkpt>
      <trkpt lat="47.18749" lon="-1.78798">
        <ele>22.06</ele>
        <time>2020-06-03T15:27:07Z</time>
      </trkpt>
      <trkpt lat="47.18755" lon="-1.7878">
        <ele>22.64</ele>
        <time>2020-06-03T15:27:09Z</time>
      </trkpt>
      <trkpt lat="47.1876" lon="-1.78765">
        <ele>22.58</ele>
        <time>2020-06-03T15:27:11Z</time>
      </trkpt>
      <trkpt lat="47.18767" lon="-1.78751">
        <ele>22.64</ele>
        <time>2020-06-03T15:27:13Z</time>
      </trkpt>
      <trkpt lat="47.18776" lon="-1.78735">
        <ele>22.81</ele>
        <time>2020-06-03T15:27:15Z</time>
      </trkpt>
      <trkpt lat="47.18787" lon="-1.78722">
        <ele>22.93</ele>
        <time>2020-06-03T15:27:17Z</time>
      </trkpt>
      <trkpt lat="47.18797" lon="-1.78712">
        <ele>22.07</ele>
        <time>2020-06-03T15:27:19Z</time>
      </trkpt>
      <trkpt lat="47.18809" lon="-1.78701">
        <ele>21.2</ele>
        <time>2020-06-03T15:27:21Z</time>
      </trkpt>
      <trkpt lat="47.18821" lon="-1.7869">
        <ele>20.9</ele>
        <time>2020-06-03T15:27:23Z</time>
      </trkpt>
      <trkpt lat="47.18834" lon="-1.78678">
        <ele>21.2</ele>
        <time>2020-06-03T15:27:25Z</time>
      </trkpt>
      <trkpt lat="47.18845" lon="-1.78666">
        <ele>21.08</ele>
        <time>2020-06-03T15:27:27Z</time>
      </trkpt>
      <trkpt lat="47.18855" lon="-1.78664">
        <ele>19.81</ele>
        <time>2020-06-03T15:27:29Z</time>
      </trkpt>
      <trkpt lat="47.1886" lon="-1.78675">
        <ele>18.95</ele>
        <time>2020-06-03T15:27:31Z</time>
      </trkpt>
      <trkpt lat="47.18866" lon="-1.78694">
        <ele>18.35</ele>
        <time>2020-06-03T15:27:33Z</time>
      </trkpt>
      <trkpt lat="47.18868" lon="-1.78714">
        <ele>18.68</ele>
        <time>2020-06-03T15:27:35Z</time>
      </trkpt>
      <trkpt lat="47.1887" lon="-1.78735">
        <ele>19.21</ele>
        <time>2020-06-03T15:27:37Z</time>
      </trkpt>
      <trkpt lat="47.18873" lon="-1.78756">
        <ele>19.57</ele>
        <time>2020-06-03T15:27:39Z</time>
      </trkpt>
      <trkpt lat="47.18875" lon="-1.78774">
        <ele>20.82</ele>
        <time>2020-06-03T15:27:41Z</time>
      </trkpt>
      <trkpt lat="47.18876" lon="-1.78795">
        <ele>21.28</ele>
        <time>2020-06-03T15:27:43Z</time>
      </trkpt>
      <trkpt lat="47.18878" lon="-1.78816">
        <ele>20.76</ele>
        <time>2020-06-03T15:27:45Z</time>
      </trkpt>
      <trkpt lat="47.1888" lon="-1.78835">
        <ele>20.9</ele>
        <time>2020-06-03T15:27:47Z</time>
      </trkpt>
      <trkpt lat="47.18883" lon="-1.78853">
        <ele>20.15</ele>
        <time>2020-06-03T15:27:49Z</time>
      </trkpt>
      <trkpt lat="47.18886" lon="-1.78874">
        <ele>19.35</ele>
        <time>2020-06-03T15:27:51Z</time>
      </trkpt>
      <trkpt lat="47.18888" lon="-1.78895">
        <ele>18.32</ele>
        <time>2020-06-03T15:27:53Z</time>
      </trkpt>
      <trkpt lat="47.18889" lon="-1.78914">
        <ele>16.94</ele>
        <time>2020-06-03T15:27:55Z</time>
      </trkpt>
      <trkpt lat="47.18891" lon="-1.78933">
        <ele>15.88</ele>
        <time>2020-06-03T15:27:57Z</time>
      </trkpt>
      <trkpt lat="47.18893" lon="-1.78949">
        <ele>17.03</ele>
        <time>2020-06-03T15:27:59Z</time>
      </trkpt>
      <trkpt lat="47.18894" lon="-1.78968">
        <ele>17.47</ele>
        <time>2020-06-03T15:28:01Z</time>
      </trkpt>
      <trkpt lat="47.18896" lon="-1.7899">
        <ele>17.33</ele>
        <time>2020-06-03T15:28:03Z</time>
      </trkpt>
      <trkpt lat="47.18897" lon="-1.79009">
        <ele>17.85</ele>
        <time>2020-06-03T15:28:05Z</time>
      </trkpt>
      <trkpt lat="47.18899" lon="-1.79026">
        <ele>17.75</ele>
        <time>2020-06-03T15:28:07Z</time>
      </trkpt>
      <trkpt lat="47.189" lon="-1.79048">
        <ele>17.14</ele>
        <time>2020-06-03T15:28:09Z</time>
      </trkpt>
      <trkpt lat="47.18902" lon="-1.79066">
        <ele>17.06</ele>
        <time>2020-06-03T15:28:11Z</time>
      </trkpt>
      <trkpt lat="47.18904" lon="-1.79084">
        <ele>15.81</ele>
        <time>2020-06-03T15:28:13Z</time>
      </trkpt>
      <trkpt lat="47.18906" lon="-1.79103">
        <ele>14.99</ele>
        <time>2020-06-03T15:28:15Z</time>
      </trkpt>
      <trkpt lat="47.18908" lon="-1.79123">
        <ele>14.66</ele>
        <time>2020-06-03T15:28:17Z</time>
      </trkpt>
      <trkpt lat="47.18909" lon="-1.79142">
        <ele>12.78</ele>
        <time>2020-06-03T15:28:19Z</time>
      </trkpt>
      <trkpt lat="47.18911" lon="-1.7916">
        <ele>12.21</ele>
        <time>2020-06-03T15:28:21Z</time>
      </trkpt>
      <trkpt lat="47.18914" lon="-1.79178">
        <ele>12.87</ele>
        <time>2020-06-03T15:28:23Z</time>
      </trkpt>
      <trkpt lat="47.18918" lon="-1.79196">
        <ele>12.39</ele>
        <time>2020-06-03T15:28:25Z</time>
      </trkpt>
      <trkpt lat="47.18922" lon="-1.79216">
        <ele>12.83</ele>
        <time>2020-06-03T15:28:27Z</time>
      </trkpt>
      <trkpt lat="47.18927" lon="-1.79238">
        <ele>12.77</ele>
        <time>2020-06-03T15:28:29Z</time>
      </trkpt>
      <trkpt lat="47.18931" lon="-1.79254">
        <ele>13.14</ele>
        <time>2020-06-03T15:28:31Z</time>
      </trkpt>
      <trkpt lat="47.18935" lon="-1.79271">
        <ele>13.01</ele>
        <time>2020-06-03T15:28:33Z</time>
      </trkpt>
      <trkpt lat="47.18939" lon="-1.79291">
        <ele>11.9</ele>
        <time>2020-06-03T15:28:35Z</time>
      </trkpt>
      <trkpt lat="47.18943" lon="-1.79311">
        <ele>11.17</ele>
        <time>2020-06-03T15:28:37Z</time>
      </trkpt>
      <trkpt lat="47.18946" lon="-1.79331">
        <ele>10.83</ele>
        <time>2020-06-03T15:28:39Z</time>
      </trkpt>
      <trkpt lat="47.18949" lon="-1.79351">
        <ele>10.95</ele>
        <time>2020-06-03T15:28:41Z</time>
      </trkpt>
      <trkpt lat="47.18953" lon="-1.79369">
        <ele>10.21</ele>
        <time>2020-06-03T15:28:43Z</time>
      </trkpt>
      <trkpt lat="47.18956" lon="-1.79387">
        <ele>10.62</ele>
        <time>2020-06-03T15:28:45Z</time>
      </trkpt>
      <trkpt lat="47.18959" lon="-1.79406">
        <ele>11.16</ele>
        <time>2020-06-03T15:28:47Z</time>
      </trkpt>
      <trkpt lat="47.18962" lon="-1.79423">
        <ele>11.68</ele>
        <time>2020-06-03T15:28:49Z</time>
      </trkpt>
      <trkpt lat="47.18965" lon="-1.79442">
        <ele>12.37</ele>
        <time>2020-06-03T15:28:51Z</time>
      </trkpt>
      <trkpt lat="47.18968" lon="-1.7946">
        <ele>11.76</ele>
        <time>2020-06-03T15:28:53Z</time>
      </trkpt>
      <trkpt lat="47.18971" lon="-1.79481">
        <ele>12.16</ele>
        <time>2020-06-03T15:28:55Z</time>
      </trkpt>
      <trkpt lat="47.18974" lon="-1.795">
        <ele>12.49</ele>
        <time>2020-06-03T15:28:57Z</time>
      </trkpt>
      <trkpt lat="47.18978" lon="-1.79519">
        <ele>12.59</ele>
        <time>2020-06-03T15:28:59Z</time>
      </trkpt>
      <trkpt lat="47.18981" lon="-1.79535">
        <ele>12.38</ele>
        <time>2020-06-03T15:29:01Z</time>
      </trkpt>
      <trkpt lat="47.18986" lon="-1.79554">
        <ele>12.94</ele>
        <time>2020-06-03T15:29:03Z</time>
      </trkpt>
      <trkpt lat="47.18991" lon="-1.79574">
        <ele>13.36</ele>
        <time>2020-06-03T15:29:05Z</time>
      </trkpt>
      <trkpt lat="47.18995" lon="-1.79591">
        <ele>13.19</ele>
        <time>2020-06-03T15:29:07Z</time>
      </trkpt>
      <trkpt lat="47.18999" lon="-1.79607">
        <ele>12.44</ele>
        <time>2020-06-03T15:29:09Z</time>
      </trkpt>
      <trkpt lat="47.19004" lon="-1.79628">
        <ele>12.07</ele>
        <time>2020-06-03T15:29:11Z</time>
      </trkpt>
      <trkpt lat="47.19008" lon="-1.79646">
        <ele>11.46</ele>
        <time>2020-06-03T15:29:13Z</time>
      </trkpt>
      <trkpt lat="47.19013" lon="-1.79664">
        <ele>12.14</ele>
        <time>2020-06-03T15:29:15Z</time>
      </trkpt>
      <trkpt lat="47.19017" lon="-1.79681">
        <ele>13.14</ele>
        <time>2020-06-03T15:29:17Z</time>
      </trkpt>
      <trkpt lat="47.19021" lon="-1.79697">
        <ele>13.92</ele>
        <time>2020-06-03T15:29:19Z</time>
      </trkpt>
      <trkpt lat="47.19025" lon="-1.79711">
        <ele>13.7</ele>
        <time>2020-06-03T15:29:21Z</time>
      </trkpt>
      <trkpt lat="47.1903" lon="-1.7973">
        <ele>13.35</ele>
        <time>2020-06-03T15:29:23Z</time>
      </trkpt>
      <trkpt lat="47.19034" lon="-1.79747">
        <ele>13.22</ele>
        <time>2020-06-03T15:29:25Z</time>
      </trkpt>
      <trkpt lat="47.1904" lon="-1.79764">
        <ele>12.77</ele>
        <time>2020-06-03T15:29:27Z</time>
      </trkpt>
      <trkpt lat="47.19047" lon="-1.79781">
        <ele>13.77</ele>
        <time>2020-06-03T15:29:29Z</time>
      </trkpt>
      <trkpt lat="47.19052" lon="-1.79795">
        <ele>14.12</ele>
        <time>2020-06-03T15:29:31Z</time>
      </trkpt>
      <trkpt lat="47.19059" lon="-1.7981">
        <ele>14.55</ele>
        <time>2020-06-03T15:29:33Z</time>
      </trkpt>
      <trkpt lat="47.19066" lon="-1.79827">
        <ele>15.07</ele>
        <time>2020-06-03T15:29:35Z</time>
      </trkpt>
      <trkpt lat="47.19072" lon="-1.79842">
        <ele>15.73</ele>
        <time>2020-06-03T15:29:37Z</time>
      </trkpt>
      <trkpt lat="47.1908" lon="-1.79858">
        <ele>15.57</ele>
        <time>2020-06-03T15:29:39Z</time>
      </trkpt>
      <trkpt lat="47.19087" lon="-1.79873">
        <ele>15.18</ele>
        <time>2020-06-03T15:29:41Z</time>
      </trkpt>
      <trkpt lat="47.19093" lon="-1.79888">
        <ele>15.57</ele>
        <time>2020-06-03T15:29:43Z</time>
      </trkpt>
      <trkpt lat="47.19099" lon="-1.79903">
        <ele>15.44</ele>
        <time>2020-06-03T15:29:45Z</time>
      </trkpt>
      <trkpt lat="47.19106" lon="-1.79921">
        <ele>14.64</ele>
        <time>2020-06-03T15:29:47Z</time>
      </trkpt>
      <trkpt lat="47.19112" lon="-1.79935">
        <ele>14.55</ele>
        <time>2020-06-03T15:29:49Z</time>
      </trkpt>
      <trkpt lat="47.19119" lon="-1.79949">
        <ele>15.11</ele>
        <time>2020-06-03T15:29:51Z</time>
      </trkpt>
      <trkpt lat="47.19125" lon="-1.79964">
        <ele>15.12</ele>
        <time>2020-06-03T15:29:53Z</time>
      </trkpt>
      <trkpt lat="47.19132" lon="-1.79979">
        <ele>15.74</ele>
        <time>2020-06-03T15:29:55Z</time>
      </trkpt>
      <trkpt lat="47.19138" lon="-1.79992">
        <ele>15.69</ele>
        <time>2020-06-03T15:29:57Z</time>
      </trkpt>
      <trkpt lat="47.19144" lon="-1.80005">
        <ele>15.07</ele>
        <time>2020-06-03T15:29:59Z</time>
      </trkpt>
      <trkpt lat="47.1915" lon="-1.80018">
        <ele>14.46</ele>
        <time>2020-06-03T15:30:01Z</time>
      </trkpt>
      <trkpt lat="47.19157" lon="-1.80031">
        <ele>13.77</ele>
        <time>2020-06-03T15:30:03Z</time>
      </trkpt>
      <trkpt lat="47.19163" lon="-1.80043">
        <ele>14.25</ele>
        <time>2020-06-03T15:30:05Z</time>
      </trkpt>
      <trkpt lat="47.19171" lon="-1.80061">
        <ele>13.87</ele>
        <time>2020-06-03T15:30:07Z</time>
      </trkpt>
      <trkpt lat="47.19179" lon="-1.80078">
        <ele>13.65</ele>
        <time>2020-06-03T15:30:09Z</time>
      </trkpt>
      <trkpt lat="47.19186" lon="-1.80093">
        <ele>13.08</ele>
        <time>2020-06-03T15:30:11Z</time>
      </trkpt>
      <trkpt lat="47.19194" lon="-1.80109">
        <ele>11.9</ele>
        <time>2020-06-03T15:30:13Z</time>
      </trkpt>
      <trkpt lat="47.19202" lon="-1.80126">
        <ele>11.88</ele>
        <time>2020-06-03T15:30:15Z</time>
      </trkpt>
      <trkpt lat="47.19209" lon="-1.80141">
        <ele>12.93</ele>
        <time>2020-06-03T15:30:17Z</time>
      </trkpt>
      <trkpt lat="47.19215" lon="-1.80157">
        <ele>12.84</ele>
        <time>2020-06-03T15:30:19Z</time>
      </trkpt>
      <trkpt lat="47.19223" lon="-1.80175">
        <ele>13.3</ele>
        <time>2020-06-03T15:30:21Z</time>
      </trkpt>
      <trkpt lat="47.1923" lon="-1.80192">
        <ele>13.79</ele>
        <time>2020-06-03T15:30:23Z</time>
      </trkpt>
      <trkpt lat="47.19236" lon="-1.80209">
        <ele>13.77</ele>
        <time>2020-06-03T15:30:25Z</time>
      </trkpt>
      <trkpt lat="47.1924" lon="-1.80226">
        <ele>14.12</ele>
        <time>2020-06-03T15:30:27Z</time>
      </trkpt>
      <trkpt lat="47.19244" lon="-1.80244">
        <ele>14.36</ele>
        <time>2020-06-03T15:30:29Z</time>
      </trkpt>
      <trkpt lat="47.1925" lon="-1.80263">
        <ele>14.58</ele>
        <time>2020-06-03T15:30:31Z</time>
      </trkpt>
      <trkpt lat="47.19255" lon="-1.80283">
        <ele>15.11</ele>
        <time>2020-06-03T15:30:33Z</time>
      </trkpt>
      <trkpt lat="47.1926" lon="-1.80301">
        <ele>15.28</ele>
        <time>2020-06-03T15:30:35Z</time>
      </trkpt>
      <trkpt lat="47.19265" lon="-1.8032">
        <ele>15.89</ele>
        <time>2020-06-03T15:30:37Z</time>
      </trkpt>
      <trkpt lat="47.1927" lon="-1.80338">
        <ele>15.76</ele>
        <time>2020-06-03T15:30:39Z</time>
      </trkpt>
      <trkpt lat="47.19276" lon="-1.80356">
        <ele>14.63</ele>
        <time>2020-06-03T15:30:41Z</time>
      </trkpt>
      <trkpt lat="47.19281" lon="-1.80376">
        <ele>13.92</ele>
        <time>2020-06-03T15:30:43Z</time>
      </trkpt>
      <trkpt lat="47.19287" lon="-1.80395">
        <ele>13.41</ele>
        <time>2020-06-03T15:30:45Z</time>
      </trkpt>
      <trkpt lat="47.19293" lon="-1.80412">
        <ele>13.94</ele>
        <time>2020-06-03T15:30:47Z</time>
      </trkpt>
      <trkpt lat="47.193" lon="-1.80432">
        <ele>13.44</ele>
        <time>2020-06-03T15:30:49Z</time>
      </trkpt>
      <trkpt lat="47.19307" lon="-1.80453">
        <ele>12.39</ele>
        <time>2020-06-03T15:30:51Z</time>
      </trkpt>
      <trkpt lat="47.19313" lon="-1.8047">
        <ele>10.92</ele>
        <time>2020-06-03T15:30:53Z</time>
      </trkpt>
      <trkpt lat="47.1932" lon="-1.80489">
        <ele>10.72</ele>
        <time>2020-06-03T15:30:55Z</time>
      </trkpt>
      <trkpt lat="47.19326" lon="-1.80507">
        <ele>11.13</ele>
        <time>2020-06-03T15:30:57Z</time>
      </trkpt>
      <trkpt lat="47.19332" lon="-1.80526">
        <ele>10.83</ele>
        <time>2020-06-03T15:30:59Z</time>
      </trkpt>
      <trkpt lat="47.19338" lon="-1.80543">
        <ele>9.92</ele>
        <time>2020-06-03T15:31:01Z</time>
      </trkpt>
      <trkpt lat="47.19343" lon="-1.80563">
        <ele>10.49</ele>
        <time>2020-06-03T15:31:03Z</time>
      </trkpt>
      <trkpt lat="47.19346" lon="-1.80582">
        <ele>10.29</ele>
        <time>2020-06-03T15:31:05Z</time>
      </trkpt>
      <trkpt lat="47.19349" lon="-1.806">
        <ele>9.93</ele>
        <time>2020-06-03T15:31:07Z</time>
      </trkpt>
      <trkpt lat="47.19351" lon="-1.80622">
        <ele>8.49</ele>
        <time>2020-06-03T15:31:09Z</time>
      </trkpt>
      <trkpt lat="47.19352" lon="-1.80642">
        <ele>7.98</ele>
        <time>2020-06-03T15:31:11Z</time>
      </trkpt>
      <trkpt lat="47.19353" lon="-1.80663">
        <ele>7.83</ele>
        <time>2020-06-03T15:31:13Z</time>
      </trkpt>
      <trkpt lat="47.1935" lon="-1.8068">
        <ele>7.16</ele>
        <time>2020-06-03T15:31:15Z</time>
      </trkpt>
      <trkpt lat="47.19346" lon="-1.80699">
        <ele>6.3</ele>
        <time>2020-06-03T15:31:17Z</time>
      </trkpt>
      <trkpt lat="47.19346" lon="-1.80718">
        <ele>5.81</ele>
        <time>2020-06-03T15:31:19Z</time>
      </trkpt>
      <trkpt lat="47.19342" lon="-1.80736">
        <ele>5.47</ele>
        <time>2020-06-03T15:31:21Z</time>
      </trkpt>
      <trkpt lat="47.19341" lon="-1.80755">
        <ele>5.73</ele>
        <time>2020-06-03T15:31:23Z</time>
      </trkpt>
      <trkpt lat="47.19345" lon="-1.80772">
        <ele>5.95</ele>
        <time>2020-06-03T15:31:25Z</time>
      </trkpt>
      <trkpt lat="47.19351" lon="-1.80792">
        <ele>5.57</ele>
        <time>2020-06-03T15:31:27Z</time>
      </trkpt>
      <trkpt lat="47.19356" lon="-1.8081">
        <ele>5.45</ele>
        <time>2020-06-03T15:31:29Z</time>
      </trkpt>
      <trkpt lat="47.19361" lon="-1.80828">
        <ele>5.42</ele>
        <time>2020-06-03T15:31:31Z</time>
      </trkpt>
      <trkpt lat="47.19365" lon="-1.80846">
        <ele>5.5</ele>
        <time>2020-06-03T15:31:33Z</time>
      </trkpt>
      <trkpt lat="47.19369" lon="-1.80868">
        <ele>4.99</ele>
        <time>2020-06-03T15:31:35Z</time>
      </trkpt>
      <trkpt lat="47.19373" lon="-1.80888">
        <ele>4.33</ele>
        <time>2020-06-03T15:31:37Z</time>
      </trkpt>
      <trkpt lat="47.19375" lon="-1.80905">
        <ele>4.19</ele>
        <time>2020-06-03T15:31:39Z</time>
      </trkpt>
      <trkpt lat="47.19377" lon="-1.80926">
        <ele>4.63</ele>
        <time>2020-06-03T15:31:41Z</time>
      </trkpt>
      <trkpt lat="47.19379" lon="-1.80944">
        <ele>5.31</ele>
        <time>2020-06-03T15:31:43Z</time>
      </trkpt>
      <trkpt lat="47.19381" lon="-1.80964">
        <ele>5.26</ele>
        <time>2020-06-03T15:31:45Z</time>
      </trkpt>
      <trkpt lat="47.19383" lon="-1.80984">
        <ele>5.25</ele>
        <time>2020-06-03T15:31:47Z</time>
      </trkpt>
      <trkpt lat="47.19385" lon="-1.81003">
        <ele>4.46</ele>
        <time>2020-06-03T15:31:49Z</time>
      </trkpt>
      <trkpt lat="47.19386" lon="-1.81021">
        <ele>3.57</ele>
        <time>2020-06-03T15:31:51Z</time>
      </trkpt>
      <trkpt lat="47.19388" lon="-1.8104">
        <ele>3.44</ele>
        <time>2020-06-03T15:31:53Z</time>
      </trkpt>
      <trkpt lat="47.1939" lon="-1.81058">
        <ele>3.77</ele>
        <time>2020-06-03T15:31:55Z</time>
      </trkpt>
      <trkpt lat="47.19393" lon="-1.81076">
        <ele>4.22</ele>
        <time>2020-06-03T15:31:57Z</time>
      </trkpt>
      <trkpt lat="47.19395" lon="-1.81094">
        <ele>4.67</ele>
        <time>2020-06-03T15:31:59Z</time>
      </trkpt>
      <trkpt lat="47.19398" lon="-1.81111">
        <ele>5.36</ele>
        <time>2020-06-03T15:32:01Z</time>
      </trkpt>
      <trkpt lat="47.19406" lon="-1.81124">
        <ele>5.03</ele>
        <time>2020-06-03T15:32:03Z</time>
      </trkpt>
      <trkpt lat="47.19417" lon="-1.81127">
        <ele>4.98</ele>
        <time>2020-06-03T15:32:05Z</time>
      </trkpt>
      <trkpt lat="47.19429" lon="-1.81127">
        <ele>5.32</ele>
        <time>2020-06-03T15:32:07Z</time>
      </trkpt>
      <trkpt lat="47.19444" lon="-1.81128">
        <ele>5.82</ele>
        <time>2020-06-03T15:32:09Z</time>
      </trkpt>
      <trkpt lat="47.1946" lon="-1.81127">
        <ele>5.89</ele>
        <time>2020-06-03T15:32:11Z</time>
      </trkpt>
      <trkpt lat="47.19476" lon="-1.81127">
        <ele>5.51</ele>
        <time>2020-06-03T15:32:13Z</time>
      </trkpt>
      <trkpt lat="47.19491" lon="-1.81127">
        <ele>5.41</ele>
        <time>2020-06-03T15:32:15Z</time>
      </trkpt>
      <trkpt lat="47.19505" lon="-1.81126">
        <ele>5.03</ele>
        <time>2020-06-03T15:32:17Z</time>
      </trkpt>
      <trkpt lat="47.19519" lon="-1.81125">
        <ele>4.46</ele>
        <time>2020-06-03T15:32:19Z</time>
      </trkpt>
      <trkpt lat="47.19532" lon="-1.81123">
        <ele>4.25</ele>
        <time>2020-06-03T15:32:21Z</time>
      </trkpt>
      <trkpt lat="47.19548" lon="-1.81123">
        <ele>4.35</ele>
        <time>2020-06-03T15:32:23Z</time>
      </trkpt>
      <trkpt lat="47.19564" lon="-1.81122">
        <ele>4.55</ele>
        <time>2020-06-03T15:32:25Z</time>
      </trkpt>
      <trkpt lat="47.19579" lon="-1.81122">
        <ele>4.77</ele>
        <time>2020-06-03T15:32:27Z</time>
      </trkpt>
      <trkpt lat="47.19592" lon="-1.81121">
        <ele>4.75</ele>
        <time>2020-06-03T15:32:29Z</time>
      </trkpt>
      <trkpt lat="47.19606" lon="-1.81121">
        <ele>4.74</ele>
        <time>2020-06-03T15:32:31Z</time>
      </trkpt>
      <trkpt lat="47.1962" lon="-1.81121">
        <ele>5</ele>
        <time>2020-06-03T15:32:33Z</time>
      </trkpt>
      <trkpt lat="47.19635" lon="-1.81121">
        <ele>4.19</ele>
        <time>2020-06-03T15:32:35Z</time>
      </trkpt>
      <trkpt lat="47.1965" lon="-1.8112">
        <ele>3.83</ele>
        <time>2020-06-03T15:32:37Z</time>
      </trkpt>
      <trkpt lat="47.19662" lon="-1.8112">
        <ele>4.32</ele>
        <time>2020-06-03T15:32:39Z</time>
      </trkpt>
      <trkpt lat="47.19674" lon="-1.8112">
        <ele>5.34</ele>
        <time>2020-06-03T15:32:41Z</time>
      </trkpt>
      <trkpt lat="47.19686" lon="-1.8112">
        <ele>6.13</ele>
        <time>2020-06-03T15:32:43Z</time>
      </trkpt>
      <trkpt lat="47.19696" lon="-1.8112">
        <ele>6.79</ele>
        <time>2020-06-03T15:32:45Z</time>
      </trkpt>
      <trkpt lat="47.19704" lon="-1.81133">
        <ele>6.15</ele>
        <time>2020-06-03T15:32:48Z</time>
      </trkpt>
      <trkpt lat="47.19708" lon="-1.81151">
        <ele>4.76</ele>
        <time>2020-06-03T15:32:50Z</time>
      </trkpt>
      <trkpt lat="47.19711" lon="-1.81167">
        <ele>3.53</ele>
        <time>2020-06-03T15:32:52Z</time>
      </trkpt>
      <trkpt lat="47.19714" lon="-1.81184">
        <ele>3.68</ele>
        <time>2020-06-03T15:32:54Z</time>
      </trkpt>
      <trkpt lat="47.19718" lon="-1.812">
        <ele>3.92</ele>
        <time>2020-06-03T15:32:56Z</time>
      </trkpt>
      <trkpt lat="47.19724" lon="-1.81217">
        <ele>4.02</ele>
        <time>2020-06-03T15:32:58Z</time>
      </trkpt>
      <trkpt lat="47.19729" lon="-1.81229">
        <ele>4.99</ele>
        <time>2020-06-03T15:33:01Z</time>
      </trkpt>
      <trkpt lat="47.19737" lon="-1.81244">
        <ele>5.52</ele>
        <time>2020-06-03T15:33:03Z</time>
      </trkpt>
      <trkpt lat="47.19745" lon="-1.81257">
        <ele>6.29</ele>
        <time>2020-06-03T15:33:05Z</time>
      </trkpt>
      <trkpt lat="47.19753" lon="-1.81267">
        <ele>6.39</ele>
        <time>2020-06-03T15:33:07Z</time>
      </trkpt>
      <trkpt lat="47.19762" lon="-1.81281">
        <ele>5.41</ele>
        <time>2020-06-03T15:33:09Z</time>
      </trkpt>
      <trkpt lat="47.19768" lon="-1.81295">
        <ele>4.61</ele>
        <time>2020-06-03T15:33:11Z</time>
      </trkpt>
      <trkpt lat="47.19773" lon="-1.81309">
        <ele>4.67</ele>
        <time>2020-06-03T15:33:13Z</time>
      </trkpt>
      <trkpt lat="47.19778" lon="-1.81324">
        <ele>5.74</ele>
        <time>2020-06-03T15:33:15Z</time>
      </trkpt>
      <trkpt lat="47.19782" lon="-1.81338">
        <ele>5.38</ele>
        <time>2020-06-03T15:33:17Z</time>
      </trkpt>
      <trkpt lat="47.19787" lon="-1.81352">
        <ele>5.18</ele>
        <time>2020-06-03T15:33:19Z</time>
      </trkpt>
      <trkpt lat="47.19791" lon="-1.81365">
        <ele>5.65</ele>
        <time>2020-06-03T15:33:21Z</time>
      </trkpt>
      <trkpt lat="47.19794" lon="-1.81378">
        <ele>5.66</ele>
        <time>2020-06-03T15:33:23Z</time>
      </trkpt>
      <trkpt lat="47.19798" lon="-1.8139">
        <ele>5.82</ele>
        <time>2020-06-03T15:33:25Z</time>
      </trkpt>
      <trkpt lat="47.19802" lon="-1.81405">
        <ele>5.56</ele>
        <time>2020-06-03T15:33:27Z</time>
      </trkpt>
      <trkpt lat="47.19806" lon="-1.81418">
        <ele>5.9</ele>
        <time>2020-06-03T15:33:29Z</time>
      </trkpt>
      <trkpt lat="47.1981" lon="-1.81431">
        <ele>6.57</ele>
        <time>2020-06-03T15:33:31Z</time>
      </trkpt>
      <trkpt lat="47.19815" lon="-1.81448">
        <ele>7.21</ele>
        <time>2020-06-03T15:33:33Z</time>
      </trkpt>
      <trkpt lat="47.19819" lon="-1.8146">
        <ele>8.14</ele>
        <time>2020-06-03T15:33:35Z</time>
      </trkpt>
      <trkpt lat="47.19826" lon="-1.81479">
        <ele>7.2</ele>
        <time>2020-06-03T15:33:38Z</time>
      </trkpt>
      <trkpt lat="47.19832" lon="-1.81493">
        <ele>6.09</ele>
        <time>2020-06-03T15:33:40Z</time>
      </trkpt>
      <trkpt lat="47.19838" lon="-1.81507">
        <ele>6.09</ele>
        <time>2020-06-03T15:33:42Z</time>
      </trkpt>
      <trkpt lat="47.19843" lon="-1.81521">
        <ele>5.65</ele>
        <time>2020-06-03T15:33:44Z</time>
      </trkpt>
      <trkpt lat="47.19849" lon="-1.81539">
        <ele>7.18</ele>
        <time>2020-06-03T15:33:47Z</time>
      </trkpt>
      <trkpt lat="47.19853" lon="-1.81551">
        <ele>7.46</ele>
        <time>2020-06-03T15:33:49Z</time>
      </trkpt>
      <trkpt lat="47.19859" lon="-1.81565">
        <ele>7.04</ele>
        <time>2020-06-03T15:33:51Z</time>
      </trkpt>
      <trkpt lat="47.19864" lon="-1.81581">
        <ele>7.65</ele>
        <time>2020-06-03T15:33:53Z</time>
      </trkpt>
      <trkpt lat="47.19869" lon="-1.81595">
        <ele>8.6</ele>
        <time>2020-06-03T15:33:55Z</time>
      </trkpt>
      <trkpt lat="47.19871" lon="-1.81608">
        <ele>8.25</ele>
        <time>2020-06-03T15:33:57Z</time>
      </trkpt>
      <trkpt lat="47.19874" lon="-1.81622">
        <ele>6.74</ele>
        <time>2020-06-03T15:33:59Z</time>
      </trkpt>
      <trkpt lat="47.19877" lon="-1.81638">
        <ele>6.9</ele>
        <time>2020-06-03T15:34:01Z</time>
      </trkpt>
      <trkpt lat="47.19879" lon="-1.81654">
        <ele>5.9</ele>
        <time>2020-06-03T15:34:03Z</time>
      </trkpt>
      <trkpt lat="47.19882" lon="-1.81671">
        <ele>5.76</ele>
        <time>2020-06-03T15:34:05Z</time>
      </trkpt>
      <trkpt lat="47.19884" lon="-1.81691">
        <ele>7.05</ele>
        <time>2020-06-03T15:34:08Z</time>
      </trkpt>
      <trkpt lat="47.19886" lon="-1.81707">
        <ele>6.97</ele>
        <time>2020-06-03T15:34:10Z</time>
      </trkpt>
      <trkpt lat="47.19888" lon="-1.81722">
        <ele>7.12</ele>
        <time>2020-06-03T15:34:12Z</time>
      </trkpt>
      <trkpt lat="47.19892" lon="-1.81737">
        <ele>6.24</ele>
        <time>2020-06-03T15:34:14Z</time>
      </trkpt>
      <trkpt lat="47.19894" lon="-1.81753">
        <ele>5.27</ele>
        <time>2020-06-03T15:34:16Z</time>
      </trkpt>
      <trkpt lat="47.19897" lon="-1.81768">
        <ele>5.17</ele>
        <time>2020-06-03T15:34:18Z</time>
      </trkpt>
      <trkpt lat="47.19901" lon="-1.81785">
        <ele>5.23</ele>
        <time>2020-06-03T15:34:20Z</time>
      </trkpt>
      <trkpt lat="47.19904" lon="-1.81802">
        <ele>5.99</ele>
        <time>2020-06-03T15:34:22Z</time>
      </trkpt>
      <trkpt lat="47.19908" lon="-1.81819">
        <ele>6.79</ele>
        <time>2020-06-03T15:34:24Z</time>
      </trkpt>
      <trkpt lat="47.19911" lon="-1.81833">
        <ele>7</ele>
        <time>2020-06-03T15:34:26Z</time>
      </trkpt>
      <trkpt lat="47.19914" lon="-1.81847">
        <ele>6.37</ele>
        <time>2020-06-03T15:34:28Z</time>
      </trkpt>
      <trkpt lat="47.19916" lon="-1.81862">
        <ele>7.13</ele>
        <time>2020-06-03T15:34:30Z</time>
      </trkpt>
      <trkpt lat="47.19919" lon="-1.81876">
        <ele>8.35</ele>
        <time>2020-06-03T15:34:32Z</time>
      </trkpt>
      <trkpt lat="47.19924" lon="-1.81897">
        <ele>10.36</ele>
        <time>2020-06-03T15:34:35Z</time>
      </trkpt>
      <trkpt lat="47.19927" lon="-1.81915">
        <ele>11.6</ele>
        <time>2020-06-03T15:34:37Z</time>
      </trkpt>
      <trkpt lat="47.19929" lon="-1.81928">
        <ele>12.11</ele>
        <time>2020-06-03T15:34:39Z</time>
      </trkpt>
      <trkpt lat="47.19931" lon="-1.81942">
        <ele>12.51</ele>
        <time>2020-06-03T15:34:41Z</time>
      </trkpt>
      <trkpt lat="47.19934" lon="-1.81958">
        <ele>12.38</ele>
        <time>2020-06-03T15:34:43Z</time>
      </trkpt>
      <trkpt lat="47.19937" lon="-1.81973">
        <ele>11.73</ele>
        <time>2020-06-03T15:34:45Z</time>
      </trkpt>
      <trkpt lat="47.19939" lon="-1.81986">
        <ele>11.93</ele>
        <time>2020-06-03T15:34:47Z</time>
      </trkpt>
      <trkpt lat="47.19941" lon="-1.82001">
        <ele>13.09</ele>
        <time>2020-06-03T15:34:49Z</time>
      </trkpt>
      <trkpt lat="47.19944" lon="-1.82017">
        <ele>13.56</ele>
        <time>2020-06-03T15:34:51Z</time>
      </trkpt>
      <trkpt lat="47.19947" lon="-1.82032">
        <ele>13.86</ele>
        <time>2020-06-03T15:34:53Z</time>
      </trkpt>
      <trkpt lat="47.1995" lon="-1.82045">
        <ele>12.79</ele>
        <time>2020-06-03T15:34:55Z</time>
      </trkpt>
      <trkpt lat="47.19952" lon="-1.82059">
        <ele>11.99</ele>
        <time>2020-06-03T15:34:57Z</time>
      </trkpt>
      <trkpt lat="47.19954" lon="-1.8208">
        <ele>10.69</ele>
        <time>2020-06-03T15:35:00Z</time>
      </trkpt>
      <trkpt lat="47.19955" lon="-1.82094">
        <ele>10.32</ele>
        <time>2020-06-03T15:35:02Z</time>
      </trkpt>
      <trkpt lat="47.19957" lon="-1.82109">
        <ele>10.28</ele>
        <time>2020-06-03T15:35:04Z</time>
      </trkpt>
      <trkpt lat="47.19959" lon="-1.82123">
        <ele>10.88</ele>
        <time>2020-06-03T15:35:06Z</time>
      </trkpt>
      <trkpt lat="47.19956" lon="-1.82141">
        <ele>11.28</ele>
        <time>2020-06-03T15:35:09Z</time>
      </trkpt>
      <trkpt lat="47.19952" lon="-1.82161">
        <ele>11.65</ele>
        <time>2020-06-03T15:35:12Z</time>
      </trkpt>
      <trkpt lat="47.19946" lon="-1.82175">
        <ele>12.18</ele>
        <time>2020-06-03T15:35:14Z</time>
      </trkpt>
      <trkpt lat="47.1994" lon="-1.82187">
        <ele>11.61</ele>
        <time>2020-06-03T15:35:16Z</time>
      </trkpt>
      <trkpt lat="47.19935" lon="-1.82201">
        <ele>12.27</ele>
        <time>2020-06-03T15:35:18Z</time>
      </trkpt>
      <trkpt lat="47.19929" lon="-1.82213">
        <ele>13.16</ele>
        <time>2020-06-03T15:35:20Z</time>
      </trkpt>
      <trkpt lat="47.19923" lon="-1.82226">
        <ele>14.76</ele>
        <time>2020-06-03T15:35:22Z</time>
      </trkpt>
      <trkpt lat="47.19916" lon="-1.82239">
        <ele>15.31</ele>
        <time>2020-06-03T15:35:24Z</time>
      </trkpt>
      <trkpt lat="47.19911" lon="-1.8225">
        <ele>14.61</ele>
        <time>2020-06-03T15:35:26Z</time>
      </trkpt>
      <trkpt lat="47.19905" lon="-1.82265">
        <ele>14.06</ele>
        <time>2020-06-03T15:35:28Z</time>
      </trkpt>
      <trkpt lat="47.199" lon="-1.82278">
        <ele>13.68</ele>
        <time>2020-06-03T15:35:30Z</time>
      </trkpt>
      <trkpt lat="47.19895" lon="-1.82291">
        <ele>13.74</ele>
        <time>2020-06-03T15:35:32Z</time>
      </trkpt>
      <trkpt lat="47.1989" lon="-1.82305">
        <ele>14.79</ele>
        <time>2020-06-03T15:35:34Z</time>
      </trkpt>
      <trkpt lat="47.19884" lon="-1.82317">
        <ele>16.17</ele>
        <time>2020-06-03T15:35:36Z</time>
      </trkpt>
      <trkpt lat="47.19878" lon="-1.82331">
        <ele>17.41</ele>
        <time>2020-06-03T15:35:38Z</time>
      </trkpt>
      <trkpt lat="47.19872" lon="-1.82344">
        <ele>18.13</ele>
        <time>2020-06-03T15:35:40Z</time>
      </trkpt>
      <trkpt lat="47.19868" lon="-1.82358">
        <ele>17.99</ele>
        <time>2020-06-03T15:35:42Z</time>
      </trkpt>
      <trkpt lat="47.19862" lon="-1.82372">
        <ele>18.31</ele>
        <time>2020-06-03T15:35:44Z</time>
      </trkpt>
      <trkpt lat="47.19857" lon="-1.82384">
        <ele>19.2</ele>
        <time>2020-06-03T15:35:46Z</time>
      </trkpt>
      <trkpt lat="47.19852" lon="-1.82399">
        <ele>20.15</ele>
        <time>2020-06-03T15:35:48Z</time>
      </trkpt>
      <trkpt lat="47.19847" lon="-1.82413">
        <ele>20.29</ele>
        <time>2020-06-03T15:35:50Z</time>
      </trkpt>
      <trkpt lat="47.19843" lon="-1.82428">
        <ele>20.73</ele>
        <time>2020-06-03T15:35:52Z</time>
      </trkpt>
      <trkpt lat="47.19838" lon="-1.82441">
        <ele>19.33</ele>
        <time>2020-06-03T15:35:54Z</time>
      </trkpt>
      <trkpt lat="47.19834" lon="-1.82452">
        <ele>19.14</ele>
        <time>2020-06-03T15:35:56Z</time>
      </trkpt>
      <trkpt lat="47.19828" lon="-1.82464">
        <ele>19.35</ele>
        <time>2020-06-03T15:35:58Z</time>
      </trkpt>
      <trkpt lat="47.1982" lon="-1.82476">
        <ele>19.42</ele>
        <time>2020-06-03T15:36:00Z</time>
      </trkpt>
      <trkpt lat="47.19813" lon="-1.82487">
        <ele>19.83</ele>
        <time>2020-06-03T15:36:02Z</time>
      </trkpt>
      <trkpt lat="47.19804" lon="-1.825">
        <ele>19.63</ele>
        <time>2020-06-03T15:36:04Z</time>
      </trkpt>
      <trkpt lat="47.19798" lon="-1.82511">
        <ele>19.31</ele>
        <time>2020-06-03T15:36:06Z</time>
      </trkpt>
      <trkpt lat="47.1979" lon="-1.82523">
        <ele>19.96</ele>
        <time>2020-06-03T15:36:08Z</time>
      </trkpt>
      <trkpt lat="47.19782" lon="-1.82536">
        <ele>20.83</ele>
        <time>2020-06-03T15:36:10Z</time>
      </trkpt>
      <trkpt lat="47.19774" lon="-1.82547">
        <ele>20.67</ele>
        <time>2020-06-03T15:36:12Z</time>
      </trkpt>
      <trkpt lat="47.19767" lon="-1.82558">
        <ele>21.31</ele>
        <time>2020-06-03T15:36:14Z</time>
      </trkpt>
      <trkpt lat="47.19759" lon="-1.8257">
        <ele>21.23</ele>
        <time>2020-06-03T15:36:16Z</time>
      </trkpt>
      <trkpt lat="47.19752" lon="-1.82582">
        <ele>20.79</ele>
        <time>2020-06-03T15:36:18Z</time>
      </trkpt>
      <trkpt lat="47.19745" lon="-1.82593">
        <ele>21.51</ele>
        <time>2020-06-03T15:36:20Z</time>
      </trkpt>
      <trkpt lat="47.19738" lon="-1.82606">
        <ele>20.55</ele>
        <time>2020-06-03T15:36:22Z</time>
      </trkpt>
      <trkpt lat="47.19733" lon="-1.82618">
        <ele>19.53</ele>
        <time>2020-06-03T15:36:24Z</time>
      </trkpt>
      <trkpt lat="47.19727" lon="-1.82632">
        <ele>19.16</ele>
        <time>2020-06-03T15:36:26Z</time>
      </trkpt>
      <trkpt lat="47.19722" lon="-1.82646">
        <ele>19.26</ele>
        <time>2020-06-03T15:36:28Z</time>
      </trkpt>
      <trkpt lat="47.19719" lon="-1.82661">
        <ele>19.06</ele>
        <time>2020-06-03T15:36:30Z</time>
      </trkpt>
      <trkpt lat="47.19716" lon="-1.82674">
        <ele>18.17</ele>
        <time>2020-06-03T15:36:32Z</time>
      </trkpt>
      <trkpt lat="47.19712" lon="-1.8269">
        <ele>17.18</ele>
        <time>2020-06-03T15:36:34Z</time>
      </trkpt>
      <trkpt lat="47.19709" lon="-1.82704">
        <ele>17.02</ele>
        <time>2020-06-03T15:36:36Z</time>
      </trkpt>
      <trkpt lat="47.19704" lon="-1.8272">
        <ele>17.63</ele>
        <time>2020-06-03T15:36:38Z</time>
      </trkpt>
      <trkpt lat="47.19701" lon="-1.82736">
        <ele>18.03</ele>
        <time>2020-06-03T15:36:40Z</time>
      </trkpt>
      <trkpt lat="47.19697" lon="-1.82753">
        <ele>18.33</ele>
        <time>2020-06-03T15:36:42Z</time>
      </trkpt>
      <trkpt lat="47.19693" lon="-1.82767">
        <ele>18.56</ele>
        <time>2020-06-03T15:36:44Z</time>
      </trkpt>
      <trkpt lat="47.19691" lon="-1.82784">
        <ele>18.7</ele>
        <time>2020-06-03T15:36:46Z</time>
      </trkpt>
      <trkpt lat="47.19688" lon="-1.828">
        <ele>18.2</ele>
        <time>2020-06-03T15:36:48Z</time>
      </trkpt>
      <trkpt lat="47.19684" lon="-1.82819">
        <ele>17.33</ele>
        <time>2020-06-03T15:36:50Z</time>
      </trkpt>
      <trkpt lat="47.1968" lon="-1.82838">
        <ele>17.21</ele>
        <time>2020-06-03T15:36:53Z</time>
      </trkpt>
      <trkpt lat="47.19678" lon="-1.82854">
        <ele>16.99</ele>
        <time>2020-06-03T15:36:55Z</time>
      </trkpt>
      <trkpt lat="47.19675" lon="-1.82869">
        <ele>16.59</ele>
        <time>2020-06-03T15:36:57Z</time>
      </trkpt>
      <trkpt lat="47.19672" lon="-1.82882">
        <ele>16.6</ele>
        <time>2020-06-03T15:36:59Z</time>
      </trkpt>
      <trkpt lat="47.1967" lon="-1.82896">
        <ele>15.97</ele>
        <time>2020-06-03T15:37:01Z</time>
      </trkpt>
      <trkpt lat="47.19666" lon="-1.82913">
        <ele>15.29</ele>
        <time>2020-06-03T15:37:03Z</time>
      </trkpt>
      <trkpt lat="47.19662" lon="-1.82927">
        <ele>16.44</ele>
        <time>2020-06-03T15:37:05Z</time>
      </trkpt>
      <trkpt lat="47.19659" lon="-1.82942">
        <ele>16.69</ele>
        <time>2020-06-03T15:37:07Z</time>
      </trkpt>
      <trkpt lat="47.19656" lon="-1.82957">
        <ele>16.19</ele>
        <time>2020-06-03T15:37:09Z</time>
      </trkpt>
      <trkpt lat="47.19653" lon="-1.82976">
        <ele>15.72</ele>
        <time>2020-06-03T15:37:12Z</time>
      </trkpt>
      <trkpt lat="47.19649" lon="-1.82995">
        <ele>16.16</ele>
        <time>2020-06-03T15:37:14Z</time>
      </trkpt>
      <trkpt lat="47.19646" lon="-1.83009">
        <ele>17.49</ele>
        <time>2020-06-03T15:37:16Z</time>
      </trkpt>
      <trkpt lat="47.19643" lon="-1.83026">
        <ele>18.62</ele>
        <time>2020-06-03T15:37:18Z</time>
      </trkpt>
      <trkpt lat="47.1964" lon="-1.83038">
        <ele>19.95</ele>
        <time>2020-06-03T15:37:20Z</time>
      </trkpt>
      <trkpt lat="47.19637" lon="-1.83054">
        <ele>20.55</ele>
        <time>2020-06-03T15:37:22Z</time>
      </trkpt>
      <trkpt lat="47.19633" lon="-1.8307">
        <ele>20.37</ele>
        <time>2020-06-03T15:37:24Z</time>
      </trkpt>
      <trkpt lat="47.1963" lon="-1.83084">
        <ele>19.95</ele>
        <time>2020-06-03T15:37:26Z</time>
      </trkpt>
      <trkpt lat="47.19627" lon="-1.831">
        <ele>19.08</ele>
        <time>2020-06-03T15:37:28Z</time>
      </trkpt>
      <trkpt lat="47.19625" lon="-1.83114">
        <ele>17.82</ele>
        <time>2020-06-03T15:37:30Z</time>
      </trkpt>
      <trkpt lat="47.19623" lon="-1.83129">
        <ele>16.4</ele>
        <time>2020-06-03T15:37:32Z</time>
      </trkpt>
      <trkpt lat="47.1962" lon="-1.83145">
        <ele>15.42</ele>
        <time>2020-06-03T15:37:34Z</time>
      </trkpt>
      <trkpt lat="47.19618" lon="-1.83162">
        <ele>15.57</ele>
        <time>2020-06-03T15:37:36Z</time>
      </trkpt>
      <trkpt lat="47.19617" lon="-1.83178">
        <ele>15.77</ele>
        <time>2020-06-03T15:37:38Z</time>
      </trkpt>
      <trkpt lat="47.19616" lon="-1.83194">
        <ele>16.25</ele>
        <time>2020-06-03T15:37:40Z</time>
      </trkpt>
      <trkpt lat="47.19616" lon="-1.8321">
        <ele>16.01</ele>
        <time>2020-06-03T15:37:42Z</time>
      </trkpt>
      <trkpt lat="47.19617" lon="-1.83226">
        <ele>15.48</ele>
        <time>2020-06-03T15:37:44Z</time>
      </trkpt>
      <trkpt lat="47.19618" lon="-1.8324">
        <ele>15.3</ele>
        <time>2020-06-03T15:37:46Z</time>
      </trkpt>
      <trkpt lat="47.19618" lon="-1.83258">
        <ele>15.86</ele>
        <time>2020-06-03T15:37:48Z</time>
      </trkpt>
      <trkpt lat="47.19619" lon="-1.83274">
        <ele>16.55</ele>
        <time>2020-06-03T15:37:50Z</time>
      </trkpt>
      <trkpt lat="47.1962" lon="-1.83292">
        <ele>17.41</ele>
        <time>2020-06-03T15:37:52Z</time>
      </trkpt>
      <trkpt lat="47.1962" lon="-1.83306">
        <ele>18.7</ele>
        <time>2020-06-03T15:37:54Z</time>
      </trkpt>
      <trkpt lat="47.19621" lon="-1.83321">
        <ele>19.9</ele>
        <time>2020-06-03T15:37:56Z</time>
      </trkpt>
      <trkpt lat="47.19622" lon="-1.83338">
        <ele>20.47</ele>
        <time>2020-06-03T15:37:58Z</time>
      </trkpt>
      <trkpt lat="47.19623" lon="-1.83355">
        <ele>20</ele>
        <time>2020-06-03T15:38:00Z</time>
      </trkpt>
      <trkpt lat="47.19624" lon="-1.83371">
        <ele>19.84</ele>
        <time>2020-06-03T15:38:02Z</time>
      </trkpt>
      <trkpt lat="47.19625" lon="-1.83385">
        <ele>19.94</ele>
        <time>2020-06-03T15:38:04Z</time>
      </trkpt>
      <trkpt lat="47.19626" lon="-1.834">
        <ele>19.5</ele>
        <time>2020-06-03T15:38:06Z</time>
      </trkpt>
      <trkpt lat="47.19627" lon="-1.83413">
        <ele>18.96</ele>
        <time>2020-06-03T15:38:08Z</time>
      </trkpt>
      <trkpt lat="47.19628" lon="-1.83427">
        <ele>17.72</ele>
        <time>2020-06-03T15:38:10Z</time>
      </trkpt>
      <trkpt lat="47.19629" lon="-1.83443">
        <ele>16.55</ele>
        <time>2020-06-03T15:38:12Z</time>
      </trkpt>
      <trkpt lat="47.1963" lon="-1.83458">
        <ele>15.44</ele>
        <time>2020-06-03T15:38:14Z</time>
      </trkpt>
      <trkpt lat="47.19631" lon="-1.83474">
        <ele>14.5</ele>
        <time>2020-06-03T15:38:16Z</time>
      </trkpt>
      <trkpt lat="47.19632" lon="-1.83488">
        <ele>14.53</ele>
        <time>2020-06-03T15:38:18Z</time>
      </trkpt>
      <trkpt lat="47.19633" lon="-1.83509">
        <ele>15.12</ele>
        <time>2020-06-03T15:38:21Z</time>
      </trkpt>
      <trkpt lat="47.19633" lon="-1.83525">
        <ele>15.01</ele>
        <time>2020-06-03T15:38:23Z</time>
      </trkpt>
      <trkpt lat="47.19633" lon="-1.83541">
        <ele>15.59</ele>
        <time>2020-06-03T15:38:25Z</time>
      </trkpt>
      <trkpt lat="47.19632" lon="-1.83557">
        <ele>16.6</ele>
        <time>2020-06-03T15:38:27Z</time>
      </trkpt>
      <trkpt lat="47.19629" lon="-1.83576">
        <ele>17.14</ele>
        <time>2020-06-03T15:38:30Z</time>
      </trkpt>
      <trkpt lat="47.19627" lon="-1.8359">
        <ele>18.01</ele>
        <time>2020-06-03T15:38:32Z</time>
      </trkpt>
      <trkpt lat="47.19623" lon="-1.83607">
        <ele>18.57</ele>
        <time>2020-06-03T15:38:34Z</time>
      </trkpt>
      <trkpt lat="47.19619" lon="-1.83623">
        <ele>17.97</ele>
        <time>2020-06-03T15:38:36Z</time>
      </trkpt>
      <trkpt lat="47.19616" lon="-1.83637">
        <ele>18.53</ele>
        <time>2020-06-03T15:38:38Z</time>
      </trkpt>
      <trkpt lat="47.19612" lon="-1.83653">
        <ele>19.02</ele>
        <time>2020-06-03T15:38:40Z</time>
      </trkpt>
      <trkpt lat="47.19609" lon="-1.83671">
        <ele>19.4</ele>
        <time>2020-06-03T15:38:42Z</time>
      </trkpt>
      <trkpt lat="47.19607" lon="-1.83686">
        <ele>19.96</ele>
        <time>2020-06-03T15:38:44Z</time>
      </trkpt>
      <trkpt lat="47.19606" lon="-1.83703">
        <ele>20.59</ele>
        <time>2020-06-03T15:38:46Z</time>
      </trkpt>
      <trkpt lat="47.19607" lon="-1.83722">
        <ele>20.43</ele>
        <time>2020-06-03T15:38:48Z</time>
      </trkpt>
      <trkpt lat="47.1961" lon="-1.83737">
        <ele>19.84</ele>
        <time>2020-06-03T15:38:50Z</time>
      </trkpt>
      <trkpt lat="47.19613" lon="-1.83752">
        <ele>20.22</ele>
        <time>2020-06-03T15:38:52Z</time>
      </trkpt>
      <trkpt lat="47.19617" lon="-1.83768">
        <ele>19.1</ele>
        <time>2020-06-03T15:38:54Z</time>
      </trkpt>
      <trkpt lat="47.19621" lon="-1.83783">
        <ele>17.33</ele>
        <time>2020-06-03T15:38:56Z</time>
      </trkpt>
      <trkpt lat="47.19624" lon="-1.83801">
        <ele>15.96</ele>
        <time>2020-06-03T15:38:58Z</time>
      </trkpt>
      <trkpt lat="47.19627" lon="-1.83817">
        <ele>15.18</ele>
        <time>2020-06-03T15:39:00Z</time>
      </trkpt>
      <trkpt lat="47.1963" lon="-1.83832">
        <ele>14.31</ele>
        <time>2020-06-03T15:39:02Z</time>
      </trkpt>
      <trkpt lat="47.19633" lon="-1.8385">
        <ele>13.7</ele>
        <time>2020-06-03T15:39:04Z</time>
      </trkpt>
      <trkpt lat="47.19636" lon="-1.83865">
        <ele>14.24</ele>
        <time>2020-06-03T15:39:06Z</time>
      </trkpt>
      <trkpt lat="47.19639" lon="-1.83879">
        <ele>13.5</ele>
        <time>2020-06-03T15:39:08Z</time>
      </trkpt>
      <trkpt lat="47.19642" lon="-1.83894">
        <ele>12.74</ele>
        <time>2020-06-03T15:39:10Z</time>
      </trkpt>
      <trkpt lat="47.19645" lon="-1.83911">
        <ele>12.58</ele>
        <time>2020-06-03T15:39:12Z</time>
      </trkpt>
      <trkpt lat="47.19648" lon="-1.83926">
        <ele>13.21</ele>
        <time>2020-06-03T15:39:14Z</time>
      </trkpt>
      <trkpt lat="47.19651" lon="-1.83943">
        <ele>12.24</ele>
        <time>2020-06-03T15:39:16Z</time>
      </trkpt>
      <trkpt lat="47.19654" lon="-1.83959">
        <ele>11.68</ele>
        <time>2020-06-03T15:39:18Z</time>
      </trkpt>
      <trkpt lat="47.19657" lon="-1.83977">
        <ele>11.89</ele>
        <time>2020-06-03T15:39:21Z</time>
      </trkpt>
      <trkpt lat="47.1966" lon="-1.83995">
        <ele>12.56</ele>
        <time>2020-06-03T15:39:23Z</time>
      </trkpt>
      <trkpt lat="47.19662" lon="-1.84012">
        <ele>12.98</ele>
        <time>2020-06-03T15:39:25Z</time>
      </trkpt>
      <trkpt lat="47.19663" lon="-1.84026">
        <ele>13.95</ele>
        <time>2020-06-03T15:39:27Z</time>
      </trkpt>
      <trkpt lat="47.19663" lon="-1.84041">
        <ele>13.79</ele>
        <time>2020-06-03T15:39:29Z</time>
      </trkpt>
      <trkpt lat="47.19663" lon="-1.84057">
        <ele>13.72</ele>
        <time>2020-06-03T15:39:31Z</time>
      </trkpt>
      <trkpt lat="47.19661" lon="-1.84074">
        <ele>13.36</ele>
        <time>2020-06-03T15:39:33Z</time>
      </trkpt>
      <trkpt lat="47.19657" lon="-1.84089">
        <ele>13.6</ele>
        <time>2020-06-03T15:39:35Z</time>
      </trkpt>
      <trkpt lat="47.19653" lon="-1.84102">
        <ele>13.34</ele>
        <time>2020-06-03T15:39:37Z</time>
      </trkpt>
      <trkpt lat="47.19647" lon="-1.84114">
        <ele>13.91</ele>
        <time>2020-06-03T15:39:39Z</time>
      </trkpt>
      <trkpt lat="47.19639" lon="-1.84126">
        <ele>13.93</ele>
        <time>2020-06-03T15:39:41Z</time>
      </trkpt>
      <trkpt lat="47.19632" lon="-1.8414">
        <ele>14.2</ele>
        <time>2020-06-03T15:39:43Z</time>
      </trkpt>
      <trkpt lat="47.19624" lon="-1.84153">
        <ele>14.13</ele>
        <time>2020-06-03T15:39:45Z</time>
      </trkpt>
      <trkpt lat="47.19617" lon="-1.84166">
        <ele>14.18</ele>
        <time>2020-06-03T15:39:47Z</time>
      </trkpt>
      <trkpt lat="47.19611" lon="-1.84177">
        <ele>14.94</ele>
        <time>2020-06-03T15:39:49Z</time>
      </trkpt>
      <trkpt lat="47.19603" lon="-1.84191">
        <ele>15.02</ele>
        <time>2020-06-03T15:39:51Z</time>
      </trkpt>
      <trkpt lat="47.19596" lon="-1.84204">
        <ele>14.79</ele>
        <time>2020-06-03T15:39:53Z</time>
      </trkpt>
      <trkpt lat="47.19588" lon="-1.84219">
        <ele>14.33</ele>
        <time>2020-06-03T15:39:55Z</time>
      </trkpt>
      <trkpt lat="47.1958" lon="-1.84233">
        <ele>15.18</ele>
        <time>2020-06-03T15:39:57Z</time>
      </trkpt>
      <trkpt lat="47.19574" lon="-1.84245">
        <ele>15.46</ele>
        <time>2020-06-03T15:39:59Z</time>
      </trkpt>
      <trkpt lat="47.19566" lon="-1.84259">
        <ele>15.4</ele>
        <time>2020-06-03T15:40:01Z</time>
      </trkpt>
      <trkpt lat="47.19559" lon="-1.84271">
        <ele>14.93</ele>
        <time>2020-06-03T15:40:03Z</time>
      </trkpt>
      <trkpt lat="47.19551" lon="-1.84284">
        <ele>15.01</ele>
        <time>2020-06-03T15:40:05Z</time>
      </trkpt>
      <trkpt lat="47.19545" lon="-1.84295">
        <ele>15.08</ele>
        <time>2020-06-03T15:40:07Z</time>
      </trkpt>
      <trkpt lat="47.19537" lon="-1.84308">
        <ele>14.73</ele>
        <time>2020-06-03T15:40:09Z</time>
      </trkpt>
      <trkpt lat="47.1953" lon="-1.84319">
        <ele>15.54</ele>
        <time>2020-06-03T15:40:11Z</time>
      </trkpt>
      <trkpt lat="47.19522" lon="-1.84331">
        <ele>15.51</ele>
        <time>2020-06-03T15:40:13Z</time>
      </trkpt>
      <trkpt lat="47.19514" lon="-1.84345">
        <ele>14.64</ele>
        <time>2020-06-03T15:40:15Z</time>
      </trkpt>
      <trkpt lat="47.19507" lon="-1.84358">
        <ele>14.26</ele>
        <time>2020-06-03T15:40:17Z</time>
      </trkpt>
      <trkpt lat="47.195" lon="-1.8437">
        <ele>13.96</ele>
        <time>2020-06-03T15:40:19Z</time>
      </trkpt>
      <trkpt lat="47.19492" lon="-1.84382">
        <ele>13.57</ele>
        <time>2020-06-03T15:40:21Z</time>
      </trkpt>
      <trkpt lat="47.19485" lon="-1.84395">
        <ele>12.98</ele>
        <time>2020-06-03T15:40:23Z</time>
      </trkpt>
      <trkpt lat="47.19478" lon="-1.84407">
        <ele>12.66</ele>
        <time>2020-06-03T15:40:25Z</time>
      </trkpt>
      <trkpt lat="47.19471" lon="-1.8442">
        <ele>13.23</ele>
        <time>2020-06-03T15:40:27Z</time>
      </trkpt>
      <trkpt lat="47.19464" lon="-1.84434">
        <ele>14.58</ele>
        <time>2020-06-03T15:40:29Z</time>
      </trkpt>
      <trkpt lat="47.19458" lon="-1.84446">
        <ele>14.19</ele>
        <time>2020-06-03T15:40:31Z</time>
      </trkpt>
      <trkpt lat="47.19451" lon="-1.84457">
        <ele>13.16</ele>
        <time>2020-06-03T15:40:33Z</time>
      </trkpt>
      <trkpt lat="47.19444" lon="-1.84471">
        <ele>12.95</ele>
        <time>2020-06-03T15:40:35Z</time>
      </trkpt>
      <trkpt lat="47.19438" lon="-1.84483">
        <ele>12.95</ele>
        <time>2020-06-03T15:40:37Z</time>
      </trkpt>
      <trkpt lat="47.19433" lon="-1.84493">
        <ele>12.98</ele>
        <time>2020-06-03T15:40:39Z</time>
      </trkpt>
      <trkpt lat="47.19426" lon="-1.84509">
        <ele>13.49</ele>
        <time>2020-06-03T15:40:41Z</time>
      </trkpt>
      <trkpt lat="47.19428" lon="-1.84521">
        <ele>14.13</ele>
        <time>2020-06-03T15:40:43Z</time>
      </trkpt>
      <trkpt lat="47.19435" lon="-1.84531">
        <ele>15.14</ele>
        <time>2020-06-03T15:40:45Z</time>
      </trkpt>
      <trkpt lat="47.19442" lon="-1.8454">
        <ele>15.26</ele>
        <time>2020-06-03T15:40:47Z</time>
      </trkpt>
      <trkpt lat="47.19448" lon="-1.84555">
        <ele>13.86</ele>
        <time>2020-06-03T15:40:49Z</time>
      </trkpt>
      <trkpt lat="47.19451" lon="-1.84571">
        <ele>13.16</ele>
        <time>2020-06-03T15:40:51Z</time>
      </trkpt>
      <trkpt lat="47.19453" lon="-1.84587">
        <ele>12.59</ele>
        <time>2020-06-03T15:40:53Z</time>
      </trkpt>
      <trkpt lat="47.19454" lon="-1.84604">
        <ele>12.58</ele>
        <time>2020-06-03T15:40:55Z</time>
      </trkpt>
      <trkpt lat="47.19454" lon="-1.84621">
        <ele>12.98</ele>
        <time>2020-06-03T15:40:57Z</time>
      </trkpt>
      <trkpt lat="47.19453" lon="-1.84638">
        <ele>13.3</ele>
        <time>2020-06-03T15:40:59Z</time>
      </trkpt>
      <trkpt lat="47.19453" lon="-1.84654">
        <ele>13.51</ele>
        <time>2020-06-03T15:41:01Z</time>
      </trkpt>
      <trkpt lat="47.19453" lon="-1.84669">
        <ele>13.92</ele>
        <time>2020-06-03T15:41:03Z</time>
      </trkpt>
      <trkpt lat="47.19453" lon="-1.84688">
        <ele>13.69</ele>
        <time>2020-06-03T15:41:06Z</time>
      </trkpt>
      <trkpt lat="47.19453" lon="-1.84709">
        <ele>12.71</ele>
        <time>2020-06-03T15:41:08Z</time>
      </trkpt>
      <trkpt lat="47.19453" lon="-1.84723">
        <ele>11.95</ele>
        <time>2020-06-03T15:41:10Z</time>
      </trkpt>
      <trkpt lat="47.19453" lon="-1.84738">
        <ele>11.53</ele>
        <time>2020-06-03T15:41:12Z</time>
      </trkpt>
      <trkpt lat="47.19453" lon="-1.84756">
        <ele>11.88</ele>
        <time>2020-06-03T15:41:14Z</time>
      </trkpt>
      <trkpt lat="47.19452" lon="-1.84774">
        <ele>11.56</ele>
        <time>2020-06-03T15:41:16Z</time>
      </trkpt>
      <trkpt lat="47.19453" lon="-1.84796">
        <ele>11.02</ele>
        <time>2020-06-03T15:41:18Z</time>
      </trkpt>
      <trkpt lat="47.19454" lon="-1.84817">
        <ele>10.42</ele>
        <time>2020-06-03T15:41:20Z</time>
      </trkpt>
      <trkpt lat="47.19455" lon="-1.84838">
        <ele>9.34</ele>
        <time>2020-06-03T15:41:22Z</time>
      </trkpt>
      <trkpt lat="47.19456" lon="-1.8486">
        <ele>8.64</ele>
        <time>2020-06-03T15:41:24Z</time>
      </trkpt>
      <trkpt lat="47.19462" lon="-1.8488">
        <ele>8.08</ele>
        <time>2020-06-03T15:41:26Z</time>
      </trkpt>
      <trkpt lat="47.19474" lon="-1.84892">
        <ele>7.66</ele>
        <time>2020-06-03T15:41:28Z</time>
      </trkpt>
      <trkpt lat="47.19487" lon="-1.84901">
        <ele>7.8</ele>
        <time>2020-06-03T15:41:30Z</time>
      </trkpt>
      <trkpt lat="47.195" lon="-1.84909">
        <ele>7.33</ele>
        <time>2020-06-03T15:41:32Z</time>
      </trkpt>
      <trkpt lat="47.19509" lon="-1.84918">
        <ele>6.03</ele>
        <time>2020-06-03T15:41:34Z</time>
      </trkpt>
      <trkpt lat="47.19516" lon="-1.8493">
        <ele>5.69</ele>
        <time>2020-06-03T15:41:37Z</time>
      </trkpt>
      <trkpt lat="47.1951" lon="-1.84941">
        <ele>4.07</ele>
        <time>2020-06-03T15:41:39Z</time>
      </trkpt>
      <trkpt lat="47.19502" lon="-1.84953">
        <ele>3.15</ele>
        <time>2020-06-03T15:41:41Z</time>
      </trkpt>
      <trkpt lat="47.19493" lon="-1.84965">
        <ele>3.24</ele>
        <time>2020-06-03T15:41:43Z</time>
      </trkpt>
      <trkpt lat="47.19484" lon="-1.84978">
        <ele>2.98</ele>
        <time>2020-06-03T15:41:45Z</time>
      </trkpt>
      <trkpt lat="47.19476" lon="-1.8499">
        <ele>2.09</ele>
        <time>2020-06-03T15:41:47Z</time>
      </trkpt>
      <trkpt lat="47.19469" lon="-1.84999">
        <ele>1.58</ele>
        <time>2020-06-03T15:41:49Z</time>
      </trkpt>
      <trkpt lat="47.19461" lon="-1.8501">
        <ele>0.48</ele>
        <time>2020-06-03T15:41:51Z</time>
      </trkpt>
      <trkpt lat="47.19452" lon="-1.85023">
        <ele>-0.02</ele>
        <time>2020-06-03T15:41:53Z</time>
      </trkpt>
      <trkpt lat="47.19443" lon="-1.85037">
        <ele>0.86</ele>
        <time>2020-06-03T15:41:55Z</time>
      </trkpt>
      <trkpt lat="47.19436" lon="-1.85047">
        <ele>1.6</ele>
        <time>2020-06-03T15:41:57Z</time>
      </trkpt>
      <trkpt lat="47.19428" lon="-1.85058">
        <ele>2.33</ele>
        <time>2020-06-03T15:41:59Z</time>
      </trkpt>
      <trkpt lat="47.1942" lon="-1.85068">
        <ele>4.16</ele>
        <time>2020-06-03T15:42:01Z</time>
      </trkpt>
      <trkpt lat="47.19413" lon="-1.85078">
        <ele>5.16</ele>
        <time>2020-06-03T15:42:03Z</time>
      </trkpt>
      <trkpt lat="47.19406" lon="-1.85088">
        <ele>6.24</ele>
        <time>2020-06-03T15:42:05Z</time>
      </trkpt>
      <trkpt lat="47.19396" lon="-1.85101">
        <ele>6.89</ele>
        <time>2020-06-03T15:42:08Z</time>
      </trkpt>
      <trkpt lat="47.19389" lon="-1.85114">
        <ele>7.02</ele>
        <time>2020-06-03T15:42:12Z</time>
      </trkpt>
      <trkpt lat="47.19385" lon="-1.85129">
        <ele>6.87</ele>
        <time>2020-06-03T15:42:16Z</time>
      </trkpt>
      <trkpt lat="47.19375" lon="-1.85139">
        <ele>6.23</ele>
        <time>2020-06-03T15:42:19Z</time>
      </trkpt>
      <trkpt lat="47.19364" lon="-1.85147">
        <ele>6.25</ele>
        <time>2020-06-03T15:42:21Z</time>
      </trkpt>
      <trkpt lat="47.19354" lon="-1.85156">
        <ele>6.22</ele>
        <time>2020-06-03T15:42:23Z</time>
      </trkpt>
      <trkpt lat="47.19348" lon="-1.85165">
        <ele>6.09</ele>
        <time>2020-06-03T15:42:25Z</time>
      </trkpt>
      <trkpt lat="47.19339" lon="-1.85174">
        <ele>6.19</ele>
        <time>2020-06-03T15:42:27Z</time>
      </trkpt>
      <trkpt lat="47.19331" lon="-1.85184">
        <ele>6.14</ele>
        <time>2020-06-03T15:42:28Z</time>
      </trkpt>
      <trkpt lat="47.19322" lon="-1.85194">
        <ele>5.18</ele>
        <time>2020-06-03T15:42:30Z</time>
      </trkpt>
      <trkpt lat="47.19312" lon="-1.85207">
        <ele>4.3</ele>
        <time>2020-06-03T15:42:33Z</time>
      </trkpt>
      <trkpt lat="47.19302" lon="-1.8522">
        <ele>4.2</ele>
        <time>2020-06-03T15:42:35Z</time>
      </trkpt>
      <trkpt lat="47.19291" lon="-1.85234">
        <ele>3.98</ele>
        <time>2020-06-03T15:42:37Z</time>
      </trkpt>
      <trkpt lat="47.19281" lon="-1.85246">
        <ele>3.56</ele>
        <time>2020-06-03T15:42:39Z</time>
      </trkpt>
      <trkpt lat="47.19273" lon="-1.8526">
        <ele>4.16</ele>
        <time>2020-06-03T15:42:41Z</time>
      </trkpt>
      <trkpt lat="47.19266" lon="-1.85279">
        <ele>4.11</ele>
        <time>2020-06-03T15:42:43Z</time>
      </trkpt>
      <trkpt lat="47.1926" lon="-1.85298">
        <ele>2.85</ele>
        <time>2020-06-03T15:42:45Z</time>
      </trkpt>
      <trkpt lat="47.19256" lon="-1.85314">
        <ele>1.93</ele>
        <time>2020-06-03T15:42:47Z</time>
      </trkpt>
      <trkpt lat="47.19251" lon="-1.8533">
        <ele>1.18</ele>
        <time>2020-06-03T15:42:49Z</time>
      </trkpt>
      <trkpt lat="47.19245" lon="-1.85345">
        <ele>2.1</ele>
        <time>2020-06-03T15:42:51Z</time>
      </trkpt>
      <trkpt lat="47.19238" lon="-1.85361">
        <ele>2.21</ele>
        <time>2020-06-03T15:42:53Z</time>
      </trkpt>
      <trkpt lat="47.1923" lon="-1.85377">
        <ele>2.44</ele>
        <time>2020-06-03T15:42:55Z</time>
      </trkpt>
      <trkpt lat="47.19222" lon="-1.85394">
        <ele>2.73</ele>
        <time>2020-06-03T15:42:57Z</time>
      </trkpt>
      <trkpt lat="47.19213" lon="-1.85404">
        <ele>2.3</ele>
        <time>2020-06-03T15:42:59Z</time>
      </trkpt>
      <trkpt lat="47.19203" lon="-1.85416">
        <ele>0.86</ele>
        <time>2020-06-03T15:43:01Z</time>
      </trkpt>
      <trkpt lat="47.19191" lon="-1.85428">
        <ele>1.88</ele>
        <time>2020-06-03T15:43:03Z</time>
      </trkpt>
      <trkpt lat="47.19181" lon="-1.85441">
        <ele>2.88</ele>
        <time>2020-06-03T15:43:05Z</time>
      </trkpt>
      <trkpt lat="47.19172" lon="-1.85454">
        <ele>2.71</ele>
        <time>2020-06-03T15:43:07Z</time>
      </trkpt>
      <trkpt lat="47.19162" lon="-1.85466">
        <ele>2.29</ele>
        <time>2020-06-03T15:43:09Z</time>
      </trkpt>
      <trkpt lat="47.19155" lon="-1.85477">
        <ele>1.34</ele>
        <time>2020-06-03T15:43:11Z</time>
      </trkpt>
      <trkpt lat="47.19147" lon="-1.85489">
        <ele>1.48</ele>
        <time>2020-06-03T15:43:13Z</time>
      </trkpt>
      <trkpt lat="47.19139" lon="-1.855">
        <ele>1.84</ele>
        <time>2020-06-03T15:43:15Z</time>
      </trkpt>
      <trkpt lat="47.1913" lon="-1.85511">
        <ele>2.27</ele>
        <time>2020-06-03T15:43:17Z</time>
      </trkpt>
      <trkpt lat="47.19123" lon="-1.8552">
        <ele>2.22</ele>
        <time>2020-06-03T15:43:19Z</time>
      </trkpt>
      <trkpt lat="47.19114" lon="-1.8553">
        <ele>2.42</ele>
        <time>2020-06-03T15:43:21Z</time>
      </trkpt>
      <trkpt lat="47.19105" lon="-1.85539">
        <ele>2.51</ele>
        <time>2020-06-03T15:43:23Z</time>
      </trkpt>
      <trkpt lat="47.19094" lon="-1.85551">
        <ele>2.4</ele>
        <time>2020-06-03T15:43:25Z</time>
      </trkpt>
      <trkpt lat="47.19084" lon="-1.85562">
        <ele>1.75</ele>
        <time>2020-06-03T15:43:27Z</time>
      </trkpt>
      <trkpt lat="47.19073" lon="-1.85572">
        <ele>1.78</ele>
        <time>2020-06-03T15:43:29Z</time>
      </trkpt>
      <trkpt lat="47.19063" lon="-1.8558">
        <ele>1.71</ele>
        <time>2020-06-03T15:43:31Z</time>
      </trkpt>
      <trkpt lat="47.19052" lon="-1.8559">
        <ele>1.58</ele>
        <time>2020-06-03T15:43:33Z</time>
      </trkpt>
      <trkpt lat="47.19042" lon="-1.85599">
        <ele>2.29</ele>
        <time>2020-06-03T15:43:35Z</time>
      </trkpt>
      <trkpt lat="47.19031" lon="-1.85608">
        <ele>2.82</ele>
        <time>2020-06-03T15:43:37Z</time>
      </trkpt>
      <trkpt lat="47.1902" lon="-1.85617">
        <ele>3.14</ele>
        <time>2020-06-03T15:43:39Z</time>
      </trkpt>
      <trkpt lat="47.1901" lon="-1.85627">
        <ele>3.53</ele>
        <time>2020-06-03T15:43:41Z</time>
      </trkpt>
      <trkpt lat="47.18999" lon="-1.85637">
        <ele>3.2</ele>
        <time>2020-06-03T15:43:43Z</time>
      </trkpt>
      <trkpt lat="47.18987" lon="-1.85646">
        <ele>2.52</ele>
        <time>2020-06-03T15:43:45Z</time>
      </trkpt>
      <trkpt lat="47.18976" lon="-1.85653">
        <ele>2.04</ele>
        <time>2020-06-03T15:43:47Z</time>
      </trkpt>
      <trkpt lat="47.18965" lon="-1.85662">
        <ele>1.39</ele>
        <time>2020-06-03T15:43:49Z</time>
      </trkpt>
      <trkpt lat="47.18952" lon="-1.85671">
        <ele>1.1</ele>
        <time>2020-06-03T15:43:51Z</time>
      </trkpt>
      <trkpt lat="47.1894" lon="-1.8568">
        <ele>0.99</ele>
        <time>2020-06-03T15:43:53Z</time>
      </trkpt>
      <trkpt lat="47.18928" lon="-1.85688">
        <ele>0.36</ele>
        <time>2020-06-03T15:43:55Z</time>
      </trkpt>
      <trkpt lat="47.18916" lon="-1.85696">
        <ele>-0.48</ele>
        <time>2020-06-03T15:43:57Z</time>
      </trkpt>
      <trkpt lat="47.18905" lon="-1.85703">
        <ele>-0.08</ele>
        <time>2020-06-03T15:43:59Z</time>
      </trkpt>
      <trkpt lat="47.18893" lon="-1.85712">
        <ele>0.69</ele>
        <time>2020-06-03T15:44:01Z</time>
      </trkpt>
      <trkpt lat="47.18881" lon="-1.85721">
        <ele>1.33</ele>
        <time>2020-06-03T15:44:03Z</time>
      </trkpt>
      <trkpt lat="47.18871" lon="-1.8573">
        <ele>2.22</ele>
        <time>2020-06-03T15:44:05Z</time>
      </trkpt>
      <trkpt lat="47.1886" lon="-1.85739">
        <ele>2.08</ele>
        <time>2020-06-03T15:44:07Z</time>
      </trkpt>
      <trkpt lat="47.18849" lon="-1.85747">
        <ele>1.35</ele>
        <time>2020-06-03T15:44:09Z</time>
      </trkpt>
      <trkpt lat="47.18837" lon="-1.85755">
        <ele>0.56</ele>
        <time>2020-06-03T15:44:11Z</time>
      </trkpt>
      <trkpt lat="47.18825" lon="-1.85763">
        <ele>0.28</ele>
        <time>2020-06-03T15:44:13Z</time>
      </trkpt>
      <trkpt lat="47.18814" lon="-1.85771">
        <ele>0.56</ele>
        <time>2020-06-03T15:44:15Z</time>
      </trkpt>
      <trkpt lat="47.18804" lon="-1.85779">
        <ele>0.15</ele>
        <time>2020-06-03T15:44:17Z</time>
      </trkpt>
      <trkpt lat="47.18793" lon="-1.85787">
        <ele>0.52</ele>
        <time>2020-06-03T15:44:19Z</time>
      </trkpt>
      <trkpt lat="47.18781" lon="-1.85794">
        <ele>0.97</ele>
        <time>2020-06-03T15:44:21Z</time>
      </trkpt>
      <trkpt lat="47.18769" lon="-1.85801">
        <ele>1.78</ele>
        <time>2020-06-03T15:44:23Z</time>
      </trkpt>
      <trkpt lat="47.18759" lon="-1.85807">
        <ele>3.2</ele>
        <time>2020-06-03T15:44:25Z</time>
      </trkpt>
      <trkpt lat="47.18747" lon="-1.85815">
        <ele>3.57</ele>
        <time>2020-06-03T15:44:27Z</time>
      </trkpt>
      <trkpt lat="47.18737" lon="-1.85822">
        <ele>3.48</ele>
        <time>2020-06-03T15:44:29Z</time>
      </trkpt>
      <trkpt lat="47.18725" lon="-1.85831">
        <ele>3.43</ele>
        <time>2020-06-03T15:44:31Z</time>
      </trkpt>
      <trkpt lat="47.18715" lon="-1.8584">
        <ele>3</ele>
        <time>2020-06-03T15:44:33Z</time>
      </trkpt>
      <trkpt lat="47.18704" lon="-1.85848">
        <ele>2.68</ele>
        <time>2020-06-03T15:44:35Z</time>
      </trkpt>
      <trkpt lat="47.18692" lon="-1.85857">
        <ele>2.33</ele>
        <time>2020-06-03T15:44:37Z</time>
      </trkpt>
      <trkpt lat="47.18681" lon="-1.85865">
        <ele>2.43</ele>
        <time>2020-06-03T15:44:39Z</time>
      </trkpt>
      <trkpt lat="47.18671" lon="-1.85872">
        <ele>2.24</ele>
        <time>2020-06-03T15:44:41Z</time>
      </trkpt>
      <trkpt lat="47.18662" lon="-1.85878">
        <ele>2.57</ele>
        <time>2020-06-03T15:44:43Z</time>
      </trkpt>
      <trkpt lat="47.18654" lon="-1.85884">
        <ele>3.34</ele>
        <time>2020-06-03T15:44:45Z</time>
      </trkpt>
      <trkpt lat="47.18642" lon="-1.85894">
        <ele>4.26</ele>
        <time>2020-06-03T15:44:48Z</time>
      </trkpt>
      <trkpt lat="47.1863" lon="-1.85906">
        <ele>3.92</ele>
        <time>2020-06-03T15:44:51Z</time>
      </trkpt>
      <trkpt lat="47.18623" lon="-1.85914">
        <ele>3.85</ele>
        <time>2020-06-03T15:44:53Z</time>
      </trkpt>
      <trkpt lat="47.18616" lon="-1.85923">
        <ele>4.18</ele>
        <time>2020-06-03T15:44:55Z</time>
      </trkpt>
      <trkpt lat="47.18607" lon="-1.85934">
        <ele>4.85</ele>
        <time>2020-06-03T15:44:58Z</time>
      </trkpt>
      <trkpt lat="47.18599" lon="-1.85945">
        <ele>5.93</ele>
        <time>2020-06-03T15:45:01Z</time>
      </trkpt>
      <trkpt lat="47.18591" lon="-1.85959">
        <ele>6.31</ele>
        <time>2020-06-03T15:45:04Z</time>
      </trkpt>
      <trkpt lat="47.18584" lon="-1.85975">
        <ele>6.51</ele>
        <time>2020-06-03T15:45:07Z</time>
      </trkpt>
      <trkpt lat="47.18579" lon="-1.85986">
        <ele>7.2</ele>
        <time>2020-06-03T15:45:09Z</time>
      </trkpt>
      <trkpt lat="47.18573" lon="-1.86001">
        <ele>7.46</ele>
        <time>2020-06-03T15:45:12Z</time>
      </trkpt>
      <trkpt lat="47.18568" lon="-1.86012">
        <ele>7.54</ele>
        <time>2020-06-03T15:45:15Z</time>
      </trkpt>
      <trkpt lat="47.18561" lon="-1.86025">
        <ele>8.96</ele>
        <time>2020-06-03T15:45:18Z</time>
      </trkpt>
      <trkpt lat="47.18555" lon="-1.8604">
        <ele>10.03</ele>
        <time>2020-06-03T15:45:21Z</time>
      </trkpt>
      <trkpt lat="47.18549" lon="-1.86054">
        <ele>10.34</ele>
        <time>2020-06-03T15:45:24Z</time>
      </trkpt>
      <trkpt lat="47.18542" lon="-1.86069">
        <ele>12.23</ele>
        <time>2020-06-03T15:45:27Z</time>
      </trkpt>
      <trkpt lat="47.18534" lon="-1.86084">
        <ele>12.13</ele>
        <time>2020-06-03T15:45:30Z</time>
      </trkpt>
      <trkpt lat="47.18528" lon="-1.86098">
        <ele>11.57</ele>
        <time>2020-06-03T15:45:33Z</time>
      </trkpt>
      <trkpt lat="47.18522" lon="-1.86109">
        <ele>11.51</ele>
        <time>2020-06-03T15:45:36Z</time>
      </trkpt>
      <trkpt lat="47.18514" lon="-1.86119">
        <ele>11.58</ele>
        <time>2020-06-03T15:45:39Z</time>
      </trkpt>
      <trkpt lat="47.18505" lon="-1.86127">
        <ele>11.73</ele>
        <time>2020-06-03T15:45:42Z</time>
      </trkpt>
      <trkpt lat="47.18496" lon="-1.86133">
        <ele>11.96</ele>
        <time>2020-06-03T15:45:45Z</time>
      </trkpt>
      <trkpt lat="47.18485" lon="-1.86139">
        <ele>13.47</ele>
        <time>2020-06-03T15:45:48Z</time>
      </trkpt>
      <trkpt lat="47.18473" lon="-1.86144">
        <ele>14.53</ele>
        <time>2020-06-03T15:45:51Z</time>
      </trkpt>
      <trkpt lat="47.18463" lon="-1.86149">
        <ele>14.77</ele>
        <time>2020-06-03T15:45:54Z</time>
      </trkpt>
      <trkpt lat="47.18453" lon="-1.86153">
        <ele>14.59</ele>
        <time>2020-06-03T15:45:57Z</time>
      </trkpt>
      <trkpt lat="47.18442" lon="-1.86156">
        <ele>14.51</ele>
        <time>2020-06-03T15:46:00Z</time>
      </trkpt>
      <trkpt lat="47.18431" lon="-1.86159">
        <ele>15.3</ele>
        <time>2020-06-03T15:46:03Z</time>
      </trkpt>
      <trkpt lat="47.1842" lon="-1.86163">
        <ele>15.58</ele>
        <time>2020-06-03T15:46:06Z</time>
      </trkpt>
      <trkpt lat="47.18409" lon="-1.86165">
        <ele>17.55</ele>
        <time>2020-06-03T15:46:09Z</time>
      </trkpt>
      <trkpt lat="47.18396" lon="-1.8617">
        <ele>18.19</ele>
        <time>2020-06-03T15:46:12Z</time>
      </trkpt>
      <trkpt lat="47.18384" lon="-1.86176">
        <ele>19.08</ele>
        <time>2020-06-03T15:46:15Z</time>
      </trkpt>
      <trkpt lat="47.18372" lon="-1.86181">
        <ele>19.39</ele>
        <time>2020-06-03T15:46:18Z</time>
      </trkpt>
      <trkpt lat="47.18362" lon="-1.86186">
        <ele>19.43</ele>
        <time>2020-06-03T15:46:20Z</time>
      </trkpt>
      <trkpt lat="47.1835" lon="-1.86194">
        <ele>19.51</ele>
        <time>2020-06-03T15:46:23Z</time>
      </trkpt>
      <trkpt lat="47.18341" lon="-1.862">
        <ele>18.88</ele>
        <time>2020-06-03T15:46:25Z</time>
      </trkpt>
      <trkpt lat="47.18329" lon="-1.86206">
        <ele>18.78</ele>
        <time>2020-06-03T15:46:27Z</time>
      </trkpt>
      <trkpt lat="47.18319" lon="-1.86211">
        <ele>19.38</ele>
        <time>2020-06-03T15:46:29Z</time>
      </trkpt>
      <trkpt lat="47.18309" lon="-1.86215">
        <ele>20.31</ele>
        <time>2020-06-03T15:46:31Z</time>
      </trkpt>
      <trkpt lat="47.18299" lon="-1.8622">
        <ele>20.5</ele>
        <time>2020-06-03T15:46:33Z</time>
      </trkpt>
      <trkpt lat="47.18288" lon="-1.86225">
        <ele>20.66</ele>
        <time>2020-06-03T15:46:35Z</time>
      </trkpt>
      <trkpt lat="47.18279" lon="-1.86229">
        <ele>20.35</ele>
        <time>2020-06-03T15:46:37Z</time>
      </trkpt>
      <trkpt lat="47.18268" lon="-1.86233">
        <ele>20.35</ele>
        <time>2020-06-03T15:46:39Z</time>
      </trkpt>
      <trkpt lat="47.18258" lon="-1.86239">
        <ele>21.46</ele>
        <time>2020-06-03T15:46:41Z</time>
      </trkpt>
      <trkpt lat="47.18247" lon="-1.86244">
        <ele>21.52</ele>
        <time>2020-06-03T15:46:43Z</time>
      </trkpt>
      <trkpt lat="47.18237" lon="-1.86249">
        <ele>21.24</ele>
        <time>2020-06-03T15:46:45Z</time>
      </trkpt>
      <trkpt lat="47.18228" lon="-1.86253">
        <ele>20.49</ele>
        <time>2020-06-03T15:46:47Z</time>
      </trkpt>
      <trkpt lat="47.18217" lon="-1.86257">
        <ele>19.35</ele>
        <time>2020-06-03T15:46:49Z</time>
      </trkpt>
      <trkpt lat="47.18207" lon="-1.8626">
        <ele>20.57</ele>
        <time>2020-06-03T15:46:51Z</time>
      </trkpt>
      <trkpt lat="47.18197" lon="-1.86264">
        <ele>20.68</ele>
        <time>2020-06-03T15:46:53Z</time>
      </trkpt>
      <trkpt lat="47.18188" lon="-1.86268">
        <ele>20.15</ele>
        <time>2020-06-03T15:46:55Z</time>
      </trkpt>
      <trkpt lat="47.18176" lon="-1.86274">
        <ele>20.27</ele>
        <time>2020-06-03T15:46:57Z</time>
      </trkpt>
      <trkpt lat="47.18165" lon="-1.86278">
        <ele>19.77</ele>
        <time>2020-06-03T15:46:59Z</time>
      </trkpt>
      <trkpt lat="47.18154" lon="-1.86283">
        <ele>19.51</ele>
        <time>2020-06-03T15:47:01Z</time>
      </trkpt>
      <trkpt lat="47.18144" lon="-1.8629">
        <ele>18.87</ele>
        <time>2020-06-03T15:47:03Z</time>
      </trkpt>
      <trkpt lat="47.18134" lon="-1.86298">
        <ele>18.3</ele>
        <time>2020-06-03T15:47:05Z</time>
      </trkpt>
      <trkpt lat="47.18125" lon="-1.86303">
        <ele>19.5</ele>
        <time>2020-06-03T15:47:07Z</time>
      </trkpt>
      <trkpt lat="47.18113" lon="-1.8631">
        <ele>19.66</ele>
        <time>2020-06-03T15:47:09Z</time>
      </trkpt>
      <trkpt lat="47.18105" lon="-1.86315">
        <ele>20.83</ele>
        <time>2020-06-03T15:47:11Z</time>
      </trkpt>
      <trkpt lat="47.18094" lon="-1.86319">
        <ele>20.53</ele>
        <time>2020-06-03T15:47:13Z</time>
      </trkpt>
      <trkpt lat="47.18083" lon="-1.86323">
        <ele>20.22</ele>
        <time>2020-06-03T15:47:15Z</time>
      </trkpt>
      <trkpt lat="47.18073" lon="-1.86327">
        <ele>20.06</ele>
        <time>2020-06-03T15:47:17Z</time>
      </trkpt>
      <trkpt lat="47.18064" lon="-1.86328">
        <ele>20.13</ele>
        <time>2020-06-03T15:47:19Z</time>
      </trkpt>
      <trkpt lat="47.18053" lon="-1.86328">
        <ele>20.09</ele>
        <time>2020-06-03T15:47:21Z</time>
      </trkpt>
      <trkpt lat="47.18041" lon="-1.86329">
        <ele>20.32</ele>
        <time>2020-06-03T15:47:23Z</time>
      </trkpt>
      <trkpt lat="47.1803" lon="-1.86328">
        <ele>20.66</ele>
        <time>2020-06-03T15:47:25Z</time>
      </trkpt>
      <trkpt lat="47.18019" lon="-1.86328">
        <ele>20.97</ele>
        <time>2020-06-03T15:47:27Z</time>
      </trkpt>
      <trkpt lat="47.18008" lon="-1.86329">
        <ele>21.63</ele>
        <time>2020-06-03T15:47:29Z</time>
      </trkpt>
      <trkpt lat="47.17997" lon="-1.86332">
        <ele>21.33</ele>
        <time>2020-06-03T15:47:31Z</time>
      </trkpt>
      <trkpt lat="47.17986" lon="-1.86337">
        <ele>20.65</ele>
        <time>2020-06-03T15:47:33Z</time>
      </trkpt>
      <trkpt lat="47.17973" lon="-1.86343">
        <ele>20.73</ele>
        <time>2020-06-03T15:47:35Z</time>
      </trkpt>
      <trkpt lat="47.17962" lon="-1.86351">
        <ele>20.38</ele>
        <time>2020-06-03T15:47:37Z</time>
      </trkpt>
      <trkpt lat="47.17951" lon="-1.86361">
        <ele>20.79</ele>
        <time>2020-06-03T15:47:39Z</time>
      </trkpt>
      <trkpt lat="47.17943" lon="-1.86372">
        <ele>20.83</ele>
        <time>2020-06-03T15:47:41Z</time>
      </trkpt>
      <trkpt lat="47.17934" lon="-1.86384">
        <ele>19.91</ele>
        <time>2020-06-03T15:47:43Z</time>
      </trkpt>
      <trkpt lat="47.17925" lon="-1.86398">
        <ele>19.84</ele>
        <time>2020-06-03T15:47:45Z</time>
      </trkpt>
      <trkpt lat="47.17917" lon="-1.86409">
        <ele>20.2</ele>
        <time>2020-06-03T15:47:47Z</time>
      </trkpt>
      <trkpt lat="47.17908" lon="-1.86423">
        <ele>21.31</ele>
        <time>2020-06-03T15:47:49Z</time>
      </trkpt>
      <trkpt lat="47.179" lon="-1.86433">
        <ele>21.64</ele>
        <time>2020-06-03T15:47:51Z</time>
      </trkpt>
      <trkpt lat="47.17892" lon="-1.86443">
        <ele>22.36</ele>
        <time>2020-06-03T15:47:53Z</time>
      </trkpt>
      <trkpt lat="47.17884" lon="-1.86455">
        <ele>22.63</ele>
        <time>2020-06-03T15:47:55Z</time>
      </trkpt>
      <trkpt lat="47.17876" lon="-1.86467">
        <ele>23.54</ele>
        <time>2020-06-03T15:47:57Z</time>
      </trkpt>
      <trkpt lat="47.17868" lon="-1.86478">
        <ele>23.52</ele>
        <time>2020-06-03T15:47:59Z</time>
      </trkpt>
      <trkpt lat="47.17861" lon="-1.86489">
        <ele>23.16</ele>
        <time>2020-06-03T15:48:01Z</time>
      </trkpt>
      <trkpt lat="47.17852" lon="-1.86501">
        <ele>23.21</ele>
        <time>2020-06-03T15:48:03Z</time>
      </trkpt>
      <trkpt lat="47.17844" lon="-1.8651">
        <ele>22.66</ele>
        <time>2020-06-03T15:48:05Z</time>
      </trkpt>
      <trkpt lat="47.17834" lon="-1.8652">
        <ele>21.54</ele>
        <time>2020-06-03T15:48:07Z</time>
      </trkpt>
      <trkpt lat="47.17824" lon="-1.86527">
        <ele>21.49</ele>
        <time>2020-06-03T15:48:09Z</time>
      </trkpt>
      <trkpt lat="47.17814" lon="-1.86534">
        <ele>20.93</ele>
        <time>2020-06-03T15:48:11Z</time>
      </trkpt>
      <trkpt lat="47.17803" lon="-1.86542">
        <ele>20.53</ele>
        <time>2020-06-03T15:48:13Z</time>
      </trkpt>
      <trkpt lat="47.17794" lon="-1.86548">
        <ele>20.27</ele>
        <time>2020-06-03T15:48:15Z</time>
      </trkpt>
      <trkpt lat="47.17784" lon="-1.86555">
        <ele>20.32</ele>
        <time>2020-06-03T15:48:17Z</time>
      </trkpt>
      <trkpt lat="47.17774" lon="-1.86562">
        <ele>20.11</ele>
        <time>2020-06-03T15:48:19Z</time>
      </trkpt>
      <trkpt lat="47.17766" lon="-1.86572">
        <ele>19.44</ele>
        <time>2020-06-03T15:48:21Z</time>
      </trkpt>
      <trkpt lat="47.17755" lon="-1.86586">
        <ele>19.44</ele>
        <time>2020-06-03T15:48:24Z</time>
      </trkpt>
      <trkpt lat="47.17746" lon="-1.86597">
        <ele>20.22</ele>
        <time>2020-06-03T15:48:26Z</time>
      </trkpt>
      <trkpt lat="47.17739" lon="-1.86606">
        <ele>21.05</ele>
        <time>2020-06-03T15:48:28Z</time>
      </trkpt>
      <trkpt lat="47.17731" lon="-1.86619">
        <ele>23.53</ele>
        <time>2020-06-03T15:48:31Z</time>
      </trkpt>
      <trkpt lat="47.17721" lon="-1.86632">
        <ele>24.56</ele>
        <time>2020-06-03T15:48:34Z</time>
      </trkpt>
      <trkpt lat="47.17712" lon="-1.86646">
        <ele>24.23</ele>
        <time>2020-06-03T15:48:37Z</time>
      </trkpt>
      <trkpt lat="47.17704" lon="-1.86658">
        <ele>25.67</ele>
        <time>2020-06-03T15:48:40Z</time>
      </trkpt>
      <trkpt lat="47.17696" lon="-1.8667">
        <ele>27.69</ele>
        <time>2020-06-03T15:48:43Z</time>
      </trkpt>
      <trkpt lat="47.17687" lon="-1.86681">
        <ele>29.04</ele>
        <time>2020-06-03T15:48:45Z</time>
      </trkpt>
      <trkpt lat="47.17679" lon="-1.86691">
        <ele>29.74</ele>
        <time>2020-06-03T15:48:48Z</time>
      </trkpt>
      <trkpt lat="47.17672" lon="-1.86704">
        <ele>29.61</ele>
        <time>2020-06-03T15:48:52Z</time>
      </trkpt>
      <trkpt lat="47.17664" lon="-1.86716">
        <ele>29.48</ele>
        <time>2020-06-03T15:48:55Z</time>
      </trkpt>
      <trkpt lat="47.17657" lon="-1.86726">
        <ele>29.62</ele>
        <time>2020-06-03T15:48:57Z</time>
      </trkpt>
      <trkpt lat="47.17651" lon="-1.86736">
        <ele>29.67</ele>
        <time>2020-06-03T15:48:59Z</time>
      </trkpt>
      <trkpt lat="47.17642" lon="-1.86749">
        <ele>29.79</ele>
        <time>2020-06-03T15:49:02Z</time>
      </trkpt>
      <trkpt lat="47.17633" lon="-1.8676">
        <ele>29.92</ele>
        <time>2020-06-03T15:49:05Z</time>
      </trkpt>
      <trkpt lat="47.17625" lon="-1.86771">
        <ele>30.1</ele>
        <time>2020-06-03T15:49:08Z</time>
      </trkpt>
      <trkpt lat="47.17615" lon="-1.86783">
        <ele>30.2</ele>
        <time>2020-06-03T15:49:12Z</time>
      </trkpt>
      <trkpt lat="47.17606" lon="-1.86793">
        <ele>32.33</ele>
        <time>2020-06-03T15:49:15Z</time>
      </trkpt>
      <trkpt lat="47.17598" lon="-1.86802">
        <ele>32.63</ele>
        <time>2020-06-03T15:49:18Z</time>
      </trkpt>
      <trkpt lat="47.17589" lon="-1.86813">
        <ele>32.81</ele>
        <time>2020-06-03T15:49:21Z</time>
      </trkpt>
      <trkpt lat="47.17581" lon="-1.86824">
        <ele>33.03</ele>
        <time>2020-06-03T15:49:24Z</time>
      </trkpt>
      <trkpt lat="47.17572" lon="-1.86835">
        <ele>33.17</ele>
        <time>2020-06-03T15:49:27Z</time>
      </trkpt>
      <trkpt lat="47.17563" lon="-1.86846">
        <ele>33.6</ele>
        <time>2020-06-03T15:49:30Z</time>
      </trkpt>
      <trkpt lat="47.17553" lon="-1.86856">
        <ele>33.83</ele>
        <time>2020-06-03T15:49:33Z</time>
      </trkpt>
      <trkpt lat="47.17546" lon="-1.86866">
        <ele>34.97</ele>
        <time>2020-06-03T15:49:35Z</time>
      </trkpt>
      <trkpt lat="47.17538" lon="-1.86875">
        <ele>35.81</ele>
        <time>2020-06-03T15:49:37Z</time>
      </trkpt>
      <trkpt lat="47.1753" lon="-1.86886">
        <ele>35.82</ele>
        <time>2020-06-03T15:49:40Z</time>
      </trkpt>
      <trkpt lat="47.17522" lon="-1.86898">
        <ele>37.08</ele>
        <time>2020-06-03T15:49:43Z</time>
      </trkpt>
      <trkpt lat="47.17512" lon="-1.86912">
        <ele>38.13</ele>
        <time>2020-06-03T15:49:46Z</time>
      </trkpt>
      <trkpt lat="47.17504" lon="-1.86923">
        <ele>37.87</ele>
        <time>2020-06-03T15:49:49Z</time>
      </trkpt>
      <trkpt lat="47.17497" lon="-1.86933">
        <ele>37.93</ele>
        <time>2020-06-03T15:49:51Z</time>
      </trkpt>
      <trkpt lat="47.17487" lon="-1.86945">
        <ele>39.13</ele>
        <time>2020-06-03T15:49:53Z</time>
      </trkpt>
      <trkpt lat="47.17479" lon="-1.86955">
        <ele>39.55</ele>
        <time>2020-06-03T15:49:55Z</time>
      </trkpt>
      <trkpt lat="47.17471" lon="-1.86965">
        <ele>40.02</ele>
        <time>2020-06-03T15:49:57Z</time>
      </trkpt>
      <trkpt lat="47.17462" lon="-1.86977">
        <ele>40.82</ele>
        <time>2020-06-03T15:49:59Z</time>
      </trkpt>
      <trkpt lat="47.17453" lon="-1.86988">
        <ele>41.73</ele>
        <time>2020-06-03T15:50:01Z</time>
      </trkpt>
      <trkpt lat="47.17445" lon="-1.86997">
        <ele>42.7</ele>
        <time>2020-06-03T15:50:03Z</time>
      </trkpt>
      <trkpt lat="47.17436" lon="-1.87006">
        <ele>42.59</ele>
        <time>2020-06-03T15:50:05Z</time>
      </trkpt>
      <trkpt lat="47.17427" lon="-1.87015">
        <ele>43.43</ele>
        <time>2020-06-03T15:50:07Z</time>
      </trkpt>
      <trkpt lat="47.17417" lon="-1.87024">
        <ele>43.19</ele>
        <time>2020-06-03T15:50:09Z</time>
      </trkpt>
      <trkpt lat="47.17409" lon="-1.87031">
        <ele>42.14</ele>
        <time>2020-06-03T15:50:11Z</time>
      </trkpt>
      <trkpt lat="47.174" lon="-1.87041">
        <ele>42.03</ele>
        <time>2020-06-03T15:50:13Z</time>
      </trkpt>
      <trkpt lat="47.17392" lon="-1.87049">
        <ele>42.98</ele>
        <time>2020-06-03T15:50:15Z</time>
      </trkpt>
      <trkpt lat="47.17383" lon="-1.87057">
        <ele>43.19</ele>
        <time>2020-06-03T15:50:17Z</time>
      </trkpt>
      <trkpt lat="47.17373" lon="-1.87066">
        <ele>43.37</ele>
        <time>2020-06-03T15:50:19Z</time>
      </trkpt>
      <trkpt lat="47.17364" lon="-1.87075">
        <ele>43.26</ele>
        <time>2020-06-03T15:50:21Z</time>
      </trkpt>
      <trkpt lat="47.17355" lon="-1.87084">
        <ele>42.9</ele>
        <time>2020-06-03T15:50:23Z</time>
      </trkpt>
      <trkpt lat="47.17346" lon="-1.87093">
        <ele>41.85</ele>
        <time>2020-06-03T15:50:25Z</time>
      </trkpt>
      <trkpt lat="47.17337" lon="-1.87102">
        <ele>41.3</ele>
        <time>2020-06-03T15:50:27Z</time>
      </trkpt>
      <trkpt lat="47.17328" lon="-1.87112">
        <ele>40.58</ele>
        <time>2020-06-03T15:50:29Z</time>
      </trkpt>
      <trkpt lat="47.17321" lon="-1.87119">
        <ele>40.86</ele>
        <time>2020-06-03T15:50:31Z</time>
      </trkpt>
      <trkpt lat="47.17311" lon="-1.87129">
        <ele>42.4</ele>
        <time>2020-06-03T15:50:33Z</time>
      </trkpt>
      <trkpt lat="47.17303" lon="-1.87137">
        <ele>43.88</ele>
        <time>2020-06-03T15:50:35Z</time>
      </trkpt>
      <trkpt lat="47.17292" lon="-1.87148">
        <ele>45.6</ele>
        <time>2020-06-03T15:50:38Z</time>
      </trkpt>
      <trkpt lat="47.17279" lon="-1.87156">
        <ele>46.63</ele>
        <time>2020-06-03T15:50:41Z</time>
      </trkpt>
      <trkpt lat="47.17269" lon="-1.87156">
        <ele>47.16</ele>
        <time>2020-06-03T15:50:43Z</time>
      </trkpt>
      <trkpt lat="47.17258" lon="-1.87155">
        <ele>47.73</ele>
        <time>2020-06-03T15:50:45Z</time>
      </trkpt>
      <trkpt lat="47.17244" lon="-1.87154">
        <ele>47.29</ele>
        <time>2020-06-03T15:50:48Z</time>
      </trkpt>
      <trkpt lat="47.17235" lon="-1.87155">
        <ele>47.65</ele>
        <time>2020-06-03T15:50:50Z</time>
      </trkpt>
      <trkpt lat="47.17224" lon="-1.87164">
        <ele>47.53</ele>
        <time>2020-06-03T15:50:52Z</time>
      </trkpt>
      <trkpt lat="47.17215" lon="-1.87171">
        <ele>48.08</ele>
        <time>2020-06-03T15:50:54Z</time>
      </trkpt>
      <trkpt lat="47.17206" lon="-1.87175">
        <ele>48.5</ele>
        <time>2020-06-03T15:50:56Z</time>
      </trkpt>
      <trkpt lat="47.17195" lon="-1.87175">
        <ele>49.04</ele>
        <time>2020-06-03T15:50:58Z</time>
      </trkpt>
      <trkpt lat="47.17184" lon="-1.87179">
        <ele>49.29</ele>
        <time>2020-06-03T15:51:00Z</time>
      </trkpt>
      <trkpt lat="47.17176" lon="-1.87188">
        <ele>49.04</ele>
        <time>2020-06-03T15:51:02Z</time>
      </trkpt>
      <trkpt lat="47.17167" lon="-1.87197">
        <ele>48.93</ele>
        <time>2020-06-03T15:51:04Z</time>
      </trkpt>
      <trkpt lat="47.17158" lon="-1.87205">
        <ele>48.98</ele>
        <time>2020-06-03T15:51:06Z</time>
      </trkpt>
      <trkpt lat="47.17149" lon="-1.87214">
        <ele>48.62</ele>
        <time>2020-06-03T15:51:08Z</time>
      </trkpt>
      <trkpt lat="47.17141" lon="-1.87224">
        <ele>48.85</ele>
        <time>2020-06-03T15:51:10Z</time>
      </trkpt>
      <trkpt lat="47.17132" lon="-1.87234">
        <ele>49.45</ele>
        <time>2020-06-03T15:51:12Z</time>
      </trkpt>
      <trkpt lat="47.17125" lon="-1.87242">
        <ele>50.04</ele>
        <time>2020-06-03T15:51:14Z</time>
      </trkpt>
      <trkpt lat="47.17118" lon="-1.87251">
        <ele>50.11</ele>
        <time>2020-06-03T15:51:16Z</time>
      </trkpt>
      <trkpt lat="47.17109" lon="-1.8726">
        <ele>49.75</ele>
        <time>2020-06-03T15:51:18Z</time>
      </trkpt>
      <trkpt lat="47.17101" lon="-1.87268">
        <ele>50.06</ele>
        <time>2020-06-03T15:51:20Z</time>
      </trkpt>
      <trkpt lat="47.17093" lon="-1.87277">
        <ele>50.62</ele>
        <time>2020-06-03T15:51:22Z</time>
      </trkpt>
      <trkpt lat="47.17084" lon="-1.87285">
        <ele>51.02</ele>
        <time>2020-06-03T15:51:24Z</time>
      </trkpt>
      <trkpt lat="47.17074" lon="-1.87293">
        <ele>51.62</ele>
        <time>2020-06-03T15:51:26Z</time>
      </trkpt>
      <trkpt lat="47.17064" lon="-1.87301">
        <ele>51.98</ele>
        <time>2020-06-03T15:51:28Z</time>
      </trkpt>
      <trkpt lat="47.17055" lon="-1.87307">
        <ele>52.19</ele>
        <time>2020-06-03T15:51:30Z</time>
      </trkpt>
      <trkpt lat="47.17046" lon="-1.87312">
        <ele>51.46</ele>
        <time>2020-06-03T15:51:32Z</time>
      </trkpt>
      <trkpt lat="47.17036" lon="-1.87317">
        <ele>50.79</ele>
        <time>2020-06-03T15:51:34Z</time>
      </trkpt>
      <trkpt lat="47.17026" lon="-1.87322">
        <ele>49.9</ele>
        <time>2020-06-03T15:51:36Z</time>
      </trkpt>
      <trkpt lat="47.17016" lon="-1.87325">
        <ele>48.75</ele>
        <time>2020-06-03T15:51:38Z</time>
      </trkpt>
      <trkpt lat="47.17004" lon="-1.87327">
        <ele>47.48</ele>
        <time>2020-06-03T15:51:40Z</time>
      </trkpt>
      <trkpt lat="47.16991" lon="-1.87329">
        <ele>47.29</ele>
        <time>2020-06-03T15:51:42Z</time>
      </trkpt>
      <trkpt lat="47.16978" lon="-1.87329">
        <ele>47.37</ele>
        <time>2020-06-03T15:51:44Z</time>
      </trkpt>
      <trkpt lat="47.16963" lon="-1.8733">
        <ele>47.41</ele>
        <time>2020-06-03T15:51:46Z</time>
      </trkpt>
      <trkpt lat="47.1695" lon="-1.87331">
        <ele>47.73</ele>
        <time>2020-06-03T15:51:48Z</time>
      </trkpt>
      <trkpt lat="47.16937" lon="-1.87329">
        <ele>47.79</ele>
        <time>2020-06-03T15:51:50Z</time>
      </trkpt>
      <trkpt lat="47.16924" lon="-1.87329">
        <ele>48.49</ele>
        <time>2020-06-03T15:51:52Z</time>
      </trkpt>
      <trkpt lat="47.16911" lon="-1.8733">
        <ele>48.03</ele>
        <time>2020-06-03T15:51:54Z</time>
      </trkpt>
      <trkpt lat="47.16897" lon="-1.8733">
        <ele>48.06</ele>
        <time>2020-06-03T15:51:56Z</time>
      </trkpt>
      <trkpt lat="47.16884" lon="-1.87331">
        <ele>48.47</ele>
        <time>2020-06-03T15:51:59Z</time>
      </trkpt>
      <trkpt lat="47.16872" lon="-1.87332">
        <ele>48.74</ele>
        <time>2020-06-03T15:52:01Z</time>
      </trkpt>
      <trkpt lat="47.16858" lon="-1.87333">
        <ele>48.71</ele>
        <time>2020-06-03T15:52:03Z</time>
      </trkpt>
      <trkpt lat="47.16846" lon="-1.87333">
        <ele>48.81</ele>
        <time>2020-06-03T15:52:05Z</time>
      </trkpt>
      <trkpt lat="47.16831" lon="-1.87334">
        <ele>48.57</ele>
        <time>2020-06-03T15:52:07Z</time>
      </trkpt>
      <trkpt lat="47.16818" lon="-1.87334">
        <ele>47.65</ele>
        <time>2020-06-03T15:52:09Z</time>
      </trkpt>
      <trkpt lat="47.16806" lon="-1.87335">
        <ele>46.05</ele>
        <time>2020-06-03T15:52:11Z</time>
      </trkpt>
      <trkpt lat="47.16792" lon="-1.87336">
        <ele>44.89</ele>
        <time>2020-06-03T15:52:13Z</time>
      </trkpt>
      <trkpt lat="47.16779" lon="-1.87337">
        <ele>44.26</ele>
        <time>2020-06-03T15:52:15Z</time>
      </trkpt>
      <trkpt lat="47.16766" lon="-1.87338">
        <ele>44.17</ele>
        <time>2020-06-03T15:52:17Z</time>
      </trkpt>
      <trkpt lat="47.16753" lon="-1.87339">
        <ele>45.64</ele>
        <time>2020-06-03T15:52:19Z</time>
      </trkpt>
      <trkpt lat="47.16741" lon="-1.87339">
        <ele>46.66</ele>
        <time>2020-06-03T15:52:21Z</time>
      </trkpt>
      <trkpt lat="47.16728" lon="-1.87339">
        <ele>46.94</ele>
        <time>2020-06-03T15:52:23Z</time>
      </trkpt>
      <trkpt lat="47.16714" lon="-1.8734">
        <ele>46.25</ele>
        <time>2020-06-03T15:52:25Z</time>
      </trkpt>
      <trkpt lat="47.16701" lon="-1.87341">
        <ele>45.2</ele>
        <time>2020-06-03T15:52:27Z</time>
      </trkpt>
      <trkpt lat="47.16689" lon="-1.87341">
        <ele>43.93</ele>
        <time>2020-06-03T15:52:29Z</time>
      </trkpt>
      <trkpt lat="47.16675" lon="-1.87341">
        <ele>42.59</ele>
        <time>2020-06-03T15:52:31Z</time>
      </trkpt>
      <trkpt lat="47.1666" lon="-1.87342">
        <ele>42.06</ele>
        <time>2020-06-03T15:52:33Z</time>
      </trkpt>
      <trkpt lat="47.16646" lon="-1.87342">
        <ele>42.61</ele>
        <time>2020-06-03T15:52:35Z</time>
      </trkpt>
      <trkpt lat="47.16632" lon="-1.87343">
        <ele>42.96</ele>
        <time>2020-06-03T15:52:37Z</time>
      </trkpt>
      <trkpt lat="47.16616" lon="-1.87343">
        <ele>42.83</ele>
        <time>2020-06-03T15:52:39Z</time>
      </trkpt>
      <trkpt lat="47.166" lon="-1.87344">
        <ele>41.16</ele>
        <time>2020-06-03T15:52:41Z</time>
      </trkpt>
      <trkpt lat="47.16586" lon="-1.87347">
        <ele>40.57</ele>
        <time>2020-06-03T15:52:43Z</time>
      </trkpt>
      <trkpt lat="47.16574" lon="-1.87356">
        <ele>40.09</ele>
        <time>2020-06-03T15:52:45Z</time>
      </trkpt>
      <trkpt lat="47.16561" lon="-1.87368">
        <ele>39.48</ele>
        <time>2020-06-03T15:52:47Z</time>
      </trkpt>
      <trkpt lat="47.16549" lon="-1.87379">
        <ele>38.75</ele>
        <time>2020-06-03T15:52:49Z</time>
      </trkpt>
      <trkpt lat="47.16538" lon="-1.8739">
        <ele>38.37</ele>
        <time>2020-06-03T15:52:51Z</time>
      </trkpt>
      <trkpt lat="47.16526" lon="-1.87402">
        <ele>37.63</ele>
        <time>2020-06-03T15:52:53Z</time>
      </trkpt>
      <trkpt lat="47.16516" lon="-1.87412">
        <ele>37.14</ele>
        <time>2020-06-03T15:52:55Z</time>
      </trkpt>
      <trkpt lat="47.16506" lon="-1.87422">
        <ele>36.66</ele>
        <time>2020-06-03T15:52:57Z</time>
      </trkpt>
      <trkpt lat="47.16496" lon="-1.87433">
        <ele>36.91</ele>
        <time>2020-06-03T15:52:59Z</time>
      </trkpt>
      <trkpt lat="47.16488" lon="-1.87442">
        <ele>36.8</ele>
        <time>2020-06-03T15:53:01Z</time>
      </trkpt>
      <trkpt lat="47.16477" lon="-1.87451">
        <ele>36.64</ele>
        <time>2020-06-03T15:53:03Z</time>
      </trkpt>
      <trkpt lat="47.16467" lon="-1.87462">
        <ele>36.74</ele>
        <time>2020-06-03T15:53:05Z</time>
      </trkpt>
      <trkpt lat="47.16458" lon="-1.87471">
        <ele>37.72</ele>
        <time>2020-06-03T15:53:07Z</time>
      </trkpt>
      <trkpt lat="47.1645" lon="-1.87479">
        <ele>37.52</ele>
        <time>2020-06-03T15:53:09Z</time>
      </trkpt>
      <trkpt lat="47.16441" lon="-1.87488">
        <ele>37.98</ele>
        <time>2020-06-03T15:53:11Z</time>
      </trkpt>
      <trkpt lat="47.16433" lon="-1.87495">
        <ele>38.26</ele>
        <time>2020-06-03T15:53:13Z</time>
      </trkpt>
      <trkpt lat="47.16422" lon="-1.87505">
        <ele>39.15</ele>
        <time>2020-06-03T15:53:15Z</time>
      </trkpt>
      <trkpt lat="47.16413" lon="-1.87514">
        <ele>39.37</ele>
        <time>2020-06-03T15:53:17Z</time>
      </trkpt>
      <trkpt lat="47.16405" lon="-1.87522">
        <ele>39.37</ele>
        <time>2020-06-03T15:53:19Z</time>
      </trkpt>
      <trkpt lat="47.16395" lon="-1.87531">
        <ele>40.29</ele>
        <time>2020-06-03T15:53:21Z</time>
      </trkpt>
      <trkpt lat="47.16386" lon="-1.87537">
        <ele>42.02</ele>
        <time>2020-06-03T15:53:23Z</time>
      </trkpt>
      <trkpt lat="47.16376" lon="-1.87543">
        <ele>42.46</ele>
        <time>2020-06-03T15:53:25Z</time>
      </trkpt>
      <trkpt lat="47.16365" lon="-1.87547">
        <ele>42.32</ele>
        <time>2020-06-03T15:53:27Z</time>
      </trkpt>
      <trkpt lat="47.16353" lon="-1.8755">
        <ele>42.51</ele>
        <time>2020-06-03T15:53:29Z</time>
      </trkpt>
      <trkpt lat="47.16342" lon="-1.87551">
        <ele>42.09</ele>
        <time>2020-06-03T15:53:31Z</time>
      </trkpt>
      <trkpt lat="47.16327" lon="-1.87552">
        <ele>41.4</ele>
        <time>2020-06-03T15:53:33Z</time>
      </trkpt>
      <trkpt lat="47.16314" lon="-1.87553">
        <ele>40.3</ele>
        <time>2020-06-03T15:53:35Z</time>
      </trkpt>
      <trkpt lat="47.16303" lon="-1.87553">
        <ele>40.49</ele>
        <time>2020-06-03T15:53:37Z</time>
      </trkpt>
      <trkpt lat="47.16291" lon="-1.87554">
        <ele>40.82</ele>
        <time>2020-06-03T15:53:39Z</time>
      </trkpt>
      <trkpt lat="47.16278" lon="-1.87555">
        <ele>41.13</ele>
        <time>2020-06-03T15:53:41Z</time>
      </trkpt>
      <trkpt lat="47.16263" lon="-1.87556">
        <ele>41.58</ele>
        <time>2020-06-03T15:53:43Z</time>
      </trkpt>
      <trkpt lat="47.16249" lon="-1.87557">
        <ele>41.83</ele>
        <time>2020-06-03T15:53:45Z</time>
      </trkpt>
      <trkpt lat="47.16235" lon="-1.87558">
        <ele>41.29</ele>
        <time>2020-06-03T15:53:47Z</time>
      </trkpt>
      <trkpt lat="47.16222" lon="-1.8756">
        <ele>40.94</ele>
        <time>2020-06-03T15:53:49Z</time>
      </trkpt>
      <trkpt lat="47.16209" lon="-1.87561">
        <ele>40.39</ele>
        <time>2020-06-03T15:53:51Z</time>
      </trkpt>
      <trkpt lat="47.16195" lon="-1.87562">
        <ele>40.38</ele>
        <time>2020-06-03T15:53:53Z</time>
      </trkpt>
      <trkpt lat="47.16182" lon="-1.87564">
        <ele>39.96</ele>
        <time>2020-06-03T15:53:55Z</time>
      </trkpt>
      <trkpt lat="47.16168" lon="-1.87565">
        <ele>39.61</ele>
        <time>2020-06-03T15:53:57Z</time>
      </trkpt>
      <trkpt lat="47.16155" lon="-1.87567">
        <ele>39.91</ele>
        <time>2020-06-03T15:53:59Z</time>
      </trkpt>
      <trkpt lat="47.16142" lon="-1.87568">
        <ele>40.04</ele>
        <time>2020-06-03T15:54:01Z</time>
      </trkpt>
      <trkpt lat="47.1613" lon="-1.8757">
        <ele>39.82</ele>
        <time>2020-06-03T15:54:03Z</time>
      </trkpt>
      <trkpt lat="47.16118" lon="-1.87571">
        <ele>39.85</ele>
        <time>2020-06-03T15:54:05Z</time>
      </trkpt>
      <trkpt lat="47.16105" lon="-1.87573">
        <ele>39.65</ele>
        <time>2020-06-03T15:54:07Z</time>
      </trkpt>
      <trkpt lat="47.1609" lon="-1.87575">
        <ele>39.66</ele>
        <time>2020-06-03T15:54:09Z</time>
      </trkpt>
      <trkpt lat="47.16078" lon="-1.87576">
        <ele>39.23</ele>
        <time>2020-06-03T15:54:11Z</time>
      </trkpt>
      <trkpt lat="47.16066" lon="-1.87578">
        <ele>38.69</ele>
        <time>2020-06-03T15:54:13Z</time>
      </trkpt>
      <trkpt lat="47.16054" lon="-1.87579">
        <ele>38.08</ele>
        <time>2020-06-03T15:54:15Z</time>
      </trkpt>
      <trkpt lat="47.16042" lon="-1.87581">
        <ele>37.89</ele>
        <time>2020-06-03T15:54:17Z</time>
      </trkpt>
      <trkpt lat="47.16028" lon="-1.87584">
        <ele>37.91</ele>
        <time>2020-06-03T15:54:19Z</time>
      </trkpt>
      <trkpt lat="47.16015" lon="-1.87587">
        <ele>38.16</ele>
        <time>2020-06-03T15:54:21Z</time>
      </trkpt>
      <trkpt lat="47.16" lon="-1.87592">
        <ele>38.89</ele>
        <time>2020-06-03T15:54:23Z</time>
      </trkpt>
      <trkpt lat="47.15989" lon="-1.87596">
        <ele>39.06</ele>
        <time>2020-06-03T15:54:25Z</time>
      </trkpt>
      <trkpt lat="47.15977" lon="-1.87602">
        <ele>39.2</ele>
        <time>2020-06-03T15:54:27Z</time>
      </trkpt>
      <trkpt lat="47.15964" lon="-1.8761">
        <ele>39.21</ele>
        <time>2020-06-03T15:54:29Z</time>
      </trkpt>
      <trkpt lat="47.15953" lon="-1.87619">
        <ele>38.71</ele>
        <time>2020-06-03T15:54:31Z</time>
      </trkpt>
      <trkpt lat="47.15942" lon="-1.87627">
        <ele>37.89</ele>
        <time>2020-06-03T15:54:33Z</time>
      </trkpt>
      <trkpt lat="47.15929" lon="-1.87636">
        <ele>37.98</ele>
        <time>2020-06-03T15:54:35Z</time>
      </trkpt>
      <trkpt lat="47.15918" lon="-1.87643">
        <ele>38.22</ele>
        <time>2020-06-03T15:54:37Z</time>
      </trkpt>
      <trkpt lat="47.15908" lon="-1.87649">
        <ele>38.31</ele>
        <time>2020-06-03T15:54:39Z</time>
      </trkpt>
      <trkpt lat="47.15894" lon="-1.87656">
        <ele>38.9</ele>
        <time>2020-06-03T15:54:41Z</time>
      </trkpt>
      <trkpt lat="47.15882" lon="-1.87661">
        <ele>39.57</ele>
        <time>2020-06-03T15:54:43Z</time>
      </trkpt>
      <trkpt lat="47.15868" lon="-1.87666">
        <ele>39.51</ele>
        <time>2020-06-03T15:54:45Z</time>
      </trkpt>
      <trkpt lat="47.15855" lon="-1.8767">
        <ele>39.45</ele>
        <time>2020-06-03T15:54:47Z</time>
      </trkpt>
      <trkpt lat="47.15842" lon="-1.87674">
        <ele>39.11</ele>
        <time>2020-06-03T15:54:49Z</time>
      </trkpt>
      <trkpt lat="47.15829" lon="-1.87679">
        <ele>38.44</ele>
        <time>2020-06-03T15:54:51Z</time>
      </trkpt>
      <trkpt lat="47.15816" lon="-1.87684">
        <ele>38.26</ele>
        <time>2020-06-03T15:54:53Z</time>
      </trkpt>
      <trkpt lat="47.15806" lon="-1.87689">
        <ele>38.08</ele>
        <time>2020-06-03T15:54:55Z</time>
      </trkpt>
      <trkpt lat="47.15791" lon="-1.87695">
        <ele>38.13</ele>
        <time>2020-06-03T15:54:57Z</time>
      </trkpt>
      <trkpt lat="47.15778" lon="-1.87699">
        <ele>37.89</ele>
        <time>2020-06-03T15:54:59Z</time>
      </trkpt>
      <trkpt lat="47.15764" lon="-1.87705">
        <ele>38.65</ele>
        <time>2020-06-03T15:55:01Z</time>
      </trkpt>
      <trkpt lat="47.15752" lon="-1.8771">
        <ele>37.77</ele>
        <time>2020-06-03T15:55:03Z</time>
      </trkpt>
      <trkpt lat="47.15738" lon="-1.87715">
        <ele>37.37</ele>
        <time>2020-06-03T15:55:05Z</time>
      </trkpt>
      <trkpt lat="47.15726" lon="-1.87719">
        <ele>37.07</ele>
        <time>2020-06-03T15:55:07Z</time>
      </trkpt>
      <trkpt lat="47.15712" lon="-1.87724">
        <ele>36.76</ele>
        <time>2020-06-03T15:55:09Z</time>
      </trkpt>
      <trkpt lat="47.15699" lon="-1.87728">
        <ele>36.06</ele>
        <time>2020-06-03T15:55:11Z</time>
      </trkpt>
      <trkpt lat="47.15687" lon="-1.87733">
        <ele>36.3</ele>
        <time>2020-06-03T15:55:13Z</time>
      </trkpt>
      <trkpt lat="47.15675" lon="-1.87737">
        <ele>35.97</ele>
        <time>2020-06-03T15:55:15Z</time>
      </trkpt>
      <trkpt lat="47.15662" lon="-1.87742">
        <ele>35.85</ele>
        <time>2020-06-03T15:55:17Z</time>
      </trkpt>
      <trkpt lat="47.15648" lon="-1.87747">
        <ele>36.23</ele>
        <time>2020-06-03T15:55:19Z</time>
      </trkpt>
      <trkpt lat="47.15635" lon="-1.87752">
        <ele>36.12</ele>
        <time>2020-06-03T15:55:21Z</time>
      </trkpt>
      <trkpt lat="47.15622" lon="-1.87756">
        <ele>35.85</ele>
        <time>2020-06-03T15:55:23Z</time>
      </trkpt>
      <trkpt lat="47.15609" lon="-1.8776">
        <ele>36.44</ele>
        <time>2020-06-03T15:55:25Z</time>
      </trkpt>
      <trkpt lat="47.15597" lon="-1.87765">
        <ele>36.29</ele>
        <time>2020-06-03T15:55:27Z</time>
      </trkpt>
      <trkpt lat="47.15584" lon="-1.8777">
        <ele>35.93</ele>
        <time>2020-06-03T15:55:29Z</time>
      </trkpt>
      <trkpt lat="47.15571" lon="-1.87774">
        <ele>35.12</ele>
        <time>2020-06-03T15:55:31Z</time>
      </trkpt>
      <trkpt lat="47.15558" lon="-1.87779">
        <ele>34.05</ele>
        <time>2020-06-03T15:55:33Z</time>
      </trkpt>
      <trkpt lat="47.15545" lon="-1.87784">
        <ele>33.97</ele>
        <time>2020-06-03T15:55:35Z</time>
      </trkpt>
      <trkpt lat="47.15532" lon="-1.8779">
        <ele>33.81</ele>
        <time>2020-06-03T15:55:37Z</time>
      </trkpt>
      <trkpt lat="47.15522" lon="-1.87796">
        <ele>33.69</ele>
        <time>2020-06-03T15:55:39Z</time>
      </trkpt>
      <trkpt lat="47.15511" lon="-1.87803">
        <ele>33.33</ele>
        <time>2020-06-03T15:55:41Z</time>
      </trkpt>
      <trkpt lat="47.15501" lon="-1.87812">
        <ele>33.66</ele>
        <time>2020-06-03T15:55:43Z</time>
      </trkpt>
      <trkpt lat="47.15489" lon="-1.87823">
        <ele>33.68</ele>
        <time>2020-06-03T15:55:45Z</time>
      </trkpt>
      <trkpt lat="47.1548" lon="-1.87835">
        <ele>33.65</ele>
        <time>2020-06-03T15:55:47Z</time>
      </trkpt>
      <trkpt lat="47.15469" lon="-1.87849">
        <ele>32.56</ele>
        <time>2020-06-03T15:55:49Z</time>
      </trkpt>
      <trkpt lat="47.15459" lon="-1.87862">
        <ele>32.48</ele>
        <time>2020-06-03T15:55:51Z</time>
      </trkpt>
      <trkpt lat="47.15448" lon="-1.87876">
        <ele>32.58</ele>
        <time>2020-06-03T15:55:53Z</time>
      </trkpt>
      <trkpt lat="47.15438" lon="-1.87887">
        <ele>32.47</ele>
        <time>2020-06-03T15:55:55Z</time>
      </trkpt>
      <trkpt lat="47.1543" lon="-1.87897">
        <ele>31.88</ele>
        <time>2020-06-03T15:55:57Z</time>
      </trkpt>
      <trkpt lat="47.1542" lon="-1.87909">
        <ele>31.59</ele>
        <time>2020-06-03T15:55:59Z</time>
      </trkpt>
      <trkpt lat="47.1541" lon="-1.87921">
        <ele>31.74</ele>
        <time>2020-06-03T15:56:01Z</time>
      </trkpt>
      <trkpt lat="47.15402" lon="-1.87931">
        <ele>31.88</ele>
        <time>2020-06-03T15:56:03Z</time>
      </trkpt>
      <trkpt lat="47.15393" lon="-1.87942">
        <ele>31.67</ele>
        <time>2020-06-03T15:56:05Z</time>
      </trkpt>
      <trkpt lat="47.15383" lon="-1.87955">
        <ele>31.52</ele>
        <time>2020-06-03T15:56:07Z</time>
      </trkpt>
      <trkpt lat="47.15374" lon="-1.87967">
        <ele>31.61</ele>
        <time>2020-06-03T15:56:09Z</time>
      </trkpt>
      <trkpt lat="47.15364" lon="-1.87978">
        <ele>32.08</ele>
        <time>2020-06-03T15:56:11Z</time>
      </trkpt>
      <trkpt lat="47.15353" lon="-1.87991">
        <ele>32.77</ele>
        <time>2020-06-03T15:56:13Z</time>
      </trkpt>
      <trkpt lat="47.15342" lon="-1.88004">
        <ele>32.92</ele>
        <time>2020-06-03T15:56:15Z</time>
      </trkpt>
      <trkpt lat="47.15332" lon="-1.88016">
        <ele>32.71</ele>
        <time>2020-06-03T15:56:17Z</time>
      </trkpt>
      <trkpt lat="47.15322" lon="-1.88028">
        <ele>32.91</ele>
        <time>2020-06-03T15:56:19Z</time>
      </trkpt>
      <trkpt lat="47.15313" lon="-1.8804">
        <ele>32.71</ele>
        <time>2020-06-03T15:56:21Z</time>
      </trkpt>
      <trkpt lat="47.15302" lon="-1.88054">
        <ele>32.65</ele>
        <time>2020-06-03T15:56:23Z</time>
      </trkpt>
      <trkpt lat="47.15293" lon="-1.88069">
        <ele>32.48</ele>
        <time>2020-06-03T15:56:25Z</time>
      </trkpt>
      <trkpt lat="47.15284" lon="-1.88086">
        <ele>32.73</ele>
        <time>2020-06-03T15:56:27Z</time>
      </trkpt>
      <trkpt lat="47.15277" lon="-1.88102">
        <ele>33.07</ele>
        <time>2020-06-03T15:56:29Z</time>
      </trkpt>
      <trkpt lat="47.15269" lon="-1.88118">
        <ele>32.52</ele>
        <time>2020-06-03T15:56:31Z</time>
      </trkpt>
      <trkpt lat="47.15263" lon="-1.88135">
        <ele>32.64</ele>
        <time>2020-06-03T15:56:33Z</time>
      </trkpt>
      <trkpt lat="47.15256" lon="-1.88151">
        <ele>32.69</ele>
        <time>2020-06-03T15:56:35Z</time>
      </trkpt>
      <trkpt lat="47.15247" lon="-1.88169">
        <ele>32.2</ele>
        <time>2020-06-03T15:56:37Z</time>
      </trkpt>
      <trkpt lat="47.15238" lon="-1.88187">
        <ele>31.38</ele>
        <time>2020-06-03T15:56:39Z</time>
      </trkpt>
      <trkpt lat="47.15231" lon="-1.88201">
        <ele>30.42</ele>
        <time>2020-06-03T15:56:41Z</time>
      </trkpt>
      <trkpt lat="47.15223" lon="-1.88218">
        <ele>30.01</ele>
        <time>2020-06-03T15:56:43Z</time>
      </trkpt>
      <trkpt lat="47.15215" lon="-1.88234">
        <ele>30.15</ele>
        <time>2020-06-03T15:56:45Z</time>
      </trkpt>
      <trkpt lat="47.15208" lon="-1.88251">
        <ele>30.57</ele>
        <time>2020-06-03T15:56:47Z</time>
      </trkpt>
      <trkpt lat="47.152" lon="-1.88267">
        <ele>29.98</ele>
        <time>2020-06-03T15:56:49Z</time>
      </trkpt>
      <trkpt lat="47.15192" lon="-1.88285">
        <ele>30.29</ele>
        <time>2020-06-03T15:56:51Z</time>
      </trkpt>
      <trkpt lat="47.15184" lon="-1.88303">
        <ele>30.65</ele>
        <time>2020-06-03T15:56:53Z</time>
      </trkpt>
      <trkpt lat="47.15176" lon="-1.88319">
        <ele>30.66</ele>
        <time>2020-06-03T15:56:55Z</time>
      </trkpt>
      <trkpt lat="47.1517" lon="-1.88334">
        <ele>30.66</ele>
        <time>2020-06-03T15:56:57Z</time>
      </trkpt>
      <trkpt lat="47.15163" lon="-1.88351">
        <ele>30.79</ele>
        <time>2020-06-03T15:56:59Z</time>
      </trkpt>
      <trkpt lat="47.15155" lon="-1.88367">
        <ele>30.63</ele>
        <time>2020-06-03T15:57:01Z</time>
      </trkpt>
      <trkpt lat="47.15146" lon="-1.88386">
        <ele>30.39</ele>
        <time>2020-06-03T15:57:03Z</time>
      </trkpt>
      <trkpt lat="47.15138" lon="-1.88403">
        <ele>30.4</ele>
        <time>2020-06-03T15:57:05Z</time>
      </trkpt>
      <trkpt lat="47.1513" lon="-1.88419">
        <ele>30.39</ele>
        <time>2020-06-03T15:57:07Z</time>
      </trkpt>
      <trkpt lat="47.15123" lon="-1.88434">
        <ele>30.95</ele>
        <time>2020-06-03T15:57:09Z</time>
      </trkpt>
      <trkpt lat="47.15116" lon="-1.88451">
        <ele>30.25</ele>
        <time>2020-06-03T15:57:11Z</time>
      </trkpt>
      <trkpt lat="47.15108" lon="-1.88468">
        <ele>29.85</ele>
        <time>2020-06-03T15:57:13Z</time>
      </trkpt>
      <trkpt lat="47.15101" lon="-1.88483">
        <ele>28.88</ele>
        <time>2020-06-03T15:57:15Z</time>
      </trkpt>
      <trkpt lat="47.15094" lon="-1.88498">
        <ele>28.02</ele>
        <time>2020-06-03T15:57:17Z</time>
      </trkpt>
      <trkpt lat="47.15086" lon="-1.88514">
        <ele>26.8</ele>
        <time>2020-06-03T15:57:19Z</time>
      </trkpt>
      <trkpt lat="47.15079" lon="-1.88529">
        <ele>26.36</ele>
        <time>2020-06-03T15:57:21Z</time>
      </trkpt>
      <trkpt lat="47.15072" lon="-1.88546">
        <ele>26.67</ele>
        <time>2020-06-03T15:57:23Z</time>
      </trkpt>
      <trkpt lat="47.15064" lon="-1.88562">
        <ele>27.8</ele>
        <time>2020-06-03T15:57:25Z</time>
      </trkpt>
      <trkpt lat="47.15058" lon="-1.88575">
        <ele>28.4</ele>
        <time>2020-06-03T15:57:27Z</time>
      </trkpt>
      <trkpt lat="47.15051" lon="-1.8859">
        <ele>28.78</ele>
        <time>2020-06-03T15:57:29Z</time>
      </trkpt>
      <trkpt lat="47.15043" lon="-1.88606">
        <ele>29.15</ele>
        <time>2020-06-03T15:57:31Z</time>
      </trkpt>
      <trkpt lat="47.15036" lon="-1.88622">
        <ele>29.29</ele>
        <time>2020-06-03T15:57:33Z</time>
      </trkpt>
      <trkpt lat="47.15029" lon="-1.88637">
        <ele>30.21</ele>
        <time>2020-06-03T15:57:35Z</time>
      </trkpt>
      <trkpt lat="47.15022" lon="-1.88653">
        <ele>30.26</ele>
        <time>2020-06-03T15:57:37Z</time>
      </trkpt>
      <trkpt lat="47.15015" lon="-1.88665">
        <ele>30.07</ele>
        <time>2020-06-03T15:57:39Z</time>
      </trkpt>
      <trkpt lat="47.15008" lon="-1.88681">
        <ele>30.36</ele>
        <time>2020-06-03T15:57:41Z</time>
      </trkpt>
      <trkpt lat="47.15001" lon="-1.88696">
        <ele>30.63</ele>
        <time>2020-06-03T15:57:43Z</time>
      </trkpt>
      <trkpt lat="47.14994" lon="-1.8871">
        <ele>31.45</ele>
        <time>2020-06-03T15:57:45Z</time>
      </trkpt>
      <trkpt lat="47.14986" lon="-1.88726">
        <ele>31.59</ele>
        <time>2020-06-03T15:57:47Z</time>
      </trkpt>
      <trkpt lat="47.1498" lon="-1.88739">
        <ele>31.6</ele>
        <time>2020-06-03T15:57:49Z</time>
      </trkpt>
      <trkpt lat="47.14972" lon="-1.88755">
        <ele>31.43</ele>
        <time>2020-06-03T15:57:51Z</time>
      </trkpt>
      <trkpt lat="47.14966" lon="-1.88768">
        <ele>31.04</ele>
        <time>2020-06-03T15:57:53Z</time>
      </trkpt>
      <trkpt lat="47.1496" lon="-1.88782">
        <ele>29.99</ele>
        <time>2020-06-03T15:57:55Z</time>
      </trkpt>
      <trkpt lat="47.14952" lon="-1.88799">
        <ele>30.13</ele>
        <time>2020-06-03T15:57:57Z</time>
      </trkpt>
      <trkpt lat="47.14946" lon="-1.88812">
        <ele>30.86</ele>
        <time>2020-06-03T15:57:59Z</time>
      </trkpt>
      <trkpt lat="47.14939" lon="-1.88827">
        <ele>30.71</ele>
        <time>2020-06-03T15:58:01Z</time>
      </trkpt>
      <trkpt lat="47.14933" lon="-1.8884">
        <ele>31.05</ele>
        <time>2020-06-03T15:58:03Z</time>
      </trkpt>
      <trkpt lat="47.14925" lon="-1.88855">
        <ele>30.9</ele>
        <time>2020-06-03T15:58:05Z</time>
      </trkpt>
      <trkpt lat="47.14917" lon="-1.88871">
        <ele>31.06</ele>
        <time>2020-06-03T15:58:07Z</time>
      </trkpt>
      <trkpt lat="47.1491" lon="-1.88887">
        <ele>31.35</ele>
        <time>2020-06-03T15:58:09Z</time>
      </trkpt>
      <trkpt lat="47.14902" lon="-1.88904">
        <ele>30.36</ele>
        <time>2020-06-03T15:58:11Z</time>
      </trkpt>
      <trkpt lat="47.14897" lon="-1.88915">
        <ele>29.72</ele>
        <time>2020-06-03T15:58:13Z</time>
      </trkpt>
      <trkpt lat="47.14891" lon="-1.8893">
        <ele>29.91</ele>
        <time>2020-06-03T15:58:15Z</time>
      </trkpt>
      <trkpt lat="47.14884" lon="-1.88946">
        <ele>29.43</ele>
        <time>2020-06-03T15:58:17Z</time>
      </trkpt>
      <trkpt lat="47.14876" lon="-1.88964">
        <ele>29.54</ele>
        <time>2020-06-03T15:58:19Z</time>
      </trkpt>
      <trkpt lat="47.14868" lon="-1.88979">
        <ele>28.87</ele>
        <time>2020-06-03T15:58:21Z</time>
      </trkpt>
      <trkpt lat="47.1486" lon="-1.88994">
        <ele>28.38</ele>
        <time>2020-06-03T15:58:23Z</time>
      </trkpt>
      <trkpt lat="47.14854" lon="-1.89007">
        <ele>28.61</ele>
        <time>2020-06-03T15:58:25Z</time>
      </trkpt>
      <trkpt lat="47.14846" lon="-1.89024">
        <ele>29.33</ele>
        <time>2020-06-03T15:58:27Z</time>
      </trkpt>
      <trkpt lat="47.14839" lon="-1.89039">
        <ele>30.11</ele>
        <time>2020-06-03T15:58:29Z</time>
      </trkpt>
      <trkpt lat="47.14832" lon="-1.89053">
        <ele>30.32</ele>
        <time>2020-06-03T15:58:31Z</time>
      </trkpt>
      <trkpt lat="47.14824" lon="-1.89068">
        <ele>30.07</ele>
        <time>2020-06-03T15:58:33Z</time>
      </trkpt>
      <trkpt lat="47.14816" lon="-1.89085">
        <ele>29.66</ele>
        <time>2020-06-03T15:58:35Z</time>
      </trkpt>
      <trkpt lat="47.14808" lon="-1.89102">
        <ele>29.53</ele>
        <time>2020-06-03T15:58:37Z</time>
      </trkpt>
      <trkpt lat="47.14799" lon="-1.89119">
        <ele>29.52</ele>
        <time>2020-06-03T15:58:39Z</time>
      </trkpt>
      <trkpt lat="47.14791" lon="-1.89135">
        <ele>29.66</ele>
        <time>2020-06-03T15:58:41Z</time>
      </trkpt>
      <trkpt lat="47.14784" lon="-1.8915">
        <ele>30.25</ele>
        <time>2020-06-03T15:58:43Z</time>
      </trkpt>
      <trkpt lat="47.14776" lon="-1.89166">
        <ele>30.71</ele>
        <time>2020-06-03T15:58:45Z</time>
      </trkpt>
      <trkpt lat="47.14768" lon="-1.89182">
        <ele>30.22</ele>
        <time>2020-06-03T15:58:47Z</time>
      </trkpt>
      <trkpt lat="47.14761" lon="-1.89197">
        <ele>29.37</ele>
        <time>2020-06-03T15:58:49Z</time>
      </trkpt>
      <trkpt lat="47.14752" lon="-1.89213">
        <ele>28.61</ele>
        <time>2020-06-03T15:58:51Z</time>
      </trkpt>
      <trkpt lat="47.14745" lon="-1.89229">
        <ele>28.22</ele>
        <time>2020-06-03T15:58:53Z</time>
      </trkpt>
      <trkpt lat="47.14738" lon="-1.89244">
        <ele>28.24</ele>
        <time>2020-06-03T15:58:55Z</time>
      </trkpt>
      <trkpt lat="47.14732" lon="-1.89261">
        <ele>27.86</ele>
        <time>2020-06-03T15:58:57Z</time>
      </trkpt>
      <trkpt lat="47.14725" lon="-1.89276">
        <ele>25.53</ele>
        <time>2020-06-03T15:58:59Z</time>
      </trkpt>
      <trkpt lat="47.14718" lon="-1.89291">
        <ele>24.02</ele>
        <time>2020-06-03T15:59:01Z</time>
      </trkpt>
      <trkpt lat="47.14711" lon="-1.89309">
        <ele>23.82</ele>
        <time>2020-06-03T15:59:03Z</time>
      </trkpt>
      <trkpt lat="47.14704" lon="-1.89324">
        <ele>23.59</ele>
        <time>2020-06-03T15:59:05Z</time>
      </trkpt>
      <trkpt lat="47.14696" lon="-1.89341">
        <ele>22.98</ele>
        <time>2020-06-03T15:59:07Z</time>
      </trkpt>
      <trkpt lat="47.1469" lon="-1.89358">
        <ele>22.25</ele>
        <time>2020-06-03T15:59:09Z</time>
      </trkpt>
      <trkpt lat="47.14682" lon="-1.89374">
        <ele>21.82</ele>
        <time>2020-06-03T15:59:11Z</time>
      </trkpt>
      <trkpt lat="47.14675" lon="-1.8939">
        <ele>21.34</ele>
        <time>2020-06-03T15:59:13Z</time>
      </trkpt>
      <trkpt lat="47.14667" lon="-1.8941">
        <ele>21.54</ele>
        <time>2020-06-03T15:59:15Z</time>
      </trkpt>
      <trkpt lat="47.1466" lon="-1.89427">
        <ele>22.02</ele>
        <time>2020-06-03T15:59:17Z</time>
      </trkpt>
      <trkpt lat="47.14653" lon="-1.89444">
        <ele>21.65</ele>
        <time>2020-06-03T15:59:19Z</time>
      </trkpt>
      <trkpt lat="47.14646" lon="-1.8946">
        <ele>20.96</ele>
        <time>2020-06-03T15:59:21Z</time>
      </trkpt>
      <trkpt lat="47.1464" lon="-1.89475">
        <ele>21.32</ele>
        <time>2020-06-03T15:59:23Z</time>
      </trkpt>
      <trkpt lat="47.14634" lon="-1.89491">
        <ele>21.01</ele>
        <time>2020-06-03T15:59:25Z</time>
      </trkpt>
      <trkpt lat="47.14627" lon="-1.89509">
        <ele>20.5</ele>
        <time>2020-06-03T15:59:27Z</time>
      </trkpt>
      <trkpt lat="47.14622" lon="-1.89522">
        <ele>20.43</ele>
        <time>2020-06-03T15:59:29Z</time>
      </trkpt>
      <trkpt lat="47.14616" lon="-1.89538">
        <ele>20.77</ele>
        <time>2020-06-03T15:59:31Z</time>
      </trkpt>
      <trkpt lat="47.14609" lon="-1.89555">
        <ele>21.72</ele>
        <time>2020-06-03T15:59:33Z</time>
      </trkpt>
      <trkpt lat="47.14601" lon="-1.89574">
        <ele>22.3</ele>
        <time>2020-06-03T15:59:35Z</time>
      </trkpt>
      <trkpt lat="47.14594" lon="-1.89589">
        <ele>22.49</ele>
        <time>2020-06-03T15:59:37Z</time>
      </trkpt>
      <trkpt lat="47.14587" lon="-1.89604">
        <ele>22.52</ele>
        <time>2020-06-03T15:59:39Z</time>
      </trkpt>
      <trkpt lat="47.14581" lon="-1.8962">
        <ele>22.81</ele>
        <time>2020-06-03T15:59:41Z</time>
      </trkpt>
      <trkpt lat="47.14574" lon="-1.89636">
        <ele>22.44</ele>
        <time>2020-06-03T15:59:43Z</time>
      </trkpt>
      <trkpt lat="47.14567" lon="-1.89652">
        <ele>21.87</ele>
        <time>2020-06-03T15:59:45Z</time>
      </trkpt>
      <trkpt lat="47.1456" lon="-1.89667">
        <ele>21.31</ele>
        <time>2020-06-03T15:59:47Z</time>
      </trkpt>
      <trkpt lat="47.14554" lon="-1.89683">
        <ele>20.81</ele>
        <time>2020-06-03T15:59:49Z</time>
      </trkpt>
      <trkpt lat="47.14547" lon="-1.89699">
        <ele>21.11</ele>
        <time>2020-06-03T15:59:51Z</time>
      </trkpt>
      <trkpt lat="47.14541" lon="-1.89715">
        <ele>20.92</ele>
        <time>2020-06-03T15:59:53Z</time>
      </trkpt>
      <trkpt lat="47.14534" lon="-1.89732">
        <ele>21.9</ele>
        <time>2020-06-03T15:59:55Z</time>
      </trkpt>
      <trkpt lat="47.14528" lon="-1.89745">
        <ele>22.14</ele>
        <time>2020-06-03T15:59:57Z</time>
      </trkpt>
      <trkpt lat="47.14521" lon="-1.89761">
        <ele>22.48</ele>
        <time>2020-06-03T15:59:59Z</time>
      </trkpt>
      <trkpt lat="47.14515" lon="-1.89777">
        <ele>22.7</ele>
        <time>2020-06-03T16:00:01Z</time>
      </trkpt>
      <trkpt lat="47.1451" lon="-1.89792">
        <ele>22.6</ele>
        <time>2020-06-03T16:00:03Z</time>
      </trkpt>
      <trkpt lat="47.14504" lon="-1.89808">
        <ele>22.99</ele>
        <time>2020-06-03T16:00:05Z</time>
      </trkpt>
      <trkpt lat="47.14498" lon="-1.89823">
        <ele>23.73</ele>
        <time>2020-06-03T16:00:07Z</time>
      </trkpt>
      <trkpt lat="47.14491" lon="-1.89841">
        <ele>23.7</ele>
        <time>2020-06-03T16:00:09Z</time>
      </trkpt>
      <trkpt lat="47.14483" lon="-1.89861">
        <ele>24.41</ele>
        <time>2020-06-03T16:00:11Z</time>
      </trkpt>
      <trkpt lat="47.14477" lon="-1.89877">
        <ele>24.83</ele>
        <time>2020-06-03T16:00:13Z</time>
      </trkpt>
      <trkpt lat="47.14469" lon="-1.89895">
        <ele>25.35</ele>
        <time>2020-06-03T16:00:15Z</time>
      </trkpt>
      <trkpt lat="47.14462" lon="-1.89912">
        <ele>24.93</ele>
        <time>2020-06-03T16:00:17Z</time>
      </trkpt>
      <trkpt lat="47.14456" lon="-1.89926">
        <ele>24.43</ele>
        <time>2020-06-03T16:00:19Z</time>
      </trkpt>
      <trkpt lat="47.14449" lon="-1.89943">
        <ele>24.03</ele>
        <time>2020-06-03T16:00:21Z</time>
      </trkpt>
      <trkpt lat="47.14442" lon="-1.89961">
        <ele>23.92</ele>
        <time>2020-06-03T16:00:23Z</time>
      </trkpt>
      <trkpt lat="47.14435" lon="-1.89976">
        <ele>23.58</ele>
        <time>2020-06-03T16:00:25Z</time>
      </trkpt>
      <trkpt lat="47.14429" lon="-1.89992">
        <ele>23.97</ele>
        <time>2020-06-03T16:00:27Z</time>
      </trkpt>
      <trkpt lat="47.14423" lon="-1.90005">
        <ele>23.49</ele>
        <time>2020-06-03T16:00:29Z</time>
      </trkpt>
      <trkpt lat="47.14415" lon="-1.90022">
        <ele>23.1</ele>
        <time>2020-06-03T16:00:31Z</time>
      </trkpt>
      <trkpt lat="47.14408" lon="-1.90037">
        <ele>22.78</ele>
        <time>2020-06-03T16:00:33Z</time>
      </trkpt>
      <trkpt lat="47.14402" lon="-1.90052">
        <ele>22.63</ele>
        <time>2020-06-03T16:00:35Z</time>
      </trkpt>
      <trkpt lat="47.14396" lon="-1.90067">
        <ele>23.09</ele>
        <time>2020-06-03T16:00:37Z</time>
      </trkpt>
      <trkpt lat="47.14389" lon="-1.90083">
        <ele>23.35</ele>
        <time>2020-06-03T16:00:39Z</time>
      </trkpt>
      <trkpt lat="47.14382" lon="-1.901">
        <ele>23.79</ele>
        <time>2020-06-03T16:00:41Z</time>
      </trkpt>
      <trkpt lat="47.14376" lon="-1.90116">
        <ele>24.03</ele>
        <time>2020-06-03T16:00:43Z</time>
      </trkpt>
      <trkpt lat="47.1437" lon="-1.90132">
        <ele>23.39</ele>
        <time>2020-06-03T16:00:45Z</time>
      </trkpt>
      <trkpt lat="47.14363" lon="-1.90148">
        <ele>22.23</ele>
        <time>2020-06-03T16:00:47Z</time>
      </trkpt>
      <trkpt lat="47.14355" lon="-1.90164">
        <ele>21.97</ele>
        <time>2020-06-03T16:00:49Z</time>
      </trkpt>
      <trkpt lat="47.1435" lon="-1.90179">
        <ele>22.49</ele>
        <time>2020-06-03T16:00:51Z</time>
      </trkpt>
      <trkpt lat="47.14343" lon="-1.90195">
        <ele>22.51</ele>
        <time>2020-06-03T16:00:53Z</time>
      </trkpt>
      <trkpt lat="47.14336" lon="-1.90212">
        <ele>22.86</ele>
        <time>2020-06-03T16:00:55Z</time>
      </trkpt>
      <trkpt lat="47.14329" lon="-1.90229">
        <ele>22.49</ele>
        <time>2020-06-03T16:00:56Z</time>
      </trkpt>
      <trkpt lat="47.14322" lon="-1.90246">
        <ele>23.2</ele>
        <time>2020-06-03T16:00:58Z</time>
      </trkpt>
      <trkpt lat="47.14316" lon="-1.90263">
        <ele>23.93</ele>
        <time>2020-06-03T16:01:00Z</time>
      </trkpt>
      <trkpt lat="47.14309" lon="-1.90279">
        <ele>24.46</ele>
        <time>2020-06-03T16:01:02Z</time>
      </trkpt>
      <trkpt lat="47.14302" lon="-1.90295">
        <ele>24.88</ele>
        <time>2020-06-03T16:01:04Z</time>
      </trkpt>
      <trkpt lat="47.14296" lon="-1.90312">
        <ele>24.84</ele>
        <time>2020-06-03T16:01:06Z</time>
      </trkpt>
      <trkpt lat="47.14289" lon="-1.90326">
        <ele>23.76</ele>
        <time>2020-06-03T16:01:08Z</time>
      </trkpt>
      <trkpt lat="47.14283" lon="-1.90343">
        <ele>23.12</ele>
        <time>2020-06-03T16:01:10Z</time>
      </trkpt>
      <trkpt lat="47.14276" lon="-1.90359">
        <ele>22.77</ele>
        <time>2020-06-03T16:01:12Z</time>
      </trkpt>
      <trkpt lat="47.14268" lon="-1.90377">
        <ele>22.02</ele>
        <time>2020-06-03T16:01:14Z</time>
      </trkpt>
      <trkpt lat="47.14262" lon="-1.90392">
        <ele>22.51</ele>
        <time>2020-06-03T16:01:16Z</time>
      </trkpt>
      <trkpt lat="47.14255" lon="-1.90408">
        <ele>22.41</ele>
        <time>2020-06-03T16:01:18Z</time>
      </trkpt>
      <trkpt lat="47.14248" lon="-1.90425">
        <ele>22.79</ele>
        <time>2020-06-03T16:01:20Z</time>
      </trkpt>
      <trkpt lat="47.14241" lon="-1.90441">
        <ele>23.96</ele>
        <time>2020-06-03T16:01:22Z</time>
      </trkpt>
      <trkpt lat="47.14235" lon="-1.90455">
        <ele>24.02</ele>
        <time>2020-06-03T16:01:24Z</time>
      </trkpt>
      <trkpt lat="47.14229" lon="-1.9047">
        <ele>23.75</ele>
        <time>2020-06-03T16:01:26Z</time>
      </trkpt>
      <trkpt lat="47.14221" lon="-1.90487">
        <ele>23.45</ele>
        <time>2020-06-03T16:01:28Z</time>
      </trkpt>
      <trkpt lat="47.14215" lon="-1.90502">
        <ele>23.28</ele>
        <time>2020-06-03T16:01:30Z</time>
      </trkpt>
      <trkpt lat="47.14209" lon="-1.90517">
        <ele>23.29</ele>
        <time>2020-06-03T16:01:32Z</time>
      </trkpt>
      <trkpt lat="47.14201" lon="-1.90534">
        <ele>23.15</ele>
        <time>2020-06-03T16:01:34Z</time>
      </trkpt>
      <trkpt lat="47.14195" lon="-1.90548">
        <ele>22.25</ele>
        <time>2020-06-03T16:01:36Z</time>
      </trkpt>
      <trkpt lat="47.14188" lon="-1.90565">
        <ele>21.25</ele>
        <time>2020-06-03T16:01:38Z</time>
      </trkpt>
      <trkpt lat="47.14181" lon="-1.9058">
        <ele>21.31</ele>
        <time>2020-06-03T16:01:40Z</time>
      </trkpt>
      <trkpt lat="47.14174" lon="-1.90597">
        <ele>21.71</ele>
        <time>2020-06-03T16:01:42Z</time>
      </trkpt>
      <trkpt lat="47.14167" lon="-1.90612">
        <ele>22.15</ele>
        <time>2020-06-03T16:01:44Z</time>
      </trkpt>
      <trkpt lat="47.14155" lon="-1.90621">
        <ele>22.63</ele>
        <time>2020-06-03T16:01:46Z</time>
      </trkpt>
      <trkpt lat="47.14142" lon="-1.90625">
        <ele>23.4</ele>
        <time>2020-06-03T16:01:48Z</time>
      </trkpt>
      <trkpt lat="47.1413" lon="-1.90625">
        <ele>23.57</ele>
        <time>2020-06-03T16:01:50Z</time>
      </trkpt>
      <trkpt lat="47.14117" lon="-1.90625">
        <ele>22.69</ele>
        <time>2020-06-03T16:01:52Z</time>
      </trkpt>
      <trkpt lat="47.14103" lon="-1.90625">
        <ele>21.75</ele>
        <time>2020-06-03T16:01:54Z</time>
      </trkpt>
      <trkpt lat="47.1409" lon="-1.90625">
        <ele>21.03</ele>
        <time>2020-06-03T16:01:56Z</time>
      </trkpt>
      <trkpt lat="47.14076" lon="-1.90625">
        <ele>20.45</ele>
        <time>2020-06-03T16:01:58Z</time>
      </trkpt>
      <trkpt lat="47.14064" lon="-1.90625">
        <ele>20.07</ele>
        <time>2020-06-03T16:02:00Z</time>
      </trkpt>
      <trkpt lat="47.14051" lon="-1.90626">
        <ele>20.32</ele>
        <time>2020-06-03T16:02:02Z</time>
      </trkpt>
      <trkpt lat="47.1404" lon="-1.90628">
        <ele>20.19</ele>
        <time>2020-06-03T16:02:04Z</time>
      </trkpt>
      <trkpt lat="47.14027" lon="-1.9063">
        <ele>20.56</ele>
        <time>2020-06-03T16:02:06Z</time>
      </trkpt>
      <trkpt lat="47.14016" lon="-1.90631">
        <ele>20.58</ele>
        <time>2020-06-03T16:02:08Z</time>
      </trkpt>
      <trkpt lat="47.14003" lon="-1.90634">
        <ele>20.88</ele>
        <time>2020-06-03T16:02:10Z</time>
      </trkpt>
      <trkpt lat="47.1399" lon="-1.90637">
        <ele>20.15</ele>
        <time>2020-06-03T16:02:12Z</time>
      </trkpt>
      <trkpt lat="47.13978" lon="-1.9064">
        <ele>20.51</ele>
        <time>2020-06-03T16:02:14Z</time>
      </trkpt>
      <trkpt lat="47.13966" lon="-1.90643">
        <ele>21.09</ele>
        <time>2020-06-03T16:02:16Z</time>
      </trkpt>
      <trkpt lat="47.13952" lon="-1.90645">
        <ele>20.18</ele>
        <time>2020-06-03T16:02:18Z</time>
      </trkpt>
      <trkpt lat="47.13938" lon="-1.90649">
        <ele>18.87</ele>
        <time>2020-06-03T16:02:20Z</time>
      </trkpt>
      <trkpt lat="47.13927" lon="-1.90652">
        <ele>18.34</ele>
        <time>2020-06-03T16:02:22Z</time>
      </trkpt>
      <trkpt lat="47.13914" lon="-1.90656">
        <ele>17.96</ele>
        <time>2020-06-03T16:02:24Z</time>
      </trkpt>
      <trkpt lat="47.13901" lon="-1.90659">
        <ele>17.66</ele>
        <time>2020-06-03T16:02:26Z</time>
      </trkpt>
      <trkpt lat="47.13888" lon="-1.90663">
        <ele>18.1</ele>
        <time>2020-06-03T16:02:28Z</time>
      </trkpt>
      <trkpt lat="47.13876" lon="-1.90667">
        <ele>17.61</ele>
        <time>2020-06-03T16:02:30Z</time>
      </trkpt>
      <trkpt lat="47.13863" lon="-1.90671">
        <ele>17.48</ele>
        <time>2020-06-03T16:02:32Z</time>
      </trkpt>
      <trkpt lat="47.1385" lon="-1.90674">
        <ele>17.82</ele>
        <time>2020-06-03T16:02:34Z</time>
      </trkpt>
      <trkpt lat="47.13837" lon="-1.90676">
        <ele>18.54</ele>
        <time>2020-06-03T16:02:36Z</time>
      </trkpt>
      <trkpt lat="47.13824" lon="-1.90679">
        <ele>19.18</ele>
        <time>2020-06-03T16:02:38Z</time>
      </trkpt>
      <trkpt lat="47.13813" lon="-1.90681">
        <ele>19.25</ele>
        <time>2020-06-03T16:02:40Z</time>
      </trkpt>
      <trkpt lat="47.13799" lon="-1.90684">
        <ele>18.7</ele>
        <time>2020-06-03T16:02:42Z</time>
      </trkpt>
      <trkpt lat="47.13784" lon="-1.90689">
        <ele>17.85</ele>
        <time>2020-06-03T16:02:44Z</time>
      </trkpt>
      <trkpt lat="47.13769" lon="-1.90694">
        <ele>16.68</ele>
        <time>2020-06-03T16:02:46Z</time>
      </trkpt>
      <trkpt lat="47.13756" lon="-1.90702">
        <ele>15.46</ele>
        <time>2020-06-03T16:02:48Z</time>
      </trkpt>
      <trkpt lat="47.13745" lon="-1.90716">
        <ele>14.35</ele>
        <time>2020-06-03T16:02:50Z</time>
      </trkpt>
      <trkpt lat="47.13736" lon="-1.90731">
        <ele>14.7</ele>
        <time>2020-06-03T16:02:52Z</time>
      </trkpt>
      <trkpt lat="47.13728" lon="-1.90747">
        <ele>15.39</ele>
        <time>2020-06-03T16:02:54Z</time>
      </trkpt>
      <trkpt lat="47.1372" lon="-1.90764">
        <ele>15.45</ele>
        <time>2020-06-03T16:02:56Z</time>
      </trkpt>
      <trkpt lat="47.13714" lon="-1.90781">
        <ele>15.83</ele>
        <time>2020-06-03T16:02:58Z</time>
      </trkpt>
      <trkpt lat="47.13707" lon="-1.90798">
        <ele>16.36</ele>
        <time>2020-06-03T16:03:00Z</time>
      </trkpt>
      <trkpt lat="47.137" lon="-1.90817">
        <ele>16.96</ele>
        <time>2020-06-03T16:03:02Z</time>
      </trkpt>
      <trkpt lat="47.13694" lon="-1.90834">
        <ele>16.48</ele>
        <time>2020-06-03T16:03:04Z</time>
      </trkpt>
      <trkpt lat="47.13686" lon="-1.90852">
        <ele>15.13</ele>
        <time>2020-06-03T16:03:06Z</time>
      </trkpt>
      <trkpt lat="47.13679" lon="-1.90869">
        <ele>14.23</ele>
        <time>2020-06-03T16:03:08Z</time>
      </trkpt>
      <trkpt lat="47.13672" lon="-1.90885">
        <ele>13.66</ele>
        <time>2020-06-03T16:03:10Z</time>
      </trkpt>
      <trkpt lat="47.13665" lon="-1.90903">
        <ele>13.32</ele>
        <time>2020-06-03T16:03:12Z</time>
      </trkpt>
      <trkpt lat="47.13658" lon="-1.90919">
        <ele>13.57</ele>
        <time>2020-06-03T16:03:14Z</time>
      </trkpt>
      <trkpt lat="47.13651" lon="-1.90937">
        <ele>13.83</ele>
        <time>2020-06-03T16:03:16Z</time>
      </trkpt>
      <trkpt lat="47.13645" lon="-1.90949">
        <ele>13.8</ele>
        <time>2020-06-03T16:03:18Z</time>
      </trkpt>
      <trkpt lat="47.13638" lon="-1.90965">
        <ele>13.7</ele>
        <time>2020-06-03T16:03:20Z</time>
      </trkpt>
      <trkpt lat="47.13632" lon="-1.9098">
        <ele>14.16</ele>
        <time>2020-06-03T16:03:22Z</time>
      </trkpt>
      <trkpt lat="47.13626" lon="-1.90993">
        <ele>14.43</ele>
        <time>2020-06-03T16:03:24Z</time>
      </trkpt>
      <trkpt lat="47.13618" lon="-1.9101">
        <ele>14.57</ele>
        <time>2020-06-03T16:03:26Z</time>
      </trkpt>
      <trkpt lat="47.13612" lon="-1.91024">
        <ele>15.24</ele>
        <time>2020-06-03T16:03:28Z</time>
      </trkpt>
      <trkpt lat="47.13605" lon="-1.91036">
        <ele>14.35</ele>
        <time>2020-06-03T16:03:30Z</time>
      </trkpt>
      <trkpt lat="47.13595" lon="-1.91045">
        <ele>13.43</ele>
        <time>2020-06-03T16:03:32Z</time>
      </trkpt>
      <trkpt lat="47.13583" lon="-1.91052">
        <ele>12.98</ele>
        <time>2020-06-03T16:03:34Z</time>
      </trkpt>
      <trkpt lat="47.1357" lon="-1.91054">
        <ele>12.75</ele>
        <time>2020-06-03T16:03:36Z</time>
      </trkpt>
      <trkpt lat="47.13556" lon="-1.91056">
        <ele>12.48</ele>
        <time>2020-06-03T16:03:38Z</time>
      </trkpt>
      <trkpt lat="47.13542" lon="-1.91056">
        <ele>12.15</ele>
        <time>2020-06-03T16:03:40Z</time>
      </trkpt>
      <trkpt lat="47.13529" lon="-1.91057">
        <ele>11.81</ele>
        <time>2020-06-03T16:03:42Z</time>
      </trkpt>
      <trkpt lat="47.13515" lon="-1.91058">
        <ele>9.94</ele>
        <time>2020-06-03T16:03:44Z</time>
      </trkpt>
      <trkpt lat="47.13502" lon="-1.91059">
        <ele>9.27</ele>
        <time>2020-06-03T16:03:46Z</time>
      </trkpt>
      <trkpt lat="47.13489" lon="-1.91061">
        <ele>9.36</ele>
        <time>2020-06-03T16:03:48Z</time>
      </trkpt>
      <trkpt lat="47.13474" lon="-1.91062">
        <ele>9.67</ele>
        <time>2020-06-03T16:03:50Z</time>
      </trkpt>
      <trkpt lat="47.13461" lon="-1.91062">
        <ele>10.57</ele>
        <time>2020-06-03T16:03:52Z</time>
      </trkpt>
      <trkpt lat="47.13446" lon="-1.91063">
        <ele>11.53</ele>
        <time>2020-06-03T16:03:54Z</time>
      </trkpt>
      <trkpt lat="47.13435" lon="-1.91063">
        <ele>12.06</ele>
        <time>2020-06-03T16:03:56Z</time>
      </trkpt>
      <trkpt lat="47.13422" lon="-1.91062">
        <ele>11.33</ele>
        <time>2020-06-03T16:03:58Z</time>
      </trkpt>
      <trkpt lat="47.1341" lon="-1.91058">
        <ele>11.57</ele>
        <time>2020-06-03T16:04:00Z</time>
      </trkpt>
      <trkpt lat="47.13397" lon="-1.9105">
        <ele>11.51</ele>
        <time>2020-06-03T16:04:02Z</time>
      </trkpt>
      <trkpt lat="47.13386" lon="-1.91041">
        <ele>11.5</ele>
        <time>2020-06-03T16:04:04Z</time>
      </trkpt>
      <trkpt lat="47.13375" lon="-1.9103">
        <ele>11.16</ele>
        <time>2020-06-03T16:04:06Z</time>
      </trkpt>
      <trkpt lat="47.13364" lon="-1.91017">
        <ele>10.75</ele>
        <time>2020-06-03T16:04:08Z</time>
      </trkpt>
      <trkpt lat="47.13353" lon="-1.91006">
        <ele>9.88</ele>
        <time>2020-06-03T16:04:10Z</time>
      </trkpt>
      <trkpt lat="47.1334" lon="-1.90999">
        <ele>9.23</ele>
        <time>2020-06-03T16:04:12Z</time>
      </trkpt>
      <trkpt lat="47.13326" lon="-1.90999">
        <ele>9.01</ele>
        <time>2020-06-03T16:04:14Z</time>
      </trkpt>
      <trkpt lat="47.13313" lon="-1.91">
        <ele>9.07</ele>
        <time>2020-06-03T16:04:16Z</time>
      </trkpt>
      <trkpt lat="47.13302" lon="-1.91002">
        <ele>9.22</ele>
        <time>2020-06-03T16:04:18Z</time>
      </trkpt>
      <trkpt lat="47.13288" lon="-1.91006">
        <ele>9.54</ele>
        <time>2020-06-03T16:04:20Z</time>
      </trkpt>
      <trkpt lat="47.13275" lon="-1.9101">
        <ele>9.45</ele>
        <time>2020-06-03T16:04:22Z</time>
      </trkpt>
      <trkpt lat="47.13262" lon="-1.91014">
        <ele>9.94</ele>
        <time>2020-06-03T16:04:24Z</time>
      </trkpt>
      <trkpt lat="47.13249" lon="-1.91018">
        <ele>10.11</ele>
        <time>2020-06-03T16:04:26Z</time>
      </trkpt>
      <trkpt lat="47.13236" lon="-1.91022">
        <ele>10.38</ele>
        <time>2020-06-03T16:04:28Z</time>
      </trkpt>
      <trkpt lat="47.13224" lon="-1.91026">
        <ele>11.16</ele>
        <time>2020-06-03T16:04:30Z</time>
      </trkpt>
      <trkpt lat="47.13211" lon="-1.9103">
        <ele>11.63</ele>
        <time>2020-06-03T16:04:32Z</time>
      </trkpt>
      <trkpt lat="47.13198" lon="-1.91034">
        <ele>11.38</ele>
        <time>2020-06-03T16:04:34Z</time>
      </trkpt>
      <trkpt lat="47.13185" lon="-1.91037">
        <ele>10.64</ele>
        <time>2020-06-03T16:04:36Z</time>
      </trkpt>
      <trkpt lat="47.13172" lon="-1.91041">
        <ele>10.21</ele>
        <time>2020-06-03T16:04:38Z</time>
      </trkpt>
      <trkpt lat="47.13161" lon="-1.91045">
        <ele>9.86</ele>
        <time>2020-06-03T16:04:40Z</time>
      </trkpt>
      <trkpt lat="47.13147" lon="-1.91049">
        <ele>8.95</ele>
        <time>2020-06-03T16:04:42Z</time>
      </trkpt>
      <trkpt lat="47.13134" lon="-1.91053">
        <ele>8.92</ele>
        <time>2020-06-03T16:04:44Z</time>
      </trkpt>
      <trkpt lat="47.1312" lon="-1.91056">
        <ele>8.73</ele>
        <time>2020-06-03T16:04:46Z</time>
      </trkpt>
      <trkpt lat="47.13108" lon="-1.91059">
        <ele>9.2</ele>
        <time>2020-06-03T16:04:48Z</time>
      </trkpt>
      <trkpt lat="47.13095" lon="-1.91061">
        <ele>9.89</ele>
        <time>2020-06-03T16:04:50Z</time>
      </trkpt>
      <trkpt lat="47.13082" lon="-1.91063">
        <ele>10.45</ele>
        <time>2020-06-03T16:04:52Z</time>
      </trkpt>
      <trkpt lat="47.13069" lon="-1.91063">
        <ele>10.87</ele>
        <time>2020-06-03T16:04:54Z</time>
      </trkpt>
      <trkpt lat="47.13056" lon="-1.91062">
        <ele>10.31</ele>
        <time>2020-06-03T16:04:56Z</time>
      </trkpt>
      <trkpt lat="47.13044" lon="-1.91062">
        <ele>10.38</ele>
        <time>2020-06-03T16:04:58Z</time>
      </trkpt>
      <trkpt lat="47.13032" lon="-1.91062">
        <ele>10.25</ele>
        <time>2020-06-03T16:05:00Z</time>
      </trkpt>
      <trkpt lat="47.13019" lon="-1.91062">
        <ele>10.45</ele>
        <time>2020-06-03T16:05:02Z</time>
      </trkpt>
      <trkpt lat="47.13008" lon="-1.91061">
        <ele>10.17</ele>
        <time>2020-06-03T16:05:04Z</time>
      </trkpt>
      <trkpt lat="47.12993" lon="-1.9106">
        <ele>9.85</ele>
        <time>2020-06-03T16:05:06Z</time>
      </trkpt>
      <trkpt lat="47.1298" lon="-1.91059">
        <ele>10.71</ele>
        <time>2020-06-03T16:05:08Z</time>
      </trkpt>
      <trkpt lat="47.12968" lon="-1.91058">
        <ele>11.19</ele>
        <time>2020-06-03T16:05:10Z</time>
      </trkpt>
      <trkpt lat="47.12956" lon="-1.91059">
        <ele>11.31</ele>
        <time>2020-06-03T16:05:12Z</time>
      </trkpt>
      <trkpt lat="47.12944" lon="-1.91059">
        <ele>10.67</ele>
        <time>2020-06-03T16:05:14Z</time>
      </trkpt>
      <trkpt lat="47.12931" lon="-1.91059">
        <ele>10.83</ele>
        <time>2020-06-03T16:05:16Z</time>
      </trkpt>
      <trkpt lat="47.12917" lon="-1.91059">
        <ele>10.76</ele>
        <time>2020-06-03T16:05:18Z</time>
      </trkpt>
      <trkpt lat="47.12906" lon="-1.91059">
        <ele>11</ele>
        <time>2020-06-03T16:05:20Z</time>
      </trkpt>
      <trkpt lat="47.12893" lon="-1.91059">
        <ele>10.86</ele>
        <time>2020-06-03T16:05:22Z</time>
      </trkpt>
      <trkpt lat="47.1288" lon="-1.9106">
        <ele>10.4</ele>
        <time>2020-06-03T16:05:24Z</time>
      </trkpt>
      <trkpt lat="47.12867" lon="-1.9106">
        <ele>9.86</ele>
        <time>2020-06-03T16:05:26Z</time>
      </trkpt>
      <trkpt lat="47.12855" lon="-1.9106">
        <ele>10.31</ele>
        <time>2020-06-03T16:05:28Z</time>
      </trkpt>
      <trkpt lat="47.12842" lon="-1.91061">
        <ele>10.44</ele>
        <time>2020-06-03T16:05:30Z</time>
      </trkpt>
      <trkpt lat="47.12828" lon="-1.91064">
        <ele>10.48</ele>
        <time>2020-06-03T16:05:32Z</time>
      </trkpt>
      <trkpt lat="47.12816" lon="-1.91072">
        <ele>10.29</ele>
        <time>2020-06-03T16:05:34Z</time>
      </trkpt>
      <trkpt lat="47.12805" lon="-1.91081">
        <ele>10.44</ele>
        <time>2020-06-03T16:05:36Z</time>
      </trkpt>
      <trkpt lat="47.12794" lon="-1.91091">
        <ele>10.68</ele>
        <time>2020-06-03T16:05:38Z</time>
      </trkpt>
      <trkpt lat="47.12783" lon="-1.91092">
        <ele>10.28</ele>
        <time>2020-06-03T16:05:40Z</time>
      </trkpt>
      <trkpt lat="47.12773" lon="-1.91082">
        <ele>9.98</ele>
        <time>2020-06-03T16:05:42Z</time>
      </trkpt>
      <trkpt lat="47.12762" lon="-1.91071">
        <ele>10.08</ele>
        <time>2020-06-03T16:05:44Z</time>
      </trkpt>
      <trkpt lat="47.12752" lon="-1.91063">
        <ele>10.01</ele>
        <time>2020-06-03T16:05:46Z</time>
      </trkpt>
      <trkpt lat="47.1274" lon="-1.91061">
        <ele>10.26</ele>
        <time>2020-06-03T16:05:48Z</time>
      </trkpt>
      <trkpt lat="47.12727" lon="-1.9106">
        <ele>10.85</ele>
        <time>2020-06-03T16:05:50Z</time>
      </trkpt>
      <trkpt lat="47.12712" lon="-1.91059">
        <ele>11.2</ele>
        <time>2020-06-03T16:05:52Z</time>
      </trkpt>
      <trkpt lat="47.12698" lon="-1.91059">
        <ele>10.28</ele>
        <time>2020-06-03T16:05:54Z</time>
      </trkpt>
      <trkpt lat="47.12685" lon="-1.91063">
        <ele>10.45</ele>
        <time>2020-06-03T16:05:56Z</time>
      </trkpt>
      <trkpt lat="47.12671" lon="-1.91066">
        <ele>10.65</ele>
        <time>2020-06-03T16:05:58Z</time>
      </trkpt>
      <trkpt lat="47.12658" lon="-1.91065">
        <ele>11.05</ele>
        <time>2020-06-03T16:06:00Z</time>
      </trkpt>
      <trkpt lat="47.12643" lon="-1.91064">
        <ele>10.83</ele>
        <time>2020-06-03T16:06:02Z</time>
      </trkpt>
      <trkpt lat="47.12628" lon="-1.91064">
        <ele>9.93</ele>
        <time>2020-06-03T16:06:04Z</time>
      </trkpt>
      <trkpt lat="47.12617" lon="-1.91065">
        <ele>9.3</ele>
        <time>2020-06-03T16:06:06Z</time>
      </trkpt>
      <trkpt lat="47.12603" lon="-1.91065">
        <ele>8.51</ele>
        <time>2020-06-03T16:06:08Z</time>
      </trkpt>
      <trkpt lat="47.12589" lon="-1.91066">
        <ele>6.88</ele>
        <time>2020-06-03T16:06:10Z</time>
      </trkpt>
      <trkpt lat="47.12576" lon="-1.91066">
        <ele>6.34</ele>
        <time>2020-06-03T16:06:12Z</time>
      </trkpt>
      <trkpt lat="47.12562" lon="-1.91066">
        <ele>6.11</ele>
        <time>2020-06-03T16:06:14Z</time>
      </trkpt>
      <trkpt lat="47.12548" lon="-1.91065">
        <ele>6.43</ele>
        <time>2020-06-03T16:06:16Z</time>
      </trkpt>
      <trkpt lat="47.12535" lon="-1.91065">
        <ele>7.22</ele>
        <time>2020-06-03T16:06:18Z</time>
      </trkpt>
      <trkpt lat="47.1252" lon="-1.91064">
        <ele>7.83</ele>
        <time>2020-06-03T16:06:20Z</time>
      </trkpt>
      <trkpt lat="47.12506" lon="-1.91065">
        <ele>7.79</ele>
        <time>2020-06-03T16:06:22Z</time>
      </trkpt>
      <trkpt lat="47.12493" lon="-1.91068">
        <ele>7.73</ele>
        <time>2020-06-03T16:06:24Z</time>
      </trkpt>
      <trkpt lat="47.12481" lon="-1.91072">
        <ele>7.87</ele>
        <time>2020-06-03T16:06:26Z</time>
      </trkpt>
      <trkpt lat="47.12469" lon="-1.91078">
        <ele>8.01</ele>
        <time>2020-06-03T16:06:28Z</time>
      </trkpt>
      <trkpt lat="47.12457" lon="-1.9108">
        <ele>7.74</ele>
        <time>2020-06-03T16:06:30Z</time>
      </trkpt>
      <trkpt lat="47.12445" lon="-1.91083">
        <ele>7.39</ele>
        <time>2020-06-03T16:06:32Z</time>
      </trkpt>
      <trkpt lat="47.12432" lon="-1.9109">
        <ele>7.99</ele>
        <time>2020-06-03T16:06:34Z</time>
      </trkpt>
      <trkpt lat="47.1242" lon="-1.91096">
        <ele>9.03</ele>
        <time>2020-06-03T16:06:36Z</time>
      </trkpt>
      <trkpt lat="47.12408" lon="-1.91103">
        <ele>9.45</ele>
        <time>2020-06-03T16:06:38Z</time>
      </trkpt>
      <trkpt lat="47.12396" lon="-1.91111">
        <ele>9.99</ele>
        <time>2020-06-03T16:06:40Z</time>
      </trkpt>
      <trkpt lat="47.12386" lon="-1.91125">
        <ele>10</ele>
        <time>2020-06-03T16:06:42Z</time>
      </trkpt>
      <trkpt lat="47.12378" lon="-1.91138">
        <ele>9.19</ele>
        <time>2020-06-03T16:06:44Z</time>
      </trkpt>
      <trkpt lat="47.12369" lon="-1.91154">
        <ele>9.28</ele>
        <time>2020-06-03T16:06:46Z</time>
      </trkpt>
      <trkpt lat="47.12362" lon="-1.91169">
        <ele>9.33</ele>
        <time>2020-06-03T16:06:48Z</time>
      </trkpt>
      <trkpt lat="47.12356" lon="-1.91183">
        <ele>8.68</ele>
        <time>2020-06-03T16:06:50Z</time>
      </trkpt>
      <trkpt lat="47.12349" lon="-1.91199">
        <ele>8.18</ele>
        <time>2020-06-03T16:06:52Z</time>
      </trkpt>
      <trkpt lat="47.12342" lon="-1.91214">
        <ele>8.11</ele>
        <time>2020-06-03T16:06:54Z</time>
      </trkpt>
      <trkpt lat="47.12334" lon="-1.9123">
        <ele>8.41</ele>
        <time>2020-06-03T16:06:56Z</time>
      </trkpt>
      <trkpt lat="47.12326" lon="-1.91247">
        <ele>9.27</ele>
        <time>2020-06-03T16:06:58Z</time>
      </trkpt>
      <trkpt lat="47.12319" lon="-1.91261">
        <ele>10.31</ele>
        <time>2020-06-03T16:07:00Z</time>
      </trkpt>
      <trkpt lat="47.12309" lon="-1.91278">
        <ele>11.42</ele>
        <time>2020-06-03T16:07:02Z</time>
      </trkpt>
      <trkpt lat="47.12302" lon="-1.91293">
        <ele>11.84</ele>
        <time>2020-06-03T16:07:04Z</time>
      </trkpt>
      <trkpt lat="47.12294" lon="-1.91307">
        <ele>12.04</ele>
        <time>2020-06-03T16:07:06Z</time>
      </trkpt>
      <trkpt lat="47.12287" lon="-1.91321">
        <ele>11.96</ele>
        <time>2020-06-03T16:07:08Z</time>
      </trkpt>
      <trkpt lat="47.12279" lon="-1.91335">
        <ele>11.16</ele>
        <time>2020-06-03T16:07:10Z</time>
      </trkpt>
      <trkpt lat="47.12272" lon="-1.9135">
        <ele>10.77</ele>
        <time>2020-06-03T16:07:12Z</time>
      </trkpt>
      <trkpt lat="47.12265" lon="-1.91363">
        <ele>10.24</ele>
        <time>2020-06-03T16:07:14Z</time>
      </trkpt>
      <trkpt lat="47.12257" lon="-1.91377">
        <ele>10.15</ele>
        <time>2020-06-03T16:07:16Z</time>
      </trkpt>
      <trkpt lat="47.12251" lon="-1.91389">
        <ele>9.82</ele>
        <time>2020-06-03T16:07:18Z</time>
      </trkpt>
      <trkpt lat="47.12242" lon="-1.91403">
        <ele>9.61</ele>
        <time>2020-06-03T16:07:20Z</time>
      </trkpt>
      <trkpt lat="47.12236" lon="-1.91418">
        <ele>9.18</ele>
        <time>2020-06-03T16:07:22Z</time>
      </trkpt>
      <trkpt lat="47.12225" lon="-1.91414">
        <ele>8.16</ele>
        <time>2020-06-03T16:07:25Z</time>
      </trkpt>
      <trkpt lat="47.12212" lon="-1.914">
        <ele>7.17</ele>
        <time>2020-06-03T16:07:27Z</time>
      </trkpt>
      <trkpt lat="47.12201" lon="-1.91385">
        <ele>6.5</ele>
        <time>2020-06-03T16:07:29Z</time>
      </trkpt>
      <trkpt lat="47.12191" lon="-1.91372">
        <ele>6.19</ele>
        <time>2020-06-03T16:07:31Z</time>
      </trkpt>
      <trkpt lat="47.1218" lon="-1.91358">
        <ele>5.77</ele>
        <time>2020-06-03T16:07:33Z</time>
      </trkpt>
      <trkpt lat="47.12169" lon="-1.91344">
        <ele>5.34</ele>
        <time>2020-06-03T16:07:35Z</time>
      </trkpt>
      <trkpt lat="47.1216" lon="-1.91332">
        <ele>5.2</ele>
        <time>2020-06-03T16:07:37Z</time>
      </trkpt>
      <trkpt lat="47.12149" lon="-1.9132">
        <ele>4.96</ele>
        <time>2020-06-03T16:07:39Z</time>
      </trkpt>
      <trkpt lat="47.12138" lon="-1.91306">
        <ele>4.82</ele>
        <time>2020-06-03T16:07:41Z</time>
      </trkpt>
      <trkpt lat="47.12127" lon="-1.91293">
        <ele>5.76</ele>
        <time>2020-06-03T16:07:43Z</time>
      </trkpt>
      <trkpt lat="47.12117" lon="-1.9128">
        <ele>6.93</ele>
        <time>2020-06-03T16:07:45Z</time>
      </trkpt>
      <trkpt lat="47.12107" lon="-1.91267">
        <ele>7.62</ele>
        <time>2020-06-03T16:07:47Z</time>
      </trkpt>
      <trkpt lat="47.12096" lon="-1.91254">
        <ele>7.83</ele>
        <time>2020-06-03T16:07:49Z</time>
      </trkpt>
      <trkpt lat="47.12085" lon="-1.91241">
        <ele>7.45</ele>
        <time>2020-06-03T16:07:51Z</time>
      </trkpt>
      <trkpt lat="47.12073" lon="-1.91229">
        <ele>7.67</ele>
        <time>2020-06-03T16:07:53Z</time>
      </trkpt>
      <trkpt lat="47.12061" lon="-1.91218">
        <ele>8.17</ele>
        <time>2020-06-03T16:07:55Z</time>
      </trkpt>
      <trkpt lat="47.1205" lon="-1.91208">
        <ele>8.04</ele>
        <time>2020-06-03T16:07:57Z</time>
      </trkpt>
      <trkpt lat="47.12036" lon="-1.91195">
        <ele>7.68</ele>
        <time>2020-06-03T16:07:59Z</time>
      </trkpt>
      <trkpt lat="47.12025" lon="-1.91184">
        <ele>7.05</ele>
        <time>2020-06-03T16:08:01Z</time>
      </trkpt>
      <trkpt lat="47.12014" lon="-1.91169">
        <ele>7.03</ele>
        <time>2020-06-03T16:08:03Z</time>
      </trkpt>
      <trkpt lat="47.12003" lon="-1.91152">
        <ele>6.58</ele>
        <time>2020-06-03T16:08:05Z</time>
      </trkpt>
      <trkpt lat="47.11993" lon="-1.91134">
        <ele>6.55</ele>
        <time>2020-06-03T16:08:07Z</time>
      </trkpt>
      <trkpt lat="47.11984" lon="-1.91115">
        <ele>7.15</ele>
        <time>2020-06-03T16:08:09Z</time>
      </trkpt>
      <trkpt lat="47.11975" lon="-1.91098">
        <ele>7.05</ele>
        <time>2020-06-03T16:08:11Z</time>
      </trkpt>
      <trkpt lat="47.11966" lon="-1.91079">
        <ele>7.33</ele>
        <time>2020-06-03T16:08:13Z</time>
      </trkpt>
      <trkpt lat="47.11957" lon="-1.91061">
        <ele>7.32</ele>
        <time>2020-06-03T16:08:15Z</time>
      </trkpt>
      <trkpt lat="47.11947" lon="-1.91044">
        <ele>7.41</ele>
        <time>2020-06-03T16:08:17Z</time>
      </trkpt>
      <trkpt lat="47.11938" lon="-1.91028">
        <ele>6.6</ele>
        <time>2020-06-03T16:08:19Z</time>
      </trkpt>
      <trkpt lat="47.11928" lon="-1.91008">
        <ele>5.93</ele>
        <time>2020-06-03T16:08:21Z</time>
      </trkpt>
      <trkpt lat="47.1192" lon="-1.90991">
        <ele>5.46</ele>
        <time>2020-06-03T16:08:23Z</time>
      </trkpt>
      <trkpt lat="47.1191" lon="-1.90973">
        <ele>5.72</ele>
        <time>2020-06-03T16:08:25Z</time>
      </trkpt>
      <trkpt lat="47.11901" lon="-1.90955">
        <ele>5.37</ele>
        <time>2020-06-03T16:08:27Z</time>
      </trkpt>
      <trkpt lat="47.11893" lon="-1.90939">
        <ele>5.7</ele>
        <time>2020-06-03T16:08:29Z</time>
      </trkpt>
      <trkpt lat="47.11884" lon="-1.90923">
        <ele>5.9</ele>
        <time>2020-06-03T16:08:31Z</time>
      </trkpt>
      <trkpt lat="47.11874" lon="-1.90905">
        <ele>5.95</ele>
        <time>2020-06-03T16:08:33Z</time>
      </trkpt>
      <trkpt lat="47.11865" lon="-1.90886">
        <ele>5.95</ele>
        <time>2020-06-03T16:08:35Z</time>
      </trkpt>
      <trkpt lat="47.11857" lon="-1.9087">
        <ele>5.78</ele>
        <time>2020-06-03T16:08:37Z</time>
      </trkpt>
      <trkpt lat="47.11847" lon="-1.90852">
        <ele>5.36</ele>
        <time>2020-06-03T16:08:39Z</time>
      </trkpt>
      <trkpt lat="47.11838" lon="-1.90834">
        <ele>4.4</ele>
        <time>2020-06-03T16:08:41Z</time>
      </trkpt>
      <trkpt lat="47.11829" lon="-1.90817">
        <ele>3.85</ele>
        <time>2020-06-03T16:08:43Z</time>
      </trkpt>
      <trkpt lat="47.11819" lon="-1.90799">
        <ele>3.48</ele>
        <time>2020-06-03T16:08:45Z</time>
      </trkpt>
      <trkpt lat="47.1181" lon="-1.90783">
        <ele>2.99</ele>
        <time>2020-06-03T16:08:47Z</time>
      </trkpt>
      <trkpt lat="47.11801" lon="-1.90766">
        <ele>2.16</ele>
        <time>2020-06-03T16:08:49Z</time>
      </trkpt>
      <trkpt lat="47.11791" lon="-1.90748">
        <ele>1.49</ele>
        <time>2020-06-03T16:08:51Z</time>
      </trkpt>
      <trkpt lat="47.11781" lon="-1.9073">
        <ele>0.97</ele>
        <time>2020-06-03T16:08:53Z</time>
      </trkpt>
      <trkpt lat="47.11772" lon="-1.90712">
        <ele>0.8</ele>
        <time>2020-06-03T16:08:55Z</time>
      </trkpt>
      <trkpt lat="47.11763" lon="-1.90693">
        <ele>1.52</ele>
        <time>2020-06-03T16:08:57Z</time>
      </trkpt>
      <trkpt lat="47.11755" lon="-1.90676">
        <ele>2.38</ele>
        <time>2020-06-03T16:08:59Z</time>
      </trkpt>
      <trkpt lat="47.11745" lon="-1.90657">
        <ele>2.7</ele>
        <time>2020-06-03T16:09:01Z</time>
      </trkpt>
      <trkpt lat="47.11735" lon="-1.90639">
        <ele>2.06</ele>
        <time>2020-06-03T16:09:03Z</time>
      </trkpt>
      <trkpt lat="47.11726" lon="-1.90622">
        <ele>2.02</ele>
        <time>2020-06-03T16:09:05Z</time>
      </trkpt>
      <trkpt lat="47.11716" lon="-1.90605">
        <ele>3.04</ele>
        <time>2020-06-03T16:09:07Z</time>
      </trkpt>
      <trkpt lat="47.11707" lon="-1.90585">
        <ele>4.21</ele>
        <time>2020-06-03T16:09:09Z</time>
      </trkpt>
      <trkpt lat="47.11699" lon="-1.90568">
        <ele>4.84</ele>
        <time>2020-06-03T16:09:11Z</time>
      </trkpt>
      <trkpt lat="47.11692" lon="-1.9055">
        <ele>4.53</ele>
        <time>2020-06-03T16:09:13Z</time>
      </trkpt>
      <trkpt lat="47.11686" lon="-1.90532">
        <ele>3.87</ele>
        <time>2020-06-03T16:09:15Z</time>
      </trkpt>
      <trkpt lat="47.1168" lon="-1.90511">
        <ele>4.04</ele>
        <time>2020-06-03T16:09:17Z</time>
      </trkpt>
      <trkpt lat="47.11674" lon="-1.90493">
        <ele>4.48</ele>
        <time>2020-06-03T16:09:19Z</time>
      </trkpt>
      <trkpt lat="47.11668" lon="-1.90475">
        <ele>4.96</ele>
        <time>2020-06-03T16:09:21Z</time>
      </trkpt>
      <trkpt lat="47.11662" lon="-1.90456">
        <ele>5.18</ele>
        <time>2020-06-03T16:09:23Z</time>
      </trkpt>
      <trkpt lat="47.11656" lon="-1.90437">
        <ele>3.95</ele>
        <time>2020-06-03T16:09:25Z</time>
      </trkpt>
      <trkpt lat="47.11651" lon="-1.90418">
        <ele>2.61</ele>
        <time>2020-06-03T16:09:27Z</time>
      </trkpt>
      <trkpt lat="47.11645" lon="-1.90398">
        <ele>2.05</ele>
        <time>2020-06-03T16:09:29Z</time>
      </trkpt>
      <trkpt lat="47.1164" lon="-1.90379">
        <ele>0.92</ele>
        <time>2020-06-03T16:09:31Z</time>
      </trkpt>
      <trkpt lat="47.11634" lon="-1.9036">
        <ele>0.81</ele>
        <time>2020-06-03T16:09:34Z</time>
      </trkpt>
      <trkpt lat="47.11628" lon="-1.90341">
        <ele>1.07</ele>
        <time>2020-06-03T16:09:35Z</time>
      </trkpt>
      <trkpt lat="47.11622" lon="-1.90322">
        <ele>1.35</ele>
        <time>2020-06-03T16:09:38Z</time>
      </trkpt>
      <trkpt lat="47.11616" lon="-1.90304">
        <ele>1.54</ele>
        <time>2020-06-03T16:09:40Z</time>
      </trkpt>
      <trkpt lat="47.1161" lon="-1.90285">
        <ele>1.28</ele>
        <time>2020-06-03T16:09:42Z</time>
      </trkpt>
      <trkpt lat="47.11604" lon="-1.90265">
        <ele>1.74</ele>
        <time>2020-06-03T16:09:44Z</time>
      </trkpt>
      <trkpt lat="47.11599" lon="-1.90245">
        <ele>1.64</ele>
        <time>2020-06-03T16:09:46Z</time>
      </trkpt>
      <trkpt lat="47.11594" lon="-1.90227">
        <ele>1.78</ele>
        <time>2020-06-03T16:09:48Z</time>
      </trkpt>
      <trkpt lat="47.11588" lon="-1.90207">
        <ele>1.46</ele>
        <time>2020-06-03T16:09:50Z</time>
      </trkpt>
      <trkpt lat="47.11582" lon="-1.9019">
        <ele>1.68</ele>
        <time>2020-06-03T16:09:52Z</time>
      </trkpt>
      <trkpt lat="47.11576" lon="-1.90171">
        <ele>1.89</ele>
        <time>2020-06-03T16:09:54Z</time>
      </trkpt>
      <trkpt lat="47.1157" lon="-1.90152">
        <ele>1.95</ele>
        <time>2020-06-03T16:09:56Z</time>
      </trkpt>
      <trkpt lat="47.11564" lon="-1.90133">
        <ele>1.83</ele>
        <time>2020-06-03T16:09:58Z</time>
      </trkpt>
      <trkpt lat="47.11558" lon="-1.90114">
        <ele>2.3</ele>
        <time>2020-06-03T16:10:00Z</time>
      </trkpt>
      <trkpt lat="47.11552" lon="-1.90093">
        <ele>1.96</ele>
        <time>2020-06-03T16:10:02Z</time>
      </trkpt>
      <trkpt lat="47.11546" lon="-1.90075">
        <ele>1.77</ele>
        <time>2020-06-03T16:10:04Z</time>
      </trkpt>
      <trkpt lat="47.1154" lon="-1.90058">
        <ele>1.51</ele>
        <time>2020-06-03T16:10:06Z</time>
      </trkpt>
      <trkpt lat="47.11533" lon="-1.90038">
        <ele>1.89</ele>
        <time>2020-06-03T16:10:08Z</time>
      </trkpt>
      <trkpt lat="47.11527" lon="-1.90016">
        <ele>1.77</ele>
        <time>2020-06-03T16:10:10Z</time>
      </trkpt>
      <trkpt lat="47.11522" lon="-1.90001">
        <ele>2.5</ele>
        <time>2020-06-03T16:10:12Z</time>
      </trkpt>
      <trkpt lat="47.11516" lon="-1.89983">
        <ele>3.5</ele>
        <time>2020-06-03T16:10:14Z</time>
      </trkpt>
      <trkpt lat="47.11509" lon="-1.89963">
        <ele>3.65</ele>
        <time>2020-06-03T16:10:16Z</time>
      </trkpt>
      <trkpt lat="47.11503" lon="-1.89944">
        <ele>3.6</ele>
        <time>2020-06-03T16:10:18Z</time>
      </trkpt>
      <trkpt lat="47.11495" lon="-1.89927">
        <ele>4.01</ele>
        <time>2020-06-03T16:10:20Z</time>
      </trkpt>
      <trkpt lat="47.11486" lon="-1.8991">
        <ele>4.16</ele>
        <time>2020-06-03T16:10:22Z</time>
      </trkpt>
      <trkpt lat="47.11476" lon="-1.89896">
        <ele>4.16</ele>
        <time>2020-06-03T16:10:24Z</time>
      </trkpt>
      <trkpt lat="47.11466" lon="-1.89883">
        <ele>4.61</ele>
        <time>2020-06-03T16:10:26Z</time>
      </trkpt>
      <trkpt lat="47.11455" lon="-1.8987">
        <ele>5.77</ele>
        <time>2020-06-03T16:10:28Z</time>
      </trkpt>
      <trkpt lat="47.11445" lon="-1.89858">
        <ele>5.72</ele>
        <time>2020-06-03T16:10:30Z</time>
      </trkpt>
      <trkpt lat="47.11436" lon="-1.89847">
        <ele>5.55</ele>
        <time>2020-06-03T16:10:32Z</time>
      </trkpt>
      <trkpt lat="47.11426" lon="-1.89835">
        <ele>5.84</ele>
        <time>2020-06-03T16:10:34Z</time>
      </trkpt>
      <trkpt lat="47.11416" lon="-1.89824">
        <ele>4.87</ele>
        <time>2020-06-03T16:10:36Z</time>
      </trkpt>
      <trkpt lat="47.11405" lon="-1.89811">
        <ele>4.96</ele>
        <time>2020-06-03T16:10:38Z</time>
      </trkpt>
      <trkpt lat="47.11394" lon="-1.89797">
        <ele>5.18</ele>
        <time>2020-06-03T16:10:40Z</time>
      </trkpt>
      <trkpt lat="47.11384" lon="-1.89782">
        <ele>6.32</ele>
        <time>2020-06-03T16:10:42Z</time>
      </trkpt>
      <trkpt lat="47.11376" lon="-1.89771">
        <ele>7.66</ele>
        <time>2020-06-03T16:10:44Z</time>
      </trkpt>
      <trkpt lat="47.11366" lon="-1.89759">
        <ele>8.5</ele>
        <time>2020-06-03T16:10:46Z</time>
      </trkpt>
      <trkpt lat="47.11356" lon="-1.89746">
        <ele>8.38</ele>
        <time>2020-06-03T16:10:48Z</time>
      </trkpt>
      <trkpt lat="47.11346" lon="-1.89733">
        <ele>7.99</ele>
        <time>2020-06-03T16:10:50Z</time>
      </trkpt>
      <trkpt lat="47.11336" lon="-1.8972">
        <ele>7.94</ele>
        <time>2020-06-03T16:10:52Z</time>
      </trkpt>
      <trkpt lat="47.11326" lon="-1.89708">
        <ele>8.27</ele>
        <time>2020-06-03T16:10:54Z</time>
      </trkpt>
      <trkpt lat="47.11316" lon="-1.89695">
        <ele>8.22</ele>
        <time>2020-06-03T16:10:56Z</time>
      </trkpt>
      <trkpt lat="47.11306" lon="-1.89682">
        <ele>7.32</ele>
        <time>2020-06-03T16:10:58Z</time>
      </trkpt>
      <trkpt lat="47.11297" lon="-1.89669">
        <ele>6.92</ele>
        <time>2020-06-03T16:11:00Z</time>
      </trkpt>
      <trkpt lat="47.11286" lon="-1.89657">
        <ele>7.01</ele>
        <time>2020-06-03T16:11:02Z</time>
      </trkpt>
      <trkpt lat="47.11275" lon="-1.89643">
        <ele>7.03</ele>
        <time>2020-06-03T16:11:04Z</time>
      </trkpt>
      <trkpt lat="47.11266" lon="-1.89631">
        <ele>7.02</ele>
        <time>2020-06-03T16:11:06Z</time>
      </trkpt>
      <trkpt lat="47.11256" lon="-1.89617">
        <ele>7.8</ele>
        <time>2020-06-03T16:11:08Z</time>
      </trkpt>
      <trkpt lat="47.11246" lon="-1.89605">
        <ele>9.27</ele>
        <time>2020-06-03T16:11:10Z</time>
      </trkpt>
      <trkpt lat="47.11236" lon="-1.89592">
        <ele>9.94</ele>
        <time>2020-06-03T16:11:12Z</time>
      </trkpt>
      <trkpt lat="47.11227" lon="-1.8958">
        <ele>9.42</ele>
        <time>2020-06-03T16:11:14Z</time>
      </trkpt>
      <trkpt lat="47.11219" lon="-1.89569">
        <ele>8.97</ele>
        <time>2020-06-03T16:11:16Z</time>
      </trkpt>
      <trkpt lat="47.11209" lon="-1.89557">
        <ele>8.51</ele>
        <time>2020-06-03T16:11:18Z</time>
      </trkpt>
      <trkpt lat="47.112" lon="-1.89544">
        <ele>8.68</ele>
        <time>2020-06-03T16:11:20Z</time>
      </trkpt>
      <trkpt lat="47.11191" lon="-1.89534">
        <ele>8.9</ele>
        <time>2020-06-03T16:11:22Z</time>
      </trkpt>
      <trkpt lat="47.11181" lon="-1.89522">
        <ele>8.85</ele>
        <time>2020-06-03T16:11:24Z</time>
      </trkpt>
      <trkpt lat="47.11171" lon="-1.89509">
        <ele>8.72</ele>
        <time>2020-06-03T16:11:26Z</time>
      </trkpt>
      <trkpt lat="47.11161" lon="-1.89497">
        <ele>9.1</ele>
        <time>2020-06-03T16:11:28Z</time>
      </trkpt>
      <trkpt lat="47.11151" lon="-1.89483">
        <ele>9.64</ele>
        <time>2020-06-03T16:11:30Z</time>
      </trkpt>
      <trkpt lat="47.11141" lon="-1.8947">
        <ele>10.49</ele>
        <time>2020-06-03T16:11:32Z</time>
      </trkpt>
      <trkpt lat="47.11131" lon="-1.89457">
        <ele>10.43</ele>
        <time>2020-06-03T16:11:34Z</time>
      </trkpt>
      <trkpt lat="47.11122" lon="-1.89446">
        <ele>9.69</ele>
        <time>2020-06-03T16:11:36Z</time>
      </trkpt>
      <trkpt lat="47.11112" lon="-1.89432">
        <ele>9.13</ele>
        <time>2020-06-03T16:11:38Z</time>
      </trkpt>
      <trkpt lat="47.11102" lon="-1.89418">
        <ele>8.94</ele>
        <time>2020-06-03T16:11:40Z</time>
      </trkpt>
      <trkpt lat="47.11092" lon="-1.89403">
        <ele>8.78</ele>
        <time>2020-06-03T16:11:42Z</time>
      </trkpt>
      <trkpt lat="47.11085" lon="-1.89392">
        <ele>8.93</ele>
        <time>2020-06-03T16:11:44Z</time>
      </trkpt>
      <trkpt lat="47.11077" lon="-1.89378">
        <ele>9.03</ele>
        <time>2020-06-03T16:11:46Z</time>
      </trkpt>
      <trkpt lat="47.11069" lon="-1.89362">
        <ele>9.11</ele>
        <time>2020-06-03T16:11:48Z</time>
      </trkpt>
      <trkpt lat="47.11062" lon="-1.89347">
        <ele>9.5</ele>
        <time>2020-06-03T16:11:50Z</time>
      </trkpt>
      <trkpt lat="47.11056" lon="-1.89329">
        <ele>8.69</ele>
        <time>2020-06-03T16:11:52Z</time>
      </trkpt>
      <trkpt lat="47.1105" lon="-1.8931">
        <ele>8.48</ele>
        <time>2020-06-03T16:11:54Z</time>
      </trkpt>
      <trkpt lat="47.11043" lon="-1.89289">
        <ele>8.46</ele>
        <time>2020-06-03T16:11:56Z</time>
      </trkpt>
      <trkpt lat="47.11038" lon="-1.89269">
        <ele>9.32</ele>
        <time>2020-06-03T16:11:58Z</time>
      </trkpt>
      <trkpt lat="47.11033" lon="-1.8925">
        <ele>10.93</ele>
        <time>2020-06-03T16:12:00Z</time>
      </trkpt>
      <trkpt lat="47.11028" lon="-1.89233">
        <ele>11.67</ele>
        <time>2020-06-03T16:12:02Z</time>
      </trkpt>
      <trkpt lat="47.11023" lon="-1.89214">
        <ele>12.52</ele>
        <time>2020-06-03T16:12:04Z</time>
      </trkpt>
      <trkpt lat="47.11018" lon="-1.89196">
        <ele>13.13</ele>
        <time>2020-06-03T16:12:06Z</time>
      </trkpt>
      <trkpt lat="47.11011" lon="-1.89176">
        <ele>12.43</ele>
        <time>2020-06-03T16:12:08Z</time>
      </trkpt>
      <trkpt lat="47.11005" lon="-1.89158">
        <ele>12.16</ele>
        <time>2020-06-03T16:12:10Z</time>
      </trkpt>
      <trkpt lat="47.10999" lon="-1.89136">
        <ele>12.25</ele>
        <time>2020-06-03T16:12:12Z</time>
      </trkpt>
      <trkpt lat="47.10993" lon="-1.89115">
        <ele>11.86</ele>
        <time>2020-06-03T16:12:14Z</time>
      </trkpt>
      <trkpt lat="47.10987" lon="-1.89096">
        <ele>11.14</ele>
        <time>2020-06-03T16:12:16Z</time>
      </trkpt>
      <trkpt lat="47.10981" lon="-1.89077">
        <ele>10.57</ele>
        <time>2020-06-03T16:12:18Z</time>
      </trkpt>
      <trkpt lat="47.10975" lon="-1.89056">
        <ele>9.87</ele>
        <time>2020-06-03T16:12:20Z</time>
      </trkpt>
      <trkpt lat="47.10969" lon="-1.89037">
        <ele>8.96</ele>
        <time>2020-06-03T16:12:22Z</time>
      </trkpt>
      <trkpt lat="47.10963" lon="-1.89015">
        <ele>8.29</ele>
        <time>2020-06-03T16:12:24Z</time>
      </trkpt>
      <trkpt lat="47.10956" lon="-1.88993">
        <ele>8.37</ele>
        <time>2020-06-03T16:12:26Z</time>
      </trkpt>
      <trkpt lat="47.10951" lon="-1.88972">
        <ele>7.28</ele>
        <time>2020-06-03T16:12:28Z</time>
      </trkpt>
      <trkpt lat="47.10944" lon="-1.88951">
        <ele>6.17</ele>
        <time>2020-06-03T16:12:30Z</time>
      </trkpt>
      <trkpt lat="47.10937" lon="-1.8893">
        <ele>5.66</ele>
        <time>2020-06-03T16:12:32Z</time>
      </trkpt>
      <trkpt lat="47.10931" lon="-1.88909">
        <ele>5.74</ele>
        <time>2020-06-03T16:12:34Z</time>
      </trkpt>
      <trkpt lat="47.10924" lon="-1.88887">
        <ele>5.96</ele>
        <time>2020-06-03T16:12:36Z</time>
      </trkpt>
      <trkpt lat="47.10917" lon="-1.88865">
        <ele>6.16</ele>
        <time>2020-06-03T16:12:38Z</time>
      </trkpt>
      <trkpt lat="47.10913" lon="-1.88853">
        <ele>6.12</ele>
        <time>2020-06-03T16:12:39Z</time>
      </trkpt>
      <trkpt lat="47.10906" lon="-1.8883">
        <ele>5.29</ele>
        <time>2020-06-03T16:12:41Z</time>
      </trkpt>
      <trkpt lat="47.10898" lon="-1.88809">
        <ele>4.37</ele>
        <time>2020-06-03T16:12:43Z</time>
      </trkpt>
      <trkpt lat="47.1089" lon="-1.88788">
        <ele>4.18</ele>
        <time>2020-06-03T16:12:45Z</time>
      </trkpt>
      <trkpt lat="47.10885" lon="-1.88775">
        <ele>3.65</ele>
        <time>2020-06-03T16:12:46Z</time>
      </trkpt>
      <trkpt lat="47.10876" lon="-1.88754">
        <ele>3.37</ele>
        <time>2020-06-03T16:12:48Z</time>
      </trkpt>
      <trkpt lat="47.10866" lon="-1.88732">
        <ele>3.23</ele>
        <time>2020-06-03T16:12:50Z</time>
      </trkpt>
      <trkpt lat="47.10857" lon="-1.8871">
        <ele>3.54</ele>
        <time>2020-06-03T16:12:52Z</time>
      </trkpt>
      <trkpt lat="47.10848" lon="-1.88689">
        <ele>3.12</ele>
        <time>2020-06-03T16:12:54Z</time>
      </trkpt>
      <trkpt lat="47.10838" lon="-1.88667">
        <ele>2.16</ele>
        <time>2020-06-03T16:12:56Z</time>
      </trkpt>
      <trkpt lat="47.10833" lon="-1.88656">
        <ele>2.05</ele>
        <time>2020-06-03T16:12:57Z</time>
      </trkpt>
      <trkpt lat="47.10824" lon="-1.88634">
        <ele>1.96</ele>
        <time>2020-06-03T16:12:59Z</time>
      </trkpt>
      <trkpt lat="47.10814" lon="-1.88611">
        <ele>2.82</ele>
        <time>2020-06-03T16:13:01Z</time>
      </trkpt>
      <trkpt lat="47.10809" lon="-1.88599">
        <ele>3.33</ele>
        <time>2020-06-03T16:13:02Z</time>
      </trkpt>
      <trkpt lat="47.108" lon="-1.88579">
        <ele>4.17</ele>
        <time>2020-06-03T16:13:04Z</time>
      </trkpt>
      <trkpt lat="47.10791" lon="-1.88557">
        <ele>4.29</ele>
        <time>2020-06-03T16:13:06Z</time>
      </trkpt>
      <trkpt lat="47.10781" lon="-1.88534">
        <ele>5.35</ele>
        <time>2020-06-03T16:13:08Z</time>
      </trkpt>
      <trkpt lat="47.10776" lon="-1.88523">
        <ele>5.55</ele>
        <time>2020-06-03T16:13:09Z</time>
      </trkpt>
      <trkpt lat="47.10768" lon="-1.88503">
        <ele>5.96</ele>
        <time>2020-06-03T16:13:11Z</time>
      </trkpt>
      <trkpt lat="47.1076" lon="-1.88481">
        <ele>5.32</ele>
        <time>2020-06-03T16:13:13Z</time>
      </trkpt>
      <trkpt lat="47.10753" lon="-1.88459">
        <ele>5.03</ele>
        <time>2020-06-03T16:13:15Z</time>
      </trkpt>
      <trkpt lat="47.10747" lon="-1.88437">
        <ele>3.97</ele>
        <time>2020-06-03T16:13:17Z</time>
      </trkpt>
      <trkpt lat="47.10742" lon="-1.88417">
        <ele>4.43</ele>
        <time>2020-06-03T16:13:19Z</time>
      </trkpt>
      <trkpt lat="47.10736" lon="-1.88393">
        <ele>4.08</ele>
        <time>2020-06-03T16:13:21Z</time>
      </trkpt>
      <trkpt lat="47.10732" lon="-1.88371">
        <ele>3.84</ele>
        <time>2020-06-03T16:13:23Z</time>
      </trkpt>
      <trkpt lat="47.10728" lon="-1.88349">
        <ele>3.38</ele>
        <time>2020-06-03T16:13:25Z</time>
      </trkpt>
      <trkpt lat="47.10724" lon="-1.88326">
        <ele>3.23</ele>
        <time>2020-06-03T16:13:27Z</time>
      </trkpt>
      <trkpt lat="47.10722" lon="-1.883">
        <ele>4.06</ele>
        <time>2020-06-03T16:13:29Z</time>
      </trkpt>
      <trkpt lat="47.1072" lon="-1.88277">
        <ele>5.21</ele>
        <time>2020-06-03T16:13:31Z</time>
      </trkpt>
      <trkpt lat="47.10718" lon="-1.88256">
        <ele>6.3</ele>
        <time>2020-06-03T16:13:33Z</time>
      </trkpt>
      <trkpt lat="47.10716" lon="-1.88234">
        <ele>6.75</ele>
        <time>2020-06-03T16:13:35Z</time>
      </trkpt>
      <trkpt lat="47.10715" lon="-1.88213">
        <ele>6.32</ele>
        <time>2020-06-03T16:13:37Z</time>
      </trkpt>
      <trkpt lat="47.10712" lon="-1.88188">
        <ele>5.33</ele>
        <time>2020-06-03T16:13:39Z</time>
      </trkpt>
      <trkpt lat="47.1071" lon="-1.88164">
        <ele>5.58</ele>
        <time>2020-06-03T16:13:41Z</time>
      </trkpt>
      <trkpt lat="47.10707" lon="-1.88139">
        <ele>5.86</ele>
        <time>2020-06-03T16:13:43Z</time>
      </trkpt>
      <trkpt lat="47.10705" lon="-1.88115">
        <ele>6.23</ele>
        <time>2020-06-03T16:13:45Z</time>
      </trkpt>
      <trkpt lat="47.10703" lon="-1.88091">
        <ele>5.96</ele>
        <time>2020-06-03T16:13:47Z</time>
      </trkpt>
      <trkpt lat="47.10701" lon="-1.88071">
        <ele>5.78</ele>
        <time>2020-06-03T16:13:49Z</time>
      </trkpt>
      <trkpt lat="47.10699" lon="-1.88052">
        <ele>5.04</ele>
        <time>2020-06-03T16:13:51Z</time>
      </trkpt>
      <trkpt lat="47.10696" lon="-1.88029">
        <ele>4.72</ele>
        <time>2020-06-03T16:13:53Z</time>
      </trkpt>
      <trkpt lat="47.10694" lon="-1.88007">
        <ele>5.6</ele>
        <time>2020-06-03T16:13:55Z</time>
      </trkpt>
      <trkpt lat="47.10691" lon="-1.87983">
        <ele>6.13</ele>
        <time>2020-06-03T16:13:57Z</time>
      </trkpt>
      <trkpt lat="47.10689" lon="-1.87961">
        <ele>5.78</ele>
        <time>2020-06-03T16:13:59Z</time>
      </trkpt>
      <trkpt lat="47.10685" lon="-1.87939">
        <ele>4.65</ele>
        <time>2020-06-03T16:14:01Z</time>
      </trkpt>
      <trkpt lat="47.1068" lon="-1.8792">
        <ele>4.92</ele>
        <time>2020-06-03T16:14:03Z</time>
      </trkpt>
      <trkpt lat="47.10672" lon="-1.87897">
        <ele>4.9</ele>
        <time>2020-06-03T16:14:05Z</time>
      </trkpt>
      <trkpt lat="47.10665" lon="-1.87875">
        <ele>4.56</ele>
        <time>2020-06-03T16:14:07Z</time>
      </trkpt>
      <trkpt lat="47.10658" lon="-1.87855">
        <ele>3.97</ele>
        <time>2020-06-03T16:14:09Z</time>
      </trkpt>
      <trkpt lat="47.10652" lon="-1.87838">
        <ele>4.2</ele>
        <time>2020-06-03T16:14:11Z</time>
      </trkpt>
      <trkpt lat="47.10646" lon="-1.8782">
        <ele>4.26</ele>
        <time>2020-06-03T16:14:13Z</time>
      </trkpt>
      <trkpt lat="47.10638" lon="-1.878">
        <ele>3.8</ele>
        <time>2020-06-03T16:14:15Z</time>
      </trkpt>
      <trkpt lat="47.10632" lon="-1.87784">
        <ele>4.05</ele>
        <time>2020-06-03T16:14:17Z</time>
      </trkpt>
      <trkpt lat="47.10624" lon="-1.87765">
        <ele>3.7</ele>
        <time>2020-06-03T16:14:19Z</time>
      </trkpt>
      <trkpt lat="47.10616" lon="-1.87746">
        <ele>3.85</ele>
        <time>2020-06-03T16:14:21Z</time>
      </trkpt>
      <trkpt lat="47.1061" lon="-1.87726">
        <ele>4.47</ele>
        <time>2020-06-03T16:14:23Z</time>
      </trkpt>
      <trkpt lat="47.10603" lon="-1.87706">
        <ele>4.74</ele>
        <time>2020-06-03T16:14:25Z</time>
      </trkpt>
      <trkpt lat="47.10597" lon="-1.87687">
        <ele>5.38</ele>
        <time>2020-06-03T16:14:27Z</time>
      </trkpt>
      <trkpt lat="47.10589" lon="-1.87667">
        <ele>5.26</ele>
        <time>2020-06-03T16:14:29Z</time>
      </trkpt>
      <trkpt lat="47.10582" lon="-1.87646">
        <ele>5.65</ele>
        <time>2020-06-03T16:14:31Z</time>
      </trkpt>
      <trkpt lat="47.10577" lon="-1.87626">
        <ele>6.41</ele>
        <time>2020-06-03T16:14:33Z</time>
      </trkpt>
      <trkpt lat="47.10573" lon="-1.87607">
        <ele>7.8</ele>
        <time>2020-06-03T16:14:35Z</time>
      </trkpt>
      <trkpt lat="47.10569" lon="-1.87584">
        <ele>8.07</ele>
        <time>2020-06-03T16:14:37Z</time>
      </trkpt>
      <trkpt lat="47.10563" lon="-1.87558">
        <ele>7.75</ele>
        <time>2020-06-03T16:14:39Z</time>
      </trkpt>
      <trkpt lat="47.10559" lon="-1.87545">
        <ele>7.71</ele>
        <time>2020-06-03T16:14:40Z</time>
      </trkpt>
      <trkpt lat="47.10556" lon="-1.87531">
        <ele>7.34</ele>
        <time>2020-06-03T16:14:41Z</time>
      </trkpt>
      <trkpt lat="47.10553" lon="-1.87517">
        <ele>7.02</ele>
        <time>2020-06-03T16:14:42Z</time>
      </trkpt>
      <trkpt lat="47.1055" lon="-1.87504">
        <ele>6.96</ele>
        <time>2020-06-03T16:14:43Z</time>
      </trkpt>
      <trkpt lat="47.10548" lon="-1.8749">
        <ele>7.21</ele>
        <time>2020-06-03T16:14:44Z</time>
      </trkpt>
      <trkpt lat="47.10546" lon="-1.87476">
        <ele>7.42</ele>
        <time>2020-06-03T16:14:45Z</time>
      </trkpt>
      <trkpt lat="47.10544" lon="-1.87463">
        <ele>7.66</ele>
        <time>2020-06-03T16:14:46Z</time>
      </trkpt>
      <trkpt lat="47.1054" lon="-1.87438">
        <ele>8.6</ele>
        <time>2020-06-03T16:14:48Z</time>
      </trkpt>
      <trkpt lat="47.10535" lon="-1.87415">
        <ele>10.19</ele>
        <time>2020-06-03T16:14:50Z</time>
      </trkpt>
      <trkpt lat="47.10531" lon="-1.87391">
        <ele>11.34</ele>
        <time>2020-06-03T16:14:52Z</time>
      </trkpt>
      <trkpt lat="47.10527" lon="-1.87368">
        <ele>11.64</ele>
        <time>2020-06-03T16:14:54Z</time>
      </trkpt>
      <trkpt lat="47.10523" lon="-1.87347">
        <ele>11.03</ele>
        <time>2020-06-03T16:14:56Z</time>
      </trkpt>
      <trkpt lat="47.10519" lon="-1.87327">
        <ele>10.59</ele>
        <time>2020-06-03T16:14:58Z</time>
      </trkpt>
      <trkpt lat="47.10514" lon="-1.87304">
        <ele>9.54</ele>
        <time>2020-06-03T16:15:00Z</time>
      </trkpt>
      <trkpt lat="47.10508" lon="-1.87285">
        <ele>10.21</ele>
        <time>2020-06-03T16:15:02Z</time>
      </trkpt>
      <trkpt lat="47.10502" lon="-1.87266">
        <ele>10.66</ele>
        <time>2020-06-03T16:15:04Z</time>
      </trkpt>
      <trkpt lat="47.10495" lon="-1.87249">
        <ele>10.72</ele>
        <time>2020-06-03T16:15:06Z</time>
      </trkpt>
      <trkpt lat="47.10488" lon="-1.87232">
        <ele>11.61</ele>
        <time>2020-06-03T16:15:08Z</time>
      </trkpt>
      <trkpt lat="47.10483" lon="-1.87214">
        <ele>11.49</ele>
        <time>2020-06-03T16:15:10Z</time>
      </trkpt>
      <trkpt lat="47.10479" lon="-1.87195">
        <ele>10.86</ele>
        <time>2020-06-03T16:15:12Z</time>
      </trkpt>
      <trkpt lat="47.10476" lon="-1.87174">
        <ele>11.65</ele>
        <time>2020-06-03T16:15:14Z</time>
      </trkpt>
      <trkpt lat="47.10471" lon="-1.87155">
        <ele>12.04</ele>
        <time>2020-06-03T16:15:16Z</time>
      </trkpt>
      <trkpt lat="47.10466" lon="-1.87136">
        <ele>12.28</ele>
        <time>2020-06-03T16:15:18Z</time>
      </trkpt>
      <trkpt lat="47.10462" lon="-1.87118">
        <ele>12.78</ele>
        <time>2020-06-03T16:15:20Z</time>
      </trkpt>
      <trkpt lat="47.10457" lon="-1.871">
        <ele>12.88</ele>
        <time>2020-06-03T16:15:22Z</time>
      </trkpt>
      <trkpt lat="47.10454" lon="-1.87082">
        <ele>12.88</ele>
        <time>2020-06-03T16:15:24Z</time>
      </trkpt>
      <trkpt lat="47.1045" lon="-1.87062">
        <ele>12.67</ele>
        <time>2020-06-03T16:15:26Z</time>
      </trkpt>
      <trkpt lat="47.10447" lon="-1.87044">
        <ele>12.16</ele>
        <time>2020-06-03T16:15:28Z</time>
      </trkpt>
      <trkpt lat="47.10443" lon="-1.87025">
        <ele>11.75</ele>
        <time>2020-06-03T16:15:30Z</time>
      </trkpt>
      <trkpt lat="47.10439" lon="-1.87006">
        <ele>12.67</ele>
        <time>2020-06-03T16:15:32Z</time>
      </trkpt>
      <trkpt lat="47.10435" lon="-1.86986">
        <ele>13.12</ele>
        <time>2020-06-03T16:15:34Z</time>
      </trkpt>
      <trkpt lat="47.10432" lon="-1.86968">
        <ele>13.18</ele>
        <time>2020-06-03T16:15:36Z</time>
      </trkpt>
      <trkpt lat="47.10428" lon="-1.86949">
        <ele>12.87</ele>
        <time>2020-06-03T16:15:38Z</time>
      </trkpt>
      <trkpt lat="47.10424" lon="-1.86927">
        <ele>13.22</ele>
        <time>2020-06-03T16:15:40Z</time>
      </trkpt>
      <trkpt lat="47.10421" lon="-1.8691">
        <ele>13.35</ele>
        <time>2020-06-03T16:15:42Z</time>
      </trkpt>
      <trkpt lat="47.10417" lon="-1.86889">
        <ele>12.49</ele>
        <time>2020-06-03T16:15:44Z</time>
      </trkpt>
      <trkpt lat="47.10413" lon="-1.8687">
        <ele>11.35</ele>
        <time>2020-06-03T16:15:46Z</time>
      </trkpt>
      <trkpt lat="47.10409" lon="-1.8685">
        <ele>11.1</ele>
        <time>2020-06-03T16:15:48Z</time>
      </trkpt>
      <trkpt lat="47.10405" lon="-1.86829">
        <ele>10.83</ele>
        <time>2020-06-03T16:15:50Z</time>
      </trkpt>
      <trkpt lat="47.10401" lon="-1.86808">
        <ele>10.87</ele>
        <time>2020-06-03T16:15:52Z</time>
      </trkpt>
      <trkpt lat="47.10398" lon="-1.86787">
        <ele>10.2</ele>
        <time>2020-06-03T16:15:54Z</time>
      </trkpt>
      <trkpt lat="47.10393" lon="-1.86765">
        <ele>10.12</ele>
        <time>2020-06-03T16:15:56Z</time>
      </trkpt>
      <trkpt lat="47.10388" lon="-1.86743">
        <ele>10.04</ele>
        <time>2020-06-03T16:15:58Z</time>
      </trkpt>
      <trkpt lat="47.10382" lon="-1.86721">
        <ele>9.13</ele>
        <time>2020-06-03T16:16:00Z</time>
      </trkpt>
      <trkpt lat="47.10378" lon="-1.867">
        <ele>8.61</ele>
        <time>2020-06-03T16:16:02Z</time>
      </trkpt>
      <trkpt lat="47.10374" lon="-1.86679">
        <ele>9.57</ele>
        <time>2020-06-03T16:16:04Z</time>
      </trkpt>
      <trkpt lat="47.10371" lon="-1.86658">
        <ele>10.71</ele>
        <time>2020-06-03T16:16:06Z</time>
      </trkpt>
      <trkpt lat="47.10369" lon="-1.86635">
        <ele>11.11</ele>
        <time>2020-06-03T16:16:08Z</time>
      </trkpt>
      <trkpt lat="47.10369" lon="-1.86613">
        <ele>12.16</ele>
        <time>2020-06-03T16:16:10Z</time>
      </trkpt>
      <trkpt lat="47.10368" lon="-1.86589">
        <ele>12.35</ele>
        <time>2020-06-03T16:16:12Z</time>
      </trkpt>
      <trkpt lat="47.10366" lon="-1.86565">
        <ele>12.44</ele>
        <time>2020-06-03T16:16:14Z</time>
      </trkpt>
      <trkpt lat="47.1036" lon="-1.86545">
        <ele>12.13</ele>
        <time>2020-06-03T16:16:16Z</time>
      </trkpt>
      <trkpt lat="47.10353" lon="-1.86525">
        <ele>12.86</ele>
        <time>2020-06-03T16:16:18Z</time>
      </trkpt>
      <trkpt lat="47.10346" lon="-1.86506">
        <ele>13.07</ele>
        <time>2020-06-03T16:16:20Z</time>
      </trkpt>
      <trkpt lat="47.10338" lon="-1.86486">
        <ele>13.61</ele>
        <time>2020-06-03T16:16:22Z</time>
      </trkpt>
      <trkpt lat="47.10328" lon="-1.86468">
        <ele>13.76</ele>
        <time>2020-06-03T16:16:24Z</time>
      </trkpt>
      <trkpt lat="47.10319" lon="-1.8645">
        <ele>12.92</ele>
        <time>2020-06-03T16:16:26Z</time>
      </trkpt>
      <trkpt lat="47.1031" lon="-1.86429">
        <ele>11.02</ele>
        <time>2020-06-03T16:16:28Z</time>
      </trkpt>
      <trkpt lat="47.10305" lon="-1.86406">
        <ele>9.51</ele>
        <time>2020-06-03T16:16:30Z</time>
      </trkpt>
      <trkpt lat="47.10302" lon="-1.86381">
        <ele>8.75</ele>
        <time>2020-06-03T16:16:32Z</time>
      </trkpt>
      <trkpt lat="47.10299" lon="-1.86357">
        <ele>9.33</ele>
        <time>2020-06-03T16:16:34Z</time>
      </trkpt>
      <trkpt lat="47.10296" lon="-1.86333">
        <ele>10.06</ele>
        <time>2020-06-03T16:16:36Z</time>
      </trkpt>
      <trkpt lat="47.10293" lon="-1.86311">
        <ele>9.69</ele>
        <time>2020-06-03T16:16:38Z</time>
      </trkpt>
      <trkpt lat="47.10289" lon="-1.86292">
        <ele>9.51</ele>
        <time>2020-06-03T16:16:40Z</time>
      </trkpt>
      <trkpt lat="47.10282" lon="-1.86273">
        <ele>9.49</ele>
        <time>2020-06-03T16:16:42Z</time>
      </trkpt>
      <trkpt lat="47.10274" lon="-1.86255">
        <ele>10.21</ele>
        <time>2020-06-03T16:16:44Z</time>
      </trkpt>
      <trkpt lat="47.10266" lon="-1.86237">
        <ele>10.78</ele>
        <time>2020-06-03T16:16:46Z</time>
      </trkpt>
      <trkpt lat="47.10257" lon="-1.86219">
        <ele>10.13</ele>
        <time>2020-06-03T16:16:48Z</time>
      </trkpt>
      <trkpt lat="47.10249" lon="-1.86202">
        <ele>9.07</ele>
        <time>2020-06-03T16:16:50Z</time>
      </trkpt>
      <trkpt lat="47.10241" lon="-1.86185">
        <ele>7.44</ele>
        <time>2020-06-03T16:16:52Z</time>
      </trkpt>
      <trkpt lat="47.10234" lon="-1.86169">
        <ele>6.43</ele>
        <time>2020-06-03T16:16:54Z</time>
      </trkpt>
      <trkpt lat="47.10228" lon="-1.86152">
        <ele>5.92</ele>
        <time>2020-06-03T16:16:56Z</time>
      </trkpt>
      <trkpt lat="47.10221" lon="-1.86132">
        <ele>6</ele>
        <time>2020-06-03T16:16:58Z</time>
      </trkpt>
      <trkpt lat="47.10214" lon="-1.86113">
        <ele>6.65</ele>
        <time>2020-06-03T16:17:00Z</time>
      </trkpt>
      <trkpt lat="47.10207" lon="-1.86094">
        <ele>5.97</ele>
        <time>2020-06-03T16:17:02Z</time>
      </trkpt>
      <trkpt lat="47.10201" lon="-1.86077">
        <ele>5.8</ele>
        <time>2020-06-03T16:17:04Z</time>
      </trkpt>
      <trkpt lat="47.10194" lon="-1.86059">
        <ele>5.52</ele>
        <time>2020-06-03T16:17:06Z</time>
      </trkpt>
      <trkpt lat="47.10188" lon="-1.86041">
        <ele>5.23</ele>
        <time>2020-06-03T16:17:08Z</time>
      </trkpt>
      <trkpt lat="47.10181" lon="-1.86024">
        <ele>5.63</ele>
        <time>2020-06-03T16:17:10Z</time>
      </trkpt>
      <trkpt lat="47.10173" lon="-1.86003">
        <ele>5.65</ele>
        <time>2020-06-03T16:17:12Z</time>
      </trkpt>
      <trkpt lat="47.10166" lon="-1.85983">
        <ele>5.32</ele>
        <time>2020-06-03T16:17:14Z</time>
      </trkpt>
      <trkpt lat="47.10159" lon="-1.85963">
        <ele>5.97</ele>
        <time>2020-06-03T16:17:16Z</time>
      </trkpt>
      <trkpt lat="47.10152" lon="-1.85943">
        <ele>7.18</ele>
        <time>2020-06-03T16:17:18Z</time>
      </trkpt>
      <trkpt lat="47.10145" lon="-1.85925">
        <ele>8.67</ele>
        <time>2020-06-03T16:17:20Z</time>
      </trkpt>
      <trkpt lat="47.10137" lon="-1.85908">
        <ele>8.92</ele>
        <time>2020-06-03T16:17:22Z</time>
      </trkpt>
      <trkpt lat="47.10129" lon="-1.8589">
        <ele>9.35</ele>
        <time>2020-06-03T16:17:24Z</time>
      </trkpt>
      <trkpt lat="47.10121" lon="-1.85874">
        <ele>10.16</ele>
        <time>2020-06-03T16:17:26Z</time>
      </trkpt>
      <trkpt lat="47.10113" lon="-1.8586">
        <ele>10.91</ele>
        <time>2020-06-03T16:17:28Z</time>
      </trkpt>
      <trkpt lat="47.10102" lon="-1.8585">
        <ele>12.3</ele>
        <time>2020-06-03T16:17:30Z</time>
      </trkpt>
      <trkpt lat="47.10093" lon="-1.85835">
        <ele>13.45</ele>
        <time>2020-06-03T16:17:32Z</time>
      </trkpt>
      <trkpt lat="47.10096" lon="-1.85819">
        <ele>14.42</ele>
        <time>2020-06-03T16:17:34Z</time>
      </trkpt>
      <trkpt lat="47.10096" lon="-1.85798">
        <ele>14.48</ele>
        <time>2020-06-03T16:17:36Z</time>
      </trkpt>
      <trkpt lat="47.10096" lon="-1.85777">
        <ele>14.99</ele>
        <time>2020-06-03T16:17:38Z</time>
      </trkpt>
      <trkpt lat="47.10094" lon="-1.85756">
        <ele>15.3</ele>
        <time>2020-06-03T16:17:40Z</time>
      </trkpt>
      <trkpt lat="47.10091" lon="-1.85732">
        <ele>14.68</ele>
        <time>2020-06-03T16:17:42Z</time>
      </trkpt>
      <trkpt lat="47.10088" lon="-1.85711">
        <ele>13.49</ele>
        <time>2020-06-03T16:17:44Z</time>
      </trkpt>
      <trkpt lat="47.10085" lon="-1.8569">
        <ele>12.24</ele>
        <time>2020-06-03T16:17:46Z</time>
      </trkpt>
      <trkpt lat="47.10083" lon="-1.85666">
        <ele>11.44</ele>
        <time>2020-06-03T16:17:48Z</time>
      </trkpt>
      <trkpt lat="47.10081" lon="-1.85642">
        <ele>10.94</ele>
        <time>2020-06-03T16:17:50Z</time>
      </trkpt>
      <trkpt lat="47.10079" lon="-1.85622">
        <ele>10.77</ele>
        <time>2020-06-03T16:17:52Z</time>
      </trkpt>
      <trkpt lat="47.10077" lon="-1.85598">
        <ele>11.03</ele>
        <time>2020-06-03T16:17:54Z</time>
      </trkpt>
      <trkpt lat="47.10074" lon="-1.85577">
        <ele>10.45</ele>
        <time>2020-06-03T16:17:56Z</time>
      </trkpt>
      <trkpt lat="47.10068" lon="-1.85555">
        <ele>10.8</ele>
        <time>2020-06-03T16:17:58Z</time>
      </trkpt>
      <trkpt lat="47.10059" lon="-1.85536">
        <ele>10.89</ele>
        <time>2020-06-03T16:18:00Z</time>
      </trkpt>
      <trkpt lat="47.10048" lon="-1.85515">
        <ele>10.82</ele>
        <time>2020-06-03T16:18:02Z</time>
      </trkpt>
      <trkpt lat="47.10036" lon="-1.85498">
        <ele>11.04</ele>
        <time>2020-06-03T16:18:04Z</time>
      </trkpt>
      <trkpt lat="47.10029" lon="-1.85487">
        <ele>10.92</ele>
        <time>2020-06-03T16:18:05Z</time>
      </trkpt>
      <trkpt lat="47.10016" lon="-1.8547">
        <ele>10.06</ele>
        <time>2020-06-03T16:18:07Z</time>
      </trkpt>
      <trkpt lat="47.10003" lon="-1.85455">
        <ele>8.81</ele>
        <time>2020-06-03T16:18:09Z</time>
      </trkpt>
      <trkpt lat="47.0999" lon="-1.85439">
        <ele>8.2</ele>
        <time>2020-06-03T16:18:11Z</time>
      </trkpt>
      <trkpt lat="47.09977" lon="-1.85424">
        <ele>7.11</ele>
        <time>2020-06-03T16:18:13Z</time>
      </trkpt>
      <trkpt lat="47.09965" lon="-1.85407">
        <ele>6.7</ele>
        <time>2020-06-03T16:18:15Z</time>
      </trkpt>
      <trkpt lat="47.09953" lon="-1.8539">
        <ele>6.1</ele>
        <time>2020-06-03T16:18:17Z</time>
      </trkpt>
      <trkpt lat="47.09943" lon="-1.85374">
        <ele>5.98</ele>
        <time>2020-06-03T16:18:19Z</time>
      </trkpt>
      <trkpt lat="47.09933" lon="-1.85355">
        <ele>5.22</ele>
        <time>2020-06-03T16:18:21Z</time>
      </trkpt>
      <trkpt lat="47.09929" lon="-1.85335">
        <ele>4.44</ele>
        <time>2020-06-03T16:18:23Z</time>
      </trkpt>
      <trkpt lat="47.09927" lon="-1.85322">
        <ele>4.46</ele>
        <time>2020-06-03T16:18:23Z</time>
      </trkpt>
      <trkpt lat="47.09929" lon="-1.85298">
        <ele>4.77</ele>
        <time>2020-06-03T16:18:25Z</time>
      </trkpt>
      <trkpt lat="47.09929" lon="-1.85275">
        <ele>6.39</ele>
        <time>2020-06-03T16:18:27Z</time>
      </trkpt>
      <trkpt lat="47.09928" lon="-1.85254">
        <ele>7.18</ele>
        <time>2020-06-03T16:18:29Z</time>
      </trkpt>
      <trkpt lat="47.09927" lon="-1.85231">
        <ele>7.03</ele>
        <time>2020-06-03T16:18:31Z</time>
      </trkpt>
      <trkpt lat="47.09924" lon="-1.85208">
        <ele>4.79</ele>
        <time>2020-06-03T16:18:33Z</time>
      </trkpt>
      <trkpt lat="47.09922" lon="-1.85189">
        <ele>3.81</ele>
        <time>2020-06-03T16:18:35Z</time>
      </trkpt>
      <trkpt lat="47.09919" lon="-1.85169">
        <ele>3.87</ele>
        <time>2020-06-03T16:18:37Z</time>
      </trkpt>
      <trkpt lat="47.09917" lon="-1.85149">
        <ele>5.21</ele>
        <time>2020-06-03T16:18:39Z</time>
      </trkpt>
      <trkpt lat="47.09916" lon="-1.8513">
        <ele>6.3</ele>
        <time>2020-06-03T16:18:41Z</time>
      </trkpt>
      <trkpt lat="47.09916" lon="-1.85111">
        <ele>7.63</ele>
        <time>2020-06-03T16:18:43Z</time>
      </trkpt>
      <trkpt lat="47.09917" lon="-1.85088">
        <ele>8.65</ele>
        <time>2020-06-03T16:18:45Z</time>
      </trkpt>
      <trkpt lat="47.09917" lon="-1.85067">
        <ele>8.76</ele>
        <time>2020-06-03T16:18:47Z</time>
      </trkpt>
      <trkpt lat="47.09919" lon="-1.85047">
        <ele>9.04</ele>
        <time>2020-06-03T16:18:49Z</time>
      </trkpt>
      <trkpt lat="47.0992" lon="-1.85025">
        <ele>8.46</ele>
        <time>2020-06-03T16:18:51Z</time>
      </trkpt>
      <trkpt lat="47.0992" lon="-1.85004">
        <ele>8.5</ele>
        <time>2020-06-03T16:18:53Z</time>
      </trkpt>
      <trkpt lat="47.09921" lon="-1.84984">
        <ele>9.42</ele>
        <time>2020-06-03T16:18:55Z</time>
      </trkpt>
      <trkpt lat="47.09921" lon="-1.84964">
        <ele>9.24</ele>
        <time>2020-06-03T16:18:57Z</time>
      </trkpt>
      <trkpt lat="47.09921" lon="-1.84944">
        <ele>9.09</ele>
        <time>2020-06-03T16:18:59Z</time>
      </trkpt>
      <trkpt lat="47.0992" lon="-1.84922">
        <ele>9.48</ele>
        <time>2020-06-03T16:19:01Z</time>
      </trkpt>
      <trkpt lat="47.09919" lon="-1.84901">
        <ele>9.83</ele>
        <time>2020-06-03T16:19:03Z</time>
      </trkpt>
      <trkpt lat="47.09918" lon="-1.8488">
        <ele>10.21</ele>
        <time>2020-06-03T16:19:05Z</time>
      </trkpt>
      <trkpt lat="47.09916" lon="-1.8486">
        <ele>11.26</ele>
        <time>2020-06-03T16:19:07Z</time>
      </trkpt>
      <trkpt lat="47.09914" lon="-1.84839">
        <ele>10.26</ele>
        <time>2020-06-03T16:19:09Z</time>
      </trkpt>
      <trkpt lat="47.09913" lon="-1.84819">
        <ele>9.89</ele>
        <time>2020-06-03T16:19:11Z</time>
      </trkpt>
      <trkpt lat="47.09912" lon="-1.84799">
        <ele>9.72</ele>
        <time>2020-06-03T16:19:13Z</time>
      </trkpt>
      <trkpt lat="47.09911" lon="-1.8478">
        <ele>9.84</ele>
        <time>2020-06-03T16:19:15Z</time>
      </trkpt>
      <trkpt lat="47.0991" lon="-1.84763">
        <ele>10.52</ele>
        <time>2020-06-03T16:19:17Z</time>
      </trkpt>
      <trkpt lat="47.09909" lon="-1.84742">
        <ele>10.72</ele>
        <time>2020-06-03T16:19:19Z</time>
      </trkpt>
      <trkpt lat="47.09908" lon="-1.84722">
        <ele>11.87</ele>
        <time>2020-06-03T16:19:21Z</time>
      </trkpt>
      <trkpt lat="47.09907" lon="-1.84702">
        <ele>12.76</ele>
        <time>2020-06-03T16:19:23Z</time>
      </trkpt>
      <trkpt lat="47.09906" lon="-1.84683">
        <ele>12.93</ele>
        <time>2020-06-03T16:19:25Z</time>
      </trkpt>
      <trkpt lat="47.09905" lon="-1.84663">
        <ele>13.73</ele>
        <time>2020-06-03T16:19:27Z</time>
      </trkpt>
      <trkpt lat="47.09905" lon="-1.84642">
        <ele>13.9</ele>
        <time>2020-06-03T16:19:29Z</time>
      </trkpt>
      <trkpt lat="47.09904" lon="-1.8462">
        <ele>14.62</ele>
        <time>2020-06-03T16:19:31Z</time>
      </trkpt>
      <trkpt lat="47.09902" lon="-1.84599">
        <ele>15.2</ele>
        <time>2020-06-03T16:19:33Z</time>
      </trkpt>
      <trkpt lat="47.09901" lon="-1.84578">
        <ele>14.81</ele>
        <time>2020-06-03T16:19:35Z</time>
      </trkpt>
      <trkpt lat="47.09899" lon="-1.84558">
        <ele>15.21</ele>
        <time>2020-06-03T16:19:37Z</time>
      </trkpt>
      <trkpt lat="47.09898" lon="-1.84539">
        <ele>15.46</ele>
        <time>2020-06-03T16:19:39Z</time>
      </trkpt>
      <trkpt lat="47.09895" lon="-1.84517">
        <ele>15.59</ele>
        <time>2020-06-03T16:19:41Z</time>
      </trkpt>
      <trkpt lat="47.09892" lon="-1.84496">
        <ele>16.3</ele>
        <time>2020-06-03T16:19:43Z</time>
      </trkpt>
      <trkpt lat="47.0989" lon="-1.84476">
        <ele>15.84</ele>
        <time>2020-06-03T16:19:45Z</time>
      </trkpt>
      <trkpt lat="47.09887" lon="-1.84456">
        <ele>15.13</ele>
        <time>2020-06-03T16:19:47Z</time>
      </trkpt>
      <trkpt lat="47.09885" lon="-1.84433">
        <ele>14.62</ele>
        <time>2020-06-03T16:19:49Z</time>
      </trkpt>
      <trkpt lat="47.09885" lon="-1.84413">
        <ele>14.31</ele>
        <time>2020-06-03T16:19:51Z</time>
      </trkpt>
      <trkpt lat="47.09885" lon="-1.8439">
        <ele>13.38</ele>
        <time>2020-06-03T16:19:53Z</time>
      </trkpt>
      <trkpt lat="47.09885" lon="-1.84369">
        <ele>13.38</ele>
        <time>2020-06-03T16:19:55Z</time>
      </trkpt>
      <trkpt lat="47.09885" lon="-1.84349">
        <ele>14.06</ele>
        <time>2020-06-03T16:19:57Z</time>
      </trkpt>
      <trkpt lat="47.09886" lon="-1.84327">
        <ele>14.59</ele>
        <time>2020-06-03T16:19:59Z</time>
      </trkpt>
      <trkpt lat="47.09886" lon="-1.84306">
        <ele>14.6</ele>
        <time>2020-06-03T16:20:01Z</time>
      </trkpt>
      <trkpt lat="47.09886" lon="-1.84285">
        <ele>14.68</ele>
        <time>2020-06-03T16:20:03Z</time>
      </trkpt>
      <trkpt lat="47.09886" lon="-1.84262">
        <ele>15.23</ele>
        <time>2020-06-03T16:20:05Z</time>
      </trkpt>
      <trkpt lat="47.09886" lon="-1.84241">
        <ele>15.56</ele>
        <time>2020-06-03T16:20:07Z</time>
      </trkpt>
      <trkpt lat="47.09884" lon="-1.8422">
        <ele>15.64</ele>
        <time>2020-06-03T16:20:09Z</time>
      </trkpt>
      <trkpt lat="47.09881" lon="-1.84198">
        <ele>15.34</ele>
        <time>2020-06-03T16:20:11Z</time>
      </trkpt>
      <trkpt lat="47.09879" lon="-1.84176">
        <ele>14.49</ele>
        <time>2020-06-03T16:20:13Z</time>
      </trkpt>
      <trkpt lat="47.09875" lon="-1.84154">
        <ele>13.69</ele>
        <time>2020-06-03T16:20:15Z</time>
      </trkpt>
      <trkpt lat="47.09872" lon="-1.84133">
        <ele>13.6</ele>
        <time>2020-06-03T16:20:17Z</time>
      </trkpt>
      <trkpt lat="47.09868" lon="-1.84114">
        <ele>13.94</ele>
        <time>2020-06-03T16:20:19Z</time>
      </trkpt>
      <trkpt lat="47.09864" lon="-1.8409">
        <ele>13.81</ele>
        <time>2020-06-03T16:20:21Z</time>
      </trkpt>
      <trkpt lat="47.0986" lon="-1.84067">
        <ele>13.43</ele>
        <time>2020-06-03T16:20:23Z</time>
      </trkpt>
      <trkpt lat="47.09856" lon="-1.84043">
        <ele>12.62</ele>
        <time>2020-06-03T16:20:25Z</time>
      </trkpt>
      <trkpt lat="47.09852" lon="-1.84021">
        <ele>12.42</ele>
        <time>2020-06-03T16:20:27Z</time>
      </trkpt>
      <trkpt lat="47.09849" lon="-1.83997">
        <ele>11.1</ele>
        <time>2020-06-03T16:20:29Z</time>
      </trkpt>
      <trkpt lat="47.09847" lon="-1.83973">
        <ele>10.15</ele>
        <time>2020-06-03T16:20:31Z</time>
      </trkpt>
      <trkpt lat="47.09846" lon="-1.8395">
        <ele>9.67</ele>
        <time>2020-06-03T16:20:33Z</time>
      </trkpt>
      <trkpt lat="47.09846" lon="-1.83936">
        <ele>9.17</ele>
        <time>2020-06-03T16:20:34Z</time>
      </trkpt>
      <trkpt lat="47.09848" lon="-1.83914">
        <ele>8.62</ele>
        <time>2020-06-03T16:20:36Z</time>
      </trkpt>
      <trkpt lat="47.0985" lon="-1.83889">
        <ele>8.61</ele>
        <time>2020-06-03T16:20:38Z</time>
      </trkpt>
      <trkpt lat="47.09852" lon="-1.83864">
        <ele>8.18</ele>
        <time>2020-06-03T16:20:40Z</time>
      </trkpt>
      <trkpt lat="47.09854" lon="-1.8384">
        <ele>8.07</ele>
        <time>2020-06-03T16:20:42Z</time>
      </trkpt>
      <trkpt lat="47.09856" lon="-1.83818">
        <ele>7.69</ele>
        <time>2020-06-03T16:20:44Z</time>
      </trkpt>
      <trkpt lat="47.09857" lon="-1.83793">
        <ele>7.22</ele>
        <time>2020-06-03T16:20:46Z</time>
      </trkpt>
      <trkpt lat="47.09858" lon="-1.83768">
        <ele>7.02</ele>
        <time>2020-06-03T16:20:48Z</time>
      </trkpt>
      <trkpt lat="47.09859" lon="-1.83754">
        <ele>7.35</ele>
        <time>2020-06-03T16:20:49Z</time>
      </trkpt>
      <trkpt lat="47.0986" lon="-1.83731">
        <ele>7.52</ele>
        <time>2020-06-03T16:20:51Z</time>
      </trkpt>
      <trkpt lat="47.09861" lon="-1.83707">
        <ele>7.33</ele>
        <time>2020-06-03T16:20:53Z</time>
      </trkpt>
      <trkpt lat="47.09861" lon="-1.83683">
        <ele>7.07</ele>
        <time>2020-06-03T16:20:55Z</time>
      </trkpt>
      <trkpt lat="47.09861" lon="-1.83659">
        <ele>6.42</ele>
        <time>2020-06-03T16:20:57Z</time>
      </trkpt>
      <trkpt lat="47.09861" lon="-1.83634">
        <ele>6.49</ele>
        <time>2020-06-03T16:20:59Z</time>
      </trkpt>
      <trkpt lat="47.09861" lon="-1.83619">
        <ele>6.65</ele>
        <time>2020-06-03T16:21:00Z</time>
      </trkpt>
      <trkpt lat="47.0986" lon="-1.83594">
        <ele>7.11</ele>
        <time>2020-06-03T16:21:02Z</time>
      </trkpt>
      <trkpt lat="47.09858" lon="-1.83569">
        <ele>6.52</ele>
        <time>2020-06-03T16:21:04Z</time>
      </trkpt>
      <trkpt lat="47.09857" lon="-1.83545">
        <ele>5.83</ele>
        <time>2020-06-03T16:21:06Z</time>
      </trkpt>
      <trkpt lat="47.09854" lon="-1.83521">
        <ele>4.84</ele>
        <time>2020-06-03T16:21:08Z</time>
      </trkpt>
      <trkpt lat="47.09853" lon="-1.83508">
        <ele>4.04</ele>
        <time>2020-06-03T16:21:09Z</time>
      </trkpt>
      <trkpt lat="47.09852" lon="-1.83484">
        <ele>3.64</ele>
        <time>2020-06-03T16:21:11Z</time>
      </trkpt>
      <trkpt lat="47.09852" lon="-1.83461">
        <ele>4.52</ele>
        <time>2020-06-03T16:21:13Z</time>
      </trkpt>
      <trkpt lat="47.09853" lon="-1.83439">
        <ele>5.18</ele>
        <time>2020-06-03T16:21:15Z</time>
      </trkpt>
      <trkpt lat="47.09855" lon="-1.83416">
        <ele>6.6</ele>
        <time>2020-06-03T16:21:17Z</time>
      </trkpt>
      <trkpt lat="47.09861" lon="-1.83394">
        <ele>8.17</ele>
        <time>2020-06-03T16:21:19Z</time>
      </trkpt>
      <trkpt lat="47.09866" lon="-1.83373">
        <ele>9.23</ele>
        <time>2020-06-03T16:21:21Z</time>
      </trkpt>
      <trkpt lat="47.09872" lon="-1.83348">
        <ele>10.29</ele>
        <time>2020-06-03T16:21:23Z</time>
      </trkpt>
      <trkpt lat="47.09876" lon="-1.83325">
        <ele>10.76</ele>
        <time>2020-06-03T16:21:25Z</time>
      </trkpt>
      <trkpt lat="47.0988" lon="-1.83303">
        <ele>11.6</ele>
        <time>2020-06-03T16:21:27Z</time>
      </trkpt>
      <trkpt lat="47.09883" lon="-1.83282">
        <ele>10.95</ele>
        <time>2020-06-03T16:21:29Z</time>
      </trkpt>
      <trkpt lat="47.09884" lon="-1.83262">
        <ele>10.13</ele>
        <time>2020-06-03T16:21:31Z</time>
      </trkpt>
      <trkpt lat="47.09884" lon="-1.83241">
        <ele>9.66</ele>
        <time>2020-06-03T16:21:33Z</time>
      </trkpt>
      <trkpt lat="47.09884" lon="-1.8322">
        <ele>9.76</ele>
        <time>2020-06-03T16:21:35Z</time>
      </trkpt>
      <trkpt lat="47.09882" lon="-1.832">
        <ele>9.86</ele>
        <time>2020-06-03T16:21:37Z</time>
      </trkpt>
      <trkpt lat="47.09879" lon="-1.83178">
        <ele>9.43</ele>
        <time>2020-06-03T16:21:39Z</time>
      </trkpt>
      <trkpt lat="47.09877" lon="-1.83159">
        <ele>9.25</ele>
        <time>2020-06-03T16:21:41Z</time>
      </trkpt>
      <trkpt lat="47.09874" lon="-1.83138">
        <ele>8.96</ele>
        <time>2020-06-03T16:21:43Z</time>
      </trkpt>
      <trkpt lat="47.09872" lon="-1.83116">
        <ele>10.12</ele>
        <time>2020-06-03T16:21:45Z</time>
      </trkpt>
      <trkpt lat="47.0987" lon="-1.83095">
        <ele>11.41</ele>
        <time>2020-06-03T16:21:47Z</time>
      </trkpt>
      <trkpt lat="47.09867" lon="-1.83074">
        <ele>12.39</ele>
        <time>2020-06-03T16:21:49Z</time>
      </trkpt>
      <trkpt lat="47.09865" lon="-1.83052">
        <ele>12.5</ele>
        <time>2020-06-03T16:21:51Z</time>
      </trkpt>
      <trkpt lat="47.09862" lon="-1.83031">
        <ele>12.5</ele>
        <time>2020-06-03T16:21:53Z</time>
      </trkpt>
      <trkpt lat="47.0986" lon="-1.8301">
        <ele>11.93</ele>
        <time>2020-06-03T16:21:55Z</time>
      </trkpt>
      <trkpt lat="47.09858" lon="-1.82987">
        <ele>12.18</ele>
        <time>2020-06-03T16:21:57Z</time>
      </trkpt>
      <trkpt lat="47.09855" lon="-1.82964">
        <ele>12.38</ele>
        <time>2020-06-03T16:21:59Z</time>
      </trkpt>
      <trkpt lat="47.09853" lon="-1.82942">
        <ele>12.57</ele>
        <time>2020-06-03T16:22:01Z</time>
      </trkpt>
      <trkpt lat="47.09851" lon="-1.82919">
        <ele>13.44</ele>
        <time>2020-06-03T16:22:03Z</time>
      </trkpt>
      <trkpt lat="47.09849" lon="-1.82898">
        <ele>13.24</ele>
        <time>2020-06-03T16:22:05Z</time>
      </trkpt>
      <trkpt lat="47.09847" lon="-1.82876">
        <ele>12.79</ele>
        <time>2020-06-03T16:22:07Z</time>
      </trkpt>
      <trkpt lat="47.09846" lon="-1.82852">
        <ele>12.83</ele>
        <time>2020-06-03T16:22:09Z</time>
      </trkpt>
      <trkpt lat="47.09846" lon="-1.82831">
        <ele>13.65</ele>
        <time>2020-06-03T16:22:11Z</time>
      </trkpt>
      <trkpt lat="47.09847" lon="-1.82807">
        <ele>14.49</ele>
        <time>2020-06-03T16:22:13Z</time>
      </trkpt>
      <trkpt lat="47.09848" lon="-1.82785">
        <ele>14.64</ele>
        <time>2020-06-03T16:22:15Z</time>
      </trkpt>
      <trkpt lat="47.09847" lon="-1.82764">
        <ele>15.52</ele>
        <time>2020-06-03T16:22:17Z</time>
      </trkpt>
      <trkpt lat="47.09845" lon="-1.82745">
        <ele>15.35</ele>
        <time>2020-06-03T16:22:19Z</time>
      </trkpt>
      <trkpt lat="47.09841" lon="-1.82724">
        <ele>15.42</ele>
        <time>2020-06-03T16:22:21Z</time>
      </trkpt>
      <trkpt lat="47.09837" lon="-1.82703">
        <ele>14.89</ele>
        <time>2020-06-03T16:22:23Z</time>
      </trkpt>
      <trkpt lat="47.09832" lon="-1.82684">
        <ele>14.41</ele>
        <time>2020-06-03T16:22:25Z</time>
      </trkpt>
      <trkpt lat="47.09827" lon="-1.82662">
        <ele>14.55</ele>
        <time>2020-06-03T16:22:27Z</time>
      </trkpt>
      <trkpt lat="47.09822" lon="-1.8264">
        <ele>14.16</ele>
        <time>2020-06-03T16:22:29Z</time>
      </trkpt>
      <trkpt lat="47.09817" lon="-1.8262">
        <ele>13.29</ele>
        <time>2020-06-03T16:22:31Z</time>
      </trkpt>
      <trkpt lat="47.09814" lon="-1.82602">
        <ele>13.01</ele>
        <time>2020-06-03T16:22:33Z</time>
      </trkpt>
      <trkpt lat="47.0981" lon="-1.8258">
        <ele>12.58</ele>
        <time>2020-06-03T16:22:35Z</time>
      </trkpt>
      <trkpt lat="47.09807" lon="-1.82559">
        <ele>13.72</ele>
        <time>2020-06-03T16:22:37Z</time>
      </trkpt>
      <trkpt lat="47.09804" lon="-1.82538">
        <ele>14.33</ele>
        <time>2020-06-03T16:22:39Z</time>
      </trkpt>
      <trkpt lat="47.09801" lon="-1.82515">
        <ele>14.03</ele>
        <time>2020-06-03T16:22:41Z</time>
      </trkpt>
      <trkpt lat="47.09798" lon="-1.82492">
        <ele>14.21</ele>
        <time>2020-06-03T16:22:43Z</time>
      </trkpt>
      <trkpt lat="47.09796" lon="-1.82469">
        <ele>15.29</ele>
        <time>2020-06-03T16:22:45Z</time>
      </trkpt>
      <trkpt lat="47.09794" lon="-1.82446">
        <ele>15.58</ele>
        <time>2020-06-03T16:22:47Z</time>
      </trkpt>
      <trkpt lat="47.09791" lon="-1.82422">
        <ele>16.03</ele>
        <time>2020-06-03T16:22:49Z</time>
      </trkpt>
      <trkpt lat="47.09787" lon="-1.824">
        <ele>15.23</ele>
        <time>2020-06-03T16:22:51Z</time>
      </trkpt>
      <trkpt lat="47.09783" lon="-1.82379">
        <ele>14.21</ele>
        <time>2020-06-03T16:22:53Z</time>
      </trkpt>
      <trkpt lat="47.09778" lon="-1.82359">
        <ele>12.69</ele>
        <time>2020-06-03T16:22:55Z</time>
      </trkpt>
      <trkpt lat="47.09771" lon="-1.82338">
        <ele>12.09</ele>
        <time>2020-06-03T16:22:57Z</time>
      </trkpt>
      <trkpt lat="47.09763" lon="-1.82319">
        <ele>12.19</ele>
        <time>2020-06-03T16:22:59Z</time>
      </trkpt>
      <trkpt lat="47.09755" lon="-1.823">
        <ele>12.2</ele>
        <time>2020-06-03T16:23:01Z</time>
      </trkpt>
      <trkpt lat="47.09748" lon="-1.82283">
        <ele>12.42</ele>
        <time>2020-06-03T16:23:03Z</time>
      </trkpt>
      <trkpt lat="47.0974" lon="-1.82266">
        <ele>13.42</ele>
        <time>2020-06-03T16:23:05Z</time>
      </trkpt>
      <trkpt lat="47.09733" lon="-1.8225">
        <ele>14.12</ele>
        <time>2020-06-03T16:23:07Z</time>
      </trkpt>
      <trkpt lat="47.09725" lon="-1.82233">
        <ele>14.37</ele>
        <time>2020-06-03T16:23:09Z</time>
      </trkpt>
      <trkpt lat="47.09719" lon="-1.82219">
        <ele>15.2</ele>
        <time>2020-06-03T16:23:11Z</time>
      </trkpt>
      <trkpt lat="47.09713" lon="-1.82205">
        <ele>15.35</ele>
        <time>2020-06-03T16:23:13Z</time>
      </trkpt>
      <trkpt lat="47.09706" lon="-1.82194">
        <ele>15.66</ele>
        <time>2020-06-03T16:23:15Z</time>
      </trkpt>
      <trkpt lat="47.097" lon="-1.8218">
        <ele>15.54</ele>
        <time>2020-06-03T16:23:17Z</time>
      </trkpt>
      <trkpt lat="47.09694" lon="-1.82169">
        <ele>14.77</ele>
        <time>2020-06-03T16:23:19Z</time>
      </trkpt>
      <trkpt lat="47.09688" lon="-1.82154">
        <ele>13.69</ele>
        <time>2020-06-03T16:23:22Z</time>
      </trkpt>
      <trkpt lat="47.09691" lon="-1.82139">
        <ele>13.15</ele>
        <time>2020-06-03T16:23:24Z</time>
      </trkpt>
      <trkpt lat="47.09698" lon="-1.82116">
        <ele>12.83</ele>
        <time>2020-06-03T16:23:26Z</time>
      </trkpt>
      <trkpt lat="47.09702" lon="-1.82104">
        <ele>12.9</ele>
        <time>2020-06-03T16:23:27Z</time>
      </trkpt>
      <trkpt lat="47.09709" lon="-1.82082">
        <ele>12.96</ele>
        <time>2020-06-03T16:23:29Z</time>
      </trkpt>
      <trkpt lat="47.09716" lon="-1.82063">
        <ele>13.46</ele>
        <time>2020-06-03T16:23:31Z</time>
      </trkpt>
      <trkpt lat="47.09723" lon="-1.82043">
        <ele>14.37</ele>
        <time>2020-06-03T16:23:33Z</time>
      </trkpt>
      <trkpt lat="47.09729" lon="-1.82023">
        <ele>15.03</ele>
        <time>2020-06-03T16:23:35Z</time>
      </trkpt>
      <trkpt lat="47.09735" lon="-1.82005">
        <ele>16.1</ele>
        <time>2020-06-03T16:23:37Z</time>
      </trkpt>
      <trkpt lat="47.09736" lon="-1.81989">
        <ele>16.36</ele>
        <time>2020-06-03T16:23:39Z</time>
      </trkpt>
      <trkpt lat="47.09728" lon="-1.81984">
        <ele>16.46</ele>
        <time>2020-06-03T16:23:41Z</time>
      </trkpt>
      <trkpt lat="47.09717" lon="-1.81993">
        <ele>16.74</ele>
        <time>2020-06-03T16:23:43Z</time>
      </trkpt>
      <trkpt lat="47.09706" lon="-1.82004">
        <ele>16.7</ele>
        <time>2020-06-03T16:23:45Z</time>
      </trkpt>
      <trkpt lat="47.09694" lon="-1.82016">
        <ele>16.42</ele>
        <time>2020-06-03T16:23:47Z</time>
      </trkpt>
      <trkpt lat="47.09682" lon="-1.82028">
        <ele>16.99</ele>
        <time>2020-06-03T16:23:49Z</time>
      </trkpt>
      <trkpt lat="47.09669" lon="-1.8204">
        <ele>16.81</ele>
        <time>2020-06-03T16:23:51Z</time>
      </trkpt>
      <trkpt lat="47.09656" lon="-1.82049">
        <ele>17.04</ele>
        <time>2020-06-03T16:23:53Z</time>
      </trkpt>
      <trkpt lat="47.09643" lon="-1.8204">
        <ele>16.78</ele>
        <time>2020-06-03T16:23:55Z</time>
      </trkpt>
      <trkpt lat="47.09634" lon="-1.82024">
        <ele>16.42</ele>
        <time>2020-06-03T16:23:57Z</time>
      </trkpt>
      <trkpt lat="47.09624" lon="-1.82006">
        <ele>16.2</ele>
        <time>2020-06-03T16:23:59Z</time>
      </trkpt>
      <trkpt lat="47.09614" lon="-1.81987">
        <ele>15.05</ele>
        <time>2020-06-03T16:24:01Z</time>
      </trkpt>
      <trkpt lat="47.09606" lon="-1.8197">
        <ele>13.55</ele>
        <time>2020-06-03T16:24:03Z</time>
      </trkpt>
      <trkpt lat="47.09597" lon="-1.81953">
        <ele>12.93</ele>
        <time>2020-06-03T16:24:05Z</time>
      </trkpt>
      <trkpt lat="47.09588" lon="-1.81936">
        <ele>12.56</ele>
        <time>2020-06-03T16:24:07Z</time>
      </trkpt>
      <trkpt lat="47.09578" lon="-1.81919">
        <ele>12.65</ele>
        <time>2020-06-03T16:24:09Z</time>
      </trkpt>
      <trkpt lat="47.09568" lon="-1.81901">
        <ele>13.33</ele>
        <time>2020-06-03T16:24:11Z</time>
      </trkpt>
      <trkpt lat="47.09559" lon="-1.81885">
        <ele>12.74</ele>
        <time>2020-06-03T16:24:13Z</time>
      </trkpt>
      <trkpt lat="47.09549" lon="-1.81869">
        <ele>13.11</ele>
        <time>2020-06-03T16:24:15Z</time>
      </trkpt>
      <trkpt lat="47.0954" lon="-1.81854">
        <ele>14.02</ele>
        <time>2020-06-03T16:24:17Z</time>
      </trkpt>
      <trkpt lat="47.09532" lon="-1.81838">
        <ele>14.11</ele>
        <time>2020-06-03T16:24:19Z</time>
      </trkpt>
      <trkpt lat="47.09526" lon="-1.81828">
        <ele>14.55</ele>
        <time>2020-06-03T16:24:20Z</time>
      </trkpt>
      <trkpt lat="47.09516" lon="-1.81808">
        <ele>15.33</ele>
        <time>2020-06-03T16:24:22Z</time>
      </trkpt>
      <trkpt lat="47.09508" lon="-1.8179">
        <ele>15.11</ele>
        <time>2020-06-03T16:24:24Z</time>
      </trkpt>
      <trkpt lat="47.09501" lon="-1.81772">
        <ele>14.52</ele>
        <time>2020-06-03T16:24:26Z</time>
      </trkpt>
      <trkpt lat="47.09494" lon="-1.81752">
        <ele>13.18</ele>
        <time>2020-06-03T16:24:28Z</time>
      </trkpt>
      <trkpt lat="47.09489" lon="-1.81732">
        <ele>11.07</ele>
        <time>2020-06-03T16:24:30Z</time>
      </trkpt>
      <trkpt lat="47.09484" lon="-1.81713">
        <ele>10.07</ele>
        <time>2020-06-03T16:24:32Z</time>
      </trkpt>
      <trkpt lat="47.09479" lon="-1.81691">
        <ele>11.21</ele>
        <time>2020-06-03T16:24:34Z</time>
      </trkpt>
      <trkpt lat="47.09474" lon="-1.81673">
        <ele>12.08</ele>
        <time>2020-06-03T16:24:36Z</time>
      </trkpt>
      <trkpt lat="47.0947" lon="-1.81651">
        <ele>12.67</ele>
        <time>2020-06-03T16:24:38Z</time>
      </trkpt>
      <trkpt lat="47.09466" lon="-1.81627">
        <ele>13.34</ele>
        <time>2020-06-03T16:24:40Z</time>
      </trkpt>
      <trkpt lat="47.09463" lon="-1.81608">
        <ele>13.1</ele>
        <time>2020-06-03T16:24:42Z</time>
      </trkpt>
      <trkpt lat="47.09459" lon="-1.81586">
        <ele>12.22</ele>
        <time>2020-06-03T16:24:44Z</time>
      </trkpt>
      <trkpt lat="47.09455" lon="-1.81566">
        <ele>12.53</ele>
        <time>2020-06-03T16:24:46Z</time>
      </trkpt>
      <trkpt lat="47.0945" lon="-1.81545">
        <ele>12.68</ele>
        <time>2020-06-03T16:24:48Z</time>
      </trkpt>
      <trkpt lat="47.09444" lon="-1.81525">
        <ele>13.15</ele>
        <time>2020-06-03T16:24:50Z</time>
      </trkpt>
      <trkpt lat="47.09437" lon="-1.81503">
        <ele>14.37</ele>
        <time>2020-06-03T16:24:52Z</time>
      </trkpt>
      <trkpt lat="47.0943" lon="-1.81481">
        <ele>14.96</ele>
        <time>2020-06-03T16:24:54Z</time>
      </trkpt>
      <trkpt lat="47.09423" lon="-1.81459">
        <ele>15.11</ele>
        <time>2020-06-03T16:24:56Z</time>
      </trkpt>
      <trkpt lat="47.09417" lon="-1.81439">
        <ele>14.83</ele>
        <time>2020-06-03T16:24:58Z</time>
      </trkpt>
      <trkpt lat="47.09409" lon="-1.81417">
        <ele>15.03</ele>
        <time>2020-06-03T16:25:00Z</time>
      </trkpt>
      <trkpt lat="47.09402" lon="-1.81396">
        <ele>14.76</ele>
        <time>2020-06-03T16:25:02Z</time>
      </trkpt>
      <trkpt lat="47.09395" lon="-1.81375">
        <ele>13.7</ele>
        <time>2020-06-03T16:25:04Z</time>
      </trkpt>
      <trkpt lat="47.09387" lon="-1.81354">
        <ele>12.23</ele>
        <time>2020-06-03T16:25:06Z</time>
      </trkpt>
      <trkpt lat="47.09378" lon="-1.81334">
        <ele>10.94</ele>
        <time>2020-06-03T16:25:08Z</time>
      </trkpt>
      <trkpt lat="47.09368" lon="-1.81315">
        <ele>10.46</ele>
        <time>2020-06-03T16:25:10Z</time>
      </trkpt>
      <trkpt lat="47.09358" lon="-1.81298">
        <ele>10.5</ele>
        <time>2020-06-03T16:25:12Z</time>
      </trkpt>
      <trkpt lat="47.09346" lon="-1.81281">
        <ele>10.18</ele>
        <time>2020-06-03T16:25:14Z</time>
      </trkpt>
      <trkpt lat="47.09334" lon="-1.81265">
        <ele>10.08</ele>
        <time>2020-06-03T16:25:16Z</time>
      </trkpt>
      <trkpt lat="47.09323" lon="-1.81249">
        <ele>9.3</ele>
        <time>2020-06-03T16:25:18Z</time>
      </trkpt>
      <trkpt lat="47.09312" lon="-1.81234">
        <ele>9.09</ele>
        <time>2020-06-03T16:25:20Z</time>
      </trkpt>
      <trkpt lat="47.093" lon="-1.81217">
        <ele>7.72</ele>
        <time>2020-06-03T16:25:22Z</time>
      </trkpt>
      <trkpt lat="47.0929" lon="-1.81201">
        <ele>7.33</ele>
        <time>2020-06-03T16:25:24Z</time>
      </trkpt>
      <trkpt lat="47.09278" lon="-1.81183">
        <ele>7.02</ele>
        <time>2020-06-03T16:25:26Z</time>
      </trkpt>
      <trkpt lat="47.09267" lon="-1.81165">
        <ele>6.27</ele>
        <time>2020-06-03T16:25:28Z</time>
      </trkpt>
      <trkpt lat="47.09256" lon="-1.81148">
        <ele>5.59</ele>
        <time>2020-06-03T16:25:30Z</time>
      </trkpt>
      <trkpt lat="47.09249" lon="-1.81138">
        <ele>5.38</ele>
        <time>2020-06-03T16:25:31Z</time>
      </trkpt>
      <trkpt lat="47.09239" lon="-1.81121">
        <ele>5.85</ele>
        <time>2020-06-03T16:25:33Z</time>
      </trkpt>
      <trkpt lat="47.09228" lon="-1.81105">
        <ele>5.87</ele>
        <time>2020-06-03T16:25:35Z</time>
      </trkpt>
      <trkpt lat="47.09216" lon="-1.81089">
        <ele>5.23</ele>
        <time>2020-06-03T16:25:37Z</time>
      </trkpt>
      <trkpt lat="47.09203" lon="-1.81076">
        <ele>4.8</ele>
        <time>2020-06-03T16:25:39Z</time>
      </trkpt>
      <trkpt lat="47.09191" lon="-1.81066">
        <ele>4.68</ele>
        <time>2020-06-03T16:25:41Z</time>
      </trkpt>
      <trkpt lat="47.09177" lon="-1.81056">
        <ele>4.49</ele>
        <time>2020-06-03T16:25:43Z</time>
      </trkpt>
      <trkpt lat="47.09163" lon="-1.81045">
        <ele>4.24</ele>
        <time>2020-06-03T16:25:45Z</time>
      </trkpt>
      <trkpt lat="47.09151" lon="-1.81036">
        <ele>5.27</ele>
        <time>2020-06-03T16:25:47Z</time>
      </trkpt>
      <trkpt lat="47.09138" lon="-1.81027">
        <ele>5.17</ele>
        <time>2020-06-03T16:25:49Z</time>
      </trkpt>
      <trkpt lat="47.09125" lon="-1.81018">
        <ele>4.91</ele>
        <time>2020-06-03T16:25:51Z</time>
      </trkpt>
      <trkpt lat="47.09113" lon="-1.81009">
        <ele>4.89</ele>
        <time>2020-06-03T16:25:53Z</time>
      </trkpt>
      <trkpt lat="47.09101" lon="-1.81001">
        <ele>4.93</ele>
        <time>2020-06-03T16:25:55Z</time>
      </trkpt>
      <trkpt lat="47.09088" lon="-1.80991">
        <ele>5.55</ele>
        <time>2020-06-03T16:25:57Z</time>
      </trkpt>
      <trkpt lat="47.09076" lon="-1.80982">
        <ele>6.16</ele>
        <time>2020-06-03T16:25:59Z</time>
      </trkpt>
      <trkpt lat="47.09066" lon="-1.80974">
        <ele>7.42</ele>
        <time>2020-06-03T16:26:01Z</time>
      </trkpt>
      <trkpt lat="47.09055" lon="-1.80966">
        <ele>7.51</ele>
        <time>2020-06-03T16:26:03Z</time>
      </trkpt>
      <trkpt lat="47.09043" lon="-1.80957">
        <ele>6.53</ele>
        <time>2020-06-03T16:26:05Z</time>
      </trkpt>
      <trkpt lat="47.0903" lon="-1.80948">
        <ele>5.41</ele>
        <time>2020-06-03T16:26:07Z</time>
      </trkpt>
      <trkpt lat="47.09018" lon="-1.80939">
        <ele>5.16</ele>
        <time>2020-06-03T16:26:09Z</time>
      </trkpt>
      <trkpt lat="47.09007" lon="-1.80931">
        <ele>5.42</ele>
        <time>2020-06-03T16:26:11Z</time>
      </trkpt>
      <trkpt lat="47.08995" lon="-1.80922">
        <ele>5.32</ele>
        <time>2020-06-03T16:26:13Z</time>
      </trkpt>
      <trkpt lat="47.08983" lon="-1.80914">
        <ele>6.46</ele>
        <time>2020-06-03T16:26:15Z</time>
      </trkpt>
      <trkpt lat="47.08972" lon="-1.80905">
        <ele>7.09</ele>
        <time>2020-06-03T16:26:17Z</time>
      </trkpt>
      <trkpt lat="47.0896" lon="-1.80895">
        <ele>8.62</ele>
        <time>2020-06-03T16:26:19Z</time>
      </trkpt>
      <trkpt lat="47.08948" lon="-1.80887">
        <ele>8.67</ele>
        <time>2020-06-03T16:26:21Z</time>
      </trkpt>
      <trkpt lat="47.08937" lon="-1.80877">
        <ele>7.87</ele>
        <time>2020-06-03T16:26:23Z</time>
      </trkpt>
      <trkpt lat="47.08926" lon="-1.80868">
        <ele>6.97</ele>
        <time>2020-06-03T16:26:25Z</time>
      </trkpt>
      <trkpt lat="47.08917" lon="-1.80855">
        <ele>6.28</ele>
        <time>2020-06-03T16:26:27Z</time>
      </trkpt>
      <trkpt lat="47.08908" lon="-1.80839">
        <ele>6.26</ele>
        <time>2020-06-03T16:26:29Z</time>
      </trkpt>
      <trkpt lat="47.08898" lon="-1.80824">
        <ele>5.52</ele>
        <time>2020-06-03T16:26:31Z</time>
      </trkpt>
      <trkpt lat="47.0889" lon="-1.8081">
        <ele>5</ele>
        <time>2020-06-03T16:26:33Z</time>
      </trkpt>
      <trkpt lat="47.08882" lon="-1.80795">
        <ele>6.26</ele>
        <time>2020-06-03T16:26:35Z</time>
      </trkpt>
      <trkpt lat="47.08873" lon="-1.8078">
        <ele>6.49</ele>
        <time>2020-06-03T16:26:37Z</time>
      </trkpt>
      <trkpt lat="47.08865" lon="-1.80764">
        <ele>5.5</ele>
        <time>2020-06-03T16:26:39Z</time>
      </trkpt>
      <trkpt lat="47.08856" lon="-1.80749">
        <ele>4.55</ele>
        <time>2020-06-03T16:26:41Z</time>
      </trkpt>
      <trkpt lat="47.08848" lon="-1.80734">
        <ele>4.23</ele>
        <time>2020-06-03T16:26:43Z</time>
      </trkpt>
      <trkpt lat="47.08842" lon="-1.80721">
        <ele>4.91</ele>
        <time>2020-06-03T16:26:45Z</time>
      </trkpt>
      <trkpt lat="47.08833" lon="-1.80707">
        <ele>6</ele>
        <time>2020-06-03T16:26:47Z</time>
      </trkpt>
      <trkpt lat="47.08824" lon="-1.80693">
        <ele>6.7</ele>
        <time>2020-06-03T16:26:49Z</time>
      </trkpt>
      <trkpt lat="47.08817" lon="-1.8068">
        <ele>7.06</ele>
        <time>2020-06-03T16:26:51Z</time>
      </trkpt>
      <trkpt lat="47.0881" lon="-1.80667">
        <ele>7.04</ele>
        <time>2020-06-03T16:26:53Z</time>
      </trkpt>
      <trkpt lat="47.08803" lon="-1.80654">
        <ele>7.7</ele>
        <time>2020-06-03T16:26:55Z</time>
      </trkpt>
      <trkpt lat="47.08796" lon="-1.80642">
        <ele>8.12</ele>
        <time>2020-06-03T16:26:57Z</time>
      </trkpt>
      <trkpt lat="47.08789" lon="-1.8063">
        <ele>9.06</ele>
        <time>2020-06-03T16:26:59Z</time>
      </trkpt>
      <trkpt lat="47.08781" lon="-1.80618">
        <ele>9.72</ele>
        <time>2020-06-03T16:27:02Z</time>
      </trkpt>
      <trkpt lat="47.08773" lon="-1.80607">
        <ele>10.15</ele>
        <time>2020-06-03T16:27:04Z</time>
      </trkpt>
      <trkpt lat="47.08763" lon="-1.80596">
        <ele>10.66</ele>
        <time>2020-06-03T16:27:06Z</time>
      </trkpt>
      <trkpt lat="47.08753" lon="-1.80584">
        <ele>11.86</ele>
        <time>2020-06-03T16:27:08Z</time>
      </trkpt>
      <trkpt lat="47.08744" lon="-1.80576">
        <ele>13.53</ele>
        <time>2020-06-03T16:27:10Z</time>
      </trkpt>
      <trkpt lat="47.08732" lon="-1.80568">
        <ele>14.48</ele>
        <time>2020-06-03T16:27:12Z</time>
      </trkpt>
      <trkpt lat="47.08722" lon="-1.80562">
        <ele>13.59</ele>
        <time>2020-06-03T16:27:14Z</time>
      </trkpt>
      <trkpt lat="47.08711" lon="-1.80555">
        <ele>12.23</ele>
        <time>2020-06-03T16:27:16Z</time>
      </trkpt>
      <trkpt lat="47.087" lon="-1.80548">
        <ele>11.65</ele>
        <time>2020-06-03T16:27:18Z</time>
      </trkpt>
      <trkpt lat="47.08689" lon="-1.80539">
        <ele>11.91</ele>
        <time>2020-06-03T16:27:20Z</time>
      </trkpt>
      <trkpt lat="47.08679" lon="-1.80532">
        <ele>12.92</ele>
        <time>2020-06-03T16:27:22Z</time>
      </trkpt>
      <trkpt lat="47.08668" lon="-1.80524">
        <ele>13.94</ele>
        <time>2020-06-03T16:27:24Z</time>
      </trkpt>
      <trkpt lat="47.08657" lon="-1.80517">
        <ele>14.22</ele>
        <time>2020-06-03T16:27:26Z</time>
      </trkpt>
      <trkpt lat="47.08646" lon="-1.80512">
        <ele>14.4</ele>
        <time>2020-06-03T16:27:28Z</time>
      </trkpt>
      <trkpt lat="47.08636" lon="-1.80509">
        <ele>14.3</ele>
        <time>2020-06-03T16:27:30Z</time>
      </trkpt>
      <trkpt lat="47.08624" lon="-1.80506">
        <ele>14.16</ele>
        <time>2020-06-03T16:27:32Z</time>
      </trkpt>
      <trkpt lat="47.08612" lon="-1.80502">
        <ele>13.44</ele>
        <time>2020-06-03T16:27:34Z</time>
      </trkpt>
      <trkpt lat="47.086" lon="-1.80501">
        <ele>13.98</ele>
        <time>2020-06-03T16:27:36Z</time>
      </trkpt>
      <trkpt lat="47.0859" lon="-1.80499">
        <ele>14.49</ele>
        <time>2020-06-03T16:27:38Z</time>
      </trkpt>
      <trkpt lat="47.08579" lon="-1.80497">
        <ele>15.2</ele>
        <time>2020-06-03T16:27:40Z</time>
      </trkpt>
      <trkpt lat="47.08564" lon="-1.80495">
        <ele>15.12</ele>
        <time>2020-06-03T16:27:43Z</time>
      </trkpt>
      <trkpt lat="47.08552" lon="-1.80492">
        <ele>15.63</ele>
        <time>2020-06-03T16:27:45Z</time>
      </trkpt>
      <trkpt lat="47.08541" lon="-1.80489">
        <ele>16.3</ele>
        <time>2020-06-03T16:27:47Z</time>
      </trkpt>
      <trkpt lat="47.08531" lon="-1.80486">
        <ele>16.82</ele>
        <time>2020-06-03T16:27:49Z</time>
      </trkpt>
      <trkpt lat="47.08519" lon="-1.80484">
        <ele>17.08</ele>
        <time>2020-06-03T16:27:51Z</time>
      </trkpt>
      <trkpt lat="47.08507" lon="-1.80482">
        <ele>16.51</ele>
        <time>2020-06-03T16:27:53Z</time>
      </trkpt>
      <trkpt lat="47.08495" lon="-1.80479">
        <ele>15.36</ele>
        <time>2020-06-03T16:27:55Z</time>
      </trkpt>
      <trkpt lat="47.08485" lon="-1.80477">
        <ele>14.78</ele>
        <time>2020-06-03T16:27:57Z</time>
      </trkpt>
      <trkpt lat="47.08472" lon="-1.80475">
        <ele>15.29</ele>
        <time>2020-06-03T16:27:59Z</time>
      </trkpt>
      <trkpt lat="47.08458" lon="-1.80473">
        <ele>15.85</ele>
        <time>2020-06-03T16:28:01Z</time>
      </trkpt>
      <trkpt lat="47.08446" lon="-1.80471">
        <ele>15.8</ele>
        <time>2020-06-03T16:28:03Z</time>
      </trkpt>
      <trkpt lat="47.08434" lon="-1.80471">
        <ele>14.93</ele>
        <time>2020-06-03T16:28:05Z</time>
      </trkpt>
      <trkpt lat="47.08423" lon="-1.80471">
        <ele>15.18</ele>
        <time>2020-06-03T16:28:07Z</time>
      </trkpt>
      <trkpt lat="47.08412" lon="-1.80472">
        <ele>16.57</ele>
        <time>2020-06-03T16:28:09Z</time>
      </trkpt>
      <trkpt lat="47.08401" lon="-1.80472">
        <ele>16.85</ele>
        <time>2020-06-03T16:28:11Z</time>
      </trkpt>
      <trkpt lat="47.0839" lon="-1.80474">
        <ele>17.17</ele>
        <time>2020-06-03T16:28:13Z</time>
      </trkpt>
      <trkpt lat="47.08376" lon="-1.80475">
        <ele>16.97</ele>
        <time>2020-06-03T16:28:15Z</time>
      </trkpt>
      <trkpt lat="47.08363" lon="-1.80474">
        <ele>17.31</ele>
        <time>2020-06-03T16:28:17Z</time>
      </trkpt>
      <trkpt lat="47.08351" lon="-1.80474">
        <ele>17.01</ele>
        <time>2020-06-03T16:28:19Z</time>
      </trkpt>
      <trkpt lat="47.08339" lon="-1.80475">
        <ele>17.58</ele>
        <time>2020-06-03T16:28:21Z</time>
      </trkpt>
      <trkpt lat="47.08328" lon="-1.80475">
        <ele>18.85</ele>
        <time>2020-06-03T16:28:23Z</time>
      </trkpt>
      <trkpt lat="47.08317" lon="-1.80477">
        <ele>20.05</ele>
        <time>2020-06-03T16:28:25Z</time>
      </trkpt>
      <trkpt lat="47.08305" lon="-1.8048">
        <ele>20</ele>
        <time>2020-06-03T16:28:27Z</time>
      </trkpt>
      <trkpt lat="47.08292" lon="-1.80484">
        <ele>19.81</ele>
        <time>2020-06-03T16:28:29Z</time>
      </trkpt>
      <trkpt lat="47.08279" lon="-1.80489">
        <ele>20.42</ele>
        <time>2020-06-03T16:28:31Z</time>
      </trkpt>
      <trkpt lat="47.08267" lon="-1.80494">
        <ele>20.81</ele>
        <time>2020-06-03T16:28:33Z</time>
      </trkpt>
      <trkpt lat="47.08254" lon="-1.805">
        <ele>20.22</ele>
        <time>2020-06-03T16:28:35Z</time>
      </trkpt>
      <trkpt lat="47.08241" lon="-1.80504">
        <ele>19.48</ele>
        <time>2020-06-03T16:28:37Z</time>
      </trkpt>
      <trkpt lat="47.08228" lon="-1.80508">
        <ele>18.31</ele>
        <time>2020-06-03T16:28:39Z</time>
      </trkpt>
      <trkpt lat="47.08214" lon="-1.80514">
        <ele>17.36</ele>
        <time>2020-06-03T16:28:41Z</time>
      </trkpt>
      <trkpt lat="47.08201" lon="-1.8052">
        <ele>16.31</ele>
        <time>2020-06-03T16:28:43Z</time>
      </trkpt>
      <trkpt lat="47.08189" lon="-1.80526">
        <ele>16.2</ele>
        <time>2020-06-03T16:28:45Z</time>
      </trkpt>
      <trkpt lat="47.08174" lon="-1.80533">
        <ele>17.06</ele>
        <time>2020-06-03T16:28:47Z</time>
      </trkpt>
      <trkpt lat="47.08159" lon="-1.8054">
        <ele>16.75</ele>
        <time>2020-06-03T16:28:49Z</time>
      </trkpt>
      <trkpt lat="47.08145" lon="-1.80544">
        <ele>16.26</ele>
        <time>2020-06-03T16:28:51Z</time>
      </trkpt>
      <trkpt lat="47.0813" lon="-1.8055">
        <ele>15.52</ele>
        <time>2020-06-03T16:28:53Z</time>
      </trkpt>
      <trkpt lat="47.08116" lon="-1.80555">
        <ele>14.76</ele>
        <time>2020-06-03T16:28:55Z</time>
      </trkpt>
      <trkpt lat="47.08101" lon="-1.80559">
        <ele>14.2</ele>
        <time>2020-06-03T16:28:57Z</time>
      </trkpt>
      <trkpt lat="47.08085" lon="-1.80563">
        <ele>13.9</ele>
        <time>2020-06-03T16:28:59Z</time>
      </trkpt>
      <trkpt lat="47.0807" lon="-1.80567">
        <ele>14.24</ele>
        <time>2020-06-03T16:29:01Z</time>
      </trkpt>
      <trkpt lat="47.08055" lon="-1.80571">
        <ele>14.35</ele>
        <time>2020-06-03T16:29:03Z</time>
      </trkpt>
      <trkpt lat="47.08039" lon="-1.80575">
        <ele>14.66</ele>
        <time>2020-06-03T16:29:05Z</time>
      </trkpt>
      <trkpt lat="47.08024" lon="-1.80578">
        <ele>14.28</ele>
        <time>2020-06-03T16:29:07Z</time>
      </trkpt>
      <trkpt lat="47.08009" lon="-1.80581">
        <ele>12.63</ele>
        <time>2020-06-03T16:29:09Z</time>
      </trkpt>
      <trkpt lat="47.07994" lon="-1.80583">
        <ele>11.28</ele>
        <time>2020-06-03T16:29:11Z</time>
      </trkpt>
      <trkpt lat="47.0798" lon="-1.80584">
        <ele>11.55</ele>
        <time>2020-06-03T16:29:13Z</time>
      </trkpt>
      <trkpt lat="47.07967" lon="-1.80583">
        <ele>12.06</ele>
        <time>2020-06-03T16:29:15Z</time>
      </trkpt>
      <trkpt lat="47.07952" lon="-1.80577">
        <ele>11.95</ele>
        <time>2020-06-03T16:29:17Z</time>
      </trkpt>
      <trkpt lat="47.07938" lon="-1.80567">
        <ele>11.38</ele>
        <time>2020-06-03T16:29:19Z</time>
      </trkpt>
      <trkpt lat="47.0793" lon="-1.80552">
        <ele>10.33</ele>
        <time>2020-06-03T16:29:21Z</time>
      </trkpt>
      <trkpt lat="47.0792" lon="-1.80533">
        <ele>9.65</ele>
        <time>2020-06-03T16:29:23Z</time>
      </trkpt>
      <trkpt lat="47.07912" lon="-1.80514">
        <ele>8.97</ele>
        <time>2020-06-03T16:29:25Z</time>
      </trkpt>
      <trkpt lat="47.07904" lon="-1.80494">
        <ele>8.33</ele>
        <time>2020-06-03T16:29:27Z</time>
      </trkpt>
      <trkpt lat="47.07901" lon="-1.80474">
        <ele>8.56</ele>
        <time>2020-06-03T16:29:29Z</time>
      </trkpt>
      <trkpt lat="47.07899" lon="-1.80454">
        <ele>7.53</ele>
        <time>2020-06-03T16:29:31Z</time>
      </trkpt>
      <trkpt lat="47.07897" lon="-1.80433">
        <ele>6.7</ele>
        <time>2020-06-03T16:29:33Z</time>
      </trkpt>
      <trkpt lat="47.07897" lon="-1.80411">
        <ele>7.64</ele>
        <time>2020-06-03T16:29:35Z</time>
      </trkpt>
      <trkpt lat="47.07897" lon="-1.80389">
        <ele>8.64</ele>
        <time>2020-06-03T16:29:37Z</time>
      </trkpt>
      <trkpt lat="47.07898" lon="-1.80368">
        <ele>8.66</ele>
        <time>2020-06-03T16:29:39Z</time>
      </trkpt>
      <trkpt lat="47.07898" lon="-1.80347">
        <ele>8.51</ele>
        <time>2020-06-03T16:29:41Z</time>
      </trkpt>
      <trkpt lat="47.07899" lon="-1.80325">
        <ele>8.01</ele>
        <time>2020-06-03T16:29:43Z</time>
      </trkpt>
      <trkpt lat="47.079" lon="-1.80307">
        <ele>8.4</ele>
        <time>2020-06-03T16:29:45Z</time>
      </trkpt>
      <trkpt lat="47.07901" lon="-1.80288">
        <ele>9.12</ele>
        <time>2020-06-03T16:29:47Z</time>
      </trkpt>
      <trkpt lat="47.07901" lon="-1.8027">
        <ele>9.93</ele>
        <time>2020-06-03T16:29:49Z</time>
      </trkpt>
      <trkpt lat="47.079" lon="-1.80253">
        <ele>10.82</ele>
        <time>2020-06-03T16:29:51Z</time>
      </trkpt>
      <trkpt lat="47.079" lon="-1.80237">
        <ele>11.69</ele>
        <time>2020-06-03T16:29:53Z</time>
      </trkpt>
      <trkpt lat="47.07899" lon="-1.80221">
        <ele>11.99</ele>
        <time>2020-06-03T16:29:56Z</time>
      </trkpt>
      <trkpt lat="47.079" lon="-1.80208">
        <ele>12.3</ele>
        <time>2020-06-03T16:29:58Z</time>
      </trkpt>
      <trkpt lat="47.07901" lon="-1.80192">
        <ele>12.3</ele>
        <time>2020-06-03T16:30:00Z</time>
      </trkpt>
      <trkpt lat="47.07902" lon="-1.80174">
        <ele>11.85</ele>
        <time>2020-06-03T16:30:02Z</time>
      </trkpt>
      <trkpt lat="47.07902" lon="-1.80156">
        <ele>12.59</ele>
        <time>2020-06-03T16:30:04Z</time>
      </trkpt>
      <trkpt lat="47.07901" lon="-1.80139">
        <ele>12.77</ele>
        <time>2020-06-03T16:30:06Z</time>
      </trkpt>
      <trkpt lat="47.07899" lon="-1.80123">
        <ele>12.4</ele>
        <time>2020-06-03T16:30:08Z</time>
      </trkpt>
      <trkpt lat="47.07898" lon="-1.80109">
        <ele>11.82</ele>
        <time>2020-06-03T16:30:10Z</time>
      </trkpt>
      <trkpt lat="47.07898" lon="-1.80094">
        <ele>11.66</ele>
        <time>2020-06-03T16:30:20Z</time>
      </trkpt>
      <trkpt lat="47.079" lon="-1.80075">
        <ele>12.92</ele>
        <time>2020-06-03T16:30:24Z</time>
      </trkpt>
      <trkpt lat="47.07899" lon="-1.80061">
        <ele>12.7</ele>
        <time>2020-06-03T16:30:26Z</time>
      </trkpt>
      <trkpt lat="47.07897" lon="-1.80047">
        <ele>11.59</ele>
        <time>2020-06-03T16:30:28Z</time>
      </trkpt>
      <trkpt lat="47.07896" lon="-1.80029">
        <ele>10.26</ele>
        <time>2020-06-03T16:30:30Z</time>
      </trkpt>
      <trkpt lat="47.07892" lon="-1.80014">
        <ele>10.31</ele>
        <time>2020-06-03T16:30:32Z</time>
      </trkpt>
      <trkpt lat="47.07887" lon="-1.80001">
        <ele>10.89</ele>
        <time>2020-06-03T16:30:34Z</time>
      </trkpt>
      <trkpt lat="47.07886" lon="-1.79985">
        <ele>10.03</ele>
        <time>2020-06-03T16:30:36Z</time>
      </trkpt>
      <trkpt lat="47.07893" lon="-1.79971">
        <ele>9.61</ele>
        <time>2020-06-03T16:30:38Z</time>
      </trkpt>
      <trkpt lat="47.079" lon="-1.79955">
        <ele>9.28</ele>
        <time>2020-06-03T16:30:40Z</time>
      </trkpt>
      <trkpt lat="47.07905" lon="-1.79935">
        <ele>9.19</ele>
        <time>2020-06-03T16:30:42Z</time>
      </trkpt>
      <trkpt lat="47.07911" lon="-1.79917">
        <ele>8.99</ele>
        <time>2020-06-03T16:30:44Z</time>
      </trkpt>
      <trkpt lat="47.07917" lon="-1.799">
        <ele>8.47</ele>
        <time>2020-06-03T16:30:46Z</time>
      </trkpt>
      <trkpt lat="47.07923" lon="-1.79882">
        <ele>7.6</ele>
        <time>2020-06-03T16:30:48Z</time>
      </trkpt>
      <trkpt lat="47.07929" lon="-1.79865">
        <ele>7.83</ele>
        <time>2020-06-03T16:30:50Z</time>
      </trkpt>
      <trkpt lat="47.07936" lon="-1.79847">
        <ele>8.22</ele>
        <time>2020-06-03T16:30:52Z</time>
      </trkpt>
      <trkpt lat="47.07943" lon="-1.7983">
        <ele>8.27</ele>
        <time>2020-06-03T16:30:54Z</time>
      </trkpt>
      <trkpt lat="47.07949" lon="-1.79812">
        <ele>9.18</ele>
        <time>2020-06-03T16:30:56Z</time>
      </trkpt>
      <trkpt lat="47.07954" lon="-1.79794">
        <ele>9.04</ele>
        <time>2020-06-03T16:30:58Z</time>
      </trkpt>
      <trkpt lat="47.07959" lon="-1.79774">
        <ele>9.27</ele>
        <time>2020-06-03T16:31:00Z</time>
      </trkpt>
      <trkpt lat="47.07962" lon="-1.79754">
        <ele>9.61</ele>
        <time>2020-06-03T16:31:02Z</time>
      </trkpt>
      <trkpt lat="47.07963" lon="-1.79733">
        <ele>10.22</ele>
        <time>2020-06-03T16:31:04Z</time>
      </trkpt>
      <trkpt lat="47.07964" lon="-1.79717">
        <ele>10.35</ele>
        <time>2020-06-03T16:31:06Z</time>
      </trkpt>
      <trkpt lat="47.07966" lon="-1.79697">
        <ele>10.51</ele>
        <time>2020-06-03T16:31:08Z</time>
      </trkpt>
      <trkpt lat="47.07966" lon="-1.7968">
        <ele>9.76</ele>
        <time>2020-06-03T16:31:10Z</time>
      </trkpt>
      <trkpt lat="47.07968" lon="-1.7966">
        <ele>8.96</ele>
        <time>2020-06-03T16:31:12Z</time>
      </trkpt>
      <trkpt lat="47.07968" lon="-1.7964">
        <ele>8.36</ele>
        <time>2020-06-03T16:31:14Z</time>
      </trkpt>
      <trkpt lat="47.07969" lon="-1.79619">
        <ele>7.84</ele>
        <time>2020-06-03T16:31:16Z</time>
      </trkpt>
      <trkpt lat="47.07968" lon="-1.796">
        <ele>7.67</ele>
        <time>2020-06-03T16:31:18Z</time>
      </trkpt>
      <trkpt lat="47.07967" lon="-1.7958">
        <ele>7.6</ele>
        <time>2020-06-03T16:31:20Z</time>
      </trkpt>
      <trkpt lat="47.07964" lon="-1.79558">
        <ele>7.15</ele>
        <time>2020-06-03T16:31:22Z</time>
      </trkpt>
      <trkpt lat="47.07961" lon="-1.79539">
        <ele>6.89</ele>
        <time>2020-06-03T16:31:24Z</time>
      </trkpt>
      <trkpt lat="47.07958" lon="-1.7952">
        <ele>6.68</ele>
        <time>2020-06-03T16:31:26Z</time>
      </trkpt>
      <trkpt lat="47.07953" lon="-1.79499">
        <ele>6.9</ele>
        <time>2020-06-03T16:31:28Z</time>
      </trkpt>
      <trkpt lat="47.07947" lon="-1.79479">
        <ele>6.89</ele>
        <time>2020-06-03T16:31:30Z</time>
      </trkpt>
      <trkpt lat="47.07941" lon="-1.79458">
        <ele>7.6</ele>
        <time>2020-06-03T16:31:32Z</time>
      </trkpt>
      <trkpt lat="47.07935" lon="-1.79437">
        <ele>8.42</ele>
        <time>2020-06-03T16:31:34Z</time>
      </trkpt>
      <trkpt lat="47.07928" lon="-1.79416">
        <ele>8.61</ele>
        <time>2020-06-03T16:31:36Z</time>
      </trkpt>
      <trkpt lat="47.07923" lon="-1.79399">
        <ele>8.92</ele>
        <time>2020-06-03T16:31:38Z</time>
      </trkpt>
      <trkpt lat="47.07917" lon="-1.79376">
        <ele>8.43</ele>
        <time>2020-06-03T16:31:40Z</time>
      </trkpt>
      <trkpt lat="47.07911" lon="-1.79355">
        <ele>7.19</ele>
        <time>2020-06-03T16:31:42Z</time>
      </trkpt>
      <trkpt lat="47.07905" lon="-1.79335">
        <ele>7.08</ele>
        <time>2020-06-03T16:31:44Z</time>
      </trkpt>
      <trkpt lat="47.07899" lon="-1.79313">
        <ele>7.14</ele>
        <time>2020-06-03T16:31:46Z</time>
      </trkpt>
      <trkpt lat="47.07893" lon="-1.79292">
        <ele>6.3</ele>
        <time>2020-06-03T16:31:48Z</time>
      </trkpt>
      <trkpt lat="47.0789" lon="-1.79279">
        <ele>5.66</ele>
        <time>2020-06-03T16:31:49Z</time>
      </trkpt>
      <trkpt lat="47.07884" lon="-1.79257">
        <ele>4.82</ele>
        <time>2020-06-03T16:31:51Z</time>
      </trkpt>
      <trkpt lat="47.07878" lon="-1.79234">
        <ele>4.06</ele>
        <time>2020-06-03T16:31:53Z</time>
      </trkpt>
      <trkpt lat="47.07872" lon="-1.79211">
        <ele>3.5</ele>
        <time>2020-06-03T16:31:55Z</time>
      </trkpt>
      <trkpt lat="47.07866" lon="-1.79188">
        <ele>2.59</ele>
        <time>2020-06-03T16:31:57Z</time>
      </trkpt>
      <trkpt lat="47.07859" lon="-1.79163">
        <ele>1.96</ele>
        <time>2020-06-03T16:31:59Z</time>
      </trkpt>
      <trkpt lat="47.07856" lon="-1.7915">
        <ele>1.64</ele>
        <time>2020-06-03T16:32:00Z</time>
      </trkpt>
      <trkpt lat="47.0785" lon="-1.79125">
        <ele>1.69</ele>
        <time>2020-06-03T16:32:02Z</time>
      </trkpt>
      <trkpt lat="47.07843" lon="-1.79101">
        <ele>0.93</ele>
        <time>2020-06-03T16:32:04Z</time>
      </trkpt>
      <trkpt lat="47.07838" lon="-1.79078">
        <ele>0.26</ele>
        <time>2020-06-03T16:32:06Z</time>
      </trkpt>
      <trkpt lat="47.07831" lon="-1.79053">
        <ele>0.06</ele>
        <time>2020-06-03T16:32:08Z</time>
      </trkpt>
      <trkpt lat="47.07826" lon="-1.79031">
        <ele>0.08</ele>
        <time>2020-06-03T16:32:10Z</time>
      </trkpt>
      <trkpt lat="47.07821" lon="-1.7901">
        <ele>-0.1</ele>
        <time>2020-06-03T16:32:12Z</time>
      </trkpt>
      <trkpt lat="47.07815" lon="-1.78988">
        <ele>0.03</ele>
        <time>2020-06-03T16:32:14Z</time>
      </trkpt>
      <trkpt lat="47.07812" lon="-1.78975">
        <ele>0.35</ele>
        <time>2020-06-03T16:32:15Z</time>
      </trkpt>
      <trkpt lat="47.07806" lon="-1.78951">
        <ele>0.85</ele>
        <time>2020-06-03T16:32:17Z</time>
      </trkpt>
      <trkpt lat="47.07801" lon="-1.7893">
        <ele>1.55</ele>
        <time>2020-06-03T16:32:19Z</time>
      </trkpt>
      <trkpt lat="47.07797" lon="-1.78913">
        <ele>2.66</ele>
        <time>2020-06-03T16:32:21Z</time>
      </trkpt>
      <trkpt lat="47.07793" lon="-1.78895">
        <ele>3.61</ele>
        <time>2020-06-03T16:32:23Z</time>
      </trkpt>
      <trkpt lat="47.07789" lon="-1.78879">
        <ele>4.22</ele>
        <time>2020-06-03T16:32:25Z</time>
      </trkpt>
      <trkpt lat="47.07784" lon="-1.78862">
        <ele>4.37</ele>
        <time>2020-06-03T16:32:27Z</time>
      </trkpt>
      <trkpt lat="47.07779" lon="-1.78844">
        <ele>4.38</ele>
        <time>2020-06-03T16:32:29Z</time>
      </trkpt>
      <trkpt lat="47.07774" lon="-1.78827">
        <ele>4.56</ele>
        <time>2020-06-03T16:32:31Z</time>
      </trkpt>
      <trkpt lat="47.07769" lon="-1.78811">
        <ele>5.12</ele>
        <time>2020-06-03T16:32:33Z</time>
      </trkpt>
      <trkpt lat="47.07765" lon="-1.78795">
        <ele>5.32</ele>
        <time>2020-06-03T16:32:35Z</time>
      </trkpt>
      <trkpt lat="47.0776" lon="-1.78778">
        <ele>5.12</ele>
        <time>2020-06-03T16:32:37Z</time>
      </trkpt>
      <trkpt lat="47.07755" lon="-1.78761">
        <ele>5.1</ele>
        <time>2020-06-03T16:32:39Z</time>
      </trkpt>
      <trkpt lat="47.07749" lon="-1.78745">
        <ele>5.44</ele>
        <time>2020-06-03T16:32:41Z</time>
      </trkpt>
      <trkpt lat="47.07743" lon="-1.78731">
        <ele>5.93</ele>
        <time>2020-06-03T16:32:43Z</time>
      </trkpt>
      <trkpt lat="47.07737" lon="-1.78719">
        <ele>6.5</ele>
        <time>2020-06-03T16:32:45Z</time>
      </trkpt>
      <trkpt lat="47.07732" lon="-1.78707">
        <ele>6.53</ele>
        <time>2020-06-03T16:32:47Z</time>
      </trkpt>
      <trkpt lat="47.07724" lon="-1.78692">
        <ele>6.85</ele>
        <time>2020-06-03T16:32:49Z</time>
      </trkpt>
      <trkpt lat="47.07718" lon="-1.78678">
        <ele>7.6</ele>
        <time>2020-06-03T16:32:51Z</time>
      </trkpt>
      <trkpt lat="47.0771" lon="-1.78664">
        <ele>8.42</ele>
        <time>2020-06-03T16:32:53Z</time>
      </trkpt>
      <trkpt lat="47.07703" lon="-1.78649">
        <ele>8.76</ele>
        <time>2020-06-03T16:32:55Z</time>
      </trkpt>
      <trkpt lat="47.07695" lon="-1.78634">
        <ele>9.46</ele>
        <time>2020-06-03T16:32:57Z</time>
      </trkpt>
      <trkpt lat="47.07687" lon="-1.78617">
        <ele>10.61</ele>
        <time>2020-06-03T16:32:59Z</time>
      </trkpt>
      <trkpt lat="47.07679" lon="-1.78602">
        <ele>11.73</ele>
        <time>2020-06-03T16:33:01Z</time>
      </trkpt>
      <trkpt lat="47.07673" lon="-1.78587">
        <ele>12.38</ele>
        <time>2020-06-03T16:33:03Z</time>
      </trkpt>
      <trkpt lat="47.07666" lon="-1.78572">
        <ele>12.76</ele>
        <time>2020-06-03T16:33:05Z</time>
      </trkpt>
      <trkpt lat="47.07661" lon="-1.78556">
        <ele>13.09</ele>
        <time>2020-06-03T16:33:07Z</time>
      </trkpt>
      <trkpt lat="47.07656" lon="-1.78539">
        <ele>13.44</ele>
        <time>2020-06-03T16:33:09Z</time>
      </trkpt>
      <trkpt lat="47.0765" lon="-1.78521">
        <ele>14.5</ele>
        <time>2020-06-03T16:33:11Z</time>
      </trkpt>
      <trkpt lat="47.07645" lon="-1.78501">
        <ele>13.84</ele>
        <time>2020-06-03T16:33:13Z</time>
      </trkpt>
      <trkpt lat="47.07638" lon="-1.78481">
        <ele>13.33</ele>
        <time>2020-06-03T16:33:15Z</time>
      </trkpt>
      <trkpt lat="47.07632" lon="-1.78461">
        <ele>12.71</ele>
        <time>2020-06-03T16:33:17Z</time>
      </trkpt>
      <trkpt lat="47.07625" lon="-1.78441">
        <ele>12.13</ele>
        <time>2020-06-03T16:33:19Z</time>
      </trkpt>
      <trkpt lat="47.07617" lon="-1.78421">
        <ele>12.14</ele>
        <time>2020-06-03T16:33:21Z</time>
      </trkpt>
      <trkpt lat="47.07608" lon="-1.78401">
        <ele>11.84</ele>
        <time>2020-06-03T16:33:23Z</time>
      </trkpt>
      <trkpt lat="47.076" lon="-1.78384">
        <ele>11.89</ele>
        <time>2020-06-03T16:33:25Z</time>
      </trkpt>
      <trkpt lat="47.07592" lon="-1.78369">
        <ele>13.42</ele>
        <time>2020-06-03T16:33:27Z</time>
      </trkpt>
      <trkpt lat="47.07583" lon="-1.78352">
        <ele>14.12</ele>
        <time>2020-06-03T16:33:29Z</time>
      </trkpt>
      <trkpt lat="47.07573" lon="-1.78336">
        <ele>14.27</ele>
        <time>2020-06-03T16:33:31Z</time>
      </trkpt>
      <trkpt lat="47.07565" lon="-1.7832">
        <ele>15.17</ele>
        <time>2020-06-03T16:33:33Z</time>
      </trkpt>
      <trkpt lat="47.07557" lon="-1.78305">
        <ele>15.52</ele>
        <time>2020-06-03T16:33:35Z</time>
      </trkpt>
      <trkpt lat="47.07548" lon="-1.78289">
        <ele>15.16</ele>
        <time>2020-06-03T16:33:37Z</time>
      </trkpt>
      <trkpt lat="47.0754" lon="-1.78273">
        <ele>14.35</ele>
        <time>2020-06-03T16:33:39Z</time>
      </trkpt>
      <trkpt lat="47.07531" lon="-1.78257">
        <ele>14.45</ele>
        <time>2020-06-03T16:33:41Z</time>
      </trkpt>
      <trkpt lat="47.07522" lon="-1.7824">
        <ele>14.39</ele>
        <time>2020-06-03T16:33:43Z</time>
      </trkpt>
      <trkpt lat="47.07514" lon="-1.78224">
        <ele>14.64</ele>
        <time>2020-06-03T16:33:45Z</time>
      </trkpt>
      <trkpt lat="47.07504" lon="-1.78206">
        <ele>15.04</ele>
        <time>2020-06-03T16:33:47Z</time>
      </trkpt>
      <trkpt lat="47.07493" lon="-1.7819">
        <ele>15.76</ele>
        <time>2020-06-03T16:33:49Z</time>
      </trkpt>
      <trkpt lat="47.07483" lon="-1.78175">
        <ele>15.56</ele>
        <time>2020-06-03T16:33:51Z</time>
      </trkpt>
      <trkpt lat="47.07472" lon="-1.78163">
        <ele>15.83</ele>
        <time>2020-06-03T16:33:53Z</time>
      </trkpt>
      <trkpt lat="47.07462" lon="-1.78153">
        <ele>15.66</ele>
        <time>2020-06-03T16:33:55Z</time>
      </trkpt>
      <trkpt lat="47.07451" lon="-1.78143">
        <ele>15.61</ele>
        <time>2020-06-03T16:33:57Z</time>
      </trkpt>
      <trkpt lat="47.07438" lon="-1.78132">
        <ele>16.08</ele>
        <time>2020-06-03T16:33:59Z</time>
      </trkpt>
      <trkpt lat="47.07426" lon="-1.78122">
        <ele>16.83</ele>
        <time>2020-06-03T16:34:01Z</time>
      </trkpt>
      <trkpt lat="47.07416" lon="-1.78113">
        <ele>17.4</ele>
        <time>2020-06-03T16:34:03Z</time>
      </trkpt>
      <trkpt lat="47.07405" lon="-1.78103">
        <ele>17.65</ele>
        <time>2020-06-03T16:34:05Z</time>
      </trkpt>
      <trkpt lat="47.07396" lon="-1.78093">
        <ele>18.4</ele>
        <time>2020-06-03T16:34:07Z</time>
      </trkpt>
      <trkpt lat="47.07384" lon="-1.7808">
        <ele>18.19</ele>
        <time>2020-06-03T16:34:09Z</time>
      </trkpt>
      <trkpt lat="47.07372" lon="-1.78066">
        <ele>17.72</ele>
        <time>2020-06-03T16:34:11Z</time>
      </trkpt>
      <trkpt lat="47.07362" lon="-1.78054">
        <ele>16.88</ele>
        <time>2020-06-03T16:34:13Z</time>
      </trkpt>
      <trkpt lat="47.07351" lon="-1.78041">
        <ele>16.58</ele>
        <time>2020-06-03T16:34:15Z</time>
      </trkpt>
      <trkpt lat="47.0734" lon="-1.78029">
        <ele>15.79</ele>
        <time>2020-06-03T16:34:17Z</time>
      </trkpt>
      <trkpt lat="47.07331" lon="-1.78017">
        <ele>16.35</ele>
        <time>2020-06-03T16:34:19Z</time>
      </trkpt>
      <trkpt lat="47.07321" lon="-1.78005">
        <ele>17.37</ele>
        <time>2020-06-03T16:34:21Z</time>
      </trkpt>
      <trkpt lat="47.07311" lon="-1.77992">
        <ele>18.12</ele>
        <time>2020-06-03T16:34:23Z</time>
      </trkpt>
      <trkpt lat="47.073" lon="-1.77977">
        <ele>17.91</ele>
        <time>2020-06-03T16:34:25Z</time>
      </trkpt>
      <trkpt lat="47.0729" lon="-1.77965">
        <ele>17.93</ele>
        <time>2020-06-03T16:34:27Z</time>
      </trkpt>
      <trkpt lat="47.07279" lon="-1.77952">
        <ele>17.64</ele>
        <time>2020-06-03T16:34:29Z</time>
      </trkpt>
      <trkpt lat="47.07268" lon="-1.77939">
        <ele>17.37</ele>
        <time>2020-06-03T16:34:31Z</time>
      </trkpt>
      <trkpt lat="47.07258" lon="-1.77926">
        <ele>16.85</ele>
        <time>2020-06-03T16:34:33Z</time>
      </trkpt>
      <trkpt lat="47.07247" lon="-1.77913">
        <ele>15.48</ele>
        <time>2020-06-03T16:34:35Z</time>
      </trkpt>
      <trkpt lat="47.07236" lon="-1.77901">
        <ele>15.92</ele>
        <time>2020-06-03T16:34:37Z</time>
      </trkpt>
      <trkpt lat="47.07226" lon="-1.77889">
        <ele>17.08</ele>
        <time>2020-06-03T16:34:39Z</time>
      </trkpt>
      <trkpt lat="47.07216" lon="-1.77875">
        <ele>17.72</ele>
        <time>2020-06-03T16:34:41Z</time>
      </trkpt>
      <trkpt lat="47.07205" lon="-1.77862">
        <ele>17.72</ele>
        <time>2020-06-03T16:34:43Z</time>
      </trkpt>
      <trkpt lat="47.07194" lon="-1.77849">
        <ele>18.34</ele>
        <time>2020-06-03T16:34:45Z</time>
      </trkpt>
      <trkpt lat="47.07184" lon="-1.77837">
        <ele>18.46</ele>
        <time>2020-06-03T16:34:47Z</time>
      </trkpt>
      <trkpt lat="47.07173" lon="-1.77826">
        <ele>18.25</ele>
        <time>2020-06-03T16:34:49Z</time>
      </trkpt>
      <trkpt lat="47.07164" lon="-1.77815">
        <ele>19.04</ele>
        <time>2020-06-03T16:34:51Z</time>
      </trkpt>
      <trkpt lat="47.07153" lon="-1.77801">
        <ele>19.06</ele>
        <time>2020-06-03T16:34:53Z</time>
      </trkpt>
      <trkpt lat="47.07143" lon="-1.77787">
        <ele>18.62</ele>
        <time>2020-06-03T16:34:55Z</time>
      </trkpt>
      <trkpt lat="47.07133" lon="-1.77772">
        <ele>18.19</ele>
        <time>2020-06-03T16:34:57Z</time>
      </trkpt>
      <trkpt lat="47.07125" lon="-1.77753">
        <ele>17.7</ele>
        <time>2020-06-03T16:34:59Z</time>
      </trkpt>
      <trkpt lat="47.07119" lon="-1.77737">
        <ele>16.6</ele>
        <time>2020-06-03T16:35:01Z</time>
      </trkpt>
      <trkpt lat="47.07112" lon="-1.7772">
        <ele>16.7</ele>
        <time>2020-06-03T16:35:03Z</time>
      </trkpt>
      <trkpt lat="47.07104" lon="-1.77702">
        <ele>17.25</ele>
        <time>2020-06-03T16:35:05Z</time>
      </trkpt>
      <trkpt lat="47.07097" lon="-1.77683">
        <ele>17.91</ele>
        <time>2020-06-03T16:35:07Z</time>
      </trkpt>
      <trkpt lat="47.07091" lon="-1.77664">
        <ele>18.32</ele>
        <time>2020-06-03T16:35:09Z</time>
      </trkpt>
      <trkpt lat="47.07084" lon="-1.77648">
        <ele>18.81</ele>
        <time>2020-06-03T16:35:11Z</time>
      </trkpt>
      <trkpt lat="47.07078" lon="-1.77632">
        <ele>19.21</ele>
        <time>2020-06-03T16:35:13Z</time>
      </trkpt>
      <trkpt lat="47.07071" lon="-1.77615">
        <ele>19.31</ele>
        <time>2020-06-03T16:35:15Z</time>
      </trkpt>
      <trkpt lat="47.07065" lon="-1.77599">
        <ele>19.24</ele>
        <time>2020-06-03T16:35:17Z</time>
      </trkpt>
      <trkpt lat="47.07058" lon="-1.77582">
        <ele>18.71</ele>
        <time>2020-06-03T16:35:19Z</time>
      </trkpt>
      <trkpt lat="47.07052" lon="-1.77565">
        <ele>17.99</ele>
        <time>2020-06-03T16:35:21Z</time>
      </trkpt>
      <trkpt lat="47.07045" lon="-1.77549">
        <ele>17.39</ele>
        <time>2020-06-03T16:35:23Z</time>
      </trkpt>
      <trkpt lat="47.07039" lon="-1.77535">
        <ele>16.54</ele>
        <time>2020-06-03T16:35:25Z</time>
      </trkpt>
      <trkpt lat="47.07033" lon="-1.77519">
        <ele>15.68</ele>
        <time>2020-06-03T16:35:27Z</time>
      </trkpt>
      <trkpt lat="47.07026" lon="-1.77502">
        <ele>15.92</ele>
        <time>2020-06-03T16:35:29Z</time>
      </trkpt>
      <trkpt lat="47.07019" lon="-1.77485">
        <ele>16.53</ele>
        <time>2020-06-03T16:35:31Z</time>
      </trkpt>
      <trkpt lat="47.07012" lon="-1.7747">
        <ele>17.07</ele>
        <time>2020-06-03T16:35:33Z</time>
      </trkpt>
      <trkpt lat="47.07004" lon="-1.77453">
        <ele>17.99</ele>
        <time>2020-06-03T16:35:35Z</time>
      </trkpt>
      <trkpt lat="47.06996" lon="-1.77438">
        <ele>18.53</ele>
        <time>2020-06-03T16:35:37Z</time>
      </trkpt>
      <trkpt lat="47.06989" lon="-1.77423">
        <ele>19.17</ele>
        <time>2020-06-03T16:35:39Z</time>
      </trkpt>
      <trkpt lat="47.0698" lon="-1.77409">
        <ele>19.74</ele>
        <time>2020-06-03T16:35:41Z</time>
      </trkpt>
      <trkpt lat="47.06971" lon="-1.77396">
        <ele>20.49</ele>
        <time>2020-06-03T16:35:43Z</time>
      </trkpt>
      <trkpt lat="47.06962" lon="-1.77383">
        <ele>21.59</ele>
        <time>2020-06-03T16:35:45Z</time>
      </trkpt>
      <trkpt lat="47.06953" lon="-1.7737">
        <ele>21.98</ele>
        <time>2020-06-03T16:35:47Z</time>
      </trkpt>
      <trkpt lat="47.06944" lon="-1.77357">
        <ele>22.52</ele>
        <time>2020-06-03T16:35:49Z</time>
      </trkpt>
      <trkpt lat="47.06935" lon="-1.77344">
        <ele>23.08</ele>
        <time>2020-06-03T16:35:51Z</time>
      </trkpt>
      <trkpt lat="47.06924" lon="-1.7733">
        <ele>22.68</ele>
        <time>2020-06-03T16:35:53Z</time>
      </trkpt>
      <trkpt lat="47.06913" lon="-1.77316">
        <ele>22.24</ele>
        <time>2020-06-03T16:35:55Z</time>
      </trkpt>
      <trkpt lat="47.06904" lon="-1.77303">
        <ele>22.11</ele>
        <time>2020-06-03T16:35:57Z</time>
      </trkpt>
      <trkpt lat="47.06895" lon="-1.7729">
        <ele>22.26</ele>
        <time>2020-06-03T16:35:59Z</time>
      </trkpt>
      <trkpt lat="47.06886" lon="-1.77275">
        <ele>22.78</ele>
        <time>2020-06-03T16:36:01Z</time>
      </trkpt>
      <trkpt lat="47.06876" lon="-1.77262">
        <ele>24.15</ele>
        <time>2020-06-03T16:36:03Z</time>
      </trkpt>
      <trkpt lat="47.06866" lon="-1.77249">
        <ele>25.27</ele>
        <time>2020-06-03T16:36:05Z</time>
      </trkpt>
      <trkpt lat="47.06856" lon="-1.77236">
        <ele>25.41</ele>
        <time>2020-06-03T16:36:07Z</time>
      </trkpt>
      <trkpt lat="47.06845" lon="-1.77221">
        <ele>24.28</ele>
        <time>2020-06-03T16:36:09Z</time>
      </trkpt>
      <trkpt lat="47.06836" lon="-1.77208">
        <ele>22.03</ele>
        <time>2020-06-03T16:36:11Z</time>
      </trkpt>
      <trkpt lat="47.06828" lon="-1.77198">
        <ele>21.14</ele>
        <time>2020-06-03T16:36:13Z</time>
      </trkpt>
      <trkpt lat="47.06818" lon="-1.77184">
        <ele>21.53</ele>
        <time>2020-06-03T16:36:15Z</time>
      </trkpt>
      <trkpt lat="47.06807" lon="-1.77168">
        <ele>21.86</ele>
        <time>2020-06-03T16:36:17Z</time>
      </trkpt>
      <trkpt lat="47.06798" lon="-1.77155">
        <ele>22.3</ele>
        <time>2020-06-03T16:36:19Z</time>
      </trkpt>
      <trkpt lat="47.0679" lon="-1.77141">
        <ele>22.88</ele>
        <time>2020-06-03T16:36:21Z</time>
      </trkpt>
      <trkpt lat="47.06782" lon="-1.77126">
        <ele>22.84</ele>
        <time>2020-06-03T16:36:23Z</time>
      </trkpt>
      <trkpt lat="47.06773" lon="-1.77111">
        <ele>22.61</ele>
        <time>2020-06-03T16:36:25Z</time>
      </trkpt>
      <trkpt lat="47.06765" lon="-1.77096">
        <ele>22.97</ele>
        <time>2020-06-03T16:36:27Z</time>
      </trkpt>
      <trkpt lat="47.06756" lon="-1.77081">
        <ele>22.84</ele>
        <time>2020-06-03T16:36:29Z</time>
      </trkpt>
      <trkpt lat="47.06748" lon="-1.77065">
        <ele>22.74</ele>
        <time>2020-06-03T16:36:31Z</time>
      </trkpt>
      <trkpt lat="47.06738" lon="-1.77049">
        <ele>22.09</ele>
        <time>2020-06-03T16:36:33Z</time>
      </trkpt>
      <trkpt lat="47.0673" lon="-1.77036">
        <ele>21.33</ele>
        <time>2020-06-03T16:36:35Z</time>
      </trkpt>
      <trkpt lat="47.0672" lon="-1.77021">
        <ele>20.71</ele>
        <time>2020-06-03T16:36:37Z</time>
      </trkpt>
      <trkpt lat="47.06712" lon="-1.77007">
        <ele>21.19</ele>
        <time>2020-06-03T16:36:39Z</time>
      </trkpt>
      <trkpt lat="47.06703" lon="-1.76991">
        <ele>22.46</ele>
        <time>2020-06-03T16:36:41Z</time>
      </trkpt>
      <trkpt lat="47.06695" lon="-1.76978">
        <ele>23.19</ele>
        <time>2020-06-03T16:36:43Z</time>
      </trkpt>
      <trkpt lat="47.06686" lon="-1.76964">
        <ele>23.85</ele>
        <time>2020-06-03T16:36:45Z</time>
      </trkpt>
      <trkpt lat="47.06677" lon="-1.7695">
        <ele>24.78</ele>
        <time>2020-06-03T16:36:47Z</time>
      </trkpt>
      <trkpt lat="47.06667" lon="-1.76933">
        <ele>25.45</ele>
        <time>2020-06-03T16:36:49Z</time>
      </trkpt>
      <trkpt lat="47.06659" lon="-1.76919">
        <ele>25.79</ele>
        <time>2020-06-03T16:36:50Z</time>
      </trkpt>
      <trkpt lat="47.0665" lon="-1.76904">
        <ele>25.22</ele>
        <time>2020-06-03T16:36:52Z</time>
      </trkpt>
      <trkpt lat="47.06642" lon="-1.76889">
        <ele>24.77</ele>
        <time>2020-06-03T16:36:54Z</time>
      </trkpt>
      <trkpt lat="47.06635" lon="-1.76877">
        <ele>24.67</ele>
        <time>2020-06-03T16:36:56Z</time>
      </trkpt>
      <trkpt lat="47.06625" lon="-1.76862">
        <ele>24.63</ele>
        <time>2020-06-03T16:36:58Z</time>
      </trkpt>
      <trkpt lat="47.06617" lon="-1.76848">
        <ele>25.45</ele>
        <time>2020-06-03T16:37:00Z</time>
      </trkpt>
      <trkpt lat="47.06607" lon="-1.76833">
        <ele>25.78</ele>
        <time>2020-06-03T16:37:02Z</time>
      </trkpt>
      <trkpt lat="47.06599" lon="-1.7682">
        <ele>25.76</ele>
        <time>2020-06-03T16:37:04Z</time>
      </trkpt>
      <trkpt lat="47.06591" lon="-1.76806">
        <ele>25.08</ele>
        <time>2020-06-03T16:37:06Z</time>
      </trkpt>
      <trkpt lat="47.06582" lon="-1.76793">
        <ele>24.93</ele>
        <time>2020-06-03T16:37:08Z</time>
      </trkpt>
      <trkpt lat="47.06574" lon="-1.76779">
        <ele>24.43</ele>
        <time>2020-06-03T16:37:10Z</time>
      </trkpt>
      <trkpt lat="47.06567" lon="-1.76766">
        <ele>23.74</ele>
        <time>2020-06-03T16:37:12Z</time>
      </trkpt>
      <trkpt lat="47.06558" lon="-1.7675">
        <ele>23.77</ele>
        <time>2020-06-03T16:37:14Z</time>
      </trkpt>
      <trkpt lat="47.06549" lon="-1.76735">
        <ele>24.46</ele>
        <time>2020-06-03T16:37:16Z</time>
      </trkpt>
      <trkpt lat="47.0654" lon="-1.7672">
        <ele>25.23</ele>
        <time>2020-06-03T16:37:18Z</time>
      </trkpt>
      <trkpt lat="47.06532" lon="-1.76706">
        <ele>26.17</ele>
        <time>2020-06-03T16:37:20Z</time>
      </trkpt>
      <trkpt lat="47.06524" lon="-1.76692">
        <ele>26.77</ele>
        <time>2020-06-03T16:37:22Z</time>
      </trkpt>
      <trkpt lat="47.06515" lon="-1.76676">
        <ele>26.56</ele>
        <time>2020-06-03T16:37:24Z</time>
      </trkpt>
      <trkpt lat="47.06507" lon="-1.76662">
        <ele>26.64</ele>
        <time>2020-06-03T16:37:26Z</time>
      </trkpt>
      <trkpt lat="47.06498" lon="-1.76647">
        <ele>26.75</ele>
        <time>2020-06-03T16:37:28Z</time>
      </trkpt>
      <trkpt lat="47.06489" lon="-1.76631">
        <ele>26.95</ele>
        <time>2020-06-03T16:37:30Z</time>
      </trkpt>
      <trkpt lat="47.0648" lon="-1.76615">
        <ele>27.51</ele>
        <time>2020-06-03T16:37:32Z</time>
      </trkpt>
      <trkpt lat="47.0647" lon="-1.76598">
        <ele>27.98</ele>
        <time>2020-06-03T16:37:34Z</time>
      </trkpt>
      <trkpt lat="47.06463" lon="-1.76583">
        <ele>26.99</ele>
        <time>2020-06-03T16:37:36Z</time>
      </trkpt>
      <trkpt lat="47.06455" lon="-1.76564">
        <ele>26.21</ele>
        <time>2020-06-03T16:37:38Z</time>
      </trkpt>
      <trkpt lat="47.06448" lon="-1.76546">
        <ele>25.7</ele>
        <time>2020-06-03T16:37:40Z</time>
      </trkpt>
      <trkpt lat="47.06442" lon="-1.76529">
        <ele>24.9</ele>
        <time>2020-06-03T16:37:42Z</time>
      </trkpt>
      <trkpt lat="47.06434" lon="-1.7651">
        <ele>24.98</ele>
        <time>2020-06-03T16:37:44Z</time>
      </trkpt>
      <trkpt lat="47.06427" lon="-1.76491">
        <ele>25.81</ele>
        <time>2020-06-03T16:37:46Z</time>
      </trkpt>
      <trkpt lat="47.06421" lon="-1.76476">
        <ele>26.6</ele>
        <time>2020-06-03T16:37:48Z</time>
      </trkpt>
      <trkpt lat="47.06413" lon="-1.76457">
        <ele>26.16</ele>
        <time>2020-06-03T16:37:50Z</time>
      </trkpt>
      <trkpt lat="47.06404" lon="-1.7644">
        <ele>25.5</ele>
        <time>2020-06-03T16:37:52Z</time>
      </trkpt>
      <trkpt lat="47.06395" lon="-1.76426">
        <ele>25.03</ele>
        <time>2020-06-03T16:37:54Z</time>
      </trkpt>
      <trkpt lat="47.06383" lon="-1.76414">
        <ele>24.12</ele>
        <time>2020-06-03T16:37:56Z</time>
      </trkpt>
      <trkpt lat="47.06371" lon="-1.76405">
        <ele>24.08</ele>
        <time>2020-06-03T16:37:58Z</time>
      </trkpt>
      <trkpt lat="47.06358" lon="-1.76397">
        <ele>24.08</ele>
        <time>2020-06-03T16:38:00Z</time>
      </trkpt>
      <trkpt lat="47.06343" lon="-1.7639">
        <ele>24.49</ele>
        <time>2020-06-03T16:38:02Z</time>
      </trkpt>
      <trkpt lat="47.06331" lon="-1.76386">
        <ele>24.46</ele>
        <time>2020-06-03T16:38:04Z</time>
      </trkpt>
      <trkpt lat="47.0632" lon="-1.7638">
        <ele>24.85</ele>
        <time>2020-06-03T16:38:06Z</time>
      </trkpt>
      <trkpt lat="47.06309" lon="-1.7637">
        <ele>24.46</ele>
        <time>2020-06-03T16:38:08Z</time>
      </trkpt>
      <trkpt lat="47.06303" lon="-1.7636">
        <ele>24.27</ele>
        <time>2020-06-03T16:38:10Z</time>
      </trkpt>
      <trkpt lat="47.06298" lon="-1.76348">
        <ele>24.24</ele>
        <time>2020-06-03T16:38:12Z</time>
      </trkpt>
      <trkpt lat="47.06292" lon="-1.76335">
        <ele>24.13</ele>
        <time>2020-06-03T16:38:17Z</time>
      </trkpt>
      <trkpt lat="47.06291" lon="-1.76318">
        <ele>23.17</ele>
        <time>2020-06-03T16:38:19Z</time>
      </trkpt>
      <trkpt lat="47.06292" lon="-1.763">
        <ele>22.3</ele>
        <time>2020-06-03T16:38:21Z</time>
      </trkpt>
      <trkpt lat="47.06295" lon="-1.76281">
        <ele>21.27</ele>
        <time>2020-06-03T16:38:23Z</time>
      </trkpt>
      <trkpt lat="47.06298" lon="-1.7626">
        <ele>20.44</ele>
        <time>2020-06-03T16:38:25Z</time>
      </trkpt>
      <trkpt lat="47.06299" lon="-1.76239">
        <ele>20.14</ele>
        <time>2020-06-03T16:38:27Z</time>
      </trkpt>
      <trkpt lat="47.06298" lon="-1.76226">
        <ele>20.62</ele>
        <time>2020-06-03T16:38:28Z</time>
      </trkpt>
      <trkpt lat="47.06294" lon="-1.76205">
        <ele>21.6</ele>
        <time>2020-06-03T16:38:30Z</time>
      </trkpt>
      <trkpt lat="47.06288" lon="-1.76183">
        <ele>22.42</ele>
        <time>2020-06-03T16:38:32Z</time>
      </trkpt>
      <trkpt lat="47.06279" lon="-1.76165">
        <ele>22.53</ele>
        <time>2020-06-03T16:38:34Z</time>
      </trkpt>
      <trkpt lat="47.06271" lon="-1.76149">
        <ele>22.49</ele>
        <time>2020-06-03T16:38:36Z</time>
      </trkpt>
      <trkpt lat="47.0626" lon="-1.76134">
        <ele>22.43</ele>
        <time>2020-06-03T16:38:38Z</time>
      </trkpt>
      <trkpt lat="47.06248" lon="-1.76119">
        <ele>22.38</ele>
        <time>2020-06-03T16:38:40Z</time>
      </trkpt>
      <trkpt lat="47.06236" lon="-1.76105">
        <ele>22.86</ele>
        <time>2020-06-03T16:38:42Z</time>
      </trkpt>
      <trkpt lat="47.06223" lon="-1.7609">
        <ele>23.06</ele>
        <time>2020-06-03T16:38:44Z</time>
      </trkpt>
      <trkpt lat="47.06211" lon="-1.76075">
        <ele>24.62</ele>
        <time>2020-06-03T16:38:46Z</time>
      </trkpt>
      <trkpt lat="47.06199" lon="-1.76062">
        <ele>24.75</ele>
        <time>2020-06-03T16:38:48Z</time>
      </trkpt>
      <trkpt lat="47.06189" lon="-1.76049">
        <ele>24.37</ele>
        <time>2020-06-03T16:38:50Z</time>
      </trkpt>
      <trkpt lat="47.06175" lon="-1.76034">
        <ele>24.45</ele>
        <time>2020-06-03T16:38:52Z</time>
      </trkpt>
      <trkpt lat="47.06162" lon="-1.76019">
        <ele>24.11</ele>
        <time>2020-06-03T16:38:54Z</time>
      </trkpt>
      <trkpt lat="47.06151" lon="-1.76004">
        <ele>23.74</ele>
        <time>2020-06-03T16:38:56Z</time>
      </trkpt>
      <trkpt lat="47.06137" lon="-1.75988">
        <ele>23.65</ele>
        <time>2020-06-03T16:38:58Z</time>
      </trkpt>
      <trkpt lat="47.06126" lon="-1.75976">
        <ele>23.8</ele>
        <time>2020-06-03T16:39:00Z</time>
      </trkpt>
      <trkpt lat="47.06113" lon="-1.75961">
        <ele>23.51</ele>
        <time>2020-06-03T16:39:02Z</time>
      </trkpt>
      <trkpt lat="47.061" lon="-1.75946">
        <ele>23.54</ele>
        <time>2020-06-03T16:39:04Z</time>
      </trkpt>
      <trkpt lat="47.06089" lon="-1.75933">
        <ele>22.93</ele>
        <time>2020-06-03T16:39:06Z</time>
      </trkpt>
      <trkpt lat="47.06076" lon="-1.75918">
        <ele>22.38</ele>
        <time>2020-06-03T16:39:08Z</time>
      </trkpt>
      <trkpt lat="47.06064" lon="-1.75903">
        <ele>22.78</ele>
        <time>2020-06-03T16:39:10Z</time>
      </trkpt>
      <trkpt lat="47.06052" lon="-1.75888">
        <ele>23.04</ele>
        <time>2020-06-03T16:39:12Z</time>
      </trkpt>
      <trkpt lat="47.0604" lon="-1.75873">
        <ele>22.54</ele>
        <time>2020-06-03T16:39:14Z</time>
      </trkpt>
      <trkpt lat="47.06028" lon="-1.75858">
        <ele>22.75</ele>
        <time>2020-06-03T16:39:16Z</time>
      </trkpt>
      <trkpt lat="47.06017" lon="-1.75845">
        <ele>22.62</ele>
        <time>2020-06-03T16:39:18Z</time>
      </trkpt>
      <trkpt lat="47.06005" lon="-1.75831">
        <ele>21.97</ele>
        <time>2020-06-03T16:39:20Z</time>
      </trkpt>
      <trkpt lat="47.05992" lon="-1.75816">
        <ele>21.68</ele>
        <time>2020-06-03T16:39:22Z</time>
      </trkpt>
      <trkpt lat="47.0598" lon="-1.75802">
        <ele>21.35</ele>
        <time>2020-06-03T16:39:24Z</time>
      </trkpt>
      <trkpt lat="47.05969" lon="-1.75787">
        <ele>22.01</ele>
        <time>2020-06-03T16:39:26Z</time>
      </trkpt>
      <trkpt lat="47.05959" lon="-1.75772">
        <ele>21.57</ele>
        <time>2020-06-03T16:39:28Z</time>
      </trkpt>
      <trkpt lat="47.05948" lon="-1.75755">
        <ele>20.41</ele>
        <time>2020-06-03T16:39:30Z</time>
      </trkpt>
      <trkpt lat="47.05941" lon="-1.75735">
        <ele>19.1</ele>
        <time>2020-06-03T16:39:32Z</time>
      </trkpt>
      <trkpt lat="47.05934" lon="-1.75718">
        <ele>17.55</ele>
        <time>2020-06-03T16:39:34Z</time>
      </trkpt>
      <trkpt lat="47.05927" lon="-1.75701">
        <ele>16.75</ele>
        <time>2020-06-03T16:39:36Z</time>
      </trkpt>
      <trkpt lat="47.0592" lon="-1.7568">
        <ele>16.28</ele>
        <time>2020-06-03T16:39:38Z</time>
      </trkpt>
      <trkpt lat="47.05913" lon="-1.75659">
        <ele>17.11</ele>
        <time>2020-06-03T16:39:40Z</time>
      </trkpt>
      <trkpt lat="47.05907" lon="-1.75639">
        <ele>17.71</ele>
        <time>2020-06-03T16:39:42Z</time>
      </trkpt>
      <trkpt lat="47.059" lon="-1.75619">
        <ele>17.33</ele>
        <time>2020-06-03T16:39:44Z</time>
      </trkpt>
      <trkpt lat="47.05894" lon="-1.75601">
        <ele>17.2</ele>
        <time>2020-06-03T16:39:46Z</time>
      </trkpt>
      <trkpt lat="47.05887" lon="-1.7558">
        <ele>18.2</ele>
        <time>2020-06-03T16:39:48Z</time>
      </trkpt>
      <trkpt lat="47.0588" lon="-1.75562">
        <ele>19.48</ele>
        <time>2020-06-03T16:39:50Z</time>
      </trkpt>
      <trkpt lat="47.05873" lon="-1.75542">
        <ele>19.78</ele>
        <time>2020-06-03T16:39:52Z</time>
      </trkpt>
      <trkpt lat="47.05866" lon="-1.75521">
        <ele>19.43</ele>
        <time>2020-06-03T16:39:54Z</time>
      </trkpt>
      <trkpt lat="47.0586" lon="-1.75503">
        <ele>19.22</ele>
        <time>2020-06-03T16:39:56Z</time>
      </trkpt>
      <trkpt lat="47.05853" lon="-1.75483">
        <ele>19.45</ele>
        <time>2020-06-03T16:39:58Z</time>
      </trkpt>
      <trkpt lat="47.05847" lon="-1.75464">
        <ele>19.87</ele>
        <time>2020-06-03T16:40:00Z</time>
      </trkpt>
      <trkpt lat="47.0584" lon="-1.75444">
        <ele>20.34</ele>
        <time>2020-06-03T16:40:02Z</time>
      </trkpt>
      <trkpt lat="47.05834" lon="-1.75426">
        <ele>20.59</ele>
        <time>2020-06-03T16:40:04Z</time>
      </trkpt>
      <trkpt lat="47.05826" lon="-1.75407">
        <ele>19.92</ele>
        <time>2020-06-03T16:40:06Z</time>
      </trkpt>
      <trkpt lat="47.05818" lon="-1.75389">
        <ele>19.15</ele>
        <time>2020-06-03T16:40:08Z</time>
      </trkpt>
      <trkpt lat="47.0581" lon="-1.75371">
        <ele>18.54</ele>
        <time>2020-06-03T16:40:10Z</time>
      </trkpt>
      <trkpt lat="47.05802" lon="-1.75351">
        <ele>18.68</ele>
        <time>2020-06-03T16:40:12Z</time>
      </trkpt>
      <trkpt lat="47.05795" lon="-1.75334">
        <ele>19.35</ele>
        <time>2020-06-03T16:40:14Z</time>
      </trkpt>
      <trkpt lat="47.05788" lon="-1.75318">
        <ele>20.33</ele>
        <time>2020-06-03T16:40:16Z</time>
      </trkpt>
      <trkpt lat="47.0578" lon="-1.75299">
        <ele>19.89</ele>
        <time>2020-06-03T16:40:18Z</time>
      </trkpt>
      <trkpt lat="47.05772" lon="-1.75282">
        <ele>19.48</ele>
        <time>2020-06-03T16:40:20Z</time>
      </trkpt>
      <trkpt lat="47.05763" lon="-1.75264">
        <ele>18.91</ele>
        <time>2020-06-03T16:40:22Z</time>
      </trkpt>
      <trkpt lat="47.05755" lon="-1.75246">
        <ele>17.91</ele>
        <time>2020-06-03T16:40:24Z</time>
      </trkpt>
      <trkpt lat="47.05746" lon="-1.75227">
        <ele>17.77</ele>
        <time>2020-06-03T16:40:26Z</time>
      </trkpt>
      <trkpt lat="47.05738" lon="-1.75208">
        <ele>17.64</ele>
        <time>2020-06-03T16:40:28Z</time>
      </trkpt>
      <trkpt lat="47.0573" lon="-1.7519">
        <ele>17.1</ele>
        <time>2020-06-03T16:40:30Z</time>
      </trkpt>
      <trkpt lat="47.05721" lon="-1.7517">
        <ele>16.66</ele>
        <time>2020-06-03T16:40:32Z</time>
      </trkpt>
      <trkpt lat="47.05712" lon="-1.75151">
        <ele>15.99</ele>
        <time>2020-06-03T16:40:34Z</time>
      </trkpt>
      <trkpt lat="47.05704" lon="-1.75132">
        <ele>15.48</ele>
        <time>2020-06-03T16:40:36Z</time>
      </trkpt>
      <trkpt lat="47.05699" lon="-1.75121">
        <ele>15.16</ele>
        <time>2020-06-03T16:40:37Z</time>
      </trkpt>
      <trkpt lat="47.05689" lon="-1.75102">
        <ele>14.33</ele>
        <time>2020-06-03T16:40:39Z</time>
      </trkpt>
      <trkpt lat="47.05678" lon="-1.75081">
        <ele>13.28</ele>
        <time>2020-06-03T16:40:41Z</time>
      </trkpt>
      <trkpt lat="47.05666" lon="-1.75063">
        <ele>13.25</ele>
        <time>2020-06-03T16:40:43Z</time>
      </trkpt>
      <trkpt lat="47.05652" lon="-1.75046">
        <ele>12.26</ele>
        <time>2020-06-03T16:40:45Z</time>
      </trkpt>
      <trkpt lat="47.05645" lon="-1.75039">
        <ele>11.49</ele>
        <time>2020-06-03T16:40:46Z</time>
      </trkpt>
      <trkpt lat="47.05631" lon="-1.75025">
        <ele>10.34</ele>
        <time>2020-06-03T16:40:48Z</time>
      </trkpt>
      <trkpt lat="47.05615" lon="-1.7501">
        <ele>9.34</ele>
        <time>2020-06-03T16:40:50Z</time>
      </trkpt>
      <trkpt lat="47.05607" lon="-1.75004">
        <ele>8.97</ele>
        <time>2020-06-03T16:40:51Z</time>
      </trkpt>
      <trkpt lat="47.05592" lon="-1.74991">
        <ele>8.76</ele>
        <time>2020-06-03T16:40:53Z</time>
      </trkpt>
      <trkpt lat="47.05585" lon="-1.74983">
        <ele>8.78</ele>
        <time>2020-06-03T16:40:54Z</time>
      </trkpt>
      <trkpt lat="47.05577" lon="-1.74976">
        <ele>8.42</ele>
        <time>2020-06-03T16:40:55Z</time>
      </trkpt>
      <trkpt lat="47.0557" lon="-1.74968">
        <ele>8.62</ele>
        <time>2020-06-03T16:40:56Z</time>
      </trkpt>
      <trkpt lat="47.05562" lon="-1.74961">
        <ele>8.48</ele>
        <time>2020-06-03T16:40:57Z</time>
      </trkpt>
      <trkpt lat="47.05546" lon="-1.74943">
        <ele>7.49</ele>
        <time>2020-06-03T16:40:59Z</time>
      </trkpt>
      <trkpt lat="47.05538" lon="-1.74935">
        <ele>7.23</ele>
        <time>2020-06-03T16:41:00Z</time>
      </trkpt>
      <trkpt lat="47.0553" lon="-1.74927">
        <ele>6.84</ele>
        <time>2020-06-03T16:41:01Z</time>
      </trkpt>
      <trkpt lat="47.05514" lon="-1.74912">
        <ele>5.8</ele>
        <time>2020-06-03T16:41:03Z</time>
      </trkpt>
      <trkpt lat="47.05506" lon="-1.74904">
        <ele>5.22</ele>
        <time>2020-06-03T16:41:04Z</time>
      </trkpt>
      <trkpt lat="47.05497" lon="-1.74896">
        <ele>4.61</ele>
        <time>2020-06-03T16:41:05Z</time>
      </trkpt>
      <trkpt lat="47.05489" lon="-1.74889">
        <ele>4.25</ele>
        <time>2020-06-03T16:41:06Z</time>
      </trkpt>
      <trkpt lat="47.05476" lon="-1.74875">
        <ele>3.23</ele>
        <time>2020-06-03T16:41:08Z</time>
      </trkpt>
      <trkpt lat="47.05468" lon="-1.74868">
        <ele>2.94</ele>
        <time>2020-06-03T16:41:09Z</time>
      </trkpt>
      <trkpt lat="47.05453" lon="-1.74856">
        <ele>3.16</ele>
        <time>2020-06-03T16:41:11Z</time>
      </trkpt>
      <trkpt lat="47.05438" lon="-1.74844">
        <ele>2.3</ele>
        <time>2020-06-03T16:41:13Z</time>
      </trkpt>
      <trkpt lat="47.05422" lon="-1.74833">
        <ele>1.82</ele>
        <time>2020-06-03T16:41:15Z</time>
      </trkpt>
      <trkpt lat="47.05408" lon="-1.74822">
        <ele>1.81</ele>
        <time>2020-06-03T16:41:17Z</time>
      </trkpt>
      <trkpt lat="47.05395" lon="-1.74811">
        <ele>1.07</ele>
        <time>2020-06-03T16:41:19Z</time>
      </trkpt>
      <trkpt lat="47.05381" lon="-1.74799">
        <ele>1.15</ele>
        <time>2020-06-03T16:41:21Z</time>
      </trkpt>
      <trkpt lat="47.05368" lon="-1.74788">
        <ele>1.53</ele>
        <time>2020-06-03T16:41:23Z</time>
      </trkpt>
      <trkpt lat="47.05354" lon="-1.74774">
        <ele>1.57</ele>
        <time>2020-06-03T16:41:25Z</time>
      </trkpt>
      <trkpt lat="47.05344" lon="-1.74758">
        <ele>2.41</ele>
        <time>2020-06-03T16:41:27Z</time>
      </trkpt>
      <trkpt lat="47.05334" lon="-1.74742">
        <ele>2.79</ele>
        <time>2020-06-03T16:41:29Z</time>
      </trkpt>
      <trkpt lat="47.05325" lon="-1.74725">
        <ele>2.66</ele>
        <time>2020-06-03T16:41:31Z</time>
      </trkpt>
      <trkpt lat="47.05315" lon="-1.74707">
        <ele>2.35</ele>
        <time>2020-06-03T16:41:33Z</time>
      </trkpt>
      <trkpt lat="47.05306" lon="-1.7469">
        <ele>2.76</ele>
        <time>2020-06-03T16:41:35Z</time>
      </trkpt>
      <trkpt lat="47.05299" lon="-1.74674">
        <ele>2.23</ele>
        <time>2020-06-03T16:41:37Z</time>
      </trkpt>
      <trkpt lat="47.05291" lon="-1.74655">
        <ele>2.4</ele>
        <time>2020-06-03T16:41:39Z</time>
      </trkpt>
      <trkpt lat="47.05285" lon="-1.7464">
        <ele>2.75</ele>
        <time>2020-06-03T16:41:41Z</time>
      </trkpt>
      <trkpt lat="47.05279" lon="-1.74625">
        <ele>2.7</ele>
        <time>2020-06-03T16:41:43Z</time>
      </trkpt>
      <trkpt lat="47.05272" lon="-1.74611">
        <ele>2.23</ele>
        <time>2020-06-03T16:41:45Z</time>
      </trkpt>
      <trkpt lat="47.05265" lon="-1.74595">
        <ele>2.83</ele>
        <time>2020-06-03T16:41:47Z</time>
      </trkpt>
      <trkpt lat="47.05259" lon="-1.7458">
        <ele>3.79</ele>
        <time>2020-06-03T16:41:49Z</time>
      </trkpt>
      <trkpt lat="47.05252" lon="-1.74565">
        <ele>3.72</ele>
        <time>2020-06-03T16:41:51Z</time>
      </trkpt>
      <trkpt lat="47.05246" lon="-1.74551">
        <ele>4.34</ele>
        <time>2020-06-03T16:41:53Z</time>
      </trkpt>
      <trkpt lat="47.05241" lon="-1.74539">
        <ele>5</ele>
        <time>2020-06-03T16:41:55Z</time>
      </trkpt>
      <trkpt lat="47.05236" lon="-1.74524">
        <ele>5.1</ele>
        <time>2020-06-03T16:41:57Z</time>
      </trkpt>
      <trkpt lat="47.05233" lon="-1.74511">
        <ele>5.3</ele>
        <time>2020-06-03T16:41:59Z</time>
      </trkpt>
      <trkpt lat="47.05229" lon="-1.74496">
        <ele>4.61</ele>
        <time>2020-06-03T16:42:01Z</time>
      </trkpt>
      <trkpt lat="47.05226" lon="-1.74482">
        <ele>3.6</ele>
        <time>2020-06-03T16:42:03Z</time>
      </trkpt>
      <trkpt lat="47.05223" lon="-1.74466">
        <ele>3.07</ele>
        <time>2020-06-03T16:42:05Z</time>
      </trkpt>
      <trkpt lat="47.05221" lon="-1.74451">
        <ele>4</ele>
        <time>2020-06-03T16:42:07Z</time>
      </trkpt>
      <trkpt lat="47.05221" lon="-1.74435">
        <ele>4.15</ele>
        <time>2020-06-03T16:42:09Z</time>
      </trkpt>
      <trkpt lat="47.0522" lon="-1.74419">
        <ele>5.22</ele>
        <time>2020-06-03T16:42:11Z</time>
      </trkpt>
      <trkpt lat="47.05219" lon="-1.74401">
        <ele>5.91</ele>
        <time>2020-06-03T16:42:13Z</time>
      </trkpt>
      <trkpt lat="47.0522" lon="-1.74386">
        <ele>6.29</ele>
        <time>2020-06-03T16:42:15Z</time>
      </trkpt>
      <trkpt lat="47.0522" lon="-1.7437">
        <ele>6.55</ele>
        <time>2020-06-03T16:42:17Z</time>
      </trkpt>
      <trkpt lat="47.0522" lon="-1.74354">
        <ele>6.44</ele>
        <time>2020-06-03T16:42:19Z</time>
      </trkpt>
      <trkpt lat="47.05221" lon="-1.74339">
        <ele>7.77</ele>
        <time>2020-06-03T16:42:21Z</time>
      </trkpt>
      <trkpt lat="47.05222" lon="-1.74323">
        <ele>8.7</ele>
        <time>2020-06-03T16:42:23Z</time>
      </trkpt>
      <trkpt lat="47.05222" lon="-1.74307">
        <ele>10.17</ele>
        <time>2020-06-03T16:42:25Z</time>
      </trkpt>
      <trkpt lat="47.05223" lon="-1.74293">
        <ele>11.46</ele>
        <time>2020-06-03T16:42:27Z</time>
      </trkpt>
      <trkpt lat="47.05224" lon="-1.74278">
        <ele>11.43</ele>
        <time>2020-06-03T16:42:29Z</time>
      </trkpt>
      <trkpt lat="47.05224" lon="-1.74263">
        <ele>11.32</ele>
        <time>2020-06-03T16:42:31Z</time>
      </trkpt>
      <trkpt lat="47.05225" lon="-1.74247">
        <ele>11.14</ele>
        <time>2020-06-03T16:42:33Z</time>
      </trkpt>
      <trkpt lat="47.05225" lon="-1.74232">
        <ele>11.66</ele>
        <time>2020-06-03T16:42:35Z</time>
      </trkpt>
      <trkpt lat="47.05225" lon="-1.74217">
        <ele>12.47</ele>
        <time>2020-06-03T16:42:37Z</time>
      </trkpt>
      <trkpt lat="47.05225" lon="-1.74201">
        <ele>13.35</ele>
        <time>2020-06-03T16:42:39Z</time>
      </trkpt>
      <trkpt lat="47.05226" lon="-1.74182">
        <ele>14.24</ele>
        <time>2020-06-03T16:42:41Z</time>
      </trkpt>
      <trkpt lat="47.05226" lon="-1.74168">
        <ele>14.82</ele>
        <time>2020-06-03T16:42:43Z</time>
      </trkpt>
      <trkpt lat="47.05226" lon="-1.74149">
        <ele>15.37</ele>
        <time>2020-06-03T16:42:46Z</time>
      </trkpt>
      <trkpt lat="47.05226" lon="-1.74132">
        <ele>14.63</ele>
        <time>2020-06-03T16:42:48Z</time>
      </trkpt>
      <trkpt lat="47.05226" lon="-1.74117">
        <ele>14.06</ele>
        <time>2020-06-03T16:42:50Z</time>
      </trkpt>
      <trkpt lat="47.05227" lon="-1.74101">
        <ele>15.09</ele>
        <time>2020-06-03T16:42:52Z</time>
      </trkpt>
      <trkpt lat="47.05227" lon="-1.74083">
        <ele>16.29</ele>
        <time>2020-06-03T16:42:54Z</time>
      </trkpt>
      <trkpt lat="47.05227" lon="-1.74063">
        <ele>17.24</ele>
        <time>2020-06-03T16:42:56Z</time>
      </trkpt>
      <trkpt lat="47.05228" lon="-1.74048">
        <ele>18.39</ele>
        <time>2020-06-03T16:42:58Z</time>
      </trkpt>
      <trkpt lat="47.05227" lon="-1.7403">
        <ele>18.72</ele>
        <time>2020-06-03T16:43:00Z</time>
      </trkpt>
      <trkpt lat="47.05228" lon="-1.74015">
        <ele>18.84</ele>
        <time>2020-06-03T16:43:02Z</time>
      </trkpt>
      <trkpt lat="47.05229" lon="-1.73997">
        <ele>19.76</ele>
        <time>2020-06-03T16:43:04Z</time>
      </trkpt>
      <trkpt lat="47.05228" lon="-1.7398">
        <ele>19.64</ele>
        <time>2020-06-03T16:43:06Z</time>
      </trkpt>
      <trkpt lat="47.05229" lon="-1.73962">
        <ele>19.29</ele>
        <time>2020-06-03T16:43:08Z</time>
      </trkpt>
      <trkpt lat="47.0523" lon="-1.73943">
        <ele>19.7</ele>
        <time>2020-06-03T16:43:10Z</time>
      </trkpt>
      <trkpt lat="47.05231" lon="-1.73925">
        <ele>19.62</ele>
        <time>2020-06-03T16:43:12Z</time>
      </trkpt>
      <trkpt lat="47.05232" lon="-1.73907">
        <ele>18.73</ele>
        <time>2020-06-03T16:43:14Z</time>
      </trkpt>
      <trkpt lat="47.05232" lon="-1.73888">
        <ele>17.71</ele>
        <time>2020-06-03T16:43:16Z</time>
      </trkpt>
      <trkpt lat="47.05233" lon="-1.73868">
        <ele>17.43</ele>
        <time>2020-06-03T16:43:18Z</time>
      </trkpt>
      <trkpt lat="47.05233" lon="-1.73851">
        <ele>18.01</ele>
        <time>2020-06-03T16:43:20Z</time>
      </trkpt>
      <trkpt lat="47.05233" lon="-1.73831">
        <ele>18.55</ele>
        <time>2020-06-03T16:43:22Z</time>
      </trkpt>
      <trkpt lat="47.05232" lon="-1.73814">
        <ele>18.8</ele>
        <time>2020-06-03T16:43:24Z</time>
      </trkpt>
      <trkpt lat="47.05232" lon="-1.73794">
        <ele>18.46</ele>
        <time>2020-06-03T16:43:26Z</time>
      </trkpt>
      <trkpt lat="47.05232" lon="-1.73776">
        <ele>17.9</ele>
        <time>2020-06-03T16:43:28Z</time>
      </trkpt>
      <trkpt lat="47.05232" lon="-1.73759">
        <ele>16.7</ele>
        <time>2020-06-03T16:43:30Z</time>
      </trkpt>
      <trkpt lat="47.05232" lon="-1.73741">
        <ele>15.93</ele>
        <time>2020-06-03T16:43:32Z</time>
      </trkpt>
      <trkpt lat="47.05232" lon="-1.73723">
        <ele>15.85</ele>
        <time>2020-06-03T16:43:34Z</time>
      </trkpt>
      <trkpt lat="47.05233" lon="-1.73705">
        <ele>16.02</ele>
        <time>2020-06-03T16:43:36Z</time>
      </trkpt>
      <trkpt lat="47.05234" lon="-1.73686">
        <ele>15.61</ele>
        <time>2020-06-03T16:43:38Z</time>
      </trkpt>
      <trkpt lat="47.05237" lon="-1.73666">
        <ele>16.01</ele>
        <time>2020-06-03T16:43:40Z</time>
      </trkpt>
      <trkpt lat="47.05241" lon="-1.73646">
        <ele>15.61</ele>
        <time>2020-06-03T16:43:42Z</time>
      </trkpt>
      <trkpt lat="47.05245" lon="-1.73629">
        <ele>16.12</ele>
        <time>2020-06-03T16:43:44Z</time>
      </trkpt>
      <trkpt lat="47.05251" lon="-1.7361">
        <ele>16.53</ele>
        <time>2020-06-03T16:43:46Z</time>
      </trkpt>
      <trkpt lat="47.05257" lon="-1.73592">
        <ele>16.97</ele>
        <time>2020-06-03T16:43:48Z</time>
      </trkpt>
      <trkpt lat="47.05264" lon="-1.73572">
        <ele>16.87</ele>
        <time>2020-06-03T16:43:50Z</time>
      </trkpt>
      <trkpt lat="47.05271" lon="-1.73549">
        <ele>16.92</ele>
        <time>2020-06-03T16:43:52Z</time>
      </trkpt>
      <trkpt lat="47.05279" lon="-1.7353">
        <ele>17.65</ele>
        <time>2020-06-03T16:43:54Z</time>
      </trkpt>
      <trkpt lat="47.05286" lon="-1.7351">
        <ele>17.81</ele>
        <time>2020-06-03T16:43:56Z</time>
      </trkpt>
      <trkpt lat="47.05293" lon="-1.73492">
        <ele>17.51</ele>
        <time>2020-06-03T16:43:58Z</time>
      </trkpt>
      <trkpt lat="47.05298" lon="-1.73473">
        <ele>16.74</ele>
        <time>2020-06-03T16:44:00Z</time>
      </trkpt>
      <trkpt lat="47.05304" lon="-1.73453">
        <ele>16.85</ele>
        <time>2020-06-03T16:44:02Z</time>
      </trkpt>
      <trkpt lat="47.05308" lon="-1.73434">
        <ele>15.78</ele>
        <time>2020-06-03T16:44:04Z</time>
      </trkpt>
      <trkpt lat="47.05311" lon="-1.73412">
        <ele>14.6</ele>
        <time>2020-06-03T16:44:06Z</time>
      </trkpt>
      <trkpt lat="47.05314" lon="-1.73392">
        <ele>13.86</ele>
        <time>2020-06-03T16:44:08Z</time>
      </trkpt>
      <trkpt lat="47.05316" lon="-1.73372">
        <ele>13.93</ele>
        <time>2020-06-03T16:44:10Z</time>
      </trkpt>
      <trkpt lat="47.05318" lon="-1.73351">
        <ele>13.18</ele>
        <time>2020-06-03T16:44:12Z</time>
      </trkpt>
      <trkpt lat="47.05319" lon="-1.73331">
        <ele>12.41</ele>
        <time>2020-06-03T16:44:14Z</time>
      </trkpt>
      <trkpt lat="47.05322" lon="-1.73309">
        <ele>12.14</ele>
        <time>2020-06-03T16:44:16Z</time>
      </trkpt>
      <trkpt lat="47.05324" lon="-1.73284">
        <ele>12.06</ele>
        <time>2020-06-03T16:44:18Z</time>
      </trkpt>
      <trkpt lat="47.05324" lon="-1.73266">
        <ele>12.88</ele>
        <time>2020-06-03T16:44:20Z</time>
      </trkpt>
      <trkpt lat="47.05323" lon="-1.73248">
        <ele>14.56</ele>
        <time>2020-06-03T16:44:22Z</time>
      </trkpt>
      <trkpt lat="47.05321" lon="-1.73231">
        <ele>14.74</ele>
        <time>2020-06-03T16:44:24Z</time>
      </trkpt>
      <trkpt lat="47.05318" lon="-1.73215">
        <ele>15.33</ele>
        <time>2020-06-03T16:44:27Z</time>
      </trkpt>
      <trkpt lat="47.05316" lon="-1.73196">
        <ele>16.81</ele>
        <time>2020-06-03T16:44:28Z</time>
      </trkpt>
      <trkpt lat="47.05312" lon="-1.73177">
        <ele>18.29</ele>
        <time>2020-06-03T16:44:31Z</time>
      </trkpt>
      <trkpt lat="47.05308" lon="-1.73162">
        <ele>19.41</ele>
        <time>2020-06-03T16:44:33Z</time>
      </trkpt>
      <trkpt lat="47.05305" lon="-1.73147">
        <ele>19.87</ele>
        <time>2020-06-03T16:44:35Z</time>
      </trkpt>
      <trkpt lat="47.0531" lon="-1.73136">
        <ele>20.03</ele>
        <time>2020-06-03T16:44:37Z</time>
      </trkpt>
      <trkpt lat="47.05321" lon="-1.73125">
        <ele>20.48</ele>
        <time>2020-06-03T16:44:39Z</time>
      </trkpt>
      <trkpt lat="47.05329" lon="-1.73113">
        <ele>21.32</ele>
        <time>2020-06-03T16:44:41Z</time>
      </trkpt>
      <trkpt lat="47.05338" lon="-1.731">
        <ele>21.36</ele>
        <time>2020-06-03T16:44:43Z</time>
      </trkpt>
      <trkpt lat="47.05345" lon="-1.73086">
        <ele>20.56</ele>
        <time>2020-06-03T16:44:45Z</time>
      </trkpt>
      <trkpt lat="47.05352" lon="-1.73074">
        <ele>19.1</ele>
        <time>2020-06-03T16:44:47Z</time>
      </trkpt>
      <trkpt lat="47.0536" lon="-1.73058">
        <ele>18.2</ele>
        <time>2020-06-03T16:44:49Z</time>
      </trkpt>
      <trkpt lat="47.05368" lon="-1.73043">
        <ele>17.48</ele>
        <time>2020-06-03T16:44:51Z</time>
      </trkpt>
      <trkpt lat="47.05376" lon="-1.7303">
        <ele>17.07</ele>
        <time>2020-06-03T16:44:53Z</time>
      </trkpt>
      <trkpt lat="47.05385" lon="-1.73017">
        <ele>16.99</ele>
        <time>2020-06-03T16:44:55Z</time>
      </trkpt>
      <trkpt lat="47.05393" lon="-1.73002">
        <ele>17.39</ele>
        <time>2020-06-03T16:44:57Z</time>
      </trkpt>
      <trkpt lat="47.054" lon="-1.72987">
        <ele>17.56</ele>
        <time>2020-06-03T16:44:59Z</time>
      </trkpt>
      <trkpt lat="47.05406" lon="-1.72973">
        <ele>16.92</ele>
        <time>2020-06-03T16:45:01Z</time>
      </trkpt>
      <trkpt lat="47.05413" lon="-1.72958">
        <ele>16.59</ele>
        <time>2020-06-03T16:45:03Z</time>
      </trkpt>
      <trkpt lat="47.0542" lon="-1.72943">
        <ele>16.59</ele>
        <time>2020-06-03T16:45:05Z</time>
      </trkpt>
      <trkpt lat="47.05427" lon="-1.72927">
        <ele>16.22</ele>
        <time>2020-06-03T16:45:07Z</time>
      </trkpt>
      <trkpt lat="47.05434" lon="-1.72912">
        <ele>16.17</ele>
        <time>2020-06-03T16:45:09Z</time>
      </trkpt>
      <trkpt lat="47.05442" lon="-1.72896">
        <ele>15.82</ele>
        <time>2020-06-03T16:45:11Z</time>
      </trkpt>
      <trkpt lat="47.05452" lon="-1.72881">
        <ele>15.88</ele>
        <time>2020-06-03T16:45:13Z</time>
      </trkpt>
      <trkpt lat="47.05461" lon="-1.72868">
        <ele>15.65</ele>
        <time>2020-06-03T16:45:15Z</time>
      </trkpt>
      <trkpt lat="47.05469" lon="-1.72856">
        <ele>15.61</ele>
        <time>2020-06-03T16:45:17Z</time>
      </trkpt>
      <trkpt lat="47.05479" lon="-1.72844">
        <ele>15.89</ele>
        <time>2020-06-03T16:45:19Z</time>
      </trkpt>
      <trkpt lat="47.05487" lon="-1.72832">
        <ele>16.12</ele>
        <time>2020-06-03T16:45:21Z</time>
      </trkpt>
      <trkpt lat="47.05497" lon="-1.72819">
        <ele>15.99</ele>
        <time>2020-06-03T16:45:23Z</time>
      </trkpt>
      <trkpt lat="47.05506" lon="-1.72805">
        <ele>14.5</ele>
        <time>2020-06-03T16:45:25Z</time>
      </trkpt>
      <trkpt lat="47.05514" lon="-1.72789">
        <ele>12.88</ele>
        <time>2020-06-03T16:45:27Z</time>
      </trkpt>
      <trkpt lat="47.05516" lon="-1.72769">
        <ele>11.24</ele>
        <time>2020-06-03T16:45:29Z</time>
      </trkpt>
      <trkpt lat="47.05519" lon="-1.72748">
        <ele>11.28</ele>
        <time>2020-06-03T16:45:31Z</time>
      </trkpt>
      <trkpt lat="47.05521" lon="-1.72728">
        <ele>12.04</ele>
        <time>2020-06-03T16:45:33Z</time>
      </trkpt>
      <trkpt lat="47.05524" lon="-1.72709">
        <ele>12.53</ele>
        <time>2020-06-03T16:45:35Z</time>
      </trkpt>
      <trkpt lat="47.05526" lon="-1.72691">
        <ele>14.23</ele>
        <time>2020-06-03T16:45:37Z</time>
      </trkpt>
      <trkpt lat="47.05529" lon="-1.72676">
        <ele>16.39</ele>
        <time>2020-06-03T16:45:39Z</time>
      </trkpt>
      <trkpt lat="47.0553" lon="-1.7266">
        <ele>17.66</ele>
        <time>2020-06-03T16:45:42Z</time>
      </trkpt>
      <trkpt lat="47.05541" lon="-1.72656">
        <ele>17.84</ele>
        <time>2020-06-03T16:45:45Z</time>
      </trkpt>
      <trkpt lat="47.05553" lon="-1.72658">
        <ele>17.75</ele>
        <time>2020-06-03T16:45:47Z</time>
      </trkpt>
      <trkpt lat="47.05568" lon="-1.7266">
        <ele>17.97</ele>
        <time>2020-06-03T16:45:49Z</time>
      </trkpt>
      <trkpt lat="47.0558" lon="-1.72655">
        <ele>17.56</ele>
        <time>2020-06-03T16:45:51Z</time>
      </trkpt>
      <trkpt lat="47.05577" lon="-1.72637">
        <ele>17.63</ele>
        <time>2020-06-03T16:45:53Z</time>
      </trkpt>
      <trkpt lat="47.05572" lon="-1.72615">
        <ele>17.62</ele>
        <time>2020-06-03T16:45:55Z</time>
      </trkpt>
      <trkpt lat="47.05568" lon="-1.72595">
        <ele>17.88</ele>
        <time>2020-06-03T16:45:57Z</time>
      </trkpt>
      <trkpt lat="47.05564" lon="-1.72577">
        <ele>17.31</ele>
        <time>2020-06-03T16:45:59Z</time>
      </trkpt>
      <trkpt lat="47.05559" lon="-1.72558">
        <ele>16.57</ele>
        <time>2020-06-03T16:46:01Z</time>
      </trkpt>
      <trkpt lat="47.05554" lon="-1.72539">
        <ele>16.56</ele>
        <time>2020-06-03T16:46:03Z</time>
      </trkpt>
      <trkpt lat="47.0555" lon="-1.7252">
        <ele>16.58</ele>
        <time>2020-06-03T16:46:05Z</time>
      </trkpt>
      <trkpt lat="47.05546" lon="-1.72501">
        <ele>15.7</ele>
        <time>2020-06-03T16:46:07Z</time>
      </trkpt>
      <trkpt lat="47.05542" lon="-1.72485">
        <ele>15.64</ele>
        <time>2020-06-03T16:46:09Z</time>
      </trkpt>
      <trkpt lat="47.05537" lon="-1.72467">
        <ele>15.72</ele>
        <time>2020-06-03T16:46:11Z</time>
      </trkpt>
      <trkpt lat="47.05532" lon="-1.72449">
        <ele>15.69</ele>
        <time>2020-06-03T16:46:13Z</time>
      </trkpt>
      <trkpt lat="47.05528" lon="-1.72432">
        <ele>15.08</ele>
        <time>2020-06-03T16:46:15Z</time>
      </trkpt>
      <trkpt lat="47.05524" lon="-1.72414">
        <ele>15.45</ele>
        <time>2020-06-03T16:46:17Z</time>
      </trkpt>
      <trkpt lat="47.05518" lon="-1.72397">
        <ele>15.22</ele>
        <time>2020-06-03T16:46:19Z</time>
      </trkpt>
      <trkpt lat="47.05513" lon="-1.72379">
        <ele>15.03</ele>
        <time>2020-06-03T16:46:21Z</time>
      </trkpt>
      <trkpt lat="47.05509" lon="-1.7236">
        <ele>15.02</ele>
        <time>2020-06-03T16:46:23Z</time>
      </trkpt>
      <trkpt lat="47.05505" lon="-1.72343">
        <ele>15.25</ele>
        <time>2020-06-03T16:46:25Z</time>
      </trkpt>
      <trkpt lat="47.05499" lon="-1.72323">
        <ele>15.54</ele>
        <time>2020-06-03T16:46:27Z</time>
      </trkpt>
      <trkpt lat="47.05495" lon="-1.72308">
        <ele>16.2</ele>
        <time>2020-06-03T16:46:29Z</time>
      </trkpt>
      <trkpt lat="47.05489" lon="-1.72287">
        <ele>17.14</ele>
        <time>2020-06-03T16:46:31Z</time>
      </trkpt>
      <trkpt lat="47.05484" lon="-1.72267">
        <ele>17.81</ele>
        <time>2020-06-03T16:46:33Z</time>
      </trkpt>
      <trkpt lat="47.05479" lon="-1.72248">
        <ele>18.1</ele>
        <time>2020-06-03T16:46:35Z</time>
      </trkpt>
      <trkpt lat="47.05475" lon="-1.72228">
        <ele>18.18</ele>
        <time>2020-06-03T16:46:37Z</time>
      </trkpt>
      <trkpt lat="47.0547" lon="-1.72207">
        <ele>17.18</ele>
        <time>2020-06-03T16:46:39Z</time>
      </trkpt>
      <trkpt lat="47.05466" lon="-1.72185">
        <ele>15.78</ele>
        <time>2020-06-03T16:46:41Z</time>
      </trkpt>
      <trkpt lat="47.05461" lon="-1.72163">
        <ele>15.35</ele>
        <time>2020-06-03T16:46:43Z</time>
      </trkpt>
      <trkpt lat="47.05458" lon="-1.72149">
        <ele>14.63</ele>
        <time>2020-06-03T16:46:44Z</time>
      </trkpt>
      <trkpt lat="47.05453" lon="-1.72127">
        <ele>12.95</ele>
        <time>2020-06-03T16:46:46Z</time>
      </trkpt>
      <trkpt lat="47.0545" lon="-1.72114">
        <ele>12.37</ele>
        <time>2020-06-03T16:46:47Z</time>
      </trkpt>
      <trkpt lat="47.05445" lon="-1.72091">
        <ele>11.41</ele>
        <time>2020-06-03T16:46:49Z</time>
      </trkpt>
      <trkpt lat="47.0544" lon="-1.72065">
        <ele>11.34</ele>
        <time>2020-06-03T16:46:51Z</time>
      </trkpt>
      <trkpt lat="47.05437" lon="-1.72052">
        <ele>11.09</ele>
        <time>2020-06-03T16:46:52Z</time>
      </trkpt>
      <trkpt lat="47.05431" lon="-1.72026">
        <ele>10.49</ele>
        <time>2020-06-03T16:46:54Z</time>
      </trkpt>
      <trkpt lat="47.05428" lon="-1.72014">
        <ele>9.73</ele>
        <time>2020-06-03T16:46:55Z</time>
      </trkpt>
      <trkpt lat="47.05425" lon="-1.72001">
        <ele>9.03</ele>
        <time>2020-06-03T16:46:56Z</time>
      </trkpt>
      <trkpt lat="47.0542" lon="-1.71977">
        <ele>8.16</ele>
        <time>2020-06-03T16:46:58Z</time>
      </trkpt>
      <trkpt lat="47.05416" lon="-1.71957">
        <ele>8.56</ele>
        <time>2020-06-03T16:47:00Z</time>
      </trkpt>
      <trkpt lat="47.05413" lon="-1.71938">
        <ele>7.69</ele>
        <time>2020-06-03T16:47:02Z</time>
      </trkpt>
      <trkpt lat="47.05409" lon="-1.71917">
        <ele>7.42</ele>
        <time>2020-06-03T16:47:04Z</time>
      </trkpt>
      <trkpt lat="47.05404" lon="-1.71896">
        <ele>7.51</ele>
        <time>2020-06-03T16:47:06Z</time>
      </trkpt>
      <trkpt lat="47.05399" lon="-1.71872">
        <ele>7.98</ele>
        <time>2020-06-03T16:47:08Z</time>
      </trkpt>
      <trkpt lat="47.05393" lon="-1.71849">
        <ele>8.2</ele>
        <time>2020-06-03T16:47:10Z</time>
      </trkpt>
      <trkpt lat="47.05389" lon="-1.71829">
        <ele>8.5</ele>
        <time>2020-06-03T16:47:12Z</time>
      </trkpt>
      <trkpt lat="47.05384" lon="-1.71807">
        <ele>8.86</ele>
        <time>2020-06-03T16:47:14Z</time>
      </trkpt>
      <trkpt lat="47.05381" lon="-1.71786">
        <ele>8.55</ele>
        <time>2020-06-03T16:47:16Z</time>
      </trkpt>
      <trkpt lat="47.05379" lon="-1.71766">
        <ele>8.21</ele>
        <time>2020-06-03T16:47:18Z</time>
      </trkpt>
      <trkpt lat="47.05379" lon="-1.71745">
        <ele>8.03</ele>
        <time>2020-06-03T16:47:20Z</time>
      </trkpt>
      <trkpt lat="47.05381" lon="-1.7172">
        <ele>7.72</ele>
        <time>2020-06-03T16:47:22Z</time>
      </trkpt>
      <trkpt lat="47.05382" lon="-1.71697">
        <ele>7.25</ele>
        <time>2020-06-03T16:47:24Z</time>
      </trkpt>
      <trkpt lat="47.05384" lon="-1.71676">
        <ele>7.14</ele>
        <time>2020-06-03T16:47:26Z</time>
      </trkpt>
      <trkpt lat="47.05386" lon="-1.71654">
        <ele>7.9</ele>
        <time>2020-06-03T16:47:28Z</time>
      </trkpt>
      <trkpt lat="47.05389" lon="-1.71634">
        <ele>9.36</ele>
        <time>2020-06-03T16:47:30Z</time>
      </trkpt>
      <trkpt lat="47.05392" lon="-1.71609">
        <ele>10.33</ele>
        <time>2020-06-03T16:47:32Z</time>
      </trkpt>
      <trkpt lat="47.05394" lon="-1.71586">
        <ele>9.81</ele>
        <time>2020-06-03T16:47:34Z</time>
      </trkpt>
      <trkpt lat="47.05396" lon="-1.71565">
        <ele>9.54</ele>
        <time>2020-06-03T16:47:36Z</time>
      </trkpt>
      <trkpt lat="47.05398" lon="-1.71542">
        <ele>9.31</ele>
        <time>2020-06-03T16:47:38Z</time>
      </trkpt>
      <trkpt lat="47.054" lon="-1.71518">
        <ele>9.39</ele>
        <time>2020-06-03T16:47:40Z</time>
      </trkpt>
      <trkpt lat="47.05402" lon="-1.71496">
        <ele>9.22</ele>
        <time>2020-06-03T16:47:42Z</time>
      </trkpt>
      <trkpt lat="47.05404" lon="-1.71474">
        <ele>8.62</ele>
        <time>2020-06-03T16:47:44Z</time>
      </trkpt>
      <trkpt lat="47.05406" lon="-1.71454">
        <ele>7.93</ele>
        <time>2020-06-03T16:47:46Z</time>
      </trkpt>
      <trkpt lat="47.05407" lon="-1.71432">
        <ele>7.29</ele>
        <time>2020-06-03T16:47:48Z</time>
      </trkpt>
      <trkpt lat="47.05407" lon="-1.7141">
        <ele>6.9</ele>
        <time>2020-06-03T16:47:50Z</time>
      </trkpt>
      <trkpt lat="47.05406" lon="-1.71387">
        <ele>6.63</ele>
        <time>2020-06-03T16:47:52Z</time>
      </trkpt>
      <trkpt lat="47.05403" lon="-1.71366">
        <ele>6.06</ele>
        <time>2020-06-03T16:47:54Z</time>
      </trkpt>
      <trkpt lat="47.054" lon="-1.71346">
        <ele>5.12</ele>
        <time>2020-06-03T16:47:56Z</time>
      </trkpt>
      <trkpt lat="47.05397" lon="-1.71325">
        <ele>4.56</ele>
        <time>2020-06-03T16:47:58Z</time>
      </trkpt>
      <trkpt lat="47.05394" lon="-1.71303">
        <ele>4.74</ele>
        <time>2020-06-03T16:48:00Z</time>
      </trkpt>
      <trkpt lat="47.05391" lon="-1.71283">
        <ele>5.69</ele>
        <time>2020-06-03T16:48:02Z</time>
      </trkpt>
      <trkpt lat="47.05388" lon="-1.71262">
        <ele>6</ele>
        <time>2020-06-03T16:48:04Z</time>
      </trkpt>
      <trkpt lat="47.05387" lon="-1.7124">
        <ele>6.22</ele>
        <time>2020-06-03T16:48:06Z</time>
      </trkpt>
      <trkpt lat="47.05386" lon="-1.71219">
        <ele>6.94</ele>
        <time>2020-06-03T16:48:08Z</time>
      </trkpt>
      <trkpt lat="47.05387" lon="-1.71198">
        <ele>7.37</ele>
        <time>2020-06-03T16:48:10Z</time>
      </trkpt>
      <trkpt lat="47.05389" lon="-1.71176">
        <ele>7.57</ele>
        <time>2020-06-03T16:48:12Z</time>
      </trkpt>
      <trkpt lat="47.0539" lon="-1.71158">
        <ele>6.74</ele>
        <time>2020-06-03T16:48:14Z</time>
      </trkpt>
      <trkpt lat="47.05392" lon="-1.71136">
        <ele>6.09</ele>
        <time>2020-06-03T16:48:16Z</time>
      </trkpt>
      <trkpt lat="47.05394" lon="-1.71116">
        <ele>6.49</ele>
        <time>2020-06-03T16:48:18Z</time>
      </trkpt>
      <trkpt lat="47.05397" lon="-1.71096">
        <ele>7.3</ele>
        <time>2020-06-03T16:48:20Z</time>
      </trkpt>
      <trkpt lat="47.05399" lon="-1.71074">
        <ele>8.24</ele>
        <time>2020-06-03T16:48:22Z</time>
      </trkpt>
      <trkpt lat="47.05401" lon="-1.71054">
        <ele>9.14</ele>
        <time>2020-06-03T16:48:24Z</time>
      </trkpt>
      <trkpt lat="47.05404" lon="-1.71033">
        <ele>8.95</ele>
        <time>2020-06-03T16:48:26Z</time>
      </trkpt>
      <trkpt lat="47.05407" lon="-1.71013">
        <ele>8.85</ele>
        <time>2020-06-03T16:48:28Z</time>
      </trkpt>
      <trkpt lat="47.05409" lon="-1.70994">
        <ele>8.34</ele>
        <time>2020-06-03T16:48:30Z</time>
      </trkpt>
      <trkpt lat="47.05412" lon="-1.70972">
        <ele>7.52</ele>
        <time>2020-06-03T16:48:32Z</time>
      </trkpt>
      <trkpt lat="47.05413" lon="-1.70952">
        <ele>6.01</ele>
        <time>2020-06-03T16:48:34Z</time>
      </trkpt>
      <trkpt lat="47.05416" lon="-1.7093">
        <ele>5.42</ele>
        <time>2020-06-03T16:48:36Z</time>
      </trkpt>
      <trkpt lat="47.05418" lon="-1.70907">
        <ele>4.41</ele>
        <time>2020-06-03T16:48:38Z</time>
      </trkpt>
      <trkpt lat="47.05419" lon="-1.70884">
        <ele>3.63</ele>
        <time>2020-06-03T16:48:40Z</time>
      </trkpt>
      <trkpt lat="47.05418" lon="-1.70862">
        <ele>2.71</ele>
        <time>2020-06-03T16:48:42Z</time>
      </trkpt>
      <trkpt lat="47.05416" lon="-1.70841">
        <ele>2.8</ele>
        <time>2020-06-03T16:48:44Z</time>
      </trkpt>
      <trkpt lat="47.05412" lon="-1.70818">
        <ele>3.27</ele>
        <time>2020-06-03T16:48:46Z</time>
      </trkpt>
      <trkpt lat="47.05408" lon="-1.70797">
        <ele>3.94</ele>
        <time>2020-06-03T16:48:48Z</time>
      </trkpt>
      <trkpt lat="47.05403" lon="-1.70777">
        <ele>4.32</ele>
        <time>2020-06-03T16:48:50Z</time>
      </trkpt>
      <trkpt lat="47.05399" lon="-1.70757">
        <ele>4.17</ele>
        <time>2020-06-03T16:48:52Z</time>
      </trkpt>
      <trkpt lat="47.05394" lon="-1.70737">
        <ele>4.33</ele>
        <time>2020-06-03T16:48:54Z</time>
      </trkpt>
      <trkpt lat="47.05391" lon="-1.7072">
        <ele>4.05</ele>
        <time>2020-06-03T16:48:56Z</time>
      </trkpt>
      <trkpt lat="47.05388" lon="-1.70702">
        <ele>4.07</ele>
        <time>2020-06-03T16:48:58Z</time>
      </trkpt>
      <trkpt lat="47.05385" lon="-1.70683">
        <ele>5.45</ele>
        <time>2020-06-03T16:49:00Z</time>
      </trkpt>
      <trkpt lat="47.05381" lon="-1.70662">
        <ele>5.89</ele>
        <time>2020-06-03T16:49:02Z</time>
      </trkpt>
      <trkpt lat="47.05377" lon="-1.70642">
        <ele>5.77</ele>
        <time>2020-06-03T16:49:04Z</time>
      </trkpt>
      <trkpt lat="47.05374" lon="-1.70619">
        <ele>5.98</ele>
        <time>2020-06-03T16:49:06Z</time>
      </trkpt>
      <trkpt lat="47.05371" lon="-1.70598">
        <ele>6.67</ele>
        <time>2020-06-03T16:49:08Z</time>
      </trkpt>
      <trkpt lat="47.05369" lon="-1.7058">
        <ele>7.88</ele>
        <time>2020-06-03T16:49:10Z</time>
      </trkpt>
      <trkpt lat="47.05366" lon="-1.7056">
        <ele>8.57</ele>
        <time>2020-06-03T16:49:12Z</time>
      </trkpt>
      <trkpt lat="47.05363" lon="-1.70542">
        <ele>8.91</ele>
        <time>2020-06-03T16:49:14Z</time>
      </trkpt>
      <trkpt lat="47.05359" lon="-1.70521">
        <ele>9.59</ele>
        <time>2020-06-03T16:49:16Z</time>
      </trkpt>
      <trkpt lat="47.05356" lon="-1.70501">
        <ele>9.52</ele>
        <time>2020-06-03T16:49:18Z</time>
      </trkpt>
      <trkpt lat="47.05353" lon="-1.70481">
        <ele>8.94</ele>
        <time>2020-06-03T16:49:20Z</time>
      </trkpt>
      <trkpt lat="47.05348" lon="-1.7046">
        <ele>8.41</ele>
        <time>2020-06-03T16:49:22Z</time>
      </trkpt>
      <trkpt lat="47.05344" lon="-1.70442">
        <ele>7.17</ele>
        <time>2020-06-03T16:49:24Z</time>
      </trkpt>
      <trkpt lat="47.0534" lon="-1.70422">
        <ele>6.04</ele>
        <time>2020-06-03T16:49:26Z</time>
      </trkpt>
      <trkpt lat="47.05335" lon="-1.70402">
        <ele>4.97</ele>
        <time>2020-06-03T16:49:28Z</time>
      </trkpt>
      <trkpt lat="47.0533" lon="-1.70382">
        <ele>5.12</ele>
        <time>2020-06-03T16:49:30Z</time>
      </trkpt>
      <trkpt lat="47.05323" lon="-1.70364">
        <ele>4.77</ele>
        <time>2020-06-03T16:49:32Z</time>
      </trkpt>
      <trkpt lat="47.05317" lon="-1.70346">
        <ele>4.36</ele>
        <time>2020-06-03T16:49:34Z</time>
      </trkpt>
      <trkpt lat="47.0531" lon="-1.70328">
        <ele>3.87</ele>
        <time>2020-06-03T16:49:36Z</time>
      </trkpt>
      <trkpt lat="47.05303" lon="-1.70309">
        <ele>3.57</ele>
        <time>2020-06-03T16:49:38Z</time>
      </trkpt>
      <trkpt lat="47.05295" lon="-1.70291">
        <ele>3.45</ele>
        <time>2020-06-03T16:49:40Z</time>
      </trkpt>
      <trkpt lat="47.05288" lon="-1.7027">
        <ele>3.98</ele>
        <time>2020-06-03T16:49:42Z</time>
      </trkpt>
      <trkpt lat="47.0528" lon="-1.70249">
        <ele>4.87</ele>
        <time>2020-06-03T16:49:44Z</time>
      </trkpt>
      <trkpt lat="47.05272" lon="-1.7023">
        <ele>4.9</ele>
        <time>2020-06-03T16:49:46Z</time>
      </trkpt>
      <trkpt lat="47.05264" lon="-1.7021">
        <ele>4.66</ele>
        <time>2020-06-03T16:49:48Z</time>
      </trkpt>
      <trkpt lat="47.05258" lon="-1.70192">
        <ele>4.8</ele>
        <time>2020-06-03T16:49:50Z</time>
      </trkpt>
      <trkpt lat="47.05251" lon="-1.70173">
        <ele>4.21</ele>
        <time>2020-06-03T16:49:52Z</time>
      </trkpt>
      <trkpt lat="47.05244" lon="-1.70155">
        <ele>3.6</ele>
        <time>2020-06-03T16:49:54Z</time>
      </trkpt>
      <trkpt lat="47.05236" lon="-1.70134">
        <ele>2.59</ele>
        <time>2020-06-03T16:49:56Z</time>
      </trkpt>
      <trkpt lat="47.05228" lon="-1.70113">
        <ele>1.54</ele>
        <time>2020-06-03T16:49:58Z</time>
      </trkpt>
      <trkpt lat="47.0522" lon="-1.70093">
        <ele>0.41</ele>
        <time>2020-06-03T16:50:00Z</time>
      </trkpt>
      <trkpt lat="47.05212" lon="-1.70071">
        <ele>0.79</ele>
        <time>2020-06-03T16:50:02Z</time>
      </trkpt>
      <trkpt lat="47.05205" lon="-1.70051">
        <ele>1.54</ele>
        <time>2020-06-03T16:50:04Z</time>
      </trkpt>
      <trkpt lat="47.05198" lon="-1.7003">
        <ele>2.56</ele>
        <time>2020-06-03T16:50:06Z</time>
      </trkpt>
      <trkpt lat="47.05191" lon="-1.70011">
        <ele>2.49</ele>
        <time>2020-06-03T16:50:08Z</time>
      </trkpt>
      <trkpt lat="47.05183" lon="-1.69991">
        <ele>1.23</ele>
        <time>2020-06-03T16:50:10Z</time>
      </trkpt>
      <trkpt lat="47.05177" lon="-1.69974">
        <ele>1.13</ele>
        <time>2020-06-03T16:50:12Z</time>
      </trkpt>
      <trkpt lat="47.05169" lon="-1.69954">
        <ele>1.08</ele>
        <time>2020-06-03T16:50:14Z</time>
      </trkpt>
      <trkpt lat="47.05161" lon="-1.69935">
        <ele>0.86</ele>
        <time>2020-06-03T16:50:16Z</time>
      </trkpt>
      <trkpt lat="47.05157" lon="-1.69916">
        <ele>1.32</ele>
        <time>2020-06-03T16:50:18Z</time>
      </trkpt>
      <trkpt lat="47.05154" lon="-1.69895">
        <ele>1.81</ele>
        <time>2020-06-03T16:50:20Z</time>
      </trkpt>
      <trkpt lat="47.05153" lon="-1.69873">
        <ele>1.05</ele>
        <time>2020-06-03T16:50:22Z</time>
      </trkpt>
      <trkpt lat="47.05147" lon="-1.69851">
        <ele>0.6</ele>
        <time>2020-06-03T16:50:24Z</time>
      </trkpt>
      <trkpt lat="47.05142" lon="-1.69833">
        <ele>0.43</ele>
        <time>2020-06-03T16:50:26Z</time>
      </trkpt>
      <trkpt lat="47.05134" lon="-1.69814">
        <ele>0.8</ele>
        <time>2020-06-03T16:50:28Z</time>
      </trkpt>
      <trkpt lat="47.05125" lon="-1.69798">
        <ele>0.73</ele>
        <time>2020-06-03T16:50:30Z</time>
      </trkpt>
      <trkpt lat="47.05116" lon="-1.69784">
        <ele>0.35</ele>
        <time>2020-06-03T16:50:32Z</time>
      </trkpt>
      <trkpt lat="47.05105" lon="-1.6977">
        <ele>0.26</ele>
        <time>2020-06-03T16:50:34Z</time>
      </trkpt>
      <trkpt lat="47.05094" lon="-1.69757">
        <ele>1.32</ele>
        <time>2020-06-03T16:50:36Z</time>
      </trkpt>
      <trkpt lat="47.05083" lon="-1.69745">
        <ele>1.42</ele>
        <time>2020-06-03T16:50:38Z</time>
      </trkpt>
      <trkpt lat="47.05071" lon="-1.69733">
        <ele>1.52</ele>
        <time>2020-06-03T16:50:40Z</time>
      </trkpt>
      <trkpt lat="47.05061" lon="-1.69721">
        <ele>1.67</ele>
        <time>2020-06-03T16:50:42Z</time>
      </trkpt>
      <trkpt lat="47.05051" lon="-1.69709">
        <ele>1.11</ele>
        <time>2020-06-03T16:50:44Z</time>
      </trkpt>
      <trkpt lat="47.05041" lon="-1.69697">
        <ele>0.86</ele>
        <time>2020-06-03T16:50:46Z</time>
      </trkpt>
      <trkpt lat="47.05031" lon="-1.69686">
        <ele>1.39</ele>
        <time>2020-06-03T16:50:48Z</time>
      </trkpt>
      <trkpt lat="47.05022" lon="-1.69674">
        <ele>2.35</ele>
        <time>2020-06-03T16:50:50Z</time>
      </trkpt>
      <trkpt lat="47.05011" lon="-1.6966">
        <ele>3.31</ele>
        <time>2020-06-03T16:50:52Z</time>
      </trkpt>
      <trkpt lat="47.05003" lon="-1.69644">
        <ele>4.79</ele>
        <time>2020-06-03T16:50:54Z</time>
      </trkpt>
      <trkpt lat="47.04996" lon="-1.69624">
        <ele>4.04</ele>
        <time>2020-06-03T16:50:56Z</time>
      </trkpt>
      <trkpt lat="47.04987" lon="-1.69604">
        <ele>3.6</ele>
        <time>2020-06-03T16:50:58Z</time>
      </trkpt>
      <trkpt lat="47.04981" lon="-1.69584">
        <ele>2.16</ele>
        <time>2020-06-03T16:51:00Z</time>
      </trkpt>
      <trkpt lat="47.04974" lon="-1.69563">
        <ele>1.36</ele>
        <time>2020-06-03T16:51:02Z</time>
      </trkpt>
      <trkpt lat="47.04969" lon="-1.69544">
        <ele>0.08</ele>
        <time>2020-06-03T16:51:04Z</time>
      </trkpt>
      <trkpt lat="47.04964" lon="-1.69524">
        <ele>-0.31</ele>
        <time>2020-06-03T16:51:06Z</time>
      </trkpt>
      <trkpt lat="47.04958" lon="-1.69505">
        <ele>-0.7</ele>
        <time>2020-06-03T16:51:08Z</time>
      </trkpt>
      <trkpt lat="47.04954" lon="-1.69485">
        <ele>-1.15</ele>
        <time>2020-06-03T16:51:10Z</time>
      </trkpt>
      <trkpt lat="47.04949" lon="-1.69467">
        <ele>-0.78</ele>
        <time>2020-06-03T16:51:12Z</time>
      </trkpt>
      <trkpt lat="47.04945" lon="-1.69447">
        <ele>-0.89</ele>
        <time>2020-06-03T16:51:14Z</time>
      </trkpt>
      <trkpt lat="47.04939" lon="-1.69428">
        <ele>-0.89</ele>
        <time>2020-06-03T16:51:16Z</time>
      </trkpt>
      <trkpt lat="47.04934" lon="-1.69407">
        <ele>-0.74</ele>
        <time>2020-06-03T16:51:18Z</time>
      </trkpt>
      <trkpt lat="47.04929" lon="-1.69388">
        <ele>-0.97</ele>
        <time>2020-06-03T16:51:20Z</time>
      </trkpt>
      <trkpt lat="47.04924" lon="-1.6937">
        <ele>-1.75</ele>
        <time>2020-06-03T16:51:22Z</time>
      </trkpt>
      <trkpt lat="47.04919" lon="-1.6935">
        <ele>-1.42</ele>
        <time>2020-06-03T16:51:24Z</time>
      </trkpt>
      <trkpt lat="47.04914" lon="-1.69331">
        <ele>-0.45</ele>
        <time>2020-06-03T16:51:26Z</time>
      </trkpt>
      <trkpt lat="47.04909" lon="-1.69311">
        <ele>0.21</ele>
        <time>2020-06-03T16:51:28Z</time>
      </trkpt>
      <trkpt lat="47.04904" lon="-1.69291">
        <ele>0.41</ele>
        <time>2020-06-03T16:51:30Z</time>
      </trkpt>
      <trkpt lat="47.04899" lon="-1.69273">
        <ele>0.87</ele>
        <time>2020-06-03T16:51:32Z</time>
      </trkpt>
      <trkpt lat="47.04894" lon="-1.69253">
        <ele>1.33</ele>
        <time>2020-06-03T16:51:34Z</time>
      </trkpt>
      <trkpt lat="47.0489" lon="-1.69234">
        <ele>2.08</ele>
        <time>2020-06-03T16:51:36Z</time>
      </trkpt>
      <trkpt lat="47.04885" lon="-1.69214">
        <ele>2.71</ele>
        <time>2020-06-03T16:51:38Z</time>
      </trkpt>
      <trkpt lat="47.0488" lon="-1.69195">
        <ele>3.58</ele>
        <time>2020-06-03T16:51:40Z</time>
      </trkpt>
      <trkpt lat="47.04875" lon="-1.69177">
        <ele>4.23</ele>
        <time>2020-06-03T16:51:42Z</time>
      </trkpt>
      <trkpt lat="47.0487" lon="-1.69157">
        <ele>4.86</ele>
        <time>2020-06-03T16:51:44Z</time>
      </trkpt>
      <trkpt lat="47.04865" lon="-1.69139">
        <ele>4.83</ele>
        <time>2020-06-03T16:51:46Z</time>
      </trkpt>
      <trkpt lat="47.0486" lon="-1.6912">
        <ele>4.85</ele>
        <time>2020-06-03T16:51:48Z</time>
      </trkpt>
      <trkpt lat="47.04855" lon="-1.691">
        <ele>4.9</ele>
        <time>2020-06-03T16:51:50Z</time>
      </trkpt>
      <trkpt lat="47.0485" lon="-1.69081">
        <ele>3.41</ele>
        <time>2020-06-03T16:51:52Z</time>
      </trkpt>
      <trkpt lat="47.04845" lon="-1.69062">
        <ele>2.73</ele>
        <time>2020-06-03T16:51:54Z</time>
      </trkpt>
      <trkpt lat="47.0484" lon="-1.69043">
        <ele>2.36</ele>
        <time>2020-06-03T16:51:56Z</time>
      </trkpt>
      <trkpt lat="47.04834" lon="-1.69023">
        <ele>3.44</ele>
        <time>2020-06-03T16:51:58Z</time>
      </trkpt>
      <trkpt lat="47.04828" lon="-1.69002">
        <ele>3.65</ele>
        <time>2020-06-03T16:52:00Z</time>
      </trkpt>
      <trkpt lat="47.04824" lon="-1.68984">
        <ele>3.94</ele>
        <time>2020-06-03T16:52:02Z</time>
      </trkpt>
      <trkpt lat="47.04819" lon="-1.68964">
        <ele>4.91</ele>
        <time>2020-06-03T16:52:04Z</time>
      </trkpt>
      <trkpt lat="47.04814" lon="-1.68947">
        <ele>5.42</ele>
        <time>2020-06-03T16:52:06Z</time>
      </trkpt>
      <trkpt lat="47.04809" lon="-1.68927">
        <ele>5.63</ele>
        <time>2020-06-03T16:52:08Z</time>
      </trkpt>
      <trkpt lat="47.04803" lon="-1.68907">
        <ele>5.84</ele>
        <time>2020-06-03T16:52:10Z</time>
      </trkpt>
      <trkpt lat="47.04798" lon="-1.68888">
        <ele>6.07</ele>
        <time>2020-06-03T16:52:12Z</time>
      </trkpt>
      <trkpt lat="47.04792" lon="-1.68867">
        <ele>6.67</ele>
        <time>2020-06-03T16:52:14Z</time>
      </trkpt>
      <trkpt lat="47.04788" lon="-1.68847">
        <ele>7.47</ele>
        <time>2020-06-03T16:52:16Z</time>
      </trkpt>
      <trkpt lat="47.04783" lon="-1.68829">
        <ele>7.68</ele>
        <time>2020-06-03T16:52:18Z</time>
      </trkpt>
      <trkpt lat="47.04779" lon="-1.6881">
        <ele>7.48</ele>
        <time>2020-06-03T16:52:20Z</time>
      </trkpt>
      <trkpt lat="47.04774" lon="-1.68791">
        <ele>6.84</ele>
        <time>2020-06-03T16:52:22Z</time>
      </trkpt>
      <trkpt lat="47.04769" lon="-1.68772">
        <ele>6.83</ele>
        <time>2020-06-03T16:52:24Z</time>
      </trkpt>
      <trkpt lat="47.04764" lon="-1.68753">
        <ele>6.89</ele>
        <time>2020-06-03T16:52:26Z</time>
      </trkpt>
      <trkpt lat="47.04759" lon="-1.68734">
        <ele>7.26</ele>
        <time>2020-06-03T16:52:28Z</time>
      </trkpt>
      <trkpt lat="47.04753" lon="-1.68713">
        <ele>6.81</ele>
        <time>2020-06-03T16:52:30Z</time>
      </trkpt>
      <trkpt lat="47.04749" lon="-1.68697">
        <ele>6</ele>
        <time>2020-06-03T16:52:32Z</time>
      </trkpt>
      <trkpt lat="47.04744" lon="-1.68678">
        <ele>5.29</ele>
        <time>2020-06-03T16:52:34Z</time>
      </trkpt>
      <trkpt lat="47.04739" lon="-1.68658">
        <ele>5.44</ele>
        <time>2020-06-03T16:52:36Z</time>
      </trkpt>
      <trkpt lat="47.04734" lon="-1.68638">
        <ele>5.44</ele>
        <time>2020-06-03T16:52:38Z</time>
      </trkpt>
      <trkpt lat="47.0473" lon="-1.68619">
        <ele>4.85</ele>
        <time>2020-06-03T16:52:40Z</time>
      </trkpt>
      <trkpt lat="47.04724" lon="-1.68599">
        <ele>4.4</ele>
        <time>2020-06-03T16:52:42Z</time>
      </trkpt>
      <trkpt lat="47.04719" lon="-1.68578">
        <ele>3.95</ele>
        <time>2020-06-03T16:52:44Z</time>
      </trkpt>
      <trkpt lat="47.04714" lon="-1.68557">
        <ele>4.3</ele>
        <time>2020-06-03T16:52:46Z</time>
      </trkpt>
      <trkpt lat="47.04708" lon="-1.6854">
        <ele>5.33</ele>
        <time>2020-06-03T16:52:48Z</time>
      </trkpt>
      <trkpt lat="47.04703" lon="-1.68521">
        <ele>5.53</ele>
        <time>2020-06-03T16:52:50Z</time>
      </trkpt>
      <trkpt lat="47.04699" lon="-1.68502">
        <ele>5.88</ele>
        <time>2020-06-03T16:52:52Z</time>
      </trkpt>
      <trkpt lat="47.04694" lon="-1.68483">
        <ele>6.52</ele>
        <time>2020-06-03T16:52:54Z</time>
      </trkpt>
      <trkpt lat="47.04689" lon="-1.68463">
        <ele>7.72</ele>
        <time>2020-06-03T16:52:56Z</time>
      </trkpt>
      <trkpt lat="47.04684" lon="-1.68444">
        <ele>8.59</ele>
        <time>2020-06-03T16:52:58Z</time>
      </trkpt>
      <trkpt lat="47.04679" lon="-1.68425">
        <ele>7.98</ele>
        <time>2020-06-03T16:53:00Z</time>
      </trkpt>
      <trkpt lat="47.04673" lon="-1.68405">
        <ele>7.17</ele>
        <time>2020-06-03T16:53:02Z</time>
      </trkpt>
      <trkpt lat="47.04669" lon="-1.68386">
        <ele>6.53</ele>
        <time>2020-06-03T16:53:04Z</time>
      </trkpt>
      <trkpt lat="47.04664" lon="-1.68367">
        <ele>7.13</ele>
        <time>2020-06-03T16:53:06Z</time>
      </trkpt>
      <trkpt lat="47.04659" lon="-1.68346">
        <ele>7.15</ele>
        <time>2020-06-03T16:53:08Z</time>
      </trkpt>
      <trkpt lat="47.04653" lon="-1.68326">
        <ele>7.97</ele>
        <time>2020-06-03T16:53:10Z</time>
      </trkpt>
      <trkpt lat="47.04648" lon="-1.68305">
        <ele>7.95</ele>
        <time>2020-06-03T16:53:12Z</time>
      </trkpt>
      <trkpt lat="47.04642" lon="-1.68284">
        <ele>7.33</ele>
        <time>2020-06-03T16:53:14Z</time>
      </trkpt>
      <trkpt lat="47.04637" lon="-1.68264">
        <ele>6.9</ele>
        <time>2020-06-03T16:53:16Z</time>
      </trkpt>
      <trkpt lat="47.04632" lon="-1.68244">
        <ele>6.46</ele>
        <time>2020-06-03T16:53:18Z</time>
      </trkpt>
      <trkpt lat="47.04626" lon="-1.68222">
        <ele>6.56</ele>
        <time>2020-06-03T16:53:20Z</time>
      </trkpt>
      <trkpt lat="47.04621" lon="-1.682">
        <ele>7.7</ele>
        <time>2020-06-03T16:53:22Z</time>
      </trkpt>
      <trkpt lat="47.04615" lon="-1.68179">
        <ele>7.37</ele>
        <time>2020-06-03T16:53:23Z</time>
      </trkpt>
      <trkpt lat="47.04609" lon="-1.68157">
        <ele>6.38</ele>
        <time>2020-06-03T16:53:25Z</time>
      </trkpt>
      <trkpt lat="47.04604" lon="-1.68136">
        <ele>5.75</ele>
        <time>2020-06-03T16:53:27Z</time>
      </trkpt>
      <trkpt lat="47.04598" lon="-1.68115">
        <ele>5.76</ele>
        <time>2020-06-03T16:53:29Z</time>
      </trkpt>
      <trkpt lat="47.04594" lon="-1.68096">
        <ele>5.96</ele>
        <time>2020-06-03T16:53:31Z</time>
      </trkpt>
      <trkpt lat="47.04589" lon="-1.68076">
        <ele>6.18</ele>
        <time>2020-06-03T16:53:33Z</time>
      </trkpt>
      <trkpt lat="47.04584" lon="-1.68058">
        <ele>5.87</ele>
        <time>2020-06-03T16:53:35Z</time>
      </trkpt>
      <trkpt lat="47.04579" lon="-1.68039">
        <ele>6.21</ele>
        <time>2020-06-03T16:53:37Z</time>
      </trkpt>
      <trkpt lat="47.04574" lon="-1.68018">
        <ele>6.67</ele>
        <time>2020-06-03T16:53:39Z</time>
      </trkpt>
      <trkpt lat="47.04569" lon="-1.68">
        <ele>6.78</ele>
        <time>2020-06-03T16:53:41Z</time>
      </trkpt>
      <trkpt lat="47.04564" lon="-1.67982">
        <ele>6.35</ele>
        <time>2020-06-03T16:53:43Z</time>
      </trkpt>
      <trkpt lat="47.04559" lon="-1.67961">
        <ele>5.58</ele>
        <time>2020-06-03T16:53:45Z</time>
      </trkpt>
      <trkpt lat="47.04554" lon="-1.67941">
        <ele>5.8</ele>
        <time>2020-06-03T16:53:47Z</time>
      </trkpt>
      <trkpt lat="47.04549" lon="-1.67919">
        <ele>6.67</ele>
        <time>2020-06-03T16:53:49Z</time>
      </trkpt>
      <trkpt lat="47.04543" lon="-1.67898">
        <ele>7.33</ele>
        <time>2020-06-03T16:53:51Z</time>
      </trkpt>
      <trkpt lat="47.04538" lon="-1.6788">
        <ele>7.79</ele>
        <time>2020-06-03T16:53:53Z</time>
      </trkpt>
      <trkpt lat="47.04533" lon="-1.67861">
        <ele>7.99</ele>
        <time>2020-06-03T16:53:55Z</time>
      </trkpt>
      <trkpt lat="47.04528" lon="-1.6784">
        <ele>8.8</ele>
        <time>2020-06-03T16:53:57Z</time>
      </trkpt>
      <trkpt lat="47.04523" lon="-1.67821">
        <ele>8.66</ele>
        <time>2020-06-03T16:53:59Z</time>
      </trkpt>
      <trkpt lat="47.04518" lon="-1.67803">
        <ele>8.54</ele>
        <time>2020-06-03T16:54:01Z</time>
      </trkpt>
      <trkpt lat="47.04512" lon="-1.67782">
        <ele>8.09</ele>
        <time>2020-06-03T16:54:03Z</time>
      </trkpt>
      <trkpt lat="47.04507" lon="-1.67764">
        <ele>8.49</ele>
        <time>2020-06-03T16:54:05Z</time>
      </trkpt>
      <trkpt lat="47.04502" lon="-1.67743">
        <ele>9.1</ele>
        <time>2020-06-03T16:54:07Z</time>
      </trkpt>
      <trkpt lat="47.04496" lon="-1.67723">
        <ele>8.52</ele>
        <time>2020-06-03T16:54:09Z</time>
      </trkpt>
      <trkpt lat="47.04491" lon="-1.67703">
        <ele>8.28</ele>
        <time>2020-06-03T16:54:11Z</time>
      </trkpt>
      <trkpt lat="47.04486" lon="-1.67683">
        <ele>8.61</ele>
        <time>2020-06-03T16:54:13Z</time>
      </trkpt>
      <trkpt lat="47.04481" lon="-1.67665">
        <ele>7</ele>
        <time>2020-06-03T16:54:15Z</time>
      </trkpt>
      <trkpt lat="47.04476" lon="-1.67644">
        <ele>5.71</ele>
        <time>2020-06-03T16:54:17Z</time>
      </trkpt>
      <trkpt lat="47.0447" lon="-1.67622">
        <ele>4.4</ele>
        <time>2020-06-03T16:54:19Z</time>
      </trkpt>
      <trkpt lat="47.04464" lon="-1.67599">
        <ele>3.45</ele>
        <time>2020-06-03T16:54:21Z</time>
      </trkpt>
      <trkpt lat="47.04458" lon="-1.67577">
        <ele>3.12</ele>
        <time>2020-06-03T16:54:23Z</time>
      </trkpt>
      <trkpt lat="47.04452" lon="-1.67555">
        <ele>2.89</ele>
        <time>2020-06-03T16:54:25Z</time>
      </trkpt>
      <trkpt lat="47.04447" lon="-1.67534">
        <ele>3.41</ele>
        <time>2020-06-03T16:54:27Z</time>
      </trkpt>
      <trkpt lat="47.04442" lon="-1.67513">
        <ele>3.27</ele>
        <time>2020-06-03T16:54:29Z</time>
      </trkpt>
      <trkpt lat="47.04437" lon="-1.67491">
        <ele>2.77</ele>
        <time>2020-06-03T16:54:31Z</time>
      </trkpt>
      <trkpt lat="47.04431" lon="-1.67469">
        <ele>3.12</ele>
        <time>2020-06-03T16:54:33Z</time>
      </trkpt>
      <trkpt lat="47.04425" lon="-1.67446">
        <ele>2.4</ele>
        <time>2020-06-03T16:54:35Z</time>
      </trkpt>
      <trkpt lat="47.0442" lon="-1.67426">
        <ele>3</ele>
        <time>2020-06-03T16:54:37Z</time>
      </trkpt>
      <trkpt lat="47.04415" lon="-1.67405">
        <ele>4.12</ele>
        <time>2020-06-03T16:54:39Z</time>
      </trkpt>
      <trkpt lat="47.04409" lon="-1.67384">
        <ele>4.59</ele>
        <time>2020-06-03T16:54:41Z</time>
      </trkpt>
      <trkpt lat="47.04404" lon="-1.67364">
        <ele>5.68</ele>
        <time>2020-06-03T16:54:43Z</time>
      </trkpt>
      <trkpt lat="47.04398" lon="-1.67342">
        <ele>5.35</ele>
        <time>2020-06-03T16:54:45Z</time>
      </trkpt>
      <trkpt lat="47.04393" lon="-1.67322">
        <ele>4.79</ele>
        <time>2020-06-03T16:54:47Z</time>
      </trkpt>
      <trkpt lat="47.04388" lon="-1.67302">
        <ele>4.34</ele>
        <time>2020-06-03T16:54:49Z</time>
      </trkpt>
      <trkpt lat="47.04384" lon="-1.67283">
        <ele>4.32</ele>
        <time>2020-06-03T16:54:51Z</time>
      </trkpt>
      <trkpt lat="47.04379" lon="-1.67261">
        <ele>4.88</ele>
        <time>2020-06-03T16:54:53Z</time>
      </trkpt>
      <trkpt lat="47.04373" lon="-1.67241">
        <ele>6.36</ele>
        <time>2020-06-03T16:54:55Z</time>
      </trkpt>
      <trkpt lat="47.04369" lon="-1.67223">
        <ele>6.77</ele>
        <time>2020-06-03T16:54:57Z</time>
      </trkpt>
      <trkpt lat="47.04363" lon="-1.67204">
        <ele>6.52</ele>
        <time>2020-06-03T16:54:59Z</time>
      </trkpt>
      <trkpt lat="47.04358" lon="-1.67184">
        <ele>5.74</ele>
        <time>2020-06-03T16:55:01Z</time>
      </trkpt>
      <trkpt lat="47.04353" lon="-1.67165">
        <ele>4.71</ele>
        <time>2020-06-03T16:55:03Z</time>
      </trkpt>
      <trkpt lat="47.04348" lon="-1.67146">
        <ele>3.88</ele>
        <time>2020-06-03T16:55:05Z</time>
      </trkpt>
      <trkpt lat="47.04343" lon="-1.67127">
        <ele>3.06</ele>
        <time>2020-06-03T16:55:07Z</time>
      </trkpt>
      <trkpt lat="47.04338" lon="-1.67107">
        <ele>3.02</ele>
        <time>2020-06-03T16:55:09Z</time>
      </trkpt>
      <trkpt lat="47.04332" lon="-1.67087">
        <ele>3.61</ele>
        <time>2020-06-03T16:55:11Z</time>
      </trkpt>
      <trkpt lat="47.04328" lon="-1.67067">
        <ele>4.02</ele>
        <time>2020-06-03T16:55:13Z</time>
      </trkpt>
      <trkpt lat="47.04323" lon="-1.67048">
        <ele>4.39</ele>
        <time>2020-06-03T16:55:15Z</time>
      </trkpt>
      <trkpt lat="47.04318" lon="-1.67028">
        <ele>4.48</ele>
        <time>2020-06-03T16:55:17Z</time>
      </trkpt>
      <trkpt lat="47.04312" lon="-1.67007">
        <ele>4.3</ele>
        <time>2020-06-03T16:55:19Z</time>
      </trkpt>
      <trkpt lat="47.04307" lon="-1.66987">
        <ele>3.25</ele>
        <time>2020-06-03T16:55:21Z</time>
      </trkpt>
      <trkpt lat="47.04302" lon="-1.66968">
        <ele>2.6</ele>
        <time>2020-06-03T16:55:23Z</time>
      </trkpt>
      <trkpt lat="47.04297" lon="-1.66947">
        <ele>2.73</ele>
        <time>2020-06-03T16:55:25Z</time>
      </trkpt>
      <trkpt lat="47.04291" lon="-1.66927">
        <ele>3.14</ele>
        <time>2020-06-03T16:55:27Z</time>
      </trkpt>
      <trkpt lat="47.04286" lon="-1.66906">
        <ele>4.1</ele>
        <time>2020-06-03T16:55:29Z</time>
      </trkpt>
      <trkpt lat="47.04281" lon="-1.66889">
        <ele>4.03</ele>
        <time>2020-06-03T16:55:31Z</time>
      </trkpt>
      <trkpt lat="47.04277" lon="-1.6687">
        <ele>2.73</ele>
        <time>2020-06-03T16:55:33Z</time>
      </trkpt>
      <trkpt lat="47.04271" lon="-1.6685">
        <ele>0.99</ele>
        <time>2020-06-03T16:55:35Z</time>
      </trkpt>
      <trkpt lat="47.04265" lon="-1.66829">
        <ele>-0.03</ele>
        <time>2020-06-03T16:55:37Z</time>
      </trkpt>
      <trkpt lat="47.04261" lon="-1.66809">
        <ele>0.06</ele>
        <time>2020-06-03T16:55:39Z</time>
      </trkpt>
      <trkpt lat="47.04256" lon="-1.66791">
        <ele>0.74</ele>
        <time>2020-06-03T16:55:41Z</time>
      </trkpt>
      <trkpt lat="47.04251" lon="-1.66769">
        <ele>0.93</ele>
        <time>2020-06-03T16:55:43Z</time>
      </trkpt>
      <trkpt lat="47.04245" lon="-1.66747">
        <ele>0.38</ele>
        <time>2020-06-03T16:55:45Z</time>
      </trkpt>
      <trkpt lat="47.04241" lon="-1.66728">
        <ele>-0.82</ele>
        <time>2020-06-03T16:55:47Z</time>
      </trkpt>
      <trkpt lat="47.04237" lon="-1.66709">
        <ele>-0.96</ele>
        <time>2020-06-03T16:55:49Z</time>
      </trkpt>
      <trkpt lat="47.04232" lon="-1.66692">
        <ele>-1.25</ele>
        <time>2020-06-03T16:55:51Z</time>
      </trkpt>
      <trkpt lat="47.04226" lon="-1.66672">
        <ele>-0.5</ele>
        <time>2020-06-03T16:55:53Z</time>
      </trkpt>
      <trkpt lat="47.04221" lon="-1.66652">
        <ele>0.69</ele>
        <time>2020-06-03T16:55:55Z</time>
      </trkpt>
      <trkpt lat="47.04216" lon="-1.66632">
        <ele>1.44</ele>
        <time>2020-06-03T16:55:57Z</time>
      </trkpt>
      <trkpt lat="47.0421" lon="-1.66611">
        <ele>2.02</ele>
        <time>2020-06-03T16:55:59Z</time>
      </trkpt>
      <trkpt lat="47.04205" lon="-1.66592">
        <ele>2.16</ele>
        <time>2020-06-03T16:56:01Z</time>
      </trkpt>
      <trkpt lat="47.042" lon="-1.66573">
        <ele>2.31</ele>
        <time>2020-06-03T16:56:03Z</time>
      </trkpt>
      <trkpt lat="47.04195" lon="-1.66553">
        <ele>1.82</ele>
        <time>2020-06-03T16:56:05Z</time>
      </trkpt>
      <trkpt lat="47.0419" lon="-1.66536">
        <ele>1.63</ele>
        <time>2020-06-03T16:56:07Z</time>
      </trkpt>
      <trkpt lat="47.04186" lon="-1.66518">
        <ele>1.8</ele>
        <time>2020-06-03T16:56:09Z</time>
      </trkpt>
      <trkpt lat="47.04182" lon="-1.66498">
        <ele>1.31</ele>
        <time>2020-06-03T16:56:11Z</time>
      </trkpt>
      <trkpt lat="47.04178" lon="-1.66477">
        <ele>0.52</ele>
        <time>2020-06-03T16:56:13Z</time>
      </trkpt>
      <trkpt lat="47.04173" lon="-1.66461">
        <ele>0.51</ele>
        <time>2020-06-03T16:56:15Z</time>
      </trkpt>
      <trkpt lat="47.04167" lon="-1.66444">
        <ele>-0.01</ele>
        <time>2020-06-03T16:56:17Z</time>
      </trkpt>
      <trkpt lat="47.04162" lon="-1.66424">
        <ele>-0.23</ele>
        <time>2020-06-03T16:56:19Z</time>
      </trkpt>
      <trkpt lat="47.04156" lon="-1.66405">
        <ele>1.3</ele>
        <time>2020-06-03T16:56:21Z</time>
      </trkpt>
      <trkpt lat="47.0415" lon="-1.66386">
        <ele>2.39</ele>
        <time>2020-06-03T16:56:23Z</time>
      </trkpt>
      <trkpt lat="47.04145" lon="-1.66366">
        <ele>2.79</ele>
        <time>2020-06-03T16:56:25Z</time>
      </trkpt>
      <trkpt lat="47.04141" lon="-1.66348">
        <ele>2.38</ele>
        <time>2020-06-03T16:56:27Z</time>
      </trkpt>
      <trkpt lat="47.04136" lon="-1.66329">
        <ele>1.17</ele>
        <time>2020-06-03T16:56:29Z</time>
      </trkpt>
      <trkpt lat="47.04132" lon="-1.6631">
        <ele>0.08</ele>
        <time>2020-06-03T16:56:31Z</time>
      </trkpt>
      <trkpt lat="47.04128" lon="-1.66293">
        <ele>0.74</ele>
        <time>2020-06-03T16:56:33Z</time>
      </trkpt>
      <trkpt lat="47.04123" lon="-1.66275">
        <ele>1.7</ele>
        <time>2020-06-03T16:56:35Z</time>
      </trkpt>
      <trkpt lat="47.04119" lon="-1.66256">
        <ele>2.54</ele>
        <time>2020-06-03T16:56:37Z</time>
      </trkpt>
      <trkpt lat="47.04114" lon="-1.66237">
        <ele>3.69</ele>
        <time>2020-06-03T16:56:39Z</time>
      </trkpt>
      <trkpt lat="47.04109" lon="-1.66218">
        <ele>3.25</ele>
        <time>2020-06-03T16:56:41Z</time>
      </trkpt>
      <trkpt lat="47.04104" lon="-1.66199">
        <ele>1.77</ele>
        <time>2020-06-03T16:56:43Z</time>
      </trkpt>
      <trkpt lat="47.04099" lon="-1.66182">
        <ele>0.72</ele>
        <time>2020-06-03T16:56:45Z</time>
      </trkpt>
      <trkpt lat="47.04095" lon="-1.66163">
        <ele>0.73</ele>
        <time>2020-06-03T16:56:47Z</time>
      </trkpt>
      <trkpt lat="47.0409" lon="-1.66145">
        <ele>0.87</ele>
        <time>2020-06-03T16:56:49Z</time>
      </trkpt>
      <trkpt lat="47.04086" lon="-1.66128">
        <ele>1.78</ele>
        <time>2020-06-03T16:56:51Z</time>
      </trkpt>
      <trkpt lat="47.04081" lon="-1.66112">
        <ele>3.02</ele>
        <time>2020-06-03T16:56:53Z</time>
      </trkpt>
      <trkpt lat="47.04077" lon="-1.66094">
        <ele>3.44</ele>
        <time>2020-06-03T16:56:55Z</time>
      </trkpt>
      <trkpt lat="47.04072" lon="-1.66074">
        <ele>4.94</ele>
        <time>2020-06-03T16:56:57Z</time>
      </trkpt>
      <trkpt lat="47.04067" lon="-1.66055">
        <ele>5.21</ele>
        <time>2020-06-03T16:56:59Z</time>
      </trkpt>
      <trkpt lat="47.04062" lon="-1.66037">
        <ele>4.84</ele>
        <time>2020-06-03T16:57:01Z</time>
      </trkpt>
      <trkpt lat="47.04057" lon="-1.66019">
        <ele>5.19</ele>
        <time>2020-06-03T16:57:03Z</time>
      </trkpt>
      <trkpt lat="47.04052" lon="-1.66">
        <ele>6.23</ele>
        <time>2020-06-03T16:57:05Z</time>
      </trkpt>
      <trkpt lat="47.04047" lon="-1.65982">
        <ele>6.99</ele>
        <time>2020-06-03T16:57:07Z</time>
      </trkpt>
      <trkpt lat="47.04042" lon="-1.65962">
        <ele>7.38</ele>
        <time>2020-06-03T16:57:09Z</time>
      </trkpt>
      <trkpt lat="47.04036" lon="-1.65942">
        <ele>7.12</ele>
        <time>2020-06-03T16:57:11Z</time>
      </trkpt>
      <trkpt lat="47.04031" lon="-1.65922">
        <ele>5.95</ele>
        <time>2020-06-03T16:57:13Z</time>
      </trkpt>
      <trkpt lat="47.04025" lon="-1.65904">
        <ele>5.98</ele>
        <time>2020-06-03T16:57:15Z</time>
      </trkpt>
      <trkpt lat="47.0402" lon="-1.65884">
        <ele>6.47</ele>
        <time>2020-06-03T16:57:17Z</time>
      </trkpt>
      <trkpt lat="47.04015" lon="-1.65864">
        <ele>6.2</ele>
        <time>2020-06-03T16:57:19Z</time>
      </trkpt>
      <trkpt lat="47.04009" lon="-1.65844">
        <ele>5.72</ele>
        <time>2020-06-03T16:57:21Z</time>
      </trkpt>
      <trkpt lat="47.04002" lon="-1.65822">
        <ele>4.56</ele>
        <time>2020-06-03T16:57:23Z</time>
      </trkpt>
      <trkpt lat="47.03996" lon="-1.65803">
        <ele>3.5</ele>
        <time>2020-06-03T16:57:25Z</time>
      </trkpt>
      <trkpt lat="47.03991" lon="-1.65785">
        <ele>3.56</ele>
        <time>2020-06-03T16:57:27Z</time>
      </trkpt>
      <trkpt lat="47.03985" lon="-1.65765">
        <ele>3.97</ele>
        <time>2020-06-03T16:57:29Z</time>
      </trkpt>
      <trkpt lat="47.03979" lon="-1.65745">
        <ele>4.56</ele>
        <time>2020-06-03T16:57:31Z</time>
      </trkpt>
      <trkpt lat="47.03974" lon="-1.65726">
        <ele>5.53</ele>
        <time>2020-06-03T16:57:33Z</time>
      </trkpt>
      <trkpt lat="47.03969" lon="-1.65707">
        <ele>4.99</ele>
        <time>2020-06-03T16:57:35Z</time>
      </trkpt>
      <trkpt lat="47.03964" lon="-1.65687">
        <ele>4.65</ele>
        <time>2020-06-03T16:57:37Z</time>
      </trkpt>
      <trkpt lat="47.03958" lon="-1.65667">
        <ele>4.91</ele>
        <time>2020-06-03T16:57:39Z</time>
      </trkpt>
      <trkpt lat="47.03952" lon="-1.65647">
        <ele>5.09</ele>
        <time>2020-06-03T16:57:41Z</time>
      </trkpt>
      <trkpt lat="47.03947" lon="-1.65628">
        <ele>4.66</ele>
        <time>2020-06-03T16:57:43Z</time>
      </trkpt>
      <trkpt lat="47.03942" lon="-1.65609">
        <ele>4.62</ele>
        <time>2020-06-03T16:57:45Z</time>
      </trkpt>
      <trkpt lat="47.03937" lon="-1.65589">
        <ele>4.81</ele>
        <time>2020-06-03T16:57:47Z</time>
      </trkpt>
      <trkpt lat="47.03931" lon="-1.65572">
        <ele>4.34</ele>
        <time>2020-06-03T16:57:49Z</time>
      </trkpt>
      <trkpt lat="47.03925" lon="-1.65552">
        <ele>4.2</ele>
        <time>2020-06-03T16:57:51Z</time>
      </trkpt>
      <trkpt lat="47.03921" lon="-1.65533">
        <ele>4.32</ele>
        <time>2020-06-03T16:57:53Z</time>
      </trkpt>
      <trkpt lat="47.03916" lon="-1.65515">
        <ele>5.35</ele>
        <time>2020-06-03T16:57:55Z</time>
      </trkpt>
      <trkpt lat="47.0391" lon="-1.65496">
        <ele>6.88</ele>
        <time>2020-06-03T16:57:57Z</time>
      </trkpt>
      <trkpt lat="47.03905" lon="-1.65477">
        <ele>7.57</ele>
        <time>2020-06-03T16:57:59Z</time>
      </trkpt>
      <trkpt lat="47.03899" lon="-1.65456">
        <ele>7.89</ele>
        <time>2020-06-03T16:58:01Z</time>
      </trkpt>
      <trkpt lat="47.03894" lon="-1.65436">
        <ele>7.57</ele>
        <time>2020-06-03T16:58:03Z</time>
      </trkpt>
      <trkpt lat="47.03888" lon="-1.65417">
        <ele>7.04</ele>
        <time>2020-06-03T16:58:05Z</time>
      </trkpt>
      <trkpt lat="47.03883" lon="-1.654">
        <ele>6.72</ele>
        <time>2020-06-03T16:58:07Z</time>
      </trkpt>
      <trkpt lat="47.03878" lon="-1.65381">
        <ele>5.92</ele>
        <time>2020-06-03T16:58:09Z</time>
      </trkpt>
      <trkpt lat="47.03873" lon="-1.65361">
        <ele>6.27</ele>
        <time>2020-06-03T16:58:11Z</time>
      </trkpt>
      <trkpt lat="47.03865" lon="-1.65347">
        <ele>5.78</ele>
        <time>2020-06-03T16:58:13Z</time>
      </trkpt>
      <trkpt lat="47.03856" lon="-1.65334">
        <ele>5.15</ele>
        <time>2020-06-03T16:58:15Z</time>
      </trkpt>
      <trkpt lat="47.03852" lon="-1.65316">
        <ele>5.4</ele>
        <time>2020-06-03T16:58:17Z</time>
      </trkpt>
      <trkpt lat="47.03856" lon="-1.65302">
        <ele>5.61</ele>
        <time>2020-06-03T16:58:19Z</time>
      </trkpt>
      <trkpt lat="47.03866" lon="-1.65286">
        <ele>6.35</ele>
        <time>2020-06-03T16:58:21Z</time>
      </trkpt>
      <trkpt lat="47.03874" lon="-1.65279">
        <ele>6.65</ele>
        <time>2020-06-03T16:58:22Z</time>
      </trkpt>
      <trkpt lat="47.03882" lon="-1.65273">
        <ele>6.92</ele>
        <time>2020-06-03T16:58:23Z</time>
      </trkpt>
      <trkpt lat="47.03897" lon="-1.65264">
        <ele>6.89</ele>
        <time>2020-06-03T16:58:25Z</time>
      </trkpt>
      <trkpt lat="47.0391" lon="-1.65256">
        <ele>6.41</ele>
        <time>2020-06-03T16:58:27Z</time>
      </trkpt>
      <trkpt lat="47.03924" lon="-1.65249">
        <ele>5.49</ele>
        <time>2020-06-03T16:58:29Z</time>
      </trkpt>
      <trkpt lat="47.03938" lon="-1.65241">
        <ele>4.23</ele>
        <time>2020-06-03T16:58:31Z</time>
      </trkpt>
      <trkpt lat="47.03952" lon="-1.65233">
        <ele>3.51</ele>
        <time>2020-06-03T16:58:33Z</time>
      </trkpt>
      <trkpt lat="47.03966" lon="-1.65225">
        <ele>2.95</ele>
        <time>2020-06-03T16:58:35Z</time>
      </trkpt>
      <trkpt lat="47.0398" lon="-1.65216">
        <ele>2.04</ele>
        <time>2020-06-03T16:58:37Z</time>
      </trkpt>
      <trkpt lat="47.03993" lon="-1.65207">
        <ele>2.18</ele>
        <time>2020-06-03T16:58:39Z</time>
      </trkpt>
      <trkpt lat="47.04007" lon="-1.65197">
        <ele>2.35</ele>
        <time>2020-06-03T16:58:41Z</time>
      </trkpt>
      <trkpt lat="47.0402" lon="-1.65188">
        <ele>1.36</ele>
        <time>2020-06-03T16:58:43Z</time>
      </trkpt>
      <trkpt lat="47.04034" lon="-1.65179">
        <ele>0.44</ele>
        <time>2020-06-03T16:58:45Z</time>
      </trkpt>
      <trkpt lat="47.04047" lon="-1.6517">
        <ele>0.6</ele>
        <time>2020-06-03T16:58:47Z</time>
      </trkpt>
      <trkpt lat="47.04059" lon="-1.65161">
        <ele>1.27</ele>
        <time>2020-06-03T16:58:49Z</time>
      </trkpt>
      <trkpt lat="47.04072" lon="-1.65152">
        <ele>0.8</ele>
        <time>2020-06-03T16:58:51Z</time>
      </trkpt>
      <trkpt lat="47.04086" lon="-1.65142">
        <ele>-0.52</ele>
        <time>2020-06-03T16:58:53Z</time>
      </trkpt>
      <trkpt lat="47.041" lon="-1.65134">
        <ele>-1.04</ele>
        <time>2020-06-03T16:58:55Z</time>
      </trkpt>
      <trkpt lat="47.04115" lon="-1.65124">
        <ele>-2.13</ele>
        <time>2020-06-03T16:58:57Z</time>
      </trkpt>
      <trkpt lat="47.04131" lon="-1.65114">
        <ele>-2.85</ele>
        <time>2020-06-03T16:58:59Z</time>
      </trkpt>
      <trkpt lat="47.04139" lon="-1.65108">
        <ele>-3.03</ele>
        <time>2020-06-03T16:59:00Z</time>
      </trkpt>
      <trkpt lat="47.04154" lon="-1.65099">
        <ele>-3.38</ele>
        <time>2020-06-03T16:59:02Z</time>
      </trkpt>
      <trkpt lat="47.04169" lon="-1.6509">
        <ele>-3.08</ele>
        <time>2020-06-03T16:59:04Z</time>
      </trkpt>
      <trkpt lat="47.04184" lon="-1.65079">
        <ele>-2.94</ele>
        <time>2020-06-03T16:59:06Z</time>
      </trkpt>
      <trkpt lat="47.04198" lon="-1.65068">
        <ele>-2.78</ele>
        <time>2020-06-03T16:59:08Z</time>
      </trkpt>
      <trkpt lat="47.04215" lon="-1.65057">
        <ele>-2.43</ele>
        <time>2020-06-03T16:59:10Z</time>
      </trkpt>
      <trkpt lat="47.0423" lon="-1.65046">
        <ele>-1.93</ele>
        <time>2020-06-03T16:59:12Z</time>
      </trkpt>
      <trkpt lat="47.04245" lon="-1.65036">
        <ele>-2.32</ele>
        <time>2020-06-03T16:59:14Z</time>
      </trkpt>
      <trkpt lat="47.04262" lon="-1.65024">
        <ele>-2.87</ele>
        <time>2020-06-03T16:59:16Z</time>
      </trkpt>
      <trkpt lat="47.04275" lon="-1.65015">
        <ele>-3.44</ele>
        <time>2020-06-03T16:59:18Z</time>
      </trkpt>
      <trkpt lat="47.0429" lon="-1.65005">
        <ele>-3.89</ele>
        <time>2020-06-03T16:59:20Z</time>
      </trkpt>
      <trkpt lat="47.04304" lon="-1.64994">
        <ele>-4.74</ele>
        <time>2020-06-03T16:59:22Z</time>
      </trkpt>
      <trkpt lat="47.04317" lon="-1.64984">
        <ele>-5.42</ele>
        <time>2020-06-03T16:59:24Z</time>
      </trkpt>
      <trkpt lat="47.04331" lon="-1.64973">
        <ele>-5.68</ele>
        <time>2020-06-03T16:59:26Z</time>
      </trkpt>
      <trkpt lat="47.04344" lon="-1.64961">
        <ele>-4.72</ele>
        <time>2020-06-03T16:59:28Z</time>
      </trkpt>
      <trkpt lat="47.04357" lon="-1.64949">
        <ele>-3.27</ele>
        <time>2020-06-03T16:59:30Z</time>
      </trkpt>
      <trkpt lat="47.0437" lon="-1.64938">
        <ele>-2.09</ele>
        <time>2020-06-03T16:59:32Z</time>
      </trkpt>
      <trkpt lat="47.04382" lon="-1.64927">
        <ele>-1.86</ele>
        <time>2020-06-03T16:59:34Z</time>
      </trkpt>
      <trkpt lat="47.04394" lon="-1.64917">
        <ele>-1.64</ele>
        <time>2020-06-03T16:59:36Z</time>
      </trkpt>
      <trkpt lat="47.04407" lon="-1.64906">
        <ele>-1.47</ele>
        <time>2020-06-03T16:59:38Z</time>
      </trkpt>
      <trkpt lat="47.04417" lon="-1.64899">
        <ele>-0.47</ele>
        <time>2020-06-03T16:59:40Z</time>
      </trkpt>
      <trkpt lat="47.04429" lon="-1.64899">
        <ele>-0.22</ele>
        <time>2020-06-03T16:59:42Z</time>
      </trkpt>
      <trkpt lat="47.04442" lon="-1.64903">
        <ele>-1.52</ele>
        <time>2020-06-03T16:59:44Z</time>
      </trkpt>
      <trkpt lat="47.04455" lon="-1.6491">
        <ele>-3.46</ele>
        <time>2020-06-03T16:59:46Z</time>
      </trkpt>
      <trkpt lat="47.04464" lon="-1.64915">
        <ele>-5.47</ele>
        <time>2020-06-03T16:59:48Z</time>
      </trkpt>
      <trkpt lat="47.04473" lon="-1.6491">
        <ele>-6.83</ele>
        <time>2020-06-03T16:59:51Z</time>
      </trkpt>
      <trkpt lat="47.04468" lon="-1.64895">
        <ele>-6.99</ele>
        <time>2020-06-03T16:59:54Z</time>
      </trkpt>
      <trkpt lat="47.04459" lon="-1.6488">
        <ele>-7.2</ele>
        <time>2020-06-03T16:59:57Z</time>
      </trkpt>
      <trkpt lat="47.04456" lon="-1.64866">
        <ele>-6.47</ele>
        <time>2020-06-03T17:00:00Z</time>
      </trkpt>
      <trkpt lat="47.04465" lon="-1.64856">
        <ele>-4.05</ele>
        <time>2020-06-03T17:00:03Z</time>
      </trkpt>
      <trkpt lat="47.04476" lon="-1.64842">
        <ele>-0.36</ele>
        <time>2020-06-03T17:00:06Z</time>
      </trkpt>
      <trkpt lat="47.04483" lon="-1.64833">
        <ele>1.19</ele>
        <time>2020-06-03T17:00:08Z</time>
      </trkpt>
      <trkpt lat="47.04493" lon="-1.64821">
        <ele>1.42</ele>
        <time>2020-06-03T17:00:10Z</time>
      </trkpt>
      <trkpt lat="47.04503" lon="-1.64808">
        <ele>1.64</ele>
        <time>2020-06-03T17:00:12Z</time>
      </trkpt>
      <trkpt lat="47.04509" lon="-1.64796">
        <ele>0.86</ele>
        <time>2020-06-03T17:00:14Z</time>
      </trkpt>
      <trkpt lat="47.04517" lon="-1.64781">
        <ele>0.2</ele>
        <time>2020-06-03T17:00:16Z</time>
      </trkpt>
      <trkpt lat="47.0452" lon="-1.64766">
        <ele>-0.68</ele>
        <time>2020-06-03T17:00:18Z</time>
      </trkpt>
      <trkpt lat="47.04526" lon="-1.64755">
        <ele>-0.19</ele>
        <time>2020-06-03T17:00:20Z</time>
      </trkpt>
      <trkpt lat="47.04533" lon="-1.64744">
        <ele>-0.54</ele>
        <time>2020-06-03T17:00:22Z</time>
      </trkpt>
      <trkpt lat="47.0454" lon="-1.64733">
        <ele>-1.69</ele>
        <time>2020-06-03T17:00:24Z</time>
      </trkpt>
      <trkpt lat="47.04547" lon="-1.64722">
        <ele>-2.35</ele>
        <time>2020-06-03T17:00:26Z</time>
      </trkpt>
      <trkpt lat="47.04555" lon="-1.64709">
        <ele>-1.91</ele>
        <time>2020-06-03T17:00:28Z</time>
      </trkpt>
      <trkpt lat="47.04564" lon="-1.64702">
        <ele>-1.94</ele>
        <time>2020-06-03T17:00:30Z</time>
      </trkpt>
      <trkpt lat="47.04573" lon="-1.64694">
        <ele>-3.42</ele>
        <time>2020-06-03T17:00:32Z</time>
      </trkpt>
      <trkpt lat="47.04579" lon="-1.64679">
        <ele>-3.21</ele>
        <time>2020-06-03T17:00:34Z</time>
      </trkpt>
      <trkpt lat="47.04588" lon="-1.64662">
        <ele>-2.29</ele>
        <time>2020-06-03T17:00:36Z</time>
      </trkpt>
      <trkpt lat="47.04596" lon="-1.64647">
        <ele>-2.06</ele>
        <time>2020-06-03T17:00:38Z</time>
      </trkpt>
      <trkpt lat="47.04604" lon="-1.64631">
        <ele>-2.25</ele>
        <time>2020-06-03T17:00:40Z</time>
      </trkpt>
      <trkpt lat="47.04612" lon="-1.64615">
        <ele>-4.14</ele>
        <time>2020-06-03T17:00:42Z</time>
      </trkpt>
      <trkpt lat="47.0462" lon="-1.64601">
        <ele>-4.51</ele>
        <time>2020-06-03T17:00:44Z</time>
      </trkpt>
      <trkpt lat="47.04627" lon="-1.64587">
        <ele>-4.96</ele>
        <time>2020-06-03T17:00:46Z</time>
      </trkpt>
      <trkpt lat="47.04634" lon="-1.64572">
        <ele>-4.77</ele>
        <time>2020-06-03T17:00:48Z</time>
      </trkpt>
      <trkpt lat="47.04642" lon="-1.64555">
        <ele>-4.7</ele>
        <time>2020-06-03T17:00:50Z</time>
      </trkpt>
      <trkpt lat="47.04649" lon="-1.64537">
        <ele>-4.8</ele>
        <time>2020-06-03T17:00:52Z</time>
      </trkpt>
      <trkpt lat="47.04657" lon="-1.6452">
        <ele>-3.96</ele>
        <time>2020-06-03T17:00:54Z</time>
      </trkpt>
      <trkpt lat="47.04664" lon="-1.64505">
        <ele>-3.83</ele>
        <time>2020-06-03T17:00:56Z</time>
      </trkpt>
      <trkpt lat="47.0467" lon="-1.6449">
        <ele>-4.76</ele>
        <time>2020-06-03T17:00:58Z</time>
      </trkpt>
      <trkpt lat="47.04675" lon="-1.64477">
        <ele>-4.22</ele>
        <time>2020-06-03T17:01:00Z</time>
      </trkpt>
      <trkpt lat="47.04682" lon="-1.64462">
        <ele>-2.48</ele>
        <time>2020-06-03T17:01:02Z</time>
      </trkpt>
      <trkpt lat="47.0469" lon="-1.64448">
        <ele>-1.9</ele>
        <time>2020-06-03T17:01:04Z</time>
      </trkpt>
      <trkpt lat="47.04697" lon="-1.64437">
        <ele>-2.39</ele>
        <time>2020-06-03T17:01:06Z</time>
      </trkpt>
      <trkpt lat="47.04706" lon="-1.64424">
        <ele>-2.5</ele>
        <time>2020-06-03T17:01:08Z</time>
      </trkpt>
      <trkpt lat="47.04714" lon="-1.6441">
        <ele>-3.3</ele>
        <time>2020-06-03T17:01:10Z</time>
      </trkpt>
      <trkpt lat="47.04721" lon="-1.64397">
        <ele>-4.12</ele>
        <time>2020-06-03T17:01:12Z</time>
      </trkpt>
      <trkpt lat="47.04728" lon="-1.64383">
        <ele>-4.5</ele>
        <time>2020-06-03T17:01:14Z</time>
      </trkpt>
      <trkpt lat="47.04733" lon="-1.64366">
        <ele>-4.71</ele>
        <time>2020-06-03T17:01:16Z</time>
      </trkpt>
      <trkpt lat="47.0473" lon="-1.64347">
        <ele>-5.01</ele>
        <time>2020-06-03T17:01:18Z</time>
      </trkpt>
      <trkpt lat="47.04727" lon="-1.64333">
        <ele>-3.92</ele>
        <time>2020-06-03T17:01:20Z</time>
      </trkpt>
      <trkpt lat="47.0473" lon="-1.64316">
        <ele>-1.86</ele>
        <time>2020-06-03T17:01:22Z</time>
      </trkpt>
      <trkpt lat="47.04733" lon="-1.64297">
        <ele>0.62</ele>
        <time>2020-06-03T17:01:24Z</time>
      </trkpt>
      <trkpt lat="47.04737" lon="-1.64279">
        <ele>2.21</ele>
        <time>2020-06-03T17:01:26Z</time>
      </trkpt>
      <trkpt lat="47.0474" lon="-1.64262">
        <ele>3.25</ele>
        <time>2020-06-03T17:01:28Z</time>
      </trkpt>
      <trkpt lat="47.04745" lon="-1.64244">
        <ele>3.6</ele>
        <time>2020-06-03T17:01:30Z</time>
      </trkpt>
      <trkpt lat="47.04749" lon="-1.64226">
        <ele>2.75</ele>
        <time>2020-06-03T17:01:32Z</time>
      </trkpt>
      <trkpt lat="47.04754" lon="-1.64211">
        <ele>2.2</ele>
        <time>2020-06-03T17:01:34Z</time>
      </trkpt>
      <trkpt lat="47.04758" lon="-1.64193">
        <ele>1.49</ele>
        <time>2020-06-03T17:01:36Z</time>
      </trkpt>
      <trkpt lat="47.04762" lon="-1.64175">
        <ele>0.16</ele>
        <time>2020-06-03T17:01:38Z</time>
      </trkpt>
      <trkpt lat="47.04767" lon="-1.64157">
        <ele>-0.59</ele>
        <time>2020-06-03T17:01:40Z</time>
      </trkpt>
      <trkpt lat="47.04771" lon="-1.6414">
        <ele>-1.14</ele>
        <time>2020-06-03T17:01:42Z</time>
      </trkpt>
      <trkpt lat="47.04776" lon="-1.6412">
        <ele>-2.77</ele>
        <time>2020-06-03T17:01:44Z</time>
      </trkpt>
      <trkpt lat="47.04781" lon="-1.64102">
        <ele>-3.96</ele>
        <time>2020-06-03T17:01:46Z</time>
      </trkpt>
      <trkpt lat="47.04787" lon="-1.64084">
        <ele>-4.81</ele>
        <time>2020-06-03T17:01:48Z</time>
      </trkpt>
      <trkpt lat="47.04791" lon="-1.64068">
        <ele>-5.19</ele>
        <time>2020-06-03T17:01:50Z</time>
      </trkpt>
      <trkpt lat="47.04795" lon="-1.64052">
        <ele>-4.35</ele>
        <time>2020-06-03T17:01:52Z</time>
      </trkpt>
      <trkpt lat="47.048" lon="-1.64032">
        <ele>-4.08</ele>
        <time>2020-06-03T17:01:54Z</time>
      </trkpt>
      <trkpt lat="47.04805" lon="-1.64014">
        <ele>-5.37</ele>
        <time>2020-06-03T17:01:56Z</time>
      </trkpt>
      <trkpt lat="47.0481" lon="-1.63996">
        <ele>-7.22</ele>
        <time>2020-06-03T17:01:58Z</time>
      </trkpt>
      <trkpt lat="47.04818" lon="-1.63982">
        <ele>-7.98</ele>
        <time>2020-06-03T17:02:00Z</time>
      </trkpt>
      <trkpt lat="47.04826" lon="-1.63968">
        <ele>-7.64</ele>
        <time>2020-06-03T17:02:03Z</time>
      </trkpt>
      <trkpt lat="47.04835" lon="-1.63958">
        <ele>-6.82</ele>
        <time>2020-06-03T17:02:05Z</time>
      </trkpt>
      <trkpt lat="47.04846" lon="-1.63947">
        <ele>-5.77</ele>
        <time>2020-06-03T17:02:07Z</time>
      </trkpt>
      <trkpt lat="47.04858" lon="-1.63935">
        <ele>-5.65</ele>
        <time>2020-06-03T17:02:09Z</time>
      </trkpt>
      <trkpt lat="47.04871" lon="-1.63924">
        <ele>-5.15</ele>
        <time>2020-06-03T17:02:11Z</time>
      </trkpt>
      <trkpt lat="47.04884" lon="-1.63913">
        <ele>-4.89</ele>
        <time>2020-06-03T17:02:13Z</time>
      </trkpt>
      <trkpt lat="47.04896" lon="-1.63904">
        <ele>-4.4</ele>
        <time>2020-06-03T17:02:15Z</time>
      </trkpt>
      <trkpt lat="47.04908" lon="-1.63895">
        <ele>-3.46</ele>
        <time>2020-06-03T17:02:17Z</time>
      </trkpt>
      <trkpt lat="47.0492" lon="-1.63887">
        <ele>-3.55</ele>
        <time>2020-06-03T17:02:19Z</time>
      </trkpt>
      <trkpt lat="47.04931" lon="-1.63878">
        <ele>-3.12</ele>
        <time>2020-06-03T17:02:21Z</time>
      </trkpt>
      <trkpt lat="47.04943" lon="-1.63868">
        <ele>-1.09</ele>
        <time>2020-06-03T17:02:23Z</time>
      </trkpt>
      <trkpt lat="47.04954" lon="-1.63859">
        <ele>0.2</ele>
        <time>2020-06-03T17:02:25Z</time>
      </trkpt>
      <trkpt lat="47.04964" lon="-1.63849">
        <ele>0.51</ele>
        <time>2020-06-03T17:02:27Z</time>
      </trkpt>
      <trkpt lat="47.04975" lon="-1.63837">
        <ele>1.67</ele>
        <time>2020-06-03T17:02:29Z</time>
      </trkpt>
      <trkpt lat="47.04985" lon="-1.63826">
        <ele>2.7</ele>
        <time>2020-06-03T17:02:31Z</time>
      </trkpt>
      <trkpt lat="47.04995" lon="-1.63814">
        <ele>3.56</ele>
        <time>2020-06-03T17:02:33Z</time>
      </trkpt>
      <trkpt lat="47.05003" lon="-1.63802">
        <ele>4.3</ele>
        <time>2020-06-03T17:02:35Z</time>
      </trkpt>
      <trkpt lat="47.05004" lon="-1.63784">
        <ele>4.1</ele>
        <time>2020-06-03T17:02:37Z</time>
      </trkpt>
      <trkpt lat="47.05003" lon="-1.63767">
        <ele>4.25</ele>
        <time>2020-06-03T17:02:39Z</time>
      </trkpt>
      <trkpt lat="47.05009" lon="-1.63754">
        <ele>4.41</ele>
        <time>2020-06-03T17:02:41Z</time>
      </trkpt>
      <trkpt lat="47.05008" lon="-1.63733">
        <ele>3.81</ele>
        <time>2020-06-03T17:02:43Z</time>
      </trkpt>
      <trkpt lat="47.05005" lon="-1.63715">
        <ele>3.1</ele>
        <time>2020-06-03T17:02:45Z</time>
      </trkpt>
      <trkpt lat="47.04999" lon="-1.63694">
        <ele>3.56</ele>
        <time>2020-06-03T17:02:47Z</time>
      </trkpt>
      <trkpt lat="47.04994" lon="-1.63674">
        <ele>2.98</ele>
        <time>2020-06-03T17:02:49Z</time>
      </trkpt>
      <trkpt lat="47.04989" lon="-1.63654">
        <ele>2.99</ele>
        <time>2020-06-03T17:02:51Z</time>
      </trkpt>
      <trkpt lat="47.04984" lon="-1.63637">
        <ele>3.34</ele>
        <time>2020-06-03T17:02:53Z</time>
      </trkpt>
      <trkpt lat="47.04981" lon="-1.63622">
        <ele>3.6</ele>
        <time>2020-06-03T17:02:55Z</time>
      </trkpt>
      <trkpt lat="47.04977" lon="-1.63605">
        <ele>3.8</ele>
        <time>2020-06-03T17:02:57Z</time>
      </trkpt>
      <trkpt lat="47.04979" lon="-1.63591">
        <ele>3.24</ele>
        <time>2020-06-03T17:02:59Z</time>
      </trkpt>
      <trkpt lat="47.0499" lon="-1.63582">
        <ele>3.07</ele>
        <time>2020-06-03T17:03:01Z</time>
      </trkpt>
      <trkpt lat="47.05001" lon="-1.63573">
        <ele>3.49</ele>
        <time>2020-06-03T17:03:03Z</time>
      </trkpt>
      <trkpt lat="47.05012" lon="-1.63564">
        <ele>4.03</ele>
        <time>2020-06-03T17:03:05Z</time>
      </trkpt>
      <trkpt lat="47.05023" lon="-1.63556">
        <ele>4.96</ele>
        <time>2020-06-03T17:03:07Z</time>
      </trkpt>
      <trkpt lat="47.05035" lon="-1.6355">
        <ele>5.95</ele>
        <time>2020-06-03T17:03:09Z</time>
      </trkpt>
      <trkpt lat="47.05045" lon="-1.63547">
        <ele>6.16</ele>
        <time>2020-06-03T17:03:11Z</time>
      </trkpt>
      <trkpt lat="47.05056" lon="-1.63544">
        <ele>5.31</ele>
        <time>2020-06-03T17:03:13Z</time>
      </trkpt>
      <trkpt lat="47.05067" lon="-1.63538">
        <ele>4.26</ele>
        <time>2020-06-03T17:03:15Z</time>
      </trkpt>
      <trkpt lat="47.05077" lon="-1.63527">
        <ele>1.82</ele>
        <time>2020-06-03T17:03:17Z</time>
      </trkpt>
      <trkpt lat="47.05091" lon="-1.63522">
        <ele>0.94</ele>
        <time>2020-06-03T17:03:19Z</time>
      </trkpt>
      <trkpt lat="47.05105" lon="-1.63516">
        <ele>0.36</ele>
        <time>2020-06-03T17:03:21Z</time>
      </trkpt>
      <trkpt lat="47.05119" lon="-1.63511">
        <ele>-0.32</ele>
        <time>2020-06-03T17:03:23Z</time>
      </trkpt>
      <trkpt lat="47.05133" lon="-1.63506">
        <ele>-0.46</ele>
        <time>2020-06-03T17:03:25Z</time>
      </trkpt>
      <trkpt lat="47.05146" lon="-1.63501">
        <ele>-0.03</ele>
        <time>2020-06-03T17:03:27Z</time>
      </trkpt>
      <trkpt lat="47.05158" lon="-1.63496">
        <ele>0.63</ele>
        <time>2020-06-03T17:03:29Z</time>
      </trkpt>
      <trkpt lat="47.0517" lon="-1.63491">
        <ele>0.59</ele>
        <time>2020-06-03T17:03:31Z</time>
      </trkpt>
      <trkpt lat="47.05184" lon="-1.63487">
        <ele>0.16</ele>
        <time>2020-06-03T17:03:33Z</time>
      </trkpt>
      <trkpt lat="47.05197" lon="-1.63482">
        <ele>0.36</ele>
        <time>2020-06-03T17:03:35Z</time>
      </trkpt>
      <trkpt lat="47.05211" lon="-1.63477">
        <ele>1.21</ele>
        <time>2020-06-03T17:03:37Z</time>
      </trkpt>
      <trkpt lat="47.05223" lon="-1.63472">
        <ele>2.14</ele>
        <time>2020-06-03T17:03:39Z</time>
      </trkpt>
      <trkpt lat="47.05236" lon="-1.63468">
        <ele>1.34</ele>
        <time>2020-06-03T17:03:41Z</time>
      </trkpt>
      <trkpt lat="47.05248" lon="-1.63464">
        <ele>0.09</ele>
        <time>2020-06-03T17:03:43Z</time>
      </trkpt>
      <trkpt lat="47.05262" lon="-1.6346">
        <ele>-1.5</ele>
        <time>2020-06-03T17:03:45Z</time>
      </trkpt>
      <trkpt lat="47.05276" lon="-1.63457">
        <ele>-2.94</ele>
        <time>2020-06-03T17:03:47Z</time>
      </trkpt>
      <trkpt lat="47.05289" lon="-1.63454">
        <ele>-3.67</ele>
        <time>2020-06-03T17:03:49Z</time>
      </trkpt>
      <trkpt lat="47.05303" lon="-1.63452">
        <ele>-4.16</ele>
        <time>2020-06-03T17:03:51Z</time>
      </trkpt>
      <trkpt lat="47.05314" lon="-1.6345">
        <ele>-3.83</ele>
        <time>2020-06-03T17:03:53Z</time>
      </trkpt>
      <trkpt lat="47.05328" lon="-1.63449">
        <ele>-3.84</ele>
        <time>2020-06-03T17:03:55Z</time>
      </trkpt>
      <trkpt lat="47.05341" lon="-1.63448">
        <ele>-2.84</ele>
        <time>2020-06-03T17:03:57Z</time>
      </trkpt>
      <trkpt lat="47.05353" lon="-1.63447">
        <ele>-1.42</ele>
        <time>2020-06-03T17:03:59Z</time>
      </trkpt>
      <trkpt lat="47.05363" lon="-1.63439">
        <ele>-0.36</ele>
        <time>2020-06-03T17:04:01Z</time>
      </trkpt>
      <trkpt lat="47.05374" lon="-1.63433">
        <ele>0.29</ele>
        <time>2020-06-03T17:04:03Z</time>
      </trkpt>
      <trkpt lat="47.05388" lon="-1.63433">
        <ele>0.98</ele>
        <time>2020-06-03T17:04:05Z</time>
      </trkpt>
      <trkpt lat="47.054" lon="-1.63436">
        <ele>1.11</ele>
        <time>2020-06-03T17:04:07Z</time>
      </trkpt>
      <trkpt lat="47.05414" lon="-1.63436">
        <ele>1.64</ele>
        <time>2020-06-03T17:04:09Z</time>
      </trkpt>
      <trkpt lat="47.05428" lon="-1.63434">
        <ele>2.15</ele>
        <time>2020-06-03T17:04:11Z</time>
      </trkpt>
      <trkpt lat="47.05443" lon="-1.63431">
        <ele>0.89</ele>
        <time>2020-06-03T17:04:13Z</time>
      </trkpt>
      <trkpt lat="47.05456" lon="-1.63429">
        <ele>-0.19</ele>
        <time>2020-06-03T17:04:15Z</time>
      </trkpt>
      <trkpt lat="47.05469" lon="-1.63426">
        <ele>-0.84</ele>
        <time>2020-06-03T17:04:17Z</time>
      </trkpt>
      <trkpt lat="47.05483" lon="-1.63424">
        <ele>-1.45</ele>
        <time>2020-06-03T17:04:19Z</time>
      </trkpt>
      <trkpt lat="47.05496" lon="-1.63422">
        <ele>-1.17</ele>
        <time>2020-06-03T17:04:21Z</time>
      </trkpt>
      <trkpt lat="47.05508" lon="-1.6342">
        <ele>-1.32</ele>
        <time>2020-06-03T17:04:23Z</time>
      </trkpt>
      <trkpt lat="47.05522" lon="-1.63418">
        <ele>-2.29</ele>
        <time>2020-06-03T17:04:25Z</time>
      </trkpt>
      <trkpt lat="47.05536" lon="-1.63415">
        <ele>-1.37</ele>
        <time>2020-06-03T17:04:27Z</time>
      </trkpt>
      <trkpt lat="47.0555" lon="-1.6341">
        <ele>-0.48</ele>
        <time>2020-06-03T17:04:29Z</time>
      </trkpt>
      <trkpt lat="47.05564" lon="-1.63405">
        <ele>-0.41</ele>
        <time>2020-06-03T17:04:31Z</time>
      </trkpt>
      <trkpt lat="47.05577" lon="-1.634">
        <ele>-0.93</ele>
        <time>2020-06-03T17:04:33Z</time>
      </trkpt>
      <trkpt lat="47.05589" lon="-1.63395">
        <ele>-1.21</ele>
        <time>2020-06-03T17:04:35Z</time>
      </trkpt>
      <trkpt lat="47.05602" lon="-1.63389">
        <ele>-0.48</ele>
        <time>2020-06-03T17:04:37Z</time>
      </trkpt>
      <trkpt lat="47.05615" lon="-1.63383">
        <ele>0.23</ele>
        <time>2020-06-03T17:04:39Z</time>
      </trkpt>
      <trkpt lat="47.05628" lon="-1.63377">
        <ele>0.79</ele>
        <time>2020-06-03T17:04:41Z</time>
      </trkpt>
      <trkpt lat="47.05641" lon="-1.63371">
        <ele>0.52</ele>
        <time>2020-06-03T17:04:43Z</time>
      </trkpt>
      <trkpt lat="47.05653" lon="-1.63366">
        <ele>0.48</ele>
        <time>2020-06-03T17:04:45Z</time>
      </trkpt>
      <trkpt lat="47.05668" lon="-1.63359">
        <ele>-0.96</ele>
        <time>2020-06-03T17:04:47Z</time>
      </trkpt>
      <trkpt lat="47.0568" lon="-1.63353">
        <ele>-2.18</ele>
        <time>2020-06-03T17:04:49Z</time>
      </trkpt>
      <trkpt lat="47.05694" lon="-1.63346">
        <ele>-2.83</ele>
        <time>2020-06-03T17:04:51Z</time>
      </trkpt>
      <trkpt lat="47.05707" lon="-1.63339">
        <ele>-2.29</ele>
        <time>2020-06-03T17:04:53Z</time>
      </trkpt>
      <trkpt lat="47.05721" lon="-1.63332">
        <ele>-1.03</ele>
        <time>2020-06-03T17:04:55Z</time>
      </trkpt>
      <trkpt lat="47.05733" lon="-1.63325">
        <ele>-0.52</ele>
        <time>2020-06-03T17:04:57Z</time>
      </trkpt>
      <trkpt lat="47.05745" lon="-1.6332">
        <ele>-1.27</ele>
        <time>2020-06-03T17:04:59Z</time>
      </trkpt>
      <trkpt lat="47.05758" lon="-1.63314">
        <ele>-1.76</ele>
        <time>2020-06-03T17:05:01Z</time>
      </trkpt>
      <trkpt lat="47.05771" lon="-1.63307">
        <ele>-1.71</ele>
        <time>2020-06-03T17:05:03Z</time>
      </trkpt>
      <trkpt lat="47.05783" lon="-1.63302">
        <ele>-1.49</ele>
        <time>2020-06-03T17:05:05Z</time>
      </trkpt>
      <trkpt lat="47.05796" lon="-1.63297">
        <ele>-2.2</ele>
        <time>2020-06-03T17:05:07Z</time>
      </trkpt>
      <trkpt lat="47.05809" lon="-1.63291">
        <ele>-2.18</ele>
        <time>2020-06-03T17:05:09Z</time>
      </trkpt>
      <trkpt lat="47.05822" lon="-1.63285">
        <ele>-1.56</ele>
        <time>2020-06-03T17:05:11Z</time>
      </trkpt>
      <trkpt lat="47.05834" lon="-1.63279">
        <ele>-1.27</ele>
        <time>2020-06-03T17:05:13Z</time>
      </trkpt>
      <trkpt lat="47.05849" lon="-1.63273">
        <ele>-1.66</ele>
        <time>2020-06-03T17:05:15Z</time>
      </trkpt>
      <trkpt lat="47.05862" lon="-1.63267">
        <ele>-1.39</ele>
        <time>2020-06-03T17:05:17Z</time>
      </trkpt>
      <trkpt lat="47.05875" lon="-1.63262">
        <ele>-1.4</ele>
        <time>2020-06-03T17:05:19Z</time>
      </trkpt>
      <trkpt lat="47.05888" lon="-1.63255">
        <ele>-1.88</ele>
        <time>2020-06-03T17:05:21Z</time>
      </trkpt>
      <trkpt lat="47.05901" lon="-1.63248">
        <ele>-1.32</ele>
        <time>2020-06-03T17:05:23Z</time>
      </trkpt>
      <trkpt lat="47.05916" lon="-1.63241">
        <ele>-1.26</ele>
        <time>2020-06-03T17:05:25Z</time>
      </trkpt>
      <trkpt lat="47.05929" lon="-1.63235">
        <ele>-0.1</ele>
        <time>2020-06-03T17:05:27Z</time>
      </trkpt>
      <trkpt lat="47.05942" lon="-1.63229">
        <ele>1.34</ele>
        <time>2020-06-03T17:05:29Z</time>
      </trkpt>
      <trkpt lat="47.05956" lon="-1.63223">
        <ele>2.07</ele>
        <time>2020-06-03T17:05:31Z</time>
      </trkpt>
      <trkpt lat="47.0597" lon="-1.63216">
        <ele>1.6</ele>
        <time>2020-06-03T17:05:33Z</time>
      </trkpt>
      <trkpt lat="47.05983" lon="-1.63209">
        <ele>0.06</ele>
        <time>2020-06-03T17:05:35Z</time>
      </trkpt>
      <trkpt lat="47.05996" lon="-1.63203">
        <ele>-0.99</ele>
        <time>2020-06-03T17:05:37Z</time>
      </trkpt>
      <trkpt lat="47.06008" lon="-1.63197">
        <ele>-0.93</ele>
        <time>2020-06-03T17:05:39Z</time>
      </trkpt>
      <trkpt lat="47.06021" lon="-1.63192">
        <ele>0.47</ele>
        <time>2020-06-03T17:05:41Z</time>
      </trkpt>
      <trkpt lat="47.06033" lon="-1.63186">
        <ele>0.99</ele>
        <time>2020-06-03T17:05:43Z</time>
      </trkpt>
      <trkpt lat="47.06045" lon="-1.63181">
        <ele>0.85</ele>
        <time>2020-06-03T17:05:45Z</time>
      </trkpt>
      <trkpt lat="47.06056" lon="-1.63183">
        <ele>0.59</ele>
        <time>2020-06-03T17:05:47Z</time>
      </trkpt>
      <trkpt lat="47.06059" lon="-1.63198">
        <ele>0.06</ele>
        <time>2020-06-03T17:05:49Z</time>
      </trkpt>
      <trkpt lat="47.06058" lon="-1.63219">
        <ele>-0.33</ele>
        <time>2020-06-03T17:05:51Z</time>
      </trkpt>
      <trkpt lat="47.06054" lon="-1.63239">
        <ele>-1.31</ele>
        <time>2020-06-03T17:05:53Z</time>
      </trkpt>
      <trkpt lat="47.0605" lon="-1.63261">
        <ele>-1.83</ele>
        <time>2020-06-03T17:05:55Z</time>
      </trkpt>
      <trkpt lat="47.06046" lon="-1.63281">
        <ele>-2.18</ele>
        <time>2020-06-03T17:05:57Z</time>
      </trkpt>
      <trkpt lat="47.06043" lon="-1.63298">
        <ele>-2.07</ele>
        <time>2020-06-03T17:05:59Z</time>
      </trkpt>
      <trkpt lat="47.0604" lon="-1.63317">
        <ele>-1.81</ele>
        <time>2020-06-03T17:06:01Z</time>
      </trkpt>
      <trkpt lat="47.06047" lon="-1.6333">
        <ele>-2.78</ele>
        <time>2020-06-03T17:06:03Z</time>
      </trkpt>
      <trkpt lat="47.0606" lon="-1.63338">
        <ele>-2.14</ele>
        <time>2020-06-03T17:06:05Z</time>
      </trkpt>
      <trkpt lat="47.06072" lon="-1.63342">
        <ele>-1.02</ele>
        <time>2020-06-03T17:06:07Z</time>
      </trkpt>
      <trkpt lat="47.06083" lon="-1.63346">
        <ele>-0.49</ele>
        <time>2020-06-03T17:06:09Z</time>
      </trkpt>
      <trkpt lat="47.06096" lon="-1.6335">
        <ele>-1</ele>
        <time>2020-06-03T17:06:11Z</time>
      </trkpt>
      <trkpt lat="47.06109" lon="-1.63354">
        <ele>-1.89</ele>
        <time>2020-06-03T17:06:13Z</time>
      </trkpt>
      <trkpt lat="47.06121" lon="-1.63358">
        <ele>-2.13</ele>
        <time>2020-06-03T17:06:15Z</time>
      </trkpt>
      <trkpt lat="47.06133" lon="-1.63362">
        <ele>-2.75</ele>
        <time>2020-06-03T17:06:17Z</time>
      </trkpt>
      <trkpt lat="47.06145" lon="-1.63366">
        <ele>-3.32</ele>
        <time>2020-06-03T17:06:19Z</time>
      </trkpt>
      <trkpt lat="47.06158" lon="-1.63371">
        <ele>-2.7</ele>
        <time>2020-06-03T17:06:21Z</time>
      </trkpt>
      <trkpt lat="47.0617" lon="-1.63375">
        <ele>-1.53</ele>
        <time>2020-06-03T17:06:23Z</time>
      </trkpt>
      <trkpt lat="47.06182" lon="-1.63379">
        <ele>-0.12</ele>
        <time>2020-06-03T17:06:25Z</time>
      </trkpt>
      <trkpt lat="47.06196" lon="-1.63385">
        <ele>0.5</ele>
        <time>2020-06-03T17:06:27Z</time>
      </trkpt>
      <trkpt lat="47.06208" lon="-1.6339">
        <ele>0.62</ele>
        <time>2020-06-03T17:06:29Z</time>
      </trkpt>
      <trkpt lat="47.0622" lon="-1.63394">
        <ele>-0.1</ele>
        <time>2020-06-03T17:06:31Z</time>
      </trkpt>
      <trkpt lat="47.06232" lon="-1.63399">
        <ele>-0.97</ele>
        <time>2020-06-03T17:06:33Z</time>
      </trkpt>
      <trkpt lat="47.06244" lon="-1.63404">
        <ele>-2.04</ele>
        <time>2020-06-03T17:06:35Z</time>
      </trkpt>
      <trkpt lat="47.06256" lon="-1.63408">
        <ele>-2.71</ele>
        <time>2020-06-03T17:06:37Z</time>
      </trkpt>
      <trkpt lat="47.06268" lon="-1.63413">
        <ele>-3.64</ele>
        <time>2020-06-03T17:06:39Z</time>
      </trkpt>
      <trkpt lat="47.0628" lon="-1.63418">
        <ele>-4.11</ele>
        <time>2020-06-03T17:06:41Z</time>
      </trkpt>
      <trkpt lat="47.06293" lon="-1.63422">
        <ele>-4.58</ele>
        <time>2020-06-03T17:06:43Z</time>
      </trkpt>
      <trkpt lat="47.06306" lon="-1.63427">
        <ele>-5.31</ele>
        <time>2020-06-03T17:06:45Z</time>
      </trkpt>
      <trkpt lat="47.06317" lon="-1.63433">
        <ele>-6.42</ele>
        <time>2020-06-03T17:06:47Z</time>
      </trkpt>
      <trkpt lat="47.0633" lon="-1.63441">
        <ele>-6.44</ele>
        <time>2020-06-03T17:06:49Z</time>
      </trkpt>
      <trkpt lat="47.06341" lon="-1.63452">
        <ele>-5.88</ele>
        <time>2020-06-03T17:06:51Z</time>
      </trkpt>
      <trkpt lat="47.06353" lon="-1.63466">
        <ele>-4.47</ele>
        <time>2020-06-03T17:06:53Z</time>
      </trkpt>
      <trkpt lat="47.06363" lon="-1.63479">
        <ele>-4.6</ele>
        <time>2020-06-03T17:06:55Z</time>
      </trkpt>
      <trkpt lat="47.06371" lon="-1.63492">
        <ele>-3.86</ele>
        <time>2020-06-03T17:06:57Z</time>
      </trkpt>
      <trkpt lat="47.06378" lon="-1.63511">
        <ele>-3.16</ele>
        <time>2020-06-03T17:06:59Z</time>
      </trkpt>
      <trkpt lat="47.06384" lon="-1.63527">
        <ele>-1.72</ele>
        <time>2020-06-03T17:07:01Z</time>
      </trkpt>
      <trkpt lat="47.06394" lon="-1.6354">
        <ele>-0.52</ele>
        <time>2020-06-03T17:07:03Z</time>
      </trkpt>
      <trkpt lat="47.06405" lon="-1.6355">
        <ele>-0.2</ele>
        <time>2020-06-03T17:07:05Z</time>
      </trkpt>
      <trkpt lat="47.06417" lon="-1.63558">
        <ele>-1.92</ele>
        <time>2020-06-03T17:07:07Z</time>
      </trkpt>
      <trkpt lat="47.06428" lon="-1.63567">
        <ele>-2.9</ele>
        <time>2020-06-03T17:07:09Z</time>
      </trkpt>
      <trkpt lat="47.06441" lon="-1.63577">
        <ele>-3.09</ele>
        <time>2020-06-03T17:07:11Z</time>
      </trkpt>
      <trkpt lat="47.06452" lon="-1.63586">
        <ele>-3.6</ele>
        <time>2020-06-03T17:07:13Z</time>
      </trkpt>
      <trkpt lat="47.06463" lon="-1.63594">
        <ele>-3.31</ele>
        <time>2020-06-03T17:07:15Z</time>
      </trkpt>
      <trkpt lat="47.06473" lon="-1.63604">
        <ele>-2.91</ele>
        <time>2020-06-03T17:07:17Z</time>
      </trkpt>
      <trkpt lat="47.06484" lon="-1.63614">
        <ele>-2.28</ele>
        <time>2020-06-03T17:07:19Z</time>
      </trkpt>
      <trkpt lat="47.06495" lon="-1.63623">
        <ele>-2.6</ele>
        <time>2020-06-03T17:07:21Z</time>
      </trkpt>
      <trkpt lat="47.06507" lon="-1.63631">
        <ele>-3.43</ele>
        <time>2020-06-03T17:07:23Z</time>
      </trkpt>
      <trkpt lat="47.06518" lon="-1.6364">
        <ele>-4.18</ele>
        <time>2020-06-03T17:07:25Z</time>
      </trkpt>
      <trkpt lat="47.06528" lon="-1.63646">
        <ele>-4.91</ele>
        <time>2020-06-03T17:07:27Z</time>
      </trkpt>
      <trkpt lat="47.06541" lon="-1.63655">
        <ele>-5.26</ele>
        <time>2020-06-03T17:07:29Z</time>
      </trkpt>
      <trkpt lat="47.06551" lon="-1.63662">
        <ele>-5.69</ele>
        <time>2020-06-03T17:07:31Z</time>
      </trkpt>
      <trkpt lat="47.06562" lon="-1.6367">
        <ele>-6.05</ele>
        <time>2020-06-03T17:07:33Z</time>
      </trkpt>
      <trkpt lat="47.06573" lon="-1.63678">
        <ele>-6.4</ele>
        <time>2020-06-03T17:07:35Z</time>
      </trkpt>
      <trkpt lat="47.06584" lon="-1.63688">
        <ele>-6.51</ele>
        <time>2020-06-03T17:07:37Z</time>
      </trkpt>
      <trkpt lat="47.06595" lon="-1.63699">
        <ele>-6.13</ele>
        <time>2020-06-03T17:07:39Z</time>
      </trkpt>
      <trkpt lat="47.06606" lon="-1.63709">
        <ele>-6.54</ele>
        <time>2020-06-03T17:07:41Z</time>
      </trkpt>
      <trkpt lat="47.06615" lon="-1.63721">
        <ele>-5.62</ele>
        <time>2020-06-03T17:07:43Z</time>
      </trkpt>
      <trkpt lat="47.06625" lon="-1.63734">
        <ele>-4.87</ele>
        <time>2020-06-03T17:07:45Z</time>
      </trkpt>
      <trkpt lat="47.06633" lon="-1.63745">
        <ele>-3.07</ele>
        <time>2020-06-03T17:07:47Z</time>
      </trkpt>
      <trkpt lat="47.0664" lon="-1.63755">
        <ele>-2.38</ele>
        <time>2020-06-03T17:07:49Z</time>
      </trkpt>
      <trkpt lat="47.0665" lon="-1.63769">
        <ele>-1.63</ele>
        <time>2020-06-03T17:07:51Z</time>
      </trkpt>
      <trkpt lat="47.0666" lon="-1.63781">
        <ele>-1</ele>
        <time>2020-06-03T17:07:53Z</time>
      </trkpt>
      <trkpt lat="47.06669" lon="-1.63793">
        <ele>-0.1</ele>
        <time>2020-06-03T17:07:55Z</time>
      </trkpt>
      <trkpt lat="47.06679" lon="-1.63805">
        <ele>-0.24</ele>
        <time>2020-06-03T17:07:57Z</time>
      </trkpt>
      <trkpt lat="47.06688" lon="-1.63816">
        <ele>-0.16</ele>
        <time>2020-06-03T17:07:59Z</time>
      </trkpt>
      <trkpt lat="47.06698" lon="-1.63828">
        <ele>-1.04</ele>
        <time>2020-06-03T17:08:01Z</time>
      </trkpt>
      <trkpt lat="47.06708" lon="-1.63839">
        <ele>-2.13</ele>
        <time>2020-06-03T17:08:03Z</time>
      </trkpt>
      <trkpt lat="47.06719" lon="-1.63845">
        <ele>-1.97</ele>
        <time>2020-06-03T17:08:05Z</time>
      </trkpt>
      <trkpt lat="47.06731" lon="-1.63841">
        <ele>-1.89</ele>
        <time>2020-06-03T17:08:07Z</time>
      </trkpt>
      <trkpt lat="47.06742" lon="-1.63832">
        <ele>-0.94</ele>
        <time>2020-06-03T17:08:09Z</time>
      </trkpt>
      <trkpt lat="47.06751" lon="-1.63821">
        <ele>0.04</ele>
        <time>2020-06-03T17:08:11Z</time>
      </trkpt>
      <trkpt lat="47.06763" lon="-1.63808">
        <ele>0.73</ele>
        <time>2020-06-03T17:08:13Z</time>
      </trkpt>
      <trkpt lat="47.06773" lon="-1.63797">
        <ele>1.04</ele>
        <time>2020-06-03T17:08:15Z</time>
      </trkpt>
      <trkpt lat="47.06783" lon="-1.63786">
        <ele>1.5</ele>
        <time>2020-06-03T17:08:17Z</time>
      </trkpt>
      <trkpt lat="47.06792" lon="-1.63777">
        <ele>0.59</ele>
        <time>2020-06-03T17:08:19Z</time>
      </trkpt>
      <trkpt lat="47.06804" lon="-1.63765">
        <ele>0.38</ele>
        <time>2020-06-03T17:08:21Z</time>
      </trkpt>
      <trkpt lat="47.06814" lon="-1.63755">
        <ele>0.45</ele>
        <time>2020-06-03T17:08:23Z</time>
      </trkpt>
      <trkpt lat="47.06826" lon="-1.63743">
        <ele>0.06</ele>
        <time>2020-06-03T17:08:25Z</time>
      </trkpt>
      <trkpt lat="47.06835" lon="-1.63731">
        <ele>0.02</ele>
        <time>2020-06-03T17:08:27Z</time>
      </trkpt>
      <trkpt lat="47.06844" lon="-1.63717">
        <ele>-0.5</ele>
        <time>2020-06-03T17:08:29Z</time>
      </trkpt>
      <trkpt lat="47.0685" lon="-1.63701">
        <ele>-1.24</ele>
        <time>2020-06-03T17:08:31Z</time>
      </trkpt>
      <trkpt lat="47.06854" lon="-1.63682">
        <ele>-1.91</ele>
        <time>2020-06-03T17:08:33Z</time>
      </trkpt>
      <trkpt lat="47.06857" lon="-1.63665">
        <ele>-2.21</ele>
        <time>2020-06-03T17:08:35Z</time>
      </trkpt>
      <trkpt lat="47.06859" lon="-1.63648">
        <ele>-2.37</ele>
        <time>2020-06-03T17:08:37Z</time>
      </trkpt>
      <trkpt lat="47.0686" lon="-1.6363">
        <ele>-2.23</ele>
        <time>2020-06-03T17:08:39Z</time>
      </trkpt>
      <trkpt lat="47.06861" lon="-1.63611">
        <ele>-2.89</ele>
        <time>2020-06-03T17:08:41Z</time>
      </trkpt>
      <trkpt lat="47.06862" lon="-1.63592">
        <ele>-3.6</ele>
        <time>2020-06-03T17:08:43Z</time>
      </trkpt>
      <trkpt lat="47.06863" lon="-1.63572">
        <ele>-3.8</ele>
        <time>2020-06-03T17:08:45Z</time>
      </trkpt>
      <trkpt lat="47.06864" lon="-1.63554">
        <ele>-3.38</ele>
        <time>2020-06-03T17:08:47Z</time>
      </trkpt>
      <trkpt lat="47.06867" lon="-1.63534">
        <ele>-2.29</ele>
        <time>2020-06-03T17:08:49Z</time>
      </trkpt>
      <trkpt lat="47.06871" lon="-1.63514">
        <ele>-1.69</ele>
        <time>2020-06-03T17:08:51Z</time>
      </trkpt>
      <trkpt lat="47.06876" lon="-1.63496">
        <ele>-2.37</ele>
        <time>2020-06-03T17:08:53Z</time>
      </trkpt>
      <trkpt lat="47.06884" lon="-1.63484">
        <ele>-3.35</ele>
        <time>2020-06-03T17:08:55Z</time>
      </trkpt>
      <trkpt lat="47.06895" lon="-1.6347">
        <ele>-3.77</ele>
        <time>2020-06-03T17:08:57Z</time>
      </trkpt>
      <trkpt lat="47.06907" lon="-1.63459">
        <ele>-4.09</ele>
        <time>2020-06-03T17:08:59Z</time>
      </trkpt>
      <trkpt lat="47.06918" lon="-1.63453">
        <ele>-2.78</ele>
        <time>2020-06-03T17:09:01Z</time>
      </trkpt>
      <trkpt lat="47.0693" lon="-1.63446">
        <ele>-1.39</ele>
        <time>2020-06-03T17:09:03Z</time>
      </trkpt>
      <trkpt lat="47.06943" lon="-1.6344">
        <ele>-0.61</ele>
        <time>2020-06-03T17:09:05Z</time>
      </trkpt>
      <trkpt lat="47.06954" lon="-1.63433">
        <ele>-0.71</ele>
        <time>2020-06-03T17:09:07Z</time>
      </trkpt>
      <trkpt lat="47.06965" lon="-1.63424">
        <ele>-0.88</ele>
        <time>2020-06-03T17:09:09Z</time>
      </trkpt>
      <trkpt lat="47.06977" lon="-1.63412">
        <ele>-0.47</ele>
        <time>2020-06-03T17:09:11Z</time>
      </trkpt>
      <trkpt lat="47.06989" lon="-1.63401">
        <ele>-0.66</ele>
        <time>2020-06-03T17:09:13Z</time>
      </trkpt>
      <trkpt lat="47.07" lon="-1.6339">
        <ele>-1.52</ele>
        <time>2020-06-03T17:09:15Z</time>
      </trkpt>
      <trkpt lat="47.07011" lon="-1.6338">
        <ele>-2.42</ele>
        <time>2020-06-03T17:09:17Z</time>
      </trkpt>
      <trkpt lat="47.07021" lon="-1.63371">
        <ele>-1.61</ele>
        <time>2020-06-03T17:09:19Z</time>
      </trkpt>
      <trkpt lat="47.07032" lon="-1.6336">
        <ele>-1.88</ele>
        <time>2020-06-03T17:09:21Z</time>
      </trkpt>
      <trkpt lat="47.07042" lon="-1.6335">
        <ele>-2.1</ele>
        <time>2020-06-03T17:09:23Z</time>
      </trkpt>
      <trkpt lat="47.07052" lon="-1.63339">
        <ele>-3.15</ele>
        <time>2020-06-03T17:09:25Z</time>
      </trkpt>
      <trkpt lat="47.07061" lon="-1.63328">
        <ele>-3.97</ele>
        <time>2020-06-03T17:09:27Z</time>
      </trkpt>
      <trkpt lat="47.07069" lon="-1.63313">
        <ele>-4.31</ele>
        <time>2020-06-03T17:09:29Z</time>
      </trkpt>
      <trkpt lat="47.07076" lon="-1.63297">
        <ele>-4.49</ele>
        <time>2020-06-03T17:09:31Z</time>
      </trkpt>
      <trkpt lat="47.07081" lon="-1.63281">
        <ele>-5.47</ele>
        <time>2020-06-03T17:09:33Z</time>
      </trkpt>
      <trkpt lat="47.07085" lon="-1.63264">
        <ele>-6.45</ele>
        <time>2020-06-03T17:09:35Z</time>
      </trkpt>
      <trkpt lat="47.0709" lon="-1.63245">
        <ele>-6.32</ele>
        <time>2020-06-03T17:09:37Z</time>
      </trkpt>
      <trkpt lat="47.07092" lon="-1.63228">
        <ele>-5.48</ele>
        <time>2020-06-03T17:09:39Z</time>
      </trkpt>
      <trkpt lat="47.07093" lon="-1.6321">
        <ele>-5.3</ele>
        <time>2020-06-03T17:09:41Z</time>
      </trkpt>
      <trkpt lat="47.07095" lon="-1.63193">
        <ele>-5.95</ele>
        <time>2020-06-03T17:09:43Z</time>
      </trkpt>
      <trkpt lat="47.071" lon="-1.63177">
        <ele>-5.28</ele>
        <time>2020-06-03T17:09:45Z</time>
      </trkpt>
      <trkpt lat="47.07109" lon="-1.63164">
        <ele>-4.31</ele>
        <time>2020-06-03T17:09:47Z</time>
      </trkpt>
      <trkpt lat="47.07119" lon="-1.63153">
        <ele>-3.83</ele>
        <time>2020-06-03T17:09:49Z</time>
      </trkpt>
      <trkpt lat="47.07129" lon="-1.63143">
        <ele>-4.14</ele>
        <time>2020-06-03T17:09:51Z</time>
      </trkpt>
      <trkpt lat="47.0714" lon="-1.63135">
        <ele>-3.34</ele>
        <time>2020-06-03T17:09:53Z</time>
      </trkpt>
      <trkpt lat="47.07154" lon="-1.63131">
        <ele>-3.77</ele>
        <time>2020-06-03T17:09:55Z</time>
      </trkpt>
      <trkpt lat="47.07166" lon="-1.6313">
        <ele>-3.46</ele>
        <time>2020-06-03T17:09:57Z</time>
      </trkpt>
      <trkpt lat="47.07179" lon="-1.6313">
        <ele>-2.63</ele>
        <time>2020-06-03T17:09:59Z</time>
      </trkpt>
      <trkpt lat="47.07192" lon="-1.6313">
        <ele>-1.59</ele>
        <time>2020-06-03T17:10:01Z</time>
      </trkpt>
      <trkpt lat="47.07204" lon="-1.63135">
        <ele>-0.82</ele>
        <time>2020-06-03T17:10:03Z</time>
      </trkpt>
      <trkpt lat="47.07215" lon="-1.6314">
        <ele>-0.43</ele>
        <time>2020-06-03T17:10:05Z</time>
      </trkpt>
      <trkpt lat="47.07226" lon="-1.63147">
        <ele>-0.74</ele>
        <time>2020-06-03T17:10:07Z</time>
      </trkpt>
      <trkpt lat="47.07237" lon="-1.63157">
        <ele>-0.87</ele>
        <time>2020-06-03T17:10:09Z</time>
      </trkpt>
      <trkpt lat="47.07249" lon="-1.63166">
        <ele>-1.05</ele>
        <time>2020-06-03T17:10:11Z</time>
      </trkpt>
      <trkpt lat="47.0726" lon="-1.63176">
        <ele>-1.05</ele>
        <time>2020-06-03T17:10:13Z</time>
      </trkpt>
      <trkpt lat="47.07271" lon="-1.63187">
        <ele>-0.55</ele>
        <time>2020-06-03T17:10:15Z</time>
      </trkpt>
      <trkpt lat="47.07282" lon="-1.632">
        <ele>0.82</ele>
        <time>2020-06-03T17:10:17Z</time>
      </trkpt>
      <trkpt lat="47.07292" lon="-1.63213">
        <ele>1.3</ele>
        <time>2020-06-03T17:10:19Z</time>
      </trkpt>
      <trkpt lat="47.073" lon="-1.63227">
        <ele>1.25</ele>
        <time>2020-06-03T17:10:21Z</time>
      </trkpt>
      <trkpt lat="47.07307" lon="-1.63239">
        <ele>1.06</ele>
        <time>2020-06-03T17:10:23Z</time>
      </trkpt>
      <trkpt lat="47.07315" lon="-1.63251">
        <ele>0.86</ele>
        <time>2020-06-03T17:10:25Z</time>
      </trkpt>
      <trkpt lat="47.07324" lon="-1.63263">
        <ele>0.45</ele>
        <time>2020-06-03T17:10:27Z</time>
      </trkpt>
      <trkpt lat="47.07332" lon="-1.63273">
        <ele>-0.84</ele>
        <time>2020-06-03T17:10:29Z</time>
      </trkpt>
      <trkpt lat="47.07342" lon="-1.63285">
        <ele>-2.12</ele>
        <time>2020-06-03T17:10:31Z</time>
      </trkpt>
      <trkpt lat="47.07353" lon="-1.63295">
        <ele>-2.54</ele>
        <time>2020-06-03T17:10:33Z</time>
      </trkpt>
      <trkpt lat="47.07364" lon="-1.63303">
        <ele>-2.81</ele>
        <time>2020-06-03T17:10:35Z</time>
      </trkpt>
      <trkpt lat="47.07376" lon="-1.63311">
        <ele>-3.17</ele>
        <time>2020-06-03T17:10:37Z</time>
      </trkpt>
      <trkpt lat="47.07387" lon="-1.63319">
        <ele>-3.78</ele>
        <time>2020-06-03T17:10:39Z</time>
      </trkpt>
      <trkpt lat="47.07397" lon="-1.63326">
        <ele>-4.3</ele>
        <time>2020-06-03T17:10:41Z</time>
      </trkpt>
      <trkpt lat="47.07407" lon="-1.63334">
        <ele>-5.08</ele>
        <time>2020-06-03T17:10:43Z</time>
      </trkpt>
      <trkpt lat="47.07418" lon="-1.63342">
        <ele>-5.64</ele>
        <time>2020-06-03T17:10:45Z</time>
      </trkpt>
      <trkpt lat="47.07429" lon="-1.6335">
        <ele>-5.82</ele>
        <time>2020-06-03T17:10:47Z</time>
      </trkpt>
      <trkpt lat="47.07442" lon="-1.63357">
        <ele>-5.36</ele>
        <time>2020-06-03T17:10:49Z</time>
      </trkpt>
      <trkpt lat="47.07453" lon="-1.63363">
        <ele>-4.93</ele>
        <time>2020-06-03T17:10:51Z</time>
      </trkpt>
      <trkpt lat="47.07464" lon="-1.63371">
        <ele>-4.43</ele>
        <time>2020-06-03T17:10:53Z</time>
      </trkpt>
      <trkpt lat="47.07475" lon="-1.63378">
        <ele>-3.27</ele>
        <time>2020-06-03T17:10:55Z</time>
      </trkpt>
      <trkpt lat="47.07487" lon="-1.63385">
        <ele>-1.98</ele>
        <time>2020-06-03T17:10:57Z</time>
      </trkpt>
      <trkpt lat="47.07497" lon="-1.63392">
        <ele>-1.71</ele>
        <time>2020-06-03T17:10:59Z</time>
      </trkpt>
      <trkpt lat="47.07509" lon="-1.63399">
        <ele>-1.98</ele>
        <time>2020-06-03T17:11:01Z</time>
      </trkpt>
      <trkpt lat="47.07521" lon="-1.63406">
        <ele>-1.81</ele>
        <time>2020-06-03T17:11:03Z</time>
      </trkpt>
      <trkpt lat="47.07534" lon="-1.63415">
        <ele>-1.76</ele>
        <time>2020-06-03T17:11:05Z</time>
      </trkpt>
      <trkpt lat="47.07546" lon="-1.63422">
        <ele>-2.15</ele>
        <time>2020-06-03T17:11:07Z</time>
      </trkpt>
      <trkpt lat="47.07558" lon="-1.6343">
        <ele>-1.37</ele>
        <time>2020-06-03T17:11:09Z</time>
      </trkpt>
      <trkpt lat="47.0757" lon="-1.63437">
        <ele>-0.31</ele>
        <time>2020-06-03T17:11:11Z</time>
      </trkpt>
      <trkpt lat="47.07583" lon="-1.63443">
        <ele>1.38</ele>
        <time>2020-06-03T17:11:13Z</time>
      </trkpt>
      <trkpt lat="47.07596" lon="-1.63445">
        <ele>2.23</ele>
        <time>2020-06-03T17:11:15Z</time>
      </trkpt>
      <trkpt lat="47.07609" lon="-1.63444">
        <ele>1.85</ele>
        <time>2020-06-03T17:11:17Z</time>
      </trkpt>
      <trkpt lat="47.07622" lon="-1.6344">
        <ele>0.84</ele>
        <time>2020-06-03T17:11:19Z</time>
      </trkpt>
      <trkpt lat="47.07634" lon="-1.63436">
        <ele>-0.17</ele>
        <time>2020-06-03T17:11:20Z</time>
      </trkpt>
      <trkpt lat="47.07649" lon="-1.6343">
        <ele>0.19</ele>
        <time>2020-06-03T17:11:22Z</time>
      </trkpt>
      <trkpt lat="47.07662" lon="-1.63425">
        <ele>0.63</ele>
        <time>2020-06-03T17:11:24Z</time>
      </trkpt>
      <trkpt lat="47.07674" lon="-1.63421">
        <ele>0.84</ele>
        <time>2020-06-03T17:11:26Z</time>
      </trkpt>
      <trkpt lat="47.07685" lon="-1.63418">
        <ele>0.95</ele>
        <time>2020-06-03T17:11:28Z</time>
      </trkpt>
      <trkpt lat="47.07697" lon="-1.63414">
        <ele>1.56</ele>
        <time>2020-06-03T17:11:30Z</time>
      </trkpt>
      <trkpt lat="47.07709" lon="-1.63405">
        <ele>2.29</ele>
        <time>2020-06-03T17:11:32Z</time>
      </trkpt>
      <trkpt lat="47.0772" lon="-1.63391">
        <ele>2.29</ele>
        <time>2020-06-03T17:11:34Z</time>
      </trkpt>
      <trkpt lat="47.07731" lon="-1.63378">
        <ele>2.13</ele>
        <time>2020-06-03T17:11:36Z</time>
      </trkpt>
      <trkpt lat="47.07741" lon="-1.63365">
        <ele>2.29</ele>
        <time>2020-06-03T17:11:38Z</time>
      </trkpt>
      <trkpt lat="47.07752" lon="-1.63352">
        <ele>2.26</ele>
        <time>2020-06-03T17:11:40Z</time>
      </trkpt>
      <trkpt lat="47.07762" lon="-1.6334">
        <ele>2.17</ele>
        <time>2020-06-03T17:11:42Z</time>
      </trkpt>
      <trkpt lat="47.07771" lon="-1.63328">
        <ele>2.25</ele>
        <time>2020-06-03T17:11:44Z</time>
      </trkpt>
      <trkpt lat="47.07781" lon="-1.63316">
        <ele>1.07</ele>
        <time>2020-06-03T17:11:46Z</time>
      </trkpt>
      <trkpt lat="47.0779" lon="-1.63306">
        <ele>0.6</ele>
        <time>2020-06-03T17:11:48Z</time>
      </trkpt>
      <trkpt lat="47.078" lon="-1.63294">
        <ele>0.11</ele>
        <time>2020-06-03T17:11:50Z</time>
      </trkpt>
      <trkpt lat="47.0781" lon="-1.63282">
        <ele>-0.06</ele>
        <time>2020-06-03T17:11:52Z</time>
      </trkpt>
      <trkpt lat="47.0782" lon="-1.63269">
        <ele>-1.24</ele>
        <time>2020-06-03T17:11:54Z</time>
      </trkpt>
      <trkpt lat="47.0783" lon="-1.63253">
        <ele>-1.18</ele>
        <time>2020-06-03T17:11:56Z</time>
      </trkpt>
      <trkpt lat="47.07832" lon="-1.6323">
        <ele>-0.92</ele>
        <time>2020-06-03T17:11:58Z</time>
      </trkpt>
      <trkpt lat="47.07828" lon="-1.63213">
        <ele>-0.18</ele>
        <time>2020-06-03T17:12:00Z</time>
      </trkpt>
      <trkpt lat="47.07821" lon="-1.63197">
        <ele>0.8</ele>
        <time>2020-06-03T17:12:02Z</time>
      </trkpt>
      <trkpt lat="47.07814" lon="-1.63181">
        <ele>1.93</ele>
        <time>2020-06-03T17:12:04Z</time>
      </trkpt>
      <trkpt lat="47.07807" lon="-1.63165">
        <ele>1.64</ele>
        <time>2020-06-03T17:12:06Z</time>
      </trkpt>
      <trkpt lat="47.078" lon="-1.6315">
        <ele>0.87</ele>
        <time>2020-06-03T17:12:08Z</time>
      </trkpt>
      <trkpt lat="47.078" lon="-1.63135">
        <ele>0.9</ele>
        <time>2020-06-03T17:12:10Z</time>
      </trkpt>
      <trkpt lat="47.0781" lon="-1.63129">
        <ele>1.36</ele>
        <time>2020-06-03T17:12:12Z</time>
      </trkpt>
      <trkpt lat="47.07823" lon="-1.63128">
        <ele>2.76</ele>
        <time>2020-06-03T17:12:14Z</time>
      </trkpt>
      <trkpt lat="47.07836" lon="-1.63128">
        <ele>4.45</ele>
        <time>2020-06-03T17:12:16Z</time>
      </trkpt>
      <trkpt lat="47.07849" lon="-1.63128">
        <ele>5.08</ele>
        <time>2020-06-03T17:12:18Z</time>
      </trkpt>
      <trkpt lat="47.07862" lon="-1.63128">
        <ele>5.04</ele>
        <time>2020-06-03T17:12:20Z</time>
      </trkpt>
      <trkpt lat="47.07876" lon="-1.63128">
        <ele>4.64</ele>
        <time>2020-06-03T17:12:22Z</time>
      </trkpt>
      <trkpt lat="47.07888" lon="-1.63127">
        <ele>3.67</ele>
        <time>2020-06-03T17:12:24Z</time>
      </trkpt>
      <trkpt lat="47.07903" lon="-1.63126">
        <ele>2.6</ele>
        <time>2020-06-03T17:12:26Z</time>
      </trkpt>
      <trkpt lat="47.07916" lon="-1.63125">
        <ele>1.4</ele>
        <time>2020-06-03T17:12:28Z</time>
      </trkpt>
      <trkpt lat="47.07929" lon="-1.63123">
        <ele>0.11</ele>
        <time>2020-06-03T17:12:30Z</time>
      </trkpt>
      <trkpt lat="47.07941" lon="-1.63123">
        <ele>-1.25</ele>
        <time>2020-06-03T17:12:32Z</time>
      </trkpt>
      <trkpt lat="47.07956" lon="-1.63122">
        <ele>-2.62</ele>
        <time>2020-06-03T17:12:34Z</time>
      </trkpt>
      <trkpt lat="47.0797" lon="-1.63121">
        <ele>-3.13</ele>
        <time>2020-06-03T17:12:36Z</time>
      </trkpt>
      <trkpt lat="47.07984" lon="-1.6312">
        <ele>-3.02</ele>
        <time>2020-06-03T17:12:38Z</time>
      </trkpt>
      <trkpt lat="47.07998" lon="-1.6312">
        <ele>-3.57</ele>
        <time>2020-06-03T17:12:40Z</time>
      </trkpt>
      <trkpt lat="47.08012" lon="-1.63119">
        <ele>-5.47</ele>
        <time>2020-06-03T17:12:42Z</time>
      </trkpt>
      <trkpt lat="47.08026" lon="-1.63118">
        <ele>-7.15</ele>
        <time>2020-06-03T17:12:44Z</time>
      </trkpt>
      <trkpt lat="47.08038" lon="-1.63116">
        <ele>-7.74</ele>
        <time>2020-06-03T17:12:46Z</time>
      </trkpt>
      <trkpt lat="47.0805" lon="-1.63115">
        <ele>-7.85</ele>
        <time>2020-06-03T17:12:48Z</time>
      </trkpt>
      <trkpt lat="47.08063" lon="-1.63114">
        <ele>-7.13</ele>
        <time>2020-06-03T17:12:50Z</time>
      </trkpt>
      <trkpt lat="47.08076" lon="-1.63113">
        <ele>-5.93</ele>
        <time>2020-06-03T17:12:52Z</time>
      </trkpt>
      <trkpt lat="47.0809" lon="-1.63111">
        <ele>-5.21</ele>
        <time>2020-06-03T17:12:54Z</time>
      </trkpt>
      <trkpt lat="47.08105" lon="-1.63109">
        <ele>-4</ele>
        <time>2020-06-03T17:12:56Z</time>
      </trkpt>
      <trkpt lat="47.08118" lon="-1.63107">
        <ele>-4.24</ele>
        <time>2020-06-03T17:12:58Z</time>
      </trkpt>
      <trkpt lat="47.08132" lon="-1.63106">
        <ele>-5.29</ele>
        <time>2020-06-03T17:13:00Z</time>
      </trkpt>
      <trkpt lat="47.08146" lon="-1.63104">
        <ele>-5.49</ele>
        <time>2020-06-03T17:13:02Z</time>
      </trkpt>
      <trkpt lat="47.08161" lon="-1.63102">
        <ele>-5.64</ele>
        <time>2020-06-03T17:13:04Z</time>
      </trkpt>
      <trkpt lat="47.08174" lon="-1.63101">
        <ele>-5.68</ele>
        <time>2020-06-03T17:13:06Z</time>
      </trkpt>
      <trkpt lat="47.08186" lon="-1.63101">
        <ele>-6.26</ele>
        <time>2020-06-03T17:13:08Z</time>
      </trkpt>
      <trkpt lat="47.08199" lon="-1.63099">
        <ele>-6.17</ele>
        <time>2020-06-03T17:13:10Z</time>
      </trkpt>
      <trkpt lat="47.08214" lon="-1.63099">
        <ele>-6.25</ele>
        <time>2020-06-03T17:13:12Z</time>
      </trkpt>
      <trkpt lat="47.08228" lon="-1.63097">
        <ele>-6.2</ele>
        <time>2020-06-03T17:13:14Z</time>
      </trkpt>
      <trkpt lat="47.08242" lon="-1.63097">
        <ele>-5.59</ele>
        <time>2020-06-03T17:13:16Z</time>
      </trkpt>
      <trkpt lat="47.08256" lon="-1.63096">
        <ele>-5.8</ele>
        <time>2020-06-03T17:13:18Z</time>
      </trkpt>
      <trkpt lat="47.08269" lon="-1.63095">
        <ele>-6.22</ele>
        <time>2020-06-03T17:13:20Z</time>
      </trkpt>
      <trkpt lat="47.08281" lon="-1.63094">
        <ele>-6.58</ele>
        <time>2020-06-03T17:13:22Z</time>
      </trkpt>
      <trkpt lat="47.08294" lon="-1.63093">
        <ele>-6.7</ele>
        <time>2020-06-03T17:13:24Z</time>
      </trkpt>
      <trkpt lat="47.08307" lon="-1.63093">
        <ele>-7.49</ele>
        <time>2020-06-03T17:13:26Z</time>
      </trkpt>
      <trkpt lat="47.0832" lon="-1.63091">
        <ele>-7.79</ele>
        <time>2020-06-03T17:13:28Z</time>
      </trkpt>
      <trkpt lat="47.08333" lon="-1.63089">
        <ele>-7.73</ele>
        <time>2020-06-03T17:13:30Z</time>
      </trkpt>
      <trkpt lat="47.08347" lon="-1.63088">
        <ele>-7.7</ele>
        <time>2020-06-03T17:13:32Z</time>
      </trkpt>
      <trkpt lat="47.08361" lon="-1.63087">
        <ele>-7.64</ele>
        <time>2020-06-03T17:13:34Z</time>
      </trkpt>
      <trkpt lat="47.08375" lon="-1.63085">
        <ele>-7.42</ele>
        <time>2020-06-03T17:13:36Z</time>
      </trkpt>
      <trkpt lat="47.08388" lon="-1.63082">
        <ele>-6.52</ele>
        <time>2020-06-03T17:13:38Z</time>
      </trkpt>
      <trkpt lat="47.08401" lon="-1.63077">
        <ele>-5.24</ele>
        <time>2020-06-03T17:13:40Z</time>
      </trkpt>
      <trkpt lat="47.08413" lon="-1.63069">
        <ele>-4.6</ele>
        <time>2020-06-03T17:13:42Z</time>
      </trkpt>
      <trkpt lat="47.08425" lon="-1.63054">
        <ele>-5.09</ele>
        <time>2020-06-03T17:13:44Z</time>
      </trkpt>
      <trkpt lat="47.08436" lon="-1.6304">
        <ele>-5.73</ele>
        <time>2020-06-03T17:13:46Z</time>
      </trkpt>
      <trkpt lat="47.08445" lon="-1.63026">
        <ele>-5.29</ele>
        <time>2020-06-03T17:13:48Z</time>
      </trkpt>
      <trkpt lat="47.08454" lon="-1.63011">
        <ele>-4.41</ele>
        <time>2020-06-03T17:13:50Z</time>
      </trkpt>
      <trkpt lat="47.08463" lon="-1.62996">
        <ele>-4.47</ele>
        <time>2020-06-03T17:13:52Z</time>
      </trkpt>
      <trkpt lat="47.08471" lon="-1.62983">
        <ele>-5.12</ele>
        <time>2020-06-03T17:13:54Z</time>
      </trkpt>
      <trkpt lat="47.0848" lon="-1.62969">
        <ele>-4.92</ele>
        <time>2020-06-03T17:13:56Z</time>
      </trkpt>
      <trkpt lat="47.08488" lon="-1.62956">
        <ele>-4.76</ele>
        <time>2020-06-03T17:13:58Z</time>
      </trkpt>
      <trkpt lat="47.08496" lon="-1.62943">
        <ele>-4.91</ele>
        <time>2020-06-03T17:14:00Z</time>
      </trkpt>
      <trkpt lat="47.08504" lon="-1.6293">
        <ele>-5.04</ele>
        <time>2020-06-03T17:14:02Z</time>
      </trkpt>
      <trkpt lat="47.08514" lon="-1.62915">
        <ele>-3.67</ele>
        <time>2020-06-03T17:14:04Z</time>
      </trkpt>
      <trkpt lat="47.08523" lon="-1.62901">
        <ele>-1.93</ele>
        <time>2020-06-03T17:14:06Z</time>
      </trkpt>
      <trkpt lat="47.08533" lon="-1.62885">
        <ele>-1.95</ele>
        <time>2020-06-03T17:14:08Z</time>
      </trkpt>
      <trkpt lat="47.08543" lon="-1.62868">
        <ele>-1.92</ele>
        <time>2020-06-03T17:14:10Z</time>
      </trkpt>
      <trkpt lat="47.08553" lon="-1.62852">
        <ele>-1.17</ele>
        <time>2020-06-03T17:14:12Z</time>
      </trkpt>
      <trkpt lat="47.08563" lon="-1.62841">
        <ele>-1.46</ele>
        <time>2020-06-03T17:14:14Z</time>
      </trkpt>
      <trkpt lat="47.08572" lon="-1.62834">
        <ele>-2.29</ele>
        <time>2020-06-03T17:14:16Z</time>
      </trkpt>
      <trkpt lat="47.08581" lon="-1.62815">
        <ele>-2.61</ele>
        <time>2020-06-03T17:14:18Z</time>
      </trkpt>
      <trkpt lat="47.08582" lon="-1.62792">
        <ele>-3.87</ele>
        <time>2020-06-03T17:14:20Z</time>
      </trkpt>
      <trkpt lat="47.08581" lon="-1.62772">
        <ele>-4.75</ele>
        <time>2020-06-03T17:14:22Z</time>
      </trkpt>
      <trkpt lat="47.08582" lon="-1.62752">
        <ele>-4.58</ele>
        <time>2020-06-03T17:14:24Z</time>
      </trkpt>
      <trkpt lat="47.08583" lon="-1.62732">
        <ele>-4.93</ele>
        <time>2020-06-03T17:14:26Z</time>
      </trkpt>
      <trkpt lat="47.08583" lon="-1.62713">
        <ele>-4.57</ele>
        <time>2020-06-03T17:14:28Z</time>
      </trkpt>
      <trkpt lat="47.08584" lon="-1.62696">
        <ele>-3.85</ele>
        <time>2020-06-03T17:14:30Z</time>
      </trkpt>
      <trkpt lat="47.08584" lon="-1.62679">
        <ele>-3.22</ele>
        <time>2020-06-03T17:14:32Z</time>
      </trkpt>
      <trkpt lat="47.08584" lon="-1.62659">
        <ele>-3.4</ele>
        <time>2020-06-03T17:14:34Z</time>
      </trkpt>
      <trkpt lat="47.08585" lon="-1.6264">
        <ele>-3.62</ele>
        <time>2020-06-03T17:14:36Z</time>
      </trkpt>
      <trkpt lat="47.08586" lon="-1.62621">
        <ele>-4.07</ele>
        <time>2020-06-03T17:14:38Z</time>
      </trkpt>
      <trkpt lat="47.08586" lon="-1.62602">
        <ele>-4.56</ele>
        <time>2020-06-03T17:14:40Z</time>
      </trkpt>
      <trkpt lat="47.08586" lon="-1.62583">
        <ele>-4.84</ele>
        <time>2020-06-03T17:14:42Z</time>
      </trkpt>
      <trkpt lat="47.08587" lon="-1.62564">
        <ele>-4.87</ele>
        <time>2020-06-03T17:14:44Z</time>
      </trkpt>
      <trkpt lat="47.08587" lon="-1.62545">
        <ele>-4.82</ele>
        <time>2020-06-03T17:14:46Z</time>
      </trkpt>
      <trkpt lat="47.08588" lon="-1.62527">
        <ele>-4.93</ele>
        <time>2020-06-03T17:14:48Z</time>
      </trkpt>
      <trkpt lat="47.08589" lon="-1.62507">
        <ele>-4.89</ele>
        <time>2020-06-03T17:14:50Z</time>
      </trkpt>
      <trkpt lat="47.08589" lon="-1.62487">
        <ele>-4.22</ele>
        <time>2020-06-03T17:14:52Z</time>
      </trkpt>
      <trkpt lat="47.08589" lon="-1.62468">
        <ele>-2.71</ele>
        <time>2020-06-03T17:14:54Z</time>
      </trkpt>
      <trkpt lat="47.08589" lon="-1.62448">
        <ele>-1.16</ele>
        <time>2020-06-03T17:14:56Z</time>
      </trkpt>
      <trkpt lat="47.0859" lon="-1.62428">
        <ele>0.15</ele>
        <time>2020-06-03T17:14:58Z</time>
      </trkpt>
      <trkpt lat="47.0859" lon="-1.6241">
        <ele>0.72</ele>
        <time>2020-06-03T17:15:00Z</time>
      </trkpt>
      <trkpt lat="47.08591" lon="-1.62393">
        <ele>-0.32</ele>
        <time>2020-06-03T17:15:02Z</time>
      </trkpt>
      <trkpt lat="47.08591" lon="-1.62374">
        <ele>-2.25</ele>
        <time>2020-06-03T17:15:04Z</time>
      </trkpt>
      <trkpt lat="47.08598" lon="-1.62359">
        <ele>-4.72</ele>
        <time>2020-06-03T17:15:06Z</time>
      </trkpt>
      <trkpt lat="47.08612" lon="-1.62351">
        <ele>-7.36</ele>
        <time>2020-06-03T17:15:08Z</time>
      </trkpt>
      <trkpt lat="47.08627" lon="-1.62345">
        <ele>-9.13</ele>
        <time>2020-06-03T17:15:10Z</time>
      </trkpt>
      <trkpt lat="47.08641" lon="-1.6234">
        <ele>-9.7</ele>
        <time>2020-06-03T17:15:12Z</time>
      </trkpt>
      <trkpt lat="47.08653" lon="-1.62335">
        <ele>-9.25</ele>
        <time>2020-06-03T17:15:14Z</time>
      </trkpt>
      <trkpt lat="47.08667" lon="-1.62331">
        <ele>-7.43</ele>
        <time>2020-06-03T17:15:16Z</time>
      </trkpt>
      <trkpt lat="47.08681" lon="-1.62326">
        <ele>-5.65</ele>
        <time>2020-06-03T17:15:18Z</time>
      </trkpt>
      <trkpt lat="47.08693" lon="-1.62321">
        <ele>-4.94</ele>
        <time>2020-06-03T17:15:20Z</time>
      </trkpt>
      <trkpt lat="47.08705" lon="-1.62315">
        <ele>-3.79</ele>
        <time>2020-06-03T17:15:22Z</time>
      </trkpt>
      <trkpt lat="47.08718" lon="-1.62308">
        <ele>-2.24</ele>
        <time>2020-06-03T17:15:24Z</time>
      </trkpt>
      <trkpt lat="47.0873" lon="-1.62304">
        <ele>-1.09</ele>
        <time>2020-06-03T17:15:26Z</time>
      </trkpt>
      <trkpt lat="47.08742" lon="-1.623">
        <ele>-0.5</ele>
        <time>2020-06-03T17:15:28Z</time>
      </trkpt>
      <trkpt lat="47.08754" lon="-1.62296">
        <ele>0.07</ele>
        <time>2020-06-03T17:15:30Z</time>
      </trkpt>
      <trkpt lat="47.08766" lon="-1.62292">
        <ele>0.13</ele>
        <time>2020-06-03T17:15:32Z</time>
      </trkpt>
      <trkpt lat="47.08779" lon="-1.62287">
        <ele>0.04</ele>
        <time>2020-06-03T17:15:34Z</time>
      </trkpt>
      <trkpt lat="47.08792" lon="-1.62281">
        <ele>-0.1</ele>
        <time>2020-06-03T17:15:36Z</time>
      </trkpt>
      <trkpt lat="47.08805" lon="-1.62276">
        <ele>0.39</ele>
        <time>2020-06-03T17:15:38Z</time>
      </trkpt>
      <trkpt lat="47.08818" lon="-1.62271">
        <ele>1.55</ele>
        <time>2020-06-03T17:15:40Z</time>
      </trkpt>
      <trkpt lat="47.08831" lon="-1.62265">
        <ele>4.49</ele>
        <time>2020-06-03T17:15:42Z</time>
      </trkpt>
      <trkpt lat="47.08843" lon="-1.62261">
        <ele>6.34</ele>
        <time>2020-06-03T17:15:44Z</time>
      </trkpt>
      <trkpt lat="47.08855" lon="-1.62256">
        <ele>6.92</ele>
        <time>2020-06-03T17:15:46Z</time>
      </trkpt>
      <trkpt lat="47.08866" lon="-1.62251">
        <ele>7.68</ele>
        <time>2020-06-03T17:15:48Z</time>
      </trkpt>
      <trkpt lat="47.08879" lon="-1.62246">
        <ele>7.77</ele>
        <time>2020-06-03T17:15:50Z</time>
      </trkpt>
      <trkpt lat="47.08891" lon="-1.62242">
        <ele>6.64</ele>
        <time>2020-06-03T17:15:52Z</time>
      </trkpt>
      <trkpt lat="47.08902" lon="-1.62237">
        <ele>5.32</ele>
        <time>2020-06-03T17:15:54Z</time>
      </trkpt>
      <trkpt lat="47.08917" lon="-1.62231">
        <ele>4.19</ele>
        <time>2020-06-03T17:15:56Z</time>
      </trkpt>
      <trkpt lat="47.08929" lon="-1.62224">
        <ele>4.16</ele>
        <time>2020-06-03T17:15:58Z</time>
      </trkpt>
      <trkpt lat="47.0894" lon="-1.62217">
        <ele>3.39</ele>
        <time>2020-06-03T17:16:00Z</time>
      </trkpt>
      <trkpt lat="47.08952" lon="-1.62211">
        <ele>3.53</ele>
        <time>2020-06-03T17:16:02Z</time>
      </trkpt>
      <trkpt lat="47.08962" lon="-1.62206">
        <ele>4.14</ele>
        <time>2020-06-03T17:16:04Z</time>
      </trkpt>
      <trkpt lat="47.08976" lon="-1.622">
        <ele>5.14</ele>
        <time>2020-06-03T17:16:06Z</time>
      </trkpt>
      <trkpt lat="47.08986" lon="-1.62196">
        <ele>6.08</ele>
        <time>2020-06-03T17:16:08Z</time>
      </trkpt>
      <trkpt lat="47.08998" lon="-1.62191">
        <ele>6.74</ele>
        <time>2020-06-03T17:16:10Z</time>
      </trkpt>
      <trkpt lat="47.0901" lon="-1.62185">
        <ele>7.91</ele>
        <time>2020-06-03T17:16:12Z</time>
      </trkpt>
      <trkpt lat="47.09021" lon="-1.62182">
        <ele>7.6</ele>
        <time>2020-06-03T17:16:14Z</time>
      </trkpt>
      <trkpt lat="47.09033" lon="-1.62176">
        <ele>8.23</ele>
        <time>2020-06-03T17:16:16Z</time>
      </trkpt>
      <trkpt lat="47.09044" lon="-1.62171">
        <ele>8.67</ele>
        <time>2020-06-03T17:16:18Z</time>
      </trkpt>
      <trkpt lat="47.09057" lon="-1.62166">
        <ele>7.83</ele>
        <time>2020-06-03T17:16:20Z</time>
      </trkpt>
      <trkpt lat="47.09069" lon="-1.6216">
        <ele>7.37</ele>
        <time>2020-06-03T17:16:22Z</time>
      </trkpt>
      <trkpt lat="47.09079" lon="-1.62155">
        <ele>7.02</ele>
        <time>2020-06-03T17:16:24Z</time>
      </trkpt>
      <trkpt lat="47.0909" lon="-1.6215">
        <ele>7.33</ele>
        <time>2020-06-03T17:16:26Z</time>
      </trkpt>
      <trkpt lat="47.09101" lon="-1.62146">
        <ele>7.27</ele>
        <time>2020-06-03T17:16:28Z</time>
      </trkpt>
      <trkpt lat="47.09113" lon="-1.62142">
        <ele>7.18</ele>
        <time>2020-06-03T17:16:30Z</time>
      </trkpt>
      <trkpt lat="47.09123" lon="-1.62137">
        <ele>6.7</ele>
        <time>2020-06-03T17:16:32Z</time>
      </trkpt>
      <trkpt lat="47.09133" lon="-1.62134">
        <ele>6.02</ele>
        <time>2020-06-03T17:16:34Z</time>
      </trkpt>
      <trkpt lat="47.09145" lon="-1.62129">
        <ele>5.96</ele>
        <time>2020-06-03T17:16:36Z</time>
      </trkpt>
      <trkpt lat="47.09157" lon="-1.62124">
        <ele>6.11</ele>
        <time>2020-06-03T17:16:38Z</time>
      </trkpt>
      <trkpt lat="47.09169" lon="-1.62119">
        <ele>5.32</ele>
        <time>2020-06-03T17:16:40Z</time>
      </trkpt>
      <trkpt lat="47.09181" lon="-1.62114">
        <ele>3.61</ele>
        <time>2020-06-03T17:16:42Z</time>
      </trkpt>
      <trkpt lat="47.09188" lon="-1.62097">
        <ele>3.37</ele>
        <time>2020-06-03T17:16:44Z</time>
      </trkpt>
      <trkpt lat="47.09181" lon="-1.62077">
        <ele>4.51</ele>
        <time>2020-06-03T17:16:46Z</time>
      </trkpt>
      <trkpt lat="47.09173" lon="-1.6206">
        <ele>5.38</ele>
        <time>2020-06-03T17:16:48Z</time>
      </trkpt>
      <trkpt lat="47.09164" lon="-1.62042">
        <ele>5.04</ele>
        <time>2020-06-03T17:16:50Z</time>
      </trkpt>
      <trkpt lat="47.09157" lon="-1.62025">
        <ele>4.53</ele>
        <time>2020-06-03T17:16:52Z</time>
      </trkpt>
      <trkpt lat="47.09151" lon="-1.62009">
        <ele>4.7</ele>
        <time>2020-06-03T17:16:54Z</time>
      </trkpt>
      <trkpt lat="47.09145" lon="-1.61993">
        <ele>5.09</ele>
        <time>2020-06-03T17:16:56Z</time>
      </trkpt>
      <trkpt lat="47.09139" lon="-1.61976">
        <ele>5.62</ele>
        <time>2020-06-03T17:16:58Z</time>
      </trkpt>
      <trkpt lat="47.09132" lon="-1.61958">
        <ele>6.39</ele>
        <time>2020-06-03T17:17:00Z</time>
      </trkpt>
      <trkpt lat="47.09126" lon="-1.61939">
        <ele>7.23</ele>
        <time>2020-06-03T17:17:02Z</time>
      </trkpt>
      <trkpt lat="47.0912" lon="-1.61922">
        <ele>7.53</ele>
        <time>2020-06-03T17:17:04Z</time>
      </trkpt>
      <trkpt lat="47.09113" lon="-1.61903">
        <ele>7.75</ele>
        <time>2020-06-03T17:17:06Z</time>
      </trkpt>
      <trkpt lat="47.09106" lon="-1.61885">
        <ele>7.94</ele>
        <time>2020-06-03T17:17:08Z</time>
      </trkpt>
      <trkpt lat="47.09099" lon="-1.61868">
        <ele>7.67</ele>
        <time>2020-06-03T17:17:10Z</time>
      </trkpt>
      <trkpt lat="47.09093" lon="-1.61849">
        <ele>8.4</ele>
        <time>2020-06-03T17:17:12Z</time>
      </trkpt>
      <trkpt lat="47.09087" lon="-1.6183">
        <ele>9.48</ele>
        <time>2020-06-03T17:17:14Z</time>
      </trkpt>
      <trkpt lat="47.09081" lon="-1.61812">
        <ele>10.55</ele>
        <time>2020-06-03T17:17:16Z</time>
      </trkpt>
      <trkpt lat="47.09075" lon="-1.61794">
        <ele>10.77</ele>
        <time>2020-06-03T17:17:18Z</time>
      </trkpt>
      <trkpt lat="47.09069" lon="-1.61778">
        <ele>10.78</ele>
        <time>2020-06-03T17:17:20Z</time>
      </trkpt>
      <trkpt lat="47.09062" lon="-1.61757">
        <ele>10.04</ele>
        <time>2020-06-03T17:17:22Z</time>
      </trkpt>
      <trkpt lat="47.09055" lon="-1.6174">
        <ele>9.33</ele>
        <time>2020-06-03T17:17:24Z</time>
      </trkpt>
      <trkpt lat="47.09048" lon="-1.61721">
        <ele>8.75</ele>
        <time>2020-06-03T17:17:26Z</time>
      </trkpt>
      <trkpt lat="47.09042" lon="-1.61703">
        <ele>8.76</ele>
        <time>2020-06-03T17:17:28Z</time>
      </trkpt>
      <trkpt lat="47.09036" lon="-1.61686">
        <ele>9.29</ele>
        <time>2020-06-03T17:17:30Z</time>
      </trkpt>
      <trkpt lat="47.09029" lon="-1.61667">
        <ele>8.52</ele>
        <time>2020-06-03T17:17:32Z</time>
      </trkpt>
      <trkpt lat="47.09023" lon="-1.6165">
        <ele>8.45</ele>
        <time>2020-06-03T17:17:34Z</time>
      </trkpt>
      <trkpt lat="47.09017" lon="-1.61633">
        <ele>7.5</ele>
        <time>2020-06-03T17:17:36Z</time>
      </trkpt>
      <trkpt lat="47.0901" lon="-1.61616">
        <ele>6.49</ele>
        <time>2020-06-03T17:17:38Z</time>
      </trkpt>
      <trkpt lat="47.09003" lon="-1.61599">
        <ele>5.77</ele>
        <time>2020-06-03T17:17:40Z</time>
      </trkpt>
      <trkpt lat="47.08999" lon="-1.61583">
        <ele>6.32</ele>
        <time>2020-06-03T17:17:42Z</time>
      </trkpt>
      <trkpt lat="47.09009" lon="-1.61574">
        <ele>5.65</ele>
        <time>2020-06-03T17:17:44Z</time>
      </trkpt>
      <trkpt lat="47.09024" lon="-1.61569">
        <ele>5.46</ele>
        <time>2020-06-03T17:17:46Z</time>
      </trkpt>
      <trkpt lat="47.09037" lon="-1.61564">
        <ele>5.78</ele>
        <time>2020-06-03T17:17:48Z</time>
      </trkpt>
      <trkpt lat="47.0905" lon="-1.61556">
        <ele>5.01</ele>
        <time>2020-06-03T17:17:50Z</time>
      </trkpt>
      <trkpt lat="47.09063" lon="-1.61548">
        <ele>4.65</ele>
        <time>2020-06-03T17:17:52Z</time>
      </trkpt>
      <trkpt lat="47.09076" lon="-1.61542">
        <ele>4.21</ele>
        <time>2020-06-03T17:17:54Z</time>
      </trkpt>
      <trkpt lat="47.09087" lon="-1.61537">
        <ele>4</ele>
        <time>2020-06-03T17:17:56Z</time>
      </trkpt>
      <trkpt lat="47.091" lon="-1.61529">
        <ele>4.42</ele>
        <time>2020-06-03T17:17:58Z</time>
      </trkpt>
      <trkpt lat="47.09112" lon="-1.61523">
        <ele>5.3</ele>
        <time>2020-06-03T17:18:00Z</time>
      </trkpt>
      <trkpt lat="47.09125" lon="-1.61516">
        <ele>6.64</ele>
        <time>2020-06-03T17:18:02Z</time>
      </trkpt>
      <trkpt lat="47.09137" lon="-1.61509">
        <ele>7.39</ele>
        <time>2020-06-03T17:18:04Z</time>
      </trkpt>
      <trkpt lat="47.0915" lon="-1.61501">
        <ele>7.92</ele>
        <time>2020-06-03T17:18:06Z</time>
      </trkpt>
      <trkpt lat="47.09161" lon="-1.61494">
        <ele>8.04</ele>
        <time>2020-06-03T17:18:08Z</time>
      </trkpt>
      <trkpt lat="47.09174" lon="-1.61485">
        <ele>7.89</ele>
        <time>2020-06-03T17:18:10Z</time>
      </trkpt>
      <trkpt lat="47.09186" lon="-1.61479">
        <ele>8.11</ele>
        <time>2020-06-03T17:18:12Z</time>
      </trkpt>
      <trkpt lat="47.09198" lon="-1.61474">
        <ele>8.57</ele>
        <time>2020-06-03T17:18:14Z</time>
      </trkpt>
      <trkpt lat="47.0921" lon="-1.61466">
        <ele>8.09</ele>
        <time>2020-06-03T17:18:16Z</time>
      </trkpt>
      <trkpt lat="47.09222" lon="-1.61459">
        <ele>7.27</ele>
        <time>2020-06-03T17:18:18Z</time>
      </trkpt>
      <trkpt lat="47.09233" lon="-1.61453">
        <ele>6.87</ele>
        <time>2020-06-03T17:18:20Z</time>
      </trkpt>
      <trkpt lat="47.09245" lon="-1.61446">
        <ele>6.69</ele>
        <time>2020-06-03T17:18:22Z</time>
      </trkpt>
      <trkpt lat="47.09258" lon="-1.61438">
        <ele>7.06</ele>
        <time>2020-06-03T17:18:24Z</time>
      </trkpt>
      <trkpt lat="47.09267" lon="-1.61432">
        <ele>6.35</ele>
        <time>2020-06-03T17:18:26Z</time>
      </trkpt>
      <trkpt lat="47.09276" lon="-1.61428">
        <ele>5.88</ele>
        <time>2020-06-03T17:18:28Z</time>
      </trkpt>
      <trkpt lat="47.09284" lon="-1.6142">
        <ele>6.54</ele>
        <time>2020-06-03T17:18:30Z</time>
      </trkpt>
      <trkpt lat="47.09285" lon="-1.614">
        <ele>7.59</ele>
        <time>2020-06-03T17:18:32Z</time>
      </trkpt>
      <trkpt lat="47.09282" lon="-1.61382">
        <ele>7.87</ele>
        <time>2020-06-03T17:18:34Z</time>
      </trkpt>
      <trkpt lat="47.0928" lon="-1.61361">
        <ele>7.04</ele>
        <time>2020-06-03T17:18:36Z</time>
      </trkpt>
      <trkpt lat="47.09276" lon="-1.61341">
        <ele>6.5</ele>
        <time>2020-06-03T17:18:38Z</time>
      </trkpt>
      <trkpt lat="47.09271" lon="-1.61319">
        <ele>6.51</ele>
        <time>2020-06-03T17:18:40Z</time>
      </trkpt>
      <trkpt lat="47.09267" lon="-1.61299">
        <ele>6.61</ele>
        <time>2020-06-03T17:18:42Z</time>
      </trkpt>
      <trkpt lat="47.09262" lon="-1.6128">
        <ele>7.79</ele>
        <time>2020-06-03T17:18:44Z</time>
      </trkpt>
      <trkpt lat="47.09257" lon="-1.61262">
        <ele>8.96</ele>
        <time>2020-06-03T17:18:46Z</time>
      </trkpt>
      <trkpt lat="47.09253" lon="-1.61243">
        <ele>9.13</ele>
        <time>2020-06-03T17:18:48Z</time>
      </trkpt>
      <trkpt lat="47.09249" lon="-1.61229">
        <ele>8.76</ele>
        <time>2020-06-03T17:18:50Z</time>
      </trkpt>
      <trkpt lat="47.09244" lon="-1.61212">
        <ele>8.03</ele>
        <time>2020-06-03T17:18:52Z</time>
      </trkpt>
      <trkpt lat="47.09239" lon="-1.61198">
        <ele>6.63</ele>
        <time>2020-06-03T17:18:55Z</time>
      </trkpt>
      <trkpt lat="47.09235" lon="-1.61186">
        <ele>6.53</ele>
        <time>2020-06-03T17:18:59Z</time>
      </trkpt>
      <trkpt lat="47.09247" lon="-1.61181">
        <ele>5.95</ele>
        <time>2020-06-03T17:19:11Z</time>
      </trkpt>
      <trkpt lat="47.09259" lon="-1.61185">
        <ele>6.15</ele>
        <time>2020-06-03T17:19:13Z</time>
      </trkpt>
      <trkpt lat="47.09271" lon="-1.6119">
        <ele>5.93</ele>
        <time>2020-06-03T17:19:15Z</time>
      </trkpt>
      <trkpt lat="47.09281" lon="-1.61194">
        <ele>5.27</ele>
        <time>2020-06-03T17:19:17Z</time>
      </trkpt>
      <trkpt lat="47.09291" lon="-1.61196">
        <ele>4.87</ele>
        <time>2020-06-03T17:19:19Z</time>
      </trkpt>
      <trkpt lat="47.09301" lon="-1.612">
        <ele>5.06</ele>
        <time>2020-06-03T17:19:21Z</time>
      </trkpt>
      <trkpt lat="47.09316" lon="-1.61206">
        <ele>5.73</ele>
        <time>2020-06-03T17:19:23Z</time>
      </trkpt>
      <trkpt lat="47.09328" lon="-1.6121">
        <ele>7.39</ele>
        <time>2020-06-03T17:19:25Z</time>
      </trkpt>
      <trkpt lat="47.09342" lon="-1.61213">
        <ele>9.57</ele>
        <time>2020-06-03T17:19:27Z</time>
      </trkpt>
      <trkpt lat="47.09354" lon="-1.61215">
        <ele>10.45</ele>
        <time>2020-06-03T17:19:29Z</time>
      </trkpt>
      <trkpt lat="47.09366" lon="-1.61217">
        <ele>10.38</ele>
        <time>2020-06-03T17:19:31Z</time>
      </trkpt>
      <trkpt lat="47.09378" lon="-1.6122">
        <ele>8.58</ele>
        <time>2020-06-03T17:19:33Z</time>
      </trkpt>
      <trkpt lat="47.09391" lon="-1.61225">
        <ele>7.47</ele>
        <time>2020-06-03T17:19:35Z</time>
      </trkpt>
      <trkpt lat="47.09404" lon="-1.6123">
        <ele>7.03</ele>
        <time>2020-06-03T17:19:37Z</time>
      </trkpt>
      <trkpt lat="47.09416" lon="-1.61236">
        <ele>5.96</ele>
        <time>2020-06-03T17:19:39Z</time>
      </trkpt>
      <trkpt lat="47.0943" lon="-1.61232">
        <ele>5.54</ele>
        <time>2020-06-03T17:19:41Z</time>
      </trkpt>
      <trkpt lat="47.09442" lon="-1.6122">
        <ele>6.09</ele>
        <time>2020-06-03T17:19:44Z</time>
      </trkpt>
      <trkpt lat="47.09453" lon="-1.61208">
        <ele>6.77</ele>
        <time>2020-06-03T17:19:46Z</time>
      </trkpt>
      <trkpt lat="47.09463" lon="-1.61194">
        <ele>7.13</ele>
        <time>2020-06-03T17:19:48Z</time>
      </trkpt>
      <trkpt lat="47.09474" lon="-1.6118">
        <ele>7.32</ele>
        <time>2020-06-03T17:19:50Z</time>
      </trkpt>
      <trkpt lat="47.09484" lon="-1.61167">
        <ele>6.31</ele>
        <time>2020-06-03T17:19:52Z</time>
      </trkpt>
      <trkpt lat="47.09495" lon="-1.61155">
        <ele>5.16</ele>
        <time>2020-06-03T17:19:54Z</time>
      </trkpt>
      <trkpt lat="47.09507" lon="-1.61145">
        <ele>4.12</ele>
        <time>2020-06-03T17:19:56Z</time>
      </trkpt>
      <trkpt lat="47.09519" lon="-1.6114">
        <ele>3.48</ele>
        <time>2020-06-03T17:19:58Z</time>
      </trkpt>
      <trkpt lat="47.09532" lon="-1.61137">
        <ele>3.16</ele>
        <time>2020-06-03T17:20:00Z</time>
      </trkpt>
      <trkpt lat="47.09546" lon="-1.61136">
        <ele>2.66</ele>
        <time>2020-06-03T17:20:02Z</time>
      </trkpt>
      <trkpt lat="47.09562" lon="-1.61134">
        <ele>2.82</ele>
        <time>2020-06-03T17:20:04Z</time>
      </trkpt>
      <trkpt lat="47.09576" lon="-1.61134">
        <ele>3.27</ele>
        <time>2020-06-03T17:20:06Z</time>
      </trkpt>
      <trkpt lat="47.09589" lon="-1.61132">
        <ele>3.29</ele>
        <time>2020-06-03T17:20:08Z</time>
      </trkpt>
      <trkpt lat="47.09603" lon="-1.61131">
        <ele>3.07</ele>
        <time>2020-06-03T17:20:10Z</time>
      </trkpt>
      <trkpt lat="47.09616" lon="-1.61128">
        <ele>3.47</ele>
        <time>2020-06-03T17:20:12Z</time>
      </trkpt>
      <trkpt lat="47.09629" lon="-1.61127">
        <ele>3.32</ele>
        <time>2020-06-03T17:20:14Z</time>
      </trkpt>
      <trkpt lat="47.09643" lon="-1.61125">
        <ele>3.01</ele>
        <time>2020-06-03T17:20:16Z</time>
      </trkpt>
      <trkpt lat="47.09658" lon="-1.61122">
        <ele>2.33</ele>
        <time>2020-06-03T17:20:18Z</time>
      </trkpt>
      <trkpt lat="47.09672" lon="-1.61121">
        <ele>2.2</ele>
        <time>2020-06-03T17:20:20Z</time>
      </trkpt>
      <trkpt lat="47.09686" lon="-1.6112">
        <ele>2.15</ele>
        <time>2020-06-03T17:20:22Z</time>
      </trkpt>
      <trkpt lat="47.097" lon="-1.61118">
        <ele>3.22</ele>
        <time>2020-06-03T17:20:24Z</time>
      </trkpt>
      <trkpt lat="47.09713" lon="-1.61118">
        <ele>4.42</ele>
        <time>2020-06-03T17:20:26Z</time>
      </trkpt>
      <trkpt lat="47.09726" lon="-1.61117">
        <ele>5.13</ele>
        <time>2020-06-03T17:20:28Z</time>
      </trkpt>
      <trkpt lat="47.09741" lon="-1.61116">
        <ele>5.41</ele>
        <time>2020-06-03T17:20:30Z</time>
      </trkpt>
      <trkpt lat="47.09754" lon="-1.61115">
        <ele>5.29</ele>
        <time>2020-06-03T17:20:32Z</time>
      </trkpt>
      <trkpt lat="47.09767" lon="-1.61114">
        <ele>5.71</ele>
        <time>2020-06-03T17:20:34Z</time>
      </trkpt>
      <trkpt lat="47.09779" lon="-1.61113">
        <ele>6.31</ele>
        <time>2020-06-03T17:20:36Z</time>
      </trkpt>
      <trkpt lat="47.09792" lon="-1.6111">
        <ele>6.86</ele>
        <time>2020-06-03T17:20:38Z</time>
      </trkpt>
      <trkpt lat="47.09805" lon="-1.61106">
        <ele>6.44</ele>
        <time>2020-06-03T17:20:40Z</time>
      </trkpt>
      <trkpt lat="47.09818" lon="-1.61099">
        <ele>4.97</ele>
        <time>2020-06-03T17:20:42Z</time>
      </trkpt>
      <trkpt lat="47.09829" lon="-1.61091">
        <ele>2.96</ele>
        <time>2020-06-03T17:20:44Z</time>
      </trkpt>
      <trkpt lat="47.09841" lon="-1.6108">
        <ele>1.28</ele>
        <time>2020-06-03T17:20:46Z</time>
      </trkpt>
      <trkpt lat="47.09851" lon="-1.61068">
        <ele>0.27</ele>
        <time>2020-06-03T17:20:48Z</time>
      </trkpt>
      <trkpt lat="47.0986" lon="-1.61054">
        <ele>0.03</ele>
        <time>2020-06-03T17:20:50Z</time>
      </trkpt>
      <trkpt lat="47.09869" lon="-1.6104">
        <ele>0.22</ele>
        <time>2020-06-03T17:20:52Z</time>
      </trkpt>
      <trkpt lat="47.09875" lon="-1.61024">
        <ele>0.56</ele>
        <time>2020-06-03T17:20:54Z</time>
      </trkpt>
      <trkpt lat="47.09881" lon="-1.6101">
        <ele>1.57</ele>
        <time>2020-06-03T17:20:56Z</time>
      </trkpt>
      <trkpt lat="47.09888" lon="-1.60992">
        <ele>2.22</ele>
        <time>2020-06-03T17:20:58Z</time>
      </trkpt>
      <trkpt lat="47.09894" lon="-1.60975">
        <ele>3.54</ele>
        <time>2020-06-03T17:21:00Z</time>
      </trkpt>
      <trkpt lat="47.099" lon="-1.60958">
        <ele>4.23</ele>
        <time>2020-06-03T17:21:02Z</time>
      </trkpt>
      <trkpt lat="47.09906" lon="-1.60941">
        <ele>4.78</ele>
        <time>2020-06-03T17:21:04Z</time>
      </trkpt>
      <trkpt lat="47.09912" lon="-1.60925">
        <ele>4.12</ele>
        <time>2020-06-03T17:21:06Z</time>
      </trkpt>
      <trkpt lat="47.09919" lon="-1.60906">
        <ele>4.19</ele>
        <time>2020-06-03T17:21:08Z</time>
      </trkpt>
      <trkpt lat="47.09925" lon="-1.60891">
        <ele>4.7</ele>
        <time>2020-06-03T17:21:10Z</time>
      </trkpt>
      <trkpt lat="47.09931" lon="-1.60874">
        <ele>5.28</ele>
        <time>2020-06-03T17:21:12Z</time>
      </trkpt>
      <trkpt lat="47.09937" lon="-1.60859">
        <ele>5.69</ele>
        <time>2020-06-03T17:21:14Z</time>
      </trkpt>
      <trkpt lat="47.09943" lon="-1.60844">
        <ele>5.49</ele>
        <time>2020-06-03T17:21:16Z</time>
      </trkpt>
      <trkpt lat="47.09949" lon="-1.60829">
        <ele>4.48</ele>
        <time>2020-06-03T17:21:18Z</time>
      </trkpt>
      <trkpt lat="47.09956" lon="-1.60808">
        <ele>4.66</ele>
        <time>2020-06-03T17:21:20Z</time>
      </trkpt>
      <trkpt lat="47.0996" lon="-1.60795">
        <ele>4.55</ele>
        <time>2020-06-03T17:21:22Z</time>
      </trkpt>
      <trkpt lat="47.09965" lon="-1.60778">
        <ele>4.01</ele>
        <time>2020-06-03T17:21:24Z</time>
      </trkpt>
      <trkpt lat="47.09969" lon="-1.60762">
        <ele>3.74</ele>
        <time>2020-06-03T17:21:26Z</time>
      </trkpt>
      <trkpt lat="47.09974" lon="-1.60745">
        <ele>4.12</ele>
        <time>2020-06-03T17:21:28Z</time>
      </trkpt>
      <trkpt lat="47.09978" lon="-1.60732">
        <ele>4.41</ele>
        <time>2020-06-03T17:21:30Z</time>
      </trkpt>
      <trkpt lat="47.09984" lon="-1.60715">
        <ele>4.84</ele>
        <time>2020-06-03T17:21:32Z</time>
      </trkpt>
      <trkpt lat="47.09989" lon="-1.60696">
        <ele>5.38</ele>
        <time>2020-06-03T17:21:34Z</time>
      </trkpt>
      <trkpt lat="47.09993" lon="-1.60681">
        <ele>6.05</ele>
        <time>2020-06-03T17:21:36Z</time>
      </trkpt>
      <trkpt lat="47.09998" lon="-1.60664">
        <ele>6.77</ele>
        <time>2020-06-03T17:21:38Z</time>
      </trkpt>
      <trkpt lat="47.10002" lon="-1.60649">
        <ele>6.98</ele>
        <time>2020-06-03T17:21:40Z</time>
      </trkpt>
      <trkpt lat="47.10008" lon="-1.6063">
        <ele>7.15</ele>
        <time>2020-06-03T17:21:42Z</time>
      </trkpt>
      <trkpt lat="47.10012" lon="-1.60616">
        <ele>7.61</ele>
        <time>2020-06-03T17:21:44Z</time>
      </trkpt>
      <trkpt lat="47.10017" lon="-1.60599">
        <ele>8.19</ele>
        <time>2020-06-03T17:21:46Z</time>
      </trkpt>
      <trkpt lat="47.10022" lon="-1.60584">
        <ele>7.92</ele>
        <time>2020-06-03T17:21:48Z</time>
      </trkpt>
      <trkpt lat="47.10027" lon="-1.60565">
        <ele>8.86</ele>
        <time>2020-06-03T17:21:50Z</time>
      </trkpt>
      <trkpt lat="47.10032" lon="-1.60548">
        <ele>10.26</ele>
        <time>2020-06-03T17:21:52Z</time>
      </trkpt>
      <trkpt lat="47.10037" lon="-1.6053">
        <ele>11.03</ele>
        <time>2020-06-03T17:21:54Z</time>
      </trkpt>
      <trkpt lat="47.10043" lon="-1.60513">
        <ele>10.37</ele>
        <time>2020-06-03T17:21:56Z</time>
      </trkpt>
      <trkpt lat="47.10047" lon="-1.60495">
        <ele>9.28</ele>
        <time>2020-06-03T17:21:58Z</time>
      </trkpt>
      <trkpt lat="47.10052" lon="-1.60477">
        <ele>8.41</ele>
        <time>2020-06-03T17:22:00Z</time>
      </trkpt>
      <trkpt lat="47.10055" lon="-1.60458">
        <ele>7.82</ele>
        <time>2020-06-03T17:22:02Z</time>
      </trkpt>
      <trkpt lat="47.10058" lon="-1.6044">
        <ele>7.13</ele>
        <time>2020-06-03T17:22:04Z</time>
      </trkpt>
      <trkpt lat="47.10061" lon="-1.60421">
        <ele>6.72</ele>
        <time>2020-06-03T17:22:06Z</time>
      </trkpt>
      <trkpt lat="47.10064" lon="-1.604">
        <ele>7.03</ele>
        <time>2020-06-03T17:22:08Z</time>
      </trkpt>
      <trkpt lat="47.10066" lon="-1.60382">
        <ele>7.39</ele>
        <time>2020-06-03T17:22:10Z</time>
      </trkpt>
      <trkpt lat="47.10068" lon="-1.60361">
        <ele>7.56</ele>
        <time>2020-06-03T17:22:12Z</time>
      </trkpt>
      <trkpt lat="47.1007" lon="-1.60342">
        <ele>7.82</ele>
        <time>2020-06-03T17:22:14Z</time>
      </trkpt>
      <trkpt lat="47.10071" lon="-1.60324">
        <ele>7.5</ele>
        <time>2020-06-03T17:22:16Z</time>
      </trkpt>
      <trkpt lat="47.10073" lon="-1.60304">
        <ele>6.81</ele>
        <time>2020-06-03T17:22:18Z</time>
      </trkpt>
      <trkpt lat="47.10075" lon="-1.60288">
        <ele>7.16</ele>
        <time>2020-06-03T17:22:20Z</time>
      </trkpt>
      <trkpt lat="47.10077" lon="-1.60267">
        <ele>6.59</ele>
        <time>2020-06-03T17:22:22Z</time>
      </trkpt>
      <trkpt lat="47.10078" lon="-1.60249">
        <ele>6.09</ele>
        <time>2020-06-03T17:22:24Z</time>
      </trkpt>
      <trkpt lat="47.10079" lon="-1.6023">
        <ele>6.07</ele>
        <time>2020-06-03T17:22:26Z</time>
      </trkpt>
      <trkpt lat="47.1008" lon="-1.60209">
        <ele>6.73</ele>
        <time>2020-06-03T17:22:28Z</time>
      </trkpt>
      <trkpt lat="47.10081" lon="-1.6019">
        <ele>6.85</ele>
        <time>2020-06-03T17:22:30Z</time>
      </trkpt>
      <trkpt lat="47.10082" lon="-1.60169">
        <ele>7.69</ele>
        <time>2020-06-03T17:22:32Z</time>
      </trkpt>
      <trkpt lat="47.10077" lon="-1.60151">
        <ele>8.01</ele>
        <time>2020-06-03T17:22:34Z</time>
      </trkpt>
      <trkpt lat="47.10073" lon="-1.60132">
        <ele>7.73</ele>
        <time>2020-06-03T17:22:36Z</time>
      </trkpt>
      <trkpt lat="47.10079" lon="-1.60113">
        <ele>7.2</ele>
        <time>2020-06-03T17:22:38Z</time>
      </trkpt>
      <trkpt lat="47.1009" lon="-1.60102">
        <ele>6.2</ele>
        <time>2020-06-03T17:22:40Z</time>
      </trkpt>
      <trkpt lat="47.10104" lon="-1.60095">
        <ele>6.61</ele>
        <time>2020-06-03T17:22:42Z</time>
      </trkpt>
      <trkpt lat="47.10114" lon="-1.60085">
        <ele>6.94</ele>
        <time>2020-06-03T17:22:44Z</time>
      </trkpt>
      <trkpt lat="47.10124" lon="-1.6007">
        <ele>7.64</ele>
        <time>2020-06-03T17:22:46Z</time>
      </trkpt>
      <trkpt lat="47.10134" lon="-1.60056">
        <ele>7.85</ele>
        <time>2020-06-03T17:22:48Z</time>
      </trkpt>
      <trkpt lat="47.10144" lon="-1.60041">
        <ele>7.94</ele>
        <time>2020-06-03T17:22:50Z</time>
      </trkpt>
      <trkpt lat="47.10154" lon="-1.60026">
        <ele>8.23</ele>
        <time>2020-06-03T17:22:52Z</time>
      </trkpt>
      <trkpt lat="47.10163" lon="-1.60011">
        <ele>8.75</ele>
        <time>2020-06-03T17:22:54Z</time>
      </trkpt>
      <trkpt lat="47.10171" lon="-1.59996">
        <ele>9.04</ele>
        <time>2020-06-03T17:22:56Z</time>
      </trkpt>
      <trkpt lat="47.1018" lon="-1.5998">
        <ele>8.76</ele>
        <time>2020-06-03T17:22:58Z</time>
      </trkpt>
      <trkpt lat="47.10189" lon="-1.59965">
        <ele>8.2</ele>
        <time>2020-06-03T17:23:00Z</time>
      </trkpt>
      <trkpt lat="47.10198" lon="-1.5995">
        <ele>8.48</ele>
        <time>2020-06-03T17:23:02Z</time>
      </trkpt>
      <trkpt lat="47.10205" lon="-1.59939">
        <ele>7.89</ele>
        <time>2020-06-03T17:23:04Z</time>
      </trkpt>
      <trkpt lat="47.10212" lon="-1.59926">
        <ele>6.75</ele>
        <time>2020-06-03T17:23:06Z</time>
      </trkpt>
      <trkpt lat="47.10221" lon="-1.59911">
        <ele>6.32</ele>
        <time>2020-06-03T17:23:08Z</time>
      </trkpt>
      <trkpt lat="47.10231" lon="-1.59895">
        <ele>6.73</ele>
        <time>2020-06-03T17:23:10Z</time>
      </trkpt>
      <trkpt lat="47.10239" lon="-1.5988">
        <ele>7.57</ele>
        <time>2020-06-03T17:23:12Z</time>
      </trkpt>
      <trkpt lat="47.10248" lon="-1.59865">
        <ele>7.9</ele>
        <time>2020-06-03T17:23:14Z</time>
      </trkpt>
      <trkpt lat="47.10257" lon="-1.5985">
        <ele>8.41</ele>
        <time>2020-06-03T17:23:16Z</time>
      </trkpt>
      <trkpt lat="47.10266" lon="-1.59835">
        <ele>9.11</ele>
        <time>2020-06-03T17:23:18Z</time>
      </trkpt>
      <trkpt lat="47.10274" lon="-1.59824">
        <ele>8.63</ele>
        <time>2020-06-03T17:23:20Z</time>
      </trkpt>
      <trkpt lat="47.10282" lon="-1.59813">
        <ele>7.62</ele>
        <time>2020-06-03T17:23:22Z</time>
      </trkpt>
      <trkpt lat="47.1029" lon="-1.59798">
        <ele>6.39</ele>
        <time>2020-06-03T17:23:24Z</time>
      </trkpt>
      <trkpt lat="47.10298" lon="-1.59784">
        <ele>5.89</ele>
        <time>2020-06-03T17:23:26Z</time>
      </trkpt>
      <trkpt lat="47.10307" lon="-1.59768">
        <ele>5.5</ele>
        <time>2020-06-03T17:23:28Z</time>
      </trkpt>
      <trkpt lat="47.10316" lon="-1.59753">
        <ele>5.32</ele>
        <time>2020-06-03T17:23:30Z</time>
      </trkpt>
      <trkpt lat="47.10323" lon="-1.59739">
        <ele>5.28</ele>
        <time>2020-06-03T17:23:32Z</time>
      </trkpt>
      <trkpt lat="47.10332" lon="-1.59725">
        <ele>5.81</ele>
        <time>2020-06-03T17:23:34Z</time>
      </trkpt>
      <trkpt lat="47.10341" lon="-1.59708">
        <ele>7.06</ele>
        <time>2020-06-03T17:23:36Z</time>
      </trkpt>
      <trkpt lat="47.10349" lon="-1.59694">
        <ele>7.17</ele>
        <time>2020-06-03T17:23:38Z</time>
      </trkpt>
      <trkpt lat="47.10356" lon="-1.59682">
        <ele>7.57</ele>
        <time>2020-06-03T17:23:40Z</time>
      </trkpt>
      <trkpt lat="47.10365" lon="-1.59667">
        <ele>8.39</ele>
        <time>2020-06-03T17:23:42Z</time>
      </trkpt>
      <trkpt lat="47.10373" lon="-1.59653">
        <ele>8.15</ele>
        <time>2020-06-03T17:23:44Z</time>
      </trkpt>
      <trkpt lat="47.10382" lon="-1.59639">
        <ele>8.41</ele>
        <time>2020-06-03T17:23:46Z</time>
      </trkpt>
      <trkpt lat="47.10389" lon="-1.59626">
        <ele>7.95</ele>
        <time>2020-06-03T17:23:48Z</time>
      </trkpt>
      <trkpt lat="47.10398" lon="-1.59612">
        <ele>6.97</ele>
        <time>2020-06-03T17:23:50Z</time>
      </trkpt>
      <trkpt lat="47.10406" lon="-1.59598">
        <ele>7.6</ele>
        <time>2020-06-03T17:23:52Z</time>
      </trkpt>
      <trkpt lat="47.10414" lon="-1.59584">
        <ele>7.8</ele>
        <time>2020-06-03T17:23:54Z</time>
      </trkpt>
      <trkpt lat="47.10422" lon="-1.5957">
        <ele>8.38</ele>
        <time>2020-06-03T17:23:56Z</time>
      </trkpt>
      <trkpt lat="47.10431" lon="-1.59556">
        <ele>8.08</ele>
        <time>2020-06-03T17:23:58Z</time>
      </trkpt>
      <trkpt lat="47.10441" lon="-1.5954">
        <ele>7.71</ele>
        <time>2020-06-03T17:24:00Z</time>
      </trkpt>
      <trkpt lat="47.1045" lon="-1.59525">
        <ele>6.72</ele>
        <time>2020-06-03T17:24:02Z</time>
      </trkpt>
      <trkpt lat="47.10459" lon="-1.5951">
        <ele>6.97</ele>
        <time>2020-06-03T17:24:04Z</time>
      </trkpt>
      <trkpt lat="47.10468" lon="-1.59495">
        <ele>7.33</ele>
        <time>2020-06-03T17:24:06Z</time>
      </trkpt>
      <trkpt lat="47.10477" lon="-1.5948">
        <ele>8.6</ele>
        <time>2020-06-03T17:24:08Z</time>
      </trkpt>
      <trkpt lat="47.10484" lon="-1.59468">
        <ele>9.12</ele>
        <time>2020-06-03T17:24:10Z</time>
      </trkpt>
      <trkpt lat="47.10493" lon="-1.59455">
        <ele>9.47</ele>
        <time>2020-06-03T17:24:12Z</time>
      </trkpt>
      <trkpt lat="47.10501" lon="-1.5944">
        <ele>8.81</ele>
        <time>2020-06-03T17:24:14Z</time>
      </trkpt>
      <trkpt lat="47.10509" lon="-1.59426">
        <ele>8.14</ele>
        <time>2020-06-03T17:24:16Z</time>
      </trkpt>
      <trkpt lat="47.10518" lon="-1.59411">
        <ele>8.42</ele>
        <time>2020-06-03T17:24:18Z</time>
      </trkpt>
      <trkpt lat="47.10527" lon="-1.59397">
        <ele>9.21</ele>
        <time>2020-06-03T17:24:20Z</time>
      </trkpt>
      <trkpt lat="47.10536" lon="-1.59381">
        <ele>9.22</ele>
        <time>2020-06-03T17:24:22Z</time>
      </trkpt>
      <trkpt lat="47.10544" lon="-1.59367">
        <ele>8.82</ele>
        <time>2020-06-03T17:24:24Z</time>
      </trkpt>
      <trkpt lat="47.10552" lon="-1.59354">
        <ele>8.44</ele>
        <time>2020-06-03T17:24:26Z</time>
      </trkpt>
      <trkpt lat="47.1056" lon="-1.5934">
        <ele>7</ele>
        <time>2020-06-03T17:24:28Z</time>
      </trkpt>
      <trkpt lat="47.10568" lon="-1.59326">
        <ele>7.02</ele>
        <time>2020-06-03T17:24:30Z</time>
      </trkpt>
      <trkpt lat="47.10576" lon="-1.5931">
        <ele>8.87</ele>
        <time>2020-06-03T17:24:32Z</time>
      </trkpt>
      <trkpt lat="47.10584" lon="-1.59298">
        <ele>10.13</ele>
        <time>2020-06-03T17:24:34Z</time>
      </trkpt>
      <trkpt lat="47.10592" lon="-1.59285">
        <ele>11.34</ele>
        <time>2020-06-03T17:24:36Z</time>
      </trkpt>
      <trkpt lat="47.10599" lon="-1.59273">
        <ele>11.6</ele>
        <time>2020-06-03T17:24:38Z</time>
      </trkpt>
      <trkpt lat="47.10607" lon="-1.59258">
        <ele>11.03</ele>
        <time>2020-06-03T17:24:40Z</time>
      </trkpt>
      <trkpt lat="47.10614" lon="-1.59242">
        <ele>11.06</ele>
        <time>2020-06-03T17:24:42Z</time>
      </trkpt>
      <trkpt lat="47.10622" lon="-1.59228">
        <ele>10.9</ele>
        <time>2020-06-03T17:24:44Z</time>
      </trkpt>
      <trkpt lat="47.10629" lon="-1.59215">
        <ele>11.64</ele>
        <time>2020-06-03T17:24:46Z</time>
      </trkpt>
      <trkpt lat="47.10638" lon="-1.59201">
        <ele>11.27</ele>
        <time>2020-06-03T17:24:48Z</time>
      </trkpt>
      <trkpt lat="47.10644" lon="-1.59189">
        <ele>10.83</ele>
        <time>2020-06-03T17:24:50Z</time>
      </trkpt>
      <trkpt lat="47.10652" lon="-1.59174">
        <ele>11.31</ele>
        <time>2020-06-03T17:24:52Z</time>
      </trkpt>
      <trkpt lat="47.10657" lon="-1.59161">
        <ele>11.21</ele>
        <time>2020-06-03T17:24:54Z</time>
      </trkpt>
      <trkpt lat="47.10663" lon="-1.59148">
        <ele>10.95</ele>
        <time>2020-06-03T17:24:56Z</time>
      </trkpt>
      <trkpt lat="47.10668" lon="-1.59132">
        <ele>12.36</ele>
        <time>2020-06-03T17:24:58Z</time>
      </trkpt>
      <trkpt lat="47.10673" lon="-1.59117">
        <ele>12.85</ele>
        <time>2020-06-03T17:25:00Z</time>
      </trkpt>
      <trkpt lat="47.10678" lon="-1.59101">
        <ele>13.27</ele>
        <time>2020-06-03T17:25:02Z</time>
      </trkpt>
      <trkpt lat="47.10684" lon="-1.59083">
        <ele>13.42</ele>
        <time>2020-06-03T17:25:04Z</time>
      </trkpt>
      <trkpt lat="47.10689" lon="-1.59071">
        <ele>13.44</ele>
        <time>2020-06-03T17:25:06Z</time>
      </trkpt>
      <trkpt lat="47.10693" lon="-1.59058">
        <ele>13.27</ele>
        <time>2020-06-03T17:25:08Z</time>
      </trkpt>
      <trkpt lat="47.10699" lon="-1.59042">
        <ele>14.79</ele>
        <time>2020-06-03T17:25:10Z</time>
      </trkpt>
      <trkpt lat="47.10705" lon="-1.59026">
        <ele>15.02</ele>
        <time>2020-06-03T17:25:12Z</time>
      </trkpt>
      <trkpt lat="47.10712" lon="-1.5901">
        <ele>13.96</ele>
        <time>2020-06-03T17:25:14Z</time>
      </trkpt>
      <trkpt lat="47.10718" lon="-1.58996">
        <ele>13.48</ele>
        <time>2020-06-03T17:25:16Z</time>
      </trkpt>
      <trkpt lat="47.10725" lon="-1.5898">
        <ele>13.74</ele>
        <time>2020-06-03T17:25:18Z</time>
      </trkpt>
      <trkpt lat="47.10731" lon="-1.58965">
        <ele>14.16</ele>
        <time>2020-06-03T17:25:20Z</time>
      </trkpt>
      <trkpt lat="47.10736" lon="-1.58951">
        <ele>14.29</ele>
        <time>2020-06-03T17:25:22Z</time>
      </trkpt>
      <trkpt lat="47.10742" lon="-1.58934">
        <ele>13.31</ele>
        <time>2020-06-03T17:25:24Z</time>
      </trkpt>
      <trkpt lat="47.10747" lon="-1.58922">
        <ele>13.92</ele>
        <time>2020-06-03T17:25:26Z</time>
      </trkpt>
      <trkpt lat="47.10753" lon="-1.58908">
        <ele>14.83</ele>
        <time>2020-06-03T17:25:28Z</time>
      </trkpt>
      <trkpt lat="47.10762" lon="-1.58892">
        <ele>15.65</ele>
        <time>2020-06-03T17:25:30Z</time>
      </trkpt>
      <trkpt lat="47.10772" lon="-1.58876">
        <ele>15.89</ele>
        <time>2020-06-03T17:25:32Z</time>
      </trkpt>
      <trkpt lat="47.10782" lon="-1.58863">
        <ele>15.46</ele>
        <time>2020-06-03T17:25:34Z</time>
      </trkpt>
      <trkpt lat="47.10791" lon="-1.58851">
        <ele>15.04</ele>
        <time>2020-06-03T17:25:36Z</time>
      </trkpt>
      <trkpt lat="47.10799" lon="-1.58838">
        <ele>15.15</ele>
        <time>2020-06-03T17:25:38Z</time>
      </trkpt>
      <trkpt lat="47.10807" lon="-1.58825">
        <ele>14.87</ele>
        <time>2020-06-03T17:25:40Z</time>
      </trkpt>
      <trkpt lat="47.10816" lon="-1.58811">
        <ele>14.7</ele>
        <time>2020-06-03T17:25:42Z</time>
      </trkpt>
      <trkpt lat="47.10827" lon="-1.58795">
        <ele>14.61</ele>
        <time>2020-06-03T17:25:44Z</time>
      </trkpt>
      <trkpt lat="47.10838" lon="-1.58779">
        <ele>14.23</ele>
        <time>2020-06-03T17:25:46Z</time>
      </trkpt>
      <trkpt lat="47.10848" lon="-1.58764">
        <ele>13.58</ele>
        <time>2020-06-03T17:25:48Z</time>
      </trkpt>
      <trkpt lat="47.10858" lon="-1.58749">
        <ele>12.77</ele>
        <time>2020-06-03T17:25:50Z</time>
      </trkpt>
      <trkpt lat="47.10869" lon="-1.58733">
        <ele>11.8</ele>
        <time>2020-06-03T17:25:52Z</time>
      </trkpt>
      <trkpt lat="47.10879" lon="-1.58717">
        <ele>11.15</ele>
        <time>2020-06-03T17:25:54Z</time>
      </trkpt>
      <trkpt lat="47.10889" lon="-1.58702">
        <ele>10.68</ele>
        <time>2020-06-03T17:25:56Z</time>
      </trkpt>
      <trkpt lat="47.10899" lon="-1.58685">
        <ele>10.61</ele>
        <time>2020-06-03T17:25:58Z</time>
      </trkpt>
      <trkpt lat="47.10909" lon="-1.58669">
        <ele>10.77</ele>
        <time>2020-06-03T17:26:00Z</time>
      </trkpt>
      <trkpt lat="47.1092" lon="-1.58654">
        <ele>11.34</ele>
        <time>2020-06-03T17:26:02Z</time>
      </trkpt>
      <trkpt lat="47.10933" lon="-1.58637">
        <ele>11.1</ele>
        <time>2020-06-03T17:26:04Z</time>
      </trkpt>
      <trkpt lat="47.10944" lon="-1.5862">
        <ele>10.49</ele>
        <time>2020-06-03T17:26:06Z</time>
      </trkpt>
      <trkpt lat="47.10951" lon="-1.58611">
        <ele>10.14</ele>
        <time>2020-06-03T17:26:07Z</time>
      </trkpt>
      <trkpt lat="47.10961" lon="-1.58594">
        <ele>9.67</ele>
        <time>2020-06-03T17:26:09Z</time>
      </trkpt>
      <trkpt lat="47.10972" lon="-1.58579">
        <ele>10.17</ele>
        <time>2020-06-03T17:26:11Z</time>
      </trkpt>
      <trkpt lat="47.10982" lon="-1.58563">
        <ele>10.89</ele>
        <time>2020-06-03T17:26:13Z</time>
      </trkpt>
      <trkpt lat="47.10993" lon="-1.58547">
        <ele>11.31</ele>
        <time>2020-06-03T17:26:15Z</time>
      </trkpt>
      <trkpt lat="47.11005" lon="-1.58529">
        <ele>11.06</ele>
        <time>2020-06-03T17:26:17Z</time>
      </trkpt>
      <trkpt lat="47.11015" lon="-1.58514">
        <ele>10.65</ele>
        <time>2020-06-03T17:26:19Z</time>
      </trkpt>
      <trkpt lat="47.11026" lon="-1.58496">
        <ele>10.63</ele>
        <time>2020-06-03T17:26:21Z</time>
      </trkpt>
      <trkpt lat="47.11037" lon="-1.58479">
        <ele>11.47</ele>
        <time>2020-06-03T17:26:23Z</time>
      </trkpt>
      <trkpt lat="47.11049" lon="-1.58462">
        <ele>11.01</ele>
        <time>2020-06-03T17:26:25Z</time>
      </trkpt>
      <trkpt lat="47.11059" lon="-1.58446">
        <ele>10.01</ele>
        <time>2020-06-03T17:26:27Z</time>
      </trkpt>
      <trkpt lat="47.11071" lon="-1.58428">
        <ele>9.58</ele>
        <time>2020-06-03T17:26:29Z</time>
      </trkpt>
      <trkpt lat="47.11082" lon="-1.58412">
        <ele>9.66</ele>
        <time>2020-06-03T17:26:31Z</time>
      </trkpt>
      <trkpt lat="47.11091" lon="-1.58397">
        <ele>9.13</ele>
        <time>2020-06-03T17:26:33Z</time>
      </trkpt>
      <trkpt lat="47.11102" lon="-1.58381">
        <ele>8.48</ele>
        <time>2020-06-03T17:26:35Z</time>
      </trkpt>
      <trkpt lat="47.11113" lon="-1.58364">
        <ele>7.68</ele>
        <time>2020-06-03T17:26:37Z</time>
      </trkpt>
      <trkpt lat="47.11124" lon="-1.58347">
        <ele>6.41</ele>
        <time>2020-06-03T17:26:39Z</time>
      </trkpt>
      <trkpt lat="47.11135" lon="-1.58332">
        <ele>6.27</ele>
        <time>2020-06-03T17:26:41Z</time>
      </trkpt>
      <trkpt lat="47.11146" lon="-1.58314">
        <ele>5.9</ele>
        <time>2020-06-03T17:26:43Z</time>
      </trkpt>
      <trkpt lat="47.11156" lon="-1.58298">
        <ele>5.54</ele>
        <time>2020-06-03T17:26:45Z</time>
      </trkpt>
      <trkpt lat="47.11167" lon="-1.58282">
        <ele>5.27</ele>
        <time>2020-06-03T17:26:47Z</time>
      </trkpt>
      <trkpt lat="47.11177" lon="-1.58265">
        <ele>5.36</ele>
        <time>2020-06-03T17:26:49Z</time>
      </trkpt>
      <trkpt lat="47.11188" lon="-1.5825">
        <ele>5.52</ele>
        <time>2020-06-03T17:26:51Z</time>
      </trkpt>
      <trkpt lat="47.11198" lon="-1.58234">
        <ele>5.32</ele>
        <time>2020-06-03T17:26:53Z</time>
      </trkpt>
      <trkpt lat="47.11208" lon="-1.5822">
        <ele>5.46</ele>
        <time>2020-06-03T17:26:55Z</time>
      </trkpt>
      <trkpt lat="47.11219" lon="-1.58204">
        <ele>6.1</ele>
        <time>2020-06-03T17:26:57Z</time>
      </trkpt>
      <trkpt lat="47.11231" lon="-1.58189">
        <ele>5.52</ele>
        <time>2020-06-03T17:26:59Z</time>
      </trkpt>
      <trkpt lat="47.11243" lon="-1.58174">
        <ele>5.12</ele>
        <time>2020-06-03T17:27:01Z</time>
      </trkpt>
      <trkpt lat="47.11256" lon="-1.58161">
        <ele>5.26</ele>
        <time>2020-06-03T17:27:03Z</time>
      </trkpt>
      <trkpt lat="47.11268" lon="-1.5815">
        <ele>5.07</ele>
        <time>2020-06-03T17:27:05Z</time>
      </trkpt>
      <trkpt lat="47.11281" lon="-1.58138">
        <ele>4.91</ele>
        <time>2020-06-03T17:27:07Z</time>
      </trkpt>
      <trkpt lat="47.11294" lon="-1.58128">
        <ele>5.99</ele>
        <time>2020-06-03T17:27:09Z</time>
      </trkpt>
      <trkpt lat="47.11309" lon="-1.58118">
        <ele>6.75</ele>
        <time>2020-06-03T17:27:11Z</time>
      </trkpt>
      <trkpt lat="47.11322" lon="-1.5811">
        <ele>6.22</ele>
        <time>2020-06-03T17:27:13Z</time>
      </trkpt>
      <trkpt lat="47.11334" lon="-1.58101">
        <ele>6.33</ele>
        <time>2020-06-03T17:27:15Z</time>
      </trkpt>
      <trkpt lat="47.11346" lon="-1.58094">
        <ele>5.72</ele>
        <time>2020-06-03T17:27:17Z</time>
      </trkpt>
      <trkpt lat="47.11359" lon="-1.58087">
        <ele>5.09</ele>
        <time>2020-06-03T17:27:19Z</time>
      </trkpt>
      <trkpt lat="47.11371" lon="-1.5808">
        <ele>4.84</ele>
        <time>2020-06-03T17:27:21Z</time>
      </trkpt>
      <trkpt lat="47.11384" lon="-1.58072">
        <ele>3.75</ele>
        <time>2020-06-03T17:27:23Z</time>
      </trkpt>
      <trkpt lat="47.11397" lon="-1.58064">
        <ele>4.2</ele>
        <time>2020-06-03T17:27:25Z</time>
      </trkpt>
      <trkpt lat="47.11409" lon="-1.58056">
        <ele>5.02</ele>
        <time>2020-06-03T17:27:27Z</time>
      </trkpt>
      <trkpt lat="47.11422" lon="-1.58048">
        <ele>5.36</ele>
        <time>2020-06-03T17:27:29Z</time>
      </trkpt>
      <trkpt lat="47.11435" lon="-1.5804">
        <ele>5.79</ele>
        <time>2020-06-03T17:27:31Z</time>
      </trkpt>
      <trkpt lat="47.11446" lon="-1.58035">
        <ele>5.67</ele>
        <time>2020-06-03T17:27:33Z</time>
      </trkpt>
      <trkpt lat="47.1146" lon="-1.5803">
        <ele>4.91</ele>
        <time>2020-06-03T17:27:35Z</time>
      </trkpt>
      <trkpt lat="47.11475" lon="-1.58026">
        <ele>3.85</ele>
        <time>2020-06-03T17:27:37Z</time>
      </trkpt>
      <trkpt lat="47.11487" lon="-1.58024">
        <ele>2.67</ele>
        <time>2020-06-03T17:27:39Z</time>
      </trkpt>
      <trkpt lat="47.11499" lon="-1.58022">
        <ele>2.08</ele>
        <time>2020-06-03T17:27:41Z</time>
      </trkpt>
      <trkpt lat="47.11512" lon="-1.58021">
        <ele>2.65</ele>
        <time>2020-06-03T17:27:43Z</time>
      </trkpt>
      <trkpt lat="47.11526" lon="-1.58021">
        <ele>4.13</ele>
        <time>2020-06-03T17:27:45Z</time>
      </trkpt>
      <trkpt lat="47.11539" lon="-1.58021">
        <ele>5.02</ele>
        <time>2020-06-03T17:27:47Z</time>
      </trkpt>
      <trkpt lat="47.11553" lon="-1.58021">
        <ele>5.33</ele>
        <time>2020-06-03T17:27:49Z</time>
      </trkpt>
      <trkpt lat="47.11568" lon="-1.58022">
        <ele>5.26</ele>
        <time>2020-06-03T17:27:51Z</time>
      </trkpt>
      <trkpt lat="47.11582" lon="-1.58023">
        <ele>5.43</ele>
        <time>2020-06-03T17:27:53Z</time>
      </trkpt>
      <trkpt lat="47.11596" lon="-1.58025">
        <ele>5.47</ele>
        <time>2020-06-03T17:27:55Z</time>
      </trkpt>
      <trkpt lat="47.11608" lon="-1.58027">
        <ele>6.05</ele>
        <time>2020-06-03T17:27:57Z</time>
      </trkpt>
      <trkpt lat="47.11623" lon="-1.58031">
        <ele>7.49</ele>
        <time>2020-06-03T17:27:59Z</time>
      </trkpt>
      <trkpt lat="47.11636" lon="-1.58029">
        <ele>8.63</ele>
        <time>2020-06-03T17:28:01Z</time>
      </trkpt>
      <trkpt lat="47.11648" lon="-1.58025">
        <ele>7.73</ele>
        <time>2020-06-03T17:28:03Z</time>
      </trkpt>
      <trkpt lat="47.11661" lon="-1.5803">
        <ele>6.66</ele>
        <time>2020-06-03T17:28:05Z</time>
      </trkpt>
      <trkpt lat="47.11676" lon="-1.58031">
        <ele>6.68</ele>
        <time>2020-06-03T17:28:07Z</time>
      </trkpt>
      <trkpt lat="47.11692" lon="-1.58031">
        <ele>6.84</ele>
        <time>2020-06-03T17:28:09Z</time>
      </trkpt>
      <trkpt lat="47.11707" lon="-1.58032">
        <ele>7.54</ele>
        <time>2020-06-03T17:28:11Z</time>
      </trkpt>
      <trkpt lat="47.1172" lon="-1.58034">
        <ele>7.3</ele>
        <time>2020-06-03T17:28:13Z</time>
      </trkpt>
      <trkpt lat="47.11736" lon="-1.58035">
        <ele>6.84</ele>
        <time>2020-06-03T17:28:15Z</time>
      </trkpt>
      <trkpt lat="47.11747" lon="-1.58038">
        <ele>6.17</ele>
        <time>2020-06-03T17:28:17Z</time>
      </trkpt>
      <trkpt lat="47.11761" lon="-1.58041">
        <ele>5.44</ele>
        <time>2020-06-03T17:28:19Z</time>
      </trkpt>
      <trkpt lat="47.11773" lon="-1.58044">
        <ele>5.13</ele>
        <time>2020-06-03T17:28:21Z</time>
      </trkpt>
      <trkpt lat="47.11786" lon="-1.58047">
        <ele>4.27</ele>
        <time>2020-06-03T17:28:23Z</time>
      </trkpt>
      <trkpt lat="47.11798" lon="-1.5805">
        <ele>4.33</ele>
        <time>2020-06-03T17:28:25Z</time>
      </trkpt>
      <trkpt lat="47.11811" lon="-1.58053">
        <ele>5.12</ele>
        <time>2020-06-03T17:28:27Z</time>
      </trkpt>
      <trkpt lat="47.11823" lon="-1.58057">
        <ele>5.51</ele>
        <time>2020-06-03T17:28:29Z</time>
      </trkpt>
      <trkpt lat="47.11835" lon="-1.5806">
        <ele>5.69</ele>
        <time>2020-06-03T17:28:31Z</time>
      </trkpt>
      <trkpt lat="47.11847" lon="-1.58063">
        <ele>5.17</ele>
        <time>2020-06-03T17:28:33Z</time>
      </trkpt>
      <trkpt lat="47.11858" lon="-1.58065">
        <ele>4.62</ele>
        <time>2020-06-03T17:28:35Z</time>
      </trkpt>
      <trkpt lat="47.1187" lon="-1.58067">
        <ele>3.88</ele>
        <time>2020-06-03T17:28:37Z</time>
      </trkpt>
      <trkpt lat="47.11882" lon="-1.5807">
        <ele>3.6</ele>
        <time>2020-06-03T17:28:38Z</time>
      </trkpt>
      <trkpt lat="47.11894" lon="-1.58072">
        <ele>3.08</ele>
        <time>2020-06-03T17:28:40Z</time>
      </trkpt>
      <trkpt lat="47.11905" lon="-1.58075">
        <ele>3.69</ele>
        <time>2020-06-03T17:28:42Z</time>
      </trkpt>
      <trkpt lat="47.11919" lon="-1.58078">
        <ele>4.05</ele>
        <time>2020-06-03T17:28:44Z</time>
      </trkpt>
      <trkpt lat="47.11932" lon="-1.58081">
        <ele>4.37</ele>
        <time>2020-06-03T17:28:46Z</time>
      </trkpt>
      <trkpt lat="47.11945" lon="-1.58083">
        <ele>4.81</ele>
        <time>2020-06-03T17:28:48Z</time>
      </trkpt>
      <trkpt lat="47.11958" lon="-1.58086">
        <ele>5.81</ele>
        <time>2020-06-03T17:28:50Z</time>
      </trkpt>
      <trkpt lat="47.1197" lon="-1.58089">
        <ele>6.5</ele>
        <time>2020-06-03T17:28:52Z</time>
      </trkpt>
      <trkpt lat="47.11981" lon="-1.58093">
        <ele>7.14</ele>
        <time>2020-06-03T17:28:54Z</time>
      </trkpt>
      <trkpt lat="47.11993" lon="-1.58096">
        <ele>8.28</ele>
        <time>2020-06-03T17:28:56Z</time>
      </trkpt>
      <trkpt lat="47.12005" lon="-1.58099">
        <ele>9.79</ele>
        <time>2020-06-03T17:28:58Z</time>
      </trkpt>
      <trkpt lat="47.12016" lon="-1.581">
        <ele>10</ele>
        <time>2020-06-03T17:29:00Z</time>
      </trkpt>
      <trkpt lat="47.12027" lon="-1.58102">
        <ele>10.31</ele>
        <time>2020-06-03T17:29:03Z</time>
      </trkpt>
      <trkpt lat="47.12036" lon="-1.58114">
        <ele>10.03</ele>
        <time>2020-06-03T17:29:05Z</time>
      </trkpt>
      <trkpt lat="47.12047" lon="-1.58122">
        <ele>9.73</ele>
        <time>2020-06-03T17:29:07Z</time>
      </trkpt>
      <trkpt lat="47.12059" lon="-1.58129">
        <ele>9.38</ele>
        <time>2020-06-03T17:29:09Z</time>
      </trkpt>
      <trkpt lat="47.12071" lon="-1.58137">
        <ele>9.36</ele>
        <time>2020-06-03T17:29:11Z</time>
      </trkpt>
      <trkpt lat="47.12083" lon="-1.58145">
        <ele>9.41</ele>
        <time>2020-06-03T17:29:13Z</time>
      </trkpt>
      <trkpt lat="47.12094" lon="-1.5815">
        <ele>8.49</ele>
        <time>2020-06-03T17:29:15Z</time>
      </trkpt>
      <trkpt lat="47.12106" lon="-1.58157">
        <ele>7.29</ele>
        <time>2020-06-03T17:29:17Z</time>
      </trkpt>
      <trkpt lat="47.12118" lon="-1.58165">
        <ele>5.88</ele>
        <time>2020-06-03T17:29:19Z</time>
      </trkpt>
      <trkpt lat="47.12129" lon="-1.58174">
        <ele>5.85</ele>
        <time>2020-06-03T17:29:21Z</time>
      </trkpt>
      <trkpt lat="47.12143" lon="-1.58186">
        <ele>6.33</ele>
        <time>2020-06-03T17:29:23Z</time>
      </trkpt>
      <trkpt lat="47.12154" lon="-1.58197">
        <ele>6.06</ele>
        <time>2020-06-03T17:29:25Z</time>
      </trkpt>
      <trkpt lat="47.12166" lon="-1.5821">
        <ele>5.03</ele>
        <time>2020-06-03T17:29:27Z</time>
      </trkpt>
      <trkpt lat="47.12178" lon="-1.58223">
        <ele>4.08</ele>
        <time>2020-06-03T17:29:29Z</time>
      </trkpt>
      <trkpt lat="47.1219" lon="-1.58236">
        <ele>3.38</ele>
        <time>2020-06-03T17:29:31Z</time>
      </trkpt>
      <trkpt lat="47.12202" lon="-1.58249">
        <ele>2.6</ele>
        <time>2020-06-03T17:29:33Z</time>
      </trkpt>
      <trkpt lat="47.12211" lon="-1.58257">
        <ele>2.25</ele>
        <time>2020-06-03T17:29:35Z</time>
      </trkpt>
      <trkpt lat="47.12223" lon="-1.58269">
        <ele>2.35</ele>
        <time>2020-06-03T17:29:37Z</time>
      </trkpt>
      <trkpt lat="47.12236" lon="-1.58281">
        <ele>1.83</ele>
        <time>2020-06-03T17:29:39Z</time>
      </trkpt>
      <trkpt lat="47.12248" lon="-1.58292">
        <ele>1.29</ele>
        <time>2020-06-03T17:29:41Z</time>
      </trkpt>
      <trkpt lat="47.1226" lon="-1.58304">
        <ele>0.85</ele>
        <time>2020-06-03T17:29:43Z</time>
      </trkpt>
      <trkpt lat="47.12273" lon="-1.58317">
        <ele>0.39</ele>
        <time>2020-06-03T17:29:45Z</time>
      </trkpt>
      <trkpt lat="47.12283" lon="-1.58327">
        <ele>1.02</ele>
        <time>2020-06-03T17:29:47Z</time>
      </trkpt>
      <trkpt lat="47.12294" lon="-1.58338">
        <ele>2.57</ele>
        <time>2020-06-03T17:29:49Z</time>
      </trkpt>
      <trkpt lat="47.12301" lon="-1.58347">
        <ele>3.95</ele>
        <time>2020-06-03T17:29:51Z</time>
      </trkpt>
      <trkpt lat="47.12303" lon="-1.58364">
        <ele>4.38</ele>
        <time>2020-06-03T17:29:53Z</time>
      </trkpt>
      <trkpt lat="47.12303" lon="-1.58383">
        <ele>4.45</ele>
        <time>2020-06-03T17:29:55Z</time>
      </trkpt>
      <trkpt lat="47.12306" lon="-1.58402">
        <ele>4.5</ele>
        <time>2020-06-03T17:29:57Z</time>
      </trkpt>
      <trkpt lat="47.12312" lon="-1.5842">
        <ele>4.21</ele>
        <time>2020-06-03T17:29:59Z</time>
      </trkpt>
      <trkpt lat="47.12319" lon="-1.58433">
        <ele>3.57</ele>
        <time>2020-06-03T17:30:01Z</time>
      </trkpt>
      <trkpt lat="47.12327" lon="-1.58443">
        <ele>3.98</ele>
        <time>2020-06-03T17:30:03Z</time>
      </trkpt>
      <trkpt lat="47.12333" lon="-1.58453">
        <ele>4.43</ele>
        <time>2020-06-03T17:30:05Z</time>
      </trkpt>
      <trkpt lat="47.12336" lon="-1.58471">
        <ele>4.57</ele>
        <time>2020-06-03T17:30:07Z</time>
      </trkpt>
      <trkpt lat="47.1234" lon="-1.58486">
        <ele>5.26</ele>
        <time>2020-06-03T17:30:09Z</time>
      </trkpt>
      <trkpt lat="47.12344" lon="-1.58503">
        <ele>6.19</ele>
        <time>2020-06-03T17:30:11Z</time>
      </trkpt>
      <trkpt lat="47.12348" lon="-1.5852">
        <ele>7.49</ele>
        <time>2020-06-03T17:30:13Z</time>
      </trkpt>
      <trkpt lat="47.12352" lon="-1.58537">
        <ele>7.86</ele>
        <time>2020-06-03T17:30:15Z</time>
      </trkpt>
      <trkpt lat="47.12355" lon="-1.58553">
        <ele>8.19</ele>
        <time>2020-06-03T17:30:17Z</time>
      </trkpt>
      <trkpt lat="47.12359" lon="-1.5857">
        <ele>8.19</ele>
        <time>2020-06-03T17:30:19Z</time>
      </trkpt>
      <trkpt lat="47.12362" lon="-1.58585">
        <ele>7.26</ele>
        <time>2020-06-03T17:30:21Z</time>
      </trkpt>
      <trkpt lat="47.12366" lon="-1.58601">
        <ele>5.85</ele>
        <time>2020-06-03T17:30:23Z</time>
      </trkpt>
      <trkpt lat="47.1237" lon="-1.58617">
        <ele>5.4</ele>
        <time>2020-06-03T17:30:25Z</time>
      </trkpt>
      <trkpt lat="47.12374" lon="-1.58633">
        <ele>4.88</ele>
        <time>2020-06-03T17:30:27Z</time>
      </trkpt>
      <trkpt lat="47.12379" lon="-1.58652">
        <ele>5.97</ele>
        <time>2020-06-03T17:30:30Z</time>
      </trkpt>
      <trkpt lat="47.12382" lon="-1.58666">
        <ele>7.6</ele>
        <time>2020-06-03T17:30:32Z</time>
      </trkpt>
      <trkpt lat="47.12385" lon="-1.58682">
        <ele>8.4</ele>
        <time>2020-06-03T17:30:34Z</time>
      </trkpt>
      <trkpt lat="47.12388" lon="-1.58697">
        <ele>8.79</ele>
        <time>2020-06-03T17:30:36Z</time>
      </trkpt>
      <trkpt lat="47.12392" lon="-1.58713">
        <ele>9.37</ele>
        <time>2020-06-03T17:30:38Z</time>
      </trkpt>
      <trkpt lat="47.12396" lon="-1.58729">
        <ele>9.59</ele>
        <time>2020-06-03T17:30:40Z</time>
      </trkpt>
      <trkpt lat="47.12399" lon="-1.58742">
        <ele>9.15</ele>
        <time>2020-06-03T17:30:42Z</time>
      </trkpt>
      <trkpt lat="47.12402" lon="-1.58756">
        <ele>9.45</ele>
        <time>2020-06-03T17:30:44Z</time>
      </trkpt>
      <trkpt lat="47.12405" lon="-1.5877">
        <ele>9.12</ele>
        <time>2020-06-03T17:30:46Z</time>
      </trkpt>
      <trkpt lat="47.12407" lon="-1.58784">
        <ele>9.45</ele>
        <time>2020-06-03T17:30:48Z</time>
      </trkpt>
      <trkpt lat="47.12409" lon="-1.588">
        <ele>9.06</ele>
        <time>2020-06-03T17:30:50Z</time>
      </trkpt>
      <trkpt lat="47.12411" lon="-1.58816">
        <ele>9.07</ele>
        <time>2020-06-03T17:30:52Z</time>
      </trkpt>
      <trkpt lat="47.12413" lon="-1.58833">
        <ele>9.2</ele>
        <time>2020-06-03T17:30:54Z</time>
      </trkpt>
      <trkpt lat="47.12415" lon="-1.5885">
        <ele>8.99</ele>
        <time>2020-06-03T17:30:56Z</time>
      </trkpt>
      <trkpt lat="47.12417" lon="-1.58867">
        <ele>9.18</ele>
        <time>2020-06-03T17:30:58Z</time>
      </trkpt>
      <trkpt lat="47.12418" lon="-1.58882">
        <ele>8.14</ele>
        <time>2020-06-03T17:31:00Z</time>
      </trkpt>
      <trkpt lat="47.1242" lon="-1.58898">
        <ele>7.24</ele>
        <time>2020-06-03T17:31:02Z</time>
      </trkpt>
      <trkpt lat="47.12421" lon="-1.58912">
        <ele>7</ele>
        <time>2020-06-03T17:31:04Z</time>
      </trkpt>
      <trkpt lat="47.12422" lon="-1.5893">
        <ele>7.55</ele>
        <time>2020-06-03T17:31:06Z</time>
      </trkpt>
      <trkpt lat="47.12424" lon="-1.58948">
        <ele>7.43</ele>
        <time>2020-06-03T17:31:08Z</time>
      </trkpt>
      <trkpt lat="47.12425" lon="-1.58965">
        <ele>6.63</ele>
        <time>2020-06-03T17:31:10Z</time>
      </trkpt>
      <trkpt lat="47.12427" lon="-1.58984">
        <ele>5.74</ele>
        <time>2020-06-03T17:31:12Z</time>
      </trkpt>
      <trkpt lat="47.12428" lon="-1.59001">
        <ele>4.69</ele>
        <time>2020-06-03T17:31:14Z</time>
      </trkpt>
      <trkpt lat="47.1243" lon="-1.59019">
        <ele>3.77</ele>
        <time>2020-06-03T17:31:16Z</time>
      </trkpt>
      <trkpt lat="47.12431" lon="-1.59037">
        <ele>3.02</ele>
        <time>2020-06-03T17:31:18Z</time>
      </trkpt>
      <trkpt lat="47.12431" lon="-1.59056">
        <ele>1.76</ele>
        <time>2020-06-03T17:31:20Z</time>
      </trkpt>
      <trkpt lat="47.12433" lon="-1.59074">
        <ele>0.98</ele>
        <time>2020-06-03T17:31:22Z</time>
      </trkpt>
      <trkpt lat="47.12434" lon="-1.59092">
        <ele>0.67</ele>
        <time>2020-06-03T17:31:24Z</time>
      </trkpt>
      <trkpt lat="47.12434" lon="-1.59109">
        <ele>0.4</ele>
        <time>2020-06-03T17:31:26Z</time>
      </trkpt>
      <trkpt lat="47.12435" lon="-1.59127">
        <ele>0.22</ele>
        <time>2020-06-03T17:31:28Z</time>
      </trkpt>
      <trkpt lat="47.12436" lon="-1.59143">
        <ele>0.77</ele>
        <time>2020-06-03T17:31:30Z</time>
      </trkpt>
      <trkpt lat="47.12437" lon="-1.59159">
        <ele>3.54</ele>
        <time>2020-06-03T17:31:32Z</time>
      </trkpt>
      <trkpt lat="47.1244" lon="-1.59176">
        <ele>5.57</ele>
        <time>2020-06-03T17:31:34Z</time>
      </trkpt>
      <trkpt lat="47.12442" lon="-1.59191">
        <ele>6.25</ele>
        <time>2020-06-03T17:31:36Z</time>
      </trkpt>
      <trkpt lat="47.12444" lon="-1.59208">
        <ele>5.97</ele>
        <time>2020-06-03T17:31:38Z</time>
      </trkpt>
      <trkpt lat="47.12442" lon="-1.59225">
        <ele>5</ele>
        <time>2020-06-03T17:31:40Z</time>
      </trkpt>
      <trkpt lat="47.12441" lon="-1.59242">
        <ele>4.41</ele>
        <time>2020-06-03T17:31:42Z</time>
      </trkpt>
      <trkpt lat="47.1244" lon="-1.5926">
        <ele>4.78</ele>
        <time>2020-06-03T17:31:44Z</time>
      </trkpt>
      <trkpt lat="47.1244" lon="-1.59277">
        <ele>4.92</ele>
        <time>2020-06-03T17:31:46Z</time>
      </trkpt>
      <trkpt lat="47.12441" lon="-1.59294">
        <ele>5.04</ele>
        <time>2020-06-03T17:31:48Z</time>
      </trkpt>
      <trkpt lat="47.12442" lon="-1.59312">
        <ele>4.04</ele>
        <time>2020-06-03T17:31:50Z</time>
      </trkpt>
      <trkpt lat="47.12443" lon="-1.5933">
        <ele>2.89</ele>
        <time>2020-06-03T17:31:52Z</time>
      </trkpt>
      <trkpt lat="47.12445" lon="-1.59348">
        <ele>1.56</ele>
        <time>2020-06-03T17:31:54Z</time>
      </trkpt>
      <trkpt lat="47.12446" lon="-1.59364">
        <ele>0.33</ele>
        <time>2020-06-03T17:31:56Z</time>
      </trkpt>
      <trkpt lat="47.12447" lon="-1.59379">
        <ele>0.12</ele>
        <time>2020-06-03T17:31:58Z</time>
      </trkpt>
      <trkpt lat="47.12447" lon="-1.59394">
        <ele>0.46</ele>
        <time>2020-06-03T17:32:00Z</time>
      </trkpt>
      <trkpt lat="47.12447" lon="-1.59409">
        <ele>0.06</ele>
        <time>2020-06-03T17:32:02Z</time>
      </trkpt>
      <trkpt lat="47.12448" lon="-1.59425">
        <ele>0.46</ele>
        <time>2020-06-03T17:32:04Z</time>
      </trkpt>
      <trkpt lat="47.12448" lon="-1.5944">
        <ele>1.99</ele>
        <time>2020-06-03T17:32:06Z</time>
      </trkpt>
      <trkpt lat="47.12449" lon="-1.59462">
        <ele>3.59</ele>
        <time>2020-06-03T17:32:09Z</time>
      </trkpt>
      <trkpt lat="47.1245" lon="-1.59477">
        <ele>5.24</ele>
        <time>2020-06-03T17:32:11Z</time>
      </trkpt>
      <trkpt lat="47.12451" lon="-1.59495">
        <ele>5.8</ele>
        <time>2020-06-03T17:32:13Z</time>
      </trkpt>
      <trkpt lat="47.12451" lon="-1.5951">
        <ele>6.44</ele>
        <time>2020-06-03T17:32:15Z</time>
      </trkpt>
      <trkpt lat="47.12451" lon="-1.59525">
        <ele>7.31</ele>
        <time>2020-06-03T17:32:17Z</time>
      </trkpt>
      <trkpt lat="47.12452" lon="-1.59541">
        <ele>8.27</ele>
        <time>2020-06-03T17:32:19Z</time>
      </trkpt>
      <trkpt lat="47.12452" lon="-1.59557">
        <ele>7.95</ele>
        <time>2020-06-03T17:32:21Z</time>
      </trkpt>
      <trkpt lat="47.12453" lon="-1.59574">
        <ele>8.46</ele>
        <time>2020-06-03T17:32:23Z</time>
      </trkpt>
      <trkpt lat="47.12454" lon="-1.5959">
        <ele>8.78</ele>
        <time>2020-06-03T17:32:25Z</time>
      </trkpt>
      <trkpt lat="47.12454" lon="-1.59605">
        <ele>7.5</ele>
        <time>2020-06-03T17:32:27Z</time>
      </trkpt>
      <trkpt lat="47.12455" lon="-1.59622">
        <ele>6.66</ele>
        <time>2020-06-03T17:32:29Z</time>
      </trkpt>
      <trkpt lat="47.12457" lon="-1.59636">
        <ele>6.7</ele>
        <time>2020-06-03T17:32:31Z</time>
      </trkpt>
      <trkpt lat="47.12458" lon="-1.59652">
        <ele>7.35</ele>
        <time>2020-06-03T17:32:33Z</time>
      </trkpt>
      <trkpt lat="47.12458" lon="-1.59668">
        <ele>6.52</ele>
        <time>2020-06-03T17:32:35Z</time>
      </trkpt>
      <trkpt lat="47.12459" lon="-1.59685">
        <ele>6.96</ele>
        <time>2020-06-03T17:32:37Z</time>
      </trkpt>
      <trkpt lat="47.1246" lon="-1.59701">
        <ele>7.47</ele>
        <time>2020-06-03T17:32:39Z</time>
      </trkpt>
      <trkpt lat="47.12461" lon="-1.59718">
        <ele>7.96</ele>
        <time>2020-06-03T17:32:41Z</time>
      </trkpt>
      <trkpt lat="47.12462" lon="-1.59734">
        <ele>8.56</ele>
        <time>2020-06-03T17:32:43Z</time>
      </trkpt>
      <trkpt lat="47.12462" lon="-1.59752">
        <ele>8.04</ele>
        <time>2020-06-03T17:32:45Z</time>
      </trkpt>
      <trkpt lat="47.12464" lon="-1.59767">
        <ele>8.72</ele>
        <time>2020-06-03T17:32:47Z</time>
      </trkpt>
      <trkpt lat="47.12465" lon="-1.59784">
        <ele>8.53</ele>
        <time>2020-06-03T17:32:49Z</time>
      </trkpt>
      <trkpt lat="47.12466" lon="-1.59801">
        <ele>9.28</ele>
        <time>2020-06-03T17:32:51Z</time>
      </trkpt>
      <trkpt lat="47.12467" lon="-1.59815">
        <ele>9.75</ele>
        <time>2020-06-03T17:32:53Z</time>
      </trkpt>
      <trkpt lat="47.12469" lon="-1.59833">
        <ele>9.68</ele>
        <time>2020-06-03T17:32:55Z</time>
      </trkpt>
      <trkpt lat="47.1247" lon="-1.5985">
        <ele>9.93</ele>
        <time>2020-06-03T17:32:57Z</time>
      </trkpt>
      <trkpt lat="47.1247" lon="-1.59867">
        <ele>9.93</ele>
        <time>2020-06-03T17:32:59Z</time>
      </trkpt>
      <trkpt lat="47.12471" lon="-1.59882">
        <ele>10.47</ele>
        <time>2020-06-03T17:33:01Z</time>
      </trkpt>
      <trkpt lat="47.12471" lon="-1.59897">
        <ele>10.28</ele>
        <time>2020-06-03T17:33:03Z</time>
      </trkpt>
      <trkpt lat="47.12471" lon="-1.59913">
        <ele>9.14</ele>
        <time>2020-06-03T17:33:05Z</time>
      </trkpt>
      <trkpt lat="47.12472" lon="-1.59931">
        <ele>8.93</ele>
        <time>2020-06-03T17:33:07Z</time>
      </trkpt>
      <trkpt lat="47.12472" lon="-1.59947">
        <ele>9.62</ele>
        <time>2020-06-03T17:33:09Z</time>
      </trkpt>
      <trkpt lat="47.12473" lon="-1.59966">
        <ele>9.77</ele>
        <time>2020-06-03T17:33:11Z</time>
      </trkpt>
      <trkpt lat="47.12473" lon="-1.59984">
        <ele>9.32</ele>
        <time>2020-06-03T17:33:13Z</time>
      </trkpt>
      <trkpt lat="47.12474" lon="-1.60002">
        <ele>8.5</ele>
        <time>2020-06-03T17:33:15Z</time>
      </trkpt>
      <trkpt lat="47.12476" lon="-1.60021">
        <ele>7.25</ele>
        <time>2020-06-03T17:33:17Z</time>
      </trkpt>
      <trkpt lat="47.12477" lon="-1.60042">
        <ele>5.95</ele>
        <time>2020-06-03T17:33:19Z</time>
      </trkpt>
      <trkpt lat="47.12478" lon="-1.60059">
        <ele>5.31</ele>
        <time>2020-06-03T17:33:21Z</time>
      </trkpt>
      <trkpt lat="47.12478" lon="-1.60077">
        <ele>5.04</ele>
        <time>2020-06-03T17:33:23Z</time>
      </trkpt>
      <trkpt lat="47.12478" lon="-1.60096">
        <ele>4.95</ele>
        <time>2020-06-03T17:33:25Z</time>
      </trkpt>
      <trkpt lat="47.12479" lon="-1.60115">
        <ele>3.09</ele>
        <time>2020-06-03T17:33:27Z</time>
      </trkpt>
      <trkpt lat="47.1248" lon="-1.60136">
        <ele>2.39</ele>
        <time>2020-06-03T17:33:29Z</time>
      </trkpt>
      <trkpt lat="47.12481" lon="-1.60154">
        <ele>1.08</ele>
        <time>2020-06-03T17:33:31Z</time>
      </trkpt>
      <trkpt lat="47.12483" lon="-1.60172">
        <ele>0.67</ele>
        <time>2020-06-03T17:33:33Z</time>
      </trkpt>
      <trkpt lat="47.12484" lon="-1.6019">
        <ele>0.15</ele>
        <time>2020-06-03T17:33:35Z</time>
      </trkpt>
      <trkpt lat="47.12486" lon="-1.6021">
        <ele>0.37</ele>
        <time>2020-06-03T17:33:37Z</time>
      </trkpt>
      <trkpt lat="47.12489" lon="-1.60228">
        <ele>0.89</ele>
        <time>2020-06-03T17:33:39Z</time>
      </trkpt>
      <trkpt lat="47.12492" lon="-1.60245">
        <ele>1.27</ele>
        <time>2020-06-03T17:33:41Z</time>
      </trkpt>
      <trkpt lat="47.12495" lon="-1.60263">
        <ele>1.97</ele>
        <time>2020-06-03T17:33:43Z</time>
      </trkpt>
      <trkpt lat="47.12499" lon="-1.6028">
        <ele>2.73</ele>
        <time>2020-06-03T17:33:45Z</time>
      </trkpt>
      <trkpt lat="47.12503" lon="-1.60295">
        <ele>2.66</ele>
        <time>2020-06-03T17:33:47Z</time>
      </trkpt>
      <trkpt lat="47.12507" lon="-1.60312">
        <ele>2.77</ele>
        <time>2020-06-03T17:33:49Z</time>
      </trkpt>
      <trkpt lat="47.1251" lon="-1.60331">
        <ele>3.55</ele>
        <time>2020-06-03T17:33:51Z</time>
      </trkpt>
      <trkpt lat="47.12515" lon="-1.60347">
        <ele>3.31</ele>
        <time>2020-06-03T17:33:54Z</time>
      </trkpt>
      <trkpt lat="47.12518" lon="-1.60364">
        <ele>3.19</ele>
        <time>2020-06-03T17:33:56Z</time>
      </trkpt>
      <trkpt lat="47.12521" lon="-1.60379">
        <ele>4.13</ele>
        <time>2020-06-03T17:33:58Z</time>
      </trkpt>
      <trkpt lat="47.12524" lon="-1.60396">
        <ele>4.81</ele>
        <time>2020-06-03T17:34:00Z</time>
      </trkpt>
      <trkpt lat="47.12527" lon="-1.60414">
        <ele>5.44</ele>
        <time>2020-06-03T17:34:02Z</time>
      </trkpt>
      <trkpt lat="47.12529" lon="-1.60427">
        <ele>6.13</ele>
        <time>2020-06-03T17:34:04Z</time>
      </trkpt>
      <trkpt lat="47.12532" lon="-1.60443">
        <ele>6.14</ele>
        <time>2020-06-03T17:34:06Z</time>
      </trkpt>
      <trkpt lat="47.12534" lon="-1.6046">
        <ele>6.41</ele>
        <time>2020-06-03T17:34:08Z</time>
      </trkpt>
      <trkpt lat="47.12537" lon="-1.60478">
        <ele>7.1</ele>
        <time>2020-06-03T17:34:10Z</time>
      </trkpt>
      <trkpt lat="47.12539" lon="-1.60494">
        <ele>8.09</ele>
        <time>2020-06-03T17:34:12Z</time>
      </trkpt>
      <trkpt lat="47.12541" lon="-1.6051">
        <ele>7.85</ele>
        <time>2020-06-03T17:34:14Z</time>
      </trkpt>
      <trkpt lat="47.12543" lon="-1.60529">
        <ele>7.66</ele>
        <time>2020-06-03T17:34:17Z</time>
      </trkpt>
      <trkpt lat="47.12544" lon="-1.60544">
        <ele>7.62</ele>
        <time>2020-06-03T17:34:19Z</time>
      </trkpt>
      <trkpt lat="47.12545" lon="-1.60559">
        <ele>7.14</ele>
        <time>2020-06-03T17:34:21Z</time>
      </trkpt>
      <trkpt lat="47.12546" lon="-1.60577">
        <ele>6.77</ele>
        <time>2020-06-03T17:34:23Z</time>
      </trkpt>
      <trkpt lat="47.12546" lon="-1.60596">
        <ele>5.45</ele>
        <time>2020-06-03T17:34:25Z</time>
      </trkpt>
      <trkpt lat="47.12546" lon="-1.60613">
        <ele>4.86</ele>
        <time>2020-06-03T17:34:27Z</time>
      </trkpt>
      <trkpt lat="47.12546" lon="-1.60629">
        <ele>4.88</ele>
        <time>2020-06-03T17:34:29Z</time>
      </trkpt>
      <trkpt lat="47.12546" lon="-1.60646">
        <ele>5.14</ele>
        <time>2020-06-03T17:34:31Z</time>
      </trkpt>
      <trkpt lat="47.12546" lon="-1.60661">
        <ele>5.74</ele>
        <time>2020-06-03T17:34:33Z</time>
      </trkpt>
      <trkpt lat="47.12546" lon="-1.60678">
        <ele>6.21</ele>
        <time>2020-06-03T17:34:35Z</time>
      </trkpt>
      <trkpt lat="47.12546" lon="-1.60694">
        <ele>7.12</ele>
        <time>2020-06-03T17:34:37Z</time>
      </trkpt>
      <trkpt lat="47.12547" lon="-1.6071">
        <ele>7.19</ele>
        <time>2020-06-03T17:34:39Z</time>
      </trkpt>
      <trkpt lat="47.12547" lon="-1.60727">
        <ele>6.99</ele>
        <time>2020-06-03T17:34:41Z</time>
      </trkpt>
      <trkpt lat="47.12546" lon="-1.60746">
        <ele>7.08</ele>
        <time>2020-06-03T17:34:43Z</time>
      </trkpt>
      <trkpt lat="47.12545" lon="-1.60764">
        <ele>7.64</ele>
        <time>2020-06-03T17:34:45Z</time>
      </trkpt>
      <trkpt lat="47.12544" lon="-1.60781">
        <ele>8.33</ele>
        <time>2020-06-03T17:34:47Z</time>
      </trkpt>
      <trkpt lat="47.12542" lon="-1.60799">
        <ele>8.97</ele>
        <time>2020-06-03T17:34:49Z</time>
      </trkpt>
      <trkpt lat="47.12541" lon="-1.60816">
        <ele>7.94</ele>
        <time>2020-06-03T17:34:51Z</time>
      </trkpt>
      <trkpt lat="47.12539" lon="-1.6083">
        <ele>7.12</ele>
        <time>2020-06-03T17:34:53Z</time>
      </trkpt>
      <trkpt lat="47.12537" lon="-1.60844">
        <ele>8.31</ele>
        <time>2020-06-03T17:34:55Z</time>
      </trkpt>
      <trkpt lat="47.12543" lon="-1.60855">
        <ele>9</ele>
        <time>2020-06-03T17:34:57Z</time>
      </trkpt>
      <trkpt lat="47.12556" lon="-1.6085">
        <ele>8.79</ele>
        <time>2020-06-03T17:34:59Z</time>
      </trkpt>
      <trkpt lat="47.1257" lon="-1.60843">
        <ele>8.73</ele>
        <time>2020-06-03T17:35:01Z</time>
      </trkpt>
      <trkpt lat="47.12585" lon="-1.60838">
        <ele>9.07</ele>
        <time>2020-06-03T17:35:03Z</time>
      </trkpt>
      <trkpt lat="47.12597" lon="-1.60834">
        <ele>9.64</ele>
        <time>2020-06-03T17:35:05Z</time>
      </trkpt>
      <trkpt lat="47.1261" lon="-1.6083">
        <ele>9.78</ele>
        <time>2020-06-03T17:35:07Z</time>
      </trkpt>
      <trkpt lat="47.12621" lon="-1.60826">
        <ele>9.56</ele>
        <time>2020-06-03T17:35:09Z</time>
      </trkpt>
      <trkpt lat="47.12633" lon="-1.60821">
        <ele>10.15</ele>
        <time>2020-06-03T17:35:11Z</time>
      </trkpt>
      <trkpt lat="47.12645" lon="-1.60818">
        <ele>10.4</ele>
        <time>2020-06-03T17:35:13Z</time>
      </trkpt>
      <trkpt lat="47.12656" lon="-1.60813">
        <ele>11.01</ele>
        <time>2020-06-03T17:35:15Z</time>
      </trkpt>
      <trkpt lat="47.12668" lon="-1.60808">
        <ele>11.97</ele>
        <time>2020-06-03T17:35:17Z</time>
      </trkpt>
      <trkpt lat="47.1268" lon="-1.60803">
        <ele>13.13</ele>
        <time>2020-06-03T17:35:19Z</time>
      </trkpt>
      <trkpt lat="47.12691" lon="-1.60798">
        <ele>13.39</ele>
        <time>2020-06-03T17:35:21Z</time>
      </trkpt>
      <trkpt lat="47.12702" lon="-1.60796">
        <ele>12.98</ele>
        <time>2020-06-03T17:35:23Z</time>
      </trkpt>
      <trkpt lat="47.12712" lon="-1.60792">
        <ele>11.49</ele>
        <time>2020-06-03T17:35:25Z</time>
      </trkpt>
      <trkpt lat="47.12724" lon="-1.60791">
        <ele>10</ele>
        <time>2020-06-03T17:35:27Z</time>
      </trkpt>
      <trkpt lat="47.12728" lon="-1.60804">
        <ele>8.86</ele>
        <time>2020-06-03T17:35:29Z</time>
      </trkpt>
      <trkpt lat="47.12726" lon="-1.60821">
        <ele>8.4</ele>
        <time>2020-06-03T17:35:31Z</time>
      </trkpt>
      <trkpt lat="47.12721" lon="-1.60838">
        <ele>8.65</ele>
        <time>2020-06-03T17:35:33Z</time>
      </trkpt>
      <trkpt lat="47.12717" lon="-1.60853">
        <ele>8.64</ele>
        <time>2020-06-03T17:35:35Z</time>
      </trkpt>
      <trkpt lat="47.12711" lon="-1.60867">
        <ele>8.79</ele>
        <time>2020-06-03T17:35:37Z</time>
      </trkpt>
      <trkpt lat="47.12706" lon="-1.60882">
        <ele>9.08</ele>
        <time>2020-06-03T17:35:39Z</time>
      </trkpt>
      <trkpt lat="47.12701" lon="-1.60899">
        <ele>9.43</ele>
        <time>2020-06-03T17:35:41Z</time>
      </trkpt>
      <trkpt lat="47.12698" lon="-1.60916">
        <ele>10.27</ele>
        <time>2020-06-03T17:35:43Z</time>
      </trkpt>
      <trkpt lat="47.12695" lon="-1.60932">
        <ele>9.95</ele>
        <time>2020-06-03T17:35:45Z</time>
      </trkpt>
      <trkpt lat="47.12694" lon="-1.60947">
        <ele>10.24</ele>
        <time>2020-06-03T17:35:47Z</time>
      </trkpt>
      <trkpt lat="47.12693" lon="-1.60966">
        <ele>10.87</ele>
        <time>2020-06-03T17:35:49Z</time>
      </trkpt>
      <trkpt lat="47.12692" lon="-1.60985">
        <ele>10.94</ele>
        <time>2020-06-03T17:35:51Z</time>
      </trkpt>
      <trkpt lat="47.12693" lon="-1.61003">
        <ele>10.48</ele>
        <time>2020-06-03T17:35:53Z</time>
      </trkpt>
      <trkpt lat="47.12691" lon="-1.61022">
        <ele>9.07</ele>
        <time>2020-06-03T17:35:55Z</time>
      </trkpt>
      <trkpt lat="47.1269" lon="-1.61038">
        <ele>8.25</ele>
        <time>2020-06-03T17:35:57Z</time>
      </trkpt>
      <trkpt lat="47.12689" lon="-1.61055">
        <ele>7.94</ele>
        <time>2020-06-03T17:35:59Z</time>
      </trkpt>
      <trkpt lat="47.12688" lon="-1.61071">
        <ele>7.33</ele>
        <time>2020-06-03T17:36:01Z</time>
      </trkpt>
      <trkpt lat="47.12687" lon="-1.61086">
        <ele>6.38</ele>
        <time>2020-06-03T17:36:03Z</time>
      </trkpt>
      <trkpt lat="47.12686" lon="-1.61103">
        <ele>7.14</ele>
        <time>2020-06-03T17:36:05Z</time>
      </trkpt>
      <trkpt lat="47.12685" lon="-1.61117">
        <ele>9.02</ele>
        <time>2020-06-03T17:36:07Z</time>
      </trkpt>
      <trkpt lat="47.12683" lon="-1.61134">
        <ele>10.13</ele>
        <time>2020-06-03T17:36:09Z</time>
      </trkpt>
      <trkpt lat="47.12682" lon="-1.61151">
        <ele>10.31</ele>
        <time>2020-06-03T17:36:11Z</time>
      </trkpt>
      <trkpt lat="47.12681" lon="-1.61169">
        <ele>9.7</ele>
        <time>2020-06-03T17:36:13Z</time>
      </trkpt>
      <trkpt lat="47.12678" lon="-1.61185">
        <ele>9.23</ele>
        <time>2020-06-03T17:36:15Z</time>
      </trkpt>
      <trkpt lat="47.12676" lon="-1.61202">
        <ele>8.92</ele>
        <time>2020-06-03T17:36:17Z</time>
      </trkpt>
      <trkpt lat="47.12673" lon="-1.61218">
        <ele>9.23</ele>
        <time>2020-06-03T17:36:19Z</time>
      </trkpt>
      <trkpt lat="47.12671" lon="-1.61233">
        <ele>8.4</ele>
        <time>2020-06-03T17:36:21Z</time>
      </trkpt>
      <trkpt lat="47.12669" lon="-1.6125">
        <ele>7.57</ele>
        <time>2020-06-03T17:36:23Z</time>
      </trkpt>
      <trkpt lat="47.12671" lon="-1.61266">
        <ele>6.04</ele>
        <time>2020-06-03T17:36:25Z</time>
      </trkpt>
      <trkpt lat="47.12676" lon="-1.61283">
        <ele>4.77</ele>
        <time>2020-06-03T17:36:27Z</time>
      </trkpt>
      <trkpt lat="47.12681" lon="-1.613">
        <ele>4.38</ele>
        <time>2020-06-03T17:36:29Z</time>
      </trkpt>
      <trkpt lat="47.12685" lon="-1.61314">
        <ele>5.31</ele>
        <time>2020-06-03T17:36:31Z</time>
      </trkpt>
      <trkpt lat="47.1269" lon="-1.61333">
        <ele>6.48</ele>
        <time>2020-06-03T17:36:33Z</time>
      </trkpt>
      <trkpt lat="47.12695" lon="-1.6135">
        <ele>7.03</ele>
        <time>2020-06-03T17:36:35Z</time>
      </trkpt>
      <trkpt lat="47.127" lon="-1.61364">
        <ele>8.29</ele>
        <time>2020-06-03T17:36:37Z</time>
      </trkpt>
      <trkpt lat="47.12706" lon="-1.6138">
        <ele>9.57</ele>
        <time>2020-06-03T17:36:39Z</time>
      </trkpt>
      <trkpt lat="47.12711" lon="-1.61393">
        <ele>10.39</ele>
        <time>2020-06-03T17:36:41Z</time>
      </trkpt>
      <trkpt lat="47.12718" lon="-1.61407">
        <ele>10.24</ele>
        <time>2020-06-03T17:36:43Z</time>
      </trkpt>
      <trkpt lat="47.12724" lon="-1.61421">
        <ele>9.65</ele>
        <time>2020-06-03T17:36:45Z</time>
      </trkpt>
      <trkpt lat="47.12731" lon="-1.61441">
        <ele>9.85</ele>
        <time>2020-06-03T17:36:47Z</time>
      </trkpt>
      <trkpt lat="47.12737" lon="-1.61457">
        <ele>11.33</ele>
        <time>2020-06-03T17:36:49Z</time>
      </trkpt>
      <trkpt lat="47.12744" lon="-1.61472">
        <ele>13.02</ele>
        <time>2020-06-03T17:36:51Z</time>
      </trkpt>
      <trkpt lat="47.12751" lon="-1.61487">
        <ele>13.15</ele>
        <time>2020-06-03T17:36:53Z</time>
      </trkpt>
      <trkpt lat="47.12757" lon="-1.615">
        <ele>13.29</ele>
        <time>2020-06-03T17:36:55Z</time>
      </trkpt>
      <trkpt lat="47.12764" lon="-1.61515">
        <ele>12.97</ele>
        <time>2020-06-03T17:36:57Z</time>
      </trkpt>
      <trkpt lat="47.12771" lon="-1.61531">
        <ele>11.89</ele>
        <time>2020-06-03T17:36:59Z</time>
      </trkpt>
      <trkpt lat="47.12779" lon="-1.61547">
        <ele>11.56</ele>
        <time>2020-06-03T17:37:01Z</time>
      </trkpt>
      <trkpt lat="47.12786" lon="-1.61564">
        <ele>11.98</ele>
        <time>2020-06-03T17:37:03Z</time>
      </trkpt>
      <trkpt lat="47.12793" lon="-1.61578">
        <ele>11.68</ele>
        <time>2020-06-03T17:37:05Z</time>
      </trkpt>
      <trkpt lat="47.12797" lon="-1.61591">
        <ele>10.17</ele>
        <time>2020-06-03T17:37:07Z</time>
      </trkpt>
      <trkpt lat="47.12802" lon="-1.61606">
        <ele>9.74</ele>
        <time>2020-06-03T17:37:09Z</time>
      </trkpt>
      <trkpt lat="47.12807" lon="-1.61622">
        <ele>8.69</ele>
        <time>2020-06-03T17:37:11Z</time>
      </trkpt>
      <trkpt lat="47.12813" lon="-1.61639">
        <ele>8.67</ele>
        <time>2020-06-03T17:37:13Z</time>
      </trkpt>
      <trkpt lat="47.12819" lon="-1.61654">
        <ele>9.87</ele>
        <time>2020-06-03T17:37:16Z</time>
      </trkpt>
      <trkpt lat="47.12824" lon="-1.61669">
        <ele>8.41</ele>
        <time>2020-06-03T17:37:22Z</time>
      </trkpt>
      <trkpt lat="47.12832" lon="-1.61688">
        <ele>4.07</ele>
        <time>2020-06-03T17:37:25Z</time>
      </trkpt>
      <trkpt lat="47.12839" lon="-1.61702">
        <ele>3.35</ele>
        <time>2020-06-03T17:37:27Z</time>
      </trkpt>
      <trkpt lat="47.12846" lon="-1.61716">
        <ele>4.19</ele>
        <time>2020-06-03T17:37:29Z</time>
      </trkpt>
      <trkpt lat="47.12854" lon="-1.61733">
        <ele>4.5</ele>
        <time>2020-06-03T17:37:31Z</time>
      </trkpt>
      <trkpt lat="47.12862" lon="-1.6175">
        <ele>5.02</ele>
        <time>2020-06-03T17:37:33Z</time>
      </trkpt>
      <trkpt lat="47.1287" lon="-1.61767">
        <ele>5.84</ele>
        <time>2020-06-03T17:37:35Z</time>
      </trkpt>
      <trkpt lat="47.12878" lon="-1.61783">
        <ele>6.18</ele>
        <time>2020-06-03T17:37:37Z</time>
      </trkpt>
      <trkpt lat="47.12886" lon="-1.61801">
        <ele>6.55</ele>
        <time>2020-06-03T17:37:39Z</time>
      </trkpt>
      <trkpt lat="47.12892" lon="-1.61816">
        <ele>7.28</ele>
        <time>2020-06-03T17:37:41Z</time>
      </trkpt>
      <trkpt lat="47.12898" lon="-1.61835">
        <ele>7.21</ele>
        <time>2020-06-03T17:37:43Z</time>
      </trkpt>
      <trkpt lat="47.12904" lon="-1.61854">
        <ele>6.44</ele>
        <time>2020-06-03T17:37:45Z</time>
      </trkpt>
      <trkpt lat="47.12909" lon="-1.61874">
        <ele>5.67</ele>
        <time>2020-06-03T17:37:47Z</time>
      </trkpt>
      <trkpt lat="47.12912" lon="-1.61894">
        <ele>3.94</ele>
        <time>2020-06-03T17:37:49Z</time>
      </trkpt>
      <trkpt lat="47.12914" lon="-1.61914">
        <ele>4.1</ele>
        <time>2020-06-03T17:37:51Z</time>
      </trkpt>
      <trkpt lat="47.12916" lon="-1.61935">
        <ele>5.67</ele>
        <time>2020-06-03T17:37:53Z</time>
      </trkpt>
      <trkpt lat="47.12918" lon="-1.61956">
        <ele>6.84</ele>
        <time>2020-06-03T17:37:55Z</time>
      </trkpt>
      <trkpt lat="47.12922" lon="-1.61974">
        <ele>6.23</ele>
        <time>2020-06-03T17:37:57Z</time>
      </trkpt>
      <trkpt lat="47.12926" lon="-1.61992">
        <ele>6.05</ele>
        <time>2020-06-03T17:37:59Z</time>
      </trkpt>
      <trkpt lat="47.1293" lon="-1.62009">
        <ele>6.42</ele>
        <time>2020-06-03T17:38:01Z</time>
      </trkpt>
      <trkpt lat="47.12935" lon="-1.62027">
        <ele>6.79</ele>
        <time>2020-06-03T17:38:03Z</time>
      </trkpt>
      <trkpt lat="47.12939" lon="-1.62044">
        <ele>7.78</ele>
        <time>2020-06-03T17:38:05Z</time>
      </trkpt>
      <trkpt lat="47.12945" lon="-1.62061">
        <ele>8.65</ele>
        <time>2020-06-03T17:38:07Z</time>
      </trkpt>
      <trkpt lat="47.12952" lon="-1.62078">
        <ele>8.37</ele>
        <time>2020-06-03T17:38:09Z</time>
      </trkpt>
      <trkpt lat="47.12961" lon="-1.62094">
        <ele>7.41</ele>
        <time>2020-06-03T17:38:11Z</time>
      </trkpt>
      <trkpt lat="47.12969" lon="-1.62107">
        <ele>6.83</ele>
        <time>2020-06-03T17:38:13Z</time>
      </trkpt>
      <trkpt lat="47.12978" lon="-1.62123">
        <ele>7.12</ele>
        <time>2020-06-03T17:38:15Z</time>
      </trkpt>
      <trkpt lat="47.12987" lon="-1.62138">
        <ele>6.94</ele>
        <time>2020-06-03T17:38:17Z</time>
      </trkpt>
      <trkpt lat="47.12997" lon="-1.62152">
        <ele>6.07</ele>
        <time>2020-06-03T17:38:19Z</time>
      </trkpt>
      <trkpt lat="47.13005" lon="-1.62165">
        <ele>4.82</ele>
        <time>2020-06-03T17:38:21Z</time>
      </trkpt>
      <trkpt lat="47.13012" lon="-1.62179">
        <ele>3.62</ele>
        <time>2020-06-03T17:38:23Z</time>
      </trkpt>
      <trkpt lat="47.13021" lon="-1.62192">
        <ele>3.13</ele>
        <time>2020-06-03T17:38:25Z</time>
      </trkpt>
      <trkpt lat="47.13031" lon="-1.62206">
        <ele>3.03</ele>
        <time>2020-06-03T17:38:27Z</time>
      </trkpt>
      <trkpt lat="47.1304" lon="-1.62218">
        <ele>3</ele>
        <time>2020-06-03T17:38:29Z</time>
      </trkpt>
      <trkpt lat="47.13048" lon="-1.6223">
        <ele>2.87</ele>
        <time>2020-06-03T17:38:31Z</time>
      </trkpt>
      <trkpt lat="47.13056" lon="-1.62243">
        <ele>2.24</ele>
        <time>2020-06-03T17:38:33Z</time>
      </trkpt>
      <trkpt lat="47.13064" lon="-1.62256">
        <ele>0.69</ele>
        <time>2020-06-03T17:38:35Z</time>
      </trkpt>
      <trkpt lat="47.13071" lon="-1.62266">
        <ele>1.02</ele>
        <time>2020-06-03T17:38:37Z</time>
      </trkpt>
      <trkpt lat="47.13081" lon="-1.62281">
        <ele>1.87</ele>
        <time>2020-06-03T17:38:39Z</time>
      </trkpt>
      <trkpt lat="47.13089" lon="-1.62293">
        <ele>2.88</ele>
        <time>2020-06-03T17:38:41Z</time>
      </trkpt>
      <trkpt lat="47.13098" lon="-1.62305">
        <ele>3.84</ele>
        <time>2020-06-03T17:38:43Z</time>
      </trkpt>
      <trkpt lat="47.13109" lon="-1.62311">
        <ele>5.49</ele>
        <time>2020-06-03T17:38:45Z</time>
      </trkpt>
      <trkpt lat="47.13119" lon="-1.62295">
        <ele>6.91</ele>
        <time>2020-06-03T17:38:47Z</time>
      </trkpt>
      <trkpt lat="47.13126" lon="-1.62275">
        <ele>8.03</ele>
        <time>2020-06-03T17:38:49Z</time>
      </trkpt>
      <trkpt lat="47.13132" lon="-1.6226">
        <ele>8.44</ele>
        <time>2020-06-03T17:38:51Z</time>
      </trkpt>
      <trkpt lat="47.13138" lon="-1.62247">
        <ele>8.61</ele>
        <time>2020-06-03T17:38:53Z</time>
      </trkpt>
      <trkpt lat="47.13145" lon="-1.62232">
        <ele>9.69</ele>
        <time>2020-06-03T17:38:55Z</time>
      </trkpt>
      <trkpt lat="47.13152" lon="-1.62217">
        <ele>10.52</ele>
        <time>2020-06-03T17:38:57Z</time>
      </trkpt>
      <trkpt lat="47.13159" lon="-1.62202">
        <ele>10.83</ele>
        <time>2020-06-03T17:38:59Z</time>
      </trkpt>
      <trkpt lat="47.13166" lon="-1.62188">
        <ele>11.45</ele>
        <time>2020-06-03T17:39:01Z</time>
      </trkpt>
      <trkpt lat="47.13172" lon="-1.62174">
        <ele>11.31</ele>
        <time>2020-06-03T17:39:03Z</time>
      </trkpt>
      <trkpt lat="47.1318" lon="-1.62159">
        <ele>11.78</ele>
        <time>2020-06-03T17:39:05Z</time>
      </trkpt>
      <trkpt lat="47.13187" lon="-1.62146">
        <ele>12.26</ele>
        <time>2020-06-03T17:39:07Z</time>
      </trkpt>
      <trkpt lat="47.13194" lon="-1.62133">
        <ele>12.03</ele>
        <time>2020-06-03T17:39:09Z</time>
      </trkpt>
      <trkpt lat="47.13201" lon="-1.62121">
        <ele>11.32</ele>
        <time>2020-06-03T17:39:11Z</time>
      </trkpt>
      <trkpt lat="47.13209" lon="-1.62106">
        <ele>11.27</ele>
        <time>2020-06-03T17:39:13Z</time>
      </trkpt>
      <trkpt lat="47.13217" lon="-1.62091">
        <ele>11.55</ele>
        <time>2020-06-03T17:39:15Z</time>
      </trkpt>
      <trkpt lat="47.13225" lon="-1.62078">
        <ele>11.57</ele>
        <time>2020-06-03T17:39:17Z</time>
      </trkpt>
      <trkpt lat="47.13233" lon="-1.62065">
        <ele>11.24</ele>
        <time>2020-06-03T17:39:19Z</time>
      </trkpt>
      <trkpt lat="47.13242" lon="-1.62052">
        <ele>11.57</ele>
        <time>2020-06-03T17:39:21Z</time>
      </trkpt>
      <trkpt lat="47.13251" lon="-1.62041">
        <ele>12.5</ele>
        <time>2020-06-03T17:39:23Z</time>
      </trkpt>
      <trkpt lat="47.13261" lon="-1.62029">
        <ele>13.32</ele>
        <time>2020-06-03T17:39:25Z</time>
      </trkpt>
      <trkpt lat="47.13271" lon="-1.62017">
        <ele>13.61</ele>
        <time>2020-06-03T17:39:27Z</time>
      </trkpt>
      <trkpt lat="47.13281" lon="-1.62007">
        <ele>13.58</ele>
        <time>2020-06-03T17:39:29Z</time>
      </trkpt>
      <trkpt lat="47.13291" lon="-1.62">
        <ele>13.61</ele>
        <time>2020-06-03T17:39:31Z</time>
      </trkpt>
      <trkpt lat="47.13302" lon="-1.61992">
        <ele>13.38</ele>
        <time>2020-06-03T17:39:33Z</time>
      </trkpt>
      <trkpt lat="47.13312" lon="-1.61985">
        <ele>13.41</ele>
        <time>2020-06-03T17:39:35Z</time>
      </trkpt>
      <trkpt lat="47.13322" lon="-1.61977">
        <ele>13.94</ele>
        <time>2020-06-03T17:39:37Z</time>
      </trkpt>
      <trkpt lat="47.13334" lon="-1.61969">
        <ele>14.1</ele>
        <time>2020-06-03T17:39:39Z</time>
      </trkpt>
      <trkpt lat="47.13345" lon="-1.61962">
        <ele>13.21</ele>
        <time>2020-06-03T17:39:41Z</time>
      </trkpt>
      <trkpt lat="47.13356" lon="-1.61954">
        <ele>12.81</ele>
        <time>2020-06-03T17:39:43Z</time>
      </trkpt>
      <trkpt lat="47.13368" lon="-1.61945">
        <ele>12.61</ele>
        <time>2020-06-03T17:39:45Z</time>
      </trkpt>
      <trkpt lat="47.13378" lon="-1.61937">
        <ele>11.95</ele>
        <time>2020-06-03T17:39:47Z</time>
      </trkpt>
      <trkpt lat="47.13388" lon="-1.6193">
        <ele>12.4</ele>
        <time>2020-06-03T17:39:49Z</time>
      </trkpt>
      <trkpt lat="47.13399" lon="-1.61921">
        <ele>12.96</ele>
        <time>2020-06-03T17:39:51Z</time>
      </trkpt>
      <trkpt lat="47.1341" lon="-1.61912">
        <ele>13.26</ele>
        <time>2020-06-03T17:39:53Z</time>
      </trkpt>
      <trkpt lat="47.13421" lon="-1.61904">
        <ele>13.19</ele>
        <time>2020-06-03T17:39:55Z</time>
      </trkpt>
      <trkpt lat="47.13434" lon="-1.61893">
        <ele>13.87</ele>
        <time>2020-06-03T17:39:57Z</time>
      </trkpt>
      <trkpt lat="47.13444" lon="-1.61884">
        <ele>14.06</ele>
        <time>2020-06-03T17:39:59Z</time>
      </trkpt>
      <trkpt lat="47.13454" lon="-1.61877">
        <ele>14.11</ele>
        <time>2020-06-03T17:40:01Z</time>
      </trkpt>
      <trkpt lat="47.13464" lon="-1.6187">
        <ele>14.01</ele>
        <time>2020-06-03T17:40:03Z</time>
      </trkpt>
      <trkpt lat="47.13476" lon="-1.61861">
        <ele>14.1</ele>
        <time>2020-06-03T17:40:05Z</time>
      </trkpt>
      <trkpt lat="47.13488" lon="-1.61853">
        <ele>13.51</ele>
        <time>2020-06-03T17:40:07Z</time>
      </trkpt>
      <trkpt lat="47.13499" lon="-1.61847">
        <ele>13.25</ele>
        <time>2020-06-03T17:40:09Z</time>
      </trkpt>
      <trkpt lat="47.13509" lon="-1.61842">
        <ele>13.07</ele>
        <time>2020-06-03T17:40:11Z</time>
      </trkpt>
      <trkpt lat="47.13522" lon="-1.61836">
        <ele>13.12</ele>
        <time>2020-06-03T17:40:13Z</time>
      </trkpt>
      <trkpt lat="47.13535" lon="-1.6183">
        <ele>13.29</ele>
        <time>2020-06-03T17:40:15Z</time>
      </trkpt>
      <trkpt lat="47.13547" lon="-1.61824">
        <ele>13.63</ele>
        <time>2020-06-03T17:40:17Z</time>
      </trkpt>
      <trkpt lat="47.1356" lon="-1.61818">
        <ele>13.38</ele>
        <time>2020-06-03T17:40:19Z</time>
      </trkpt>
      <trkpt lat="47.13571" lon="-1.61813">
        <ele>12.66</ele>
        <time>2020-06-03T17:40:21Z</time>
      </trkpt>
      <trkpt lat="47.13583" lon="-1.61806">
        <ele>11.02</ele>
        <time>2020-06-03T17:40:23Z</time>
      </trkpt>
      <trkpt lat="47.13596" lon="-1.61799">
        <ele>10.36</ele>
        <time>2020-06-03T17:40:25Z</time>
      </trkpt>
      <trkpt lat="47.13608" lon="-1.61795">
        <ele>11.08</ele>
        <time>2020-06-03T17:40:27Z</time>
      </trkpt>
      <trkpt lat="47.1362" lon="-1.61793">
        <ele>12.26</ele>
        <time>2020-06-03T17:40:29Z</time>
      </trkpt>
      <trkpt lat="47.1363" lon="-1.61789">
        <ele>13.52</ele>
        <time>2020-06-03T17:40:31Z</time>
      </trkpt>
      <trkpt lat="47.13641" lon="-1.61785">
        <ele>13.47</ele>
        <time>2020-06-03T17:40:33Z</time>
      </trkpt>
      <trkpt lat="47.13653" lon="-1.61779">
        <ele>13.7</ele>
        <time>2020-06-03T17:40:35Z</time>
      </trkpt>
      <trkpt lat="47.13664" lon="-1.61773">
        <ele>14.55</ele>
        <time>2020-06-03T17:40:37Z</time>
      </trkpt>
      <trkpt lat="47.13676" lon="-1.61767">
        <ele>14.47</ele>
        <time>2020-06-03T17:40:39Z</time>
      </trkpt>
      <trkpt lat="47.13688" lon="-1.6176">
        <ele>14.66</ele>
        <time>2020-06-03T17:40:41Z</time>
      </trkpt>
      <trkpt lat="47.137" lon="-1.61752">
        <ele>14.07</ele>
        <time>2020-06-03T17:40:43Z</time>
      </trkpt>
      <trkpt lat="47.13711" lon="-1.61744">
        <ele>14.17</ele>
        <time>2020-06-03T17:40:45Z</time>
      </trkpt>
      <trkpt lat="47.13721" lon="-1.61735">
        <ele>13.8</ele>
        <time>2020-06-03T17:40:47Z</time>
      </trkpt>
      <trkpt lat="47.13731" lon="-1.61728">
        <ele>13.47</ele>
        <time>2020-06-03T17:40:49Z</time>
      </trkpt>
      <trkpt lat="47.13739" lon="-1.61721">
        <ele>13.3</ele>
        <time>2020-06-03T17:40:51Z</time>
      </trkpt>
      <trkpt lat="47.13749" lon="-1.61723">
        <ele>14.51</ele>
        <time>2020-06-03T17:40:54Z</time>
      </trkpt>
      <trkpt lat="47.13747" lon="-1.61742">
        <ele>15.15</ele>
        <time>2020-06-03T17:40:56Z</time>
      </trkpt>
      <trkpt lat="47.13741" lon="-1.61764">
        <ele>15.78</ele>
        <time>2020-06-03T17:40:58Z</time>
      </trkpt>
      <trkpt lat="47.13737" lon="-1.6178">
        <ele>16.43</ele>
        <time>2020-06-03T17:41:00Z</time>
      </trkpt>
      <trkpt lat="47.13733" lon="-1.61795">
        <ele>16.34</ele>
        <time>2020-06-03T17:41:02Z</time>
      </trkpt>
      <trkpt lat="47.1373" lon="-1.61813">
        <ele>16.78</ele>
        <time>2020-06-03T17:41:04Z</time>
      </trkpt>
      <trkpt lat="47.13728" lon="-1.61827">
        <ele>17.08</ele>
        <time>2020-06-03T17:41:06Z</time>
      </trkpt>
      <trkpt lat="47.13726" lon="-1.61844">
        <ele>17.91</ele>
        <time>2020-06-03T17:41:08Z</time>
      </trkpt>
      <trkpt lat="47.13724" lon="-1.61864">
        <ele>17.6</ele>
        <time>2020-06-03T17:41:10Z</time>
      </trkpt>
      <trkpt lat="47.13724" lon="-1.61879">
        <ele>17.37</ele>
        <time>2020-06-03T17:41:12Z</time>
      </trkpt>
      <trkpt lat="47.13723" lon="-1.61897">
        <ele>16.38</ele>
        <time>2020-06-03T17:41:14Z</time>
      </trkpt>
      <trkpt lat="47.13722" lon="-1.61915">
        <ele>15.16</ele>
        <time>2020-06-03T17:41:16Z</time>
      </trkpt>
      <trkpt lat="47.13721" lon="-1.61933">
        <ele>14.71</ele>
        <time>2020-06-03T17:41:18Z</time>
      </trkpt>
      <trkpt lat="47.13721" lon="-1.61949">
        <ele>14.72</ele>
        <time>2020-06-03T17:41:20Z</time>
      </trkpt>
      <trkpt lat="47.13722" lon="-1.61966">
        <ele>14.26</ele>
        <time>2020-06-03T17:41:22Z</time>
      </trkpt>
      <trkpt lat="47.13725" lon="-1.61981">
        <ele>14.69</ele>
        <time>2020-06-03T17:41:24Z</time>
      </trkpt>
      <trkpt lat="47.13727" lon="-1.61998">
        <ele>14.82</ele>
        <time>2020-06-03T17:41:26Z</time>
      </trkpt>
      <trkpt lat="47.13729" lon="-1.62015">
        <ele>15.43</ele>
        <time>2020-06-03T17:41:28Z</time>
      </trkpt>
      <trkpt lat="47.13732" lon="-1.62032">
        <ele>15.88</ele>
        <time>2020-06-03T17:41:30Z</time>
      </trkpt>
      <trkpt lat="47.13734" lon="-1.62047">
        <ele>16.03</ele>
        <time>2020-06-03T17:41:32Z</time>
      </trkpt>
      <trkpt lat="47.13737" lon="-1.62064">
        <ele>16.71</ele>
        <time>2020-06-03T17:41:34Z</time>
      </trkpt>
      <trkpt lat="47.13739" lon="-1.62082">
        <ele>16.25</ele>
        <time>2020-06-03T17:41:36Z</time>
      </trkpt>
      <trkpt lat="47.13742" lon="-1.621">
        <ele>16.02</ele>
        <time>2020-06-03T17:41:38Z</time>
      </trkpt>
      <trkpt lat="47.13744" lon="-1.62115">
        <ele>16.84</ele>
        <time>2020-06-03T17:41:40Z</time>
      </trkpt>
      <trkpt lat="47.13746" lon="-1.62134">
        <ele>16.49</ele>
        <time>2020-06-03T17:41:42Z</time>
      </trkpt>
      <trkpt lat="47.13748" lon="-1.62149">
        <ele>16.58</ele>
        <time>2020-06-03T17:41:44Z</time>
      </trkpt>
      <trkpt lat="47.1375" lon="-1.62166">
        <ele>17.3</ele>
        <time>2020-06-03T17:41:46Z</time>
      </trkpt>
      <trkpt lat="47.13752" lon="-1.62184">
        <ele>18.47</ele>
        <time>2020-06-03T17:41:48Z</time>
      </trkpt>
      <trkpt lat="47.13754" lon="-1.62201">
        <ele>18.38</ele>
        <time>2020-06-03T17:41:50Z</time>
      </trkpt>
      <trkpt lat="47.13756" lon="-1.62218">
        <ele>18.65</ele>
        <time>2020-06-03T17:41:52Z</time>
      </trkpt>
      <trkpt lat="47.13758" lon="-1.62237">
        <ele>19.18</ele>
        <time>2020-06-03T17:41:54Z</time>
      </trkpt>
      <trkpt lat="47.1376" lon="-1.62254">
        <ele>19.33</ele>
        <time>2020-06-03T17:41:56Z</time>
      </trkpt>
      <trkpt lat="47.13762" lon="-1.62269">
        <ele>19.6</ele>
        <time>2020-06-03T17:41:58Z</time>
      </trkpt>
      <trkpt lat="47.13764" lon="-1.62288">
        <ele>19.62</ele>
        <time>2020-06-03T17:42:00Z</time>
      </trkpt>
      <trkpt lat="47.13765" lon="-1.62305">
        <ele>18.98</ele>
        <time>2020-06-03T17:42:02Z</time>
      </trkpt>
      <trkpt lat="47.13766" lon="-1.62321">
        <ele>18.45</ele>
        <time>2020-06-03T17:42:04Z</time>
      </trkpt>
      <trkpt lat="47.13766" lon="-1.62338">
        <ele>18.03</ele>
        <time>2020-06-03T17:42:06Z</time>
      </trkpt>
      <trkpt lat="47.13765" lon="-1.62356">
        <ele>16.27</ele>
        <time>2020-06-03T17:42:08Z</time>
      </trkpt>
      <trkpt lat="47.13765" lon="-1.62375">
        <ele>14.88</ele>
        <time>2020-06-03T17:42:10Z</time>
      </trkpt>
      <trkpt lat="47.13764" lon="-1.62393">
        <ele>14.05</ele>
        <time>2020-06-03T17:42:12Z</time>
      </trkpt>
      <trkpt lat="47.13763" lon="-1.62415">
        <ele>13.12</ele>
        <time>2020-06-03T17:42:14Z</time>
      </trkpt>
      <trkpt lat="47.13763" lon="-1.62436">
        <ele>12.87</ele>
        <time>2020-06-03T17:42:16Z</time>
      </trkpt>
      <trkpt lat="47.13764" lon="-1.62456">
        <ele>11.95</ele>
        <time>2020-06-03T17:42:18Z</time>
      </trkpt>
      <trkpt lat="47.13765" lon="-1.62477">
        <ele>11.41</ele>
        <time>2020-06-03T17:42:20Z</time>
      </trkpt>
      <trkpt lat="47.13768" lon="-1.625">
        <ele>11.24</ele>
        <time>2020-06-03T17:42:22Z</time>
      </trkpt>
      <trkpt lat="47.1377" lon="-1.62521">
        <ele>11.35</ele>
        <time>2020-06-03T17:42:24Z</time>
      </trkpt>
      <trkpt lat="47.13771" lon="-1.62543">
        <ele>11.22</ele>
        <time>2020-06-03T17:42:26Z</time>
      </trkpt>
      <trkpt lat="47.13773" lon="-1.62564">
        <ele>11.06</ele>
        <time>2020-06-03T17:42:28Z</time>
      </trkpt>
      <trkpt lat="47.13775" lon="-1.62583">
        <ele>10.69</ele>
        <time>2020-06-03T17:42:30Z</time>
      </trkpt>
      <trkpt lat="47.13776" lon="-1.62599">
        <ele>10.64</ele>
        <time>2020-06-03T17:42:32Z</time>
      </trkpt>
      <trkpt lat="47.13778" lon="-1.62615">
        <ele>11.05</ele>
        <time>2020-06-03T17:42:34Z</time>
      </trkpt>
      <trkpt lat="47.1378" lon="-1.62631">
        <ele>11.75</ele>
        <time>2020-06-03T17:42:36Z</time>
      </trkpt>
      <trkpt lat="47.13781" lon="-1.62647">
        <ele>12.53</ele>
        <time>2020-06-03T17:42:38Z</time>
      </trkpt>
      <trkpt lat="47.13783" lon="-1.62661">
        <ele>13.6</ele>
        <time>2020-06-03T17:42:40Z</time>
      </trkpt>
      <trkpt lat="47.13784" lon="-1.62678">
        <ele>14.68</ele>
        <time>2020-06-03T17:42:42Z</time>
      </trkpt>
      <trkpt lat="47.13784" lon="-1.62695">
        <ele>15.73</ele>
        <time>2020-06-03T17:42:44Z</time>
      </trkpt>
      <trkpt lat="47.13783" lon="-1.62709">
        <ele>15.81</ele>
        <time>2020-06-03T17:42:46Z</time>
      </trkpt>
      <trkpt lat="47.13782" lon="-1.62726">
        <ele>16.3</ele>
        <time>2020-06-03T17:42:48Z</time>
      </trkpt>
      <trkpt lat="47.13781" lon="-1.62743">
        <ele>16.96</ele>
        <time>2020-06-03T17:42:50Z</time>
      </trkpt>
      <trkpt lat="47.13782" lon="-1.62759">
        <ele>17.11</ele>
        <time>2020-06-03T17:42:52Z</time>
      </trkpt>
      <trkpt lat="47.13784" lon="-1.62781">
        <ele>16.68</ele>
        <time>2020-06-03T17:42:54Z</time>
      </trkpt>
      <trkpt lat="47.13788" lon="-1.62802">
        <ele>16.1</ele>
        <time>2020-06-03T17:42:56Z</time>
      </trkpt>
      <trkpt lat="47.13795" lon="-1.62818">
        <ele>15.47</ele>
        <time>2020-06-03T17:42:58Z</time>
      </trkpt>
      <trkpt lat="47.13801" lon="-1.62832">
        <ele>14.76</ele>
        <time>2020-06-03T17:43:00Z</time>
      </trkpt>
      <trkpt lat="47.13807" lon="-1.62846">
        <ele>13.92</ele>
        <time>2020-06-03T17:43:02Z</time>
      </trkpt>
      <trkpt lat="47.13814" lon="-1.62861">
        <ele>13.52</ele>
        <time>2020-06-03T17:43:04Z</time>
      </trkpt>
      <trkpt lat="47.13821" lon="-1.62877">
        <ele>13.21</ele>
        <time>2020-06-03T17:43:06Z</time>
      </trkpt>
      <trkpt lat="47.13825" lon="-1.6289">
        <ele>13.71</ele>
        <time>2020-06-03T17:43:08Z</time>
      </trkpt>
      <trkpt lat="47.13828" lon="-1.62908">
        <ele>13.63</ele>
        <time>2020-06-03T17:43:10Z</time>
      </trkpt>
      <trkpt lat="47.13828" lon="-1.62925">
        <ele>12.97</ele>
        <time>2020-06-03T17:43:12Z</time>
      </trkpt>
      <trkpt lat="47.13826" lon="-1.62946">
        <ele>12.39</ele>
        <time>2020-06-03T17:43:15Z</time>
      </trkpt>
      <trkpt lat="47.13824" lon="-1.62964">
        <ele>11.95</ele>
        <time>2020-06-03T17:43:17Z</time>
      </trkpt>
      <trkpt lat="47.13822" lon="-1.62979">
        <ele>11.62</ele>
        <time>2020-06-03T17:43:19Z</time>
      </trkpt>
      <trkpt lat="47.13819" lon="-1.62997">
        <ele>10.72</ele>
        <time>2020-06-03T17:43:21Z</time>
      </trkpt>
      <trkpt lat="47.13817" lon="-1.63018">
        <ele>10.47</ele>
        <time>2020-06-03T17:43:23Z</time>
      </trkpt>
      <trkpt lat="47.13817" lon="-1.63037">
        <ele>10.43</ele>
        <time>2020-06-03T17:43:25Z</time>
      </trkpt>
      <trkpt lat="47.13818" lon="-1.63058">
        <ele>11.38</ele>
        <time>2020-06-03T17:43:27Z</time>
      </trkpt>
      <trkpt lat="47.13832" lon="-1.63064">
        <ele>11.54</ele>
        <time>2020-06-03T17:43:29Z</time>
      </trkpt>
      <trkpt lat="47.13846" lon="-1.63063">
        <ele>12.22</ele>
        <time>2020-06-03T17:43:31Z</time>
      </trkpt>
      <trkpt lat="47.1386" lon="-1.63061">
        <ele>13.15</ele>
        <time>2020-06-03T17:43:33Z</time>
      </trkpt>
      <trkpt lat="47.13874" lon="-1.63058">
        <ele>13.71</ele>
        <time>2020-06-03T17:43:35Z</time>
      </trkpt>
      <trkpt lat="47.13887" lon="-1.63056">
        <ele>13.86</ele>
        <time>2020-06-03T17:43:37Z</time>
      </trkpt>
      <trkpt lat="47.13898" lon="-1.63054">
        <ele>13.29</ele>
        <time>2020-06-03T17:43:39Z</time>
      </trkpt>
      <trkpt lat="47.13911" lon="-1.63052">
        <ele>12.51</ele>
        <time>2020-06-03T17:43:41Z</time>
      </trkpt>
      <trkpt lat="47.13925" lon="-1.63048">
        <ele>11.31</ele>
        <time>2020-06-03T17:43:43Z</time>
      </trkpt>
      <trkpt lat="47.13937" lon="-1.63044">
        <ele>10.36</ele>
        <time>2020-06-03T17:43:45Z</time>
      </trkpt>
      <trkpt lat="47.13949" lon="-1.63039">
        <ele>9.6</ele>
        <time>2020-06-03T17:43:47Z</time>
      </trkpt>
      <trkpt lat="47.1396" lon="-1.63033">
        <ele>8.64</ele>
        <time>2020-06-03T17:43:49Z</time>
      </trkpt>
      <trkpt lat="47.13971" lon="-1.63026">
        <ele>7.77</ele>
        <time>2020-06-03T17:43:51Z</time>
      </trkpt>
      <trkpt lat="47.13983" lon="-1.6302">
        <ele>7.26</ele>
        <time>2020-06-03T17:43:53Z</time>
      </trkpt>
      <trkpt lat="47.13995" lon="-1.63012">
        <ele>7.53</ele>
        <time>2020-06-03T17:43:55Z</time>
      </trkpt>
      <trkpt lat="47.14007" lon="-1.63005">
        <ele>8.25</ele>
        <time>2020-06-03T17:43:57Z</time>
      </trkpt>
      <trkpt lat="47.14017" lon="-1.62999">
        <ele>8.26</ele>
        <time>2020-06-03T17:43:59Z</time>
      </trkpt>
      <trkpt lat="47.14027" lon="-1.62994">
        <ele>9.15</ele>
        <time>2020-06-03T17:44:01Z</time>
      </trkpt>
      <trkpt lat="47.14038" lon="-1.62989">
        <ele>9.78</ele>
        <time>2020-06-03T17:44:03Z</time>
      </trkpt>
      <trkpt lat="47.14047" lon="-1.62985">
        <ele>12.29</ele>
        <time>2020-06-03T17:44:05Z</time>
      </trkpt>
      <trkpt lat="47.14058" lon="-1.62981">
        <ele>13.85</ele>
        <time>2020-06-03T17:44:07Z</time>
      </trkpt>
      <trkpt lat="47.14069" lon="-1.6298">
        <ele>14.98</ele>
        <time>2020-06-03T17:44:09Z</time>
      </trkpt>
      <trkpt lat="47.1408" lon="-1.62978">
        <ele>15.22</ele>
        <time>2020-06-03T17:44:11Z</time>
      </trkpt>
      <trkpt lat="47.14093" lon="-1.62978">
        <ele>15.71</ele>
        <time>2020-06-03T17:44:13Z</time>
      </trkpt>
      <trkpt lat="47.14106" lon="-1.62979">
        <ele>17.27</ele>
        <time>2020-06-03T17:44:15Z</time>
      </trkpt>
      <trkpt lat="47.14117" lon="-1.62981">
        <ele>17.54</ele>
        <time>2020-06-03T17:44:17Z</time>
      </trkpt>
      <trkpt lat="47.14128" lon="-1.62984">
        <ele>19.57</ele>
        <time>2020-06-03T17:44:19Z</time>
      </trkpt>
      <trkpt lat="47.14139" lon="-1.62988">
        <ele>20.35</ele>
        <time>2020-06-03T17:44:21Z</time>
      </trkpt>
      <trkpt lat="47.1415" lon="-1.62992">
        <ele>20.26</ele>
        <time>2020-06-03T17:44:23Z</time>
      </trkpt>
      <trkpt lat="47.14161" lon="-1.62998">
        <ele>18.78</ele>
        <time>2020-06-03T17:44:25Z</time>
      </trkpt>
      <trkpt lat="47.14174" lon="-1.63004">
        <ele>17.87</ele>
        <time>2020-06-03T17:44:27Z</time>
      </trkpt>
      <trkpt lat="47.14185" lon="-1.63009">
        <ele>17.72</ele>
        <time>2020-06-03T17:44:29Z</time>
      </trkpt>
      <trkpt lat="47.14195" lon="-1.63015">
        <ele>17.76</ele>
        <time>2020-06-03T17:44:31Z</time>
      </trkpt>
      <trkpt lat="47.14206" lon="-1.63021">
        <ele>17.51</ele>
        <time>2020-06-03T17:44:33Z</time>
      </trkpt>
      <trkpt lat="47.14217" lon="-1.63027">
        <ele>17.57</ele>
        <time>2020-06-03T17:44:35Z</time>
      </trkpt>
      <trkpt lat="47.14229" lon="-1.63033">
        <ele>16.89</ele>
        <time>2020-06-03T17:44:37Z</time>
      </trkpt>
      <trkpt lat="47.1424" lon="-1.63039">
        <ele>15.33</ele>
        <time>2020-06-03T17:44:39Z</time>
      </trkpt>
      <trkpt lat="47.14252" lon="-1.63046">
        <ele>14.52</ele>
        <time>2020-06-03T17:44:41Z</time>
      </trkpt>
      <trkpt lat="47.14264" lon="-1.63053">
        <ele>14.25</ele>
        <time>2020-06-03T17:44:43Z</time>
      </trkpt>
      <trkpt lat="47.14272" lon="-1.63057">
        <ele>14.08</ele>
        <time>2020-06-03T17:44:45Z</time>
      </trkpt>
      <trkpt lat="47.14282" lon="-1.63062">
        <ele>15.55</ele>
        <time>2020-06-03T17:44:47Z</time>
      </trkpt>
      <trkpt lat="47.14292" lon="-1.63067">
        <ele>15.97</ele>
        <time>2020-06-03T17:44:49Z</time>
      </trkpt>
      <trkpt lat="47.14302" lon="-1.63072">
        <ele>16.24</ele>
        <time>2020-06-03T17:44:51Z</time>
      </trkpt>
      <trkpt lat="47.14312" lon="-1.63077">
        <ele>15.97</ele>
        <time>2020-06-03T17:44:53Z</time>
      </trkpt>
      <trkpt lat="47.14325" lon="-1.63084">
        <ele>16.31</ele>
        <time>2020-06-03T17:44:55Z</time>
      </trkpt>
      <trkpt lat="47.14339" lon="-1.63091">
        <ele>16.53</ele>
        <time>2020-06-03T17:44:57Z</time>
      </trkpt>
      <trkpt lat="47.14351" lon="-1.63098">
        <ele>17.34</ele>
        <time>2020-06-03T17:44:59Z</time>
      </trkpt>
      <trkpt lat="47.14362" lon="-1.63104">
        <ele>18.72</ele>
        <time>2020-06-03T17:45:01Z</time>
      </trkpt>
      <trkpt lat="47.14374" lon="-1.6311">
        <ele>18.86</ele>
        <time>2020-06-03T17:45:03Z</time>
      </trkpt>
      <trkpt lat="47.14387" lon="-1.63117">
        <ele>19.11</ele>
        <time>2020-06-03T17:45:05Z</time>
      </trkpt>
      <trkpt lat="47.14398" lon="-1.63121">
        <ele>18.85</ele>
        <time>2020-06-03T17:45:07Z</time>
      </trkpt>
      <trkpt lat="47.14409" lon="-1.63128">
        <ele>18.12</ele>
        <time>2020-06-03T17:45:09Z</time>
      </trkpt>
      <trkpt lat="47.14421" lon="-1.63133">
        <ele>18.39</ele>
        <time>2020-06-03T17:45:11Z</time>
      </trkpt>
      <trkpt lat="47.14433" lon="-1.63139">
        <ele>18.55</ele>
        <time>2020-06-03T17:45:13Z</time>
      </trkpt>
      <trkpt lat="47.14445" lon="-1.63145">
        <ele>18.56</ele>
        <time>2020-06-03T17:45:15Z</time>
      </trkpt>
      <trkpt lat="47.14455" lon="-1.6315">
        <ele>18.9</ele>
        <time>2020-06-03T17:45:17Z</time>
      </trkpt>
      <trkpt lat="47.14466" lon="-1.63151">
        <ele>19.86</ele>
        <time>2020-06-03T17:45:19Z</time>
      </trkpt>
      <trkpt lat="47.14477" lon="-1.63152">
        <ele>20.46</ele>
        <time>2020-06-03T17:45:21Z</time>
      </trkpt>
      <trkpt lat="47.14488" lon="-1.63152">
        <ele>20.9</ele>
        <time>2020-06-03T17:45:23Z</time>
      </trkpt>
      <trkpt lat="47.14501" lon="-1.63151">
        <ele>20.85</ele>
        <time>2020-06-03T17:45:25Z</time>
      </trkpt>
      <trkpt lat="47.14514" lon="-1.63152">
        <ele>21.26</ele>
        <time>2020-06-03T17:45:27Z</time>
      </trkpt>
      <trkpt lat="47.14526" lon="-1.63151">
        <ele>21.32</ele>
        <time>2020-06-03T17:45:29Z</time>
      </trkpt>
      <trkpt lat="47.14538" lon="-1.6315">
        <ele>22.57</ele>
        <time>2020-06-03T17:45:31Z</time>
      </trkpt>
      <trkpt lat="47.1455" lon="-1.63149">
        <ele>22.95</ele>
        <time>2020-06-03T17:45:33Z</time>
      </trkpt>
      <trkpt lat="47.14561" lon="-1.63147">
        <ele>23.84</ele>
        <time>2020-06-03T17:45:35Z</time>
      </trkpt>
      <trkpt lat="47.14572" lon="-1.63144">
        <ele>23.52</ele>
        <time>2020-06-03T17:45:37Z</time>
      </trkpt>
      <trkpt lat="47.14582" lon="-1.63139">
        <ele>22.86</ele>
        <time>2020-06-03T17:45:39Z</time>
      </trkpt>
      <trkpt lat="47.14593" lon="-1.63134">
        <ele>21.95</ele>
        <time>2020-06-03T17:45:41Z</time>
      </trkpt>
      <trkpt lat="47.14606" lon="-1.63125">
        <ele>22.26</ele>
        <time>2020-06-03T17:45:43Z</time>
      </trkpt>
      <trkpt lat="47.14615" lon="-1.63117">
        <ele>22.09</ele>
        <time>2020-06-03T17:45:45Z</time>
      </trkpt>
      <trkpt lat="47.14625" lon="-1.6311">
        <ele>22.48</ele>
        <time>2020-06-03T17:45:47Z</time>
      </trkpt>
      <trkpt lat="47.14635" lon="-1.63102">
        <ele>22.33</ele>
        <time>2020-06-03T17:45:49Z</time>
      </trkpt>
      <trkpt lat="47.14646" lon="-1.63094">
        <ele>23.14</ele>
        <time>2020-06-03T17:45:51Z</time>
      </trkpt>
      <trkpt lat="47.14657" lon="-1.63087">
        <ele>23.55</ele>
        <time>2020-06-03T17:45:53Z</time>
      </trkpt>
      <trkpt lat="47.14668" lon="-1.63081">
        <ele>22.98</ele>
        <time>2020-06-03T17:45:55Z</time>
      </trkpt>
      <trkpt lat="47.14679" lon="-1.63075">
        <ele>23.3</ele>
        <time>2020-06-03T17:45:57Z</time>
      </trkpt>
      <trkpt lat="47.14691" lon="-1.6307">
        <ele>22.69</ele>
        <time>2020-06-03T17:45:59Z</time>
      </trkpt>
      <trkpt lat="47.14701" lon="-1.63068">
        <ele>22.05</ele>
        <time>2020-06-03T17:46:00Z</time>
      </trkpt>
      <trkpt lat="47.14712" lon="-1.63069">
        <ele>23.08</ele>
        <time>2020-06-03T17:46:02Z</time>
      </trkpt>
      <trkpt lat="47.14725" lon="-1.63068">
        <ele>24.01</ele>
        <time>2020-06-03T17:46:04Z</time>
      </trkpt>
      <trkpt lat="47.14736" lon="-1.63068">
        <ele>24.17</ele>
        <time>2020-06-03T17:46:06Z</time>
      </trkpt>
      <trkpt lat="47.14748" lon="-1.63069">
        <ele>23.9</ele>
        <time>2020-06-03T17:46:08Z</time>
      </trkpt>
      <trkpt lat="47.14759" lon="-1.6307">
        <ele>24.36</ele>
        <time>2020-06-03T17:46:10Z</time>
      </trkpt>
      <trkpt lat="47.14773" lon="-1.63069">
        <ele>23.91</ele>
        <time>2020-06-03T17:46:12Z</time>
      </trkpt>
      <trkpt lat="47.14785" lon="-1.6307">
        <ele>23.63</ele>
        <time>2020-06-03T17:46:14Z</time>
      </trkpt>
      <trkpt lat="47.14798" lon="-1.6307">
        <ele>23.61</ele>
        <time>2020-06-03T17:46:16Z</time>
      </trkpt>
      <trkpt lat="47.1481" lon="-1.6307">
        <ele>24.21</ele>
        <time>2020-06-03T17:46:18Z</time>
      </trkpt>
      <trkpt lat="47.14824" lon="-1.63068">
        <ele>24.13</ele>
        <time>2020-06-03T17:46:20Z</time>
      </trkpt>
      <trkpt lat="47.14837" lon="-1.63067">
        <ele>22.93</ele>
        <time>2020-06-03T17:46:22Z</time>
      </trkpt>
      <trkpt lat="47.14847" lon="-1.63068">
        <ele>21.84</ele>
        <time>2020-06-03T17:46:24Z</time>
      </trkpt>
      <trkpt lat="47.14859" lon="-1.63069">
        <ele>21.52</ele>
        <time>2020-06-03T17:46:26Z</time>
      </trkpt>
      <trkpt lat="47.1487" lon="-1.63068">
        <ele>22.34</ele>
        <time>2020-06-03T17:46:28Z</time>
      </trkpt>
      <trkpt lat="47.14881" lon="-1.63067">
        <ele>23.09</ele>
        <time>2020-06-03T17:46:30Z</time>
      </trkpt>
      <trkpt lat="47.14889" lon="-1.63073">
        <ele>23.03</ele>
        <time>2020-06-03T17:46:32Z</time>
      </trkpt>
      <trkpt lat="47.14888" lon="-1.63094">
        <ele>22.08</ele>
        <time>2020-06-03T17:46:35Z</time>
      </trkpt>
      <trkpt lat="47.14885" lon="-1.63114">
        <ele>22.77</ele>
        <time>2020-06-03T17:46:37Z</time>
      </trkpt>
      <trkpt lat="47.14882" lon="-1.63135">
        <ele>22.93</ele>
        <time>2020-06-03T17:46:39Z</time>
      </trkpt>
      <trkpt lat="47.14878" lon="-1.63156">
        <ele>23.18</ele>
        <time>2020-06-03T17:46:41Z</time>
      </trkpt>
      <trkpt lat="47.14876" lon="-1.63174">
        <ele>23.21</ele>
        <time>2020-06-03T17:46:43Z</time>
      </trkpt>
      <trkpt lat="47.14874" lon="-1.63194">
        <ele>23.26</ele>
        <time>2020-06-03T17:46:45Z</time>
      </trkpt>
      <trkpt lat="47.14872" lon="-1.63213">
        <ele>23.02</ele>
        <time>2020-06-03T17:46:47Z</time>
      </trkpt>
      <trkpt lat="47.14871" lon="-1.63231">
        <ele>23.58</ele>
        <time>2020-06-03T17:46:49Z</time>
      </trkpt>
      <trkpt lat="47.1487" lon="-1.6325">
        <ele>24.85</ele>
        <time>2020-06-03T17:46:51Z</time>
      </trkpt>
      <trkpt lat="47.1487" lon="-1.63269">
        <ele>26.85</ele>
        <time>2020-06-03T17:46:53Z</time>
      </trkpt>
      <trkpt lat="47.1487" lon="-1.63284">
        <ele>27.96</ele>
        <time>2020-06-03T17:46:55Z</time>
      </trkpt>
      <trkpt lat="47.14871" lon="-1.63306">
        <ele>28.7</ele>
        <time>2020-06-03T17:46:57Z</time>
      </trkpt>
      <trkpt lat="47.14872" lon="-1.63325">
        <ele>28.18</ele>
        <time>2020-06-03T17:46:59Z</time>
      </trkpt>
      <trkpt lat="47.14872" lon="-1.63342">
        <ele>28.42</ele>
        <time>2020-06-03T17:47:01Z</time>
      </trkpt>
      <trkpt lat="47.14872" lon="-1.63359">
        <ele>28.28</ele>
        <time>2020-06-03T17:47:03Z</time>
      </trkpt>
      <trkpt lat="47.14872" lon="-1.63377">
        <ele>28.5</ele>
        <time>2020-06-03T17:47:05Z</time>
      </trkpt>
      <trkpt lat="47.14872" lon="-1.63394">
        <ele>29.09</ele>
        <time>2020-06-03T17:47:07Z</time>
      </trkpt>
      <trkpt lat="47.14871" lon="-1.6341">
        <ele>29.66</ele>
        <time>2020-06-03T17:47:09Z</time>
      </trkpt>
      <trkpt lat="47.14871" lon="-1.63428">
        <ele>29.1</ele>
        <time>2020-06-03T17:47:11Z</time>
      </trkpt>
      <trkpt lat="47.14871" lon="-1.63446">
        <ele>29.12</ele>
        <time>2020-06-03T17:47:13Z</time>
      </trkpt>
      <trkpt lat="47.1487" lon="-1.63465">
        <ele>28.6</ele>
        <time>2020-06-03T17:47:15Z</time>
      </trkpt>
      <trkpt lat="47.1487" lon="-1.63482">
        <ele>28.32</ele>
        <time>2020-06-03T17:47:17Z</time>
      </trkpt>
      <trkpt lat="47.1487" lon="-1.63498">
        <ele>27.76</ele>
        <time>2020-06-03T17:47:19Z</time>
      </trkpt>
      <trkpt lat="47.1487" lon="-1.63513">
        <ele>26.64</ele>
        <time>2020-06-03T17:47:21Z</time>
      </trkpt>
      <trkpt lat="47.1487" lon="-1.63529">
        <ele>26.27</ele>
        <time>2020-06-03T17:47:23Z</time>
      </trkpt>
      <trkpt lat="47.1487" lon="-1.63547">
        <ele>26.16</ele>
        <time>2020-06-03T17:47:25Z</time>
      </trkpt>
      <trkpt lat="47.1487" lon="-1.63565">
        <ele>25.58</ele>
        <time>2020-06-03T17:47:27Z</time>
      </trkpt>
      <trkpt lat="47.1487" lon="-1.6358">
        <ele>25.19</ele>
        <time>2020-06-03T17:47:29Z</time>
      </trkpt>
      <trkpt lat="47.14869" lon="-1.63603">
        <ele>24.85</ele>
        <time>2020-06-03T17:47:32Z</time>
      </trkpt>
      <trkpt lat="47.1487" lon="-1.63622">
        <ele>25.67</ele>
        <time>2020-06-03T17:47:34Z</time>
      </trkpt>
      <trkpt lat="47.14869" lon="-1.63639">
        <ele>25.99</ele>
        <time>2020-06-03T17:47:36Z</time>
      </trkpt>
      <trkpt lat="47.14869" lon="-1.63658">
        <ele>26.19</ele>
        <time>2020-06-03T17:47:38Z</time>
      </trkpt>
      <trkpt lat="47.14869" lon="-1.63675">
        <ele>26.79</ele>
        <time>2020-06-03T17:47:40Z</time>
      </trkpt>
      <trkpt lat="47.14869" lon="-1.63695">
        <ele>27.76</ele>
        <time>2020-06-03T17:47:42Z</time>
      </trkpt>
      <trkpt lat="47.14869" lon="-1.63715">
        <ele>27.86</ele>
        <time>2020-06-03T17:47:44Z</time>
      </trkpt>
      <trkpt lat="47.14868" lon="-1.63733">
        <ele>27.89</ele>
        <time>2020-06-03T17:47:46Z</time>
      </trkpt>
      <trkpt lat="47.14869" lon="-1.63749">
        <ele>26.93</ele>
        <time>2020-06-03T17:47:48Z</time>
      </trkpt>
      <trkpt lat="47.14869" lon="-1.63763">
        <ele>25.8</ele>
        <time>2020-06-03T17:47:50Z</time>
      </trkpt>
      <trkpt lat="47.14869" lon="-1.6378">
        <ele>24.68</ele>
        <time>2020-06-03T17:47:52Z</time>
      </trkpt>
      <trkpt lat="47.14869" lon="-1.63795">
        <ele>23.8</ele>
        <time>2020-06-03T17:47:54Z</time>
      </trkpt>
      <trkpt lat="47.1487" lon="-1.63814">
        <ele>23.67</ele>
        <time>2020-06-03T17:47:56Z</time>
      </trkpt>
      <trkpt lat="47.1487" lon="-1.6383">
        <ele>23.77</ele>
        <time>2020-06-03T17:47:58Z</time>
      </trkpt>
      <trkpt lat="47.1487" lon="-1.6385">
        <ele>23.63</ele>
        <time>2020-06-03T17:48:00Z</time>
      </trkpt>
      <trkpt lat="47.14869" lon="-1.63867">
        <ele>23.96</ele>
        <time>2020-06-03T17:48:02Z</time>
      </trkpt>
      <trkpt lat="47.14868" lon="-1.63882">
        <ele>23.81</ele>
        <time>2020-06-03T17:48:04Z</time>
      </trkpt>
      <trkpt lat="47.14865" lon="-1.63898">
        <ele>24.97</ele>
        <time>2020-06-03T17:48:06Z</time>
      </trkpt>
      <trkpt lat="47.14863" lon="-1.63917">
        <ele>25.13</ele>
        <time>2020-06-03T17:48:08Z</time>
      </trkpt>
      <trkpt lat="47.14861" lon="-1.63933">
        <ele>25.14</ele>
        <time>2020-06-03T17:48:10Z</time>
      </trkpt>
      <trkpt lat="47.14859" lon="-1.63949">
        <ele>25.43</ele>
        <time>2020-06-03T17:48:12Z</time>
      </trkpt>
      <trkpt lat="47.14856" lon="-1.63966">
        <ele>25.54</ele>
        <time>2020-06-03T17:48:14Z</time>
      </trkpt>
      <trkpt lat="47.14856" lon="-1.6398">
        <ele>26.17</ele>
        <time>2020-06-03T17:48:16Z</time>
      </trkpt>
      <trkpt lat="47.14861" lon="-1.63994">
        <ele>26.51</ele>
        <time>2020-06-03T17:48:18Z</time>
      </trkpt>
      <trkpt lat="47.14868" lon="-1.64005">
        <ele>26.67</ele>
        <time>2020-06-03T17:48:20Z</time>
      </trkpt>
      <trkpt lat="47.14877" lon="-1.64015">
        <ele>25.93</ele>
        <time>2020-06-03T17:48:22Z</time>
      </trkpt>
      <trkpt lat="47.14887" lon="-1.64021">
        <ele>23.99</ele>
        <time>2020-06-03T17:48:24Z</time>
      </trkpt>
      <trkpt lat="47.14897" lon="-1.64027">
        <ele>23.1</ele>
        <time>2020-06-03T17:48:26Z</time>
      </trkpt>
      <trkpt lat="47.14908" lon="-1.64021">
        <ele>21.4</ele>
        <time>2020-06-03T17:48:28Z</time>
      </trkpt>
      <trkpt lat="47.14917" lon="-1.64001">
        <ele>21.25</ele>
        <time>2020-06-03T17:48:30Z</time>
      </trkpt>
      <trkpt lat="47.14927" lon="-1.63984">
        <ele>21.95</ele>
        <time>2020-06-03T17:48:32Z</time>
      </trkpt>
      <trkpt lat="47.14935" lon="-1.63969">
        <ele>22.54</ele>
        <time>2020-06-03T17:48:34Z</time>
      </trkpt>
      <trkpt lat="47.14945" lon="-1.63952">
        <ele>22.85</ele>
        <time>2020-06-03T17:48:36Z</time>
      </trkpt>
      <trkpt lat="47.14953" lon="-1.6394">
        <ele>23.26</ele>
        <time>2020-06-03T17:48:38Z</time>
      </trkpt>
      <trkpt lat="47.14962" lon="-1.63926">
        <ele>23.05</ele>
        <time>2020-06-03T17:48:40Z</time>
      </trkpt>
      <trkpt lat="47.14972" lon="-1.63912">
        <ele>23.23</ele>
        <time>2020-06-03T17:48:42Z</time>
      </trkpt>
      <trkpt lat="47.14982" lon="-1.63896">
        <ele>23.18</ele>
        <time>2020-06-03T17:48:44Z</time>
      </trkpt>
      <trkpt lat="47.14993" lon="-1.63881">
        <ele>23.7</ele>
        <time>2020-06-03T17:48:46Z</time>
      </trkpt>
      <trkpt lat="47.15003" lon="-1.63867">
        <ele>24.85</ele>
        <time>2020-06-03T17:48:48Z</time>
      </trkpt>
      <trkpt lat="47.15012" lon="-1.63854">
        <ele>24.89</ele>
        <time>2020-06-03T17:48:50Z</time>
      </trkpt>
      <trkpt lat="47.15022" lon="-1.63841">
        <ele>25.7</ele>
        <time>2020-06-03T17:48:52Z</time>
      </trkpt>
      <trkpt lat="47.15034" lon="-1.63826">
        <ele>25.51</ele>
        <time>2020-06-03T17:48:54Z</time>
      </trkpt>
      <trkpt lat="47.15044" lon="-1.63812">
        <ele>25.48</ele>
        <time>2020-06-03T17:48:56Z</time>
      </trkpt>
      <trkpt lat="47.15054" lon="-1.638">
        <ele>24.42</ele>
        <time>2020-06-03T17:48:58Z</time>
      </trkpt>
      <trkpt lat="47.15064" lon="-1.63787">
        <ele>23.56</ele>
        <time>2020-06-03T17:49:00Z</time>
      </trkpt>
      <trkpt lat="47.15074" lon="-1.63775">
        <ele>22.76</ele>
        <time>2020-06-03T17:49:02Z</time>
      </trkpt>
      <trkpt lat="47.15086" lon="-1.63761">
        <ele>22.12</ele>
        <time>2020-06-03T17:49:04Z</time>
      </trkpt>
      <trkpt lat="47.15099" lon="-1.63746">
        <ele>22.34</ele>
        <time>2020-06-03T17:49:06Z</time>
      </trkpt>
      <trkpt lat="47.15109" lon="-1.63733">
        <ele>22.45</ele>
        <time>2020-06-03T17:49:08Z</time>
      </trkpt>
      <trkpt lat="47.15121" lon="-1.6372">
        <ele>22.81</ele>
        <time>2020-06-03T17:49:10Z</time>
      </trkpt>
      <trkpt lat="47.15133" lon="-1.63707">
        <ele>23.29</ele>
        <time>2020-06-03T17:49:12Z</time>
      </trkpt>
      <trkpt lat="47.15145" lon="-1.63694">
        <ele>23.9</ele>
        <time>2020-06-03T17:49:14Z</time>
      </trkpt>
      <trkpt lat="47.15156" lon="-1.63684">
        <ele>23.76</ele>
        <time>2020-06-03T17:49:16Z</time>
      </trkpt>
      <trkpt lat="47.15169" lon="-1.63672">
        <ele>23.12</ele>
        <time>2020-06-03T17:49:18Z</time>
      </trkpt>
      <trkpt lat="47.15183" lon="-1.6366">
        <ele>23.3</ele>
        <time>2020-06-03T17:49:20Z</time>
      </trkpt>
      <trkpt lat="47.15194" lon="-1.63651">
        <ele>23.7</ele>
        <time>2020-06-03T17:49:22Z</time>
      </trkpt>
      <trkpt lat="47.15204" lon="-1.63641">
        <ele>23.71</ele>
        <time>2020-06-03T17:49:24Z</time>
      </trkpt>
      <trkpt lat="47.15216" lon="-1.63632">
        <ele>23.29</ele>
        <time>2020-06-03T17:49:26Z</time>
      </trkpt>
      <trkpt lat="47.15227" lon="-1.63622">
        <ele>23.34</ele>
        <time>2020-06-03T17:49:28Z</time>
      </trkpt>
      <trkpt lat="47.15239" lon="-1.63612">
        <ele>23.53</ele>
        <time>2020-06-03T17:49:30Z</time>
      </trkpt>
      <trkpt lat="47.1525" lon="-1.63601">
        <ele>23.73</ele>
        <time>2020-06-03T17:49:32Z</time>
      </trkpt>
      <trkpt lat="47.15262" lon="-1.63591">
        <ele>23.68</ele>
        <time>2020-06-03T17:49:34Z</time>
      </trkpt>
      <trkpt lat="47.15273" lon="-1.6358">
        <ele>24.56</ele>
        <time>2020-06-03T17:49:36Z</time>
      </trkpt>
      <trkpt lat="47.15284" lon="-1.63569">
        <ele>25.28</ele>
        <time>2020-06-03T17:49:38Z</time>
      </trkpt>
      <trkpt lat="47.15295" lon="-1.63559">
        <ele>24.78</ele>
        <time>2020-06-03T17:49:40Z</time>
      </trkpt>
      <trkpt lat="47.15306" lon="-1.63548">
        <ele>24.22</ele>
        <time>2020-06-03T17:49:42Z</time>
      </trkpt>
      <trkpt lat="47.15318" lon="-1.63537">
        <ele>24.03</ele>
        <time>2020-06-03T17:49:44Z</time>
      </trkpt>
      <trkpt lat="47.15329" lon="-1.63527">
        <ele>23.41</ele>
        <time>2020-06-03T17:49:46Z</time>
      </trkpt>
      <trkpt lat="47.15341" lon="-1.63518">
        <ele>23.76</ele>
        <time>2020-06-03T17:49:48Z</time>
      </trkpt>
      <trkpt lat="47.15356" lon="-1.63505">
        <ele>23.96</ele>
        <time>2020-06-03T17:49:50Z</time>
      </trkpt>
      <trkpt lat="47.15368" lon="-1.63495">
        <ele>23.67</ele>
        <time>2020-06-03T17:49:52Z</time>
      </trkpt>
      <trkpt lat="47.1538" lon="-1.63485">
        <ele>23.08</ele>
        <time>2020-06-03T17:49:54Z</time>
      </trkpt>
      <trkpt lat="47.15392" lon="-1.63474">
        <ele>22.4</ele>
        <time>2020-06-03T17:49:56Z</time>
      </trkpt>
      <trkpt lat="47.15404" lon="-1.63464">
        <ele>22.03</ele>
        <time>2020-06-03T17:49:58Z</time>
      </trkpt>
      <trkpt lat="47.15416" lon="-1.63452">
        <ele>22.57</ele>
        <time>2020-06-03T17:50:00Z</time>
      </trkpt>
      <trkpt lat="47.15428" lon="-1.63442">
        <ele>22.59</ele>
        <time>2020-06-03T17:50:02Z</time>
      </trkpt>
      <trkpt lat="47.1544" lon="-1.6343">
        <ele>22.56</ele>
        <time>2020-06-03T17:50:04Z</time>
      </trkpt>
      <trkpt lat="47.15452" lon="-1.63417">
        <ele>22.63</ele>
        <time>2020-06-03T17:50:06Z</time>
      </trkpt>
      <trkpt lat="47.15463" lon="-1.63406">
        <ele>22.77</ele>
        <time>2020-06-03T17:50:08Z</time>
      </trkpt>
      <trkpt lat="47.15476" lon="-1.63395">
        <ele>21.77</ele>
        <time>2020-06-03T17:50:10Z</time>
      </trkpt>
      <trkpt lat="47.15489" lon="-1.63386">
        <ele>20.9</ele>
        <time>2020-06-03T17:50:12Z</time>
      </trkpt>
      <trkpt lat="47.15504" lon="-1.63376">
        <ele>20.09</ele>
        <time>2020-06-03T17:50:14Z</time>
      </trkpt>
      <trkpt lat="47.15518" lon="-1.63365">
        <ele>19.12</ele>
        <time>2020-06-03T17:50:16Z</time>
      </trkpt>
      <trkpt lat="47.15532" lon="-1.63352">
        <ele>18.63</ele>
        <time>2020-06-03T17:50:18Z</time>
      </trkpt>
      <trkpt lat="47.15546" lon="-1.6334">
        <ele>18.67</ele>
        <time>2020-06-03T17:50:20Z</time>
      </trkpt>
      <trkpt lat="47.1556" lon="-1.63327">
        <ele>18.66</ele>
        <time>2020-06-03T17:50:22Z</time>
      </trkpt>
      <trkpt lat="47.15575" lon="-1.63314">
        <ele>18.42</ele>
        <time>2020-06-03T17:50:24Z</time>
      </trkpt>
      <trkpt lat="47.1559" lon="-1.63302">
        <ele>18.1</ele>
        <time>2020-06-03T17:50:26Z</time>
      </trkpt>
      <trkpt lat="47.15603" lon="-1.6329">
        <ele>17.32</ele>
        <time>2020-06-03T17:50:28Z</time>
      </trkpt>
      <trkpt lat="47.15617" lon="-1.63279">
        <ele>16.59</ele>
        <time>2020-06-03T17:50:30Z</time>
      </trkpt>
      <trkpt lat="47.15632" lon="-1.63265">
        <ele>16.14</ele>
        <time>2020-06-03T17:50:32Z</time>
      </trkpt>
      <trkpt lat="47.15644" lon="-1.63254">
        <ele>16.53</ele>
        <time>2020-06-03T17:50:34Z</time>
      </trkpt>
      <trkpt lat="47.15657" lon="-1.63243">
        <ele>16.76</ele>
        <time>2020-06-03T17:50:36Z</time>
      </trkpt>
      <trkpt lat="47.15669" lon="-1.63233">
        <ele>16.24</ele>
        <time>2020-06-03T17:50:38Z</time>
      </trkpt>
      <trkpt lat="47.15681" lon="-1.63223">
        <ele>16.31</ele>
        <time>2020-06-03T17:50:40Z</time>
      </trkpt>
      <trkpt lat="47.15693" lon="-1.63212">
        <ele>17.59</ele>
        <time>2020-06-03T17:50:42Z</time>
      </trkpt>
      <trkpt lat="47.15705" lon="-1.63201">
        <ele>18.18</ele>
        <time>2020-06-03T17:50:44Z</time>
      </trkpt>
      <trkpt lat="47.15716" lon="-1.63191">
        <ele>18.51</ele>
        <time>2020-06-03T17:50:46Z</time>
      </trkpt>
      <trkpt lat="47.15728" lon="-1.6318">
        <ele>17.95</ele>
        <time>2020-06-03T17:50:48Z</time>
      </trkpt>
      <trkpt lat="47.1574" lon="-1.6317">
        <ele>17.02</ele>
        <time>2020-06-03T17:50:50Z</time>
      </trkpt>
      <trkpt lat="47.15749" lon="-1.63155">
        <ele>16.8</ele>
        <time>2020-06-03T17:50:52Z</time>
      </trkpt>
      <trkpt lat="47.15759" lon="-1.63147">
        <ele>17.9</ele>
        <time>2020-06-03T17:50:54Z</time>
      </trkpt>
      <trkpt lat="47.15773" lon="-1.6314">
        <ele>18.25</ele>
        <time>2020-06-03T17:50:56Z</time>
      </trkpt>
      <trkpt lat="47.15786" lon="-1.6313">
        <ele>17.58</ele>
        <time>2020-06-03T17:50:58Z</time>
      </trkpt>
      <trkpt lat="47.15798" lon="-1.6312">
        <ele>16.67</ele>
        <time>2020-06-03T17:51:00Z</time>
      </trkpt>
      <trkpt lat="47.1581" lon="-1.6311">
        <ele>14.72</ele>
        <time>2020-06-03T17:51:02Z</time>
      </trkpt>
      <trkpt lat="47.15825" lon="-1.63096">
        <ele>12.66</ele>
        <time>2020-06-03T17:51:04Z</time>
      </trkpt>
      <trkpt lat="47.15839" lon="-1.63084">
        <ele>11.84</ele>
        <time>2020-06-03T17:51:06Z</time>
      </trkpt>
      <trkpt lat="47.15852" lon="-1.63071">
        <ele>11.61</ele>
        <time>2020-06-03T17:51:08Z</time>
      </trkpt>
      <trkpt lat="47.15866" lon="-1.63059">
        <ele>12.36</ele>
        <time>2020-06-03T17:51:10Z</time>
      </trkpt>
      <trkpt lat="47.15879" lon="-1.63047">
        <ele>12.39</ele>
        <time>2020-06-03T17:51:12Z</time>
      </trkpt>
      <trkpt lat="47.15893" lon="-1.63035">
        <ele>12.99</ele>
        <time>2020-06-03T17:51:14Z</time>
      </trkpt>
      <trkpt lat="47.15906" lon="-1.63023">
        <ele>13.35</ele>
        <time>2020-06-03T17:51:16Z</time>
      </trkpt>
      <trkpt lat="47.15918" lon="-1.63012">
        <ele>13.3</ele>
        <time>2020-06-03T17:51:18Z</time>
      </trkpt>
      <trkpt lat="47.15926" lon="-1.63005">
        <ele>12.85</ele>
        <time>2020-06-03T17:51:19Z</time>
      </trkpt>
      <trkpt lat="47.15938" lon="-1.62993">
        <ele>12.35</ele>
        <time>2020-06-03T17:51:21Z</time>
      </trkpt>
      <trkpt lat="47.1595" lon="-1.6298">
        <ele>11.31</ele>
        <time>2020-06-03T17:51:23Z</time>
      </trkpt>
      <trkpt lat="47.15963" lon="-1.62968">
        <ele>10.41</ele>
        <time>2020-06-03T17:51:25Z</time>
      </trkpt>
      <trkpt lat="47.15974" lon="-1.62959">
        <ele>10.71</ele>
        <time>2020-06-03T17:51:27Z</time>
      </trkpt>
      <trkpt lat="47.15985" lon="-1.62948">
        <ele>11.67</ele>
        <time>2020-06-03T17:51:29Z</time>
      </trkpt>
      <trkpt lat="47.15998" lon="-1.62936">
        <ele>12.59</ele>
        <time>2020-06-03T17:51:31Z</time>
      </trkpt>
      <trkpt lat="47.1601" lon="-1.62926">
        <ele>13.44</ele>
        <time>2020-06-03T17:51:33Z</time>
      </trkpt>
      <trkpt lat="47.16022" lon="-1.62915">
        <ele>13.6</ele>
        <time>2020-06-03T17:51:35Z</time>
      </trkpt>
      <trkpt lat="47.16035" lon="-1.62903">
        <ele>13.7</ele>
        <time>2020-06-03T17:51:37Z</time>
      </trkpt>
      <trkpt lat="47.16049" lon="-1.6289">
        <ele>14.15</ele>
        <time>2020-06-03T17:51:39Z</time>
      </trkpt>
      <trkpt lat="47.16061" lon="-1.6288">
        <ele>14.82</ele>
        <time>2020-06-03T17:51:41Z</time>
      </trkpt>
      <trkpt lat="47.16073" lon="-1.6287">
        <ele>15.25</ele>
        <time>2020-06-03T17:51:43Z</time>
      </trkpt>
      <trkpt lat="47.16084" lon="-1.62861">
        <ele>16.8</ele>
        <time>2020-06-03T17:51:45Z</time>
      </trkpt>
      <trkpt lat="47.16095" lon="-1.62852">
        <ele>18.38</ele>
        <time>2020-06-03T17:51:47Z</time>
      </trkpt>
      <trkpt lat="47.16106" lon="-1.62843">
        <ele>20.6</ele>
        <time>2020-06-03T17:51:49Z</time>
      </trkpt>
      <trkpt lat="47.16118" lon="-1.62834">
        <ele>22.14</ele>
        <time>2020-06-03T17:51:51Z</time>
      </trkpt>
      <trkpt lat="47.16128" lon="-1.62825">
        <ele>23.4</ele>
        <time>2020-06-03T17:51:53Z</time>
      </trkpt>
      <trkpt lat="47.16137" lon="-1.62816">
        <ele>23.57</ele>
        <time>2020-06-03T17:51:55Z</time>
      </trkpt>
      <trkpt lat="47.16148" lon="-1.62807">
        <ele>22.94</ele>
        <time>2020-06-03T17:51:57Z</time>
      </trkpt>
      <trkpt lat="47.16158" lon="-1.62797">
        <ele>23.67</ele>
        <time>2020-06-03T17:51:59Z</time>
      </trkpt>
      <trkpt lat="47.16167" lon="-1.62788">
        <ele>23.39</ele>
        <time>2020-06-03T17:52:01Z</time>
      </trkpt>
      <trkpt lat="47.16177" lon="-1.62779">
        <ele>22.32</ele>
        <time>2020-06-03T17:52:03Z</time>
      </trkpt>
      <trkpt lat="47.16185" lon="-1.6277">
        <ele>21.91</ele>
        <time>2020-06-03T17:52:05Z</time>
      </trkpt>
      <trkpt lat="47.16196" lon="-1.62762">
        <ele>22.33</ele>
        <time>2020-06-03T17:52:07Z</time>
      </trkpt>
      <trkpt lat="47.16206" lon="-1.62754">
        <ele>22.56</ele>
        <time>2020-06-03T17:52:09Z</time>
      </trkpt>
      <trkpt lat="47.16216" lon="-1.62746">
        <ele>23.46</ele>
        <time>2020-06-03T17:52:11Z</time>
      </trkpt>
      <trkpt lat="47.16227" lon="-1.62738">
        <ele>23.02</ele>
        <time>2020-06-03T17:52:13Z</time>
      </trkpt>
      <trkpt lat="47.16237" lon="-1.62728">
        <ele>22.9</ele>
        <time>2020-06-03T17:52:16Z</time>
      </trkpt>
      <trkpt lat="47.16248" lon="-1.6272">
        <ele>23.58</ele>
        <time>2020-06-03T17:52:18Z</time>
      </trkpt>
      <trkpt lat="47.16259" lon="-1.62711">
        <ele>25.58</ele>
        <time>2020-06-03T17:52:20Z</time>
      </trkpt>
      <trkpt lat="47.16268" lon="-1.62703">
        <ele>26.48</ele>
        <time>2020-06-03T17:52:22Z</time>
      </trkpt>
      <trkpt lat="47.16277" lon="-1.62696">
        <ele>26.48</ele>
        <time>2020-06-03T17:52:24Z</time>
      </trkpt>
      <trkpt lat="47.16282" lon="-1.62678">
        <ele>25.41</ele>
        <time>2020-06-03T17:52:27Z</time>
      </trkpt>
      <trkpt lat="47.16282" lon="-1.62659">
        <ele>25.96</ele>
        <time>2020-06-03T17:52:29Z</time>
      </trkpt>
      <trkpt lat="47.16283" lon="-1.62643">
        <ele>26.81</ele>
        <time>2020-06-03T17:52:31Z</time>
      </trkpt>
      <trkpt lat="47.16284" lon="-1.62625">
        <ele>26.35</ele>
        <time>2020-06-03T17:52:33Z</time>
      </trkpt>
      <trkpt lat="47.16287" lon="-1.62609">
        <ele>25.38</ele>
        <time>2020-06-03T17:52:35Z</time>
      </trkpt>
      <trkpt lat="47.1629" lon="-1.62596">
        <ele>24.93</ele>
        <time>2020-06-03T17:52:37Z</time>
      </trkpt>
      <trkpt lat="47.16297" lon="-1.62581">
        <ele>25.79</ele>
        <time>2020-06-03T17:52:39Z</time>
      </trkpt>
      <trkpt lat="47.16306" lon="-1.62573">
        <ele>26</ele>
        <time>2020-06-03T17:52:41Z</time>
      </trkpt>
      <trkpt lat="47.16317" lon="-1.62568">
        <ele>26.43</ele>
        <time>2020-06-03T17:52:43Z</time>
      </trkpt>
      <trkpt lat="47.16332" lon="-1.62569">
        <ele>26.92</ele>
        <time>2020-06-03T17:52:45Z</time>
      </trkpt>
      <trkpt lat="47.16343" lon="-1.62574">
        <ele>26.56</ele>
        <time>2020-06-03T17:52:47Z</time>
      </trkpt>
      <trkpt lat="47.16355" lon="-1.6258">
        <ele>26.28</ele>
        <time>2020-06-03T17:52:49Z</time>
      </trkpt>
      <trkpt lat="47.16367" lon="-1.62585">
        <ele>26.98</ele>
        <time>2020-06-03T17:52:51Z</time>
      </trkpt>
      <trkpt lat="47.16379" lon="-1.62586">
        <ele>27.4</ele>
        <time>2020-06-03T17:52:53Z</time>
      </trkpt>
      <trkpt lat="47.16392" lon="-1.62585">
        <ele>27.4</ele>
        <time>2020-06-03T17:52:55Z</time>
      </trkpt>
      <trkpt lat="47.16402" lon="-1.62577">
        <ele>26.98</ele>
        <time>2020-06-03T17:52:57Z</time>
      </trkpt>
      <trkpt lat="47.16411" lon="-1.62569">
        <ele>26.9</ele>
        <time>2020-06-03T17:52:59Z</time>
      </trkpt>
      <trkpt lat="47.1642" lon="-1.62559">
        <ele>27.11</ele>
        <time>2020-06-03T17:53:01Z</time>
      </trkpt>
      <trkpt lat="47.16429" lon="-1.62549">
        <ele>27.47</ele>
        <time>2020-06-03T17:53:03Z</time>
      </trkpt>
      <trkpt lat="47.16438" lon="-1.62542">
        <ele>27.99</ele>
        <time>2020-06-03T17:53:05Z</time>
      </trkpt>
      <trkpt lat="47.16449" lon="-1.62541">
        <ele>27.94</ele>
        <time>2020-06-03T17:53:07Z</time>
      </trkpt>
      <trkpt lat="47.16461" lon="-1.62544">
        <ele>28.34</ele>
        <time>2020-06-03T17:53:09Z</time>
      </trkpt>
      <trkpt lat="47.16471" lon="-1.62548">
        <ele>29.17</ele>
        <time>2020-06-03T17:53:11Z</time>
      </trkpt>
      <trkpt lat="47.16482" lon="-1.62552">
        <ele>30.05</ele>
        <time>2020-06-03T17:53:13Z</time>
      </trkpt>
      <trkpt lat="47.16491" lon="-1.62556">
        <ele>30.48</ele>
        <time>2020-06-03T17:53:15Z</time>
      </trkpt>
      <trkpt lat="47.16504" lon="-1.62559">
        <ele>30.87</ele>
        <time>2020-06-03T17:53:17Z</time>
      </trkpt>
      <trkpt lat="47.16516" lon="-1.62562">
        <ele>30.84</ele>
        <time>2020-06-03T17:53:19Z</time>
      </trkpt>
      <trkpt lat="47.16528" lon="-1.62567">
        <ele>30.37</ele>
        <time>2020-06-03T17:53:21Z</time>
      </trkpt>
      <trkpt lat="47.16538" lon="-1.62567">
        <ele>29.26</ele>
        <time>2020-06-03T17:53:23Z</time>
      </trkpt>
      <trkpt lat="47.16547" lon="-1.62559">
        <ele>28.61</ele>
        <time>2020-06-03T17:53:25Z</time>
      </trkpt>
      <trkpt lat="47.16559" lon="-1.62547">
        <ele>28.98</ele>
        <time>2020-06-03T17:53:27Z</time>
      </trkpt>
      <trkpt lat="47.16566" lon="-1.62536">
        <ele>29.36</ele>
        <time>2020-06-03T17:53:29Z</time>
      </trkpt>
      <trkpt lat="47.16575" lon="-1.62521">
        <ele>29.73</ele>
        <time>2020-06-03T17:53:31Z</time>
      </trkpt>
      <trkpt lat="47.16581" lon="-1.62503">
        <ele>29.86</ele>
        <time>2020-06-03T17:53:33Z</time>
      </trkpt>
      <trkpt lat="47.16588" lon="-1.62485">
        <ele>29.21</ele>
        <time>2020-06-03T17:53:35Z</time>
      </trkpt>
      <trkpt lat="47.16594" lon="-1.62467">
        <ele>28.52</ele>
        <time>2020-06-03T17:53:37Z</time>
      </trkpt>
      <trkpt lat="47.16602" lon="-1.62449">
        <ele>27.63</ele>
        <time>2020-06-03T17:53:39Z</time>
      </trkpt>
      <trkpt lat="47.16609" lon="-1.62433">
        <ele>26.3</ele>
        <time>2020-06-03T17:53:41Z</time>
      </trkpt>
      <trkpt lat="47.16616" lon="-1.62417">
        <ele>25.42</ele>
        <time>2020-06-03T17:53:43Z</time>
      </trkpt>
      <trkpt lat="47.16625" lon="-1.62401">
        <ele>24.98</ele>
        <time>2020-06-03T17:53:45Z</time>
      </trkpt>
      <trkpt lat="47.16634" lon="-1.62386">
        <ele>24.3</ele>
        <time>2020-06-03T17:53:47Z</time>
      </trkpt>
      <trkpt lat="47.16646" lon="-1.62375">
        <ele>23.49</ele>
        <time>2020-06-03T17:53:49Z</time>
      </trkpt>
      <trkpt lat="47.16658" lon="-1.62364">
        <ele>22.9</ele>
        <time>2020-06-03T17:53:51Z</time>
      </trkpt>
      <trkpt lat="47.16674" lon="-1.62359">
        <ele>22.24</ele>
        <time>2020-06-03T17:53:53Z</time>
      </trkpt>
      <trkpt lat="47.16689" lon="-1.62358">
        <ele>21.64</ele>
        <time>2020-06-03T17:53:55Z</time>
      </trkpt>
      <trkpt lat="47.16703" lon="-1.62365">
        <ele>20.8</ele>
        <time>2020-06-03T17:53:57Z</time>
      </trkpt>
      <trkpt lat="47.16715" lon="-1.6238">
        <ele>20.45</ele>
        <time>2020-06-03T17:53:59Z</time>
      </trkpt>
      <trkpt lat="47.16724" lon="-1.62396">
        <ele>21.09</ele>
        <time>2020-06-03T17:54:01Z</time>
      </trkpt>
      <trkpt lat="47.16731" lon="-1.62406">
        <ele>22.26</ele>
        <time>2020-06-03T17:54:03Z</time>
      </trkpt>
      <trkpt lat="47.16735" lon="-1.6242">
        <ele>22.47</ele>
        <time>2020-06-03T17:54:05Z</time>
      </trkpt>
      <trkpt lat="47.16733" lon="-1.62435">
        <ele>20.1</ele>
        <time>2020-06-03T17:54:07Z</time>
      </trkpt>
      <trkpt lat="47.16727" lon="-1.62449">
        <ele>18.74</ele>
        <time>2020-06-03T17:54:09Z</time>
      </trkpt>
      <trkpt lat="47.16722" lon="-1.62468">
        <ele>19.71</ele>
        <time>2020-06-03T17:54:11Z</time>
      </trkpt>
      <trkpt lat="47.16717" lon="-1.62484">
        <ele>21.11</ele>
        <time>2020-06-03T17:54:13Z</time>
      </trkpt>
      <trkpt lat="47.16719" lon="-1.62498">
        <ele>22.76</ele>
        <time>2020-06-03T17:54:15Z</time>
      </trkpt>
      <trkpt lat="47.16731" lon="-1.62503">
        <ele>23.31</ele>
        <time>2020-06-03T17:54:17Z</time>
      </trkpt>
      <trkpt lat="47.16744" lon="-1.62508">
        <ele>23</ele>
        <time>2020-06-03T17:54:19Z</time>
      </trkpt>
      <trkpt lat="47.16755" lon="-1.62512">
        <ele>22.64</ele>
        <time>2020-06-03T17:54:21Z</time>
      </trkpt>
      <trkpt lat="47.16767" lon="-1.62519">
        <ele>22.94</ele>
        <time>2020-06-03T17:54:23Z</time>
      </trkpt>
      <trkpt lat="47.16779" lon="-1.62526">
        <ele>21.88</ele>
        <time>2020-06-03T17:54:25Z</time>
      </trkpt>
      <trkpt lat="47.16792" lon="-1.62534">
        <ele>21.6</ele>
        <time>2020-06-03T17:54:27Z</time>
      </trkpt>
      <trkpt lat="47.16801" lon="-1.62541">
        <ele>21.45</ele>
        <time>2020-06-03T17:54:29Z</time>
      </trkpt>
      <trkpt lat="47.1681" lon="-1.62547">
        <ele>22.03</ele>
        <time>2020-06-03T17:54:31Z</time>
      </trkpt>
      <trkpt lat="47.16819" lon="-1.62554">
        <ele>21.45</ele>
        <time>2020-06-03T17:54:33Z</time>
      </trkpt>
      <trkpt lat="47.16829" lon="-1.62562">
        <ele>21.27</ele>
        <time>2020-06-03T17:54:35Z</time>
      </trkpt>
      <trkpt lat="47.16837" lon="-1.62572">
        <ele>21.68</ele>
        <time>2020-06-03T17:54:37Z</time>
      </trkpt>
      <trkpt lat="47.16835" lon="-1.62591">
        <ele>22.74</ele>
        <time>2020-06-03T17:54:39Z</time>
      </trkpt>
      <trkpt lat="47.16825" lon="-1.62605">
        <ele>22.7</ele>
        <time>2020-06-03T17:54:42Z</time>
      </trkpt>
      <trkpt lat="47.16817" lon="-1.62618">
        <ele>21.92</ele>
        <time>2020-06-03T17:54:43Z</time>
      </trkpt>
      <trkpt lat="47.16809" lon="-1.62628">
        <ele>21.23</ele>
        <time>2020-06-03T17:54:46Z</time>
      </trkpt>
      <trkpt lat="47.16802" lon="-1.6264">
        <ele>21.45</ele>
        <time>2020-06-03T17:54:48Z</time>
      </trkpt>
      <trkpt lat="47.16794" lon="-1.62651">
        <ele>21.27</ele>
        <time>2020-06-03T17:54:50Z</time>
      </trkpt>
      <trkpt lat="47.16788" lon="-1.62663">
        <ele>22.18</ele>
        <time>2020-06-03T17:54:52Z</time>
      </trkpt>
      <trkpt lat="47.16779" lon="-1.62661">
        <ele>22.06</ele>
        <time>2020-06-03T17:54:55Z</time>
      </trkpt>
      <trkpt lat="47.16773" lon="-1.62651">
        <ele>23.15</ele>
        <time>2020-06-03T17:55:45Z</time>
      </trkpt>
    </trkseg>
  </trk>
</gpx>